<?xml version='1.0' encoding='UTF-8'?><gpx version="1.1" creator="JPX - https://github.com/jenetics/jpx" xmlns="http://www.topografix.com/GPX/1/1"><trk><trkseg><trkpt lat="44.924440486240364" lon="11.99027491238634"><ele>-6.0</ele><time>2026-03-23T09:26:57.999Z</time></trkpt><trkpt lat="44.924449012324075" lon="11.990378218715783"><ele>-6.0</ele><time>2026-03-23T09:26:59.999Z</time></trkpt><trkpt lat="44.924448896003746" lon="11.990505814322207"><ele>-6.0</ele><time>2026-03-23T09:27:02.999Z</time></trkpt><trkpt lat="44.92443788213316" lon="11.990640779883941"><ele>-6.0</ele><time>2026-03-23T09:27:05.999Z</time></trkpt><trkpt lat="44.9244422852005" lon="11.990735431563401"><ele>-6.0</ele><time>2026-03-23T09:27:07.999Z</time></trkpt><trkpt lat="44.92444472456107" lon="11.990843332782266"><ele>-6.0</ele><time>2026-03-23T09:27:09.999Z</time></trkpt><trkpt lat="44.924447643434604" lon="11.990951387286081"><ele>-6.166666666666667</ele><time>2026-03-23T09:27:11.999Z</time></trkpt><trkpt lat="44.9244573983634" lon="11.99105588512519"><ele>-6.333333333333334</ele><time>2026-03-23T09:27:13.999Z</time></trkpt><trkpt lat="44.924427317141074" lon="11.991154588577638"><ele>-6.5</ele><time>2026-03-23T09:27:15.999Z</time></trkpt><trkpt lat="44.92434923705527" lon="11.991211246434553"><ele>-6.666666666666667</ele><time>2026-03-23T09:27:17.999Z</time></trkpt><trkpt lat="44.92426235149754" lon="11.99120453548967"><ele>-6.833333333333334</ele><time>2026-03-23T09:27:19.998Z</time></trkpt><trkpt lat="44.924181886404234" lon="11.991203347078464"><ele>-7.0</ele><time>2026-03-23T09:27:21.998Z</time></trkpt><trkpt lat="44.92410184929086" lon="11.991196548464725"><ele>-7.000000000000001</ele><time>2026-03-23T09:27:23.998Z</time></trkpt><trkpt lat="44.92401888001227" lon="11.991192270576361"><ele>-7.0</ele><time>2026-03-23T09:27:25.998Z</time></trkpt><trkpt lat="44.92393134695225" lon="11.991196822082317"><ele>-7.0</ele><time>2026-03-23T09:27:28Z</time></trkpt><trkpt lat="44.92384565947374" lon="11.991195329294435"><ele>-7.0</ele><time>2026-03-23T09:27:30Z</time></trkpt><trkpt lat="44.923763469325955" lon="11.991207126655814"><ele>-7.000000000000001</ele><time>2026-03-23T09:27:32Z</time></trkpt><trkpt lat="44.923683527529995" lon="11.991195064278314"><ele>-7.0</ele><time>2026-03-23T09:27:34Z</time></trkpt><trkpt lat="44.923604721119794" lon="11.991191380621492"><ele>-7.000000000000001</ele><time>2026-03-23T09:27:36Z</time></trkpt><trkpt lat="44.92352374337981" lon="11.991206574592344"><ele>-7.0</ele><time>2026-03-23T09:27:38Z</time></trkpt><trkpt lat="44.923442604430505" lon="11.991213036108848"><ele>-7.0</ele><time>2026-03-23T09:27:40Z</time></trkpt><trkpt lat="44.92335913932483" lon="11.991214606643135"><ele>-7.0</ele><time>2026-03-23T09:27:42Z</time></trkpt><trkpt lat="44.923277428812746" lon="11.991220400600291"><ele>-7.000000000000001</ele><time>2026-03-23T09:27:44Z</time></trkpt><trkpt lat="44.92319921848946" lon="11.991228797863858"><ele>-7.0</ele><time>2026-03-23T09:27:46Z</time></trkpt><trkpt lat="44.92312118252253" lon="11.991223925356492"><ele>-7.000000000000001</ele><time>2026-03-23T09:27:48Z</time></trkpt><trkpt lat="44.92303740635246" lon="11.99121789831957"><ele>-7.0</ele><time>2026-03-23T09:27:50Z</time></trkpt><trkpt lat="44.92295123431173" lon="11.991220967256579"><ele>-7.0</ele><time>2026-03-23T09:27:52Z</time></trkpt><trkpt lat="44.92286273296546" lon="11.991222548651331"><ele>-7.0</ele><time>2026-03-23T09:27:54Z</time></trkpt><trkpt lat="44.922771509267136" lon="11.99123446413532"><ele>-7.000000000000001</ele><time>2026-03-23T09:27:56Z</time></trkpt><trkpt lat="44.92268280802699" lon="11.991226312227221"><ele>-7.0</ele><time>2026-03-23T09:27:58Z</time></trkpt><trkpt lat="44.92259449638697" lon="11.99122963050626"><ele>-6.833333333333334</ele><time>2026-03-23T09:28:00Z</time></trkpt><trkpt lat="44.9225134444484" lon="11.991227842884976"><ele>-6.666666666666667</ele><time>2026-03-23T09:28:02Z</time></trkpt><trkpt lat="44.922431326252656" lon="11.991229990400262"><ele>-6.5</ele><time>2026-03-23T09:28:04Z</time></trkpt><trkpt lat="44.922347930672096" lon="11.991236453854782"><ele>-6.333333333333334</ele><time>2026-03-23T09:28:06Z</time></trkpt><trkpt lat="44.9222601741238" lon="11.991234764339925"><ele>-6.166666666666667</ele><time>2026-03-23T09:28:08Z</time></trkpt><trkpt lat="44.9221721415291" lon="11.99124059582822"><ele>-6.0</ele><time>2026-03-23T09:28:10Z</time></trkpt><trkpt lat="44.9220865233839" lon="11.991252335046308"><ele>-6.0</ele><time>2026-03-23T09:28:12Z</time></trkpt><trkpt lat="44.92200710780906" lon="11.991245902612924"><ele>-6.0</ele><time>2026-03-23T09:28:14Z</time></trkpt><trkpt lat="44.92192167191618" lon="11.991242404468915"><ele>-6.0</ele><time>2026-03-23T09:28:16Z</time></trkpt><trkpt lat="44.92183845575704" lon="11.991248814850636"><ele>-6.0</ele><time>2026-03-23T09:28:18Z</time></trkpt><trkpt lat="44.92175647680897" lon="11.991246064720142"><ele>-6.0</ele><time>2026-03-23T09:28:20Z</time></trkpt><trkpt lat="44.92167285534345" lon="11.991247996052556"><ele>-6.0</ele><time>2026-03-23T09:28:21.999Z</time></trkpt><trkpt lat="44.92159076138485" lon="11.991253347487334"><ele>-6.0</ele><time>2026-03-23T09:28:23.999Z</time></trkpt><trkpt lat="44.92151793067608" lon="11.991244917744671"><ele>-6.0</ele><time>2026-03-23T09:28:25.999Z</time></trkpt><trkpt lat="44.92143964530722" lon="11.991244757222331"><ele>-6.0</ele><time>2026-03-23T09:28:27.999Z</time></trkpt><trkpt lat="44.92135702063178" lon="11.991245494105236"><ele>-6.0</ele><time>2026-03-23T09:28:29.999Z</time></trkpt><trkpt lat="44.92127295763464" lon="11.99125268032085"><ele>-6.0</ele><time>2026-03-23T09:28:31.999Z</time></trkpt><trkpt lat="44.921196678688915" lon="11.991247907727745"><ele>-6.0</ele><time>2026-03-23T09:28:33.999Z</time></trkpt><trkpt lat="44.921123953853474" lon="11.991244268065268"><ele>-6.0</ele><time>2026-03-23T09:28:35.999Z</time></trkpt><trkpt lat="44.92103626950471" lon="11.991246124548747"><ele>-6.0</ele><time>2026-03-23T09:28:38.999Z</time></trkpt><trkpt lat="44.92094144856657" lon="11.991237548978038"><ele>-6.0</ele><time>2026-03-23T09:28:41.999Z</time></trkpt><trkpt lat="44.920861979438804" lon="11.991242828106015"><ele>-6.0</ele><time>2026-03-23T09:28:43.999Z</time></trkpt><trkpt lat="44.92077636139466" lon="11.99123972983757"><ele>-6.0</ele><time>2026-03-23T09:28:45.999Z</time></trkpt><trkpt lat="44.92068927875191" lon="11.991234023094176"><ele>-6.0</ele><time>2026-03-23T09:28:47.999Z</time></trkpt><trkpt lat="44.92060442532102" lon="11.991237416340658"><ele>-6.0</ele><time>2026-03-23T09:28:49.999Z</time></trkpt><trkpt lat="44.920512528832965" lon="11.991239737419459"><ele>-6.0</ele><time>2026-03-23T09:28:51.999Z</time></trkpt><trkpt lat="44.92042216875766" lon="11.991248634068324"><ele>-6.0</ele><time>2026-03-23T09:28:53.999Z</time></trkpt><trkpt lat="44.92033649027838" lon="11.991248204473687"><ele>-6.0</ele><time>2026-03-23T09:28:55.999Z</time></trkpt><trkpt lat="44.92025099311986" lon="11.991243062094563"><ele>-6.0</ele><time>2026-03-23T09:28:57.999Z</time></trkpt><trkpt lat="44.920165008111105" lon="11.99124449069139"><ele>-6.0</ele><time>2026-03-23T09:28:59.999Z</time></trkpt><trkpt lat="44.92007713439614" lon="11.99124668259744"><ele>-6.166666666666667</ele><time>2026-03-23T09:29:01.999Z</time></trkpt><trkpt lat="44.91999183647228" lon="11.991238920913105"><ele>-6.333333333333334</ele><time>2026-03-23T09:29:03.999Z</time></trkpt><trkpt lat="44.91990539649086" lon="11.991244807005277"><ele>-6.5</ele><time>2026-03-23T09:29:05.999Z</time></trkpt><trkpt lat="44.9198173149587" lon="11.991250349700932"><ele>-6.666666666666667</ele><time>2026-03-23T09:29:07.999Z</time></trkpt><trkpt lat="44.919733018531794" lon="11.991243561628705"><ele>-6.833333333333334</ele><time>2026-03-23T09:29:09.999Z</time></trkpt><trkpt lat="44.91964776496162" lon="11.991247657950323"><ele>-7.0</ele><time>2026-03-23T09:29:11.999Z</time></trkpt><trkpt lat="44.91955897176169" lon="11.991254572175102"><ele>-7.000000000000001</ele><time>2026-03-23T09:29:13.999Z</time></trkpt><trkpt lat="44.919471829846614" lon="11.99125227966438"><ele>-7.0</ele><time>2026-03-23T09:29:15.999Z</time></trkpt><trkpt lat="44.91938583586662" lon="11.991262645026739"><ele>-7.0</ele><time>2026-03-23T09:29:17.999Z</time></trkpt><trkpt lat="44.91930349099318" lon="11.99126165327258"><ele>-7.0</ele><time>2026-03-23T09:29:19.999Z</time></trkpt><trkpt lat="44.91921887891327" lon="11.991263797402846"><ele>-7.000000000000001</ele><time>2026-03-23T09:29:21.999Z</time></trkpt><trkpt lat="44.9191337855212" lon="11.9912613896055"><ele>-7.0</ele><time>2026-03-23T09:29:23.999Z</time></trkpt><trkpt lat="44.91904670682116" lon="11.991262813461415"><ele>-6.833333333333334</ele><time>2026-03-23T09:29:25.999Z</time></trkpt><trkpt lat="44.91895990113905" lon="11.991261785940905"><ele>-6.666666666666667</ele><time>2026-03-23T09:29:27.999Z</time></trkpt><trkpt lat="44.9188724785502" lon="11.991265454741418"><ele>-6.5</ele><time>2026-03-23T09:29:29.999Z</time></trkpt><trkpt lat="44.91878604455992" lon="11.991269141045471"><ele>-6.333333333333334</ele><time>2026-03-23T09:29:31.999Z</time></trkpt><trkpt lat="44.9187008262246" lon="11.991268892162191"><ele>-6.166666666666667</ele><time>2026-03-23T09:29:34Z</time></trkpt><trkpt lat="44.91861827173614" lon="11.991280699825253"><ele>-6.0</ele><time>2026-03-23T09:29:36Z</time></trkpt><trkpt lat="44.918530090538326" lon="11.991280336846204"><ele>-6.0</ele><time>2026-03-23T09:29:38Z</time></trkpt><trkpt lat="44.91844414311019" lon="11.991266902251166"><ele>-6.0</ele><time>2026-03-23T09:29:40Z</time></trkpt><trkpt lat="44.918354981306265" lon="11.99127585680758"><ele>-6.0</ele><time>2026-03-23T09:29:42Z</time></trkpt><trkpt lat="44.918265023655046" lon="11.991275061380886"><ele>-6.0</ele><time>2026-03-23T09:29:44Z</time></trkpt><trkpt lat="44.91817736352432" lon="11.991274232461924"><ele>-6.0</ele><time>2026-03-23T09:29:46Z</time></trkpt><trkpt lat="44.91809498784696" lon="11.991274776983396"><ele>-6.0</ele><time>2026-03-23T09:29:48Z</time></trkpt><trkpt lat="44.9180117737752" lon="11.991271221256545"><ele>-6.166666666666667</ele><time>2026-03-23T09:29:50Z</time></trkpt><trkpt lat="44.91793397085599" lon="11.991275067582299"><ele>-6.333333333333334</ele><time>2026-03-23T09:29:52Z</time></trkpt><trkpt lat="44.91785250132556" lon="11.991282202870831"><ele>-6.5</ele><time>2026-03-23T09:29:54Z</time></trkpt><trkpt lat="44.91777128783768" lon="11.991280914200985"><ele>-6.666666666666667</ele><time>2026-03-23T09:29:56Z</time></trkpt><trkpt lat="44.91768898325058" lon="11.99128381155251"><ele>-6.833333333333334</ele><time>2026-03-23T09:29:58Z</time></trkpt><trkpt lat="44.91760357723589" lon="11.991276145823386"><ele>-7.0</ele><time>2026-03-23T09:30:00Z</time></trkpt><trkpt lat="44.91751589689809" lon="11.991293789326965"><ele>-7.000000000000001</ele><time>2026-03-23T09:30:02Z</time></trkpt><trkpt lat="44.91744189522537" lon="11.99129527227482"><ele>-7.0</ele><time>2026-03-23T09:30:04Z</time></trkpt><trkpt lat="44.91737155457382" lon="11.99130043107011"><ele>-7.0</ele><time>2026-03-23T09:30:06Z</time></trkpt><trkpt lat="44.91730063064614" lon="11.991294959120856"><ele>-7.0</ele><time>2026-03-23T09:30:08Z</time></trkpt><trkpt lat="44.91722285518742" lon="11.991295691740193"><ele>-7.000000000000001</ele><time>2026-03-23T09:30:10Z</time></trkpt><trkpt lat="44.9171390150178" lon="11.991290124562328"><ele>-7.0</ele><time>2026-03-23T09:30:12Z</time></trkpt><trkpt lat="44.91705404548366" lon="11.991281597768253"><ele>-7.000000000000001</ele><time>2026-03-23T09:30:14Z</time></trkpt><trkpt lat="44.91697554998694" lon="11.991291058854948"><ele>-7.0</ele><time>2026-03-23T09:30:16Z</time></trkpt><trkpt lat="44.91689634849365" lon="11.991305835976826"><ele>-7.0</ele><time>2026-03-23T09:30:18Z</time></trkpt><trkpt lat="44.9168275847411" lon="11.991313991194271"><ele>-7.0</ele><time>2026-03-23T09:30:20Z</time></trkpt><trkpt lat="44.916745792143686" lon="11.99130790419834"><ele>-7.000000000000001</ele><time>2026-03-23T09:30:22Z</time></trkpt><trkpt lat="44.91667221657743" lon="11.99131790930367"><ele>-7.0</ele><time>2026-03-23T09:30:24Z</time></trkpt><trkpt lat="44.916600756449505" lon="11.991311251333565"><ele>-6.833333333333334</ele><time>2026-03-23T09:30:26Z</time></trkpt><trkpt lat="44.916524105757254" lon="11.991311066711356"><ele>-6.666666666666667</ele><time>2026-03-23T09:30:28Z</time></trkpt><trkpt lat="44.91645088147262" lon="11.99129486592622"><ele>-6.5</ele><time>2026-03-23T09:30:30Z</time></trkpt><trkpt lat="44.91637901779998" lon="11.991292831662847"><ele>-6.333333333333334</ele><time>2026-03-23T09:30:32Z</time></trkpt><trkpt lat="44.916314771136726" lon="11.991302745424845"><ele>-6.166666666666667</ele><time>2026-03-23T09:30:34Z</time></trkpt><trkpt lat="44.916220299702374" lon="11.991306540783452"><ele>-6.0</ele><time>2026-03-23T09:30:36.999Z</time></trkpt><trkpt lat="44.916133658148595" lon="11.991297663463811"><ele>-5.999999999999999</ele><time>2026-03-23T09:30:39.999Z</time></trkpt><trkpt lat="44.9160657055824" lon="11.991297285072818"><ele>-6.0</ele><time>2026-03-23T09:30:41.999Z</time></trkpt><trkpt lat="44.91599970768078" lon="11.991306153040021"><ele>-6.0</ele><time>2026-03-23T09:30:43.999Z</time></trkpt><trkpt lat="44.91592798354901" lon="11.991309634424708"><ele>-6.0</ele><time>2026-03-23T09:30:45.999Z</time></trkpt><trkpt lat="44.91585333884816" lon="11.991294670901336"><ele>-6.0</ele><time>2026-03-23T09:30:47.999Z</time></trkpt><trkpt lat="44.91578253816797" lon="11.991302086669464"><ele>-5.999999999999999</ele><time>2026-03-23T09:30:49.999Z</time></trkpt><trkpt lat="44.91570653077626" lon="11.9913163132019"><ele>-6.0</ele><time>2026-03-23T09:30:51.999Z</time></trkpt><trkpt lat="44.915625506080815" lon="11.991321797795953"><ele>-5.833333333333333</ele><time>2026-03-23T09:30:53.999Z</time></trkpt><trkpt lat="44.91553882683421" lon="11.991319500913537"><ele>-5.666666666666667</ele><time>2026-03-23T09:30:55.999Z</time></trkpt><trkpt lat="44.91545968198966" lon="11.991320401883742"><ele>-5.5</ele><time>2026-03-23T09:30:57.999Z</time></trkpt><trkpt lat="44.91538161482192" lon="11.991329855392973"><ele>-5.333333333333334</ele><time>2026-03-23T09:30:59.999Z</time></trkpt><trkpt lat="44.91530645163876" lon="11.991339223554943"><ele>-5.166666666666667</ele><time>2026-03-23T09:31:01.999Z</time></trkpt><trkpt lat="44.915235220710926" lon="11.991337707137856"><ele>-5.0</ele><time>2026-03-23T09:31:03.999Z</time></trkpt><trkpt lat="44.91517135624408" lon="11.991330579174187"><ele>-5.0</ele><time>2026-03-23T09:31:05.999Z</time></trkpt><trkpt lat="44.91509670605859" lon="11.991315768652502"><ele>-5.0</ele><time>2026-03-23T09:31:07.999Z</time></trkpt><trkpt lat="44.91501688518189" lon="11.991327072369112"><ele>-5.0</ele><time>2026-03-23T09:31:09.999Z</time></trkpt><trkpt lat="44.914943595904056" lon="11.991334654844747"><ele>-5.0</ele><time>2026-03-23T09:31:11.999Z</time></trkpt><trkpt lat="44.91487444840883" lon="11.991328819777442"><ele>-5.0</ele><time>2026-03-23T09:31:13.999Z</time></trkpt><trkpt lat="44.91480681577331" lon="11.991333658754991"><ele>-5.0</ele><time>2026-03-23T09:31:15.999Z</time></trkpt><trkpt lat="44.914726262630836" lon="11.991335817407908"><ele>-5.0</ele><time>2026-03-23T09:31:17.999Z</time></trkpt><trkpt lat="44.9146447277548" lon="11.991332816860092"><ele>-5.0</ele><time>2026-03-23T09:31:19.999Z</time></trkpt><trkpt lat="44.91456517810719" lon="11.991331898944779"><ele>-5.0</ele><time>2026-03-23T09:31:21.999Z</time></trkpt><trkpt lat="44.914484001022686" lon="11.99133281779843"><ele>-5.0</ele><time>2026-03-23T09:31:23.999Z</time></trkpt><trkpt lat="44.914405588992814" lon="11.991331388385818"><ele>-5.0</ele><time>2026-03-23T09:31:25.999Z</time></trkpt><trkpt lat="44.914324366185404" lon="11.991331882153215"><ele>-5.0</ele><time>2026-03-23T09:31:27.999Z</time></trkpt><trkpt lat="44.91423973781194" lon="11.991335570990973"><ele>-5.0</ele><time>2026-03-23T09:31:29.999Z</time></trkpt><trkpt lat="44.91415805715127" lon="11.991341181074525"><ele>-5.0</ele><time>2026-03-23T09:31:31.999Z</time></trkpt><trkpt lat="44.91407969539154" lon="11.991340126939976"><ele>-5.0</ele><time>2026-03-23T09:31:33.999Z</time></trkpt><trkpt lat="44.91399946719356" lon="11.991336164948601"><ele>-5.0</ele><time>2026-03-23T09:31:35.999Z</time></trkpt><trkpt lat="44.91393225033326" lon="11.991346055098017"><ele>-5.0</ele><time>2026-03-23T09:31:37.999Z</time></trkpt><trkpt lat="44.91386033996655" lon="11.991346796997462"><ele>-5.0</ele><time>2026-03-23T09:31:40Z</time></trkpt><trkpt lat="44.91378101342482" lon="11.991331502201087"><ele>-5.0</ele><time>2026-03-23T09:31:42Z</time></trkpt><trkpt lat="44.91370057294905" lon="11.991335059814178"><ele>-5.0</ele><time>2026-03-23T09:31:44Z</time></trkpt><trkpt lat="44.91362059064823" lon="11.991339145573907"><ele>-5.0</ele><time>2026-03-23T09:31:46Z</time></trkpt><trkpt lat="44.91354099302888" lon="11.991341687394556"><ele>-5.0</ele><time>2026-03-23T09:31:48Z</time></trkpt><trkpt lat="44.91346484436671" lon="11.991341337974328"><ele>-5.0</ele><time>2026-03-23T09:31:50Z</time></trkpt><trkpt lat="44.913382824574455" lon="11.991343343964042"><ele>-5.0</ele><time>2026-03-23T09:31:52Z</time></trkpt><trkpt lat="44.91330504732197" lon="11.99134540065132"><ele>-5.0</ele><time>2026-03-23T09:31:54Z</time></trkpt><trkpt lat="44.91323614382754" lon="11.99134605567748"><ele>-5.0</ele><time>2026-03-23T09:31:56Z</time></trkpt><trkpt lat="44.91316511518523" lon="11.991336826821758"><ele>-5.0</ele><time>2026-03-23T09:31:58Z</time></trkpt><trkpt lat="44.91309269203073" lon="11.991338390444586"><ele>-5.0</ele><time>2026-03-23T09:32:00Z</time></trkpt><trkpt lat="44.913014612739246" lon="11.991340468854572"><ele>-5.0</ele><time>2026-03-23T09:32:02Z</time></trkpt><trkpt lat="44.912933967199706" lon="11.991335872405353"><ele>-5.0</ele><time>2026-03-23T09:32:04Z</time></trkpt><trkpt lat="44.912859288142236" lon="11.991326259962856"><ele>-5.0</ele><time>2026-03-23T09:32:06Z</time></trkpt><trkpt lat="44.91278155838962" lon="11.991325120201157"><ele>-5.0</ele><time>2026-03-23T09:32:08Z</time></trkpt><trkpt lat="44.912699737452066" lon="11.99131871640348"><ele>-5.0</ele><time>2026-03-23T09:32:10Z</time></trkpt><trkpt lat="44.91261750859035" lon="11.991318015737205"><ele>-5.0</ele><time>2026-03-23T09:32:12Z</time></trkpt><trkpt lat="44.91254090125142" lon="11.99131142970861"><ele>-5.0</ele><time>2026-03-23T09:32:14Z</time></trkpt><trkpt lat="44.91247091494247" lon="11.99130579060255"><ele>-5.0</ele><time>2026-03-23T09:32:16Z</time></trkpt><trkpt lat="44.9123922602204" lon="11.991301539283635"><ele>-5.0</ele><time>2026-03-23T09:32:18Z</time></trkpt><trkpt lat="44.91231774830692" lon="11.991296506462259"><ele>-5.166666666666667</ele><time>2026-03-23T09:32:20Z</time></trkpt><trkpt lat="44.912246399625026" lon="11.991290710772864"><ele>-5.333333333333334</ele><time>2026-03-23T09:32:22Z</time></trkpt><trkpt lat="44.91216394517729" lon="11.99128592756826"><ele>-5.5</ele><time>2026-03-23T09:32:24Z</time></trkpt><trkpt lat="44.91208338143939" lon="11.99128078839722"><ele>-5.666666666666667</ele><time>2026-03-23T09:32:26Z</time></trkpt><trkpt lat="44.912010605510154" lon="11.991275659226831"><ele>-5.833333333333333</ele><time>2026-03-23T09:32:28Z</time></trkpt><trkpt lat="44.91193296099447" lon="11.991272871029562"><ele>-6.0</ele><time>2026-03-23T09:32:30Z</time></trkpt><trkpt lat="44.91185469349205" lon="11.991269238945184"><ele>-6.0</ele><time>2026-03-23T09:32:32Z</time></trkpt><trkpt lat="44.91177540319506" lon="11.991260660357916"><ele>-6.0</ele><time>2026-03-23T09:32:34Z</time></trkpt><trkpt lat="44.91169730511951" lon="11.991254456409617"><ele>-6.0</ele><time>2026-03-23T09:32:36Z</time></trkpt><trkpt lat="44.91162244453381" lon="11.991254994021574"><ele>-6.0</ele><time>2026-03-23T09:32:38Z</time></trkpt><trkpt lat="44.91154346345126" lon="11.991250704647607"><ele>-6.0</ele><time>2026-03-23T09:32:39.999Z</time></trkpt><trkpt lat="44.91146533755517" lon="11.99124586956972"><ele>-6.0</ele><time>2026-03-23T09:32:41.999Z</time></trkpt><trkpt lat="44.911385975168464" lon="11.99123844046255"><ele>-6.166666666666667</ele><time>2026-03-23T09:32:43.999Z</time></trkpt><trkpt lat="44.91130579949445" lon="11.991236590458891"><ele>-6.333333333333334</ele><time>2026-03-23T09:32:45.999Z</time></trkpt><trkpt lat="44.91122519622532" lon="11.991229974767437"><ele>-6.5</ele><time>2026-03-23T09:32:47.999Z</time></trkpt><trkpt lat="44.911143060185914" lon="11.991223831183413"><ele>-6.666666666666667</ele><time>2026-03-23T09:32:49.999Z</time></trkpt><trkpt lat="44.911060734797445" lon="11.991219312601803"><ele>-6.833333333333334</ele><time>2026-03-23T09:32:51.999Z</time></trkpt><trkpt lat="44.910979709864314" lon="11.991209007768285"><ele>-7.0</ele><time>2026-03-23T09:32:53.999Z</time></trkpt><trkpt lat="44.910908098195435" lon="11.991209312084964"><ele>-7.166666666666667</ele><time>2026-03-23T09:32:55.999Z</time></trkpt><trkpt lat="44.91083300544448" lon="11.991201118477678"><ele>-7.333333333333334</ele><time>2026-03-23T09:32:57.999Z</time></trkpt><trkpt lat="44.91075189327023" lon="11.991196388740038"><ele>-7.5</ele><time>2026-03-23T09:32:59.999Z</time></trkpt><trkpt lat="44.91067656871521" lon="11.991192190699925"><ele>-7.666666666666666</ele><time>2026-03-23T09:33:01.999Z</time></trkpt><trkpt lat="44.910601144770375" lon="11.991189085790868"><ele>-7.833333333333333</ele><time>2026-03-23T09:33:03.999Z</time></trkpt><trkpt lat="44.91051875993685" lon="11.991185359264877"><ele>-8.0</ele><time>2026-03-23T09:33:05.999Z</time></trkpt><trkpt lat="44.91043804768662" lon="11.991181551103711"><ele>-7.999999999999999</ele><time>2026-03-23T09:33:07.999Z</time></trkpt><trkpt lat="44.91036388033465" lon="11.991173856873893"><ele>-8.0</ele><time>2026-03-23T09:33:09.999Z</time></trkpt><trkpt lat="44.91028410472646" lon="11.99117420167062"><ele>-8.0</ele><time>2026-03-23T09:33:11.999Z</time></trkpt><trkpt lat="44.910203738478565" lon="11.9911671457845"><ele>-8.0</ele><time>2026-03-23T09:33:13.999Z</time></trkpt><trkpt lat="44.91012403533716" lon="11.99116190660261"><ele>-7.999999999999999</ele><time>2026-03-23T09:33:15.999Z</time></trkpt><trkpt lat="44.91004610687886" lon="11.99115650414849"><ele>-8.0</ele><time>2026-03-23T09:33:17.999Z</time></trkpt><trkpt lat="44.90997147985041" lon="11.991151770931385"><ele>-7.666666666666666</ele><time>2026-03-23T09:33:19.999Z</time></trkpt><trkpt lat="44.909901389006016" lon="11.991142762187792"><ele>-7.333333333333333</ele><time>2026-03-23T09:33:21.999Z</time></trkpt><trkpt lat="44.90981919763681" lon="11.991139471453852"><ele>-7.0</ele><time>2026-03-23T09:33:23.999Z</time></trkpt><trkpt lat="44.9097377060927" lon="11.991136587347745"><ele>-6.666666666666666</ele><time>2026-03-23T09:33:25.999Z</time></trkpt><trkpt lat="44.90965666057142" lon="11.991130097586094"><ele>-6.333333333333333</ele><time>2026-03-23T09:33:27.999Z</time></trkpt><trkpt lat="44.90957657171841" lon="11.991131610763219"><ele>-6.0</ele><time>2026-03-23T09:33:29.999Z</time></trkpt><trkpt lat="44.9095086521613" lon="11.991126070723793"><ele>-5.999999999999999</ele><time>2026-03-23T09:33:31.999Z</time></trkpt><trkpt lat="44.90943336220181" lon="11.9911189025874"><ele>-6.0</ele><time>2026-03-23T09:33:33.999Z</time></trkpt><trkpt lat="44.90936420468819" lon="11.991114903186025"><ele>-6.0</ele><time>2026-03-23T09:33:35.999Z</time></trkpt><trkpt lat="44.90928529216379" lon="11.991110069655704"><ele>-6.0</ele><time>2026-03-23T09:33:37.999Z</time></trkpt><trkpt lat="44.909208874455445" lon="11.991109667371761"><ele>-6.0</ele><time>2026-03-23T09:33:39.999Z</time></trkpt><trkpt lat="44.90913586277321" lon="11.991101332599442"><ele>-5.999999999999999</ele><time>2026-03-23T09:33:41.999Z</time></trkpt><trkpt lat="44.90906591451494" lon="11.991098911701204"><ele>-6.0</ele><time>2026-03-23T09:33:43.999Z</time></trkpt><trkpt lat="44.908983272295416" lon="11.991092264565355"><ele>-5.7142857142857135</ele><time>2026-03-23T09:33:46Z</time></trkpt><trkpt lat="44.90890075385649" lon="11.991085862421071"><ele>-5.428571428571429</ele><time>2026-03-23T09:33:48Z</time></trkpt><trkpt lat="44.908824405881695" lon="11.991083468293622"><ele>-5.142857142857142</ele><time>2026-03-23T09:33:50Z</time></trkpt><trkpt lat="44.90875271236074" lon="11.991074300395137"><ele>-4.857142857142857</ele><time>2026-03-23T09:33:52Z</time></trkpt><trkpt lat="44.90868229978409" lon="11.991068267813075"><ele>-4.571428571428571</ele><time>2026-03-23T09:33:54Z</time></trkpt><trkpt lat="44.908608357496355" lon="11.991059930340112"><ele>-4.285714285714286</ele><time>2026-03-23T09:33:56Z</time></trkpt><trkpt lat="44.908542028314265" lon="11.991056764391278"><ele>-4.0</ele><time>2026-03-23T09:33:58Z</time></trkpt><trkpt lat="44.908468634959114" lon="11.991048264606738"><ele>-3.9999999999999996</ele><time>2026-03-23T09:34:00Z</time></trkpt><trkpt lat="44.90839646053531" lon="11.991042965774367"><ele>-4.0</ele><time>2026-03-23T09:34:02Z</time></trkpt><trkpt lat="44.908311829020164" lon="11.99104469991086"><ele>-4.0</ele><time>2026-03-23T09:34:05Z</time></trkpt><trkpt lat="44.90826464713473" lon="11.990978407504471"><ele>-4.0</ele><time>2026-03-23T09:34:07Z</time></trkpt><trkpt lat="44.90825651801308" lon="11.990859975647878"><ele>-3.9999999999999996</ele><time>2026-03-23T09:34:09Z</time></trkpt><trkpt lat="44.90823688793494" lon="11.990741574219149"><ele>-4.0</ele><time>2026-03-23T09:34:11Z</time></trkpt><trkpt lat="44.90822321778108" lon="11.99062725318199"><ele>-3.9999999999999996</ele><time>2026-03-23T09:34:13Z</time></trkpt><trkpt lat="44.90819526252976" lon="11.990515879584509"><ele>-4.0</ele><time>2026-03-23T09:34:15Z</time></trkpt><trkpt lat="44.90817795679314" lon="11.990396255807358"><ele>-4.0</ele><time>2026-03-23T09:34:17Z</time></trkpt><trkpt lat="44.908154732170644" lon="11.990280697762538"><ele>-4.0</ele><time>2026-03-23T09:34:19Z</time></trkpt><trkpt lat="44.90814074051833" lon="11.990165591909472"><ele>-3.9999999999999996</ele><time>2026-03-23T09:34:21Z</time></trkpt><trkpt lat="44.908120088901846" lon="11.990048968979332"><ele>-4.0</ele><time>2026-03-23T09:34:23Z</time></trkpt><trkpt lat="44.90809794026012" lon="11.98992965091088"><ele>-3.9999999999999996</ele><time>2026-03-23T09:34:25Z</time></trkpt><trkpt lat="44.908076856406446" lon="11.989815057161483"><ele>-4.0</ele><time>2026-03-23T09:34:27Z</time></trkpt><trkpt lat="44.90805323301801" lon="11.98969116834987"><ele>-4.0</ele><time>2026-03-23T09:34:29Z</time></trkpt><trkpt lat="44.90803083902126" lon="11.989567252832012"><ele>-4.0</ele><time>2026-03-23T09:34:31Z</time></trkpt><trkpt lat="44.90801128877784" lon="11.989445370033337"><ele>-3.9999999999999996</ele><time>2026-03-23T09:34:33Z</time></trkpt><trkpt lat="44.907989174375274" lon="11.9893274901129"><ele>-4.0</ele><time>2026-03-23T09:34:35Z</time></trkpt><trkpt lat="44.907967262966075" lon="11.98921138596277"><ele>-4.166666666666666</ele><time>2026-03-23T09:34:37Z</time></trkpt><trkpt lat="44.90794590691378" lon="11.989100796837592"><ele>-4.333333333333333</ele><time>2026-03-23T09:34:39Z</time></trkpt><trkpt lat="44.90792719238548" lon="11.988990598308032"><ele>-4.5</ele><time>2026-03-23T09:34:41Z</time></trkpt><trkpt lat="44.90790689946012" lon="11.988874549363716"><ele>-4.666666666666667</ele><time>2026-03-23T09:34:43Z</time></trkpt><trkpt lat="44.90788927502003" lon="11.988755180667896"><ele>-4.833333333333334</ele><time>2026-03-23T09:34:45Z</time></trkpt><trkpt lat="44.907870218164035" lon="11.98863304882659"><ele>-5.0</ele><time>2026-03-23T09:34:47Z</time></trkpt><trkpt lat="44.90783921763148" lon="11.988518656806725"><ele>-5.0</ele><time>2026-03-23T09:34:49Z</time></trkpt><trkpt lat="44.907830013238865" lon="11.98841199671409"><ele>-5.0</ele><time>2026-03-23T09:34:51Z</time></trkpt><trkpt lat="44.907813115298374" lon="11.988297641232435"><ele>-5.0</ele><time>2026-03-23T09:34:52.999Z</time></trkpt><trkpt lat="44.907791830975775" lon="11.988183144719912"><ele>-5.0</ele><time>2026-03-23T09:34:54.999Z</time></trkpt><trkpt lat="44.907771660645224" lon="11.988071533177964"><ele>-5.0</ele><time>2026-03-23T09:34:56.999Z</time></trkpt><trkpt lat="44.9077495090369" lon="11.98795316070024"><ele>-5.0</ele><time>2026-03-23T09:34:58.999Z</time></trkpt><trkpt lat="44.90773345292135" lon="11.987837885138987"><ele>-5.0</ele><time>2026-03-23T09:35:00.999Z</time></trkpt><trkpt lat="44.90771157901156" lon="11.987726840460647"><ele>-5.0</ele><time>2026-03-23T09:35:02.999Z</time></trkpt><trkpt lat="44.90769234034318" lon="11.987614389656889"><ele>-5.0</ele><time>2026-03-23T09:35:04.999Z</time></trkpt><trkpt lat="44.90766811299823" lon="11.987500976310212"><ele>-5.0</ele><time>2026-03-23T09:35:06.999Z</time></trkpt><trkpt lat="44.90765601133619" lon="11.987394184028183"><ele>-5.0</ele><time>2026-03-23T09:35:08.999Z</time></trkpt><trkpt lat="44.907639078855595" lon="11.987297416816986"><ele>-5.0</ele><time>2026-03-23T09:35:10.999Z</time></trkpt><trkpt lat="44.90761530534892" lon="11.987203299970073"><ele>-5.0</ele><time>2026-03-23T09:35:12.999Z</time></trkpt><trkpt lat="44.90760104342215" lon="11.98709265360082"><ele>-5.0</ele><time>2026-03-23T09:35:14.999Z</time></trkpt><trkpt lat="44.90758054386934" lon="11.986987774893738"><ele>-5.0</ele><time>2026-03-23T09:35:16.999Z</time></trkpt><trkpt lat="44.907561764494304" lon="11.98687291845067"><ele>-5.0</ele><time>2026-03-23T09:35:18.999Z</time></trkpt><trkpt lat="44.90754185431739" lon="11.986757488992943"><ele>-5.0</ele><time>2026-03-23T09:35:20.999Z</time></trkpt><trkpt lat="44.907522182074416" lon="11.986642956048943"><ele>-5.0</ele><time>2026-03-23T09:35:22.999Z</time></trkpt><trkpt lat="44.907504399852556" lon="11.986530110482018"><ele>-5.166666666666667</ele><time>2026-03-23T09:35:24.999Z</time></trkpt><trkpt lat="44.907481436015395" lon="11.986416332500688"><ele>-5.333333333333334</ele><time>2026-03-23T09:35:26.999Z</time></trkpt><trkpt lat="44.90745740373027" lon="11.986310019681857"><ele>-5.5</ele><time>2026-03-23T09:35:28.999Z</time></trkpt><trkpt lat="44.907445424189554" lon="11.986205547457441"><ele>-5.666666666666667</ele><time>2026-03-23T09:35:30.999Z</time></trkpt><trkpt lat="44.90742851622051" lon="11.986106444292489"><ele>-5.833333333333333</ele><time>2026-03-23T09:35:32.999Z</time></trkpt><trkpt lat="44.90740773320239" lon="11.985996542737142"><ele>-6.0</ele><time>2026-03-23T09:35:34.999Z</time></trkpt><trkpt lat="44.90739063074318" lon="11.98588156130667"><ele>-5.833333333333333</ele><time>2026-03-23T09:35:36.999Z</time></trkpt><trkpt lat="44.907367291498474" lon="11.985760702630918"><ele>-5.666666666666667</ele><time>2026-03-23T09:35:38.999Z</time></trkpt><trkpt lat="44.90734612265045" lon="11.985640645574021"><ele>-5.5</ele><time>2026-03-23T09:35:40.999Z</time></trkpt><trkpt lat="44.907325964649644" lon="11.985521712311233"><ele>-5.333333333333334</ele><time>2026-03-23T09:35:42.999Z</time></trkpt><trkpt lat="44.9073051803743" lon="11.985414074887501"><ele>-5.166666666666667</ele><time>2026-03-23T09:35:44.999Z</time></trkpt><trkpt lat="44.90728798026285" lon="11.985296584658267"><ele>-5.0</ele><time>2026-03-23T09:35:46.999Z</time></trkpt><trkpt lat="44.9072630495314" lon="11.985178575272437"><ele>-5.0</ele><time>2026-03-23T09:35:48.999Z</time></trkpt><trkpt lat="44.90724702246017" lon="11.985059461002598"><ele>-5.0</ele><time>2026-03-23T09:35:50.999Z</time></trkpt><trkpt lat="44.90722573679906" lon="11.984943237611075"><ele>-5.0</ele><time>2026-03-23T09:35:53Z</time></trkpt><trkpt lat="44.90720460777337" lon="11.984821821110065"><ele>-5.0</ele><time>2026-03-23T09:35:55Z</time></trkpt><trkpt lat="44.90718294298273" lon="11.984700782287284"><ele>-5.0</ele><time>2026-03-23T09:35:57Z</time></trkpt><trkpt lat="44.90715873810395" lon="11.984575012741"><ele>-5.0</ele><time>2026-03-23T09:35:59Z</time></trkpt><trkpt lat="44.90713809682268" lon="11.984446893759172"><ele>-5.0</ele><time>2026-03-23T09:36:01Z</time></trkpt><trkpt lat="44.907115535093396" lon="11.984319685494475"><ele>-5.0</ele><time>2026-03-23T09:36:03Z</time></trkpt><trkpt lat="44.90709378152742" lon="11.984193101969055"><ele>-5.0</ele><time>2026-03-23T09:36:05Z</time></trkpt><trkpt lat="44.90707088594679" lon="11.984058941004077"><ele>-5.0</ele><time>2026-03-23T09:36:07Z</time></trkpt><trkpt lat="44.90704643230416" lon="11.983934797317563"><ele>-5.0</ele><time>2026-03-23T09:36:09Z</time></trkpt><trkpt lat="44.90702194461684" lon="11.983811256409725"><ele>-5.0</ele><time>2026-03-23T09:36:11Z</time></trkpt><trkpt lat="44.90700704015632" lon="11.983685912506367"><ele>-5.0</ele><time>2026-03-23T09:36:13Z</time></trkpt><trkpt lat="44.9069849563955" lon="11.983559261564093"><ele>-5.0</ele><time>2026-03-23T09:36:15Z</time></trkpt><trkpt lat="44.906961336587536" lon="11.983436591492628"><ele>-5.0</ele><time>2026-03-23T09:36:17Z</time></trkpt><trkpt lat="44.90693738923627" lon="11.983315558333857"><ele>-5.0</ele><time>2026-03-23T09:36:19Z</time></trkpt><trkpt lat="44.90691704440145" lon="11.983190590676996"><ele>-5.0</ele><time>2026-03-23T09:36:21Z</time></trkpt><trkpt lat="44.90689915360519" lon="11.983067022093904"><ele>-5.0</ele><time>2026-03-23T09:36:23Z</time></trkpt><trkpt lat="44.90687450939662" lon="11.982947483107125"><ele>-5.0</ele><time>2026-03-23T09:36:25Z</time></trkpt><trkpt lat="44.90685494308751" lon="11.982828458215362"><ele>-5.0</ele><time>2026-03-23T09:36:27Z</time></trkpt><trkpt lat="44.90683257372913" lon="11.982710116326912"><ele>-5.0</ele><time>2026-03-23T09:36:29Z</time></trkpt><trkpt lat="44.90681125370107" lon="11.982594369313333"><ele>-5.0</ele><time>2026-03-23T09:36:31Z</time></trkpt><trkpt lat="44.90679718490505" lon="11.982478869181662"><ele>-5.166666666666667</ele><time>2026-03-23T09:36:32.999Z</time></trkpt><trkpt lat="44.906777369323315" lon="11.982371532714843"><ele>-5.333333333333334</ele><time>2026-03-23T09:36:34.999Z</time></trkpt><trkpt lat="44.90675561005629" lon="11.982257084528975"><ele>-5.5</ele><time>2026-03-23T09:36:36.999Z</time></trkpt><trkpt lat="44.90673216598063" lon="11.982144578330276"><ele>-5.666666666666667</ele><time>2026-03-23T09:36:38.999Z</time></trkpt><trkpt lat="44.90671505212796" lon="11.982033900180623"><ele>-5.833333333333333</ele><time>2026-03-23T09:36:40.999Z</time></trkpt><trkpt lat="44.9066974033698" lon="11.981925459149013"><ele>-6.0</ele><time>2026-03-23T09:36:42.999Z</time></trkpt><trkpt lat="44.90667526248714" lon="11.981809471042297"><ele>-6.0</ele><time>2026-03-23T09:36:44.999Z</time></trkpt><trkpt lat="44.906656656840845" lon="11.981695887879438"><ele>-6.0</ele><time>2026-03-23T09:36:46.999Z</time></trkpt><trkpt lat="44.90663640068939" lon="11.98158257198293"><ele>-6.0</ele><time>2026-03-23T09:36:48.999Z</time></trkpt><trkpt lat="44.906619143246296" lon="11.981463563267809"><ele>-6.0</ele><time>2026-03-23T09:36:50.999Z</time></trkpt><trkpt lat="44.90659622235383" lon="11.981351763051046"><ele>-6.0</ele><time>2026-03-23T09:36:52.999Z</time></trkpt><trkpt lat="44.906576985176734" lon="11.981234245365648"><ele>-6.0</ele><time>2026-03-23T09:36:54.999Z</time></trkpt><trkpt lat="44.906555872032776" lon="11.981115753894334"><ele>-5.833333333333333</ele><time>2026-03-23T09:36:56.999Z</time></trkpt><trkpt lat="44.906533955999215" lon="11.980995532582627"><ele>-5.666666666666667</ele><time>2026-03-23T09:36:58.999Z</time></trkpt><trkpt lat="44.90651443270149" lon="11.980877917317617"><ele>-5.5</ele><time>2026-03-23T09:37:00.999Z</time></trkpt><trkpt lat="44.90649288808944" lon="11.98076010338466"><ele>-5.333333333333334</ele><time>2026-03-23T09:37:02.999Z</time></trkpt><trkpt lat="44.90646943227472" lon="11.980641735330066"><ele>-5.166666666666667</ele><time>2026-03-23T09:37:04.999Z</time></trkpt><trkpt lat="44.90645069302009" lon="11.980517620544134"><ele>-5.0</ele><time>2026-03-23T09:37:06.999Z</time></trkpt><trkpt lat="44.90642863536295" lon="11.980398061185848"><ele>-5.0</ele><time>2026-03-23T09:37:08.999Z</time></trkpt><trkpt lat="44.906407731623254" lon="11.980275925520885"><ele>-5.0</ele><time>2026-03-23T09:37:10.999Z</time></trkpt><trkpt lat="44.90638831789899" lon="11.980151420615067"><ele>-5.0</ele><time>2026-03-23T09:37:12.999Z</time></trkpt><trkpt lat="44.906366296931616" lon="11.980029902126343"><ele>-5.0</ele><time>2026-03-23T09:37:14.999Z</time></trkpt><trkpt lat="44.90634254030571" lon="11.979905968855872"><ele>-5.0</ele><time>2026-03-23T09:37:16.999Z</time></trkpt><trkpt lat="44.906322565452534" lon="11.979784610360284"><ele>-5.0</ele><time>2026-03-23T09:37:18.999Z</time></trkpt><trkpt lat="44.90630135493596" lon="11.97965629165249"><ele>-5.0</ele><time>2026-03-23T09:37:20.999Z</time></trkpt><trkpt lat="44.906277633314126" lon="11.979528100713486"><ele>-5.0</ele><time>2026-03-23T09:37:22.999Z</time></trkpt><trkpt lat="44.90625442295631" lon="11.979401084694576"><ele>-5.0</ele><time>2026-03-23T09:37:24.999Z</time></trkpt><trkpt lat="44.9062285140044" lon="11.979274134272975"><ele>-5.0</ele><time>2026-03-23T09:37:26.999Z</time></trkpt><trkpt lat="44.90620531272374" lon="11.979143907922088"><ele>-5.0</ele><time>2026-03-23T09:37:28.999Z</time></trkpt><trkpt lat="44.90617880775052" lon="11.979014507395558"><ele>-5.2</ele><time>2026-03-23T09:37:30.999Z</time></trkpt><trkpt lat="44.906154899491135" lon="11.97888964278537"><ele>-5.4</ele><time>2026-03-23T09:37:32.999Z</time></trkpt><trkpt lat="44.90613674821441" lon="11.978759988412877"><ele>-5.6</ele><time>2026-03-23T09:37:34.999Z</time></trkpt><trkpt lat="44.90611016807887" lon="11.978624655316217"><ele>-5.8</ele><time>2026-03-23T09:37:36.999Z</time></trkpt><trkpt lat="44.90609049695693" lon="11.978499779641428"><ele>-6.0</ele><time>2026-03-23T09:37:38.999Z</time></trkpt><trkpt lat="44.90606664821904" lon="11.978374708397073"><ele>-6.0</ele><time>2026-03-23T09:37:40.999Z</time></trkpt><trkpt lat="44.906043220905964" lon="11.978253778928108"><ele>-6.0</ele><time>2026-03-23T09:37:42.999Z</time></trkpt><trkpt lat="44.906022350092364" lon="11.978142309401811"><ele>-6.0</ele><time>2026-03-23T09:37:44.999Z</time></trkpt><trkpt lat="44.90600774654467" lon="11.978022403486875"><ele>-6.0</ele><time>2026-03-23T09:37:46.999Z</time></trkpt><trkpt lat="44.90598249637009" lon="11.977908767375984"><ele>-6.0</ele><time>2026-03-23T09:37:48.999Z</time></trkpt><trkpt lat="44.905964179869216" lon="11.977798751439066"><ele>-6.0</ele><time>2026-03-23T09:37:50.999Z</time></trkpt><trkpt lat="44.9059478783889" lon="11.977690609616829"><ele>-6.0</ele><time>2026-03-23T09:37:52.999Z</time></trkpt><trkpt lat="44.905928555813595" lon="11.977583787419121"><ele>-6.0</ele><time>2026-03-23T09:37:54.999Z</time></trkpt><trkpt lat="44.9059092074419" lon="11.977490263003975"><ele>-6.0</ele><time>2026-03-23T09:37:56.999Z</time></trkpt><trkpt lat="44.90588363574323" lon="11.977377804535244"><ele>-6.0</ele><time>2026-03-23T09:37:59Z</time></trkpt><trkpt lat="44.90586898790865" lon="11.977257059153668"><ele>-6.0</ele><time>2026-03-23T09:38:01Z</time></trkpt><trkpt lat="44.905846326943056" lon="11.97715018712151"><ele>-6.0</ele><time>2026-03-23T09:38:03Z</time></trkpt><trkpt lat="44.90582985339049" lon="11.977053512879092"><ele>-6.0</ele><time>2026-03-23T09:38:05Z</time></trkpt><trkpt lat="44.90581123266633" lon="11.97696360337923"><ele>-6.0</ele><time>2026-03-23T09:38:07Z</time></trkpt><trkpt lat="44.90578498488918" lon="11.976850110818983"><ele>-6.0</ele><time>2026-03-23T09:38:10Z</time></trkpt><trkpt lat="44.90578193548247" lon="11.976721497255289"><ele>-6.0</ele><time>2026-03-23T09:38:13Z</time></trkpt><trkpt lat="44.905860234165104" lon="11.97671878597298"><ele>-6.0</ele><time>2026-03-23T09:38:15Z</time></trkpt><trkpt lat="44.90594394928581" lon="11.976691956847896"><ele>-6.0</ele><time>2026-03-23T09:38:18Z</time></trkpt><trkpt lat="44.905976792475066" lon="11.976594662904517"><ele>-5.8</ele><time>2026-03-23T09:38:20Z</time></trkpt><trkpt lat="44.9059477124417" lon="11.97647152933962"><ele>-5.6</ele><time>2026-03-23T09:38:22Z</time></trkpt><trkpt lat="44.90591544101228" lon="11.976347876339007"><ele>-5.4</ele><time>2026-03-23T09:38:24Z</time></trkpt><trkpt lat="44.905885780970216" lon="11.976217850276639"><ele>-5.2</ele><time>2026-03-23T09:38:26Z</time></trkpt><trkpt lat="44.90585738342218" lon="11.976099184916816"><ele>-5.0</ele><time>2026-03-23T09:38:28Z</time></trkpt><trkpt lat="44.90582887938328" lon="11.975980006099265"><ele>-4.8</ele><time>2026-03-23T09:38:30Z</time></trkpt><trkpt lat="44.905797948092214" lon="11.975857868562569"><ele>-4.6</ele><time>2026-03-23T09:38:32Z</time></trkpt><trkpt lat="44.90577352765461" lon="11.975735349580475"><ele>-4.4</ele><time>2026-03-23T09:38:34Z</time></trkpt><trkpt lat="44.90574134600438" lon="11.975607200660125"><ele>-4.2</ele><time>2026-03-23T09:38:36Z</time></trkpt><trkpt lat="44.90573437447157" lon="11.975476372443465"><ele>-4.0</ele><time>2026-03-23T09:38:38Z</time></trkpt><trkpt lat="44.905725953424195" lon="11.975351919367851"><ele>-4.4</ele><time>2026-03-23T09:38:40Z</time></trkpt><trkpt lat="44.90569995646703" lon="11.975219672013218"><ele>-4.800000000000001</ele><time>2026-03-23T09:38:42Z</time></trkpt><trkpt lat="44.905685458892556" lon="11.97508816861613"><ele>-5.199999999999999</ele><time>2026-03-23T09:38:44Z</time></trkpt><trkpt lat="44.90565817987296" lon="11.974957872210085"><ele>-5.6</ele><time>2026-03-23T09:38:46Z</time></trkpt><trkpt lat="44.90564040170793" lon="11.974826861923791"><ele>-6.0</ele><time>2026-03-23T09:38:48Z</time></trkpt><trkpt lat="44.90561592590696" lon="11.97470411220977"><ele>-6.0</ele><time>2026-03-23T09:38:50Z</time></trkpt><trkpt lat="44.9055966873255" lon="11.974575573154688"><ele>-6.0</ele><time>2026-03-23T09:38:52Z</time></trkpt><trkpt lat="44.90557209305621" lon="11.974447646285471"><ele>-6.0</ele><time>2026-03-23T09:38:54Z</time></trkpt><trkpt lat="44.905549301407305" lon="11.974318031070405"><ele>-6.0</ele><time>2026-03-23T09:38:55.999Z</time></trkpt><trkpt lat="44.90552646143663" lon="11.97418690426877"><ele>-6.0</ele><time>2026-03-23T09:38:57.999Z</time></trkpt><trkpt lat="44.90549981255691" lon="11.974062753892454"><ele>-6.0</ele><time>2026-03-23T09:38:59.999Z</time></trkpt><trkpt lat="44.90547970047982" lon="11.973943043345908"><ele>-6.0</ele><time>2026-03-23T09:39:01.999Z</time></trkpt><trkpt lat="44.90546168273078" lon="11.973829739954075"><ele>-6.0</ele><time>2026-03-23T09:39:03.999Z</time></trkpt><trkpt lat="44.90543919725219" lon="11.973720499522907"><ele>-6.0</ele><time>2026-03-23T09:39:05.999Z</time></trkpt><trkpt lat="44.90542297923794" lon="11.973606305903811"><ele>-6.0</ele><time>2026-03-23T09:39:07.999Z</time></trkpt><trkpt lat="44.905399287710615" lon="11.973494953073326"><ele>-6.0</ele><time>2026-03-23T09:39:09.999Z</time></trkpt><trkpt lat="44.905381170650195" lon="11.973381891009716"><ele>-6.0</ele><time>2026-03-23T09:39:11.999Z</time></trkpt><trkpt lat="44.90535840943548" lon="11.973277200131475"><ele>-6.0</ele><time>2026-03-23T09:39:13.999Z</time></trkpt><trkpt lat="44.905337764388825" lon="11.973168086410872"><ele>-6.0</ele><time>2026-03-23T09:39:15.999Z</time></trkpt><trkpt lat="44.905317839050774" lon="11.973053957135944"><ele>-6.0</ele><time>2026-03-23T09:39:17.999Z</time></trkpt><trkpt lat="44.90529670578255" lon="11.97294119156404"><ele>-6.0</ele><time>2026-03-23T09:39:19.999Z</time></trkpt><trkpt lat="44.90527801062108" lon="11.972832160701698"><ele>-6.0</ele><time>2026-03-23T09:39:21.999Z</time></trkpt><trkpt lat="44.90526381034453" lon="11.972718905333354"><ele>-6.0</ele><time>2026-03-23T09:39:23.999Z</time></trkpt><trkpt lat="44.90524258868132" lon="11.972600740703545"><ele>-6.0</ele><time>2026-03-23T09:39:25.999Z</time></trkpt><trkpt lat="44.90521540414706" lon="11.972479864060702"><ele>-6.0</ele><time>2026-03-23T09:39:27.999Z</time></trkpt><trkpt lat="44.9051940059469" lon="11.972350924894494"><ele>-6.0</ele><time>2026-03-23T09:39:29.999Z</time></trkpt><trkpt lat="44.90517171299509" lon="11.972232121263652"><ele>-6.0</ele><time>2026-03-23T09:39:31.999Z</time></trkpt><trkpt lat="44.90514915450646" lon="11.972117546989338"><ele>-6.0</ele><time>2026-03-23T09:39:33.999Z</time></trkpt><trkpt lat="44.905134263849696" lon="11.972006646089666"><ele>-6.0</ele><time>2026-03-23T09:39:35.999Z</time></trkpt><trkpt lat="44.90511189813475" lon="11.971900521492323"><ele>-6.0</ele><time>2026-03-23T09:39:37.999Z</time></trkpt><trkpt lat="44.9050954242358" lon="11.97178361577493"><ele>-6.0</ele><time>2026-03-23T09:39:39.999Z</time></trkpt><trkpt lat="44.90507725707639" lon="11.971658709840083"><ele>-6.0</ele><time>2026-03-23T09:39:41.999Z</time></trkpt><trkpt lat="44.9050533246227" lon="11.971537468921108"><ele>-6.0</ele><time>2026-03-23T09:39:43.999Z</time></trkpt><trkpt lat="44.90502195451227" lon="11.971423364806528"><ele>-6.0</ele><time>2026-03-23T09:39:45.999Z</time></trkpt><trkpt lat="44.905002346377394" lon="11.971308455809"><ele>-6.0</ele><time>2026-03-23T09:39:47.999Z</time></trkpt><trkpt lat="44.90499389361414" lon="11.971199845068213"><ele>-6.0</ele><time>2026-03-23T09:39:49.999Z</time></trkpt><trkpt lat="44.9050049647387" lon="11.971099835916883"><ele>-6.0</ele><time>2026-03-23T09:39:51.999Z</time></trkpt><trkpt lat="44.905062938047585" lon="11.971011061822715"><ele>-6.0</ele><time>2026-03-23T09:39:53.999Z</time></trkpt><trkpt lat="44.90514527758123" lon="11.970969589579788"><ele>-6.0</ele><time>2026-03-23T09:39:55.999Z</time></trkpt><trkpt lat="44.90523961492921" lon="11.970971228710525"><ele>-6.0</ele><time>2026-03-23T09:39:57.999Z</time></trkpt><trkpt lat="44.90533109992019" lon="11.970961179851754"><ele>-5.833333333333333</ele><time>2026-03-23T09:39:59.999Z</time></trkpt><trkpt lat="44.905424174665505" lon="11.970956930623679"><ele>-5.666666666666667</ele><time>2026-03-23T09:40:01.999Z</time></trkpt><trkpt lat="44.9055122608419" lon="11.970946754621863"><ele>-5.5</ele><time>2026-03-23T09:40:04Z</time></trkpt><trkpt lat="44.90559948668095" lon="11.970964513950493"><ele>-5.333333333333334</ele><time>2026-03-23T09:40:06Z</time></trkpt><trkpt lat="44.90568893309514" lon="11.970967460289117"><ele>-5.166666666666667</ele><time>2026-03-23T09:40:08Z</time></trkpt><trkpt lat="44.90577891212651" lon="11.970963464600619"><ele>-5.0</ele><time>2026-03-23T09:40:10Z</time></trkpt><trkpt lat="44.905868059624815" lon="11.97095789081184"><ele>-5.333333333333334</ele><time>2026-03-23T09:40:12Z</time></trkpt><trkpt lat="44.90595967058015" lon="11.970949577149694"><ele>-5.666666666666667</ele><time>2026-03-23T09:40:14Z</time></trkpt><trkpt lat="44.90604891374689" lon="11.970949773305492"><ele>-6.0</ele><time>2026-03-23T09:40:16Z</time></trkpt><trkpt lat="44.90613498483235" lon="11.970946510231705"><ele>-6.333333333333334</ele><time>2026-03-23T09:40:18Z</time></trkpt><trkpt lat="44.90622165730244" lon="11.970941201293254"><ele>-6.666666666666667</ele><time>2026-03-23T09:40:20Z</time></trkpt><trkpt lat="44.906305623850244" lon="11.970933785800705"><ele>-7.0</ele><time>2026-03-23T09:40:22Z</time></trkpt><trkpt lat="44.90638988248586" lon="11.970923268261396"><ele>-7.000000000000001</ele><time>2026-03-23T09:40:24Z</time></trkpt><trkpt lat="44.906475949133814" lon="11.970920517661579"><ele>-7.0</ele><time>2026-03-23T09:40:26Z</time></trkpt><trkpt lat="44.90655871191354" lon="11.970917623051536"><ele>-7.0</ele><time>2026-03-23T09:40:28Z</time></trkpt><trkpt lat="44.906639372184344" lon="11.970918543395141"><ele>-7.0</ele><time>2026-03-23T09:40:30Z</time></trkpt><trkpt lat="44.90672311084859" lon="11.970914978176062"><ele>-7.000000000000001</ele><time>2026-03-23T09:40:32Z</time></trkpt><trkpt lat="44.90680400451717" lon="11.970904030646624"><ele>-7.0</ele><time>2026-03-23T09:40:34Z</time></trkpt><trkpt lat="44.90687848601385" lon="11.970902216737386"><ele>-6.833333333333334</ele><time>2026-03-23T09:40:36Z</time></trkpt><trkpt lat="44.90694874669541" lon="11.970906209493291"><ele>-6.666666666666667</ele><time>2026-03-23T09:40:38Z</time></trkpt><trkpt lat="44.907026292155095" lon="11.970900683350344"><ele>-6.5</ele><time>2026-03-23T09:40:40Z</time></trkpt><trkpt lat="44.907109962055344" lon="11.970889326724334"><ele>-6.333333333333334</ele><time>2026-03-23T09:40:42Z</time></trkpt><trkpt lat="44.9071945571737" lon="11.970889578718483"><ele>-6.166666666666667</ele><time>2026-03-23T09:40:44Z</time></trkpt><trkpt lat="44.90727609511172" lon="11.970890828736941"><ele>-6.0</ele><time>2026-03-23T09:40:46Z</time></trkpt><trkpt lat="44.907359233674114" lon="11.97088908803493"><ele>-6.0</ele><time>2026-03-23T09:40:48Z</time></trkpt><trkpt lat="44.907438234237034" lon="11.97088613149629"><ele>-6.0</ele><time>2026-03-23T09:40:50Z</time></trkpt><trkpt lat="44.907511599250526" lon="11.97088640402214"><ele>-6.0</ele><time>2026-03-23T09:40:52Z</time></trkpt><trkpt lat="44.90758224396235" lon="11.970886447835944"><ele>-6.0</ele><time>2026-03-23T09:40:53.999Z</time></trkpt><trkpt lat="44.90766319023888" lon="11.970880267879267"><ele>-6.0</ele><time>2026-03-23T09:40:55.999Z</time></trkpt><trkpt lat="44.90774562952758" lon="11.970872557841538"><ele>-6.0</ele><time>2026-03-23T09:40:57.999Z</time></trkpt><trkpt lat="44.907822416146814" lon="11.970863542688633"><ele>-6.0</ele><time>2026-03-23T09:40:59.999Z</time></trkpt><trkpt lat="44.90789102375585" lon="11.970864739209174"><ele>-6.0</ele><time>2026-03-23T09:41:01.999Z</time></trkpt><trkpt lat="44.90798326212078" lon="11.970863069639163"><ele>-6.0</ele><time>2026-03-23T09:41:04.999Z</time></trkpt><trkpt lat="44.90807220797806" lon="11.970861048181645"><ele>-6.0</ele><time>2026-03-23T09:41:07.999Z</time></trkpt><trkpt lat="44.90814673674448" lon="11.970857308468252"><ele>-6.0</ele><time>2026-03-23T09:41:09.999Z</time></trkpt><trkpt lat="44.90822438279698" lon="11.970853053000555"><ele>-6.0</ele><time>2026-03-23T09:41:11.999Z</time></trkpt><trkpt lat="44.90830313863763" lon="11.970850236664068"><ele>-6.0</ele><time>2026-03-23T09:41:13.999Z</time></trkpt><trkpt lat="44.908378051083275" lon="11.97084018518455"><ele>-6.0</ele><time>2026-03-23T09:41:15.999Z</time></trkpt><trkpt lat="44.908449743990154" lon="11.9708368189154"><ele>-6.0</ele><time>2026-03-23T09:41:17.999Z</time></trkpt><trkpt lat="44.908526511890564" lon="11.97083583853622"><ele>-6.0</ele><time>2026-03-23T09:41:19.999Z</time></trkpt><trkpt lat="44.908605158344464" lon="11.970824878804628"><ele>-6.0</ele><time>2026-03-23T09:41:21.999Z</time></trkpt><trkpt lat="44.90868046437961" lon="11.97082337956656"><ele>-6.0</ele><time>2026-03-23T09:41:23.999Z</time></trkpt><trkpt lat="44.908766752959444" lon="11.970821050165194"><ele>-6.0</ele><time>2026-03-23T09:41:25.999Z</time></trkpt><trkpt lat="44.90885639085701" lon="11.97082719833358"><ele>-6.0</ele><time>2026-03-23T09:41:27.999Z</time></trkpt><trkpt lat="44.90894640190732" lon="11.9708404190727"><ele>-6.0</ele><time>2026-03-23T09:41:29.999Z</time></trkpt><trkpt lat="44.90903916834316" lon="11.970832977731213"><ele>-6.0</ele><time>2026-03-23T09:41:31.999Z</time></trkpt><trkpt lat="44.90912429441364" lon="11.970829209384446"><ele>-6.0</ele><time>2026-03-23T09:41:33.999Z</time></trkpt><trkpt lat="44.9092097354676" lon="11.970826128707387"><ele>-6.0</ele><time>2026-03-23T09:41:35.999Z</time></trkpt><trkpt lat="44.90928918490452" lon="11.970818217091335"><ele>-6.166666666666667</ele><time>2026-03-23T09:41:37.999Z</time></trkpt><trkpt lat="44.909366655657486" lon="11.970801773709695"><ele>-6.333333333333334</ele><time>2026-03-23T09:41:39.999Z</time></trkpt><trkpt lat="44.909444491408166" lon="11.970795718753436"><ele>-6.5</ele><time>2026-03-23T09:41:41.999Z</time></trkpt><trkpt lat="44.909511964703974" lon="11.970797096050504"><ele>-6.666666666666667</ele><time>2026-03-23T09:41:43.999Z</time></trkpt><trkpt lat="44.90960045416187" lon="11.97077221738842"><ele>-6.833333333333334</ele><time>2026-03-23T09:41:46.999Z</time></trkpt><trkpt lat="44.90963563585109" lon="11.97067062221145"><ele>-7.0</ele><time>2026-03-23T09:41:49.999Z</time></trkpt><trkpt lat="44.909632926600715" lon="11.97057591993199"><ele>-7.000000000000001</ele><time>2026-03-23T09:41:51.999Z</time></trkpt><trkpt lat="44.9096186264501" lon="11.970467632338469"><ele>-7.0</ele><time>2026-03-23T09:41:53.999Z</time></trkpt><trkpt lat="44.9096150897748" lon="11.970365738063993"><ele>-7.0</ele><time>2026-03-23T09:41:55.999Z</time></trkpt><trkpt lat="44.909606230790224" lon="11.970269624617433"><ele>-7.0</ele><time>2026-03-23T09:41:57.999Z</time></trkpt><trkpt lat="44.90960443406464" lon="11.970171463012802"><ele>-7.000000000000001</ele><time>2026-03-23T09:41:59.999Z</time></trkpt><trkpt lat="44.90959519581824" lon="11.970055452814856"><ele>-7.0</ele><time>2026-03-23T09:42:01.999Z</time></trkpt><trkpt lat="44.90959204176465" lon="11.96993982096302"><ele>-7.0</ele><time>2026-03-23T09:42:03.999Z</time></trkpt><trkpt lat="44.90958574478152" lon="11.969833213621271"><ele>-7.0</ele><time>2026-03-23T09:42:05.999Z</time></trkpt><trkpt lat="44.90958229561347" lon="11.969730277840606"><ele>-7.0</ele><time>2026-03-23T09:42:07.999Z</time></trkpt><trkpt lat="44.90957516090343" lon="11.969630878853543"><ele>-7.0</ele><time>2026-03-23T09:42:10Z</time></trkpt><trkpt lat="44.909569319086074" lon="11.969536665639065"><ele>-7.0</ele><time>2026-03-23T09:42:12Z</time></trkpt><trkpt lat="44.90956394128595" lon="11.969431999708403"><ele>-7.0</ele><time>2026-03-23T09:42:14Z</time></trkpt><trkpt lat="44.90956004891353" lon="11.96931410960198"><ele>-7.0</ele><time>2026-03-23T09:42:16Z</time></trkpt><trkpt lat="44.90955010948902" lon="11.969156733496314"><ele>-7.0</ele><time>2026-03-23T09:42:19Z</time></trkpt><trkpt lat="44.90954733012545" lon="11.969059475095248"><ele>-7.0</ele><time>2026-03-23T09:42:21Z</time></trkpt><trkpt lat="44.909539517242216" lon="11.968965424151849"><ele>-7.0</ele><time>2026-03-23T09:42:23Z</time></trkpt><trkpt lat="44.90953985470235" lon="11.968854920946919"><ele>-7.0</ele><time>2026-03-23T09:42:26Z</time></trkpt><trkpt lat="44.90951982426248" lon="11.968966519086909"><ele>-7.0</ele><time>2026-03-23T09:42:34Z</time></trkpt><trkpt lat="44.90952473179855" lon="11.969077931706853"><ele>-7.0</ele><time>2026-03-23T09:42:36Z</time></trkpt><trkpt lat="44.90952596560864" lon="11.969178292874327"><ele>-7.0</ele><time>2026-03-23T09:42:38Z</time></trkpt><trkpt lat="44.909529707539726" lon="11.969275084825554"><ele>-7.000000000000001</ele><time>2026-03-23T09:42:40Z</time></trkpt><trkpt lat="44.90953593586423" lon="11.969379064708937"><ele>-7.0</ele><time>2026-03-23T09:42:42Z</time></trkpt><trkpt lat="44.9095384697404" lon="11.96948588254763"><ele>-7.0</ele><time>2026-03-23T09:42:44Z</time></trkpt><trkpt lat="44.90954780013802" lon="11.969610662577875"><ele>-7.0</ele><time>2026-03-23T09:42:46Z</time></trkpt><trkpt lat="44.90955824456388" lon="11.969771020523558"><ele>-7.000000000000001</ele><time>2026-03-23T09:42:48Z</time></trkpt><trkpt lat="44.90955798865547" lon="11.969894360723318"><ele>-7.0</ele><time>2026-03-23T09:42:50Z</time></trkpt><trkpt lat="44.909568623331054" lon="11.970017834592815"><ele>-7.000000000000001</ele><time>2026-03-23T09:42:52Z</time></trkpt><trkpt lat="44.90957595810779" lon="11.970132466456432"><ele>-7.0</ele><time>2026-03-23T09:42:54Z</time></trkpt><trkpt lat="44.90957514285954" lon="11.970244311030259"><ele>-7.0</ele><time>2026-03-23T09:42:56Z</time></trkpt><trkpt lat="44.90958018835641" lon="11.970356614964112"><ele>-7.0</ele><time>2026-03-23T09:42:58Z</time></trkpt><trkpt lat="44.909596889436195" lon="11.970453335356492"><ele>-7.000000000000001</ele><time>2026-03-23T09:43:00Z</time></trkpt><trkpt lat="44.909597957165786" lon="11.970568912501578"><ele>-7.0</ele><time>2026-03-23T09:43:02Z</time></trkpt><trkpt lat="44.909608237364154" lon="11.970675006955371"><ele>-7.000000000000001</ele><time>2026-03-23T09:43:04Z</time></trkpt><trkpt lat="44.90962179822249" lon="11.970798051949142"><ele>-7.0</ele><time>2026-03-23T09:43:07Z</time></trkpt><trkpt lat="44.909702820876696" lon="11.970818548089468"><ele>-7.0</ele><time>2026-03-23T09:43:09Z</time></trkpt><trkpt lat="44.90978826478235" lon="11.970811480646331"><ele>-7.0</ele><time>2026-03-23T09:43:11Z</time></trkpt><trkpt lat="44.90986766093173" lon="11.970807160702163"><ele>-7.000000000000001</ele><time>2026-03-23T09:43:13Z</time></trkpt><trkpt lat="44.90995031817632" lon="11.970807353915466"><ele>-7.0</ele><time>2026-03-23T09:43:15Z</time></trkpt><trkpt lat="44.91003216629835" lon="11.970798129429213"><ele>-6.666666666666667</ele><time>2026-03-23T09:43:17Z</time></trkpt><trkpt lat="44.91011025563894" lon="11.970798021707774"><ele>-6.333333333333334</ele><time>2026-03-23T09:43:19Z</time></trkpt><trkpt lat="44.91019101547186" lon="11.970791265688206"><ele>-6.0</ele><time>2026-03-23T09:43:21Z</time></trkpt><trkpt lat="44.910273032632574" lon="11.97078860348897"><ele>-5.666666666666667</ele><time>2026-03-23T09:43:23Z</time></trkpt><trkpt lat="44.91035429390688" lon="11.970785322191963"><ele>-5.333333333333334</ele><time>2026-03-23T09:43:25Z</time></trkpt><trkpt lat="44.910436269793095" lon="11.970781323286767"><ele>-5.0</ele><time>2026-03-23T09:43:27Z</time></trkpt><trkpt lat="44.91052039924316" lon="11.970779232991239"><ele>-5.0</ele><time>2026-03-23T09:43:28.999Z</time></trkpt><trkpt lat="44.910606835866474" lon="11.970774294719298"><ele>-5.0</ele><time>2026-03-23T09:43:30.999Z</time></trkpt><trkpt lat="44.91068911985375" lon="11.970769641979334"><ele>-5.0</ele><time>2026-03-23T09:43:32.999Z</time></trkpt><trkpt lat="44.91077252175139" lon="11.970762882790762"><ele>-5.0</ele><time>2026-03-23T09:43:34.999Z</time></trkpt><trkpt lat="44.91085174215547" lon="11.970759642501008"><ele>-5.0</ele><time>2026-03-23T09:43:36.999Z</time></trkpt><trkpt lat="44.910934046011754" lon="11.970751382098241"><ele>-5.0</ele><time>2026-03-23T09:43:38.999Z</time></trkpt><trkpt lat="44.91101843550964" lon="11.970750942170083"><ele>-5.166666666666667</ele><time>2026-03-23T09:43:40.999Z</time></trkpt><trkpt lat="44.911100385357024" lon="11.97074651658432"><ele>-5.333333333333334</ele><time>2026-03-23T09:43:42.999Z</time></trkpt><trkpt lat="44.91118261461957" lon="11.970747630432307"><ele>-5.5</ele><time>2026-03-23T09:43:44.999Z</time></trkpt><trkpt lat="44.911266074641084" lon="11.970739076323904"><ele>-5.666666666666667</ele><time>2026-03-23T09:43:46.999Z</time></trkpt><trkpt lat="44.9113526166729" lon="11.970737473673546"><ele>-5.833333333333333</ele><time>2026-03-23T09:43:48.999Z</time></trkpt><trkpt lat="44.91143690081437" lon="11.97073406061831"><ele>-6.0</ele><time>2026-03-23T09:43:50.999Z</time></trkpt><trkpt lat="44.9115192670013" lon="11.970733461409306"><ele>-6.0</ele><time>2026-03-23T09:43:52.999Z</time></trkpt><trkpt lat="44.911600756196144" lon="11.97073611896385"><ele>-6.0</ele><time>2026-03-23T09:43:54.999Z</time></trkpt><trkpt lat="44.91168630164267" lon="11.970741570410933"><ele>-6.0</ele><time>2026-03-23T09:43:56.999Z</time></trkpt><trkpt lat="44.911773827779" lon="11.97075823019968"><ele>-6.0</ele><time>2026-03-23T09:43:58.999Z</time></trkpt><trkpt lat="44.91186295751666" lon="11.97077321858746"><ele>-6.0</ele><time>2026-03-23T09:44:00.999Z</time></trkpt><trkpt lat="44.91194807883004" lon="11.970795007073345"><ele>-6.0</ele><time>2026-03-23T09:44:02.999Z</time></trkpt><trkpt lat="44.91203481649364" lon="11.970810439103223"><ele>-5.833333333333333</ele><time>2026-03-23T09:44:04.999Z</time></trkpt><trkpt lat="44.91212224188795" lon="11.970833378891557"><ele>-5.666666666666667</ele><time>2026-03-23T09:44:06.999Z</time></trkpt><trkpt lat="44.912208645561456" lon="11.970849639095833"><ele>-5.5</ele><time>2026-03-23T09:44:08.999Z</time></trkpt><trkpt lat="44.91229651564122" lon="11.970866361222072"><ele>-5.333333333333334</ele><time>2026-03-23T09:44:10.999Z</time></trkpt><trkpt lat="44.91238230133851" lon="11.970883471118913"><ele>-5.166666666666667</ele><time>2026-03-23T09:44:12.999Z</time></trkpt><trkpt lat="44.91246664762997" lon="11.970899976411797"><ele>-5.0</ele><time>2026-03-23T09:44:14.999Z</time></trkpt><trkpt lat="44.91255154785152" lon="11.970917234500524"><ele>-4.833333333333334</ele><time>2026-03-23T09:44:17Z</time></trkpt><trkpt lat="44.91263797727818" lon="11.970936616256386"><ele>-4.666666666666667</ele><time>2026-03-23T09:44:19Z</time></trkpt><trkpt lat="44.91272432939428" lon="11.970952964597034"><ele>-4.5</ele><time>2026-03-23T09:44:21Z</time></trkpt><trkpt lat="44.91280814738103" lon="11.970966849401762"><ele>-4.333333333333333</ele><time>2026-03-23T09:44:23Z</time></trkpt><trkpt lat="44.91289158255292" lon="11.970990804973997"><ele>-4.166666666666666</ele><time>2026-03-23T09:44:25Z</time></trkpt><trkpt lat="44.912974907608955" lon="11.9710061957048"><ele>-4.0</ele><time>2026-03-23T09:44:27Z</time></trkpt><trkpt lat="44.91305602018991" lon="11.971020190965316"><ele>-3.9999999999999996</ele><time>2026-03-23T09:44:29Z</time></trkpt><trkpt lat="44.91313685181161" lon="11.971036233964071"><ele>-4.0</ele><time>2026-03-23T09:44:31Z</time></trkpt><trkpt lat="44.91322047930983" lon="11.97104582719938"><ele>-4.0</ele><time>2026-03-23T09:44:33Z</time></trkpt><trkpt lat="44.91330030332464" lon="11.971069595665295"><ele>-4.0</ele><time>2026-03-23T09:44:35Z</time></trkpt><trkpt lat="44.91337983762361" lon="11.971081959784568"><ele>-3.9999999999999996</ele><time>2026-03-23T09:44:37Z</time></trkpt><trkpt lat="44.913458580728204" lon="11.971098330408367"><ele>-4.0</ele><time>2026-03-23T09:44:39Z</time></trkpt><trkpt lat="44.913540518250876" lon="11.971115072517097"><ele>-3.9999999999999996</ele><time>2026-03-23T09:44:41Z</time></trkpt><trkpt lat="44.91361865902243" lon="11.971129063998738"><ele>-4.0</ele><time>2026-03-23T09:44:43Z</time></trkpt><trkpt lat="44.91370017297137" lon="11.97114812564836"><ele>-4.0</ele><time>2026-03-23T09:44:45Z</time></trkpt><trkpt lat="44.9137818604289" lon="11.97116633660576"><ele>-4.0</ele><time>2026-03-23T09:44:47Z</time></trkpt><trkpt lat="44.91386368875023" lon="11.97117853702036"><ele>-3.9999999999999996</ele><time>2026-03-23T09:44:49Z</time></trkpt><trkpt lat="44.913945193981" lon="11.971191508894087"><ele>-4.0</ele><time>2026-03-23T09:44:51Z</time></trkpt><trkpt lat="44.91401742280055" lon="11.971209069232103"><ele>-3.9999999999999996</ele><time>2026-03-23T09:44:53Z</time></trkpt><trkpt lat="44.91408623572678" lon="11.97122311531184"><ele>-4.0</ele><time>2026-03-23T09:44:55Z</time></trkpt><trkpt lat="44.91416306530287" lon="11.97123323514012"><ele>-4.0</ele><time>2026-03-23T09:44:57Z</time></trkpt><trkpt lat="44.91424341811249" lon="11.971253431787858"><ele>-4.0</ele><time>2026-03-23T09:44:59Z</time></trkpt><trkpt lat="44.914324772537256" lon="11.971274786916068"><ele>-3.9999999999999996</ele><time>2026-03-23T09:45:01Z</time></trkpt><trkpt lat="44.91440664102993" lon="11.971292748876907"><ele>-4.0</ele><time>2026-03-23T09:45:03Z</time></trkpt><trkpt lat="44.91449147754742" lon="11.971310383677686"><ele>-4.166666666666666</ele><time>2026-03-23T09:45:05Z</time></trkpt><trkpt lat="44.91457616761784" lon="11.97133171361119"><ele>-4.333333333333333</ele><time>2026-03-23T09:45:07Z</time></trkpt><trkpt lat="44.9146560812113" lon="11.971340345906597"><ele>-4.5</ele><time>2026-03-23T09:45:09Z</time></trkpt><trkpt lat="44.91472813560263" lon="11.971360233511813"><ele>-4.666666666666667</ele><time>2026-03-23T09:45:11Z</time></trkpt><trkpt lat="44.914802659403755" lon="11.97137635328991"><ele>-4.833333333333334</ele><time>2026-03-23T09:45:13Z</time></trkpt><trkpt lat="44.914882385355504" lon="11.971390519614792"><ele>-5.0</ele><time>2026-03-23T09:45:15Z</time></trkpt><trkpt lat="44.914963799423475" lon="11.97140228814455"><ele>-5.0</ele><time>2026-03-23T09:45:17Z</time></trkpt><trkpt lat="44.915039796083484" lon="11.971418123043918"><ele>-5.0</ele><time>2026-03-23T09:45:19Z</time></trkpt><trkpt lat="44.915121742993364" lon="11.971436636836652"><ele>-5.0</ele><time>2026-03-23T09:45:21Z</time></trkpt><trkpt lat="44.91520920223504" lon="11.971447441046978"><ele>-5.0</ele><time>2026-03-23T09:45:23Z</time></trkpt><trkpt lat="44.91528771018606" lon="11.971468451439035"><ele>-5.0</ele><time>2026-03-23T09:45:25Z</time></trkpt><trkpt lat="44.91536684647271" lon="11.971487554768894"><ele>-5.0</ele><time>2026-03-23T09:45:27Z</time></trkpt><trkpt lat="44.91544697598489" lon="11.971499531818582"><ele>-5.0</ele><time>2026-03-23T09:45:29Z</time></trkpt><trkpt lat="44.91553104477759" lon="11.97151423917715"><ele>-5.0</ele><time>2026-03-23T09:45:31Z</time></trkpt><trkpt lat="44.915618815385066" lon="11.971532481199338"><ele>-5.0</ele><time>2026-03-23T09:45:32.999Z</time></trkpt><trkpt lat="44.915703961203604" lon="11.971548290148514"><ele>-5.0</ele><time>2026-03-23T09:45:34.999Z</time></trkpt><trkpt lat="44.915794111735806" lon="11.971567378580076"><ele>-5.0</ele><time>2026-03-23T09:45:36.999Z</time></trkpt><trkpt lat="44.91588081433838" lon="11.97158288747878"><ele>-5.0</ele><time>2026-03-23T09:45:38.999Z</time></trkpt><trkpt lat="44.9159616685627" lon="11.971598725694314"><ele>-5.0</ele><time>2026-03-23T09:45:40.999Z</time></trkpt><trkpt lat="44.91603766648201" lon="11.971611366172738"><ele>-5.0</ele><time>2026-03-23T09:45:42.999Z</time></trkpt><trkpt lat="44.91610938403342" lon="11.971631735287998"><ele>-5.0</ele><time>2026-03-23T09:45:44.999Z</time></trkpt><trkpt lat="44.91617869333987" lon="11.9716412422406"><ele>-5.0</ele><time>2026-03-23T09:45:46.999Z</time></trkpt><trkpt lat="44.916246154713164" lon="11.971652362920178"><ele>-5.0</ele><time>2026-03-23T09:45:48.999Z</time></trkpt><trkpt lat="44.91631974499986" lon="11.971670956645081"><ele>-5.0</ele><time>2026-03-23T09:45:50.999Z</time></trkpt><trkpt lat="44.916401826706796" lon="11.971691394124818"><ele>-5.0</ele><time>2026-03-23T09:45:52.999Z</time></trkpt><trkpt lat="44.91648649028353" lon="11.971708501089008"><ele>-5.0</ele><time>2026-03-23T09:45:54.999Z</time></trkpt><trkpt lat="44.916575692656494" lon="11.97172799501028"><ele>-5.0</ele><time>2026-03-23T09:45:56.999Z</time></trkpt><trkpt lat="44.91666500443724" lon="11.971744101739075"><ele>-5.0</ele><time>2026-03-23T09:45:58.999Z</time></trkpt><trkpt lat="44.91675270976182" lon="11.971759156305922"><ele>-5.0</ele><time>2026-03-23T09:46:00.999Z</time></trkpt><trkpt lat="44.916832706262035" lon="11.971778948131265"><ele>-5.0</ele><time>2026-03-23T09:46:02.999Z</time></trkpt><trkpt lat="44.91690914164655" lon="11.971796867786827"><ele>-5.0</ele><time>2026-03-23T09:46:04.999Z</time></trkpt><trkpt lat="44.91698926688952" lon="11.971814820407873"><ele>-5.0</ele><time>2026-03-23T09:46:06.999Z</time></trkpt><trkpt lat="44.917073084683786" lon="11.971834397431385"><ele>-5.0</ele><time>2026-03-23T09:46:08.999Z</time></trkpt><trkpt lat="44.91715803312766" lon="11.971853815159074"><ele>-5.0</ele><time>2026-03-23T09:46:10.999Z</time></trkpt><trkpt lat="44.91724346894504" lon="11.971871217327246"><ele>-5.0</ele><time>2026-03-23T09:46:12.999Z</time></trkpt><trkpt lat="44.917329685074925" lon="11.971892672364485"><ele>-5.0</ele><time>2026-03-23T09:46:14.999Z</time></trkpt><trkpt lat="44.91741208155263" lon="11.9719099629778"><ele>-5.0</ele><time>2026-03-23T09:46:16.999Z</time></trkpt><trkpt lat="44.91749499743844" lon="11.971925630631462"><ele>-5.0</ele><time>2026-03-23T09:46:18.999Z</time></trkpt><trkpt lat="44.91757608553076" lon="11.971943082371643"><ele>-5.0</ele><time>2026-03-23T09:46:20.999Z</time></trkpt><trkpt lat="44.91765798197218" lon="11.971957900302778"><ele>-5.0</ele><time>2026-03-23T09:46:23Z</time></trkpt><trkpt lat="44.91773978451675" lon="11.9719670922117"><ele>-5.0</ele><time>2026-03-23T09:46:25Z</time></trkpt><trkpt lat="44.91782054176867" lon="11.971992122132113"><ele>-5.0</ele><time>2026-03-23T09:46:27Z</time></trkpt><trkpt lat="44.917899121739076" lon="11.97200231338853"><ele>-5.0</ele><time>2026-03-23T09:46:29Z</time></trkpt><trkpt lat="44.91798112969566" lon="11.972023893682772"><ele>-5.0</ele><time>2026-03-23T09:46:31Z</time></trkpt><trkpt lat="44.91806344016379" lon="11.972038329541006"><ele>-5.0</ele><time>2026-03-23T09:46:33Z</time></trkpt><trkpt lat="44.9181391997172" lon="11.972058617352987"><ele>-5.0</ele><time>2026-03-23T09:46:35Z</time></trkpt><trkpt lat="44.918220748194436" lon="11.972072511004473"><ele>-5.0</ele><time>2026-03-23T09:46:37Z</time></trkpt><trkpt lat="44.91830669587079" lon="11.97208477200774"><ele>-5.0</ele><time>2026-03-23T09:46:39Z</time></trkpt><trkpt lat="44.91839317547748" lon="11.972099257176945"><ele>-5.0</ele><time>2026-03-23T09:46:41Z</time></trkpt><trkpt lat="44.918483955704644" lon="11.972106871542037"><ele>-4.833333333333334</ele><time>2026-03-23T09:46:43Z</time></trkpt><trkpt lat="44.91857671917595" lon="11.972120135867302"><ele>-4.666666666666667</ele><time>2026-03-23T09:46:45Z</time></trkpt><trkpt lat="44.91866676730905" lon="11.972128282901839"><ele>-4.5</ele><time>2026-03-23T09:46:47Z</time></trkpt><trkpt lat="44.91875278206266" lon="11.972136154334706"><ele>-4.333333333333333</ele><time>2026-03-23T09:46:49Z</time></trkpt><trkpt lat="44.918835710665135" lon="11.972140768529544"><ele>-4.166666666666666</ele><time>2026-03-23T09:46:51Z</time></trkpt><trkpt lat="44.918917539668364" lon="11.972153941909756"><ele>-4.0</ele><time>2026-03-23T09:46:53Z</time></trkpt><trkpt lat="44.91899849111876" lon="11.97216330310418"><ele>-3.9999999999999996</ele><time>2026-03-23T09:46:55Z</time></trkpt><trkpt lat="44.919082036610064" lon="11.972169853335322"><ele>-4.0</ele><time>2026-03-23T09:46:57Z</time></trkpt><trkpt lat="44.919165726118905" lon="11.972178613727651"><ele>-4.0</ele><time>2026-03-23T09:46:59Z</time></trkpt><trkpt lat="44.919248862843986" lon="11.972188984811401"><ele>-4.0</ele><time>2026-03-23T09:47:01Z</time></trkpt><trkpt lat="44.91932889270076" lon="11.972196341242023"><ele>-3.9999999999999996</ele><time>2026-03-23T09:47:03Z</time></trkpt><trkpt lat="44.91941350854365" lon="11.972203920943043"><ele>-4.0</ele><time>2026-03-23T09:47:05Z</time></trkpt><trkpt lat="44.91949312848171" lon="11.972210966862232"><ele>-4.166666666666666</ele><time>2026-03-23T09:47:07Z</time></trkpt><trkpt lat="44.91957479073868" lon="11.972221382799148"><ele>-4.333333333333333</ele><time>2026-03-23T09:47:09Z</time></trkpt><trkpt lat="44.91965850335126" lon="11.97223022082512"><ele>-4.5</ele><time>2026-03-23T09:47:11Z</time></trkpt><trkpt lat="44.919739771740275" lon="11.972236944073638"><ele>-4.666666666666667</ele><time>2026-03-23T09:47:13Z</time></trkpt><trkpt lat="44.91981345816941" lon="11.972245000175795"><ele>-4.833333333333334</ele><time>2026-03-23T09:47:15Z</time></trkpt><trkpt lat="44.9198850400913" lon="11.972251953064463"><ele>-5.0</ele><time>2026-03-23T09:47:17Z</time></trkpt><trkpt lat="44.91995297915678" lon="11.97225956826025"><ele>-5.0</ele><time>2026-03-23T09:47:19Z</time></trkpt><trkpt lat="44.92003249351618" lon="11.972262754377843"><ele>-5.0</ele><time>2026-03-23T09:47:21Z</time></trkpt><trkpt lat="44.920100603141414" lon="11.97227406418952"><ele>-5.0</ele><time>2026-03-23T09:47:23Z</time></trkpt><trkpt lat="44.92016628992762" lon="11.972283005479627"><ele>-5.0</ele><time>2026-03-23T09:47:25Z</time></trkpt><trkpt lat="44.92025540310605" lon="11.972291413868382"><ele>-5.0</ele><time>2026-03-23T09:47:28Z</time></trkpt><trkpt lat="44.92032994597534" lon="11.972298207532834"><ele>-5.0</ele><time>2026-03-23T09:47:30Z</time></trkpt><trkpt lat="44.920413567424106" lon="11.972307752398352"><ele>-5.0</ele><time>2026-03-23T09:47:32Z</time></trkpt><trkpt lat="44.9204839008791" lon="11.972316183315522"><ele>-5.0</ele><time>2026-03-23T09:47:33.999Z</time></trkpt><trkpt lat="44.920557215818555" lon="11.972320400606757"><ele>-5.0</ele><time>2026-03-23T09:47:35.999Z</time></trkpt><trkpt lat="44.92062368401124" lon="11.972329097900527"><ele>-5.0</ele><time>2026-03-23T09:47:37.999Z</time></trkpt><trkpt lat="44.92072027124027" lon="11.972335656510998"><ele>-5.0</ele><time>2026-03-23T09:47:40.999Z</time></trkpt><trkpt lat="44.92079480808267" lon="11.97234886995701"><ele>-5.0</ele><time>2026-03-23T09:47:42.999Z</time></trkpt><trkpt lat="44.92087559829791" lon="11.972356798253463"><ele>-4.857142857142857</ele><time>2026-03-23T09:47:44.999Z</time></trkpt><trkpt lat="44.92094904269139" lon="11.972363934276574"><ele>-4.714285714285714</ele><time>2026-03-23T09:47:46.999Z</time></trkpt><trkpt lat="44.92101771962523" lon="11.972369606104232"><ele>-4.571428571428571</ele><time>2026-03-23T09:47:48.999Z</time></trkpt><trkpt lat="44.92108167885576" lon="11.97237618409473"><ele>-4.428571428571429</ele><time>2026-03-23T09:47:50.999Z</time></trkpt><trkpt lat="44.92115255412742" lon="11.97238607349646"><ele>-4.285714285714286</ele><time>2026-03-23T09:47:52.999Z</time></trkpt><trkpt lat="44.921224105867715" lon="11.972388625742223"><ele>-4.142857142857142</ele><time>2026-03-23T09:47:54.999Z</time></trkpt><trkpt lat="44.921306485220185" lon="11.972397552773181"><ele>-4.0</ele><time>2026-03-23T09:47:57.999Z</time></trkpt><trkpt lat="44.92139587527109" lon="11.972401672137227"><ele>-3.9999999999999996</ele><time>2026-03-23T09:48:00.999Z</time></trkpt><trkpt lat="44.921471028854484" lon="11.972412853483636"><ele>-4.0</ele><time>2026-03-23T09:48:02.999Z</time></trkpt><trkpt lat="44.92154605518235" lon="11.97241947244593"><ele>-4.0</ele><time>2026-03-23T09:48:04.999Z</time></trkpt><trkpt lat="44.92162340360387" lon="11.972425753601092"><ele>-4.0</ele><time>2026-03-23T09:48:06.999Z</time></trkpt><trkpt lat="44.921697366131255" lon="11.972435775251265"><ele>-3.9999999999999996</ele><time>2026-03-23T09:48:08.999Z</time></trkpt><trkpt lat="44.921777222337234" lon="11.972445770218247"><ele>-4.0</ele><time>2026-03-23T09:48:10.999Z</time></trkpt><trkpt lat="44.92185397414463" lon="11.972448821098773"><ele>-4.166666666666666</ele><time>2026-03-23T09:48:12.999Z</time></trkpt><trkpt lat="44.92193681832346" lon="11.97246705776761"><ele>-4.333333333333333</ele><time>2026-03-23T09:48:14.999Z</time></trkpt><trkpt lat="44.92202272504909" lon="11.972474831409873"><ele>-4.5</ele><time>2026-03-23T09:48:16.999Z</time></trkpt><trkpt lat="44.92210783103332" lon="11.972483957278182"><ele>-4.666666666666667</ele><time>2026-03-23T09:48:18.999Z</time></trkpt><trkpt lat="44.92219280001571" lon="11.972490777764706"><ele>-4.833333333333334</ele><time>2026-03-23T09:48:20.999Z</time></trkpt><trkpt lat="44.92227821609239" lon="11.972495297126239"><ele>-5.0</ele><time>2026-03-23T09:48:22.999Z</time></trkpt><trkpt lat="44.92236360347131" lon="11.972504882855526"><ele>-5.0</ele><time>2026-03-23T09:48:24.999Z</time></trkpt><trkpt lat="44.922447846412794" lon="11.972515792256988"><ele>-5.0</ele><time>2026-03-23T09:48:26.999Z</time></trkpt><trkpt lat="44.922531064075116" lon="11.972523088460921"><ele>-5.0</ele><time>2026-03-23T09:48:29Z</time></trkpt><trkpt lat="44.922616150697415" lon="11.972532409900337"><ele>-5.0</ele><time>2026-03-23T09:48:31Z</time></trkpt><trkpt lat="44.92270104546347" lon="11.972540459864975"><ele>-5.0</ele><time>2026-03-23T09:48:33Z</time></trkpt><trkpt lat="44.9227860305821" lon="11.972549866710384"><ele>-5.0</ele><time>2026-03-23T09:48:35Z</time></trkpt><trkpt lat="44.92287018966875" lon="11.972561135990109"><ele>-5.0</ele><time>2026-03-23T09:48:37Z</time></trkpt><trkpt lat="44.922954837816945" lon="11.972570176042057"><ele>-5.0</ele><time>2026-03-23T09:48:39Z</time></trkpt><trkpt lat="44.92304241041757" lon="11.972576805328007"><ele>-5.0</ele><time>2026-03-23T09:48:41Z</time></trkpt><trkpt lat="44.923131324324906" lon="11.972584146258436"><ele>-5.0</ele><time>2026-03-23T09:48:43Z</time></trkpt><trkpt lat="44.923220484112356" lon="11.972597885444102"><ele>-5.0</ele><time>2026-03-23T09:48:45Z</time></trkpt><trkpt lat="44.92330435592602" lon="11.972605602460138"><ele>-5.0</ele><time>2026-03-23T09:48:47Z</time></trkpt><trkpt lat="44.92338587863583" lon="11.972614473408337"><ele>-5.0</ele><time>2026-03-23T09:48:49Z</time></trkpt><trkpt lat="44.92346732103841" lon="11.97262427420948"><ele>-5.0</ele><time>2026-03-23T09:48:51Z</time></trkpt><trkpt lat="44.92355344199601" lon="11.972630123014298"><ele>-5.0</ele><time>2026-03-23T09:48:53Z</time></trkpt><trkpt lat="44.9236363993769" lon="11.97263638391968"><ele>-5.0</ele><time>2026-03-23T09:48:55Z</time></trkpt><trkpt lat="44.92371913175015" lon="11.97264502463845"><ele>-5.0</ele><time>2026-03-23T09:48:57Z</time></trkpt><trkpt lat="44.923806316291035" lon="11.972655152987057"><ele>-5.0</ele><time>2026-03-23T09:48:59Z</time></trkpt><trkpt lat="44.92389809972704" lon="11.972663503353047"><ele>-5.0</ele><time>2026-03-23T09:49:01Z</time></trkpt><trkpt lat="44.92399091272399" lon="11.972677486954876"><ele>-5.0</ele><time>2026-03-23T09:49:03Z</time></trkpt><trkpt lat="44.92408621950661" lon="11.97268690391286"><ele>-5.0</ele><time>2026-03-23T09:49:05Z</time></trkpt><trkpt lat="44.92418020357405" lon="11.972697672892346"><ele>-5.0</ele><time>2026-03-23T09:49:07Z</time></trkpt><trkpt lat="44.92427351888331" lon="11.972706376275845"><ele>-5.0</ele><time>2026-03-23T09:49:09Z</time></trkpt><trkpt lat="44.924366154059946" lon="11.972713421936183"><ele>-5.0</ele><time>2026-03-23T09:49:11Z</time></trkpt><trkpt lat="44.92445732145294" lon="11.972720611467132"><ele>-5.0</ele><time>2026-03-23T09:49:13Z</time></trkpt><trkpt lat="44.92455050555117" lon="11.972730015174566"><ele>-5.0</ele><time>2026-03-23T09:49:15Z</time></trkpt><trkpt lat="44.92464261560955" lon="11.972742131880935"><ele>-5.0</ele><time>2026-03-23T09:49:17Z</time></trkpt><trkpt lat="44.924734686675265" lon="11.972752914732308"><ele>-5.0</ele><time>2026-03-23T09:49:19Z</time></trkpt><trkpt lat="44.924826658205596" lon="11.972756612619648"><ele>-5.0</ele><time>2026-03-23T09:49:21Z</time></trkpt><trkpt lat="44.924917666241065" lon="11.972764486011894"><ele>-5.0</ele><time>2026-03-23T09:49:23Z</time></trkpt><trkpt lat="44.92501153732907" lon="11.972775503477248"><ele>-5.0</ele><time>2026-03-23T09:49:25Z</time></trkpt><trkpt lat="44.925107195494505" lon="11.972793390716152"><ele>-5.0</ele><time>2026-03-23T09:49:27Z</time></trkpt><trkpt lat="44.925200852676504" lon="11.972797214808525"><ele>-5.0</ele><time>2026-03-23T09:49:29Z</time></trkpt><trkpt lat="44.92529550967733" lon="11.972805422505232"><ele>-5.2</ele><time>2026-03-23T09:49:31Z</time></trkpt><trkpt lat="44.92538945285684" lon="11.972816585424612"><ele>-5.4</ele><time>2026-03-23T09:49:32.999Z</time></trkpt><trkpt lat="44.925487923188676" lon="11.9728265697876"><ele>-5.6</ele><time>2026-03-23T09:49:34.999Z</time></trkpt><trkpt lat="44.925582176107035" lon="11.9728385908693"><ele>-5.8</ele><time>2026-03-23T09:49:36.999Z</time></trkpt><trkpt lat="44.9256777242519" lon="11.972848116353406"><ele>-6.0</ele><time>2026-03-23T09:49:38.999Z</time></trkpt><trkpt lat="44.92577183262129" lon="11.97285430202417"><ele>-6.0</ele><time>2026-03-23T09:49:40.999Z</time></trkpt><trkpt lat="44.92586366369266" lon="11.972863559115266"><ele>-6.0</ele><time>2026-03-23T09:49:42.999Z</time></trkpt><trkpt lat="44.92595151926543" lon="11.972873337202165"><ele>-6.0</ele><time>2026-03-23T09:49:44.999Z</time></trkpt><trkpt lat="44.92604647593117" lon="11.972883530950156"><ele>-6.0</ele><time>2026-03-23T09:49:46.999Z</time></trkpt><trkpt lat="44.92614052699129" lon="11.972892870066016"><ele>-6.0</ele><time>2026-03-23T09:49:48.999Z</time></trkpt><trkpt lat="44.92623487122815" lon="11.972903967578004"><ele>-6.0</ele><time>2026-03-23T09:49:50.999Z</time></trkpt><trkpt lat="44.92633361854516" lon="11.972915557524834"><ele>-6.0</ele><time>2026-03-23T09:49:52.999Z</time></trkpt><trkpt lat="44.92642938239745" lon="11.972924279090986"><ele>-6.0</ele><time>2026-03-23T09:49:54.999Z</time></trkpt><trkpt lat="44.926523535476434" lon="11.972934792141805"><ele>-6.0</ele><time>2026-03-23T09:49:56.999Z</time></trkpt><trkpt lat="44.92661774532849" lon="11.972942692378698"><ele>-6.0</ele><time>2026-03-23T09:49:58.999Z</time></trkpt><trkpt lat="44.92671164399691" lon="11.97295396316873"><ele>-5.666666666666667</ele><time>2026-03-23T09:50:00.999Z</time></trkpt><trkpt lat="44.926805889796015" lon="11.972960945655753"><ele>-5.333333333333333</ele><time>2026-03-23T09:50:02.999Z</time></trkpt><trkpt lat="44.92689038919042" lon="11.97297312361127"><ele>-5.0</ele><time>2026-03-23T09:50:04.999Z</time></trkpt><trkpt lat="44.92696474406853" lon="11.972983163543306"><ele>-4.666666666666666</ele><time>2026-03-23T09:50:06.999Z</time></trkpt><trkpt lat="44.92703903553555" lon="11.972985774798708"><ele>-4.333333333333333</ele><time>2026-03-23T09:50:08.999Z</time></trkpt><trkpt lat="44.9271307525013" lon="11.972985516908688"><ele>-4.0</ele><time>2026-03-23T09:50:10.999Z</time></trkpt><trkpt lat="44.92721422469386" lon="11.972988612069345"><ele>-4.0</ele><time>2026-03-23T09:50:12.999Z</time></trkpt><trkpt lat="44.927293866726316" lon="11.973005255820116"><ele>-3.9999999999999996</ele><time>2026-03-23T09:50:14.999Z</time></trkpt><trkpt lat="44.92737044679313" lon="11.973007676334971"><ele>-4.0</ele><time>2026-03-23T09:50:16.999Z</time></trkpt><trkpt lat="44.927441493963414" lon="11.97301422090388"><ele>-4.0</ele><time>2026-03-23T09:50:18.999Z</time></trkpt><trkpt lat="44.927505306519144" lon="11.973020917497138"><ele>-3.9999999999999996</ele><time>2026-03-23T09:50:20.999Z</time></trkpt><trkpt lat="44.92756843804582" lon="11.973029468806962"><ele>-4.0</ele><time>2026-03-23T09:50:22.999Z</time></trkpt><trkpt lat="44.92764794876631" lon="11.973039649876027"><ele>-4.0</ele><time>2026-03-23T09:50:24.999Z</time></trkpt><trkpt lat="44.9277352294767" lon="11.973046843425559"><ele>-3.833333333333333</ele><time>2026-03-23T09:50:26.999Z</time></trkpt><trkpt lat="44.92781193976629" lon="11.97305101017884"><ele>-3.6666666666666665</ele><time>2026-03-23T09:50:28.999Z</time></trkpt><trkpt lat="44.927883319455" lon="11.973058083908366"><ele>-3.5</ele><time>2026-03-23T09:50:30.999Z</time></trkpt><trkpt lat="44.927964164405054" lon="11.973083771880036"><ele>-3.333333333333333</ele><time>2026-03-23T09:50:32.999Z</time></trkpt><trkpt lat="44.92805829714282" lon="11.973092629476401"><ele>-3.1666666666666665</ele><time>2026-03-23T09:50:35Z</time></trkpt><trkpt lat="44.92815642054681" lon="11.973093998408777"><ele>-3.0</ele><time>2026-03-23T09:50:37Z</time></trkpt><trkpt lat="44.92824772770165" lon="11.973104871535607"><ele>-3.0</ele><time>2026-03-23T09:50:39Z</time></trkpt><trkpt lat="44.92833501878756" lon="11.973109951287347"><ele>-3.0</ele><time>2026-03-23T09:50:41Z</time></trkpt><trkpt lat="44.92840426194728" lon="11.97311901329739"><ele>-3.0</ele><time>2026-03-23T09:50:43Z</time></trkpt><trkpt lat="44.92846696157166" lon="11.973129854402531"><ele>-3.0</ele><time>2026-03-23T09:50:45Z</time></trkpt><trkpt lat="44.928544225981796" lon="11.973132761411978"><ele>-3.0</ele><time>2026-03-23T09:50:47Z</time></trkpt><trkpt lat="44.928631656877904" lon="11.973140621581962"><ele>-3.0</ele><time>2026-03-23T09:50:49Z</time></trkpt><trkpt lat="44.92872068435042" lon="11.973148432870785"><ele>-3.1428571428571423</ele><time>2026-03-23T09:50:51Z</time></trkpt><trkpt lat="44.928803913790524" lon="11.973155936377905"><ele>-3.2857142857142856</ele><time>2026-03-23T09:50:53Z</time></trkpt><trkpt lat="44.92888254634772" lon="11.973165512518593"><ele>-3.4285714285714284</ele><time>2026-03-23T09:50:55Z</time></trkpt><trkpt lat="44.92895731539606" lon="11.97317149857815"><ele>-3.571428571428571</ele><time>2026-03-23T09:50:57Z</time></trkpt><trkpt lat="44.929024429929925" lon="11.973178405883623"><ele>-3.714285714285714</ele><time>2026-03-23T09:50:59Z</time></trkpt><trkpt lat="44.92908775437496" lon="11.973173565867594"><ele>-3.8571428571428568</ele><time>2026-03-23T09:51:01Z</time></trkpt><trkpt lat="44.92915503805111" lon="11.973189690336525"><ele>-4.0</ele><time>2026-03-23T09:51:03Z</time></trkpt><trkpt lat="44.92923143300081" lon="11.973175611855478"><ele>-4.333333333333333</ele><time>2026-03-23T09:51:05Z</time></trkpt><trkpt lat="44.929294719125565" lon="11.973176104224432"><ele>-4.666666666666666</ele><time>2026-03-23T09:51:07Z</time></trkpt><trkpt lat="44.92938366988693" lon="11.973205073339146"><ele>-5.0</ele><time>2026-03-23T09:51:10Z</time></trkpt><trkpt lat="44.929466851118875" lon="11.97321298753343"><ele>-5.333333333333333</ele><time>2026-03-23T09:51:12Z</time></trkpt><trkpt lat="44.92956210582208" lon="11.973241446596889"><ele>-5.666666666666667</ele><time>2026-03-23T09:51:14Z</time></trkpt><trkpt lat="44.92966209150257" lon="11.973255236851477"><ele>-6.0</ele><time>2026-03-23T09:51:16Z</time></trkpt><trkpt lat="44.92976053887205" lon="11.973271406684596"><ele>-6.0</ele><time>2026-03-23T09:51:18Z</time></trkpt><trkpt lat="44.9298559910256" lon="11.973276984807049"><ele>-6.0</ele><time>2026-03-23T09:51:20Z</time></trkpt><trkpt lat="44.92994968834657" lon="11.973285732398331"><ele>-6.0</ele><time>2026-03-23T09:51:22Z</time></trkpt><trkpt lat="44.930047411856094" lon="11.973292096317282"><ele>-6.0</ele><time>2026-03-23T09:51:24Z</time></trkpt><trkpt lat="44.93014234964858" lon="11.973308969415516"><ele>-6.0</ele><time>2026-03-23T09:51:26Z</time></trkpt><trkpt lat="44.93023642987903" lon="11.973315637490927"><ele>-5.8</ele><time>2026-03-23T09:51:28Z</time></trkpt><trkpt lat="44.93033485835866" lon="11.973328373981252"><ele>-5.6</ele><time>2026-03-23T09:51:30Z</time></trkpt><trkpt lat="44.93042818842745" lon="11.97333734452558"><ele>-5.4</ele><time>2026-03-23T09:51:32Z</time></trkpt><trkpt lat="44.930521823035896" lon="11.973347729206518"><ele>-5.2</ele><time>2026-03-23T09:51:34Z</time></trkpt><trkpt lat="44.93062019536825" lon="11.973358508986095"><ele>-5.0</ele><time>2026-03-23T09:51:36Z</time></trkpt><trkpt lat="44.93071677094568" lon="11.973362806996"><ele>-5.0</ele><time>2026-03-23T09:51:38Z</time></trkpt><trkpt lat="44.930809482505985" lon="11.973377911983023"><ele>-5.0</ele><time>2026-03-23T09:51:40Z</time></trkpt><trkpt lat="44.93090717483448" lon="11.97338869161949"><ele>-5.0</ele><time>2026-03-23T09:51:41.999Z</time></trkpt><trkpt lat="44.93100320684231" lon="11.973396313707179"><ele>-5.0</ele><time>2026-03-23T09:51:43.999Z</time></trkpt><trkpt lat="44.93109731446842" lon="11.97340618599467"><ele>-5.0</ele><time>2026-03-23T09:51:45.999Z</time></trkpt><trkpt lat="44.93119428434446" lon="11.973414451333747"><ele>-5.0</ele><time>2026-03-23T09:51:47.999Z</time></trkpt><trkpt lat="44.931290749695854" lon="11.973424304876024"><ele>-5.0</ele><time>2026-03-23T09:51:49.999Z</time></trkpt><trkpt lat="44.93138728451849" lon="11.973433674025749"><ele>-5.0</ele><time>2026-03-23T09:51:51.999Z</time></trkpt><trkpt lat="44.93148380605627" lon="11.973447331603825"><ele>-5.0</ele><time>2026-03-23T09:51:53.999Z</time></trkpt><trkpt lat="44.93158062714951" lon="11.973452844377285"><ele>-5.0</ele><time>2026-03-23T09:51:55.999Z</time></trkpt><trkpt lat="44.93167775137994" lon="11.97346708573719"><ele>-5.0</ele><time>2026-03-23T09:51:57.999Z</time></trkpt><trkpt lat="44.93177372010189" lon="11.973476369586697"><ele>-5.0</ele><time>2026-03-23T09:51:59.999Z</time></trkpt><trkpt lat="44.93186359782721" lon="11.973488577653042"><ele>-5.0</ele><time>2026-03-23T09:52:01.999Z</time></trkpt><trkpt lat="44.93194660291814" lon="11.973489517039155"><ele>-5.0</ele><time>2026-03-23T09:52:03.999Z</time></trkpt><trkpt lat="44.93203044691033" lon="11.97350506076403"><ele>-5.0</ele><time>2026-03-23T09:52:05.999Z</time></trkpt><trkpt lat="44.932120860750956" lon="11.973514744670812"><ele>-5.0</ele><time>2026-03-23T09:52:07.999Z</time></trkpt><trkpt lat="44.932217474298085" lon="11.973520952230707"><ele>-5.0</ele><time>2026-03-23T09:52:09.999Z</time></trkpt><trkpt lat="44.932315760722794" lon="11.973532291448107"><ele>-5.0</ele><time>2026-03-23T09:52:11.999Z</time></trkpt><trkpt lat="44.93241184061834" lon="11.973541776721966"><ele>-5.0</ele><time>2026-03-23T09:52:13.999Z</time></trkpt><trkpt lat="44.93250691138765" lon="11.973548827088008"><ele>-5.0</ele><time>2026-03-23T09:52:15.999Z</time></trkpt><trkpt lat="44.9326028380128" lon="11.97356393129146"><ele>-5.0</ele><time>2026-03-23T09:52:17.999Z</time></trkpt><trkpt lat="44.93269522087762" lon="11.973576333481779"><ele>-4.8</ele><time>2026-03-23T09:52:19.999Z</time></trkpt><trkpt lat="44.93278728485979" lon="11.973583436196476"><ele>-4.6</ele><time>2026-03-23T09:52:21.999Z</time></trkpt><trkpt lat="44.9328793526457" lon="11.973595493706291"><ele>-4.4</ele><time>2026-03-23T09:52:23.999Z</time></trkpt><trkpt lat="44.932975923731256" lon="11.973603360256618"><ele>-4.2</ele><time>2026-03-23T09:52:25.999Z</time></trkpt><trkpt lat="44.93306902913902" lon="11.97361252444233"><ele>-4.0</ele><time>2026-03-23T09:52:27.999Z</time></trkpt><trkpt lat="44.933162401308934" lon="11.97361293334325"><ele>-3.9999999999999996</ele><time>2026-03-23T09:52:29.999Z</time></trkpt><trkpt lat="44.93324251948961" lon="11.973626912705287"><ele>-4.0</ele><time>2026-03-23T09:52:31.999Z</time></trkpt><trkpt lat="44.93332666748614" lon="11.973633977144441"><ele>-4.0</ele><time>2026-03-23T09:52:33.999Z</time></trkpt><trkpt lat="44.93341103246219" lon="11.973645657405322"><ele>-4.0</ele><time>2026-03-23T09:52:35.999Z</time></trkpt><trkpt lat="44.93350185912018" lon="11.973656841749902"><ele>-3.9999999999999996</ele><time>2026-03-23T09:52:37.999Z</time></trkpt><trkpt lat="44.9335970268183" lon="11.97366707748895"><ele>-4.0</ele><time>2026-03-23T09:52:40Z</time></trkpt><trkpt lat="44.933690638302274" lon="11.973676457213381"><ele>-4.2</ele><time>2026-03-23T09:52:42Z</time></trkpt><trkpt lat="44.933786682121315" lon="11.973686247116051"><ele>-4.4</ele><time>2026-03-23T09:52:44Z</time></trkpt><trkpt lat="44.93388329240064" lon="11.973692758050051"><ele>-4.6</ele><time>2026-03-23T09:52:46Z</time></trkpt><trkpt lat="44.93398227721165" lon="11.973702461316497"><ele>-4.8</ele><time>2026-03-23T09:52:48Z</time></trkpt><trkpt lat="44.9340744206561" lon="11.97371586531154"><ele>-5.0</ele><time>2026-03-23T09:52:50Z</time></trkpt><trkpt lat="44.93417145694094" lon="11.973727468854312"><ele>-4.8</ele><time>2026-03-23T09:52:52Z</time></trkpt><trkpt lat="44.93426772580983" lon="11.97373700867676"><ele>-4.6</ele><time>2026-03-23T09:52:54Z</time></trkpt><trkpt lat="44.93436611358217" lon="11.973747959462575"><ele>-4.4</ele><time>2026-03-23T09:52:56Z</time></trkpt><trkpt lat="44.934460454090036" lon="11.973757673298273"><ele>-4.2</ele><time>2026-03-23T09:52:58Z</time></trkpt><trkpt lat="44.93455293728223" lon="11.973769201507801"><ele>-4.0</ele><time>2026-03-23T09:53:00Z</time></trkpt><trkpt lat="44.93464547009474" lon="11.973778035212526"><ele>-4.0</ele><time>2026-03-23T09:53:02Z</time></trkpt><trkpt lat="44.934746468373795" lon="11.973791670059176"><ele>-4.0</ele><time>2026-03-23T09:53:04Z</time></trkpt><trkpt lat="44.934847946022565" lon="11.973804063223737"><ele>-4.0</ele><time>2026-03-23T09:53:06Z</time></trkpt><trkpt lat="44.934937534608466" lon="11.973812034941442"><ele>-4.0</ele><time>2026-03-23T09:53:08Z</time></trkpt><trkpt lat="44.935030356865255" lon="11.97383850659841"><ele>-4.0</ele><time>2026-03-23T09:53:10Z</time></trkpt><trkpt lat="44.935121310714756" lon="11.973872603822127"><ele>-4.0</ele><time>2026-03-23T09:53:12Z</time></trkpt><trkpt lat="44.93521218636654" lon="11.973915524133146"><ele>-4.0</ele><time>2026-03-23T09:53:14Z</time></trkpt><trkpt lat="44.93529551204044" lon="11.973982131950395"><ele>-4.0</ele><time>2026-03-23T09:53:16Z</time></trkpt><trkpt lat="44.93537561122786" lon="11.974058590753026"><ele>-4.0</ele><time>2026-03-23T09:53:18Z</time></trkpt><trkpt lat="44.93545043512999" lon="11.974145328971662"><ele>-4.0</ele><time>2026-03-23T09:53:20Z</time></trkpt><trkpt lat="44.93551221900835" lon="11.974248607776694"><ele>-3.9999999999999996</ele><time>2026-03-23T09:53:22Z</time></trkpt><trkpt lat="44.93556778967158" lon="11.974354368568754"><ele>-4.0</ele><time>2026-03-23T09:53:24Z</time></trkpt><trkpt lat="44.93561091193666" lon="11.974470035293974"><ele>-4.0</ele><time>2026-03-23T09:53:26Z</time></trkpt><trkpt lat="44.93564534535356" lon="11.974580560191924"><ele>-4.0</ele><time>2026-03-23T09:53:28Z</time></trkpt><trkpt lat="44.93566788846704" lon="11.974684419715754"><ele>-3.9999999999999996</ele><time>2026-03-23T09:53:30Z</time></trkpt><trkpt lat="44.93568698840859" lon="11.974805741359475"><ele>-4.0</ele><time>2026-03-23T09:53:32Z</time></trkpt><trkpt lat="44.93570380051331" lon="11.974934463119121"><ele>-4.333333333333333</ele><time>2026-03-23T09:53:34Z</time></trkpt><trkpt lat="44.93571379934286" lon="11.975069576285899"><ele>-4.666666666666666</ele><time>2026-03-23T09:53:36Z</time></trkpt><trkpt lat="44.935721096004336" lon="11.975195798122112"><ele>-5.0</ele><time>2026-03-23T09:53:38Z</time></trkpt><trkpt lat="44.93573001288757" lon="11.9753149218331"><ele>-5.333333333333333</ele><time>2026-03-23T09:53:40Z</time></trkpt><trkpt lat="44.93573786295638" lon="11.975431190442379"><ele>-5.666666666666667</ele><time>2026-03-23T09:53:42Z</time></trkpt><trkpt lat="44.93574823648419" lon="11.975558764498976"><ele>-6.0</ele><time>2026-03-23T09:53:43.999Z</time></trkpt><trkpt lat="44.93575763637263" lon="11.975693120018287"><ele>-6.0</ele><time>2026-03-23T09:53:45.999Z</time></trkpt><trkpt lat="44.93576832856988" lon="11.975826560853244"><ele>-6.0</ele><time>2026-03-23T09:53:47.999Z</time></trkpt><trkpt lat="44.935781071246545" lon="11.975948148899313"><ele>-6.0</ele><time>2026-03-23T09:53:49.999Z</time></trkpt><trkpt lat="44.9357962393007" lon="11.976059556052329"><ele>-6.0</ele><time>2026-03-23T09:53:51.999Z</time></trkpt><trkpt lat="44.93580477988816" lon="11.976156819757673"><ele>-6.0</ele><time>2026-03-23T09:53:53.999Z</time></trkpt><trkpt lat="44.93580869995231" lon="11.97624865054641"><ele>-6.0</ele><time>2026-03-23T09:53:55.999Z</time></trkpt><trkpt lat="44.935812941736664" lon="11.97637572880357"><ele>-5.999999999999999</ele><time>2026-03-23T09:53:58.999Z</time></trkpt><trkpt lat="44.935821076928846" lon="11.976490528358383"><ele>-6.0</ele><time>2026-03-23T09:54:00.999Z</time></trkpt><trkpt lat="44.93582918880112" lon="11.976591525705093"><ele>-6.0</ele><time>2026-03-23T09:54:02.999Z</time></trkpt><trkpt lat="44.935837005585846" lon="11.9766825617439"><ele>-6.0</ele><time>2026-03-23T09:54:04.999Z</time></trkpt><trkpt lat="44.935842867087665" lon="11.976775192319504"><ele>-6.0</ele><time>2026-03-23T09:54:06.999Z</time></trkpt><trkpt lat="44.93585407413009" lon="11.97689527650659"><ele>-5.999999999999999</ele><time>2026-03-23T09:54:08.999Z</time></trkpt><trkpt lat="44.935865887001434" lon="11.977004428926174"><ele>-6.0</ele><time>2026-03-23T09:54:10.999Z</time></trkpt><trkpt lat="44.93587912271917" lon="11.977103257177324"><ele>-6.0</ele><time>2026-03-23T09:54:12.999Z</time></trkpt><trkpt lat="44.93588526874705" lon="11.97719640914884"><ele>-6.0</ele><time>2026-03-23T09:54:14.999Z</time></trkpt><trkpt lat="44.935881810225396" lon="11.977289434136342"><ele>-6.0</ele><time>2026-03-23T09:54:16.999Z</time></trkpt><trkpt lat="44.93589754635546" lon="11.977410994527276"><ele>-6.0</ele><time>2026-03-23T09:54:18.999Z</time></trkpt><trkpt lat="44.935910288810426" lon="11.977536371352064"><ele>-6.0</ele><time>2026-03-23T09:54:20.999Z</time></trkpt><trkpt lat="44.935923449374336" lon="11.977663482920569"><ele>-6.0</ele><time>2026-03-23T09:54:22.999Z</time></trkpt><trkpt lat="44.93593943474546" lon="11.977786338034768"><ele>-6.0</ele><time>2026-03-23T09:54:24.999Z</time></trkpt><trkpt lat="44.9359458777129" lon="11.977897023446594"><ele>-6.0</ele><time>2026-03-23T09:54:26.999Z</time></trkpt><trkpt lat="44.93595298477767" lon="11.978000896687234"><ele>-6.0</ele><time>2026-03-23T09:54:28.999Z</time></trkpt><trkpt lat="44.935960622577774" lon="11.97809454409559"><ele>-6.0</ele><time>2026-03-23T09:54:30.999Z</time></trkpt><trkpt lat="44.935966074864815" lon="11.97822128875208"><ele>-6.0</ele><time>2026-03-23T09:54:33.999Z</time></trkpt><trkpt lat="44.93597495893622" lon="11.978326517158184"><ele>-6.0</ele><time>2026-03-23T09:54:36.999Z</time></trkpt><trkpt lat="44.935978912941145" lon="11.978422433661256"><ele>-5.666666666666667</ele><time>2026-03-23T09:54:38.999Z</time></trkpt><trkpt lat="44.93599330418672" lon="11.978514763697696"><ele>-5.333333333333333</ele><time>2026-03-23T09:54:40.999Z</time></trkpt><trkpt lat="44.93598819217966" lon="11.978633929358192"><ele>-5.0</ele><time>2026-03-23T09:54:43.999Z</time></trkpt><trkpt lat="44.93600073457423" lon="11.97872936508412"><ele>-4.666666666666666</ele><time>2026-03-23T09:54:46Z</time></trkpt><trkpt lat="44.93601324529399" lon="11.978841699493778"><ele>-4.333333333333333</ele><time>2026-03-23T09:54:48Z</time></trkpt><trkpt lat="44.936023069843436" lon="11.978952618696551"><ele>-4.0</ele><time>2026-03-23T09:54:50Z</time></trkpt><trkpt lat="44.936037106879" lon="11.979049957821198"><ele>-3.9999999999999996</ele><time>2026-03-23T09:54:52Z</time></trkpt><trkpt lat="44.93604296496533" lon="11.979140118982754"><ele>-4.0</ele><time>2026-03-23T09:54:54Z</time></trkpt><trkpt lat="44.93605108934387" lon="11.979229961252935"><ele>-4.0</ele><time>2026-03-23T09:54:56Z</time></trkpt><trkpt lat="44.936055857529155" lon="11.97935341749954"><ele>-4.0</ele><time>2026-03-23T09:54:59Z</time></trkpt><trkpt lat="44.936065234726975" lon="11.97945480391087"><ele>-3.9999999999999996</ele><time>2026-03-23T09:55:02Z</time></trkpt><trkpt lat="44.93608470527902" lon="11.979586592540247"><ele>-4.0</ele><time>2026-03-23T09:55:05Z</time></trkpt><trkpt lat="44.93608713957525" lon="11.979683819461323"><ele>-4.0</ele><time>2026-03-23T09:55:07Z</time></trkpt><trkpt lat="44.936093227269026" lon="11.97980400980802"><ele>-3.9999999999999996</ele><time>2026-03-23T09:55:10Z</time></trkpt><trkpt lat="44.936099615669114" lon="11.979899823836325"><ele>-4.0</ele><time>2026-03-23T09:55:13Z</time></trkpt><trkpt lat="44.936111193832936" lon="11.97998908265664"><ele>-4.0</ele><time>2026-03-23T09:55:15Z</time></trkpt><trkpt lat="44.93612259838877" lon="11.980094146290044"><ele>-3.9999999999999996</ele><time>2026-03-23T09:55:17Z</time></trkpt><trkpt lat="44.936132687354956" lon="11.980188136664617"><ele>-4.0</ele><time>2026-03-23T09:55:19Z</time></trkpt><trkpt lat="44.93615530993259" lon="11.980309433281557"><ele>-4.0</ele><time>2026-03-23T09:55:22Z</time></trkpt><trkpt lat="44.936171730339005" lon="11.980439225201511"><ele>-4.166666666666666</ele><time>2026-03-23T09:55:25Z</time></trkpt><trkpt lat="44.936186506129445" lon="11.980570271774981"><ele>-4.333333333333333</ele><time>2026-03-23T09:55:28Z</time></trkpt><trkpt lat="44.936204199721686" lon="11.980659561574768"><ele>-4.5</ele><time>2026-03-23T09:55:30Z</time></trkpt><trkpt lat="44.93623726240982" lon="11.98077455655372"><ele>-4.666666666666667</ele><time>2026-03-23T09:55:32Z</time></trkpt><trkpt lat="44.936260339254495" lon="11.9808889246159"><ele>-4.833333333333334</ele><time>2026-03-23T09:55:34Z</time></trkpt><trkpt lat="44.93626953059874" lon="11.980998736801036"><ele>-5.0</ele><time>2026-03-23T09:55:36Z</time></trkpt><trkpt lat="44.93629368539287" lon="11.981121574974544"><ele>-5.0</ele><time>2026-03-23T09:55:38Z</time></trkpt><trkpt lat="44.936324914122864" lon="11.981247406279826"><ele>-5.0</ele><time>2026-03-23T09:55:40Z</time></trkpt><trkpt lat="44.93635423590758" lon="11.981368537583968"><ele>-5.0</ele><time>2026-03-23T09:55:42Z</time></trkpt><trkpt lat="44.93638521438953" lon="11.981490581461562"><ele>-5.0</ele><time>2026-03-23T09:55:44Z</time></trkpt><trkpt lat="44.93641792289919" lon="11.981613439706152"><ele>-5.0</ele><time>2026-03-23T09:55:45.999Z</time></trkpt><trkpt lat="44.93645108793841" lon="11.981735780007453"><ele>-5.0</ele><time>2026-03-23T09:55:47.999Z</time></trkpt><trkpt lat="44.936487752139726" lon="11.981856008363843"><ele>-5.0</ele><time>2026-03-23T09:55:49.999Z</time></trkpt><trkpt lat="44.936526390335175" lon="11.98197553866815"><ele>-5.0</ele><time>2026-03-23T09:55:51.999Z</time></trkpt><trkpt lat="44.93656519732568" lon="11.982095110667508"><ele>-5.0</ele><time>2026-03-23T09:55:53.999Z</time></trkpt><trkpt lat="44.936606862657406" lon="11.982213945804414"><ele>-5.0</ele><time>2026-03-23T09:55:55.999Z</time></trkpt><trkpt lat="44.93664709637986" lon="11.982334738884497"><ele>-5.0</ele><time>2026-03-23T09:55:57.999Z</time></trkpt><trkpt lat="44.936690863514734" lon="11.982455728407656"><ele>-5.0</ele><time>2026-03-23T09:55:59.999Z</time></trkpt><trkpt lat="44.9367354863359" lon="11.982578327696723"><ele>-5.0</ele><time>2026-03-23T09:56:01.999Z</time></trkpt><trkpt lat="44.93677905513963" lon="11.982699441919094"><ele>-5.0</ele><time>2026-03-23T09:56:03.999Z</time></trkpt><trkpt lat="44.93682286825671" lon="11.982819030858783"><ele>-5.0</ele><time>2026-03-23T09:56:05.999Z</time></trkpt><trkpt lat="44.936868226800854" lon="11.982938297552113"><ele>-5.2</ele><time>2026-03-23T09:56:07.999Z</time></trkpt><trkpt lat="44.93691333197223" lon="11.983057457154068"><ele>-5.4</ele><time>2026-03-23T09:56:09.999Z</time></trkpt><trkpt lat="44.93695626660335" lon="11.983178193818478"><ele>-5.6</ele><time>2026-03-23T09:56:11.999Z</time></trkpt><trkpt lat="44.937000863004826" lon="11.983294641644683"><ele>-5.8</ele><time>2026-03-23T09:56:13.999Z</time></trkpt><trkpt lat="44.93704448576184" lon="11.983413307253262"><ele>-6.0</ele><time>2026-03-23T09:56:15.999Z</time></trkpt><trkpt lat="44.937088860132306" lon="11.983533256814114"><ele>-5.6</ele><time>2026-03-23T09:56:17.999Z</time></trkpt><trkpt lat="44.93713126183246" lon="11.983654072650575"><ele>-5.199999999999999</ele><time>2026-03-23T09:56:19.999Z</time></trkpt><trkpt lat="44.93717337840057" lon="11.98377544617131"><ele>-4.800000000000001</ele><time>2026-03-23T09:56:21.999Z</time></trkpt><trkpt lat="44.93721756675274" lon="11.983893081672049"><ele>-4.4</ele><time>2026-03-23T09:56:23.999Z</time></trkpt><trkpt lat="44.93726235068996" lon="11.984012351382368"><ele>-4.0</ele><time>2026-03-23T09:56:25.999Z</time></trkpt><trkpt lat="44.93730941839512" lon="11.984134104628486"><ele>-4.2</ele><time>2026-03-23T09:56:27.999Z</time></trkpt><trkpt lat="44.9373519359962" lon="11.984254444266247"><ele>-4.4</ele><time>2026-03-23T09:56:29.999Z</time></trkpt><trkpt lat="44.93739623202057" lon="11.984370504070444"><ele>-4.6</ele><time>2026-03-23T09:56:31.999Z</time></trkpt><trkpt lat="44.937441690882096" lon="11.984488203558556"><ele>-4.8</ele><time>2026-03-23T09:56:33.999Z</time></trkpt><trkpt lat="44.93748256517329" lon="11.984607160510617"><ele>-5.0</ele><time>2026-03-23T09:56:35.999Z</time></trkpt><trkpt lat="44.93752802905717" lon="11.984723771576409"><ele>-5.2</ele><time>2026-03-23T09:56:37.999Z</time></trkpt><trkpt lat="44.93757157496719" lon="11.984841170071677"><ele>-5.4</ele><time>2026-03-23T09:56:39.999Z</time></trkpt><trkpt lat="44.93761663177107" lon="11.984959086935772"><ele>-5.6</ele><time>2026-03-23T09:56:41.999Z</time></trkpt><trkpt lat="44.937661317920806" lon="11.985076110140747"><ele>-5.8</ele><time>2026-03-23T09:56:43.999Z</time></trkpt><trkpt lat="44.93770700889695" lon="11.985193195079551"><ele>-6.0</ele><time>2026-03-23T09:56:45.999Z</time></trkpt><trkpt lat="44.93774662588387" lon="11.985315216265095"><ele>-6.0</ele><time>2026-03-23T09:56:47.999Z</time></trkpt><trkpt lat="44.93779092350396" lon="11.98543767207945"><ele>-6.0</ele><time>2026-03-23T09:56:49.999Z</time></trkpt><trkpt lat="44.93783636602666" lon="11.985557895256918"><ele>-6.0</ele><time>2026-03-23T09:56:52Z</time></trkpt><trkpt lat="44.93787980935841" lon="11.98567776914287"><ele>-6.0</ele><time>2026-03-23T09:56:54Z</time></trkpt><trkpt lat="44.937924844357845" lon="11.985798458596607"><ele>-6.0</ele><time>2026-03-23T09:56:56Z</time></trkpt><trkpt lat="44.93796387276233" lon="11.985923307705079"><ele>-6.0</ele><time>2026-03-23T09:56:58Z</time></trkpt><trkpt lat="44.93800169114258" lon="11.98604760972378"><ele>-6.0</ele><time>2026-03-23T09:57:00Z</time></trkpt><trkpt lat="44.938031364355176" lon="11.986173025456713"><ele>-6.0</ele><time>2026-03-23T09:57:02Z</time></trkpt><trkpt lat="44.93806211352429" lon="11.986304069171206"><ele>-6.0</ele><time>2026-03-23T09:57:04Z</time></trkpt><trkpt lat="44.93808989379476" lon="11.986433912818494"><ele>-6.0</ele><time>2026-03-23T09:57:06Z</time></trkpt><trkpt lat="44.938107251747915" lon="11.986564879248904"><ele>-5.8</ele><time>2026-03-23T09:57:08Z</time></trkpt><trkpt lat="44.9381304091872" lon="11.98669490862342"><ele>-5.6</ele><time>2026-03-23T09:57:10Z</time></trkpt><trkpt lat="44.93814789136556" lon="11.98682484106724"><ele>-5.4</ele><time>2026-03-23T09:57:12Z</time></trkpt><trkpt lat="44.93816373934924" lon="11.986959909026483"><ele>-5.2</ele><time>2026-03-23T09:57:14Z</time></trkpt><trkpt lat="44.938170443577526" lon="11.987092482052363"><ele>-5.0</ele><time>2026-03-23T09:57:16Z</time></trkpt><trkpt lat="44.9381772391526" lon="11.987228922346956"><ele>-5.0</ele><time>2026-03-23T09:57:18Z</time></trkpt><trkpt lat="44.9381768256824" lon="11.98736360938074"><ele>-5.0</ele><time>2026-03-23T09:57:20Z</time></trkpt><trkpt lat="44.938175580745586" lon="11.987498726605551"><ele>-5.0</ele><time>2026-03-23T09:57:22Z</time></trkpt><trkpt lat="44.9381709005629" lon="11.98763521631542"><ele>-5.0</ele><time>2026-03-23T09:57:24Z</time></trkpt><trkpt lat="44.938170278109084" lon="11.987772718985521"><ele>-5.0</ele><time>2026-03-23T09:57:26Z</time></trkpt><trkpt lat="44.938164835214835" lon="11.987906880258395"><ele>-5.0</ele><time>2026-03-23T09:57:28Z</time></trkpt><trkpt lat="44.93815906372875" lon="11.98804212946222"><ele>-5.0</ele><time>2026-03-23T09:57:30Z</time></trkpt><trkpt lat="44.93815873172008" lon="11.988178611632646"><ele>-5.0</ele><time>2026-03-23T09:57:32Z</time></trkpt><trkpt lat="44.93815897216481" lon="11.98831469314204"><ele>-5.0</ele><time>2026-03-23T09:57:34Z</time></trkpt><trkpt lat="44.93816737265182" lon="11.988448184135839"><ele>-5.0</ele><time>2026-03-23T09:57:36Z</time></trkpt><trkpt lat="44.93816658091236" lon="11.988570373896792"><ele>-5.0</ele><time>2026-03-23T09:57:38Z</time></trkpt><trkpt lat="44.93817030286513" lon="11.988682608804762"><ele>-5.0</ele><time>2026-03-23T09:57:40Z</time></trkpt><trkpt lat="44.9381799452559" lon="11.988787313116335"><ele>-5.0</ele><time>2026-03-23T09:57:42Z</time></trkpt><trkpt lat="44.93818724808479" lon="11.988881916247292"><ele>-5.0</ele><time>2026-03-23T09:57:44Z</time></trkpt><trkpt lat="44.9382058798202" lon="11.989008295831331"><ele>-5.0</ele><time>2026-03-23T09:57:47Z</time></trkpt><trkpt lat="44.938224550018894" lon="11.989139978452059"><ele>-5.0</ele><time>2026-03-23T09:57:50Z</time></trkpt><trkpt lat="44.938240254949655" lon="11.989260107791981"><ele>-4.8</ele><time>2026-03-23T09:57:52Z</time></trkpt><trkpt lat="44.93826332519002" lon="11.989386322536758"><ele>-4.6</ele><time>2026-03-23T09:57:54Z</time></trkpt><trkpt lat="44.93828853017016" lon="11.989515304194674"><ele>-4.4</ele><time>2026-03-23T09:57:56Z</time></trkpt><trkpt lat="44.93831967907525" lon="11.98964000303888"><ele>-4.2</ele><time>2026-03-23T09:57:58Z</time></trkpt><trkpt lat="44.93835169163358" lon="11.989755993225927"><ele>-4.0</ele><time>2026-03-23T09:57:59.999Z</time></trkpt><trkpt lat="44.938382195397914" lon="11.989869635401552"><ele>-4.333333333333333</ele><time>2026-03-23T09:58:01.999Z</time></trkpt><trkpt lat="44.938418788832315" lon="11.989981654745808"><ele>-4.666666666666666</ele><time>2026-03-23T09:58:03.999Z</time></trkpt><trkpt lat="44.93845141243333" lon="11.990086017624977"><ele>-5.0</ele><time>2026-03-23T09:58:05.999Z</time></trkpt><trkpt lat="44.938484709824564" lon="11.990183613615548"><ele>-5.333333333333333</ele><time>2026-03-23T09:58:07.999Z</time></trkpt><trkpt lat="44.9385230802834" lon="11.990276006643269"><ele>-5.666666666666667</ele><time>2026-03-23T09:58:09.999Z</time></trkpt><trkpt lat="44.938553187821924" lon="11.990360413787844"><ele>-6.0</ele><time>2026-03-23T09:58:11.999Z</time></trkpt><trkpt lat="44.938578961373345" lon="11.99044504238603"><ele>-6.0</ele><time>2026-03-23T09:58:13.999Z</time></trkpt><trkpt lat="44.938621660481516" lon="11.990562410105587"><ele>-6.0</ele><time>2026-03-23T09:58:16.999Z</time></trkpt><trkpt lat="44.93867084149046" lon="11.990682736134733"><ele>-6.0</ele><time>2026-03-23T09:58:19.999Z</time></trkpt><trkpt lat="44.93870594006297" lon="11.990788063238465"><ele>-6.0</ele><time>2026-03-23T09:58:21.999Z</time></trkpt><trkpt lat="44.938736745870806" lon="11.99087966380919"><ele>-6.0</ele><time>2026-03-23T09:58:23.999Z</time></trkpt><trkpt lat="44.938767793601265" lon="11.990959098432548"><ele>-6.0</ele><time>2026-03-23T09:58:25.999Z</time></trkpt><trkpt lat="44.93880302693345" lon="11.991034706122022"><ele>-5.999999999999999</ele><time>2026-03-23T09:58:27.999Z</time></trkpt><trkpt lat="44.938838829069525" lon="11.991139424547738"><ele>-6.0</ele><time>2026-03-23T09:58:29.999Z</time></trkpt><trkpt lat="44.93887092598311" lon="11.99122759650946"><ele>-6.0</ele><time>2026-03-23T09:58:31.999Z</time></trkpt><trkpt lat="44.93890065097265" lon="11.991314257084138"><ele>-6.0</ele><time>2026-03-23T09:58:33.999Z</time></trkpt><trkpt lat="44.938934068425624" lon="11.99139889591644"><ele>-6.0</ele><time>2026-03-23T09:58:35.999Z</time></trkpt><trkpt lat="44.93896942920067" lon="11.991506776137895"><ele>-5.999999999999999</ele><time>2026-03-23T09:58:37.999Z</time></trkpt><trkpt lat="44.93900559965061" lon="11.991594885531102"><ele>-6.0</ele><time>2026-03-23T09:58:39.999Z</time></trkpt><trkpt lat="44.93904113408398" lon="11.991675335251578"><ele>-6.0</ele><time>2026-03-23T09:58:41.999Z</time></trkpt><trkpt lat="44.93907567619287" lon="11.991784902377203"><ele>-6.0</ele><time>2026-03-23T09:58:44.999Z</time></trkpt><trkpt lat="44.93910294575373" lon="11.991871665272825"><ele>-6.0</ele><time>2026-03-23T09:58:46.999Z</time></trkpt><trkpt lat="44.939131397071634" lon="11.991957753497474"><ele>-6.0</ele><time>2026-03-23T09:58:48.999Z</time></trkpt><trkpt lat="44.93917843730084" lon="11.992046964999394"><ele>-6.0</ele><time>2026-03-23T09:58:51.999Z</time></trkpt><trkpt lat="44.93923123031976" lon="11.992153088829145"><ele>-6.0</ele><time>2026-03-23T09:58:54.999Z</time></trkpt><trkpt lat="44.93926817155467" lon="11.992248803078066"><ele>-6.0</ele><time>2026-03-23T09:58:56.999Z</time></trkpt><trkpt lat="44.939332693400125" lon="11.992300690948863"><ele>-6.0</ele><time>2026-03-23T09:59:00Z</time></trkpt><trkpt lat="44.93940619969636" lon="11.992269265891313"><ele>-6.0</ele><time>2026-03-23T09:59:02Z</time></trkpt><trkpt lat="44.939493853621855" lon="11.992202058919244"><ele>-6.0</ele><time>2026-03-23T09:59:04Z</time></trkpt><trkpt lat="44.939604894972675" lon="11.99215283016396"><ele>-6.0</ele><time>2026-03-23T09:59:06Z</time></trkpt><trkpt lat="44.939665143105884" lon="11.992125515769569"><ele>-6.0</ele><time>2026-03-23T09:59:07Z</time></trkpt><trkpt lat="44.9397809859887" lon="11.992086050049934"><ele>-6.0</ele><time>2026-03-23T09:59:09Z</time></trkpt><trkpt lat="44.939892303869655" lon="11.992043702716146"><ele>-6.0</ele><time>2026-03-23T09:59:11Z</time></trkpt><trkpt lat="44.93999725417875" lon="11.992004503978745"><ele>-6.0</ele><time>2026-03-23T09:59:13Z</time></trkpt><trkpt lat="44.94010063444656" lon="11.991982249030121"><ele>-6.0</ele><time>2026-03-23T09:59:15Z</time></trkpt><trkpt lat="44.94019448161459" lon="11.991945589109307"><ele>-6.0</ele><time>2026-03-23T09:59:17Z</time></trkpt><trkpt lat="44.94028469291171" lon="11.991906444056875"><ele>-6.0</ele><time>2026-03-23T09:59:19Z</time></trkpt><trkpt lat="44.94036256474326" lon="11.991861438092924"><ele>-6.0</ele><time>2026-03-23T09:59:21Z</time></trkpt><trkpt lat="44.94043032637088" lon="11.991817151186517"><ele>-6.0</ele><time>2026-03-23T09:59:23Z</time></trkpt><trkpt lat="44.940491334145754" lon="11.991773577785299"><ele>-6.0</ele><time>2026-03-23T09:59:25Z</time></trkpt><trkpt lat="44.940549815679184" lon="11.991730575935856"><ele>-6.0</ele><time>2026-03-23T09:59:27Z</time></trkpt><trkpt lat="44.9406156819996" lon="11.99165757622123"><ele>-6.0</ele><time>2026-03-23T09:59:29Z</time></trkpt><trkpt lat="44.940697040094896" lon="11.991605627623997"><ele>-6.0</ele><time>2026-03-23T09:59:31Z</time></trkpt><trkpt lat="44.94077532547754" lon="11.99154898903228"><ele>-6.0</ele><time>2026-03-23T09:59:33Z</time></trkpt><trkpt lat="44.94084119862069" lon="11.991497741879735"><ele>-6.0</ele><time>2026-03-23T09:59:35Z</time></trkpt><trkpt lat="44.94090600327293" lon="11.991449232402966"><ele>-6.0</ele><time>2026-03-23T09:59:37Z</time></trkpt><trkpt lat="44.94099179516688" lon="11.991414829947836"><ele>-6.0</ele><time>2026-03-23T09:59:39Z</time></trkpt><trkpt lat="44.94105601749422" lon="11.991346322299952"><ele>-6.0</ele><time>2026-03-23T09:59:41Z</time></trkpt><trkpt lat="44.941139687518515" lon="11.991310919379188"><ele>-6.0</ele><time>2026-03-23T09:59:43Z</time></trkpt><trkpt lat="44.94122051826056" lon="11.99125412697744"><ele>-6.0</ele><time>2026-03-23T09:59:45Z</time></trkpt><trkpt lat="44.94129128292124" lon="11.991203857165784"><ele>-6.0</ele><time>2026-03-23T09:59:47Z</time></trkpt><trkpt lat="44.94135718254256" lon="11.991156962522165"><ele>-6.0</ele><time>2026-03-23T09:59:49Z</time></trkpt><trkpt lat="44.94141755039927" lon="11.991114004278991"><ele>-6.0</ele><time>2026-03-23T09:59:51Z</time></trkpt><trkpt lat="44.941481167892626" lon="11.991068730632634"><ele>-6.0</ele><time>2026-03-23T09:59:53Z</time></trkpt><trkpt lat="44.94155421455439" lon="11.99099178073541"><ele>-6.0</ele><time>2026-03-23T09:59:55Z</time></trkpt><trkpt lat="44.94162024856039" lon="11.99094132243405"><ele>-6.0</ele><time>2026-03-23T09:59:57Z</time></trkpt><trkpt lat="44.94169287931896" lon="11.990891860888082"><ele>-6.0</ele><time>2026-03-23T09:59:58.999Z</time></trkpt><trkpt lat="44.941775053693846" lon="11.990837408872887"><ele>-6.0</ele><time>2026-03-23T10:00:00.999Z</time></trkpt><trkpt lat="44.94185682029683" lon="11.990771092863008"><ele>-6.0</ele><time>2026-03-23T10:00:02.999Z</time></trkpt><trkpt lat="44.941930826186095" lon="11.990722017975715"><ele>-6.0</ele><time>2026-03-23T10:00:04.999Z</time></trkpt><trkpt lat="44.94199991108753" lon="11.99067012813272"><ele>-6.166666666666667</ele><time>2026-03-23T10:00:06.999Z</time></trkpt><trkpt lat="44.942070486515036" lon="11.990614768657819"><ele>-6.333333333333334</ele><time>2026-03-23T10:00:08.999Z</time></trkpt><trkpt lat="44.942142291046665" lon="11.99056275581049"><ele>-6.5</ele><time>2026-03-23T10:00:10.999Z</time></trkpt><trkpt lat="44.94221624164423" lon="11.990511300876664"><ele>-6.666666666666667</ele><time>2026-03-23T10:00:12.999Z</time></trkpt><trkpt lat="44.942300811039864" lon="11.990473387283615"><ele>-6.833333333333334</ele><time>2026-03-23T10:00:14.999Z</time></trkpt><trkpt lat="44.9423716544553" lon="11.990422597383871"><ele>-7.0</ele><time>2026-03-23T10:00:16.999Z</time></trkpt><trkpt lat="44.9424382071908" lon="11.990374883613562"><ele>-7.000000000000001</ele><time>2026-03-23T10:00:18.999Z</time></trkpt><trkpt lat="44.94250761697906" lon="11.990298484629436"><ele>-7.0</ele><time>2026-03-23T10:00:20.999Z</time></trkpt><trkpt lat="44.94258734575684" lon="11.990266218107127"><ele>-7.0</ele><time>2026-03-23T10:00:22.999Z</time></trkpt><trkpt lat="44.942652604879584" lon="11.990218483106283"><ele>-7.0</ele><time>2026-03-23T10:00:24.999Z</time></trkpt><trkpt lat="44.94271868093413" lon="11.990169404172093"><ele>-7.000000000000001</ele><time>2026-03-23T10:00:26.999Z</time></trkpt><trkpt lat="44.9427751484386" lon="11.990102559891863"><ele>-7.0</ele><time>2026-03-23T10:00:28.999Z</time></trkpt><trkpt lat="44.9428511480946" lon="11.990043515876854"><ele>-7.000000000000001</ele><time>2026-03-23T10:00:30.999Z</time></trkpt><trkpt lat="44.94292499092916" lon="11.989988606560827"><ele>-7.0</ele><time>2026-03-23T10:00:32.999Z</time></trkpt><trkpt lat="44.94299255056705" lon="11.989942463056748"><ele>-7.0</ele><time>2026-03-23T10:00:34.999Z</time></trkpt><trkpt lat="44.94305857101738" lon="11.989891973540942"><ele>-7.0</ele><time>2026-03-23T10:00:36.999Z</time></trkpt><trkpt lat="44.94312498253672" lon="11.989842330060293"><ele>-7.000000000000001</ele><time>2026-03-23T10:00:38.999Z</time></trkpt><trkpt lat="44.94319947355499" lon="11.98978720348675"><ele>-7.0</ele><time>2026-03-23T10:00:40.999Z</time></trkpt><trkpt lat="44.94326734887043" lon="11.989736311690287"><ele>-7.000000000000001</ele><time>2026-03-23T10:00:42.999Z</time></trkpt><trkpt lat="44.94332815817422" lon="11.989692681532322"><ele>-7.0</ele><time>2026-03-23T10:00:44.999Z</time></trkpt><trkpt lat="44.94339907450125" lon="11.98964224534303"><ele>-7.0</ele><time>2026-03-23T10:00:46.999Z</time></trkpt><trkpt lat="44.94347938435291" lon="11.98957933303015"><ele>-7.0</ele><time>2026-03-23T10:00:48.999Z</time></trkpt><trkpt lat="44.943558593104875" lon="11.98954542053927"><ele>-7.000000000000001</ele><time>2026-03-23T10:00:50.999Z</time></trkpt><trkpt lat="44.943631632490884" lon="11.989473056652228"><ele>-7.0</ele><time>2026-03-23T10:00:52.999Z</time></trkpt><trkpt lat="44.943712940409995" lon="11.989410304548398"><ele>-6.8</ele><time>2026-03-23T10:00:54.999Z</time></trkpt><trkpt lat="44.94379782165485" lon="11.989351818284272"><ele>-6.6</ele><time>2026-03-23T10:00:56.999Z</time></trkpt><trkpt lat="44.943879161428896" lon="11.989293281728095"><ele>-6.3999999999999995</ele><time>2026-03-23T10:00:58.999Z</time></trkpt><trkpt lat="44.9439647054247" lon="11.98923091415518"><ele>-6.199999999999999</ele><time>2026-03-23T10:01:00.999Z</time></trkpt><trkpt lat="44.94404766721628" lon="11.989171673656637"><ele>-6.0</ele><time>2026-03-23T10:01:02.999Z</time></trkpt><trkpt lat="44.94412332714011" lon="11.98911357403402"><ele>-6.0</ele><time>2026-03-23T10:01:05Z</time></trkpt><trkpt lat="44.944196879842075" lon="11.989060585082782"><ele>-6.0</ele><time>2026-03-23T10:01:07Z</time></trkpt><trkpt lat="44.944272054951284" lon="11.989000857337693"><ele>-6.0</ele><time>2026-03-23T10:01:09Z</time></trkpt><trkpt lat="44.9443539232986" lon="11.988946909275507"><ele>-6.0</ele><time>2026-03-23T10:01:11Z</time></trkpt><trkpt lat="44.94442649955596" lon="11.988890768713947"><ele>-6.0</ele><time>2026-03-23T10:01:13Z</time></trkpt><trkpt lat="44.944499803926426" lon="11.98884122841335"><ele>-6.0</ele><time>2026-03-23T10:01:15Z</time></trkpt><trkpt lat="44.94456764023745" lon="11.988792018489168"><ele>-6.0</ele><time>2026-03-23T10:01:17Z</time></trkpt><trkpt lat="44.94464776196562" lon="11.988739438410665"><ele>-6.0</ele><time>2026-03-23T10:01:19Z</time></trkpt><trkpt lat="44.94471937961439" lon="11.988686175528109"><ele>-6.0</ele><time>2026-03-23T10:01:21Z</time></trkpt><trkpt lat="44.94478426089274" lon="11.988641254825131"><ele>-6.0</ele><time>2026-03-23T10:01:23Z</time></trkpt><trkpt lat="44.94484018818627" lon="11.988592996428014"><ele>-6.0</ele><time>2026-03-23T10:01:24.999Z</time></trkpt><trkpt lat="44.9449110561052" lon="11.988540205489013"><ele>-6.0</ele><time>2026-03-23T10:01:26.999Z</time></trkpt><trkpt lat="44.944981597259" lon="11.988489850342658"><ele>-5.999999999999999</ele><time>2026-03-23T10:01:28.999Z</time></trkpt><trkpt lat="44.94504163159427" lon="11.988444568682043"><ele>-6.0</ele><time>2026-03-23T10:01:30.999Z</time></trkpt><trkpt lat="44.94510428567859" lon="11.988418220164728"><ele>-6.0</ele><time>2026-03-23T10:01:32.999Z</time></trkpt><trkpt lat="44.94516463846487" lon="11.988374319504741"><ele>-6.0</ele><time>2026-03-23T10:01:34.999Z</time></trkpt><trkpt lat="44.945236869417656" lon="11.988322014376788"><ele>-6.0</ele><time>2026-03-23T10:01:37.999Z</time></trkpt><trkpt lat="44.94529972203085" lon="11.988258418950323"><ele>-5.999999999999999</ele><time>2026-03-23T10:01:40.999Z</time></trkpt><trkpt lat="44.94537374259615" lon="11.988206222366244"><ele>-6.0</ele><time>2026-03-23T10:01:42.999Z</time></trkpt><trkpt lat="44.94544642123665" lon="11.988156137615507"><ele>-5.833333333333333</ele><time>2026-03-23T10:01:44.999Z</time></trkpt><trkpt lat="44.94552351949226" lon="11.988101683067038"><ele>-5.666666666666667</ele><time>2026-03-23T10:01:46.999Z</time></trkpt><trkpt lat="44.94559063179103" lon="11.988052116022981"><ele>-5.5</ele><time>2026-03-23T10:01:48.998Z</time></trkpt><trkpt lat="44.94566862572043" lon="11.988013349633441"><ele>-5.333333333333334</ele><time>2026-03-23T10:01:50.998Z</time></trkpt><trkpt lat="44.945745115284325" lon="11.987958685516002"><ele>-5.166666666666667</ele><time>2026-03-23T10:01:52.998Z</time></trkpt><trkpt lat="44.94581151391185" lon="11.987886595592748"><ele>-5.0</ele><time>2026-03-23T10:01:54.998Z</time></trkpt><trkpt lat="44.94589390131428" lon="11.987838993664745"><ele>-5.0</ele><time>2026-03-23T10:01:56.998Z</time></trkpt><trkpt lat="44.94598393862247" lon="11.987796295383607"><ele>-5.0</ele><time>2026-03-23T10:01:58.998Z</time></trkpt><trkpt lat="44.9460607644872" lon="11.987740398734116"><ele>-5.0</ele><time>2026-03-23T10:02:00.998Z</time></trkpt><trkpt lat="44.94612713275585" lon="11.987672456896126"><ele>-5.0</ele><time>2026-03-23T10:02:02.998Z</time></trkpt><trkpt lat="44.94620447019153" lon="11.987612141530503"><ele>-5.0</ele><time>2026-03-23T10:02:04.998Z</time></trkpt><trkpt lat="44.9462781085786" lon="11.987577775811182"><ele>-5.0</ele><time>2026-03-23T10:02:06.998Z</time></trkpt><trkpt lat="44.9463460959904" lon="11.987529187842652"><ele>-4.833333333333334</ele><time>2026-03-23T10:02:08.998Z</time></trkpt><trkpt lat="44.94642265826539" lon="11.987473567130273"><ele>-4.666666666666667</ele><time>2026-03-23T10:02:10.998Z</time></trkpt><trkpt lat="44.946491085237334" lon="11.987422814441981"><ele>-4.5</ele><time>2026-03-23T10:02:12.998Z</time></trkpt><trkpt lat="44.94655026197714" lon="11.987369312910902"><ele>-4.333333333333333</ele><time>2026-03-23T10:02:14.998Z</time></trkpt><trkpt lat="44.94661774668725" lon="11.987334727751346"><ele>-4.166666666666666</ele><time>2026-03-23T10:02:16.998Z</time></trkpt><trkpt lat="44.946684462511406" lon="11.987267135609207"><ele>-4.0</ele><time>2026-03-23T10:02:18.998Z</time></trkpt><trkpt lat="44.9467658111377" lon="11.987204505693848"><ele>-3.4999999999999996</ele><time>2026-03-23T10:02:20.998Z</time></trkpt><trkpt lat="44.94684423366086" lon="11.987157037334539"><ele>-3.0</ele><time>2026-03-23T10:02:22.998Z</time></trkpt><trkpt lat="44.94690777836875" lon="11.98710613281664"><ele>-2.5</ele><time>2026-03-23T10:02:24.998Z</time></trkpt><trkpt lat="44.946973602236696" lon="11.98705852000705"><ele>-2.0</ele><time>2026-03-23T10:02:26.998Z</time></trkpt><trkpt lat="44.9470504808978" lon="11.98699863736228"><ele>-1.5</ele><time>2026-03-23T10:02:28.998Z</time></trkpt><trkpt lat="44.94712852013819" lon="11.986942129281939"><ele>-1.0</ele><time>2026-03-23T10:02:30.998Z</time></trkpt><trkpt lat="44.94719608877181" lon="11.98688310480737"><ele>-0.9999999999999999</ele><time>2026-03-23T10:02:32.998Z</time></trkpt><trkpt lat="44.94725384368612" lon="11.986838812924894"><ele>-1.0</ele><time>2026-03-23T10:02:34.998Z</time></trkpt><trkpt lat="44.94733822230821" lon="11.986775598387892"><ele>-1.0</ele><time>2026-03-23T10:02:37.998Z</time></trkpt><trkpt lat="44.94741010576705" lon="11.98672104488053"><ele>-1.0</ele><time>2026-03-23T10:02:39.998Z</time></trkpt><trkpt lat="44.947479554277095" lon="11.98667044214623"><ele>-0.9999999999999999</ele><time>2026-03-23T10:02:41.998Z</time></trkpt><trkpt lat="44.94756237424647" lon="11.98661400110512"><ele>-1.0</ele><time>2026-03-23T10:02:44.998Z</time></trkpt><trkpt lat="44.9476323446931" lon="11.986560931522323"><ele>-1.6666666666666665</ele><time>2026-03-23T10:02:47.998Z</time></trkpt><trkpt lat="44.947692028277835" lon="11.986524780457005"><ele>-2.3333333333333335</ele><time>2026-03-23T10:02:49.998Z</time></trkpt><trkpt lat="44.94776689831958" lon="11.986472627922902"><ele>-3.0</ele><time>2026-03-23T10:02:51.998Z</time></trkpt><trkpt lat="44.9478413157795" lon="11.986420482353692"><ele>-3.666666666666667</ele><time>2026-03-23T10:02:53.998Z</time></trkpt><trkpt lat="44.94791453682942" lon="11.986368263988526"><ele>-4.333333333333334</ele><time>2026-03-23T10:02:55.998Z</time></trkpt><trkpt lat="44.947988593852706" lon="11.986317782112723"><ele>-5.0</ele><time>2026-03-23T10:02:57.998Z</time></trkpt><trkpt lat="44.94806170928119" lon="11.986266157726075"><ele>-5.0</ele><time>2026-03-23T10:02:59.998Z</time></trkpt><trkpt lat="44.948136306032616" lon="11.98621353017031"><ele>-5.0</ele><time>2026-03-23T10:03:01.998Z</time></trkpt><trkpt lat="44.9482213998678" lon="11.986154078555925"><ele>-5.0</ele><time>2026-03-23T10:03:03.998Z</time></trkpt><trkpt lat="44.94830079454692" lon="11.986099095630927"><ele>-5.0</ele><time>2026-03-23T10:03:05.997Z</time></trkpt><trkpt lat="44.94837553882223" lon="11.986046490584423"><ele>-5.0</ele><time>2026-03-23T10:03:07.997Z</time></trkpt><trkpt lat="44.94845512808206" lon="11.985994569478676"><ele>-5.0</ele><time>2026-03-23T10:03:09.999Z</time></trkpt><trkpt lat="44.94852435414689" lon="11.985938211470407"><ele>-4.833333333333334</ele><time>2026-03-23T10:03:11.999Z</time></trkpt><trkpt lat="44.94859581397227" lon="11.985890937364955"><ele>-4.666666666666667</ele><time>2026-03-23T10:03:13.999Z</time></trkpt><trkpt lat="44.94867684616589" lon="11.98583709468435"><ele>-4.5</ele><time>2026-03-23T10:03:15.999Z</time></trkpt><trkpt lat="44.94875482649471" lon="11.985784317426189"><ele>-4.333333333333333</ele><time>2026-03-23T10:03:17.999Z</time></trkpt><trkpt lat="44.948821675493804" lon="11.985737227517129"><ele>-4.166666666666666</ele><time>2026-03-23T10:03:19.999Z</time></trkpt><trkpt lat="44.948886620001765" lon="11.985689462208109"><ele>-4.0</ele><time>2026-03-23T10:03:21.999Z</time></trkpt><trkpt lat="44.94896449459346" lon="11.985638612064568"><ele>-3.9999999999999996</ele><time>2026-03-23T10:03:24Z</time></trkpt><trkpt lat="44.94904002493649" lon="11.985580161909738"><ele>-4.0</ele><time>2026-03-23T10:03:26Z</time></trkpt><trkpt lat="44.94910767322974" lon="11.98553400337888"><ele>-4.0</ele><time>2026-03-23T10:03:28Z</time></trkpt><trkpt lat="44.949169184572646" lon="11.985486945855387"><ele>-4.0</ele><time>2026-03-23T10:03:30Z</time></trkpt><trkpt lat="44.9492319727946" lon="11.98546421270609"><ele>-3.9999999999999996</ele><time>2026-03-23T10:03:32Z</time></trkpt><trkpt lat="44.94931891662278" lon="11.985400287349876"><ele>-4.0</ele><time>2026-03-23T10:03:35Z</time></trkpt><trkpt lat="44.949387975762846" lon="11.985344929446885"><ele>-3.9999999999999996</ele><time>2026-03-23T10:03:37Z</time></trkpt><trkpt lat="44.94945322746957" lon="11.985316288777383"><ele>-4.0</ele><time>2026-03-23T10:03:39Z</time></trkpt><trkpt lat="44.949531588515335" lon="11.985252361189774"><ele>-4.0</ele><time>2026-03-23T10:03:42Z</time></trkpt><trkpt lat="44.94959885680982" lon="11.985192780526896"><ele>-4.0</ele><time>2026-03-23T10:03:44Z</time></trkpt><trkpt lat="44.94967517725419" lon="11.985119453649533"><ele>-3.9999999999999996</ele><time>2026-03-23T10:03:46Z</time></trkpt><trkpt lat="44.94975356330537" lon="11.98506066127141"><ele>-4.0</ele><time>2026-03-23T10:03:48Z</time></trkpt><trkpt lat="44.94982703226341" lon="11.985007590811968"><ele>-3.9999999999999996</ele><time>2026-03-23T10:03:50Z</time></trkpt><trkpt lat="44.949900648025334" lon="11.984972014593401"><ele>-4.0</ele><time>2026-03-23T10:03:52Z</time></trkpt><trkpt lat="44.94996806443544" lon="11.984923275482519"><ele>-4.0</ele><time>2026-03-23T10:03:54Z</time></trkpt><trkpt lat="44.95004774312734" lon="11.984865940749092"><ele>-4.0</ele><time>2026-03-23T10:03:57Z</time></trkpt><trkpt lat="44.95012230560368" lon="11.98481276127949"><ele>-3.9999999999999996</ele><time>2026-03-23T10:04:00Z</time></trkpt><trkpt lat="44.95019018311754" lon="11.984747084619551"><ele>-4.0</ele><time>2026-03-23T10:04:03Z</time></trkpt><trkpt lat="44.95024895161796" lon="11.984704070337626"><ele>-4.166666666666666</ele><time>2026-03-23T10:04:05Z</time></trkpt><trkpt lat="44.95032906822025" lon="11.98464871826923"><ele>-4.333333333333333</ele><time>2026-03-23T10:04:07Z</time></trkpt><trkpt lat="44.95039408332068" lon="11.984601242675456"><ele>-4.5</ele><time>2026-03-23T10:04:09Z</time></trkpt><trkpt lat="44.95046654761948" lon="11.984575284153609"><ele>-4.666666666666667</ele><time>2026-03-23T10:04:11Z</time></trkpt><trkpt lat="44.95052579022463" lon="11.984533385137857"><ele>-4.833333333333334</ele><time>2026-03-23T10:04:13Z</time></trkpt><trkpt lat="44.950575177828085" lon="11.984471679558496"><ele>-5.0</ele><time>2026-03-23T10:04:15Z</time></trkpt><trkpt lat="44.95065233456194" lon="11.98442547225543"><ele>-5.0</ele><time>2026-03-23T10:04:17Z</time></trkpt><trkpt lat="44.95072023198106" lon="11.984366421181978"><ele>-5.0</ele><time>2026-03-23T10:04:18.999Z</time></trkpt><trkpt lat="44.95077934660676" lon="11.984319824627804"><ele>-5.0</ele><time>2026-03-23T10:04:20.999Z</time></trkpt><trkpt lat="44.95084364812446" lon="11.984267343290748"><ele>-5.0</ele><time>2026-03-23T10:04:22.999Z</time></trkpt><trkpt lat="44.9509117151465" lon="11.98420898621517"><ele>-5.0</ele><time>2026-03-23T10:04:24.999Z</time></trkpt><trkpt lat="44.9509792786228" lon="11.984178560148775"><ele>-5.0</ele><time>2026-03-23T10:04:26.999Z</time></trkpt><trkpt lat="44.9510287580012" lon="11.984113312289054"><ele>-5.0</ele><time>2026-03-23T10:04:28.999Z</time></trkpt><trkpt lat="44.9510866706848" lon="11.984068566606734"><ele>-5.142857142857142</ele><time>2026-03-23T10:04:30.999Z</time></trkpt><trkpt lat="44.95115658367709" lon="11.984025635029928"><ele>-5.285714285714286</ele><time>2026-03-23T10:04:32.999Z</time></trkpt><trkpt lat="44.95121158714604" lon="11.983980780187874"><ele>-5.428571428571429</ele><time>2026-03-23T10:04:34.999Z</time></trkpt><trkpt lat="44.95126924728236" lon="11.983938257835463"><ele>-5.571428571428571</ele><time>2026-03-23T10:04:36.999Z</time></trkpt><trkpt lat="44.95134525355069" lon="11.983880399584908"><ele>-5.714285714285714</ele><time>2026-03-23T10:04:38.999Z</time></trkpt><trkpt lat="44.95141677501371" lon="11.9838324231119"><ele>-5.857142857142857</ele><time>2026-03-23T10:04:40.999Z</time></trkpt><trkpt lat="44.951480803774544" lon="11.983786251323359"><ele>-6.0</ele><time>2026-03-23T10:04:42.999Z</time></trkpt><trkpt lat="44.95154582389007" lon="11.983738428158105"><ele>-6.0</ele><time>2026-03-23T10:04:44.999Z</time></trkpt><trkpt lat="44.951621617149456" lon="11.983681421241355"><ele>-6.0</ele><time>2026-03-23T10:04:46.999Z</time></trkpt><trkpt lat="44.951694869020365" lon="11.983627257723832"><ele>-6.0</ele><time>2026-03-23T10:04:48.999Z</time></trkpt><trkpt lat="44.95176185096949" lon="11.983579768991188"><ele>-6.0</ele><time>2026-03-23T10:04:50.999Z</time></trkpt><trkpt lat="44.95183907866996" lon="11.983522390554327"><ele>-6.0</ele><time>2026-03-23T10:04:52.999Z</time></trkpt><trkpt lat="44.95191447633633" lon="11.983472718516156"><ele>-6.0</ele><time>2026-03-23T10:04:54.999Z</time></trkpt><trkpt lat="44.951983425372624" lon="11.98342452922105"><ele>-5.833333333333333</ele><time>2026-03-23T10:04:56.999Z</time></trkpt><trkpt lat="44.95204438995486" lon="11.983381103006103"><ele>-5.666666666666667</ele><time>2026-03-23T10:04:58.999Z</time></trkpt><trkpt lat="44.95212186060299" lon="11.983326338687903"><ele>-5.5</ele><time>2026-03-23T10:05:01.999Z</time></trkpt><trkpt lat="44.95219525328236" lon="11.983273115715978"><ele>-5.333333333333334</ele><time>2026-03-23T10:05:04.999Z</time></trkpt><trkpt lat="44.95225935308166" lon="11.983227433653445"><ele>-5.166666666666667</ele><time>2026-03-23T10:05:06.999Z</time></trkpt><trkpt lat="44.9523468812564" lon="11.98316496393976"><ele>-5.0</ele><time>2026-03-23T10:05:09.999Z</time></trkpt><trkpt lat="44.952418936732876" lon="11.983111416743688"><ele>-5.0</ele><time>2026-03-23T10:05:11.999Z</time></trkpt><trkpt lat="44.95247968825546" lon="11.983067666687253"><ele>-5.0</ele><time>2026-03-23T10:05:13.999Z</time></trkpt><trkpt lat="44.95256403456581" lon="11.983001900291212"><ele>-5.0</ele><time>2026-03-23T10:05:17Z</time></trkpt><trkpt lat="44.952631629133926" lon="11.98294955808647"><ele>-5.0</ele><time>2026-03-23T10:05:19Z</time></trkpt><trkpt lat="44.95269070797526" lon="11.982905649856043"><ele>-5.0</ele><time>2026-03-23T10:05:21Z</time></trkpt><trkpt lat="44.95277778575192" lon="11.9828448776769"><ele>-5.0</ele><time>2026-03-23T10:05:24Z</time></trkpt><trkpt lat="44.9528424525676" lon="11.982798638243706"><ele>-5.0</ele><time>2026-03-23T10:05:26Z</time></trkpt><trkpt lat="44.95292626108486" lon="11.982739599977485"><ele>-5.0</ele><time>2026-03-23T10:05:29Z</time></trkpt><trkpt lat="44.95299510300161" lon="11.982691513424518"><ele>-5.0</ele><time>2026-03-23T10:05:31Z</time></trkpt><trkpt lat="44.953051619238906" lon="11.982650746771167"><ele>-5.0</ele><time>2026-03-23T10:05:33Z</time></trkpt><trkpt lat="44.95312409776005" lon="11.982595752029845"><ele>-5.0</ele><time>2026-03-23T10:05:36Z</time></trkpt><trkpt lat="44.95320229275231" lon="11.982534583383167"><ele>-5.0</ele><time>2026-03-23T10:05:39Z</time></trkpt><trkpt lat="44.953261419086196" lon="11.982483004362795"><ele>-5.0</ele><time>2026-03-23T10:05:42Z</time></trkpt><trkpt lat="44.95334067685636" lon="11.982412855957481"><ele>-5.0</ele><time>2026-03-23T10:05:45Z</time></trkpt><trkpt lat="44.95340857791954" lon="11.982341599733328"><ele>-5.0</ele><time>2026-03-23T10:05:48Z</time></trkpt><trkpt lat="44.95346264096515" lon="11.982290038053694"><ele>-5.0</ele><time>2026-03-23T10:05:50Z</time></trkpt><trkpt lat="44.95351723915099" lon="11.982242318412275"><ele>-5.0</ele><time>2026-03-23T10:05:52Z</time></trkpt><trkpt lat="44.95359703663086" lon="11.982167914998266"><ele>-5.0</ele><time>2026-03-23T10:05:55Z</time></trkpt><trkpt lat="44.95366518257851" lon="11.982120716494341"><ele>-4.833333333333334</ele><time>2026-03-23T10:05:57Z</time></trkpt><trkpt lat="44.95373431613384" lon="11.982093709248186"><ele>-4.666666666666667</ele><time>2026-03-23T10:06:00Z</time></trkpt><trkpt lat="44.95377508298737" lon="11.982194161363191"><ele>-4.5</ele><time>2026-03-23T10:06:01Z</time></trkpt><trkpt lat="44.95380444145264" lon="11.982284328082889"><ele>-4.333333333333333</ele><time>2026-03-23T10:06:04Z</time></trkpt><trkpt lat="44.9538546432548" lon="11.982360178182953"><ele>-4.166666666666666</ele><time>2026-03-23T10:09:36Z</time></trkpt><trkpt lat="44.95388875717978" lon="11.982494664039072"><ele>-4.0</ele><time>2026-03-23T10:09:39Z</time></trkpt><trkpt lat="44.953934042244256" lon="11.982600899896694"><ele>-3.8000000000000003</ele><time>2026-03-23T10:09:41Z</time></trkpt><trkpt lat="44.95397681582593" lon="11.982717006036804"><ele>-3.6000000000000005</ele><time>2026-03-23T10:09:43Z</time></trkpt><trkpt lat="44.954017327530785" lon="11.982830183230666"><ele>-3.4</ele><time>2026-03-23T10:09:45Z</time></trkpt><trkpt lat="44.95406119329138" lon="11.982942628516309"><ele>-3.2</ele><time>2026-03-23T10:09:47Z</time></trkpt><trkpt lat="44.95409945448728" lon="11.98305488301365"><ele>-3.0</ele><time>2026-03-23T10:09:49Z</time></trkpt><trkpt lat="44.954145946477574" lon="11.98316444332187"><ele>-3.0</ele><time>2026-03-23T10:09:51Z</time></trkpt><trkpt lat="44.95418982705923" lon="11.983268242252405"><ele>-3.0</ele><time>2026-03-23T10:09:53Z</time></trkpt><trkpt lat="44.95424094973982" lon="11.983376797313968"><ele>-3.0</ele><time>2026-03-23T10:09:55Z</time></trkpt><trkpt lat="44.954280926776065" lon="11.983488603411711"><ele>-3.0</ele><time>2026-03-23T10:09:57Z</time></trkpt><trkpt lat="44.95431866225477" lon="11.983605946511048"><ele>-3.0</ele><time>2026-03-23T10:09:59Z</time></trkpt><trkpt lat="44.954365401751325" lon="11.983723167463454"><ele>-2.8</ele><time>2026-03-23T10:10:01Z</time></trkpt><trkpt lat="44.954416735535716" lon="11.983831541731528"><ele>-2.5999999999999996</ele><time>2026-03-23T10:10:03Z</time></trkpt><trkpt lat="44.95445491979229" lon="11.983950299331582"><ele>-2.4000000000000004</ele><time>2026-03-23T10:10:05Z</time></trkpt><trkpt lat="44.95449648399063" lon="11.984063628340659"><ele>-2.2</ele><time>2026-03-23T10:10:07Z</time></trkpt><trkpt lat="44.95453590433254" lon="11.984181236519486"><ele>-2.0</ele><time>2026-03-23T10:10:09Z</time></trkpt><trkpt lat="44.95458433950817" lon="11.984294670308277"><ele>-2.0</ele><time>2026-03-23T10:10:11Z</time></trkpt><trkpt lat="44.95462872122932" lon="11.98441123945959"><ele>-2.0</ele><time>2026-03-23T10:10:13Z</time></trkpt><trkpt lat="44.95467248678331" lon="11.984527047017565"><ele>-2.0</ele><time>2026-03-23T10:10:15Z</time></trkpt><trkpt lat="44.954717664985985" lon="11.984640773052542"><ele>-2.0</ele><time>2026-03-23T10:10:17Z</time></trkpt><trkpt lat="44.95476393073404" lon="11.984748864792417"><ele>-2.0</ele><time>2026-03-23T10:10:19Z</time></trkpt><trkpt lat="44.95480397818382" lon="11.984861950852459"><ele>-2.0</ele><time>2026-03-23T10:10:21Z</time></trkpt><trkpt lat="44.95485429699144" lon="11.984966225936626"><ele>-2.0</ele><time>2026-03-23T10:10:22.999Z</time></trkpt><trkpt lat="44.954897366833826" lon="11.985080378800882"><ele>-2.0</ele><time>2026-03-23T10:10:24.999Z</time></trkpt><trkpt lat="44.954932590017705" lon="11.98519914770415"><ele>-2.0</ele><time>2026-03-23T10:10:26.999Z</time></trkpt><trkpt lat="44.954977565805805" lon="11.98531185943748"><ele>-2.0</ele><time>2026-03-23T10:10:28.999Z</time></trkpt><trkpt lat="44.95502143752076" lon="11.98542437522988"><ele>-2.4000000000000004</ele><time>2026-03-23T10:10:30.999Z</time></trkpt><trkpt lat="44.955063366118104" lon="11.985536423994493"><ele>-2.8000000000000003</ele><time>2026-03-23T10:10:32.999Z</time></trkpt><trkpt lat="44.955106810015" lon="11.985647044353483"><ele>-3.2</ele><time>2026-03-23T10:10:34.999Z</time></trkpt><trkpt lat="44.95514712298403" lon="11.985767061635475"><ele>-3.6</ele><time>2026-03-23T10:10:36.999Z</time></trkpt><trkpt lat="44.9551977567385" lon="11.9858765581537"><ele>-4.0</ele><time>2026-03-23T10:10:38.999Z</time></trkpt><trkpt lat="44.95524279245535" lon="11.985995688293768"><ele>-4.0</ele><time>2026-03-23T10:10:40.999Z</time></trkpt><trkpt lat="44.95528567295724" lon="11.986109653861224"><ele>-4.0</ele><time>2026-03-23T10:10:42.999Z</time></trkpt><trkpt lat="44.95532610347952" lon="11.986228677397348"><ele>-4.0</ele><time>2026-03-23T10:10:44.999Z</time></trkpt><trkpt lat="44.955367124040976" lon="11.986348888787873"><ele>-4.0</ele><time>2026-03-23T10:10:46.999Z</time></trkpt><trkpt lat="44.95541436905877" lon="11.986455979883477"><ele>-4.0</ele><time>2026-03-23T10:10:48.999Z</time></trkpt><trkpt lat="44.95546002782239" lon="11.986568923011806"><ele>-3.8000000000000003</ele><time>2026-03-23T10:10:50.999Z</time></trkpt><trkpt lat="44.95550486008151" lon="11.98668537154266"><ele>-3.6000000000000005</ele><time>2026-03-23T10:10:52.999Z</time></trkpt><trkpt lat="44.95554890785942" lon="11.986800335673752"><ele>-3.4</ele><time>2026-03-23T10:10:54.999Z</time></trkpt><trkpt lat="44.95560121390728" lon="11.986908153073635"><ele>-3.2</ele><time>2026-03-23T10:10:56.999Z</time></trkpt><trkpt lat="44.955640446738265" lon="11.987020147907833"><ele>-3.0</ele><time>2026-03-23T10:10:58.999Z</time></trkpt><trkpt lat="44.9556805602661" lon="11.98713415507518"><ele>-3.0</ele><time>2026-03-23T10:11:00.999Z</time></trkpt><trkpt lat="44.95572484087288" lon="11.987245801867445"><ele>-3.0</ele><time>2026-03-23T10:11:02.999Z</time></trkpt><trkpt lat="44.955766992813544" lon="11.987360116370287"><ele>-3.0</ele><time>2026-03-23T10:11:04.999Z</time></trkpt><trkpt lat="44.95581161546289" lon="11.987470494485743"><ele>-3.0</ele><time>2026-03-23T10:11:06.999Z</time></trkpt><trkpt lat="44.9558521629288" lon="11.987589922237856"><ele>-3.0</ele><time>2026-03-23T10:11:08.999Z</time></trkpt><trkpt lat="44.955896839891665" lon="11.987711133739936"><ele>-3.0</ele><time>2026-03-23T10:11:10.999Z</time></trkpt><trkpt lat="44.95594924928762" lon="11.987822939287334"><ele>-3.0</ele><time>2026-03-23T10:11:12.999Z</time></trkpt><trkpt lat="44.955995496964604" lon="11.987938794545252"><ele>-3.0</ele><time>2026-03-23T10:11:14.999Z</time></trkpt><trkpt lat="44.9560352759858" lon="11.98806082869554"><ele>-3.0</ele><time>2026-03-23T10:11:16.999Z</time></trkpt><trkpt lat="44.956079874990856" lon="11.988174984117641"><ele>-3.0</ele><time>2026-03-23T10:11:18.999Z</time></trkpt><trkpt lat="44.95612472994127" lon="11.988293415098672"><ele>-3.2</ele><time>2026-03-23T10:11:20.999Z</time></trkpt><trkpt lat="44.95616779804411" lon="11.988408485601266"><ele>-3.4</ele><time>2026-03-23T10:11:22.999Z</time></trkpt><trkpt lat="44.95621471437115" lon="11.98852191594816"><ele>-3.6000000000000005</ele><time>2026-03-23T10:11:24.999Z</time></trkpt><trkpt lat="44.95625547296749" lon="11.988644581836335"><ele>-3.8000000000000003</ele><time>2026-03-23T10:11:26.999Z</time></trkpt><trkpt lat="44.95629689675219" lon="11.988760886261241"><ele>-4.0</ele><time>2026-03-23T10:11:28.999Z</time></trkpt><trkpt lat="44.95634346391942" lon="11.988876746568785"><ele>-4.0</ele><time>2026-03-23T10:11:30.999Z</time></trkpt><trkpt lat="44.956388774278444" lon="11.988994574541394"><ele>-4.0</ele><time>2026-03-23T10:11:32.999Z</time></trkpt><trkpt lat="44.95643518102679" lon="11.989106433452367"><ele>-4.0</ele><time>2026-03-23T10:11:35Z</time></trkpt><trkpt lat="44.95648426116262" lon="11.989218098413055"><ele>-4.0</ele><time>2026-03-23T10:11:37Z</time></trkpt><trkpt lat="44.95652492618068" lon="11.989339680234956"><ele>-4.0</ele><time>2026-03-23T10:11:39Z</time></trkpt><trkpt lat="44.95657011241218" lon="11.98945696112844"><ele>-3.9999999999999996</ele><time>2026-03-23T10:11:41Z</time></trkpt><trkpt lat="44.95661939898854" lon="11.989568646734083"><ele>-4.0</ele><time>2026-03-23T10:11:43Z</time></trkpt><trkpt lat="44.95667041334242" lon="11.98968269141862"><ele>-4.0</ele><time>2026-03-23T10:11:45Z</time></trkpt><trkpt lat="44.95670504970894" lon="11.989791084065708"><ele>-4.0</ele><time>2026-03-23T10:11:47Z</time></trkpt><trkpt lat="44.956745088382554" lon="11.989901119868511"><ele>-3.9999999999999996</ele><time>2026-03-23T10:11:49Z</time></trkpt><trkpt lat="44.956787729281885" lon="11.98999459613843"><ele>-4.0</ele><time>2026-03-23T10:11:51Z</time></trkpt><trkpt lat="44.95682853181294" lon="11.99009715015789"><ele>-3.6666666666666665</ele><time>2026-03-23T10:11:53Z</time></trkpt><trkpt lat="44.95686492246004" lon="11.990200802378352"><ele>-3.333333333333333</ele><time>2026-03-23T10:11:55Z</time></trkpt><trkpt lat="44.956892672621485" lon="11.990285289937376"><ele>-3.0</ele><time>2026-03-23T10:11:57Z</time></trkpt><trkpt lat="44.95693701418839" lon="11.990368121145476"><ele>-2.6666666666666665</ele><time>2026-03-23T10:11:59Z</time></trkpt><trkpt lat="44.9569730122675" lon="11.990486928529009"><ele>-2.333333333333333</ele><time>2026-03-23T10:12:01Z</time></trkpt><trkpt lat="44.95700693594194" lon="11.99060498577464"><ele>-2.0</ele><time>2026-03-23T10:12:03Z</time></trkpt><trkpt lat="44.95705066489854" lon="11.990720267117245"><ele>-2.0</ele><time>2026-03-23T10:12:05Z</time></trkpt><trkpt lat="44.957097246897625" lon="11.990834094873234"><ele>-2.0</ele><time>2026-03-23T10:12:07Z</time></trkpt><trkpt lat="44.95714062433522" lon="11.990946696810466"><ele>-2.0</ele><time>2026-03-23T10:12:09Z</time></trkpt><trkpt lat="44.95718692338936" lon="11.991063803483003"><ele>-2.0</ele><time>2026-03-23T10:12:11Z</time></trkpt><trkpt lat="44.957230947854256" lon="11.99118165614794"><ele>-2.0</ele><time>2026-03-23T10:12:13Z</time></trkpt><trkpt lat="44.95727427457899" lon="11.99129775716134"><ele>-2.0</ele><time>2026-03-23T10:12:15Z</time></trkpt><trkpt lat="44.95732245459265" lon="11.991415437497064"><ele>-2.0</ele><time>2026-03-23T10:12:17Z</time></trkpt><trkpt lat="44.95736445446803" lon="11.991530379902777"><ele>-2.0</ele><time>2026-03-23T10:12:19Z</time></trkpt><trkpt lat="44.95740811804377" lon="11.991639811965719"><ele>-2.0</ele><time>2026-03-23T10:12:21Z</time></trkpt><trkpt lat="44.95745359138461" lon="11.991749611590347"><ele>-2.0</ele><time>2026-03-23T10:12:23Z</time></trkpt><trkpt lat="44.95749989892405" lon="11.991860593454065"><ele>-2.0</ele><time>2026-03-23T10:12:25Z</time></trkpt><trkpt lat="44.957541373693346" lon="11.991974228812348"><ele>-2.0</ele><time>2026-03-23T10:12:27Z</time></trkpt><trkpt lat="44.957582000816906" lon="11.992089448655078"><ele>-2.0</ele><time>2026-03-23T10:12:29Z</time></trkpt><trkpt lat="44.957628654266216" lon="11.99220368669675"><ele>-2.0</ele><time>2026-03-23T10:12:31Z</time></trkpt><trkpt lat="44.95767045141133" lon="11.9923184646435"><ele>-2.0</ele><time>2026-03-23T10:12:33Z</time></trkpt><trkpt lat="44.95771293002927" lon="11.992429783266996"><ele>-1.8</ele><time>2026-03-23T10:12:34.999Z</time></trkpt><trkpt lat="44.957757975022" lon="11.992545402409878"><ele>-1.6</ele><time>2026-03-23T10:12:36.999Z</time></trkpt><trkpt lat="44.95780012980656" lon="11.992656104684169"><ele>-1.4000000000000001</ele><time>2026-03-23T10:12:38.999Z</time></trkpt><trkpt lat="44.957842963005426" lon="11.992772591356845"><ele>-1.2000000000000002</ele><time>2026-03-23T10:12:40.999Z</time></trkpt><trkpt lat="44.95788701581606" lon="11.992890042205131"><ele>-1.0</ele><time>2026-03-23T10:12:42.999Z</time></trkpt><trkpt lat="44.957931605505124" lon="11.99299761690351"><ele>-0.9999999999999999</ele><time>2026-03-23T10:12:44.999Z</time></trkpt><trkpt lat="44.957975078938006" lon="11.993099027571716"><ele>-1.0</ele><time>2026-03-23T10:12:46.999Z</time></trkpt><trkpt lat="44.95800702211041" lon="11.993197952612837"><ele>-1.0</ele><time>2026-03-23T10:12:48.999Z</time></trkpt><trkpt lat="44.95805115314568" lon="11.993290976992245"><ele>-1.0</ele><time>2026-03-23T10:12:50.999Z</time></trkpt><trkpt lat="44.95808447879939" lon="11.993376812342039"><ele>-0.9999999999999999</ele><time>2026-03-23T10:12:52.999Z</time></trkpt><trkpt lat="44.9581265640318" lon="11.993475700046325"><ele>-1.0</ele><time>2026-03-23T10:12:54.999Z</time></trkpt><trkpt lat="44.958170668026774" lon="11.993584599073719"><ele>-1.1666666666666665</ele><time>2026-03-23T10:12:56.999Z</time></trkpt><trkpt lat="44.958205787193215" lon="11.993684240148763"><ele>-1.3333333333333333</ele><time>2026-03-23T10:12:58.999Z</time></trkpt><trkpt lat="44.958239728997654" lon="11.993779969491156"><ele>-1.5</ele><time>2026-03-23T10:13:00.999Z</time></trkpt><trkpt lat="44.958262917576526" lon="11.993865938033585"><ele>-1.6666666666666665</ele><time>2026-03-23T10:13:02.999Z</time></trkpt><trkpt lat="44.95830480882354" lon="11.99395686833857"><ele>-1.8333333333333333</ele><time>2026-03-23T10:13:04.999Z</time></trkpt><trkpt lat="44.95834833538685" lon="11.994071416965875"><ele>-2.0</ele><time>2026-03-23T10:13:06.999Z</time></trkpt><trkpt lat="44.95839335877777" lon="11.994185608391456"><ele>-2.2</ele><time>2026-03-23T10:13:08.999Z</time></trkpt><trkpt lat="44.95843975988241" lon="11.994302943700653"><ele>-2.4000000000000004</ele><time>2026-03-23T10:13:10.999Z</time></trkpt><trkpt lat="44.95848142081964" lon="11.994417799865227"><ele>-2.5999999999999996</ele><time>2026-03-23T10:13:12.999Z</time></trkpt><trkpt lat="44.9585252474996" lon="11.99453554551709"><ele>-2.8</ele><time>2026-03-23T10:13:14.999Z</time></trkpt><trkpt lat="44.95856816025351" lon="11.99465032936274"><ele>-3.0</ele><time>2026-03-23T10:13:16.999Z</time></trkpt><trkpt lat="44.95861258477309" lon="11.994753559051054"><ele>-3.0</ele><time>2026-03-23T10:13:18.999Z</time></trkpt><trkpt lat="44.95864177938645" lon="11.994854403392518"><ele>-3.0</ele><time>2026-03-23T10:13:20.999Z</time></trkpt><trkpt lat="44.95868414417226" lon="11.994946671720886"><ele>-3.0</ele><time>2026-03-23T10:13:22.999Z</time></trkpt><trkpt lat="44.95872276784246" lon="11.995050474080884"><ele>-3.0</ele><time>2026-03-23T10:13:24.999Z</time></trkpt><trkpt lat="44.958765970988104" lon="11.995159300478031"><ele>-3.0</ele><time>2026-03-23T10:13:26.999Z</time></trkpt><trkpt lat="44.9588100006624" lon="11.99527303587908"><ele>-3.0</ele><time>2026-03-23T10:13:28.999Z</time></trkpt><trkpt lat="44.95886048847735" lon="11.99538128737162"><ele>-2.6666666666666665</ele><time>2026-03-23T10:13:30.999Z</time></trkpt><trkpt lat="44.958898521973865" lon="11.995478900216504"><ele>-2.3333333333333335</ele><time>2026-03-23T10:13:32.999Z</time></trkpt><trkpt lat="44.95893552900971" lon="11.995572586289324"><ele>-2.0</ele><time>2026-03-23T10:13:34.999Z</time></trkpt><trkpt lat="44.95896938936766" lon="11.995674398557522"><ele>-1.6666666666666665</ele><time>2026-03-23T10:13:36.999Z</time></trkpt><trkpt lat="44.95900280681456" lon="11.995768081775987"><ele>-1.3333333333333333</ele><time>2026-03-23T10:13:38.999Z</time></trkpt><trkpt lat="44.95903604525792" lon="11.995851666796707"><ele>-1.0</ele><time>2026-03-23T10:13:41Z</time></trkpt><trkpt lat="44.95906818369076" lon="11.995946578466192"><ele>-0.9999999999999999</ele><time>2026-03-23T10:13:43Z</time></trkpt><trkpt lat="44.959113202039376" lon="11.996044090456772"><ele>-1.0</ele><time>2026-03-23T10:13:45Z</time></trkpt><trkpt lat="44.95914702522845" lon="11.996135402195616"><ele>-1.0</ele><time>2026-03-23T10:13:47Z</time></trkpt><trkpt lat="44.9591830364609" lon="11.996217714079014"><ele>-1.0</ele><time>2026-03-23T10:13:49Z</time></trkpt><trkpt lat="44.95922197475646" lon="11.996311574012031"><ele>-0.9999999999999999</ele><time>2026-03-23T10:13:51Z</time></trkpt><trkpt lat="44.95925663068914" lon="11.99641434019417"><ele>-1.0</ele><time>2026-03-23T10:13:53Z</time></trkpt><trkpt lat="44.959292428558726" lon="11.996511294850404"><ele>-0.9999999999999999</ele><time>2026-03-23T10:13:55Z</time></trkpt><trkpt lat="44.95933155031114" lon="11.996596315069423"><ele>-1.0</ele><time>2026-03-23T10:13:57Z</time></trkpt><trkpt lat="44.95937118699694" lon="11.996710756608458"><ele>-1.0</ele><time>2026-03-23T10:14:00Z</time></trkpt><trkpt lat="44.959424068258016" lon="11.99683356512257"><ele>-1.0</ele><time>2026-03-23T10:14:03Z</time></trkpt><trkpt lat="44.95946128236971" lon="11.996926503546266"><ele>-0.9999999999999999</ele><time>2026-03-23T10:14:05Z</time></trkpt><trkpt lat="44.959496816753045" lon="11.997008196948768"><ele>-1.0</ele><time>2026-03-23T10:14:07Z</time></trkpt><trkpt lat="44.959533896806555" lon="11.997122598806774"><ele>-1.3333333333333333</ele><time>2026-03-23T10:14:10Z</time></trkpt><trkpt lat="44.95956393008167" lon="11.997217804536367"><ele>-1.6666666666666665</ele><time>2026-03-23T10:14:13Z</time></trkpt><trkpt lat="44.95964397903627" lon="11.99724383059465"><ele>-2.0</ele><time>2026-03-23T10:14:17Z</time></trkpt><trkpt lat="44.95970666491255" lon="11.997163983319675"><ele>-2.3333333333333335</ele><time>2026-03-23T10:14:19Z</time></trkpt><trkpt lat="44.95975998939861" lon="11.997090165500106"><ele>-2.6666666666666665</ele><time>2026-03-23T10:14:21Z</time></trkpt><trkpt lat="44.959801900991806" lon="11.997007274159333"><ele>-3.0</ele><time>2026-03-23T10:14:23Z</time></trkpt><trkpt lat="44.95982541102728" lon="11.9969052851867"><ele>-3.0</ele><time>2026-03-23T10:14:25Z</time></trkpt><trkpt lat="44.95985591192963" lon="11.99678917599695"><ele>-3.0</ele><time>2026-03-23T10:14:27Z</time></trkpt><trkpt lat="44.95989384036432" lon="11.996656455129102"><ele>-3.0</ele><time>2026-03-23T10:14:29Z</time></trkpt><trkpt lat="44.95993839076272" lon="11.996518231138502"><ele>-3.0</ele><time>2026-03-23T10:14:31Z</time></trkpt><trkpt lat="44.9599897312358" lon="11.996377909765213"><ele>-3.0</ele><time>2026-03-23T10:14:33Z</time></trkpt><trkpt lat="44.960030269442804" lon="11.996240584828703"><ele>-3.0</ele><time>2026-03-23T10:14:34.999Z</time></trkpt><trkpt lat="44.96008137271545" lon="11.996112700078548"><ele>-3.0</ele><time>2026-03-23T10:14:36.999Z</time></trkpt><trkpt lat="44.96012917542595" lon="11.99598795676081"><ele>-3.0</ele><time>2026-03-23T10:14:38.999Z</time></trkpt><trkpt lat="44.96017894878881" lon="11.995865659177497"><ele>-3.0</ele><time>2026-03-23T10:14:40.999Z</time></trkpt><trkpt lat="44.96022423636783" lon="11.995743239360964"><ele>-3.0</ele><time>2026-03-23T10:14:42.999Z</time></trkpt><trkpt lat="44.96027535061693" lon="11.99562472430028"><ele>-3.0</ele><time>2026-03-23T10:14:44.999Z</time></trkpt><trkpt lat="44.960321934157854" lon="11.99550324844409"><ele>-3.0</ele><time>2026-03-23T10:14:46.999Z</time></trkpt><trkpt lat="44.96037160185192" lon="11.995384145766685"><ele>-3.0</ele><time>2026-03-23T10:14:48.999Z</time></trkpt><trkpt lat="44.960418033870745" lon="11.995263152728839"><ele>-3.0</ele><time>2026-03-23T10:14:50.999Z</time></trkpt><trkpt lat="44.96046309602995" lon="11.995142387619133"><ele>-3.0</ele><time>2026-03-23T10:14:52.999Z</time></trkpt><trkpt lat="44.960504674304175" lon="11.995020789695204"><ele>-3.2</ele><time>2026-03-23T10:14:54.999Z</time></trkpt><trkpt lat="44.960555569327475" lon="11.994906884745005"><ele>-3.4</ele><time>2026-03-23T10:14:56.999Z</time></trkpt><trkpt lat="44.960599323194714" lon="11.99478945005476"><ele>-3.6000000000000005</ele><time>2026-03-23T10:14:58.999Z</time></trkpt><trkpt lat="44.96064151331418" lon="11.99467328506692"><ele>-3.8000000000000003</ele><time>2026-03-23T10:15:00.999Z</time></trkpt><trkpt lat="44.96068346245927" lon="11.994569468564988"><ele>-4.0</ele><time>2026-03-23T10:15:02.999Z</time></trkpt><trkpt lat="44.960726873418984" lon="11.994463518549637"><ele>-4.0</ele><time>2026-03-23T10:15:04.999Z</time></trkpt><trkpt lat="44.96077423552275" lon="11.994344235017202"><ele>-4.0</ele><time>2026-03-23T10:15:06.999Z</time></trkpt><trkpt lat="44.960819347261456" lon="11.994225235934133"><ele>-4.0</ele><time>2026-03-23T10:15:08.999Z</time></trkpt><trkpt lat="44.960859893639714" lon="11.99410525943988"><ele>-4.0</ele><time>2026-03-23T10:15:10.999Z</time></trkpt><trkpt lat="44.96090168655297" lon="11.993986105974214"><ele>-4.0</ele><time>2026-03-23T10:15:12.999Z</time></trkpt><trkpt lat="44.96094165344936" lon="11.993866601113808"><ele>-3.6</ele><time>2026-03-23T10:15:14.999Z</time></trkpt><trkpt lat="44.96099114787777" lon="11.993758199033401"><ele>-3.2</ele><time>2026-03-23T10:15:16.999Z</time></trkpt><trkpt lat="44.96103282537343" lon="11.993648396700356"><ele>-2.8000000000000003</ele><time>2026-03-23T10:15:18.999Z</time></trkpt><trkpt lat="44.96106582405772" lon="11.99352481958112"><ele>-2.4000000000000004</ele><time>2026-03-23T10:15:20.999Z</time></trkpt><trkpt lat="44.96111034336574" lon="11.99339308051283"><ele>-2.0</ele><time>2026-03-23T10:15:22.999Z</time></trkpt><trkpt lat="44.96116972987141" lon="11.993288146657951"><ele>-2.0</ele><time>2026-03-23T10:15:24.999Z</time></trkpt><trkpt lat="44.961212071207775" lon="11.99316242108634"><ele>-2.0</ele><time>2026-03-23T10:15:26.999Z</time></trkpt><trkpt lat="44.96125597037387" lon="11.993048923616955"><ele>-2.0</ele><time>2026-03-23T10:15:28.999Z</time></trkpt><trkpt lat="44.96129688161506" lon="11.992946866010303"><ele>-2.0</ele><time>2026-03-23T10:15:30.999Z</time></trkpt><trkpt lat="44.9613405707776" lon="11.992840137661748"><ele>-2.0</ele><time>2026-03-23T10:15:32.999Z</time></trkpt><trkpt lat="44.96138161314555" lon="11.992723919882035"><ele>-2.0</ele><time>2026-03-23T10:15:34.999Z</time></trkpt><trkpt lat="44.96142356343602" lon="11.992610809696918"><ele>-2.0</ele><time>2026-03-23T10:15:36.999Z</time></trkpt><trkpt lat="44.96146777671009" lon="11.992490767297923"><ele>-2.0</ele><time>2026-03-23T10:15:38.999Z</time></trkpt><trkpt lat="44.96151763945663" lon="11.992366976333674"><ele>-2.0</ele><time>2026-03-23T10:15:40.999Z</time></trkpt><trkpt lat="44.96154505477231" lon="11.992238647311655"><ele>-2.0</ele><time>2026-03-23T10:15:42.999Z</time></trkpt><trkpt lat="44.961594185967535" lon="11.99211924932745"><ele>-2.0</ele><time>2026-03-23T10:15:44.999Z</time></trkpt><trkpt lat="44.96163680384041" lon="11.99200665394546"><ele>-2.0</ele><time>2026-03-23T10:15:47Z</time></trkpt><trkpt lat="44.96167968425839" lon="11.991888743913515"><ele>-2.0</ele><time>2026-03-23T10:15:49Z</time></trkpt><trkpt lat="44.96172688346577" lon="11.991771406599685"><ele>-2.0</ele><time>2026-03-23T10:15:51Z</time></trkpt><trkpt lat="44.96177392799943" lon="11.991650546603141"><ele>-2.0</ele><time>2026-03-23T10:15:53Z</time></trkpt><trkpt lat="44.961820183043706" lon="11.991530164070811"><ele>-2.2</ele><time>2026-03-23T10:15:55Z</time></trkpt><trkpt lat="44.96186267679711" lon="11.991412993710146"><ele>-2.4000000000000004</ele><time>2026-03-23T10:15:57Z</time></trkpt><trkpt lat="44.961912104964725" lon="11.991293689721696"><ele>-2.5999999999999996</ele><time>2026-03-23T10:15:59Z</time></trkpt><trkpt lat="44.96195779529298" lon="11.991173647925748"><ele>-2.8</ele><time>2026-03-23T10:16:01Z</time></trkpt><trkpt lat="44.96200187792171" lon="11.991055836545964"><ele>-3.0</ele><time>2026-03-23T10:16:03Z</time></trkpt><trkpt lat="44.96204990162446" lon="11.990935897627848"><ele>-3.1666666666666665</ele><time>2026-03-23T10:16:05Z</time></trkpt><trkpt lat="44.962101251072646" lon="11.990816734518713"><ele>-3.333333333333333</ele><time>2026-03-23T10:16:07Z</time></trkpt><trkpt lat="44.96213281455372" lon="11.990710190169565"><ele>-3.5</ele><time>2026-03-23T10:16:09Z</time></trkpt><trkpt lat="44.962174700021905" lon="11.990618601297314"><ele>-3.6666666666666665</ele><time>2026-03-23T10:16:11Z</time></trkpt><trkpt lat="44.96221770056369" lon="11.990509695257051"><ele>-3.833333333333333</ele><time>2026-03-23T10:16:13Z</time></trkpt><trkpt lat="44.96226351169174" lon="11.990393738488477"><ele>-4.0</ele><time>2026-03-23T10:16:15Z</time></trkpt><trkpt lat="44.96231116827801" lon="11.990277335689541"><ele>-3.9999999999999996</ele><time>2026-03-23T10:16:17Z</time></trkpt><trkpt lat="44.96235465039795" lon="11.99016812840815"><ele>-4.0</ele><time>2026-03-23T10:16:19Z</time></trkpt><trkpt lat="44.96240103650747" lon="11.990062053338624"><ele>-4.0</ele><time>2026-03-23T10:16:21Z</time></trkpt><trkpt lat="44.962437253539896" lon="11.989967824829982"><ele>-4.0</ele><time>2026-03-23T10:16:23Z</time></trkpt><trkpt lat="44.96247489813534" lon="11.989874021445788"><ele>-3.9999999999999996</ele><time>2026-03-23T10:16:25Z</time></trkpt><trkpt lat="44.96251874477886" lon="11.989762920452485"><ele>-4.0</ele><time>2026-03-23T10:16:27Z</time></trkpt><trkpt lat="44.962565948877156" lon="11.98964271284934"><ele>-4.2</ele><time>2026-03-23T10:16:29Z</time></trkpt><trkpt lat="44.96261077439587" lon="11.989525398522671"><ele>-4.4</ele><time>2026-03-23T10:16:31Z</time></trkpt><trkpt lat="44.962657475831314" lon="11.989407417969288"><ele>-4.6</ele><time>2026-03-23T10:16:33Z</time></trkpt><trkpt lat="44.96270104814307" lon="11.989288925622203"><ele>-4.8</ele><time>2026-03-23T10:16:35Z</time></trkpt><trkpt lat="44.96274666348964" lon="11.989169495299555"><ele>-5.0</ele><time>2026-03-23T10:16:37Z</time></trkpt><trkpt lat="44.96279127765701" lon="11.989050504909597"><ele>-4.6</ele><time>2026-03-23T10:16:38.999Z</time></trkpt><trkpt lat="44.96283893717476" lon="11.988938497713074"><ele>-4.2</ele><time>2026-03-23T10:16:40.999Z</time></trkpt><trkpt lat="44.962884675430814" lon="11.988817417892108"><ele>-3.8</ele><time>2026-03-23T10:16:42.999Z</time></trkpt><trkpt lat="44.96292830360143" lon="11.988705740029443"><ele>-3.4</ele><time>2026-03-23T10:16:44.999Z</time></trkpt><trkpt lat="44.96297159165405" lon="11.988599954121721"><ele>-3.0</ele><time>2026-03-23T10:16:46.999Z</time></trkpt><trkpt lat="44.96301683790244" lon="11.98848962975149"><ele>-3.0</ele><time>2026-03-23T10:16:48.999Z</time></trkpt><trkpt lat="44.96306242697736" lon="11.988373244496852"><ele>-3.0</ele><time>2026-03-23T10:16:50.999Z</time></trkpt><trkpt lat="44.9631088385229" lon="11.988252280468352"><ele>-3.0</ele><time>2026-03-23T10:16:52.999Z</time></trkpt><trkpt lat="44.963157785211834" lon="11.988133985016985"><ele>-3.0</ele><time>2026-03-23T10:16:54.999Z</time></trkpt><trkpt lat="44.963194866081835" lon="11.988037518475675"><ele>-3.0</ele><time>2026-03-23T10:16:56.999Z</time></trkpt><trkpt lat="44.9632318057736" lon="11.987940643496271"><ele>-3.0</ele><time>2026-03-23T10:16:58.999Z</time></trkpt><trkpt lat="44.96326790663098" lon="11.987843987900677"><ele>-3.0</ele><time>2026-03-23T10:17:00.999Z</time></trkpt><trkpt lat="44.9632927543136" lon="11.987754149396876"><ele>-3.0</ele><time>2026-03-23T10:17:02.999Z</time></trkpt><trkpt lat="44.96333223927715" lon="11.987652110739415"><ele>-3.0</ele><time>2026-03-23T10:17:04.999Z</time></trkpt><trkpt lat="44.963372563254346" lon="11.98753767337164"><ele>-3.0</ele><time>2026-03-23T10:17:06.999Z</time></trkpt><trkpt lat="44.96341899452548" lon="11.98741729148365"><ele>-3.0</ele><time>2026-03-23T10:17:08.999Z</time></trkpt><trkpt lat="44.96346713026706" lon="11.987294872627581"><ele>-3.0</ele><time>2026-03-23T10:17:10.999Z</time></trkpt><trkpt lat="44.963512413777586" lon="11.987165828938663"><ele>-3.0</ele><time>2026-03-23T10:17:12.999Z</time></trkpt><trkpt lat="44.96356022017671" lon="11.987037956865924"><ele>-3.0</ele><time>2026-03-23T10:17:14.999Z</time></trkpt><trkpt lat="44.96360566196965" lon="11.986913461618306"><ele>-3.0</ele><time>2026-03-23T10:17:16.999Z</time></trkpt><trkpt lat="44.96364701286351" lon="11.986798243602124"><ele>-3.0</ele><time>2026-03-23T10:17:18.999Z</time></trkpt><trkpt lat="44.96369235131056" lon="11.986687337453949"><ele>-3.0</ele><time>2026-03-23T10:17:20.999Z</time></trkpt><trkpt lat="44.96373655447332" lon="11.98656958291376"><ele>-3.0</ele><time>2026-03-23T10:17:22.999Z</time></trkpt><trkpt lat="44.96378177952649" lon="11.98645210468608"><ele>-3.0</ele><time>2026-03-23T10:17:24.999Z</time></trkpt><trkpt lat="44.963825351631066" lon="11.98633104688033"><ele>-3.0</ele><time>2026-03-23T10:17:26.999Z</time></trkpt><trkpt lat="44.963872877821174" lon="11.986212672201235"><ele>-3.0</ele><time>2026-03-23T10:17:28.999Z</time></trkpt><trkpt lat="44.96392918429526" lon="11.986102068075668"><ele>-3.0</ele><time>2026-03-23T10:17:30.999Z</time></trkpt><trkpt lat="44.96396448840335" lon="11.985974551953246"><ele>-3.0</ele><time>2026-03-23T10:17:32.999Z</time></trkpt><trkpt lat="44.964008126259856" lon="11.985853430218276"><ele>-3.0</ele><time>2026-03-23T10:17:34.999Z</time></trkpt><trkpt lat="44.96405538930607" lon="11.985737739258825"><ele>-3.0</ele><time>2026-03-23T10:17:36.999Z</time></trkpt><trkpt lat="44.964097579985214" lon="11.985626818751921"><ele>-3.0</ele><time>2026-03-23T10:17:38.999Z</time></trkpt><trkpt lat="44.964141799224656" lon="11.98551125992311"><ele>-3.0</ele><time>2026-03-23T10:17:40.999Z</time></trkpt><trkpt lat="44.96418748322535" lon="11.985393769136834"><ele>-3.0</ele><time>2026-03-23T10:17:42.999Z</time></trkpt><trkpt lat="44.96423115970964" lon="11.98527581452683"><ele>-3.0</ele><time>2026-03-23T10:17:44.999Z</time></trkpt><trkpt lat="44.96427309166504" lon="11.985165527771594"><ele>-3.0</ele><time>2026-03-23T10:17:46.999Z</time></trkpt><trkpt lat="44.96432162108439" lon="11.985070722052043"><ele>-3.0</ele><time>2026-03-23T10:17:48.999Z</time></trkpt><trkpt lat="44.96436662934916" lon="11.984967090208997"><ele>-3.0</ele><time>2026-03-23T10:17:50.999Z</time></trkpt><trkpt lat="44.96442312781619" lon="11.98486929490691"><ele>-3.0</ele><time>2026-03-23T10:17:53Z</time></trkpt><trkpt lat="44.96447825893578" lon="11.98479131781113"><ele>-3.0</ele><time>2026-03-23T10:17:55Z</time></trkpt><trkpt lat="44.96452701251144" lon="11.984720792384131"><ele>-3.0</ele><time>2026-03-23T10:17:57Z</time></trkpt><trkpt lat="44.96460218458258" lon="11.98463756088172"><ele>-3.0</ele><time>2026-03-23T10:18:00Z</time></trkpt><trkpt lat="44.96467484773115" lon="11.984565118514773"><ele>-3.0</ele><time>2026-03-23T10:18:02Z</time></trkpt><trkpt lat="44.964736487213145" lon="11.984489608392966"><ele>-3.0</ele><time>2026-03-23T10:18:04Z</time></trkpt><trkpt lat="44.96480235206018" lon="11.984421417532882"><ele>-3.0</ele><time>2026-03-23T10:18:06Z</time></trkpt><trkpt lat="44.96486289454556" lon="11.984367740656042"><ele>-2.0</ele><time>2026-03-23T10:18:08Z</time></trkpt><trkpt lat="44.965317698223956" lon="11.983960302963025"><ele>-1.9999999999999998</ele><time>2026-03-23T10:18:22Z</time></trkpt><trkpt lat="44.96537528635131" lon="11.983916326192194"><ele>-2.0</ele><time>2026-03-23T10:18:24Z</time></trkpt><trkpt lat="44.96542672454029" lon="11.983861970765556"><ele>-2.0</ele><time>2026-03-23T10:18:26Z</time></trkpt><trkpt lat="44.96549539371305" lon="11.983801609633943"><ele>-2.0</ele><time>2026-03-23T10:18:28Z</time></trkpt><trkpt lat="44.96556466760093" lon="11.983738139975603"><ele>-1.9999999999999998</ele><time>2026-03-23T10:18:30Z</time></trkpt><trkpt lat="44.965629377334444" lon="11.983679742429587"><ele>-2.0</ele><time>2026-03-23T10:18:32Z</time></trkpt><trkpt lat="44.965706437796904" lon="11.983611556266096"><ele>-2.0</ele><time>2026-03-23T10:18:34Z</time></trkpt><trkpt lat="44.965781133809735" lon="11.983543873728811"><ele>-2.0</ele><time>2026-03-23T10:18:36Z</time></trkpt><trkpt lat="44.96586313741779" lon="11.983471939205607"><ele>-2.0</ele><time>2026-03-23T10:18:38Z</time></trkpt><trkpt lat="44.9659435769406" lon="11.9833997839718"><ele>-2.0</ele><time>2026-03-23T10:18:40Z</time></trkpt><trkpt lat="44.96602162501147" lon="11.98333005791737"><ele>-2.0</ele><time>2026-03-23T10:18:42Z</time></trkpt><trkpt lat="44.96609600303491" lon="11.983266472630929"><ele>-1.8</ele><time>2026-03-23T10:18:43.999Z</time></trkpt><trkpt lat="44.966177361342616" lon="11.983197102477744"><ele>-1.6</ele><time>2026-03-23T10:18:45.999Z</time></trkpt><trkpt lat="44.96625596364907" lon="11.983127060057155"><ele>-1.4000000000000001</ele><time>2026-03-23T10:18:47.999Z</time></trkpt><trkpt lat="44.966338358932305" lon="11.983059078546411"><ele>-1.2000000000000002</ele><time>2026-03-23T10:18:49.999Z</time></trkpt><trkpt lat="44.96641922153128" lon="11.982991258467168"><ele>-1.0</ele><time>2026-03-23T10:18:51.999Z</time></trkpt><trkpt lat="44.96649465649062" lon="11.982923986978648"><ele>-0.9999999999999999</ele><time>2026-03-23T10:18:53.999Z</time></trkpt><trkpt lat="44.96657271796821" lon="11.982859692378161"><ele>-1.0</ele><time>2026-03-23T10:18:55.999Z</time></trkpt><trkpt lat="44.9666378022821" lon="11.982776107859188"><ele>-1.0</ele><time>2026-03-23T10:18:57.999Z</time></trkpt><trkpt lat="44.96671605158012" lon="11.982714201946408"><ele>-1.0</ele><time>2026-03-23T10:18:59.999Z</time></trkpt><trkpt lat="44.96678653295628" lon="11.982649535891023"><ele>-0.9999999999999999</ele><time>2026-03-23T10:19:01.999Z</time></trkpt><trkpt lat="44.96686076223867" lon="11.982583633986446"><ele>-1.0</ele><time>2026-03-23T10:19:03.999Z</time></trkpt><trkpt lat="44.96694245559049" lon="11.982530984917213"><ele>-0.8333333333333333</ele><time>2026-03-23T10:19:05.999Z</time></trkpt><trkpt lat="44.967013789861845" lon="11.982447451441796"><ele>-0.6666666666666666</ele><time>2026-03-23T10:19:07.999Z</time></trkpt><trkpt lat="44.967086667018364" lon="11.982381906178212"><ele>-0.5</ele><time>2026-03-23T10:19:09.999Z</time></trkpt><trkpt lat="44.96715969173181" lon="11.982317241207992"><ele>-0.3333333333333333</ele><time>2026-03-23T10:19:11.999Z</time></trkpt><trkpt lat="44.96723496467171" lon="11.982249431453463"><ele>-0.16666666666666666</ele><time>2026-03-23T10:19:13.999Z</time></trkpt><trkpt lat="44.96730977110081" lon="11.982181212223054"><ele>0.0</ele><time>2026-03-23T10:19:15.999Z</time></trkpt><trkpt lat="44.96738344530819" lon="11.982114381682369"><ele>0.0</ele><time>2026-03-23T10:19:17.999Z</time></trkpt><trkpt lat="44.967460498414425" lon="11.982044429500533"><ele>0.0</ele><time>2026-03-23T10:19:19.999Z</time></trkpt><trkpt lat="44.96752793329893" lon="11.981983696048246"><ele>0.0</ele><time>2026-03-23T10:19:21.999Z</time></trkpt><trkpt lat="44.9675976605981" lon="11.981920908312905"><ele>0.0</ele><time>2026-03-23T10:19:23.999Z</time></trkpt><trkpt lat="44.96766503760626" lon="11.981860627900854"><ele>0.0</ele><time>2026-03-23T10:19:25.999Z</time></trkpt><trkpt lat="44.96772789390857" lon="11.981802739756617"><ele>0.0</ele><time>2026-03-23T10:19:27.999Z</time></trkpt><trkpt lat="44.96780001470227" lon="11.981738131326445"><ele>-0.16666666666666666</ele><time>2026-03-23T10:19:29.999Z</time></trkpt><trkpt lat="44.96787433252854" lon="11.981671106031685"><ele>-0.3333333333333333</ele><time>2026-03-23T10:19:31.999Z</time></trkpt><trkpt lat="44.96794227651914" lon="11.981608741119725"><ele>-0.5</ele><time>2026-03-23T10:19:33.999Z</time></trkpt><trkpt lat="44.96801926350259" lon="11.981542467985026"><ele>-0.6666666666666666</ele><time>2026-03-23T10:19:35.999Z</time></trkpt><trkpt lat="44.9680840152958" lon="11.981479413806687"><ele>-0.8333333333333333</ele><time>2026-03-23T10:19:37.999Z</time></trkpt><trkpt lat="44.9681481757027" lon="11.981422666394868"><ele>-1.0</ele><time>2026-03-23T10:19:39.999Z</time></trkpt><trkpt lat="44.968208355963725" lon="11.981367038114202"><ele>-0.9999999999999999</ele><time>2026-03-23T10:19:41.999Z</time></trkpt><trkpt lat="44.968286384861834" lon="11.981297071628608"><ele>-1.0</ele><time>2026-03-23T10:19:43.999Z</time></trkpt><trkpt lat="44.96836377607676" lon="11.981224873416503"><ele>-1.0</ele><time>2026-03-23T10:19:45.999Z</time></trkpt><trkpt lat="44.96843416938693" lon="11.981167546694698"><ele>-1.0</ele><time>2026-03-23T10:19:47.999Z</time></trkpt><trkpt lat="44.968500452938784" lon="11.981106886916198"><ele>-0.9999999999999999</ele><time>2026-03-23T10:19:49.999Z</time></trkpt><trkpt lat="44.96858136491528" lon="11.981038187645238"><ele>-1.0</ele><time>2026-03-23T10:19:51.999Z</time></trkpt><trkpt lat="44.968659558995746" lon="11.98097093474345"><ele>-1.4</ele><time>2026-03-23T10:19:53.999Z</time></trkpt><trkpt lat="44.96873990931056" lon="11.980900179172826"><ele>-1.8</ele><time>2026-03-23T10:19:55.999Z</time></trkpt><trkpt lat="44.96882009671118" lon="11.980830703891659"><ele>-2.1999999999999997</ele><time>2026-03-23T10:19:58Z</time></trkpt><trkpt lat="44.96890068501344" lon="11.980761972780423"><ele>-2.6</ele><time>2026-03-23T10:20:00Z</time></trkpt><trkpt lat="44.96896912662432" lon="11.980675422361426"><ele>-3.0</ele><time>2026-03-23T10:20:02Z</time></trkpt><trkpt lat="44.96904976184289" lon="11.980609953428061"><ele>-3.0</ele><time>2026-03-23T10:20:04Z</time></trkpt><trkpt lat="44.96912036450127" lon="11.980546733842354"><ele>-3.0</ele><time>2026-03-23T10:20:06Z</time></trkpt><trkpt lat="44.96918687073199" lon="11.980487109065823"><ele>-3.0</ele><time>2026-03-23T10:20:08Z</time></trkpt><trkpt lat="44.969263264686575" lon="11.980417022984653"><ele>-3.0</ele><time>2026-03-23T10:20:10Z</time></trkpt><trkpt lat="44.96933766973986" lon="11.980346671110949"><ele>-3.0</ele><time>2026-03-23T10:20:12Z</time></trkpt><trkpt lat="44.96941463369803" lon="11.980275979200117"><ele>-3.0</ele><time>2026-03-23T10:20:14Z</time></trkpt><trkpt lat="44.9694943760747" lon="11.980203256966837"><ele>-3.0</ele><time>2026-03-23T10:20:16Z</time></trkpt><trkpt lat="44.96957281796627" lon="11.980130998593493"><ele>-3.0</ele><time>2026-03-23T10:20:18Z</time></trkpt><trkpt lat="44.969647362467725" lon="11.980062844384664"><ele>-3.0</ele><time>2026-03-23T10:20:20Z</time></trkpt><trkpt lat="44.969711795402155" lon="11.980004297556796"><ele>-3.0</ele><time>2026-03-23T10:20:22Z</time></trkpt><trkpt lat="44.96977433178566" lon="11.979947411031887"><ele>-3.0</ele><time>2026-03-23T10:20:24Z</time></trkpt><trkpt lat="44.9698488403177" lon="11.979879954702746"><ele>-3.0</ele><time>2026-03-23T10:20:26Z</time></trkpt><trkpt lat="44.969925843271504" lon="11.979810946427135"><ele>-2.8333333333333335</ele><time>2026-03-23T10:20:28Z</time></trkpt><trkpt lat="44.97000448428749" lon="11.979740923535358"><ele>-2.6666666666666665</ele><time>2026-03-23T10:20:30Z</time></trkpt><trkpt lat="44.970075716655664" lon="11.979675111198459"><ele>-2.5</ele><time>2026-03-23T10:20:32Z</time></trkpt><trkpt lat="44.970138674141246" lon="11.979624640697633"><ele>-2.333333333333333</ele><time>2026-03-23T10:20:34Z</time></trkpt><trkpt lat="44.97020635994966" lon="11.979559422295253"><ele>-2.1666666666666665</ele><time>2026-03-23T10:20:36Z</time></trkpt><trkpt lat="44.970275057231824" lon="11.979500627821913"><ele>-2.0</ele><time>2026-03-23T10:20:38Z</time></trkpt><trkpt lat="44.97033959884612" lon="11.979445875973243"><ele>-1.9999999999999998</ele><time>2026-03-23T10:20:40Z</time></trkpt><trkpt lat="44.970408080181656" lon="11.979365472569482"><ele>-2.0</ele><time>2026-03-23T10:20:42Z</time></trkpt><trkpt lat="44.97047707069258" lon="11.979310202296173"><ele>-2.0</ele><time>2026-03-23T10:20:44Z</time></trkpt><trkpt lat="44.97054314019293" lon="11.979271015206235"><ele>-2.0</ele><time>2026-03-23T10:20:46Z</time></trkpt><trkpt lat="44.97059368825147" lon="11.979199589056341"><ele>-1.9999999999999998</ele><time>2026-03-23T10:20:48Z</time></trkpt><trkpt lat="44.97065793856083" lon="11.979156935260072"><ele>-2.0</ele><time>2026-03-23T10:20:50Z</time></trkpt><trkpt lat="44.97073097254024" lon="11.97909897826898"><ele>-1.7142857142857142</ele><time>2026-03-23T10:20:52Z</time></trkpt><trkpt lat="44.9707964678627" lon="11.979025459628557"><ele>-1.4285714285714284</ele><time>2026-03-23T10:20:54Z</time></trkpt><trkpt lat="44.97086189528759" lon="11.978969182926885"><ele>-1.1428571428571428</ele><time>2026-03-23T10:20:55.999Z</time></trkpt><trkpt lat="44.97092159719999" lon="11.978908625658399"><ele>-0.8571428571428571</ele><time>2026-03-23T10:20:57.999Z</time></trkpt><trkpt lat="44.970980884053766" lon="11.978858340539231"><ele>-0.5714285714285714</ele><time>2026-03-23T10:20:59.999Z</time></trkpt><trkpt lat="44.97103741783915" lon="11.9787981684114"><ele>-0.2857142857142857</ele><time>2026-03-23T10:21:01.999Z</time></trkpt><trkpt lat="44.971098838221685" lon="11.978756400499051"><ele>0.0</ele><time>2026-03-23T10:21:03.999Z</time></trkpt><trkpt lat="44.971173420091446" lon="11.978687583442582"><ele>0.0</ele><time>2026-03-23T10:21:05.999Z</time></trkpt><trkpt lat="44.971241098688715" lon="11.978627151345416"><ele>0.0</ele><time>2026-03-23T10:21:07.999Z</time></trkpt><trkpt lat="44.9713056025926" lon="11.978567875406402"><ele>0.0</ele><time>2026-03-23T10:21:09.999Z</time></trkpt><trkpt lat="44.97136266515253" lon="11.978509308750423"><ele>0.0</ele><time>2026-03-23T10:21:11.999Z</time></trkpt><trkpt lat="44.971426601670956" lon="11.97846950238052"><ele>0.0</ele><time>2026-03-23T10:21:13.999Z</time></trkpt><trkpt lat="44.971492639001085" lon="11.978403993258508"><ele>0.0</ele><time>2026-03-23T10:21:15.999Z</time></trkpt><trkpt lat="44.97156868110822" lon="11.978333187197673"><ele>0.0</ele><time>2026-03-23T10:21:17.999Z</time></trkpt><trkpt lat="44.9716384663832" lon="11.9782608372106"><ele>0.0</ele><time>2026-03-23T10:21:19.999Z</time></trkpt><trkpt lat="44.97170502569699" lon="11.978203425282542"><ele>0.0</ele><time>2026-03-23T10:21:21.999Z</time></trkpt><trkpt lat="44.97176924632639" lon="11.9781530519644"><ele>0.0</ele><time>2026-03-23T10:21:23.999Z</time></trkpt><trkpt lat="44.971826776789165" lon="11.978094996562202"><ele>0.0</ele><time>2026-03-23T10:21:25.999Z</time></trkpt><trkpt lat="44.9719078543995" lon="11.978054873385432"><ele>0.0</ele><time>2026-03-23T10:21:27.999Z</time></trkpt><trkpt lat="44.97199409099575" lon="11.978016933776455"><ele>-0.2</ele><time>2026-03-23T10:21:29.999Z</time></trkpt><trkpt lat="44.97208254718398" lon="11.97799105732011"><ele>-0.4</ele><time>2026-03-23T10:21:31.999Z</time></trkpt><trkpt lat="44.97217336484954" lon="11.977972539565503"><ele>-0.6000000000000001</ele><time>2026-03-23T10:21:33.999Z</time></trkpt><trkpt lat="44.97226746712686" lon="11.97795111325079"><ele>-0.8</ele><time>2026-03-23T10:21:35.999Z</time></trkpt><trkpt lat="44.97235924025853" lon="11.97792547772364"><ele>-1.0</ele><time>2026-03-23T10:21:37.999Z</time></trkpt><trkpt lat="44.97245123993716" lon="11.977897368680676"><ele>-0.9999999999999999</ele><time>2026-03-23T10:21:39.999Z</time></trkpt><trkpt lat="44.97253963641473" lon="11.977871465455348"><ele>-1.0</ele><time>2026-03-23T10:21:41.999Z</time></trkpt><trkpt lat="44.97262065523719" lon="11.977847269308512"><ele>-1.0</ele><time>2026-03-23T10:21:43.999Z</time></trkpt><trkpt lat="44.972697759154165" lon="11.977834333379722"><ele>-1.0</ele><time>2026-03-23T10:21:45.999Z</time></trkpt><trkpt lat="44.97276761647478" lon="11.977819961879494"><ele>-0.9999999999999999</ele><time>2026-03-23T10:21:47.999Z</time></trkpt><trkpt lat="44.9728380744127" lon="11.977806763159943"><ele>-1.0</ele><time>2026-03-23T10:21:49.999Z</time></trkpt><trkpt lat="44.972921147860205" lon="11.977779529202751"><ele>-0.9999999999999999</ele><time>2026-03-23T10:21:51.999Z</time></trkpt><trkpt lat="44.97299574483434" lon="11.977759268429859"><ele>-1.0</ele><time>2026-03-23T10:21:53.999Z</time></trkpt><trkpt lat="44.97307298114558" lon="11.97773034817981"><ele>-1.0</ele><time>2026-03-23T10:21:55.999Z</time></trkpt><trkpt lat="44.97316019703533" lon="11.977692884263087"><ele>-1.0</ele><time>2026-03-23T10:21:57.999Z</time></trkpt><trkpt lat="44.97324781009099" lon="11.977651838488615"><ele>-0.9999999999999999</ele><time>2026-03-23T10:21:59.999Z</time></trkpt><trkpt lat="44.97333658853046" lon="11.977596342836993"><ele>-1.0</ele><time>2026-03-23T10:22:01.999Z</time></trkpt><trkpt lat="44.97342734753022" lon="11.977550277691458"><ele>-0.9999999999999999</ele><time>2026-03-23T10:22:04Z</time></trkpt><trkpt lat="44.97350996713642" lon="11.977508068324724"><ele>-1.0</ele><time>2026-03-23T10:22:06Z</time></trkpt><trkpt lat="44.973590002930756" lon="11.977466308950069"><ele>-1.0</ele><time>2026-03-23T10:22:08Z</time></trkpt><trkpt lat="44.97366724493096" lon="11.977426646579499"><ele>-1.0</ele><time>2026-03-23T10:22:10Z</time></trkpt><trkpt lat="44.97373757535364" lon="11.977389725040707"><ele>-0.9999999999999999</ele><time>2026-03-23T10:22:12Z</time></trkpt><trkpt lat="44.973808920468855" lon="11.977357038284751"><ele>-1.0</ele><time>2026-03-23T10:22:14Z</time></trkpt><trkpt lat="44.97387313728562" lon="11.977318682082785"><ele>-0.9999999999999999</ele><time>2026-03-23T10:22:16Z</time></trkpt><trkpt lat="44.97393255320388" lon="11.977279934671767"><ele>-1.0</ele><time>2026-03-23T10:22:18Z</time></trkpt><trkpt lat="44.97399797932267" lon="11.97720957013984"><ele>-1.0</ele><time>2026-03-23T10:22:21Z</time></trkpt><trkpt lat="44.97404912589079" lon="11.977156897708387"><ele>-1.0</ele><time>2026-03-23T10:22:24Z</time></trkpt><trkpt lat="44.974136454457714" lon="11.977237464711559"><ele>-0.9999999999999999</ele><time>2026-03-23T10:22:27Z</time></trkpt><trkpt lat="44.974193930042446" lon="11.977328769493043"><ele>-1.0</ele><time>2026-03-23T10:22:29Z</time></trkpt><trkpt lat="44.97424041620079" lon="11.977423499079979"><ele>-0.9999999999999999</ele><time>2026-03-23T10:22:31Z</time></trkpt><trkpt lat="44.97430649799812" lon="11.977494456095798"><ele>-1.0</ele><time>2026-03-23T10:22:33Z</time></trkpt><trkpt lat="44.97437770191542" lon="11.977576117081027"><ele>-1.0</ele><time>2026-03-23T10:22:35Z</time></trkpt><trkpt lat="44.97445289768082" lon="11.977665896967379"><ele>-1.0</ele><time>2026-03-23T10:22:37Z</time></trkpt><trkpt lat="44.97452064451601" lon="11.977749773998392"><ele>-0.9999999999999999</ele><time>2026-03-23T10:22:39Z</time></trkpt><trkpt lat="44.97458568146853" lon="11.97782780463881"><ele>-1.0</ele><time>2026-03-23T10:22:41Z</time></trkpt><trkpt lat="44.97464285494949" lon="11.977902060755977"><ele>-0.9999999999999999</ele><time>2026-03-23T10:22:43Z</time></trkpt><trkpt lat="44.9747011669382" lon="11.977974490226519"><ele>-1.0</ele><time>2026-03-23T10:22:45Z</time></trkpt><trkpt lat="44.97476607706112" lon="11.978046027481062"><ele>-1.0</ele><time>2026-03-23T10:22:47Z</time></trkpt><trkpt lat="44.97483796320047" lon="11.978124385443232"><ele>-1.0</ele><time>2026-03-23T10:22:49Z</time></trkpt><trkpt lat="44.974902470502705" lon="11.978203133190624"><ele>-0.9999999999999999</ele><time>2026-03-23T10:22:51Z</time></trkpt><trkpt lat="44.97496706898871" lon="11.978278205735588"><ele>-1.0</ele><time>2026-03-23T10:22:53Z</time></trkpt><trkpt lat="44.97503833332353" lon="11.978363488210597"><ele>-0.6000000000000001</ele><time>2026-03-23T10:22:55Z</time></trkpt><trkpt lat="44.9751149079969" lon="11.978445924248952"><ele>-0.20000000000000007</ele><time>2026-03-23T10:22:57Z</time></trkpt><trkpt lat="44.975184750525266" lon="11.978540067252496"><ele>0.20000000000000007</ele><time>2026-03-23T10:22:59Z</time></trkpt><trkpt lat="44.9752539563945" lon="11.97861939861987"><ele>0.6000000000000001</ele><time>2026-03-23T10:23:01Z</time></trkpt><trkpt lat="44.975318926211706" lon="11.978705743730345"><ele>1.0</ele><time>2026-03-23T10:23:03Z</time></trkpt><trkpt lat="44.97538546495704" lon="11.978779879442254"><ele>0.9999999999999999</ele><time>2026-03-23T10:23:04.999Z</time></trkpt><trkpt lat="44.97544888738866" lon="11.97884903238447"><ele>1.0</ele><time>2026-03-23T10:23:06.999Z</time></trkpt><trkpt lat="44.97551664567571" lon="11.978931173801787"><ele>1.0</ele><time>2026-03-23T10:23:08.999Z</time></trkpt><trkpt lat="44.97558387372551" lon="11.979021018858111"><ele>1.0</ele><time>2026-03-23T10:23:10.999Z</time></trkpt><trkpt lat="44.97565675565504" lon="11.979102330887374"><ele>0.9999999999999999</ele><time>2026-03-23T10:23:12.999Z</time></trkpt><trkpt lat="44.97572241890097" lon="11.979181123611149"><ele>1.0</ele><time>2026-03-23T10:23:14.999Z</time></trkpt><trkpt lat="44.975781095822505" lon="11.979256073379123"><ele>0.9999999999999999</ele><time>2026-03-23T10:23:16.999Z</time></trkpt><trkpt lat="44.975847042746004" lon="11.979335824912914"><ele>1.0</ele><time>2026-03-23T10:23:18.999Z</time></trkpt><trkpt lat="44.975916074049344" lon="11.97941494402183"><ele>1.0</ele><time>2026-03-23T10:23:20.999Z</time></trkpt><trkpt lat="44.97597772348481" lon="11.979493651638927"><ele>1.0</ele><time>2026-03-23T10:23:22.999Z</time></trkpt><trkpt lat="44.976035810671654" lon="11.979561790152307"><ele>0.9999999999999999</ele><time>2026-03-23T10:23:24.999Z</time></trkpt><trkpt lat="44.976087136789054" lon="11.979626753824446"><ele>1.0</ele><time>2026-03-23T10:23:26.999Z</time></trkpt><trkpt lat="44.97614142002335" lon="11.9796948985379"><ele>0.9999999999999999</ele><time>2026-03-23T10:23:28.999Z</time></trkpt><trkpt lat="44.97620672022233" lon="11.979780267705365"><ele>1.0</ele><time>2026-03-23T10:23:31.999Z</time></trkpt><trkpt lat="44.97627036997817" lon="11.979862060259713"><ele>1.0</ele><time>2026-03-23T10:23:34.999Z</time></trkpt><trkpt lat="44.976325522350116" lon="11.979935484296998"><ele>1.0</ele><time>2026-03-23T10:23:37.999Z</time></trkpt><trkpt lat="44.97637318961615" lon="11.980005168639915"><ele>0.9999999999999999</ele><time>2026-03-23T10:23:39.999Z</time></trkpt><trkpt lat="44.976425747327255" lon="11.980090218188687"><ele>1.0</ele><time>2026-03-23T10:23:41.999Z</time></trkpt><trkpt lat="44.9764730250232" lon="11.980164425818629"><ele>1.0</ele><time>2026-03-23T10:23:43.999Z</time></trkpt><trkpt lat="44.976529425357924" lon="11.98020993081625"><ele>1.0</ele><time>2026-03-23T10:23:54.999Z</time></trkpt><trkpt lat="44.976654140149805" lon="11.98007640661718"><ele>1.0</ele><time>2026-03-23T10:24:00.999Z</time></trkpt><trkpt lat="44.9767144353697" lon="11.979983454344596"><ele>1.0</ele><time>2026-03-23T10:24:03.999Z</time></trkpt><trkpt lat="44.97678014847578" lon="11.979960238568804"><ele>1.0</ele><time>2026-03-23T10:24:05.999Z</time></trkpt><trkpt lat="44.97684924728688" lon="11.979929962282341"><ele>0.9999999999999999</ele><time>2026-03-23T10:24:07.999Z</time></trkpt><trkpt lat="44.97692603864928" lon="11.97990501525366"><ele>1.0</ele><time>2026-03-23T10:24:10Z</time></trkpt><trkpt lat="44.97701463981336" lon="11.979879648450686"><ele>1.0</ele><time>2026-03-23T10:24:12Z</time></trkpt><trkpt lat="44.97709711555941" lon="11.97987466459548"><ele>1.0</ele><time>2026-03-23T10:24:14Z</time></trkpt><trkpt lat="44.977167747184275" lon="11.979833796538466"><ele>0.9999999999999999</ele><time>2026-03-23T10:24:16Z</time></trkpt><trkpt lat="44.977233364121375" lon="11.979818688228347"><ele>1.0</ele><time>2026-03-23T10:24:18Z</time></trkpt><trkpt lat="44.97729855867286" lon="11.979804461637528"><ele>0.9999999999999999</ele><time>2026-03-23T10:24:20Z</time></trkpt><trkpt lat="44.97737021083787" lon="11.979782572712367"><ele>1.0</ele><time>2026-03-23T10:24:22Z</time></trkpt><trkpt lat="44.97744620905691" lon="11.979761309379057"><ele>1.0</ele><time>2026-03-23T10:24:24Z</time></trkpt><trkpt lat="44.97751144260783" lon="11.979740799680526"><ele>1.0</ele><time>2026-03-23T10:24:26Z</time></trkpt><trkpt lat="44.977608048662695" lon="11.979713814750694"><ele>0.9999999999999999</ele><time>2026-03-23T10:24:29Z</time></trkpt><trkpt lat="44.97769321097809" lon="11.97970621864678"><ele>1.0</ele><time>2026-03-23T10:24:31Z</time></trkpt><trkpt lat="44.97776568414467" lon="11.979666924113761"><ele>1.1666666666666665</ele><time>2026-03-23T10:24:33Z</time></trkpt><trkpt lat="44.97785793613033" lon="11.97963899939535"><ele>1.3333333333333333</ele><time>2026-03-23T10:24:36Z</time></trkpt><trkpt lat="44.97796495342166" lon="11.979681189105879"><ele>1.5</ele><time>2026-03-23T10:24:39Z</time></trkpt><trkpt lat="44.97802993222465" lon="11.979642761736692"><ele>1.6666666666666665</ele><time>2026-03-23T10:24:42Z</time></trkpt><trkpt lat="44.978099627223415" lon="11.979610693398069"><ele>1.8333333333333333</ele><time>2026-03-23T10:24:44Z</time></trkpt><trkpt lat="44.97816025298757" lon="11.97955742570358"><ele>2.0</ele><time>2026-03-23T10:24:46Z</time></trkpt><trkpt lat="44.97822875700482" lon="11.979526663149366"><ele>1.9999999999999998</ele><time>2026-03-23T10:24:48Z</time></trkpt><trkpt lat="44.978290540820105" lon="11.97949567674467"><ele>2.0</ele><time>2026-03-23T10:24:50Z</time></trkpt><trkpt lat="44.978353662315925" lon="11.979506628111062"><ele>2.0</ele><time>2026-03-23T10:24:52Z</time></trkpt><trkpt lat="44.978433691679314" lon="11.97952175465321"><ele>2.0</ele><time>2026-03-23T10:24:55Z</time></trkpt><trkpt lat="44.97852600774468" lon="11.979542708924265"><ele>1.9999999999999998</ele><time>2026-03-23T10:24:58Z</time></trkpt><trkpt lat="44.978613453567306" lon="11.979521403978056"><ele>2.0</ele><time>2026-03-23T10:25:00Z</time></trkpt><trkpt lat="44.978704924337464" lon="11.979545488686888"><ele>1.9999999999999998</ele><time>2026-03-23T10:25:02Z</time></trkpt><trkpt lat="44.97879091681223" lon="11.979538361355607"><ele>2.0</ele><time>2026-03-23T10:25:04Z</time></trkpt><trkpt lat="44.97887353259611" lon="11.979543991534053"><ele>2.0</ele><time>2026-03-23T10:25:05.999Z</time></trkpt><trkpt lat="44.97895976336668" lon="11.979552291859886"><ele>2.0</ele><time>2026-03-23T10:25:07.999Z</time></trkpt><trkpt lat="44.97903036699988" lon="11.979576173022336"><ele>1.9999999999999998</ele><time>2026-03-23T10:25:09.999Z</time></trkpt><trkpt lat="44.97912485847108" lon="11.979568343267148"><ele>2.0</ele><time>2026-03-23T10:25:11.999Z</time></trkpt><trkpt lat="44.97920269258227" lon="11.979586856498576"><ele>1.9999999999999998</ele><time>2026-03-23T10:25:13.999Z</time></trkpt><trkpt lat="44.979280610240984" lon="11.979588143497939"><ele>2.0</ele><time>2026-03-23T10:25:15.999Z</time></trkpt><trkpt lat="44.979363781177234" lon="11.979595376096515"><ele>2.0</ele><time>2026-03-23T10:25:17.999Z</time></trkpt><trkpt lat="44.979449633701016" lon="11.979601100057836"><ele>2.0</ele><time>2026-03-23T10:25:19.999Z</time></trkpt><trkpt lat="44.97952337598811" lon="11.979610630889578"><ele>1.9999999999999998</ele><time>2026-03-23T10:25:21.999Z</time></trkpt><trkpt lat="44.979592057080524" lon="11.979613452262708"><ele>2.0</ele><time>2026-03-23T10:25:23.999Z</time></trkpt><trkpt lat="44.979679836225074" lon="11.97962788217733"><ele>1.9999999999999998</ele><time>2026-03-23T10:25:26.999Z</time></trkpt><trkpt lat="44.97976302653135" lon="11.979654166554731"><ele>2.0</ele><time>2026-03-23T10:25:29.999Z</time></trkpt><trkpt lat="44.97984476638593" lon="11.979680319768995"><ele>2.0</ele><time>2026-03-23T10:25:32.999Z</time></trkpt><trkpt lat="44.97992790089761" lon="11.979700771923424"><ele>2.0</ele><time>2026-03-23T10:25:35.999Z</time></trkpt><trkpt lat="44.97993797107797" lon="11.979562759511836"><ele>1.9999999999999998</ele><time>2026-03-23T10:25:36.999Z</time></trkpt><trkpt lat="44.979974316757925" lon="11.979475679142773"><ele>2.0</ele><time>2026-03-23T10:25:38.999Z</time></trkpt><trkpt lat="44.980008831647524" lon="11.979397547343018"><ele>1.857142857142857</ele><time>2026-03-23T10:25:40.999Z</time></trkpt><trkpt lat="44.98004651940916" lon="11.979312233106155"><ele>1.714285714285714</ele><time>2026-03-23T10:25:42.999Z</time></trkpt><trkpt lat="44.98008685497583" lon="11.979220926071504"><ele>1.5714285714285714</ele><time>2026-03-23T10:25:44.999Z</time></trkpt><trkpt lat="44.98013952100502" lon="11.979148513372449"><ele>1.4285714285714284</ele><time>2026-03-23T10:25:46.999Z</time></trkpt><trkpt lat="44.980168938033565" lon="11.979046180953409"><ele>1.2857142857142856</ele><time>2026-03-23T10:25:48.999Z</time></trkpt><trkpt lat="44.98021993146264" lon="11.978972285309927"><ele>1.1428571428571428</ele><time>2026-03-23T10:25:50.999Z</time></trkpt><trkpt lat="44.98025777091866" lon="11.978886031905068"><ele>1.0</ele><time>2026-03-23T10:25:52.999Z</time></trkpt><trkpt lat="44.98029450972016" lon="11.978803869320055"><ele>1.0</ele><time>2026-03-23T10:25:54.999Z</time></trkpt><trkpt lat="44.980344273863906" lon="11.978724495307269"><ele>1.0</ele><time>2026-03-23T10:25:56.999Z</time></trkpt><trkpt lat="44.980390327676616" lon="11.978630921997334"><ele>1.0</ele><time>2026-03-23T10:25:58.999Z</time></trkpt><trkpt lat="44.98046638616809" lon="11.978434152837995"><ele>1.0</ele><time>2026-03-23T10:26:02.999Z</time></trkpt><trkpt lat="44.980499136225234" lon="11.97832410559013"><ele>1.0</ele><time>2026-03-23T10:26:04.999Z</time></trkpt><trkpt lat="44.98053091225957" lon="11.978209115733764"><ele>0.9999999999999999</ele><time>2026-03-23T10:26:06.999Z</time></trkpt><trkpt lat="44.98055165030631" lon="11.978098055750422"><ele>1.0</ele><time>2026-03-23T10:26:08.999Z</time></trkpt><trkpt lat="44.980574072873985" lon="11.977996452547032"><ele>1.0</ele><time>2026-03-23T10:26:10.999Z</time></trkpt><trkpt lat="44.98061459169779" lon="11.97789017801927"><ele>1.0</ele><time>2026-03-23T10:26:12.999Z</time></trkpt><trkpt lat="44.98063086216644" lon="11.977785261403582"><ele>0.9999999999999999</ele><time>2026-03-23T10:26:14.999Z</time></trkpt><trkpt lat="44.98066173610082" lon="11.977701228009789"><ele>1.0</ele><time>2026-03-23T10:26:19Z</time></trkpt><trkpt lat="44.98068986296011" lon="11.977586100125167"><ele>1.1666666666666665</ele><time>2026-03-23T10:26:23Z</time></trkpt><trkpt lat="44.98071509276661" lon="11.977485116604319"><ele>1.3333333333333333</ele><time>2026-03-23T10:26:25Z</time></trkpt><trkpt lat="44.98074426004829" lon="11.977385423000468"><ele>1.5</ele><time>2026-03-23T10:26:27Z</time></trkpt><trkpt lat="44.98076456980503" lon="11.97727783303491"><ele>1.6666666666666665</ele><time>2026-03-23T10:26:29Z</time></trkpt><trkpt lat="44.98079295163554" lon="11.977167032178446"><ele>1.8333333333333333</ele><time>2026-03-23T10:26:31Z</time></trkpt><trkpt lat="44.980820914352115" lon="11.977041584040771"><ele>2.0</ele><time>2026-03-23T10:26:33Z</time></trkpt><trkpt lat="44.98084155212876" lon="11.976923491140445"><ele>1.6666666666666665</ele><time>2026-03-23T10:26:35Z</time></trkpt><trkpt lat="44.98087275604319" lon="11.976825807528273"><ele>1.3333333333333333</ele><time>2026-03-23T10:26:37Z</time></trkpt><trkpt lat="44.98089981849791" lon="11.976726643242273"><ele>1.0</ele><time>2026-03-23T10:26:39Z</time></trkpt><trkpt lat="44.98092146715782" lon="11.976613753835977"><ele>0.6666666666666666</ele><time>2026-03-23T10:26:41Z</time></trkpt><trkpt lat="44.980965143083026" lon="11.976519328941215"><ele>0.3333333333333333</ele><time>2026-03-23T10:26:43Z</time></trkpt><trkpt lat="44.98097769920256" lon="11.976412287045934"><ele>0.0</ele><time>2026-03-23T10:26:45Z</time></trkpt><trkpt lat="44.98102229144914" lon="11.97631229899901"><ele>0.0</ele><time>2026-03-23T10:26:47Z</time></trkpt><trkpt lat="44.98104993303087" lon="11.97621206380015"><ele>0.0</ele><time>2026-03-23T10:26:49Z</time></trkpt><trkpt lat="44.98107887947455" lon="11.976107097023077"><ele>0.0</ele><time>2026-03-23T10:26:51Z</time></trkpt><trkpt lat="44.981110897852645" lon="11.975990990622957"><ele>0.0</ele><time>2026-03-23T10:26:53Z</time></trkpt><trkpt lat="44.981133902875" lon="11.975863827794122"><ele>0.0</ele><time>2026-03-23T10:26:55Z</time></trkpt><trkpt lat="44.98116366694305" lon="11.97575893033567"><ele>0.0</ele><time>2026-03-23T10:26:57Z</time></trkpt><trkpt lat="44.98119780707688" lon="11.975661462592102"><ele>0.16666666666666666</ele><time>2026-03-23T10:26:59Z</time></trkpt><trkpt lat="44.981230659907574" lon="11.975570650177971"><ele>0.3333333333333333</ele><time>2026-03-23T10:27:01Z</time></trkpt><trkpt lat="44.98125856541719" lon="11.975474761149115"><ele>0.5</ele><time>2026-03-23T10:27:03Z</time></trkpt><trkpt lat="44.98128478664483" lon="11.97534865492162"><ele>0.6666666666666666</ele><time>2026-03-23T10:27:05Z</time></trkpt><trkpt lat="44.98131417401257" lon="11.975233265312738"><ele>0.8333333333333333</ele><time>2026-03-23T10:27:07Z</time></trkpt><trkpt lat="44.98134286664682" lon="11.975121863404178"><ele>1.0</ele><time>2026-03-23T10:27:09Z</time></trkpt><trkpt lat="44.981376259358825" lon="11.975020056404535"><ele>0.9999999999999999</ele><time>2026-03-23T10:27:11Z</time></trkpt><trkpt lat="44.9814029993751" lon="11.974920829408427"><ele>1.0</ele><time>2026-03-23T10:27:13Z</time></trkpt><trkpt lat="44.981428825599735" lon="11.974810014849261"><ele>1.0</ele><time>2026-03-23T10:27:15Z</time></trkpt><trkpt lat="44.981460524933965" lon="11.974691098230757"><ele>1.0</ele><time>2026-03-23T10:27:17Z</time></trkpt><trkpt lat="44.981487461640235" lon="11.974589027181104"><ele>0.9999999999999999</ele><time>2026-03-23T10:27:19Z</time></trkpt><trkpt lat="44.98151611608016" lon="11.97449838006"><ele>1.0</ele><time>2026-03-23T10:27:21Z</time></trkpt><trkpt lat="44.981559879768895" lon="11.97443123443279"><ele>1.5</ele><time>2026-03-23T10:27:22.999Z</time></trkpt><trkpt lat="44.98170454674026" lon="11.974424791450073"><ele>2.0</ele><time>2026-03-23T10:27:27.999Z</time></trkpt><trkpt lat="44.98173682598892" lon="11.974505040014456"><ele>2.5</ele><time>2026-03-23T10:27:29.999Z</time></trkpt><trkpt lat="44.98175942617689" lon="11.97464706523723"><ele>3.0</ele><time>2026-03-23T10:27:32.999Z</time></trkpt><trkpt lat="44.981791142139215" lon="11.974726564552142"><ele>3.4999999999999996</ele><time>2026-03-23T10:27:35.999Z</time></trkpt><trkpt lat="44.98181934787952" lon="11.974812649502388"><ele>4.0</ele><time>2026-03-23T10:27:37.999Z</time></trkpt><trkpt lat="44.981841411415694" lon="11.97491422135057"><ele>4.0</ele><time>2026-03-23T10:27:39.999Z</time></trkpt><trkpt lat="44.98188539656179" lon="11.975001665333192"><ele>3.9999999999999996</ele><time>2026-03-23T10:27:41.999Z</time></trkpt><trkpt lat="44.98192407019942" lon="11.975094152480239"><ele>4.0</ele><time>2026-03-23T10:27:43.999Z</time></trkpt><trkpt lat="44.98193684635921" lon="11.97519545038349"><ele>4.0</ele><time>2026-03-23T10:27:45.999Z</time></trkpt><trkpt lat="44.981972917730246" lon="11.97528211094983"><ele>3.9999999999999996</ele><time>2026-03-23T10:27:47.999Z</time></trkpt><trkpt lat="44.98200771283362" lon="11.975368549520683"><ele>4.0</ele><time>2026-03-23T10:27:49.999Z</time></trkpt><trkpt lat="44.98201663070986" lon="11.975459286655614"><ele>4.0</ele><time>2026-03-23T10:27:51.999Z</time></trkpt><trkpt lat="44.98205563269939" lon="11.975555428628576"><ele>3.9999999999999996</ele><time>2026-03-23T10:27:54.999Z</time></trkpt><trkpt lat="44.982093776757694" lon="11.975646942898692"><ele>4.0</ele><time>2026-03-23T10:27:57.999Z</time></trkpt><trkpt lat="44.98212736181566" lon="11.975495021080867"><ele>4.0</ele><time>2026-03-23T10:28:01.999Z</time></trkpt><trkpt lat="44.9821338520192" lon="11.97539741780827"><ele>4.0</ele><time>2026-03-23T10:28:04.999Z</time></trkpt><trkpt lat="44.98215058049015" lon="11.975286746559249"><ele>3.9999999999999996</ele><time>2026-03-23T10:28:07.999Z</time></trkpt><trkpt lat="44.98216839249807" lon="11.975201135108739"><ele>4.0</ele><time>2026-03-23T10:28:09.999Z</time></trkpt><trkpt lat="44.98223879531228" lon="11.975117505025294"><ele>3.9999999999999996</ele><time>2026-03-23T10:28:12.999Z</time></trkpt><trkpt lat="44.982314828234024" lon="11.97504905029287"><ele>4.0</ele><time>2026-03-23T10:28:15.999Z</time></trkpt><trkpt lat="44.98237760643061" lon="11.974976868362349"><ele>4.0</ele><time>2026-03-23T10:28:17.999Z</time></trkpt><trkpt lat="44.98244482940054" lon="11.974930001393847"><ele>4.0</ele><time>2026-03-23T10:28:19.999Z</time></trkpt><trkpt lat="44.982510502767454" lon="11.974897504713303"><ele>3.9999999999999996</ele><time>2026-03-23T10:28:22Z</time></trkpt><trkpt lat="44.98259784971847" lon="11.974865201165896"><ele>4.0</ele><time>2026-03-23T10:28:25Z</time></trkpt><trkpt lat="44.982679649436804" lon="11.97484830828715"><ele>3.8571428571428568</ele><time>2026-03-23T10:28:28Z</time></trkpt><trkpt lat="44.98274850599697" lon="11.974824302356835"><ele>3.714285714285714</ele><time>2026-03-23T10:28:30Z</time></trkpt><trkpt lat="44.98282706274655" lon="11.974781183316567"><ele>3.571428571428571</ele><time>2026-03-23T10:28:32Z</time></trkpt><trkpt lat="44.98289790049671" lon="11.974761666813581"><ele>3.4285714285714284</ele><time>2026-03-23T10:28:34Z</time></trkpt><trkpt lat="44.98296498158731" lon="11.974745110136581"><ele>3.2857142857142856</ele><time>2026-03-23T10:28:36Z</time></trkpt><trkpt lat="44.98302960444893" lon="11.974722654606369"><ele>3.1428571428571423</ele><time>2026-03-23T10:28:38Z</time></trkpt><trkpt lat="44.983108533694455" lon="11.974688458614006"><ele>3.0</ele><time>2026-03-23T10:28:40Z</time></trkpt><trkpt lat="44.983186762978804" lon="11.974671217674425"><ele>3.0</ele><time>2026-03-23T10:28:42Z</time></trkpt><trkpt lat="44.983258285268874" lon="11.974651860560918"><ele>3.0</ele><time>2026-03-23T10:28:44Z</time></trkpt><trkpt lat="44.983325192507756" lon="11.974635791642052"><ele>3.0</ele><time>2026-03-23T10:28:46Z</time></trkpt><trkpt lat="44.98339135906368" lon="11.974627506667208"><ele>3.0</ele><time>2026-03-23T10:28:48Z</time></trkpt><trkpt lat="44.98347759403514" lon="11.974598820626788"><ele>3.0</ele><time>2026-03-23T10:28:50Z</time></trkpt><trkpt lat="44.98355678368741" lon="11.974580864599387"><ele>3.0</ele><time>2026-03-23T10:28:52Z</time></trkpt><trkpt lat="44.983630302954666" lon="11.97455969847605"><ele>2.8571428571428568</ele><time>2026-03-23T10:28:54Z</time></trkpt><trkpt lat="44.98369878469046" lon="11.97452637193535"><ele>2.7142857142857144</ele><time>2026-03-23T10:28:56Z</time></trkpt><trkpt lat="44.98375855705382" lon="11.974486214302493"><ele>2.571428571428571</ele><time>2026-03-23T10:28:58Z</time></trkpt><trkpt lat="44.983817693366525" lon="11.974444458072671"><ele>2.4285714285714284</ele><time>2026-03-23T10:29:00Z</time></trkpt><trkpt lat="44.9838557258444" lon="11.974340856335784"><ele>2.2857142857142856</ele><time>2026-03-23T10:29:02Z</time></trkpt><trkpt lat="44.98388257778036" lon="11.97422623752653"><ele>2.142857142857143</ele><time>2026-03-23T10:29:04Z</time></trkpt><trkpt lat="44.98390556389419" lon="11.974127564359835"><ele>2.0</ele><time>2026-03-23T10:29:06Z</time></trkpt><trkpt lat="44.98393058393515" lon="11.974019070075872"><ele>2.5</ele><time>2026-03-23T10:29:08Z</time></trkpt><trkpt lat="44.98395757200811" lon="11.97389301634538"><ele>3.0</ele><time>2026-03-23T10:29:10Z</time></trkpt><trkpt lat="44.98398175005637" lon="11.97377630144815"><ele>3.5</ele><time>2026-03-23T10:29:12Z</time></trkpt><trkpt lat="44.98399111798168" lon="11.97365796934409"><ele>4.0</ele><time>2026-03-23T10:29:14Z</time></trkpt><trkpt lat="44.984012946090566" lon="11.97354648021636"><ele>4.5</ele><time>2026-03-23T10:29:16Z</time></trkpt><trkpt lat="44.98404113206006" lon="11.973428026950458"><ele>5.0</ele><time>2026-03-23T10:29:17.999Z</time></trkpt><trkpt lat="44.98407884776822" lon="11.973307580813822"><ele>5.333333333333334</ele><time>2026-03-23T10:29:19.999Z</time></trkpt><trkpt lat="44.984092702237476" lon="11.973186153315952"><ele>5.666666666666667</ele><time>2026-03-23T10:29:21.999Z</time></trkpt><trkpt lat="44.98411444794531" lon="11.973075455512582"><ele>6.0</ele><time>2026-03-23T10:29:23.999Z</time></trkpt><trkpt lat="44.98413541085445" lon="11.972971520531583"><ele>6.333333333333334</ele><time>2026-03-23T10:29:25.999Z</time></trkpt><trkpt lat="44.98415524413943" lon="11.972860645024094"><ele>6.666666666666667</ele><time>2026-03-23T10:29:27.999Z</time></trkpt><trkpt lat="44.98418275667997" lon="11.972756655701705"><ele>7.0</ele><time>2026-03-23T10:29:29.999Z</time></trkpt><trkpt lat="44.984204292792846" lon="11.972656611668834"><ele>6.000000000000001</ele><time>2026-03-23T10:29:31.999Z</time></trkpt><trkpt lat="44.98422293299884" lon="11.972563159156786"><ele>5.0</ele><time>2026-03-23T10:29:33.999Z</time></trkpt><trkpt lat="44.98423791065539" lon="11.972472362668478"><ele>4.0</ele><time>2026-03-23T10:29:35.999Z</time></trkpt><trkpt lat="44.98427305988474" lon="11.972379180333036"><ele>3.0</ele><time>2026-03-23T10:29:37.999Z</time></trkpt><trkpt lat="44.984287769521735" lon="11.972253020274186"><ele>2.0</ele><time>2026-03-23T10:29:39.999Z</time></trkpt><trkpt lat="44.98432366560918" lon="11.972129117455701"><ele>1.0</ele><time>2026-03-23T10:29:41.999Z</time></trkpt><trkpt lat="44.98435201159068" lon="11.972005011127274"><ele>0.9999999999999999</ele><time>2026-03-23T10:29:43.999Z</time></trkpt><trkpt lat="44.98437351699956" lon="11.971880029160967"><ele>1.0</ele><time>2026-03-23T10:29:45.999Z</time></trkpt><trkpt lat="44.984396500925435" lon="11.9717640655267"><ele>1.0</ele><time>2026-03-23T10:29:47.999Z</time></trkpt><trkpt lat="44.98441711510654" lon="11.971651792268782"><ele>1.0</ele><time>2026-03-23T10:29:49.999Z</time></trkpt><trkpt lat="44.98444350764687" lon="11.971534572596024"><ele>0.9999999999999999</ele><time>2026-03-23T10:29:51.999Z</time></trkpt><trkpt lat="44.98446980362679" lon="11.971407366031722"><ele>1.0</ele><time>2026-03-23T10:29:53.999Z</time></trkpt><trkpt lat="44.984496285938874" lon="11.97128092102472"><ele>1.2000000000000002</ele><time>2026-03-23T10:29:55.999Z</time></trkpt><trkpt lat="44.98452962594346" lon="11.971156641475618"><ele>1.4000000000000001</ele><time>2026-03-23T10:29:57.999Z</time></trkpt><trkpt lat="44.98455247924329" lon="11.971025339149968"><ele>1.6</ele><time>2026-03-23T10:29:59.999Z</time></trkpt><trkpt lat="44.98456828127221" lon="11.970896498956431"><ele>1.8</ele><time>2026-03-23T10:30:01.999Z</time></trkpt><trkpt lat="44.98458466229808" lon="11.970767948148675"><ele>2.0</ele><time>2026-03-23T10:30:03.999Z</time></trkpt><trkpt lat="44.98460093612665" lon="11.970644923906782"><ele>1.9999999999999998</ele><time>2026-03-23T10:30:05.999Z</time></trkpt><trkpt lat="44.98462404134664" lon="11.970517316422677"><ele>2.0</ele><time>2026-03-23T10:30:07.999Z</time></trkpt><trkpt lat="44.984641627510136" lon="11.970392341707798"><ele>2.0</ele><time>2026-03-23T10:30:09.999Z</time></trkpt><trkpt lat="44.98466012521733" lon="11.970281015093143"><ele>2.0</ele><time>2026-03-23T10:30:11.999Z</time></trkpt><trkpt lat="44.9846708573832" lon="11.970169616011878"><ele>1.9999999999999998</ele><time>2026-03-23T10:30:13.999Z</time></trkpt><trkpt lat="44.984679726852264" lon="11.970066936054593"><ele>2.0</ele><time>2026-03-23T10:30:15.999Z</time></trkpt><trkpt lat="44.984692518778324" lon="11.969968265535265"><ele>1.8333333333333333</ele><time>2026-03-23T10:30:17.999Z</time></trkpt><trkpt lat="44.98471078870709" lon="11.969842918899158"><ele>1.6666666666666665</ele><time>2026-03-23T10:30:19.999Z</time></trkpt><trkpt lat="44.9847254827757" lon="11.969728052132456"><ele>1.5</ele><time>2026-03-23T10:30:21.999Z</time></trkpt><trkpt lat="44.984734239162826" lon="11.969617398518954"><ele>1.3333333333333333</ele><time>2026-03-23T10:30:23.999Z</time></trkpt><trkpt lat="44.984746147132405" lon="11.969517421664463"><ele>1.1666666666666665</ele><time>2026-03-23T10:30:25.999Z</time></trkpt><trkpt lat="44.984754305227305" lon="11.969412379829407"><ele>1.0</ele><time>2026-03-23T10:30:28Z</time></trkpt><trkpt lat="44.98476653799352" lon="11.969291843008646"><ele>0.8333333333333333</ele><time>2026-03-23T10:30:30Z</time></trkpt><trkpt lat="44.98477728959554" lon="11.969169355650399"><ele>0.6666666666666666</ele><time>2026-03-23T10:30:32Z</time></trkpt><trkpt lat="44.98479461165572" lon="11.96905351068395"><ele>0.5</ele><time>2026-03-23T10:30:34Z</time></trkpt><trkpt lat="44.984800158091176" lon="11.96894785868293"><ele>0.3333333333333333</ele><time>2026-03-23T10:30:36Z</time></trkpt><trkpt lat="44.98481264330443" lon="11.968833312257914"><ele>0.16666666666666666</ele><time>2026-03-23T10:30:38Z</time></trkpt><trkpt lat="44.984829478525135" lon="11.968704384266003"><ele>0.0</ele><time>2026-03-23T10:30:40Z</time></trkpt><trkpt lat="44.984836822138405" lon="11.968580390938238"><ele>0.0</ele><time>2026-03-23T10:30:42Z</time></trkpt><trkpt lat="44.98484792933538" lon="11.968466619144555"><ele>0.0</ele><time>2026-03-23T10:30:44Z</time></trkpt><trkpt lat="44.98485802702661" lon="11.968357297985412"><ele>0.0</ele><time>2026-03-23T10:30:46Z</time></trkpt><trkpt lat="44.98486840823962" lon="11.968249443839728"><ele>0.0</ele><time>2026-03-23T10:30:48Z</time></trkpt><trkpt lat="44.984876850317214" lon="11.96813058769635"><ele>0.0</ele><time>2026-03-23T10:30:50Z</time></trkpt><trkpt lat="44.984889854227134" lon="11.968002614348956"><ele>0.0</ele><time>2026-03-23T10:30:52Z</time></trkpt><trkpt lat="44.98490008527495" lon="11.967870188259411"><ele>0.2</ele><time>2026-03-23T10:30:54Z</time></trkpt><trkpt lat="44.98490598832649" lon="11.967739043761833"><ele>0.4</ele><time>2026-03-23T10:30:56Z</time></trkpt><trkpt lat="44.98491401095573" lon="11.967602798116054"><ele>0.6000000000000001</ele><time>2026-03-23T10:30:58Z</time></trkpt><trkpt lat="44.98491560267967" lon="11.967473005391629"><ele>0.8</ele><time>2026-03-23T10:31:00Z</time></trkpt><trkpt lat="44.984921045311395" lon="11.96735124454535"><ele>1.0</ele><time>2026-03-23T10:31:02Z</time></trkpt><trkpt lat="44.98492633715125" lon="11.967234090318806"><ele>0.9999999999999999</ele><time>2026-03-23T10:31:04Z</time></trkpt><trkpt lat="44.98492555996509" lon="11.967117529408663"><ele>1.0</ele><time>2026-03-23T10:31:06Z</time></trkpt><trkpt lat="44.984932040760384" lon="11.96699697413077"><ele>1.0</ele><time>2026-03-23T10:31:08Z</time></trkpt><trkpt lat="44.98493463406529" lon="11.96687313319196"><ele>1.0</ele><time>2026-03-23T10:31:10Z</time></trkpt><trkpt lat="44.98494068834378" lon="11.966754868433078"><ele>0.9999999999999999</ele><time>2026-03-23T10:31:12Z</time></trkpt><trkpt lat="44.98494516063081" lon="11.966630422714907"><ele>1.0</ele><time>2026-03-23T10:31:14Z</time></trkpt><trkpt lat="44.984949687963955" lon="11.966496390873225"><ele>1.4</ele><time>2026-03-23T10:31:16Z</time></trkpt><trkpt lat="44.984951831187786" lon="11.966363214952857"><ele>1.8</ele><time>2026-03-23T10:31:18Z</time></trkpt><trkpt lat="44.984956313464416" lon="11.966227734890337"><ele>2.1999999999999997</ele><time>2026-03-23T10:31:20Z</time></trkpt><trkpt lat="44.98496101700427" lon="11.966094432242276"><ele>2.6</ele><time>2026-03-23T10:31:22Z</time></trkpt><trkpt lat="44.984964725639166" lon="11.965961649694629"><ele>3.0</ele><time>2026-03-23T10:31:24Z</time></trkpt><trkpt lat="44.98496564395079" lon="11.965827808260327"><ele>3.0</ele><time>2026-03-23T10:31:26Z</time></trkpt><trkpt lat="44.98496784170061" lon="11.965692888956298"><ele>3.0</ele><time>2026-03-23T10:31:28Z</time></trkpt><trkpt lat="44.984975474900764" lon="11.965560825730103"><ele>3.0</ele><time>2026-03-23T10:31:30Z</time></trkpt><trkpt lat="44.9849776733284" lon="11.965423990986235"><ele>3.0</ele><time>2026-03-23T10:31:31.999Z</time></trkpt><trkpt lat="44.98497710604754" lon="11.96529305686689"><ele>3.0</ele><time>2026-03-23T10:31:33.999Z</time></trkpt><trkpt lat="44.984982868047986" lon="11.965158587340827"><ele>2.8</ele><time>2026-03-23T10:31:35.999Z</time></trkpt><trkpt lat="44.98498718098396" lon="11.965024556653535"><ele>2.5999999999999996</ele><time>2026-03-23T10:31:37.999Z</time></trkpt><trkpt lat="44.98499251467922" lon="11.964888199624676"><ele>2.4000000000000004</ele><time>2026-03-23T10:31:39.999Z</time></trkpt><trkpt lat="44.9849896765704" lon="11.964753634325627"><ele>2.2</ele><time>2026-03-23T10:31:41.999Z</time></trkpt><trkpt lat="44.9849960136684" lon="11.964619117479375"><ele>2.0</ele><time>2026-03-23T10:31:43.999Z</time></trkpt><trkpt lat="44.98500117210292" lon="11.96448184240162"><ele>2.0</ele><time>2026-03-23T10:31:45.999Z</time></trkpt><trkpt lat="44.985003412674324" lon="11.96434788323217"><ele>2.0</ele><time>2026-03-23T10:31:47.999Z</time></trkpt><trkpt lat="44.98500092068089" lon="11.964213577350518"><ele>2.0</ele><time>2026-03-23T10:31:49.999Z</time></trkpt><trkpt lat="44.98499561368336" lon="11.96407702935003"><ele>2.0</ele><time>2026-03-23T10:31:51.999Z</time></trkpt><trkpt lat="44.98498315410732" lon="11.96393781093625"><ele>2.0</ele><time>2026-03-23T10:31:53.999Z</time></trkpt><trkpt lat="44.98496544697226" lon="11.963798829698078"><ele>1.8333333333333333</ele><time>2026-03-23T10:31:55.999Z</time></trkpt><trkpt lat="44.98494607871273" lon="11.963677691783005"><ele>1.6666666666666665</ele><time>2026-03-23T10:31:57.999Z</time></trkpt><trkpt lat="44.98492755130736" lon="11.963558387727092"><ele>1.5</ele><time>2026-03-23T10:31:59.999Z</time></trkpt><trkpt lat="44.98491307446318" lon="11.963445071563493"><ele>1.3333333333333333</ele><time>2026-03-23T10:32:01.999Z</time></trkpt><trkpt lat="44.98489281126749" lon="11.963327611856172"><ele>1.1666666666666665</ele><time>2026-03-23T10:32:03.999Z</time></trkpt><trkpt lat="44.98486817617375" lon="11.963198659595092"><ele>1.0</ele><time>2026-03-23T10:32:05.999Z</time></trkpt><trkpt lat="44.984846453786346" lon="11.963067526367638"><ele>1.0</ele><time>2026-03-23T10:32:07.999Z</time></trkpt><trkpt lat="44.98482551191401" lon="11.962935299909692"><ele>1.0</ele><time>2026-03-23T10:32:09.999Z</time></trkpt><trkpt lat="44.98480550254021" lon="11.962804397712958"><ele>1.0</ele><time>2026-03-23T10:32:11.999Z</time></trkpt><trkpt lat="44.98478632376328" lon="11.962673882583474"><ele>1.0</ele><time>2026-03-23T10:32:13.999Z</time></trkpt><trkpt lat="44.98476157193773" lon="11.96254844735587"><ele>1.0</ele><time>2026-03-23T10:32:15.999Z</time></trkpt><trkpt lat="44.98474336466604" lon="11.962416932592491"><ele>1.0</ele><time>2026-03-23T10:32:17.999Z</time></trkpt><trkpt lat="44.98472032273028" lon="11.962282350057077"><ele>1.0</ele><time>2026-03-23T10:32:19.999Z</time></trkpt><trkpt lat="44.98469999740546" lon="11.962152435801427"><ele>1.0</ele><time>2026-03-23T10:32:21.999Z</time></trkpt><trkpt lat="44.9846796042262" lon="11.962021528018553"><ele>1.0</ele><time>2026-03-23T10:32:23.999Z</time></trkpt><trkpt lat="44.984656245455746" lon="11.96189942852508"><ele>1.0</ele><time>2026-03-23T10:32:25.999Z</time></trkpt><trkpt lat="44.98463913953743" lon="11.961782276447222"><ele>1.1666666666666665</ele><time>2026-03-23T10:32:27.999Z</time></trkpt><trkpt lat="44.98462799040055" lon="11.961664236605852"><ele>1.3333333333333333</ele><time>2026-03-23T10:32:29.999Z</time></trkpt><trkpt lat="44.98460689671433" lon="11.961534136020987"><ele>1.5</ele><time>2026-03-23T10:32:31.999Z</time></trkpt><trkpt lat="44.9846009551323" lon="11.961404175477718"><ele>1.6666666666666665</ele><time>2026-03-23T10:32:34Z</time></trkpt><trkpt lat="44.98458744226617" lon="11.961283386895253"><ele>1.8333333333333333</ele><time>2026-03-23T10:32:36Z</time></trkpt><trkpt lat="44.98457613118179" lon="11.961171142357621"><ele>2.0</ele><time>2026-03-23T10:32:38Z</time></trkpt><trkpt lat="44.984560063837804" lon="11.961063905166084"><ele>1.9999999999999998</ele><time>2026-03-23T10:32:40Z</time></trkpt><trkpt lat="44.984552968909625" lon="11.960954642804433"><ele>2.0</ele><time>2026-03-23T10:32:42Z</time></trkpt><trkpt lat="44.98453796016658" lon="11.960848431626106"><ele>2.0</ele><time>2026-03-23T10:32:44Z</time></trkpt><trkpt lat="44.984520256982364" lon="11.960718405782652"><ele>2.0</ele><time>2026-03-23T10:32:46Z</time></trkpt><trkpt lat="44.98450887747516" lon="11.960596995461868"><ele>1.9999999999999998</ele><time>2026-03-23T10:32:48Z</time></trkpt><trkpt lat="44.984494935849234" lon="11.960483760244779"><ele>2.0</ele><time>2026-03-23T10:32:50Z</time></trkpt><trkpt lat="44.98448615097275" lon="11.960368659490255"><ele>1.9999999999999998</ele><time>2026-03-23T10:32:52Z</time></trkpt><trkpt lat="44.98447355002964" lon="11.960267382890843"><ele>2.0</ele><time>2026-03-23T10:32:54Z</time></trkpt><trkpt lat="44.984464591480275" lon="11.960168721334057"><ele>2.0</ele><time>2026-03-23T10:32:56Z</time></trkpt><trkpt lat="44.98445009872036" lon="11.960074540172995"><ele>2.0</ele><time>2026-03-23T10:32:58Z</time></trkpt><trkpt lat="44.98442701109867" lon="11.959954398472071"><ele>1.9999999999999998</ele><time>2026-03-23T10:33:00Z</time></trkpt><trkpt lat="44.98440783394605" lon="11.95983905720685"><ele>2.0</ele><time>2026-03-23T10:33:02Z</time></trkpt><trkpt lat="44.98437617781446" lon="11.959728354525973"><ele>1.8333333333333333</ele><time>2026-03-23T10:33:04Z</time></trkpt><trkpt lat="44.98430120434207" lon="11.959653521777486"><ele>1.6666666666666665</ele><time>2026-03-23T10:33:06Z</time></trkpt><trkpt lat="44.98422203003184" lon="11.95963127057136"><ele>1.5</ele><time>2026-03-23T10:33:08Z</time></trkpt><trkpt lat="44.98413965388923" lon="11.959585324342251"><ele>1.3333333333333333</ele><time>2026-03-23T10:33:10Z</time></trkpt><trkpt lat="44.984049337134365" lon="11.959550380317177"><ele>1.1666666666666665</ele><time>2026-03-23T10:33:12Z</time></trkpt><trkpt lat="44.98396513038157" lon="11.95951880696265"><ele>1.0</ele><time>2026-03-23T10:33:14Z</time></trkpt><trkpt lat="44.983884992717925" lon="11.959482708802003"><ele>1.5</ele><time>2026-03-23T10:33:16Z</time></trkpt><trkpt lat="44.9838053591909" lon="11.959450671214828"><ele>2.0</ele><time>2026-03-23T10:33:18Z</time></trkpt><trkpt lat="44.983722274077024" lon="11.959423827317762"><ele>2.5</ele><time>2026-03-23T10:33:20Z</time></trkpt><trkpt lat="44.983641633753926" lon="11.959391586118274"><ele>3.0</ele><time>2026-03-23T10:33:22Z</time></trkpt><trkpt lat="44.983567123421786" lon="11.959355646626804"><ele>3.4999999999999996</ele><time>2026-03-23T10:33:24Z</time></trkpt><trkpt lat="44.98349359554294" lon="11.959301131764464"><ele>4.0</ele><time>2026-03-23T10:33:26Z</time></trkpt><trkpt lat="44.98343387073587" lon="11.959216553432096"><ele>4.166666666666666</ele><time>2026-03-23T10:33:28Z</time></trkpt><trkpt lat="44.98340369191939" lon="11.959109897430967"><ele>4.333333333333333</ele><time>2026-03-23T10:33:30Z</time></trkpt><trkpt lat="44.98338961433923" lon="11.959000198304908"><ele>4.5</ele><time>2026-03-23T10:33:32Z</time></trkpt><trkpt lat="44.983380242425355" lon="11.958897084878755"><ele>4.666666666666667</ele><time>2026-03-23T10:33:34Z</time></trkpt><trkpt lat="44.98338301277273" lon="11.95877208000234"><ele>4.833333333333334</ele><time>2026-03-23T10:33:36Z</time></trkpt><trkpt lat="44.98339183321794" lon="11.958640530085848"><ele>5.0</ele><time>2026-03-23T10:33:38Z</time></trkpt><trkpt lat="44.98339691375303" lon="11.958522406746647"><ele>5.0</ele><time>2026-03-23T10:33:40Z</time></trkpt><trkpt lat="44.983418983476035" lon="11.958411917238616"><ele>5.0</ele><time>2026-03-23T10:33:42Z</time></trkpt><trkpt lat="44.983439517726104" lon="11.95829754615119"><ele>5.0</ele><time>2026-03-23T10:33:44Z</time></trkpt><trkpt lat="44.98346549330459" lon="11.958175167479986"><ele>5.0</ele><time>2026-03-23T10:33:46Z</time></trkpt><trkpt lat="44.98349934482567" lon="11.958065182325598"><ele>5.0</ele><time>2026-03-23T10:33:48Z</time></trkpt><trkpt lat="44.98352705633742" lon="11.95794769653847"><ele>5.0</ele><time>2026-03-23T10:33:49.999Z</time></trkpt><trkpt lat="44.98355694778424" lon="11.957837443692998"><ele>4.833333333333334</ele><time>2026-03-23T10:33:51.999Z</time></trkpt><trkpt lat="44.98358250431283" lon="11.957732846137011"><ele>4.666666666666667</ele><time>2026-03-23T10:33:53.999Z</time></trkpt><trkpt lat="44.98360694084937" lon="11.957627446760636"><ele>4.5</ele><time>2026-03-23T10:33:55.999Z</time></trkpt><trkpt lat="44.98363061619511" lon="11.957508027559108"><ele>4.333333333333333</ele><time>2026-03-23T10:33:57.999Z</time></trkpt><trkpt lat="44.98365404572761" lon="11.957393772739431"><ele>4.166666666666666</ele><time>2026-03-23T10:33:59.999Z</time></trkpt><trkpt lat="44.98367416421375" lon="11.957289561237019"><ele>4.0</ele><time>2026-03-23T10:34:01.999Z</time></trkpt><trkpt lat="44.983674473739875" lon="11.957183619567353"><ele>4.0</ele><time>2026-03-23T10:34:03.999Z</time></trkpt><trkpt lat="44.983673476268734" lon="11.957083895625226"><ele>3.9999999999999996</ele><time>2026-03-23T10:34:05.999Z</time></trkpt><trkpt lat="44.98365136676636" lon="11.956974907462603"><ele>4.0</ele><time>2026-03-23T10:34:07.999Z</time></trkpt><trkpt lat="44.983627180061205" lon="11.956867671668583"><ele>4.0</ele><time>2026-03-23T10:34:09.999Z</time></trkpt><trkpt lat="44.983594892837864" lon="11.956768049712876"><ele>3.9999999999999996</ele><time>2026-03-23T10:34:11.999Z</time></trkpt><trkpt lat="44.98356889743651" lon="11.956672596986442"><ele>4.0</ele><time>2026-03-23T10:34:13.999Z</time></trkpt><trkpt lat="44.98354507505717" lon="11.956582047324003"><ele>4.0</ele><time>2026-03-23T10:34:15.999Z</time></trkpt><trkpt lat="44.983513356729325" lon="11.956490511782032"><ele>3.9999999999999996</ele><time>2026-03-23T10:34:17.999Z</time></trkpt><trkpt lat="44.98347920515899" lon="11.956370260417076"><ele>4.0</ele><time>2026-03-23T10:34:19.999Z</time></trkpt><trkpt lat="44.983447037602424" lon="11.956264170664618"><ele>4.0</ele><time>2026-03-23T10:34:21.999Z</time></trkpt><trkpt lat="44.98341585916669" lon="11.956156604184823"><ele>4.0</ele><time>2026-03-23T10:34:23.999Z</time></trkpt><trkpt lat="44.983394424932115" lon="11.956051048454212"><ele>3.9999999999999996</ele><time>2026-03-23T10:34:25.999Z</time></trkpt><trkpt lat="44.98336011628232" lon="11.95594852652745"><ele>4.0</ele><time>2026-03-23T10:34:27.999Z</time></trkpt><trkpt lat="44.983324933353984" lon="11.955839292608184"><ele>3.9999999999999996</ele><time>2026-03-23T10:34:29.999Z</time></trkpt><trkpt lat="44.98329476292151" lon="11.955728518495564"><ele>4.0</ele><time>2026-03-23T10:34:31.999Z</time></trkpt><trkpt lat="44.98323849559323" lon="11.955621296186479"><ele>4.0</ele><time>2026-03-23T10:34:33.999Z</time></trkpt><trkpt lat="44.98318241202485" lon="11.955517443972504"><ele>4.0</ele><time>2026-03-23T10:34:35.999Z</time></trkpt><trkpt lat="44.98309431367186" lon="11.955482597226672"><ele>3.9999999999999996</ele><time>2026-03-23T10:34:37.999Z</time></trkpt><trkpt lat="44.98301650934663" lon="11.955438462671477"><ele>4.0</ele><time>2026-03-23T10:34:40Z</time></trkpt><trkpt lat="44.98293764261167" lon="11.955405145476384"><ele>3.9999999999999996</ele><time>2026-03-23T10:34:42Z</time></trkpt><trkpt lat="44.98285770141094" lon="11.955369243926661"><ele>4.0</ele><time>2026-03-23T10:34:44Z</time></trkpt><trkpt lat="44.98277160888111" lon="11.955326536018818"><ele>4.0</ele><time>2026-03-23T10:34:46Z</time></trkpt><trkpt lat="44.98269423803323" lon="11.955279246275808"><ele>4.0</ele><time>2026-03-23T10:34:48Z</time></trkpt><trkpt lat="44.98261426276584" lon="11.955243467077668"><ele>3.9999999999999996</ele><time>2026-03-23T10:34:50Z</time></trkpt><trkpt lat="44.982537120549914" lon="11.955208938393309"><ele>4.0</ele><time>2026-03-23T10:34:52Z</time></trkpt><trkpt lat="44.98246413879458" lon="11.955170516154366"><ele>3.9999999999999996</ele><time>2026-03-23T10:34:54Z</time></trkpt><trkpt lat="44.982394525751914" lon="11.95513639807423"><ele>4.0</ele><time>2026-03-23T10:34:56Z</time></trkpt><trkpt lat="44.98231774494096" lon="11.955089466702098"><ele>4.0</ele><time>2026-03-23T10:34:58Z</time></trkpt><trkpt lat="44.98224203069969" lon="11.95502851048161"><ele>4.0</ele><time>2026-03-23T10:35:00Z</time></trkpt><trkpt lat="44.98218163023787" lon="11.95495263475632"><ele>3.9999999999999996</ele><time>2026-03-23T10:35:02Z</time></trkpt><trkpt lat="44.98213411689724" lon="11.954859396513571"><ele>4.0</ele><time>2026-03-23T10:35:04Z</time></trkpt><trkpt lat="44.9821157814119" lon="11.954743735812162"><ele>3.9999999999999996</ele><time>2026-03-23T10:35:06Z</time></trkpt><trkpt lat="44.982113830554226" lon="11.954631913627534"><ele>4.0</ele><time>2026-03-23T10:35:08Z</time></trkpt><trkpt lat="44.98212413077823" lon="11.954527832252214"><ele>4.0</ele><time>2026-03-23T10:35:10Z</time></trkpt><trkpt lat="44.98213986676569" lon="11.954414544450822"><ele>4.0</ele><time>2026-03-23T10:35:12Z</time></trkpt><trkpt lat="44.982151294343495" lon="11.954297376193692"><ele>3.9999999999999996</ele><time>2026-03-23T10:35:14Z</time></trkpt><trkpt lat="44.9821835835415" lon="11.954201413882899"><ele>4.0</ele><time>2026-03-23T10:35:16Z</time></trkpt><trkpt lat="44.982189994580274" lon="11.954100170603937"><ele>3.9999999999999996</ele><time>2026-03-23T10:35:18Z</time></trkpt><trkpt lat="44.982208301053745" lon="11.953982339918864"><ele>4.0</ele><time>2026-03-23T10:35:20Z</time></trkpt><trkpt lat="44.98222870951571" lon="11.953868119286508"><ele>4.0</ele><time>2026-03-23T10:35:22Z</time></trkpt><trkpt lat="44.98224482202841" lon="11.953758019485008"><ele>4.0</ele><time>2026-03-23T10:35:24Z</time></trkpt><trkpt lat="44.982268239886714" lon="11.953641470991293"><ele>3.9999999999999996</ele><time>2026-03-23T10:35:26Z</time></trkpt><trkpt lat="44.98228701200618" lon="11.953519845963163"><ele>4.0</ele><time>2026-03-23T10:35:28Z</time></trkpt><trkpt lat="44.982305999009704" lon="11.953411607210638"><ele>3.9999999999999996</ele><time>2026-03-23T10:35:30Z</time></trkpt><trkpt lat="44.982322572547375" lon="11.953309227004977"><ele>4.0</ele><time>2026-03-23T10:35:32Z</time></trkpt><trkpt lat="44.98233920987978" lon="11.953210778239358"><ele>4.0</ele><time>2026-03-23T10:35:34Z</time></trkpt><trkpt lat="44.98235074181995" lon="11.953114750281182"><ele>4.0</ele><time>2026-03-23T10:35:36Z</time></trkpt><trkpt lat="44.98236201964042" lon="11.952999317249338"><ele>3.9999999999999996</ele><time>2026-03-23T10:35:38Z</time></trkpt><trkpt lat="44.98235971839081" lon="11.952884998052312"><ele>4.0</ele><time>2026-03-23T10:35:40Z</time></trkpt><trkpt lat="44.98236090870156" lon="11.952779367287654"><ele>3.9999999999999996</ele><time>2026-03-23T10:35:42Z</time></trkpt><trkpt lat="44.982347659703784" lon="11.952683921744624"><ele>4.0</ele><time>2026-03-23T10:35:44Z</time></trkpt><trkpt lat="44.98231993890789" lon="11.952599618928026"><ele>4.0</ele><time>2026-03-23T10:35:46Z</time></trkpt><trkpt lat="44.98227467713528" lon="11.952504349948919"><ele>4.0</ele><time>2026-03-23T10:35:48Z</time></trkpt><trkpt lat="44.98223214561151" lon="11.95240762988184"><ele>3.9999999999999996</ele><time>2026-03-23T10:35:50Z</time></trkpt><trkpt lat="44.982178094292635" lon="11.952324291673262"><ele>4.0</ele><time>2026-03-23T10:35:51.999Z</time></trkpt><trkpt lat="44.98211835733721" lon="11.952235317317164"><ele>3.4000000000000004</ele><time>2026-03-23T10:35:53.999Z</time></trkpt><trkpt lat="44.982063350280804" lon="11.952128244031861"><ele>2.8000000000000003</ele><time>2026-03-23T10:35:55.999Z</time></trkpt><trkpt lat="44.98200063667567" lon="11.952031668650758"><ele>2.2</ele><time>2026-03-23T10:35:57.999Z</time></trkpt><trkpt lat="44.98194152161294" lon="11.951935497699733"><ele>1.6</ele><time>2026-03-23T10:35:59.999Z</time></trkpt><trkpt lat="44.98188097208086" lon="11.95185145597599"><ele>1.0</ele><time>2026-03-23T10:36:01.999Z</time></trkpt><trkpt lat="44.98182636424064" lon="11.95174481393102"><ele>0.8333333333333333</ele><time>2026-03-23T10:36:03.999Z</time></trkpt><trkpt lat="44.981768300058484" lon="11.951642882084954"><ele>0.6666666666666666</ele><time>2026-03-23T10:36:05.999Z</time></trkpt><trkpt lat="44.981707459306215" lon="11.951545160346337"><ele>0.5</ele><time>2026-03-23T10:36:07.999Z</time></trkpt><trkpt lat="44.98165251194002" lon="11.951447377473455"><ele>0.3333333333333333</ele><time>2026-03-23T10:36:09.999Z</time></trkpt><trkpt lat="44.98159495647064" lon="11.951359781547124"><ele>0.16666666666666666</ele><time>2026-03-23T10:36:11.999Z</time></trkpt><trkpt lat="44.98154179331751" lon="11.951269088009767"><ele>0.0</ele><time>2026-03-23T10:36:13.999Z</time></trkpt><trkpt lat="44.981479774793286" lon="11.9511705807643"><ele>0.4</ele><time>2026-03-23T10:36:15.999Z</time></trkpt><trkpt lat="44.98141789738395" lon="11.951072407303915"><ele>0.8</ele><time>2026-03-23T10:36:17.999Z</time></trkpt><trkpt lat="44.98136214335722" lon="11.950971391969631"><ele>1.2000000000000002</ele><time>2026-03-23T10:36:19.999Z</time></trkpt><trkpt lat="44.98130222258837" lon="11.950879725215858"><ele>1.6</ele><time>2026-03-23T10:36:21.999Z</time></trkpt><trkpt lat="44.981247902895994" lon="11.950774462947143"><ele>2.0</ele><time>2026-03-23T10:36:23.999Z</time></trkpt><trkpt lat="44.981190636125355" lon="11.950672488661985"><ele>1.9999999999999998</ele><time>2026-03-23T10:36:25.999Z</time></trkpt><trkpt lat="44.98112836948333" lon="11.950579630402112"><ele>2.0</ele><time>2026-03-23T10:36:27.999Z</time></trkpt><trkpt lat="44.98107334813746" lon="11.950486398822543"><ele>2.0</ele><time>2026-03-23T10:36:29.999Z</time></trkpt><trkpt lat="44.981020343349165" lon="11.950401627855067"><ele>2.0</ele><time>2026-03-23T10:36:31.999Z</time></trkpt><trkpt lat="44.98097151187818" lon="11.950310631332789"><ele>1.9999999999999998</ele><time>2026-03-23T10:36:33.999Z</time></trkpt><trkpt lat="44.98091007270552" lon="11.95021822095535"><ele>2.0</ele><time>2026-03-23T10:36:35.999Z</time></trkpt><trkpt lat="44.98085215144405" lon="11.950114766623065"><ele>2.0</ele><time>2026-03-23T10:36:37.999Z</time></trkpt><trkpt lat="44.98078848453873" lon="11.950013490746262"><ele>2.0</ele><time>2026-03-23T10:36:39.999Z</time></trkpt><trkpt lat="44.980725969940195" lon="11.949907075645669"><ele>2.0</ele><time>2026-03-23T10:36:41.999Z</time></trkpt><trkpt lat="44.980656843808454" lon="11.949792484990313"><ele>2.0</ele><time>2026-03-23T10:36:43.999Z</time></trkpt><trkpt lat="44.980602984986824" lon="11.949688153144418"><ele>2.0</ele><time>2026-03-23T10:36:46Z</time></trkpt><trkpt lat="44.980547913401224" lon="11.949586421523227"><ele>1.9999999999999998</ele><time>2026-03-23T10:36:48Z</time></trkpt><trkpt lat="44.98049430112322" lon="11.949488170361976"><ele>2.0</ele><time>2026-03-23T10:36:50Z</time></trkpt><trkpt lat="44.980448751275844" lon="11.949395043865106"><ele>2.0</ele><time>2026-03-23T10:36:52Z</time></trkpt><trkpt lat="44.98039989687417" lon="11.949310203409029"><ele>2.0</ele><time>2026-03-23T10:36:54Z</time></trkpt><trkpt lat="44.98034722357038" lon="11.949214379348595"><ele>1.9999999999999998</ele><time>2026-03-23T10:36:56Z</time></trkpt><trkpt lat="44.980291494304595" lon="11.949110731184415"><ele>2.0</ele><time>2026-03-23T10:36:58Z</time></trkpt><trkpt lat="44.980238466129" lon="11.94901199807669"><ele>1.8333333333333333</ele><time>2026-03-23T10:37:00Z</time></trkpt><trkpt lat="44.980191136939716" lon="11.948916550381991"><ele>1.6666666666666665</ele><time>2026-03-23T10:37:02Z</time></trkpt><trkpt lat="44.98014280175615" lon="11.948822915779095"><ele>1.5</ele><time>2026-03-23T10:37:04Z</time></trkpt><trkpt lat="44.9800873128492" lon="11.948729719041937"><ele>1.3333333333333333</ele><time>2026-03-23T10:37:06Z</time></trkpt><trkpt lat="44.98004042042329" lon="11.948634959728436"><ele>1.1666666666666665</ele><time>2026-03-23T10:37:08Z</time></trkpt><trkpt lat="44.979991102935216" lon="11.94854289777798"><ele>1.0</ele><time>2026-03-23T10:37:10Z</time></trkpt><trkpt lat="44.979946839586056" lon="11.948441672291773"><ele>1.1666666666666665</ele><time>2026-03-23T10:37:12Z</time></trkpt><trkpt lat="44.97988933822237" lon="11.948343586147127"><ele>1.3333333333333333</ele><time>2026-03-23T10:37:14Z</time></trkpt><trkpt lat="44.9798415110494" lon="11.948246100303614"><ele>1.5</ele><time>2026-03-23T10:37:16Z</time></trkpt><trkpt lat="44.979795587600975" lon="11.94815504642854"><ele>1.6666666666666665</ele><time>2026-03-23T10:37:18Z</time></trkpt><trkpt lat="44.979740225230124" lon="11.948055783384847"><ele>1.8333333333333333</ele><time>2026-03-23T10:37:20Z</time></trkpt><trkpt lat="44.97968827406084" lon="11.947949461988564"><ele>2.0</ele><time>2026-03-23T10:37:22Z</time></trkpt><trkpt lat="44.97963366662717" lon="11.947848330988684"><ele>1.9999999999999998</ele><time>2026-03-23T10:37:24Z</time></trkpt><trkpt lat="44.979577624436764" lon="11.947756772604171"><ele>2.0</ele><time>2026-03-23T10:37:26Z</time></trkpt><trkpt lat="44.97952692199678" lon="11.94766454450685"><ele>2.0</ele><time>2026-03-23T10:37:28Z</time></trkpt><trkpt lat="44.97947008230803" lon="11.947559042972813"><ele>2.0</ele><time>2026-03-23T10:37:30Z</time></trkpt><trkpt lat="44.97941883118339" lon="11.947444686574878"><ele>1.9999999999999998</ele><time>2026-03-23T10:37:32Z</time></trkpt><trkpt lat="44.97935737645821" lon="11.947351763820802"><ele>2.0</ele><time>2026-03-23T10:37:34Z</time></trkpt><trkpt lat="44.979311774495145" lon="11.947253238772134"><ele>1.8333333333333333</ele><time>2026-03-23T10:37:36Z</time></trkpt><trkpt lat="44.97926393388259" lon="11.947169231984855"><ele>1.6666666666666665</ele><time>2026-03-23T10:37:38Z</time></trkpt><trkpt lat="44.97922122272277" lon="11.947082675010934"><ele>1.5</ele><time>2026-03-23T10:37:40Z</time></trkpt><trkpt lat="44.97917664388631" lon="11.94700411011626"><ele>1.3333333333333333</ele><time>2026-03-23T10:37:42Z</time></trkpt><trkpt lat="44.97913913318638" lon="11.946922018824422"><ele>1.1666666666666665</ele><time>2026-03-23T10:37:44Z</time></trkpt><trkpt lat="44.979087896174946" lon="11.946835016216966"><ele>1.0</ele><time>2026-03-23T10:37:45.999Z</time></trkpt><trkpt lat="44.97904412484611" lon="11.946743368513497"><ele>1.1666666666666665</ele><time>2026-03-23T10:37:47.999Z</time></trkpt><trkpt lat="44.97899649443232" lon="11.946656066682495"><ele>1.3333333333333333</ele><time>2026-03-23T10:37:49.999Z</time></trkpt><trkpt lat="44.97894941556818" lon="11.94658665307117"><ele>1.5</ele><time>2026-03-23T10:37:51.999Z</time></trkpt><trkpt lat="44.97890077921853" lon="11.946492663982859"><ele>1.6666666666666665</ele><time>2026-03-23T10:37:53.999Z</time></trkpt><trkpt lat="44.97884529782489" lon="11.946384572095349"><ele>1.8333333333333333</ele><time>2026-03-23T10:37:55.999Z</time></trkpt><trkpt lat="44.97879305113162" lon="11.946283475050677"><ele>2.0</ele><time>2026-03-23T10:37:57.999Z</time></trkpt><trkpt lat="44.97874864931347" lon="11.946179609638172"><ele>1.9999999999999998</ele><time>2026-03-23T10:37:59.999Z</time></trkpt><trkpt lat="44.97869710632698" lon="11.946088565545653"><ele>2.0</ele><time>2026-03-23T10:38:01.999Z</time></trkpt><trkpt lat="44.978647938535" lon="11.94599769668674"><ele>2.0</ele><time>2026-03-23T10:38:03.999Z</time></trkpt><trkpt lat="44.978597497190165" lon="11.945913992168471"><ele>2.0</ele><time>2026-03-23T10:38:05.999Z</time></trkpt><trkpt lat="44.97856154570926" lon="11.945829848920875"><ele>1.9999999999999998</ele><time>2026-03-23T10:38:07.999Z</time></trkpt><trkpt lat="44.978516900576494" lon="11.945755440761735"><ele>2.0</ele><time>2026-03-23T10:38:09.999Z</time></trkpt><trkpt lat="44.97846251373528" lon="11.945650044438684"><ele>1.9999999999999998</ele><time>2026-03-23T10:38:12.999Z</time></trkpt><trkpt lat="44.97841177624656" lon="11.945547471342575"><ele>2.0</ele><time>2026-03-23T10:38:15.999Z</time></trkpt><trkpt lat="44.97836741332804" lon="11.945448241137978"><ele>2.0</ele><time>2026-03-23T10:40:45.999Z</time></trkpt><trkpt lat="44.97831683267668" lon="11.945386483134644"><ele>2.0</ele><time>2026-03-23T10:40:47.999Z</time></trkpt><trkpt lat="44.97827512442662" lon="11.94529871873167"><ele>1.9999999999999998</ele><time>2026-03-23T10:40:49.999Z</time></trkpt><trkpt lat="44.97822138950879" lon="11.945204374195152"><ele>2.0</ele><time>2026-03-23T10:40:51.999Z</time></trkpt><trkpt lat="44.978170633328396" lon="11.94509759609284"><ele>2.0</ele><time>2026-03-23T10:40:53.999Z</time></trkpt><trkpt lat="44.97811457242444" lon="11.944990644363173"><ele>2.0</ele><time>2026-03-23T10:40:55.999Z</time></trkpt><trkpt lat="44.97805843076808" lon="11.944882878009865"><ele>2.0</ele><time>2026-03-23T10:40:58Z</time></trkpt><trkpt lat="44.97799918739213" lon="11.94477416132095"><ele>2.0</ele><time>2026-03-23T10:41:00Z</time></trkpt><trkpt lat="44.97794374710981" lon="11.944668927966168"><ele>2.0</ele><time>2026-03-23T10:41:02Z</time></trkpt><trkpt lat="44.97788771428477" lon="11.944561425975351"><ele>2.0</ele><time>2026-03-23T10:41:04Z</time></trkpt><trkpt lat="44.977833702469226" lon="11.944449688486339"><ele>2.0</ele><time>2026-03-23T10:41:06Z</time></trkpt><trkpt lat="44.97777867685858" lon="11.944342448580954"><ele>2.0</ele><time>2026-03-23T10:41:08Z</time></trkpt><trkpt lat="44.97772521364476" lon="11.944232872449877"><ele>2.0</ele><time>2026-03-23T10:41:10Z</time></trkpt><trkpt lat="44.97766308545744" lon="11.944129026610264"><ele>2.0</ele><time>2026-03-23T10:41:12Z</time></trkpt><trkpt lat="44.97760666642917" lon="11.944016747257836"><ele>1.8</ele><time>2026-03-23T10:41:14Z</time></trkpt><trkpt lat="44.97755182445957" lon="11.94391019826622"><ele>1.6</ele><time>2026-03-23T10:41:16Z</time></trkpt><trkpt lat="44.97750118493847" lon="11.943795816026325"><ele>1.4000000000000001</ele><time>2026-03-23T10:41:18Z</time></trkpt><trkpt lat="44.97744594503701" lon="11.94368956023085"><ele>1.2000000000000002</ele><time>2026-03-23T10:41:20Z</time></trkpt><trkpt lat="44.97738691572695" lon="11.943580029528274"><ele>1.0</ele><time>2026-03-23T10:41:22Z</time></trkpt><trkpt lat="44.97734302319907" lon="11.943458600175527"><ele>1.0</ele><time>2026-03-23T10:41:24Z</time></trkpt><trkpt lat="44.97727786118047" lon="11.94336699653263"><ele>1.0</ele><time>2026-03-23T10:41:26Z</time></trkpt><trkpt lat="44.977225476551254" lon="11.943262525555363"><ele>1.0</ele><time>2026-03-23T10:41:28Z</time></trkpt><trkpt lat="44.97717800389299" lon="11.94316018992731"><ele>1.0</ele><time>2026-03-23T10:41:30Z</time></trkpt><trkpt lat="44.977126754099665" lon="11.943047759470376"><ele>1.0</ele><time>2026-03-23T10:41:32Z</time></trkpt><trkpt lat="44.97707291887903" lon="11.942930626253238"><ele>1.0</ele><time>2026-03-23T10:41:34Z</time></trkpt><trkpt lat="44.97702871352763" lon="11.942806211762779"><ele>1.0</ele><time>2026-03-23T10:41:36Z</time></trkpt><trkpt lat="44.97697166829652" lon="11.942698284198803"><ele>1.0</ele><time>2026-03-23T10:41:38Z</time></trkpt><trkpt lat="44.97691621151553" lon="11.942585246655058"><ele>1.0</ele><time>2026-03-23T10:41:40Z</time></trkpt><trkpt lat="44.976863054365175" lon="11.942468380353551"><ele>1.0</ele><time>2026-03-23T10:41:42Z</time></trkpt><trkpt lat="44.97681910973197" lon="11.942348316606518"><ele>0.8</ele><time>2026-03-23T10:41:44Z</time></trkpt><trkpt lat="44.97676994074921" lon="11.942242517379496"><ele>0.6000000000000001</ele><time>2026-03-23T10:41:46Z</time></trkpt><trkpt lat="44.97671771151158" lon="11.942123294216703"><ele>0.4</ele><time>2026-03-23T10:41:48Z</time></trkpt><trkpt lat="44.976670534787594" lon="11.942009930452533"><ele>0.2</ele><time>2026-03-23T10:41:50Z</time></trkpt><trkpt lat="44.97662187942657" lon="11.941896123896885"><ele>0.0</ele><time>2026-03-23T10:41:52Z</time></trkpt><trkpt lat="44.9765761986514" lon="11.941781950249267"><ele>0.16666666666666666</ele><time>2026-03-23T10:41:54Z</time></trkpt><trkpt lat="44.97653000097348" lon="11.94166986305122"><ele>0.3333333333333333</ele><time>2026-03-23T10:41:56Z</time></trkpt><trkpt lat="44.976488851055386" lon="11.941561283773451"><ele>0.5</ele><time>2026-03-23T10:41:58Z</time></trkpt><trkpt lat="44.976444725132794" lon="11.941457843178533"><ele>0.6666666666666666</ele><time>2026-03-23T10:41:59.999Z</time></trkpt><trkpt lat="44.97641705379699" lon="11.941342389649606"><ele>0.8333333333333333</ele><time>2026-03-23T10:42:01.999Z</time></trkpt><trkpt lat="44.97636154240626" lon="11.941247968307763"><ele>1.0</ele><time>2026-03-23T10:42:03.999Z</time></trkpt><trkpt lat="44.97633546766382" lon="11.941136853021064"><ele>0.9999999999999999</ele><time>2026-03-23T10:42:05.999Z</time></trkpt><trkpt lat="44.9762963486923" lon="11.941038302446339"><ele>1.0</ele><time>2026-03-23T10:42:07.999Z</time></trkpt><trkpt lat="44.976259035265436" lon="11.940944299963189"><ele>1.0</ele><time>2026-03-23T10:42:09.999Z</time></trkpt><trkpt lat="44.976224130249115" lon="11.94085636530002"><ele>1.0</ele><time>2026-03-23T10:42:11.999Z</time></trkpt><trkpt lat="44.976190233583196" lon="11.940770970823325"><ele>0.9999999999999999</ele><time>2026-03-23T10:42:13.999Z</time></trkpt><trkpt lat="44.97614980732604" lon="11.940669565671191"><ele>1.0</ele><time>2026-03-23T10:42:15.999Z</time></trkpt><trkpt lat="44.97610902438243" lon="11.94056775593575"><ele>0.8333333333333333</ele><time>2026-03-23T10:42:17.999Z</time></trkpt><trkpt lat="44.97606735327744" lon="11.940463727814702"><ele>0.6666666666666666</ele><time>2026-03-23T10:42:19.999Z</time></trkpt><trkpt lat="44.97602781775383" lon="11.940365200110705"><ele>0.5</ele><time>2026-03-23T10:42:21.999Z</time></trkpt><trkpt lat="44.97598674351441" lon="11.940265393018855"><ele>0.3333333333333333</ele><time>2026-03-23T10:42:23.999Z</time></trkpt><trkpt lat="44.97594026173567" lon="11.940155064997631"><ele>0.16666666666666666</ele><time>2026-03-23T10:42:25.999Z</time></trkpt><trkpt lat="44.97589466608881" lon="11.940048783849127"><ele>0.0</ele><time>2026-03-23T10:42:27.999Z</time></trkpt><trkpt lat="44.97584988030722" lon="11.939944390188463"><ele>0.3333333333333333</ele><time>2026-03-23T10:42:29.999Z</time></trkpt><trkpt lat="44.97580550810448" lon="11.939840960977204"><ele>0.6666666666666666</ele><time>2026-03-23T10:42:31.999Z</time></trkpt><trkpt lat="44.975764702411055" lon="11.93974156895916"><ele>1.0</ele><time>2026-03-23T10:42:33.999Z</time></trkpt><trkpt lat="44.97571065098229" lon="11.93965565168148"><ele>1.3333333333333333</ele><time>2026-03-23T10:42:35.999Z</time></trkpt><trkpt lat="44.97568593613448" lon="11.939544933127145"><ele>1.6666666666666665</ele><time>2026-03-23T10:42:37.999Z</time></trkpt><trkpt lat="44.97564353335683" lon="11.939435780994483"><ele>2.0</ele><time>2026-03-23T10:42:39.999Z</time></trkpt><trkpt lat="44.97560074218908" lon="11.939319608267484"><ele>2.0</ele><time>2026-03-23T10:42:41.999Z</time></trkpt><trkpt lat="44.9755576816008" lon="11.939199059436518"><ele>2.0</ele><time>2026-03-23T10:42:43.999Z</time></trkpt><trkpt lat="44.97551549182001" lon="11.939080424922622"><ele>2.0</ele><time>2026-03-23T10:42:45.999Z</time></trkpt><trkpt lat="44.97547477059729" lon="11.938961906952763"><ele>2.0</ele><time>2026-03-23T10:42:47.999Z</time></trkpt><trkpt lat="44.97543538448175" lon="11.938847380621045"><ele>2.0</ele><time>2026-03-23T10:42:49.999Z</time></trkpt><trkpt lat="44.975397127155055" lon="11.938734245883946"><ele>2.0</ele><time>2026-03-23T10:42:51.999Z</time></trkpt><trkpt lat="44.975356877273015" lon="11.938615098817573"><ele>2.0</ele><time>2026-03-23T10:42:53.999Z</time></trkpt><trkpt lat="44.97531511643297" lon="11.938491478770507"><ele>2.0</ele><time>2026-03-23T10:42:55.999Z</time></trkpt><trkpt lat="44.97527630481586" lon="11.938376589144983"><ele>2.0</ele><time>2026-03-23T10:42:57.999Z</time></trkpt><trkpt lat="44.975236805152015" lon="11.938258274990833"><ele>2.0</ele><time>2026-03-23T10:42:59.999Z</time></trkpt><trkpt lat="44.97520069546938" lon="11.938149430172945"><ele>1.8333333333333333</ele><time>2026-03-23T10:43:01.999Z</time></trkpt><trkpt lat="44.975165349450606" lon="11.93804288710048"><ele>1.6666666666666665</ele><time>2026-03-23T10:43:04Z</time></trkpt><trkpt lat="44.97512998732748" lon="11.937936295566852"><ele>1.5</ele><time>2026-03-23T10:43:06Z</time></trkpt><trkpt lat="44.975092119057365" lon="11.937822149826955"><ele>1.3333333333333333</ele><time>2026-03-23T10:43:08Z</time></trkpt><trkpt lat="44.97505188407177" lon="11.937700870095084"><ele>1.1666666666666665</ele><time>2026-03-23T10:43:10Z</time></trkpt><trkpt lat="44.975012202002" lon="11.937581256937259"><ele>1.0</ele><time>2026-03-23T10:43:12Z</time></trkpt><trkpt lat="44.9749717820349" lon="11.937456527940942"><ele>0.8</ele><time>2026-03-23T10:43:14Z</time></trkpt><trkpt lat="44.97493250540255" lon="11.937334558565984"><ele>0.6000000000000001</ele><time>2026-03-23T10:43:16Z</time></trkpt><trkpt lat="44.97489267031724" lon="11.937210854798161"><ele>0.4</ele><time>2026-03-23T10:43:18Z</time></trkpt><trkpt lat="44.97485509345726" lon="11.937091498866137"><ele>0.2</ele><time>2026-03-23T10:43:20Z</time></trkpt><trkpt lat="44.97481695717744" lon="11.936969441513211"><ele>0.0</ele><time>2026-03-23T10:43:22Z</time></trkpt><trkpt lat="44.97477773277101" lon="11.936843901577431"><ele>0.0</ele><time>2026-03-23T10:43:24Z</time></trkpt><trkpt lat="44.97473983556281" lon="11.936722609484695"><ele>0.0</ele><time>2026-03-23T10:43:26Z</time></trkpt><trkpt lat="44.97470197210703" lon="11.936601425226556"><ele>0.0</ele><time>2026-03-23T10:43:28Z</time></trkpt><trkpt lat="44.97466646703053" lon="11.936487689219078"><ele>0.0</ele><time>2026-03-23T10:43:30Z</time></trkpt><trkpt lat="44.974634231139376" lon="11.936382033753572"><ele>0.0</ele><time>2026-03-23T10:43:32Z</time></trkpt><trkpt lat="44.97460240822737" lon="11.936277731879704"><ele>0.0</ele><time>2026-03-23T10:43:34Z</time></trkpt><trkpt lat="44.97456705681016" lon="11.936161864971465"><ele>0.0</ele><time>2026-03-23T10:43:36Z</time></trkpt><trkpt lat="44.974530478952005" lon="11.936041978460267"><ele>0.0</ele><time>2026-03-23T10:43:38Z</time></trkpt><trkpt lat="44.974497149224504" lon="11.93593273783257"><ele>0.0</ele><time>2026-03-23T10:43:40Z</time></trkpt><trkpt lat="44.974465285017835" lon="11.935828300584204"><ele>0.0</ele><time>2026-03-23T10:43:42Z</time></trkpt><trkpt lat="44.974435592717434" lon="11.935730981986135"><ele>0.0</ele><time>2026-03-23T10:43:44Z</time></trkpt><trkpt lat="44.97440746592529" lon="11.935637057318395"><ele>0.0</ele><time>2026-03-23T10:43:46Z</time></trkpt><trkpt lat="44.974381638628365" lon="11.93554968180381"><ele>0.0</ele><time>2026-03-23T10:43:48Z</time></trkpt><trkpt lat="44.97435494004682" lon="11.935459358718482"><ele>0.0</ele><time>2026-03-23T10:43:50Z</time></trkpt><trkpt lat="44.97432179981859" lon="11.93534724319265"><ele>0.0</ele><time>2026-03-23T10:43:52Z</time></trkpt><trkpt lat="44.97428526070288" lon="11.935223628879264"><ele>0.0</ele><time>2026-03-23T10:43:54Z</time></trkpt><trkpt lat="44.97424901081751" lon="11.935100728492554"><ele>0.0</ele><time>2026-03-23T10:43:56Z</time></trkpt><trkpt lat="44.974212584826084" lon="11.934975909550072"><ele>0.0</ele><time>2026-03-23T10:43:58Z</time></trkpt><trkpt lat="44.97417573916217" lon="11.934849652629513"><ele>0.2</ele><time>2026-03-23T10:44:00Z</time></trkpt><trkpt lat="44.97413966134079" lon="11.934726026713475"><ele>0.4</ele><time>2026-03-23T10:44:01.999Z</time></trkpt><trkpt lat="44.974104353644435" lon="11.934605039828002"><ele>0.6000000000000001</ele><time>2026-03-23T10:44:03.999Z</time></trkpt><trkpt lat="44.974040752055586" lon="11.934490670526962"><ele>0.8</ele><time>2026-03-23T10:44:05.999Z</time></trkpt><trkpt lat="44.97400393101913" lon="11.934366948875837"><ele>1.0</ele><time>2026-03-23T10:44:07.999Z</time></trkpt><trkpt lat="44.97396649978616" lon="11.934242013965981"><ele>0.8</ele><time>2026-03-23T10:44:09.999Z</time></trkpt><trkpt lat="44.97393217394668" lon="11.934114481037362"><ele>0.6000000000000001</ele><time>2026-03-23T10:44:11.999Z</time></trkpt><trkpt lat="44.973896496934834" lon="11.933989822181355"><ele>0.4</ele><time>2026-03-23T10:44:13.999Z</time></trkpt><trkpt lat="44.97385949514889" lon="11.933864565287326"><ele>0.2</ele><time>2026-03-23T10:44:15.999Z</time></trkpt><trkpt lat="44.97382270269271" lon="11.93374161911616"><ele>0.0</ele><time>2026-03-23T10:44:17.999Z</time></trkpt><trkpt lat="44.97378602978372" lon="11.933619537774272"><ele>0.0</ele><time>2026-03-23T10:44:19.999Z</time></trkpt><trkpt lat="44.973758371948584" lon="11.933504262566627"><ele>0.0</ele><time>2026-03-23T10:44:21.999Z</time></trkpt><trkpt lat="44.97372542954123" lon="11.93338427117776"><ele>0.0</ele><time>2026-03-23T10:44:23.999Z</time></trkpt><trkpt lat="44.97369560485728" lon="11.933256565429796"><ele>0.0</ele><time>2026-03-23T10:44:25.999Z</time></trkpt><trkpt lat="44.97366413729981" lon="11.933135978891887"><ele>0.0</ele><time>2026-03-23T10:44:27.999Z</time></trkpt><trkpt lat="44.97363505755953" lon="11.933016906775443"><ele>0.0</ele><time>2026-03-23T10:44:29.999Z</time></trkpt><trkpt lat="44.97360661263008" lon="11.932904263299385"><ele>0.0</ele><time>2026-03-23T10:44:31.999Z</time></trkpt><trkpt lat="44.97357714738229" lon="11.932779846161985"><ele>0.0</ele><time>2026-03-23T10:44:33.999Z</time></trkpt><trkpt lat="44.97354506609572" lon="11.932656138395616"><ele>0.0</ele><time>2026-03-23T10:44:35.999Z</time></trkpt><trkpt lat="44.973517512836914" lon="11.93253100185995"><ele>0.0</ele><time>2026-03-23T10:44:37.999Z</time></trkpt><trkpt lat="44.97348657249221" lon="11.932403396143135"><ele>0.0</ele><time>2026-03-23T10:44:39.999Z</time></trkpt><trkpt lat="44.97345500722782" lon="11.93227732923914"><ele>0.0</ele><time>2026-03-23T10:44:41.999Z</time></trkpt><trkpt lat="44.97342291074173" lon="11.932153064959863"><ele>0.0</ele><time>2026-03-23T10:44:43.999Z</time></trkpt><trkpt lat="44.97339490278612" lon="11.932030768204257"><ele>0.0</ele><time>2026-03-23T10:44:45.999Z</time></trkpt><trkpt lat="44.97336831633626" lon="11.931906535234406"><ele>0.0</ele><time>2026-03-23T10:44:47.999Z</time></trkpt><trkpt lat="44.97333616306629" lon="11.931780662231908"><ele>0.16666666666666666</ele><time>2026-03-23T10:44:49.999Z</time></trkpt><trkpt lat="44.97331088579348" lon="11.931662935243065"><ele>0.3333333333333333</ele><time>2026-03-23T10:44:51.999Z</time></trkpt><trkpt lat="44.97328850617477" lon="11.931540428190026"><ele>0.5</ele><time>2026-03-23T10:44:53.999Z</time></trkpt><trkpt lat="44.97325889738122" lon="11.931430938950555"><ele>0.6666666666666666</ele><time>2026-03-23T10:44:55.999Z</time></trkpt><trkpt lat="44.97324051291379" lon="11.931322080333462"><ele>0.8333333333333333</ele><time>2026-03-23T10:44:57.999Z</time></trkpt><trkpt lat="44.973215925506224" lon="11.931222450788777"><ele>1.0</ele><time>2026-03-23T10:44:59.999Z</time></trkpt><trkpt lat="44.97318731722454" lon="11.931108620697735"><ele>0.9999999999999999</ele><time>2026-03-23T10:45:01.999Z</time></trkpt><trkpt lat="44.97316167237787" lon="11.930982658309016"><ele>1.0</ele><time>2026-03-23T10:45:03.999Z</time></trkpt><trkpt lat="44.9731398758081" lon="11.930865060658817"><ele>1.0</ele><time>2026-03-23T10:45:05.999Z</time></trkpt><trkpt lat="44.97311809875429" lon="11.930755288169912"><ele>1.0</ele><time>2026-03-23T10:45:07.999Z</time></trkpt><trkpt lat="44.973095378472074" lon="11.930647284740282"><ele>0.9999999999999999</ele><time>2026-03-23T10:45:10Z</time></trkpt><trkpt lat="44.97306665986351" lon="11.930531950416322"><ele>1.0</ele><time>2026-03-23T10:45:12Z</time></trkpt><trkpt lat="44.97304347118326" lon="11.930404921890418"><ele>1.2000000000000002</ele><time>2026-03-23T10:45:14Z</time></trkpt><trkpt lat="44.973016364754145" lon="11.93027915808418"><ele>1.4000000000000001</ele><time>2026-03-23T10:45:16Z</time></trkpt><trkpt lat="44.972991099325704" lon="11.930147072883338"><ele>1.6</ele><time>2026-03-23T10:45:18Z</time></trkpt><trkpt lat="44.97296878105018" lon="11.930013152783484"><ele>1.8</ele><time>2026-03-23T10:45:20Z</time></trkpt><trkpt lat="44.97294738383631" lon="11.929886882936058"><ele>2.0</ele><time>2026-03-23T10:45:22Z</time></trkpt><trkpt lat="44.97293107607272" lon="11.929768092924219"><ele>1.6666666666666665</ele><time>2026-03-23T10:45:24Z</time></trkpt><trkpt lat="44.97291022159057" lon="11.929657199929203"><ele>1.3333333333333333</ele><time>2026-03-23T10:45:26Z</time></trkpt><trkpt lat="44.972892652615435" lon="11.929553010067426"><ele>1.0</ele><time>2026-03-23T10:45:28Z</time></trkpt><trkpt lat="44.972870001989996" lon="11.929432515701167"><ele>0.6666666666666666</ele><time>2026-03-23T10:45:30Z</time></trkpt><trkpt lat="44.972853751453066" lon="11.92931660087196"><ele>0.3333333333333333</ele><time>2026-03-23T10:45:32Z</time></trkpt><trkpt lat="44.972835054329735" lon="11.92920667277564"><ele>0.0</ele><time>2026-03-23T10:45:34Z</time></trkpt><trkpt lat="44.97282025769438" lon="11.929100309619454"><ele>0.0</ele><time>2026-03-23T10:45:36Z</time></trkpt><trkpt lat="44.97282437813049" lon="11.928975699651996"><ele>0.0</ele><time>2026-03-23T10:45:38Z</time></trkpt><trkpt lat="44.9728040891744" lon="11.928845140637396"><ele>0.0</ele><time>2026-03-23T10:45:40Z</time></trkpt><trkpt lat="44.97278465422711" lon="11.928724887031391"><ele>0.0</ele><time>2026-03-23T10:45:42Z</time></trkpt><trkpt lat="44.972765219301195" lon="11.92861014182338"><ele>0.0</ele><time>2026-03-23T10:45:44Z</time></trkpt><trkpt lat="44.972746013298405" lon="11.928505880679507"><ele>0.0</ele><time>2026-03-23T10:45:46Z</time></trkpt><trkpt lat="44.97272488974031" lon="11.928395692582592"><ele>0.0</ele><time>2026-03-23T10:45:48Z</time></trkpt><trkpt lat="44.97270056560422" lon="11.928273667802607"><ele>0.0</ele><time>2026-03-23T10:45:50Z</time></trkpt><trkpt lat="44.972676453246336" lon="11.928154711061653"><ele>0.0</ele><time>2026-03-23T10:45:52Z</time></trkpt><trkpt lat="44.9726392292354" lon="11.928053235048242"><ele>0.0</ele><time>2026-03-23T10:45:54Z</time></trkpt><trkpt lat="44.97261793081554" lon="11.92794532417133"><ele>0.0</ele><time>2026-03-23T10:45:56Z</time></trkpt><trkpt lat="44.97260776883361" lon="11.927816095211064"><ele>0.0</ele><time>2026-03-23T10:45:58Z</time></trkpt><trkpt lat="44.97258370778336" lon="11.927697703532786"><ele>0.0</ele><time>2026-03-23T10:46:00Z</time></trkpt><trkpt lat="44.97256112716084" lon="11.927588118268952"><ele>0.0</ele><time>2026-03-23T10:46:02Z</time></trkpt><trkpt lat="44.97253985939496" lon="11.927484904300615"><ele>0.0</ele><time>2026-03-23T10:46:04Z</time></trkpt><trkpt lat="44.97251784828386" lon="11.927383004972631"><ele>0.0</ele><time>2026-03-23T10:46:06Z</time></trkpt><trkpt lat="44.972491691533165" lon="11.927261611627507"><ele>0.0</ele><time>2026-03-23T10:46:08Z</time></trkpt><trkpt lat="44.97246532923068" lon="11.92713926433686"><ele>0.0</ele><time>2026-03-23T10:46:10Z</time></trkpt><trkpt lat="44.97244167967662" lon="11.927024518319548"><ele>0.5</ele><time>2026-03-23T10:46:12Z</time></trkpt><trkpt lat="44.97241995566654" lon="11.92691647006727"><ele>1.0</ele><time>2026-03-23T10:46:14Z</time></trkpt><trkpt lat="44.97239774967618" lon="11.926798460519587"><ele>1.5</ele><time>2026-03-23T10:46:16Z</time></trkpt><trkpt lat="44.972374958770835" lon="11.926672842747054"><ele>2.0</ele><time>2026-03-23T10:46:18Z</time></trkpt><trkpt lat="44.97235434240937" lon="11.926546083931553"><ele>2.5</ele><time>2026-03-23T10:46:20Z</time></trkpt><trkpt lat="44.97232518744881" lon="11.926427151837702"><ele>3.0</ele><time>2026-03-23T10:46:21.999Z</time></trkpt><trkpt lat="44.9723159759643" lon="11.92631402861709"><ele>3.0</ele><time>2026-03-23T10:46:23.999Z</time></trkpt><trkpt lat="44.97231535692786" lon="11.926201140957827"><ele>3.0</ele><time>2026-03-23T10:46:25.999Z</time></trkpt><trkpt lat="44.97233830286886" lon="11.926081335908233"><ele>3.0</ele><time>2026-03-23T10:46:27.999Z</time></trkpt><trkpt lat="44.97233250098832" lon="11.925955689273232"><ele>3.0</ele><time>2026-03-23T10:46:29.999Z</time></trkpt><trkpt lat="44.97234391901162" lon="11.925839344118094"><ele>3.0</ele><time>2026-03-23T10:46:31.999Z</time></trkpt><trkpt lat="44.97234939441222" lon="11.925733096598089"><ele>3.0</ele><time>2026-03-23T10:46:33.999Z</time></trkpt><trkpt lat="44.97235959534453" lon="11.925632641653655"><ele>3.0</ele><time>2026-03-23T10:46:35.999Z</time></trkpt><trkpt lat="44.97237391657291" lon="11.925542019973822"><ele>3.0</ele><time>2026-03-23T10:46:37.999Z</time></trkpt><trkpt lat="44.97237699458785" lon="11.925425745322173"><ele>3.0</ele><time>2026-03-23T10:46:39.999Z</time></trkpt><trkpt lat="44.972396646951246" lon="11.925310723652148"><ele>3.0</ele><time>2026-03-23T10:46:41.999Z</time></trkpt><trkpt lat="44.97239202617807" lon="11.925204847858675"><ele>3.0</ele><time>2026-03-23T10:46:43.999Z</time></trkpt><trkpt lat="44.97237883435422" lon="11.925098160248744"><ele>3.0</ele><time>2026-03-23T10:46:45.999Z</time></trkpt><trkpt lat="44.972348579386434" lon="11.924972429497048"><ele>2.8</ele><time>2026-03-23T10:46:47.999Z</time></trkpt><trkpt lat="44.97230595938978" lon="11.924863010154322"><ele>2.5999999999999996</ele><time>2026-03-23T10:46:49.999Z</time></trkpt><trkpt lat="44.972253734377084" lon="11.924768968759611"><ele>2.4000000000000004</ele><time>2026-03-23T10:46:51.999Z</time></trkpt><trkpt lat="44.97219531336715" lon="11.924679883790335"><ele>2.2</ele><time>2026-03-23T10:46:53.999Z</time></trkpt><trkpt lat="44.972127046145786" lon="11.924583718854798"><ele>2.0</ele><time>2026-03-23T10:46:55.999Z</time></trkpt><trkpt lat="44.97205487994426" lon="11.924495076474226"><ele>1.9999999999999998</ele><time>2026-03-23T10:46:57.999Z</time></trkpt><trkpt lat="44.97198881353482" lon="11.924418916618373"><ele>2.0</ele><time>2026-03-23T10:46:59.999Z</time></trkpt><trkpt lat="44.97192363026349" lon="11.924344340651656"><ele>2.0</ele><time>2026-03-23T10:47:01.999Z</time></trkpt><trkpt lat="44.97186393546356" lon="11.924271512496427"><ele>2.0</ele><time>2026-03-23T10:47:03.999Z</time></trkpt><trkpt lat="44.971809674503014" lon="11.924195071930402"><ele>1.9999999999999998</ele><time>2026-03-23T10:47:05.999Z</time></trkpt><trkpt lat="44.97175677855201" lon="11.924115435347701"><ele>2.0</ele><time>2026-03-23T10:47:07.999Z</time></trkpt><trkpt lat="44.971704014239606" lon="11.924027767023482"><ele>2.1666666666666665</ele><time>2026-03-23T10:47:09.999Z</time></trkpt><trkpt lat="44.97165701417965" lon="11.923937662646308"><ele>2.333333333333333</ele><time>2026-03-23T10:47:11.999Z</time></trkpt><trkpt lat="44.97161538922849" lon="11.923842234478828"><ele>2.5</ele><time>2026-03-23T10:47:13.999Z</time></trkpt><trkpt lat="44.97157387135897" lon="11.923729570359985"><ele>2.6666666666666665</ele><time>2026-03-23T10:47:16Z</time></trkpt><trkpt lat="44.97152652476619" lon="11.923618879471706"><ele>2.8333333333333335</ele><time>2026-03-23T10:47:18Z</time></trkpt><trkpt lat="44.97149913349649" lon="11.923505566516582"><ele>3.0</ele><time>2026-03-23T10:47:20Z</time></trkpt><trkpt lat="44.97148264455449" lon="11.923396856794467"><ele>3.1666666666666665</ele><time>2026-03-23T10:47:22Z</time></trkpt><trkpt lat="44.971475305747006" lon="11.923291566152049"><ele>3.333333333333333</ele><time>2026-03-23T10:47:24Z</time></trkpt><trkpt lat="44.971459634099425" lon="11.9231860816266"><ele>3.5</ele><time>2026-03-23T10:47:26Z</time></trkpt><trkpt lat="44.971443243040156" lon="11.923060898744044"><ele>3.6666666666666665</ele><time>2026-03-23T10:47:28Z</time></trkpt><trkpt lat="44.971431357323745" lon="11.922952620160459"><ele>3.833333333333333</ele><time>2026-03-23T10:47:30Z</time></trkpt><trkpt lat="44.97140556086026" lon="11.922849531588062"><ele>4.0</ele><time>2026-03-23T10:47:32Z</time></trkpt><trkpt lat="44.97141302909917" lon="11.922735368472726"><ele>4.0</ele><time>2026-03-23T10:47:34Z</time></trkpt><trkpt lat="44.9713863930005" lon="11.922607626346922"><ele>4.0</ele><time>2026-03-23T10:47:36Z</time></trkpt><trkpt lat="44.971379300641765" lon="11.922473242371444"><ele>4.0</ele><time>2026-03-23T10:47:38Z</time></trkpt><trkpt lat="44.97138203154043" lon="11.922344750473817"><ele>4.0</ele><time>2026-03-23T10:47:40Z</time></trkpt><trkpt lat="44.97137090046219" lon="11.922219210246338"><ele>4.0</ele><time>2026-03-23T10:47:42Z</time></trkpt><trkpt lat="44.97133951958761" lon="11.922106706831718"><ele>3.833333333333333</ele><time>2026-03-23T10:47:44Z</time></trkpt><trkpt lat="44.97133718504084" lon="11.92199187217747"><ele>3.6666666666666665</ele><time>2026-03-23T10:47:46Z</time></trkpt><trkpt lat="44.97131674675244" lon="11.921889333414704"><ele>3.5</ele><time>2026-03-23T10:47:48Z</time></trkpt><trkpt lat="44.97129128861092" lon="11.9217787427249"><ele>3.333333333333333</ele><time>2026-03-23T10:47:50Z</time></trkpt><trkpt lat="44.97125818265869" lon="11.921659457816238"><ele>3.1666666666666665</ele><time>2026-03-23T10:47:52Z</time></trkpt><trkpt lat="44.97122110245498" lon="11.921553757961375"><ele>3.0</ele><time>2026-03-23T10:47:54Z</time></trkpt><trkpt lat="44.97118574002692" lon="11.921461483453774"><ele>3.0</ele><time>2026-03-23T10:47:56Z</time></trkpt><trkpt lat="44.971136238516834" lon="11.921373406764458"><ele>3.0</ele><time>2026-03-23T10:47:58Z</time></trkpt><trkpt lat="44.97109759058764" lon="11.92125232534696"><ele>3.0</ele><time>2026-03-23T10:48:00Z</time></trkpt><trkpt lat="44.97105954293521" lon="11.921133208902097"><ele>3.0</ele><time>2026-03-23T10:48:02Z</time></trkpt><trkpt lat="44.97101942071935" lon="11.92102419103509"><ele>3.0</ele><time>2026-03-23T10:48:04Z</time></trkpt><trkpt lat="44.97098549422282" lon="11.920914652257629"><ele>3.0</ele><time>2026-03-23T10:48:06Z</time></trkpt><trkpt lat="44.97096646198643" lon="11.920799462371042"><ele>3.0</ele><time>2026-03-23T10:48:08Z</time></trkpt><trkpt lat="44.97095311490466" lon="11.920679023675529"><ele>3.0</ele><time>2026-03-23T10:48:10Z</time></trkpt><trkpt lat="44.97099641371632" lon="11.92057105223335"><ele>3.0</ele><time>2026-03-23T10:48:12Z</time></trkpt><trkpt lat="44.97103270802103" lon="11.920455667183054"><ele>3.0</ele><time>2026-03-23T10:48:14Z</time></trkpt><trkpt lat="44.971079758509134" lon="11.920342391774502"><ele>3.0</ele><time>2026-03-23T10:48:16Z</time></trkpt><trkpt lat="44.97113119302084" lon="11.920235223162887"><ele>3.0</ele><time>2026-03-23T10:48:18Z</time></trkpt><trkpt lat="44.97117497524589" lon="11.920126338765462"><ele>3.1666666666666665</ele><time>2026-03-23T10:48:20Z</time></trkpt><trkpt lat="44.97123265460857" lon="11.920041122827364"><ele>3.333333333333333</ele><time>2026-03-23T10:48:22Z</time></trkpt><trkpt lat="44.971285656236084" lon="11.919950732003741"><ele>3.5</ele><time>2026-03-23T10:48:24Z</time></trkpt><trkpt lat="44.971348806094426" lon="11.91985490247941"><ele>3.6666666666666665</ele><time>2026-03-23T10:48:26Z</time></trkpt><trkpt lat="44.97141474221302" lon="11.919758858108288"><ele>3.833333333333333</ele><time>2026-03-23T10:48:28Z</time></trkpt><trkpt lat="44.97147876347931" lon="11.919662941031191"><ele>4.0</ele><time>2026-03-23T10:48:30Z</time></trkpt><trkpt lat="44.97154133525141" lon="11.919569265377826"><ele>4.0</ele><time>2026-03-23T10:48:32Z</time></trkpt><trkpt lat="44.97161231662379" lon="11.919496353900115"><ele>4.0</ele><time>2026-03-23T10:48:34Z</time></trkpt><trkpt lat="44.97166678794028" lon="11.919393660320178"><ele>4.0</ele><time>2026-03-23T10:48:35.999Z</time></trkpt><trkpt lat="44.971729703636846" lon="11.91929385926632"><ele>4.0</ele><time>2026-03-23T10:48:37.999Z</time></trkpt><trkpt lat="44.97179451990178" lon="11.919198236329095"><ele>4.0</ele><time>2026-03-23T10:48:39.999Z</time></trkpt><trkpt lat="44.97186243713988" lon="11.919106535666943"><ele>3.8000000000000003</ele><time>2026-03-23T10:48:41.999Z</time></trkpt><trkpt lat="44.9719265378923" lon="11.919012539438883"><ele>3.6000000000000005</ele><time>2026-03-23T10:48:43.999Z</time></trkpt><trkpt lat="44.97199106689622" lon="11.91891620290566"><ele>3.4</ele><time>2026-03-23T10:48:45.999Z</time></trkpt><trkpt lat="44.97205638983804" lon="11.918819961680343"><ele>3.2</ele><time>2026-03-23T10:48:47.999Z</time></trkpt><trkpt lat="44.97212305558592" lon="11.918728808565547"><ele>3.0</ele><time>2026-03-23T10:48:49.999Z</time></trkpt><trkpt lat="44.97218569219276" lon="11.918627161157206"><ele>3.0</ele><time>2026-03-23T10:48:51.999Z</time></trkpt><trkpt lat="44.97224542830459" lon="11.918538178001937"><ele>3.0</ele><time>2026-03-23T10:48:53.999Z</time></trkpt><trkpt lat="44.97229348867131" lon="11.91844162713292"><ele>3.0</ele><time>2026-03-23T10:48:55.999Z</time></trkpt><trkpt lat="44.97233071236516" lon="11.918336976129378"><ele>3.0</ele><time>2026-03-23T10:48:57.999Z</time></trkpt><trkpt lat="44.972364034998066" lon="11.918216461785168"><ele>3.0</ele><time>2026-03-23T10:48:59.999Z</time></trkpt><trkpt lat="44.972375115572326" lon="11.91809486209004"><ele>3.0</ele><time>2026-03-23T10:49:01.999Z</time></trkpt><trkpt lat="44.972378234622994" lon="11.917977320903832"><ele>3.1666666666666665</ele><time>2026-03-23T10:49:03.999Z</time></trkpt><trkpt lat="44.972362814511854" lon="11.917858793208103"><ele>3.333333333333333</ele><time>2026-03-23T10:49:05.999Z</time></trkpt><trkpt lat="44.97233413784944" lon="11.917735713077231"><ele>3.5</ele><time>2026-03-23T10:49:07.999Z</time></trkpt><trkpt lat="44.9723169364796" lon="11.917617929765983"><ele>3.6666666666666665</ele><time>2026-03-23T10:49:09.999Z</time></trkpt><trkpt lat="44.97229617688223" lon="11.91750963233032"><ele>3.833333333333333</ele><time>2026-03-23T10:49:11.999Z</time></trkpt><trkpt lat="44.972264098643265" lon="11.91740703999256"><ele>4.0</ele><time>2026-03-23T10:49:13.999Z</time></trkpt><trkpt lat="44.972252739772514" lon="11.917284072666266"><ele>3.9999999999999996</ele><time>2026-03-23T10:49:15.999Z</time></trkpt><trkpt lat="44.97222362358367" lon="11.917166617117523"><ele>4.0</ele><time>2026-03-23T10:49:17.999Z</time></trkpt><trkpt lat="44.97219694276005" lon="11.917061271004433"><ele>4.0</ele><time>2026-03-23T10:49:19.999Z</time></trkpt><trkpt lat="44.97215889460205" lon="11.916966589121106"><ele>4.0</ele><time>2026-03-23T10:49:22Z</time></trkpt><trkpt lat="44.97214508267112" lon="11.916857184454626"><ele>3.9999999999999996</ele><time>2026-03-23T10:49:24Z</time></trkpt><trkpt lat="44.97210352791172" lon="11.916745622034643"><ele>4.0</ele><time>2026-03-23T10:49:26Z</time></trkpt><trkpt lat="44.972077756413654" lon="11.91663107716541"><ele>3.9999999999999996</ele><time>2026-03-23T10:49:28Z</time></trkpt><trkpt lat="44.972056862472286" lon="11.916520907174931"><ele>4.0</ele><time>2026-03-23T10:49:30Z</time></trkpt><trkpt lat="44.972038347467056" lon="11.91641069272398"><ele>4.0</ele><time>2026-03-23T10:49:32Z</time></trkpt><trkpt lat="44.97201835097896" lon="11.916286259192903"><ele>4.0</ele><time>2026-03-23T10:49:34Z</time></trkpt><trkpt lat="44.97200176743781" lon="11.916156614414026"><ele>3.9999999999999996</ele><time>2026-03-23T10:49:36Z</time></trkpt><trkpt lat="44.97198933266278" lon="11.916036240615476"><ele>4.0</ele><time>2026-03-23T10:49:38Z</time></trkpt><trkpt lat="44.97199392403887" lon="11.915918234556242"><ele>3.833333333333333</ele><time>2026-03-23T10:49:40Z</time></trkpt><trkpt lat="44.97197874747922" lon="11.915811211036786"><ele>3.6666666666666665</ele><time>2026-03-23T10:49:42Z</time></trkpt><trkpt lat="44.97197918701194" lon="11.915709671997206"><ele>3.5</ele><time>2026-03-23T10:49:44Z</time></trkpt><trkpt lat="44.97197762055946" lon="11.915599737454139"><ele>3.333333333333333</ele><time>2026-03-23T10:49:46Z</time></trkpt><trkpt lat="44.97198162757254" lon="11.915488679507293"><ele>3.1666666666666665</ele><time>2026-03-23T10:49:48Z</time></trkpt><trkpt lat="44.97198971488239" lon="11.915381520308138"><ele>3.0</ele><time>2026-03-23T10:49:50Z</time></trkpt><trkpt lat="44.97199126591251" lon="11.915276972916903"><ele>3.0</ele><time>2026-03-23T10:49:52Z</time></trkpt><trkpt lat="44.97199106509548" lon="11.915154823126562"><ele>3.0</ele><time>2026-03-23T10:49:54Z</time></trkpt><trkpt lat="44.97199134348844" lon="11.915027549526066"><ele>3.0</ele><time>2026-03-23T10:49:56Z</time></trkpt><trkpt lat="44.9719998262518" lon="11.914911837183745"><ele>3.0</ele><time>2026-03-23T10:49:58Z</time></trkpt><trkpt lat="44.9720035068019" lon="11.914800781775762"><ele>3.0</ele><time>2026-03-23T10:50:00Z</time></trkpt><trkpt lat="44.97199821877385" lon="11.914681580867754"><ele>3.0</ele><time>2026-03-23T10:50:02Z</time></trkpt><trkpt lat="44.97200758822145" lon="11.914553335805513"><ele>3.1666666666666665</ele><time>2026-03-23T10:50:04Z</time></trkpt><trkpt lat="44.9720094332382" lon="11.91443659451162"><ele>3.333333333333333</ele><time>2026-03-23T10:50:06Z</time></trkpt><trkpt lat="44.972017754510354" lon="11.91432220082296"><ele>3.5</ele><time>2026-03-23T10:50:08Z</time></trkpt><trkpt lat="44.972021235093905" lon="11.914195571859523"><ele>3.6666666666666665</ele><time>2026-03-23T10:50:10Z</time></trkpt><trkpt lat="44.97202694389597" lon="11.914061931459761"><ele>3.833333333333333</ele><time>2026-03-23T10:50:12Z</time></trkpt><trkpt lat="44.97202672972239" lon="11.913935125388383"><ele>4.0</ele><time>2026-03-23T10:50:14Z</time></trkpt><trkpt lat="44.97203505090689" lon="11.913818194245675"><ele>3.9999999999999996</ele><time>2026-03-23T10:50:16Z</time></trkpt><trkpt lat="44.972036974525295" lon="11.91370478417638"><ele>4.0</ele><time>2026-03-23T10:50:18Z</time></trkpt><trkpt lat="44.97205141660732" lon="11.913599169895514"><ele>4.0</ele><time>2026-03-23T10:50:20Z</time></trkpt><trkpt lat="44.972041779221286" lon="11.913492592821207"><ele>4.0</ele><time>2026-03-23T10:50:22Z</time></trkpt><trkpt lat="44.97204866164861" lon="11.913379359661727"><ele>3.9999999999999996</ele><time>2026-03-23T10:50:24Z</time></trkpt><trkpt lat="44.97205079564853" lon="11.913275621436378"><ele>4.0</ele><time>2026-03-23T10:50:26Z</time></trkpt><trkpt lat="44.9720596979606" lon="11.913174759085392"><ele>3.9999999999999996</ele><time>2026-03-23T10:50:28Z</time></trkpt><trkpt lat="44.97207138570605" lon="11.91305168271291"><ele>4.0</ele><time>2026-03-23T10:50:30Z</time></trkpt><trkpt lat="44.97208259977488" lon="11.912925662558514"><ele>4.0</ele><time>2026-03-23T10:50:32Z</time></trkpt><trkpt lat="44.972096417033185" lon="11.91280540333453"><ele>4.0</ele><time>2026-03-23T10:50:33.999Z</time></trkpt><trkpt lat="44.972115628485575" lon="11.91269552749382"><ele>3.9999999999999996</ele><time>2026-03-23T10:50:35.999Z</time></trkpt><trkpt lat="44.97213762527411" lon="11.91258789748882"><ele>4.0</ele><time>2026-03-23T10:50:37.999Z</time></trkpt><trkpt lat="44.972168571445984" lon="11.912472139471333"><ele>3.9999999999999996</ele><time>2026-03-23T10:50:39.999Z</time></trkpt><trkpt lat="44.97219212873849" lon="11.912346262547384"><ele>4.0</ele><time>2026-03-23T10:50:41.999Z</time></trkpt><trkpt lat="44.972227291001246" lon="11.912234514960186"><ele>4.0</ele><time>2026-03-23T10:50:43.999Z</time></trkpt><trkpt lat="44.972250306509636" lon="11.912127683960014"><ele>4.0</ele><time>2026-03-23T10:50:45.999Z</time></trkpt><trkpt lat="44.9722734791286" lon="11.912024092188176"><ele>3.9999999999999996</ele><time>2026-03-23T10:50:47.999Z</time></trkpt><trkpt lat="44.9723003019142" lon="11.911928808712574"><ele>4.0</ele><time>2026-03-23T10:50:49.999Z</time></trkpt><trkpt lat="44.97233450508488" lon="11.911838736140703"><ele>3.833333333333333</ele><time>2026-03-23T10:50:51.999Z</time></trkpt><trkpt lat="44.97237624334284" lon="11.911731855211137"><ele>3.6666666666666665</ele><time>2026-03-23T10:50:53.999Z</time></trkpt><trkpt lat="44.972424583495055" lon="11.911639900385591"><ele>3.5</ele><time>2026-03-23T10:50:55.999Z</time></trkpt><trkpt lat="44.97247633657857" lon="11.911559230824173"><ele>3.333333333333333</ele><time>2026-03-23T10:50:57.999Z</time></trkpt><trkpt lat="44.97252935259841" lon="11.911473983871861"><ele>3.1666666666666665</ele><time>2026-03-23T10:50:59.999Z</time></trkpt><trkpt lat="44.972585929229616" lon="11.911380647805998"><ele>3.0</ele><time>2026-03-23T10:51:01.999Z</time></trkpt><trkpt lat="44.97264106057995" lon="11.911300809125853"><ele>2.8333333333333335</ele><time>2026-03-23T10:51:03.999Z</time></trkpt><trkpt lat="44.97269606499236" lon="11.911223710453902"><ele>2.6666666666666665</ele><time>2026-03-23T10:51:05.999Z</time></trkpt><trkpt lat="44.97275790034436" lon="11.911145604824778"><ele>2.5</ele><time>2026-03-23T10:51:07.999Z</time></trkpt><trkpt lat="44.97280998351324" lon="11.911064061177008"><ele>2.333333333333333</ele><time>2026-03-23T10:51:09.999Z</time></trkpt><trkpt lat="44.97286291624069" lon="11.910988352438368"><ele>2.1666666666666665</ele><time>2026-03-23T10:51:11.999Z</time></trkpt><trkpt lat="44.97292918744797" lon="11.91090681814918"><ele>2.0</ele><time>2026-03-23T10:51:13.999Z</time></trkpt><trkpt lat="44.97299150082965" lon="11.910822525733776"><ele>2.333333333333333</ele><time>2026-03-23T10:51:15.999Z</time></trkpt><trkpt lat="44.973053085379085" lon="11.910743242155077"><ele>2.6666666666666665</ele><time>2026-03-23T10:51:17.999Z</time></trkpt><trkpt lat="44.97310596360556" lon="11.910667546531243"><ele>3.0</ele><time>2026-03-23T10:51:19.999Z</time></trkpt><trkpt lat="44.97315691925583" lon="11.910589592010082"><ele>3.333333333333333</ele><time>2026-03-23T10:51:21.999Z</time></trkpt><trkpt lat="44.973225176755584" lon="11.910501307543191"><ele>3.6666666666666665</ele><time>2026-03-23T10:51:23.999Z</time></trkpt><trkpt lat="44.97328488935956" lon="11.910419057825914"><ele>4.0</ele><time>2026-03-23T10:51:25.999Z</time></trkpt><trkpt lat="44.97334530918234" lon="11.910344982310718"><ele>3.4999999999999996</ele><time>2026-03-23T10:51:28Z</time></trkpt><trkpt lat="44.973398343500754" lon="11.910266937154928"><ele>3.0</ele><time>2026-03-23T10:51:30Z</time></trkpt><trkpt lat="44.973453004507334" lon="11.910191924247172"><ele>2.5</ele><time>2026-03-23T10:51:32Z</time></trkpt><trkpt lat="44.973512652172126" lon="11.910098366560963"><ele>2.0</ele><time>2026-03-23T10:51:34Z</time></trkpt><trkpt lat="44.97357583081791" lon="11.910013504642846"><ele>1.5</ele><time>2026-03-23T10:51:36Z</time></trkpt><trkpt lat="44.97363508797872" lon="11.909930617400242"><ele>1.0</ele><time>2026-03-23T10:51:38Z</time></trkpt><trkpt lat="44.973685071000105" lon="11.909846681794608"><ele>0.9999999999999999</ele><time>2026-03-23T10:51:40Z</time></trkpt><trkpt lat="44.973731644331906" lon="11.90974313607992"><ele>1.0</ele><time>2026-03-23T10:51:42Z</time></trkpt><trkpt lat="44.973775465236095" lon="11.909645842606391"><ele>1.0</ele><time>2026-03-23T10:51:44Z</time></trkpt><trkpt lat="44.97380964191891" lon="11.909546958454234"><ele>1.0</ele><time>2026-03-23T10:51:46Z</time></trkpt><trkpt lat="44.97384749675063" lon="11.90943323823425"><ele>0.9999999999999999</ele><time>2026-03-23T10:51:48Z</time></trkpt><trkpt lat="44.973888286114985" lon="11.909328525928444"><ele>1.0</ele><time>2026-03-23T10:51:50Z</time></trkpt><trkpt lat="44.973926479554144" lon="11.909225761781281"><ele>0.8333333333333333</ele><time>2026-03-23T10:51:52Z</time></trkpt><trkpt lat="44.97396378315442" lon="11.90912106760221"><ele>0.6666666666666666</ele><time>2026-03-23T10:51:54Z</time></trkpt><trkpt lat="44.97400357796399" lon="11.909021281833118"><ele>0.5</ele><time>2026-03-23T10:51:56Z</time></trkpt><trkpt lat="44.97404117980752" lon="11.908923649545814"><ele>0.3333333333333333</ele><time>2026-03-23T10:51:58Z</time></trkpt><trkpt lat="44.97406157382146" lon="11.90880092769501"><ele>0.16666666666666666</ele><time>2026-03-23T10:52:00Z</time></trkpt><trkpt lat="44.974088849505144" lon="11.90868697317354"><ele>0.0</ele><time>2026-03-23T10:52:02Z</time></trkpt><trkpt lat="44.97410609683088" lon="11.908578186718678"><ele>0.0</ele><time>2026-03-23T10:52:04Z</time></trkpt><trkpt lat="44.974132224321046" lon="11.908479240812797"><ele>0.0</ele><time>2026-03-23T10:52:06Z</time></trkpt><trkpt lat="44.97415020361256" lon="11.908376069046794"><ele>0.0</ele><time>2026-03-23T10:52:08Z</time></trkpt><trkpt lat="44.97417430384701" lon="11.908258953998303"><ele>0.0</ele><time>2026-03-23T10:52:10Z</time></trkpt><trkpt lat="44.97419180811929" lon="11.908150753544382"><ele>0.0</ele><time>2026-03-23T10:52:12Z</time></trkpt><trkpt lat="44.97420960687322" lon="11.90804302293749"><ele>0.0</ele><time>2026-03-23T10:52:14Z</time></trkpt><trkpt lat="44.974228091055814" lon="11.907920414871915"><ele>0.0</ele><time>2026-03-23T10:52:16Z</time></trkpt><trkpt lat="44.974241525528086" lon="11.907788676866131"><ele>0.0</ele><time>2026-03-23T10:52:18Z</time></trkpt><trkpt lat="44.97425558263797" lon="11.907654979598597"><ele>0.0</ele><time>2026-03-23T10:52:20Z</time></trkpt><trkpt lat="44.97426973726846" lon="11.907524482262659"><ele>0.0</ele><time>2026-03-23T10:52:22Z</time></trkpt><trkpt lat="44.97428248749006" lon="11.907392231140255"><ele>0.0</ele><time>2026-03-23T10:52:24Z</time></trkpt><trkpt lat="44.974294715731325" lon="11.907259277267524"><ele>0.0</ele><time>2026-03-23T10:52:26Z</time></trkpt><trkpt lat="44.97432258186533" lon="11.907128142582282"><ele>0.0</ele><time>2026-03-23T10:52:28Z</time></trkpt><trkpt lat="44.97433639072924" lon="11.906993887808472"><ele>0.0</ele><time>2026-03-23T10:52:30Z</time></trkpt><trkpt lat="44.97435101497044" lon="11.90685767109507"><ele>0.0</ele><time>2026-03-23T10:52:32Z</time></trkpt><trkpt lat="44.97436661566957" lon="11.906725974304765"><ele>0.0</ele><time>2026-03-23T10:52:34Z</time></trkpt><trkpt lat="44.974375680698984" lon="11.906593817563108"><ele>0.0</ele><time>2026-03-23T10:52:36Z</time></trkpt><trkpt lat="44.97439557943275" lon="11.9064616582985"><ele>0.0</ele><time>2026-03-23T10:52:38Z</time></trkpt><trkpt lat="44.97442232894745" lon="11.9063339201501"><ele>0.0</ele><time>2026-03-23T10:52:39.999Z</time></trkpt><trkpt lat="44.97445086247147" lon="11.906206360001928"><ele>0.0</ele><time>2026-03-23T10:52:41.999Z</time></trkpt><trkpt lat="44.97447707659088" lon="11.90608250627381"><ele>0.0</ele><time>2026-03-23T10:52:43.999Z</time></trkpt><trkpt lat="44.97450246383664" lon="11.905965947302615"><ele>0.2</ele><time>2026-03-23T10:52:45.999Z</time></trkpt><trkpt lat="44.97452903567362" lon="11.905845450690778"><ele>0.4</ele><time>2026-03-23T10:52:47.999Z</time></trkpt><trkpt lat="44.97455428138264" lon="11.905721470988823"><ele>0.6000000000000001</ele><time>2026-03-23T10:52:49.999Z</time></trkpt><trkpt lat="44.97459799279131" lon="11.90560255853957"><ele>0.8</ele><time>2026-03-23T10:52:51.999Z</time></trkpt><trkpt lat="44.97461243261865" lon="11.905476744372079"><ele>1.0</ele><time>2026-03-23T10:52:53.999Z</time></trkpt><trkpt lat="44.97463759224868" lon="11.905359586145543"><ele>0.9999999999999999</ele><time>2026-03-23T10:52:55.999Z</time></trkpt><trkpt lat="44.97466410623023" lon="11.905254241137587"><ele>1.0</ele><time>2026-03-23T10:52:57.999Z</time></trkpt><trkpt lat="44.974684725328004" lon="11.9051554987101"><ele>1.0</ele><time>2026-03-23T10:52:59.999Z</time></trkpt><trkpt lat="44.97470487052133" lon="11.905042807399717"><ele>1.0</ele><time>2026-03-23T10:53:01.999Z</time></trkpt><trkpt lat="44.974727653556705" lon="11.904935185197772"><ele>0.9999999999999999</ele><time>2026-03-23T10:53:03.999Z</time></trkpt><trkpt lat="44.97475499104244" lon="11.904833725367697"><ele>1.0</ele><time>2026-03-23T10:53:05.999Z</time></trkpt><trkpt lat="44.97477842131436" lon="11.904708103790506"><ele>0.9999999999999999</ele><time>2026-03-23T10:53:07.999Z</time></trkpt><trkpt lat="44.97480485045362" lon="11.904593507576656"><ele>1.0</ele><time>2026-03-23T10:53:09.999Z</time></trkpt><trkpt lat="44.97482786532489" lon="11.90448212170963"><ele>1.0</ele><time>2026-03-23T10:53:11.999Z</time></trkpt><trkpt lat="44.97484706684579" lon="11.904372215895892"><ele>1.0</ele><time>2026-03-23T10:53:13.999Z</time></trkpt><trkpt lat="44.9748709424632" lon="11.904246368176574"><ele>0.9999999999999999</ele><time>2026-03-23T10:53:15.999Z</time></trkpt><trkpt lat="44.974892396700284" lon="11.904117693817632"><ele>1.0</ele><time>2026-03-23T10:53:17.999Z</time></trkpt><trkpt lat="44.97491284680975" lon="11.903988870475791"><ele>0.9999999999999999</ele><time>2026-03-23T10:53:19.999Z</time></trkpt><trkpt lat="44.97493739383246" lon="11.903872803109335"><ele>1.0</ele><time>2026-03-23T10:53:21.999Z</time></trkpt><trkpt lat="44.97494809175475" lon="11.90375968290391"><ele>1.0</ele><time>2026-03-23T10:53:23.999Z</time></trkpt><trkpt lat="44.974966950010035" lon="11.90365205087415"><ele>1.0</ele><time>2026-03-23T10:53:25.999Z</time></trkpt><trkpt lat="44.97497687885682" lon="11.903544617452953"><ele>0.9999999999999999</ele><time>2026-03-23T10:53:27.999Z</time></trkpt><trkpt lat="44.97499834962229" lon="11.903427360263462"><ele>1.0</ele><time>2026-03-23T10:53:29.999Z</time></trkpt><trkpt lat="44.97500255962919" lon="11.903321863624248"><ele>0.8333333333333333</ele><time>2026-03-23T10:53:31.999Z</time></trkpt><trkpt lat="44.97503059574023" lon="11.903227321455274"><ele>0.6666666666666666</ele><time>2026-03-23T10:53:34Z</time></trkpt><trkpt lat="44.97503576846268" lon="11.903109340689479"><ele>0.5</ele><time>2026-03-23T10:53:36Z</time></trkpt><trkpt lat="44.975050124576114" lon="11.902985086215843"><ele>0.3333333333333333</ele><time>2026-03-23T10:53:38Z</time></trkpt><trkpt lat="44.975063484583764" lon="11.902869773219868"><ele>0.16666666666666666</ele><time>2026-03-23T10:53:40Z</time></trkpt><trkpt lat="44.97507527376943" lon="11.902766556498127"><ele>0.0</ele><time>2026-03-23T10:53:42Z</time></trkpt><trkpt lat="44.97509263070881" lon="11.902667226685361"><ele>0.16666666666666666</ele><time>2026-03-23T10:53:44Z</time></trkpt><trkpt lat="44.975106390761596" lon="11.902546638948117"><ele>0.3333333333333333</ele><time>2026-03-23T10:53:46Z</time></trkpt><trkpt lat="44.975128509249366" lon="11.902437402664956"><ele>0.5</ele><time>2026-03-23T10:53:48Z</time></trkpt><trkpt lat="44.97514126712842" lon="11.90233312855044"><ele>0.6666666666666666</ele><time>2026-03-23T10:53:50Z</time></trkpt><trkpt lat="44.97515463531889" lon="11.9022278443388"><ele>0.8333333333333333</ele><time>2026-03-23T10:53:52Z</time></trkpt><trkpt lat="44.97517606180721" lon="11.902105789257005"><ele>1.0</ele><time>2026-03-23T10:53:54Z</time></trkpt><trkpt lat="44.97518709778339" lon="11.901989786015879"><ele>1.0</ele><time>2026-03-23T10:53:56Z</time></trkpt><trkpt lat="44.975206855363616" lon="11.901883289660356"><ele>0.9999999999999999</ele><time>2026-03-23T10:53:58Z</time></trkpt><trkpt lat="44.97521940477748" lon="11.901778651728868"><ele>1.0</ele><time>2026-03-23T10:54:00Z</time></trkpt><trkpt lat="44.975235732237" lon="11.901681532626865"><ele>1.0</ele><time>2026-03-23T10:54:02Z</time></trkpt><trkpt lat="44.97524854468126" lon="11.901585442220107"><ele>0.9999999999999999</ele><time>2026-03-23T10:54:04Z</time></trkpt><trkpt lat="44.975262720389104" lon="11.901493060863066"><ele>1.0</ele><time>2026-03-23T10:54:06Z</time></trkpt><trkpt lat="44.97527061578928" lon="11.901404202653"><ele>1.0</ele><time>2026-03-23T10:54:08Z</time></trkpt><trkpt lat="44.975280616963374" lon="11.901296986232323"><ele>1.1666666666666665</ele><time>2026-03-23T10:54:10Z</time></trkpt><trkpt lat="44.97528595113303" lon="11.901195800070163"><ele>1.3333333333333333</ele><time>2026-03-23T10:54:12Z</time></trkpt><trkpt lat="44.9753000489684" lon="11.901084164179592"><ele>1.5</ele><time>2026-03-23T10:54:14Z</time></trkpt><trkpt lat="44.97530496157209" lon="11.900977571725942"><ele>1.6666666666666665</ele><time>2026-03-23T10:54:16Z</time></trkpt><trkpt lat="44.97530979576432" lon="11.900871069913018"><ele>1.8333333333333333</ele><time>2026-03-23T10:54:18Z</time></trkpt><trkpt lat="44.97531526953215" lon="11.900755164220854"><ele>2.0</ele><time>2026-03-23T10:54:20Z</time></trkpt><trkpt lat="44.975322633661705" lon="11.900637948447349"><ele>1.9999999999999998</ele><time>2026-03-23T10:54:22Z</time></trkpt><trkpt lat="44.97532957921412" lon="11.900529477784083"><ele>2.0</ele><time>2026-03-23T10:54:24Z</time></trkpt><trkpt lat="44.97534011858911" lon="11.900418633966611"><ele>2.0</ele><time>2026-03-23T10:54:26Z</time></trkpt><trkpt lat="44.975348378209844" lon="11.900290924269106"><ele>2.0</ele><time>2026-03-23T10:54:28Z</time></trkpt><trkpt lat="44.97535702008685" lon="11.900157975714427"><ele>1.9999999999999998</ele><time>2026-03-23T10:54:30Z</time></trkpt><trkpt lat="44.975370072717" lon="11.900039273348355"><ele>2.0</ele><time>2026-03-23T10:54:32Z</time></trkpt><trkpt lat="44.975382353174325" lon="11.899923375691905"><ele>1.9999999999999998</ele><time>2026-03-23T10:54:34Z</time></trkpt><trkpt lat="44.97540138861876" lon="11.899819389990695"><ele>2.0</ele><time>2026-03-23T10:54:36Z</time></trkpt><trkpt lat="44.975425470672825" lon="11.899705953837088"><ele>2.0</ele><time>2026-03-23T10:54:38Z</time></trkpt><trkpt lat="44.97545967265232" lon="11.899600616112151"><ele>2.0</ele><time>2026-03-23T10:54:40Z</time></trkpt><trkpt lat="44.975494481233916" lon="11.899510488345676"><ele>1.9999999999999998</ele><time>2026-03-23T10:54:41.999Z</time></trkpt><trkpt lat="44.975533053497415" lon="11.899409621469804"><ele>2.0</ele><time>2026-03-23T10:54:43.999Z</time></trkpt><trkpt lat="44.97557036447406" lon="11.899301363523733"><ele>1.8333333333333333</ele><time>2026-03-23T10:54:45.999Z</time></trkpt><trkpt lat="44.975604201574406" lon="11.899200643962232"><ele>1.6666666666666665</ele><time>2026-03-23T10:54:47.999Z</time></trkpt><trkpt lat="44.97565544997807" lon="11.899106602305709"><ele>1.5</ele><time>2026-03-23T10:54:49.999Z</time></trkpt><trkpt lat="44.97568747467963" lon="11.898982600411877"><ele>1.3333333333333333</ele><time>2026-03-23T10:54:51.999Z</time></trkpt><trkpt lat="44.975708812734354" lon="11.898869544789118"><ele>1.1666666666666665</ele><time>2026-03-23T10:54:53.999Z</time></trkpt><trkpt lat="44.97570732446691" lon="11.89875519385227"><ele>1.0</ele><time>2026-03-23T10:54:55.999Z</time></trkpt><trkpt lat="44.97572901723118" lon="11.898653757559469"><ele>0.9999999999999999</ele><time>2026-03-23T10:54:57.999Z</time></trkpt><trkpt lat="44.97571815229159" lon="11.89855206659593"><ele>1.0</ele><time>2026-03-23T10:54:59.999Z</time></trkpt><trkpt lat="44.97572436893982" lon="11.898439057820477"><ele>1.0</ele><time>2026-03-23T10:55:01.999Z</time></trkpt><trkpt lat="44.97573739167238" lon="11.898333598171705"><ele>1.0</ele><time>2026-03-23T10:55:03.999Z</time></trkpt><trkpt lat="44.975736231117565" lon="11.898240204090813"><ele>0.9999999999999999</ele><time>2026-03-23T10:55:05.999Z</time></trkpt><trkpt lat="44.97573302562454" lon="11.898113250567725"><ele>1.0</ele><time>2026-03-23T10:55:08.999Z</time></trkpt><trkpt lat="44.97571157952915" lon="11.897994172455146"><ele>0.8333333333333333</ele><time>2026-03-23T10:55:11.999Z</time></trkpt><trkpt lat="44.9757213179969" lon="11.89787934901144"><ele>0.6666666666666666</ele><time>2026-03-23T10:55:13.999Z</time></trkpt><trkpt lat="44.975713730580964" lon="11.897763876900727"><ele>0.5</ele><time>2026-03-23T10:55:15.999Z</time></trkpt><trkpt lat="44.97570658922318" lon="11.897662274900211"><ele>0.3333333333333333</ele><time>2026-03-23T10:55:17.999Z</time></trkpt><trkpt lat="44.97569841787376" lon="11.897557179703524"><ele>0.16666666666666666</ele><time>2026-03-23T10:55:19.999Z</time></trkpt><trkpt lat="44.97567368208918" lon="11.897460581289387"><ele>0.0</ele><time>2026-03-23T10:55:21.999Z</time></trkpt><trkpt lat="44.975681240218094" lon="11.897361595513853"><ele>0.0</ele><time>2026-03-23T10:55:23.999Z</time></trkpt><trkpt lat="44.975672866963286" lon="11.897267309416797"><ele>0.0</ele><time>2026-03-23T10:55:25.999Z</time></trkpt><trkpt lat="44.975663518406925" lon="11.89717131901907"><ele>0.0</ele><time>2026-03-23T10:55:27.999Z</time></trkpt><trkpt lat="44.975651880081976" lon="11.897051817434628"><ele>0.0</ele><time>2026-03-23T10:55:29.999Z</time></trkpt><trkpt lat="44.975636947846596" lon="11.896926746998336"><ele>0.0</ele><time>2026-03-23T10:55:31.999Z</time></trkpt><trkpt lat="44.9756216623997" lon="11.896796936788174"><ele>0.0</ele><time>2026-03-23T10:55:33.999Z</time></trkpt><trkpt lat="44.97560195487057" lon="11.896667531309104"><ele>0.2</ele><time>2026-03-23T10:55:35.999Z</time></trkpt><trkpt lat="44.9755534195829" lon="11.896546187722226"><ele>0.4</ele><time>2026-03-23T10:55:37.999Z</time></trkpt><trkpt lat="44.97552650308213" lon="11.89641802550756"><ele>0.6000000000000001</ele><time>2026-03-23T10:55:40Z</time></trkpt><trkpt lat="44.97549870928458" lon="11.896289464912574"><ele>0.8</ele><time>2026-03-23T10:55:42Z</time></trkpt><trkpt lat="44.97547029515144" lon="11.896170146756653"><ele>1.0</ele><time>2026-03-23T10:55:44Z</time></trkpt><trkpt lat="44.975445755694366" lon="11.896040311332266"><ele>1.0</ele><time>2026-03-23T10:55:46Z</time></trkpt><trkpt lat="44.975416349150365" lon="11.89591843556479"><ele>1.0</ele><time>2026-03-23T10:55:48Z</time></trkpt><trkpt lat="44.97538451299634" lon="11.895796743172754"><ele>1.0</ele><time>2026-03-23T10:55:50Z</time></trkpt><trkpt lat="44.97535191945993" lon="11.895674538341972"><ele>1.0</ele><time>2026-03-23T10:55:52Z</time></trkpt><trkpt lat="44.975321504702315" lon="11.89554801015205"><ele>1.0</ele><time>2026-03-23T10:55:54Z</time></trkpt><trkpt lat="44.975283312220974" lon="11.895425405639768"><ele>1.0</ele><time>2026-03-23T10:55:56Z</time></trkpt><trkpt lat="44.97525305464656" lon="11.89529903797256"><ele>1.0</ele><time>2026-03-23T10:55:58Z</time></trkpt><trkpt lat="44.975224734230956" lon="11.89517338151587"><ele>1.0</ele><time>2026-03-23T10:56:00Z</time></trkpt><trkpt lat="44.975185322465805" lon="11.895055394467818"><ele>1.0</ele><time>2026-03-23T10:56:02Z</time></trkpt><trkpt lat="44.975167380899165" lon="11.894918030027396"><ele>1.0</ele><time>2026-03-23T10:56:04Z</time></trkpt><trkpt lat="44.975101028155876" lon="11.894815272936155"><ele>0.8</ele><time>2026-03-23T10:56:06Z</time></trkpt><trkpt lat="44.975051342597425" lon="11.89470650736798"><ele>0.6000000000000001</ele><time>2026-03-23T10:56:08Z</time></trkpt><trkpt lat="44.974997912252284" lon="11.894593631220424"><ele>0.4</ele><time>2026-03-23T10:56:10Z</time></trkpt><trkpt lat="44.9749399084547" lon="11.894479935424988"><ele>0.2</ele><time>2026-03-23T10:56:12Z</time></trkpt><trkpt lat="44.974882735746014" lon="11.894370921363267"><ele>0.0</ele><time>2026-03-23T10:56:14Z</time></trkpt><trkpt lat="44.974827503106305" lon="11.894265191782626"><ele>0.4</ele><time>2026-03-23T10:56:16Z</time></trkpt><trkpt lat="44.97478362824428" lon="11.894144613644745"><ele>0.8</ele><time>2026-03-23T10:56:18Z</time></trkpt><trkpt lat="44.97474527889236" lon="11.894020140794064"><ele>1.2000000000000002</ele><time>2026-03-23T10:56:20Z</time></trkpt><trkpt lat="44.974735786624535" lon="11.893888692256281"><ele>1.6</ele><time>2026-03-23T10:56:22Z</time></trkpt><trkpt lat="44.97473480241456" lon="11.89375340301085"><ele>2.0</ele><time>2026-03-23T10:56:24Z</time></trkpt><trkpt lat="44.97475041925662" lon="11.893627390834036"><ele>2.0</ele><time>2026-03-23T10:56:26Z</time></trkpt><trkpt lat="44.97475839686426" lon="11.893498894985234"><ele>2.0</ele><time>2026-03-23T10:56:28Z</time></trkpt><trkpt lat="44.974758540398874" lon="11.893366671985227"><ele>2.0</ele><time>2026-03-23T10:56:30Z</time></trkpt><trkpt lat="44.97474676370052" lon="11.893237691579884"><ele>2.0</ele><time>2026-03-23T10:56:32Z</time></trkpt><trkpt lat="44.97472629304205" lon="11.893111475644687"><ele>2.0</ele><time>2026-03-23T10:56:34Z</time></trkpt><trkpt lat="44.97469563618529" lon="11.892986252749754"><ele>1.8333333333333333</ele><time>2026-03-23T10:56:36Z</time></trkpt><trkpt lat="44.97466330330584" lon="11.892858876675495"><ele>1.6666666666666665</ele><time>2026-03-23T10:56:38Z</time></trkpt><trkpt lat="44.9746201570344" lon="11.89274755240193"><ele>1.5</ele><time>2026-03-23T10:56:40Z</time></trkpt><trkpt lat="44.97458384385491" lon="11.892633059664725"><ele>1.3333333333333333</ele><time>2026-03-23T10:56:42Z</time></trkpt><trkpt lat="44.97455251070229" lon="11.892528605630782"><ele>1.1666666666666665</ele><time>2026-03-23T10:56:44Z</time></trkpt><trkpt lat="44.974518484131245" lon="11.892431931754032"><ele>1.0</ele><time>2026-03-23T10:56:46Z</time></trkpt><trkpt lat="44.974497023238996" lon="11.892336460457953"><ele>0.8333333333333333</ele><time>2026-03-23T10:56:48Z</time></trkpt><trkpt lat="44.97446146736799" lon="11.892250295698194"><ele>0.6666666666666666</ele><time>2026-03-23T10:56:50Z</time></trkpt><trkpt lat="44.974439353388874" lon="11.892158777854647"><ele>0.5</ele><time>2026-03-23T10:56:52Z</time></trkpt><trkpt lat="44.97440838406634" lon="11.89207332490485"><ele>0.3333333333333333</ele><time>2026-03-23T10:56:54Z</time></trkpt><trkpt lat="44.97437087168187" lon="11.891961475121578"><ele>0.16666666666666666</ele><time>2026-03-23T10:56:56Z</time></trkpt><trkpt lat="44.97434016761132" lon="11.891859936030603"><ele>0.0</ele><time>2026-03-23T10:56:58Z</time></trkpt><trkpt lat="44.97430756531734" lon="11.8917609581221"><ele>0.0</ele><time>2026-03-23T10:56:59.999Z</time></trkpt><trkpt lat="44.974278290586234" lon="11.891647152387376"><ele>0.0</ele><time>2026-03-23T10:57:01.999Z</time></trkpt><trkpt lat="44.97424481635016" lon="11.891532766754942"><ele>0.0</ele><time>2026-03-23T10:57:03.999Z</time></trkpt><trkpt lat="44.97420885355739" lon="11.891429352381559"><ele>0.0</ele><time>2026-03-23T10:57:05.999Z</time></trkpt><trkpt lat="44.97417679546698" lon="11.891331577679468"><ele>0.0</ele><time>2026-03-23T10:57:07.999Z</time></trkpt><trkpt lat="44.97414837239863" lon="11.891234289869233"><ele>0.0</ele><time>2026-03-23T10:57:09.999Z</time></trkpt><trkpt lat="44.97411408419463" lon="11.89114392944174"><ele>0.16666666666666666</ele><time>2026-03-23T10:57:11.999Z</time></trkpt><trkpt lat="44.97408527725452" lon="11.891031352001693"><ele>0.3333333333333333</ele><time>2026-03-23T10:57:13.999Z</time></trkpt><trkpt lat="44.974051664511215" lon="11.890922995567301"><ele>0.5</ele><time>2026-03-23T10:57:15.999Z</time></trkpt><trkpt lat="44.9740160905455" lon="11.890823918115736"><ele>0.6666666666666666</ele><time>2026-03-23T10:57:17.999Z</time></trkpt><trkpt lat="44.97399474511159" lon="11.89071890212307"><ele>0.8333333333333333</ele><time>2026-03-23T10:57:19.999Z</time></trkpt><trkpt lat="44.97396358772195" lon="11.890602639270869"><ele>1.0</ele><time>2026-03-23T10:57:21.999Z</time></trkpt><trkpt lat="44.97393835111165" lon="11.89048056310538"><ele>0.9999999999999999</ele><time>2026-03-23T10:57:23.999Z</time></trkpt><trkpt lat="44.973910093887795" lon="11.890367240030105"><ele>1.0</ele><time>2026-03-23T10:57:25.999Z</time></trkpt><trkpt lat="44.973883734142795" lon="11.890256948768117"><ele>1.0</ele><time>2026-03-23T10:57:27.999Z</time></trkpt><trkpt lat="44.97386081041749" lon="11.890149596397366"><ele>1.0</ele><time>2026-03-23T10:57:29.999Z</time></trkpt><trkpt lat="44.973837388541554" lon="11.890046441612096"><ele>0.9999999999999999</ele><time>2026-03-23T10:57:31.999Z</time></trkpt><trkpt lat="44.973817317728" lon="11.8899495946867"><ele>1.0</ele><time>2026-03-23T10:57:33.999Z</time></trkpt><trkpt lat="44.973826310036905" lon="11.889846646519544"><ele>0.9999999999999999</ele><time>2026-03-23T10:57:35.999Z</time></trkpt><trkpt lat="44.973798606048916" lon="11.88972024785321"><ele>1.0</ele><time>2026-03-23T10:57:38.999Z</time></trkpt><trkpt lat="44.97377142044234" lon="11.889596214254306"><ele>1.0</ele><time>2026-03-23T10:57:41.999Z</time></trkpt><trkpt lat="44.97374775002507" lon="11.889488218642558"><ele>1.0</ele><time>2026-03-23T10:57:43.999Z</time></trkpt><trkpt lat="44.97372143083819" lon="11.889368138074685"><ele>0.9999999999999999</ele><time>2026-03-23T10:57:46Z</time></trkpt><trkpt lat="44.973685439452545" lon="11.88926741953917"><ele>1.0</ele><time>2026-03-23T10:57:48Z</time></trkpt><trkpt lat="44.97368029548064" lon="11.889155344576302"><ele>0.8571428571428571</ele><time>2026-03-23T10:57:50Z</time></trkpt><trkpt lat="44.97366437278702" lon="11.889060613877884"><ele>0.7142857142857142</ele><time>2026-03-23T10:57:52Z</time></trkpt><trkpt lat="44.97365084365337" lon="11.888970053861776"><ele>0.5714285714285714</ele><time>2026-03-23T10:57:54Z</time></trkpt><trkpt lat="44.97363839024687" lon="11.888882348641175"><ele>0.42857142857142855</ele><time>2026-03-23T10:57:56Z</time></trkpt><trkpt lat="44.97362328664395" lon="11.888772559163622"><ele>0.2857142857142857</ele><time>2026-03-23T10:57:58Z</time></trkpt><trkpt lat="44.973607654358894" lon="11.88865090805463"><ele>0.14285714285714285</ele><time>2026-03-23T10:58:00Z</time></trkpt><trkpt lat="44.973594006401854" lon="11.888539432611466"><ele>0.0</ele><time>2026-03-23T10:58:02Z</time></trkpt><trkpt lat="44.97358081965764" lon="11.888431724352019"><ele>0.0</ele><time>2026-03-23T10:58:04Z</time></trkpt><trkpt lat="44.97356878727972" lon="11.888327016206768"><ele>0.0</ele><time>2026-03-23T10:58:06Z</time></trkpt><trkpt lat="44.97355777225592" lon="11.88822812674689"><ele>0.0</ele><time>2026-03-23T10:58:08Z</time></trkpt><trkpt lat="44.97354624511934" lon="11.888124639697425"><ele>0.0</ele><time>2026-03-23T10:58:10Z</time></trkpt><trkpt lat="44.97353266379352" lon="11.888002710833653"><ele>0.0</ele><time>2026-03-23T10:58:12Z</time></trkpt><trkpt lat="44.97352100497184" lon="11.88789427348472"><ele>0.0</ele><time>2026-03-23T10:58:14Z</time></trkpt><trkpt lat="44.97350902883992" lon="11.887779762198516"><ele>0.0</ele><time>2026-03-23T10:58:16Z</time></trkpt><trkpt lat="44.97349592826597" lon="11.887654499416453"><ele>0.0</ele><time>2026-03-23T10:58:18Z</time></trkpt><trkpt lat="44.973481913764445" lon="11.887520497967383"><ele>0.0</ele><time>2026-03-23T10:58:20Z</time></trkpt><trkpt lat="44.97346821990146" lon="11.887389562336013"><ele>0.0</ele><time>2026-03-23T10:58:22Z</time></trkpt><trkpt lat="44.97345422856132" lon="11.887255782401914"><ele>0.0</ele><time>2026-03-23T10:58:24Z</time></trkpt><trkpt lat="44.97343943680445" lon="11.88712376239728"><ele>0.0</ele><time>2026-03-23T10:58:26Z</time></trkpt><trkpt lat="44.9734240461067" lon="11.886992160764818"><ele>0.0</ele><time>2026-03-23T10:58:28Z</time></trkpt><trkpt lat="44.97340775684555" lon="11.88686801477462"><ele>0.0</ele><time>2026-03-23T10:58:30Z</time></trkpt><trkpt lat="44.97339125205625" lon="11.886747224356464"><ele>0.0</ele><time>2026-03-23T10:58:32Z</time></trkpt><trkpt lat="44.97337323494472" lon="11.886635004957517"><ele>0.0</ele><time>2026-03-23T10:58:34Z</time></trkpt><trkpt lat="44.973342257198816" lon="11.886528471935733"><ele>0.0</ele><time>2026-03-23T10:58:36Z</time></trkpt><trkpt lat="44.973322699921525" lon="11.886401440108596"><ele>0.2</ele><time>2026-03-23T10:58:38Z</time></trkpt><trkpt lat="44.97330174586457" lon="11.886272868377219"><ele>0.4</ele><time>2026-03-23T10:58:40Z</time></trkpt><trkpt lat="44.97328471167496" lon="11.88614340917296"><ele>0.6000000000000001</ele><time>2026-03-23T10:58:42Z</time></trkpt><trkpt lat="44.97326888644023" lon="11.886014795358498"><ele>0.8</ele><time>2026-03-23T10:58:44Z</time></trkpt><trkpt lat="44.973256446906944" lon="11.88588693570785"><ele>1.0</ele><time>2026-03-23T10:58:46Z</time></trkpt><trkpt lat="44.97324386135776" lon="11.885764908372147"><ele>0.9999999999999999</ele><time>2026-03-23T10:58:48Z</time></trkpt><trkpt lat="44.973222156922226" lon="11.885649195197209"><ele>1.0</ele><time>2026-03-23T10:58:50Z</time></trkpt><trkpt lat="44.97320965047226" lon="11.885534383977662"><ele>1.0</ele><time>2026-03-23T10:58:51.999Z</time></trkpt><trkpt lat="44.97319126366735" lon="11.88542992749714"><ele>1.0</ele><time>2026-03-23T10:58:53.999Z</time></trkpt><trkpt lat="44.97317131269911" lon="11.885321847913913"><ele>0.9999999999999999</ele><time>2026-03-23T10:58:55.999Z</time></trkpt><trkpt lat="44.97314992133987" lon="11.885203238568522"><ele>1.0</ele><time>2026-03-23T10:58:57.999Z</time></trkpt><trkpt lat="44.973129363155245" lon="11.88507748233318"><ele>0.9999999999999999</ele><time>2026-03-23T10:58:59.999Z</time></trkpt><trkpt lat="44.973109420213966" lon="11.884960820413895"><ele>1.0</ele><time>2026-03-23T10:59:01.999Z</time></trkpt><trkpt lat="44.973088230117305" lon="11.884850787114948"><ele>1.0</ele><time>2026-03-23T10:59:03.999Z</time></trkpt><trkpt lat="44.97306346015737" lon="11.884745264346122"><ele>1.0</ele><time>2026-03-23T10:59:05.999Z</time></trkpt><trkpt lat="44.973036236972" lon="11.88462376739946"><ele>0.9999999999999999</ele><time>2026-03-23T10:59:07.999Z</time></trkpt><trkpt lat="44.97301130843098" lon="11.884499344025961"><ele>1.0</ele><time>2026-03-23T10:59:09.999Z</time></trkpt><trkpt lat="44.97298190064188" lon="11.884372037479674"><ele>1.4</ele><time>2026-03-23T10:59:11.999Z</time></trkpt><trkpt lat="44.97294895668388" lon="11.884248387482769"><ele>1.8</ele><time>2026-03-23T10:59:13.999Z</time></trkpt><trkpt lat="44.97292033162798" lon="11.884123259155572"><ele>2.1999999999999997</ele><time>2026-03-23T10:59:15.999Z</time></trkpt><trkpt lat="44.97288921132914" lon="11.883996772474326"><ele>2.6</ele><time>2026-03-23T10:59:17.999Z</time></trkpt><trkpt lat="44.9728528524678" lon="11.883874363786084"><ele>3.0</ele><time>2026-03-23T10:59:19.999Z</time></trkpt><trkpt lat="44.97281152049983" lon="11.88375888479779"><ele>3.0</ele><time>2026-03-23T10:59:21.999Z</time></trkpt><trkpt lat="44.97276382057945" lon="11.88364807666709"><ele>3.0</ele><time>2026-03-23T10:59:23.999Z</time></trkpt><trkpt lat="44.97270410398584" lon="11.883545642168594"><ele>3.0</ele><time>2026-03-23T10:59:25.999Z</time></trkpt><trkpt lat="44.97263417934016" lon="11.883452894343984"><ele>3.0</ele><time>2026-03-23T10:59:27.999Z</time></trkpt><trkpt lat="44.97257164450239" lon="11.883358911759151"><ele>3.0</ele><time>2026-03-23T10:59:29.999Z</time></trkpt><trkpt lat="44.97249675867531" lon="11.883266316251447"><ele>3.2</ele><time>2026-03-23T10:59:31.999Z</time></trkpt><trkpt lat="44.97242809219883" lon="11.883164272748667"><ele>3.4</ele><time>2026-03-23T10:59:33.999Z</time></trkpt><trkpt lat="44.9723636459447" lon="11.883062188479217"><ele>3.6000000000000005</ele><time>2026-03-23T10:59:35.999Z</time></trkpt><trkpt lat="44.97231224302905" lon="11.882948625742207"><ele>3.8000000000000003</ele><time>2026-03-23T10:59:37.999Z</time></trkpt><trkpt lat="44.97224849269463" lon="11.882850922615118"><ele>4.0</ele><time>2026-03-23T10:59:39.999Z</time></trkpt><trkpt lat="44.972197686742284" lon="11.882738706135928"><ele>4.0</ele><time>2026-03-23T10:59:41.999Z</time></trkpt><trkpt lat="44.972146100611724" lon="11.882626578451795"><ele>4.0</ele><time>2026-03-23T10:59:43.999Z</time></trkpt><trkpt lat="44.97209508907063" lon="11.882510944319106"><ele>4.0</ele><time>2026-03-23T10:59:45.999Z</time></trkpt><trkpt lat="44.97204890429758" lon="11.882394790066195"><ele>4.0</ele><time>2026-03-23T10:59:47.999Z</time></trkpt><trkpt lat="44.97199828143825" lon="11.882278265766121"><ele>4.0</ele><time>2026-03-23T10:59:49.999Z</time></trkpt><trkpt lat="44.971951113264744" lon="11.882164541073676"><ele>3.8000000000000003</ele><time>2026-03-23T10:59:52Z</time></trkpt><trkpt lat="44.97190180046066" lon="11.882055868587932"><ele>3.6000000000000005</ele><time>2026-03-23T10:59:54Z</time></trkpt><trkpt lat="44.97185318995325" lon="11.881942984814303"><ele>3.4</ele><time>2026-03-23T10:59:56Z</time></trkpt><trkpt lat="44.97179494979591" lon="11.881828730800489"><ele>3.2</ele><time>2026-03-23T10:59:58Z</time></trkpt><trkpt lat="44.97174625252128" lon="11.881706763108518"><ele>3.0</ele><time>2026-03-23T11:00:00Z</time></trkpt><trkpt lat="44.971699914299414" lon="11.88158437099391"><ele>3.2</ele><time>2026-03-23T11:00:02Z</time></trkpt><trkpt lat="44.97165009648268" lon="11.88146448643923"><ele>3.4</ele><time>2026-03-23T11:00:04Z</time></trkpt><trkpt lat="44.971596967137835" lon="11.881345178250122"><ele>3.6000000000000005</ele><time>2026-03-23T11:00:06Z</time></trkpt><trkpt lat="44.97154348597454" lon="11.881227080204289"><ele>3.8000000000000003</ele><time>2026-03-23T11:00:08Z</time></trkpt><trkpt lat="44.971492600638165" lon="11.881103942516278"><ele>4.0</ele><time>2026-03-23T11:00:10Z</time></trkpt><trkpt lat="44.971439084907544" lon="11.880983507472564"><ele>4.2</ele><time>2026-03-23T11:00:12Z</time></trkpt><trkpt lat="44.97138785349853" lon="11.880858052795276"><ele>4.4</ele><time>2026-03-23T11:00:14Z</time></trkpt><trkpt lat="44.97133297458819" lon="11.880741738730995"><ele>4.6</ele><time>2026-03-23T11:00:16Z</time></trkpt><trkpt lat="44.971283836970194" lon="11.880621574785103"><ele>4.8</ele><time>2026-03-23T11:00:18Z</time></trkpt><trkpt lat="44.97122762109707" lon="11.880499925796942"><ele>5.0</ele><time>2026-03-23T11:00:20Z</time></trkpt><trkpt lat="44.971171818790594" lon="11.880376841644944"><ele>5.0</ele><time>2026-03-23T11:00:22Z</time></trkpt><trkpt lat="44.97112364479042" lon="11.880257189675378"><ele>5.0</ele><time>2026-03-23T11:00:24Z</time></trkpt><trkpt lat="44.97106868038811" lon="11.880139182484294"><ele>5.0</ele><time>2026-03-23T11:00:26Z</time></trkpt><trkpt lat="44.97101841264516" lon="11.880019572495568"><ele>5.0</ele><time>2026-03-23T11:00:28Z</time></trkpt><trkpt lat="44.970966832798496" lon="11.879897078058091"><ele>5.0</ele><time>2026-03-23T11:00:30Z</time></trkpt><trkpt lat="44.97091149917882" lon="11.879783428750319"><ele>4.8</ele><time>2026-03-23T11:00:32Z</time></trkpt><trkpt lat="44.97086288420449" lon="11.87966583859582"><ele>4.6</ele><time>2026-03-23T11:00:34Z</time></trkpt><trkpt lat="44.9708127219576" lon="11.879544753690539"><ele>4.4</ele><time>2026-03-23T11:00:36Z</time></trkpt><trkpt lat="44.97076103358253" lon="11.879431059268207"><ele>4.2</ele><time>2026-03-23T11:00:38Z</time></trkpt><trkpt lat="44.97071308611619" lon="11.879306110366574"><ele>4.0</ele><time>2026-03-23T11:00:40Z</time></trkpt><trkpt lat="44.970656237296915" lon="11.879196339933996"><ele>4.333333333333333</ele><time>2026-03-23T11:00:42Z</time></trkpt><trkpt lat="44.97061167021766" lon="11.87908346475785"><ele>4.666666666666666</ele><time>2026-03-23T11:00:44Z</time></trkpt><trkpt lat="44.97056045801166" lon="11.878977356541764"><ele>5.0</ele><time>2026-03-23T11:00:46Z</time></trkpt><trkpt lat="44.97052470784503" lon="11.878869160252343"><ele>5.333333333333333</ele><time>2026-03-23T11:00:48Z</time></trkpt><trkpt lat="44.970477675928045" lon="11.87877413225348"><ele>5.666666666666667</ele><time>2026-03-23T11:00:50Z</time></trkpt><trkpt lat="44.97043849316706" lon="11.878675488371615"><ele>6.0</ele><time>2026-03-23T11:00:52Z</time></trkpt><trkpt lat="44.970394168904335" lon="11.878566493989318"><ele>6.0</ele><time>2026-03-23T11:00:54Z</time></trkpt><trkpt lat="44.970345037423805" lon="11.878468017785243"><ele>6.0</ele><time>2026-03-23T11:00:56Z</time></trkpt><trkpt lat="44.97031616883472" lon="11.878365323728344"><ele>6.0</ele><time>2026-03-23T11:00:58Z</time></trkpt><trkpt lat="44.970284934521054" lon="11.8782719064848"><ele>6.0</ele><time>2026-03-23T11:01:00Z</time></trkpt><trkpt lat="44.97025243381909" lon="11.878172461505924"><ele>6.0</ele><time>2026-03-23T11:01:02Z</time></trkpt><trkpt lat="44.97022443130416" lon="11.878080608673185"><ele>6.0</ele><time>2026-03-23T11:01:04Z</time></trkpt><trkpt lat="44.97020433862263" lon="11.877988271453127"><ele>6.666666666666667</ele><time>2026-03-23T11:01:06Z</time></trkpt><trkpt lat="44.97017144589406" lon="11.877870928759233"><ele>7.333333333333334</ele><time>2026-03-23T11:01:08Z</time></trkpt><trkpt lat="44.97014159076483" lon="11.877763229002944"><ele>8.0</ele><time>2026-03-23T11:01:10Z</time></trkpt><trkpt lat="44.970123303554324" lon="11.877658371769158"><ele>8.666666666666668</ele><time>2026-03-23T11:01:12Z</time></trkpt><trkpt lat="44.970107678978344" lon="11.877559023269601"><ele>9.333333333333334</ele><time>2026-03-23T11:01:14Z</time></trkpt><trkpt lat="44.970095943831566" lon="11.8774432039212"><ele>10.0</ele><time>2026-03-23T11:01:16Z</time></trkpt><trkpt lat="44.97009650715011" lon="11.877324111803963"><ele>10.0</ele><time>2026-03-23T11:01:18Z</time></trkpt><trkpt lat="44.97010217467699" lon="11.877210770602018"><ele>10.0</ele><time>2026-03-23T11:01:20Z</time></trkpt><trkpt lat="44.97011351684363" lon="11.87710330789174"><ele>10.0</ele><time>2026-03-23T11:01:22Z</time></trkpt><trkpt lat="44.97013465236799" lon="11.877000969068328"><ele>10.0</ele><time>2026-03-23T11:01:23.999Z</time></trkpt><trkpt lat="44.97015950757253" lon="11.876909082442165"><ele>10.0</ele><time>2026-03-23T11:01:25.999Z</time></trkpt><trkpt lat="44.97018593734672" lon="11.876818499895267"><ele>10.0</ele><time>2026-03-23T11:01:27.999Z</time></trkpt><trkpt lat="44.970218876402164" lon="11.876729117890008"><ele>10.0</ele><time>2026-03-23T11:01:29.999Z</time></trkpt><trkpt lat="44.97024920743762" lon="11.876609442105636"><ele>10.0</ele><time>2026-03-23T11:01:31.999Z</time></trkpt><trkpt lat="44.97029156184346" lon="11.876504626717914"><ele>10.0</ele><time>2026-03-23T11:01:33.999Z</time></trkpt><trkpt lat="44.97032341637504" lon="11.876399313835043"><ele>10.0</ele><time>2026-03-23T11:01:35.999Z</time></trkpt><trkpt lat="44.970362201405585" lon="11.87631114811104"><ele>10.0</ele><time>2026-03-23T11:01:37.999Z</time></trkpt><trkpt lat="44.97039087203922" lon="11.876222968457549"><ele>10.0</ele><time>2026-03-23T11:01:39.999Z</time></trkpt><trkpt lat="44.97042318725733" lon="11.876144023302183"><ele>10.0</ele><time>2026-03-23T11:01:41.999Z</time></trkpt><trkpt lat="44.97045371184679" lon="11.876064305159321"><ele>10.0</ele><time>2026-03-23T11:01:43.999Z</time></trkpt><trkpt lat="44.970494348824175" lon="11.87596903143394"><ele>9.571428571428571</ele><time>2026-03-23T11:01:45.999Z</time></trkpt><trkpt lat="44.97053384349344" lon="11.875884312158727"><ele>9.142857142857142</ele><time>2026-03-23T11:01:47.999Z</time></trkpt><trkpt lat="44.970575348608826" lon="11.875784571461244"><ele>8.714285714285715</ele><time>2026-03-23T11:01:49.999Z</time></trkpt><trkpt lat="44.97062647353234" lon="11.87568924830957"><ele>8.285714285714285</ele><time>2026-03-23T11:01:51.999Z</time></trkpt><trkpt lat="44.970667753893856" lon="11.875599772116177"><ele>7.857142857142858</ele><time>2026-03-23T11:01:53.999Z</time></trkpt><trkpt lat="44.970702820899064" lon="11.875512862882736"><ele>7.428571428571429</ele><time>2026-03-23T11:01:55.999Z</time></trkpt><trkpt lat="44.97073557523174" lon="11.875433725256569"><ele>7.0</ele><time>2026-03-23T11:01:58Z</time></trkpt><trkpt lat="44.970768922820646" lon="11.87533123383028"><ele>7.000000000000001</ele><time>2026-03-23T11:02:00Z</time></trkpt><trkpt lat="44.970812891178284" lon="11.875232237127475"><ele>7.0</ele><time>2026-03-23T11:02:02Z</time></trkpt><trkpt lat="44.970850063138485" lon="11.87514580857203"><ele>7.0</ele><time>2026-03-23T11:02:04Z</time></trkpt><trkpt lat="44.97087786902125" lon="11.875058801689176"><ele>7.0</ele><time>2026-03-23T11:02:06Z</time></trkpt><trkpt lat="44.97089925612966" lon="11.874959148000064"><ele>7.000000000000001</ele><time>2026-03-23T11:02:08Z</time></trkpt><trkpt lat="44.970926510935634" lon="11.874842887442714"><ele>7.0</ele><time>2026-03-23T11:02:10Z</time></trkpt><trkpt lat="44.970958810279825" lon="11.87472505406257"><ele>6.833333333333334</ele><time>2026-03-23T11:02:12Z</time></trkpt><trkpt lat="44.97098620458925" lon="11.874614706396665"><ele>6.666666666666667</ele><time>2026-03-23T11:02:14Z</time></trkpt><trkpt lat="44.971003942138225" lon="11.874507951944313"><ele>6.5</ele><time>2026-03-23T11:02:16Z</time></trkpt><trkpt lat="44.97102406796453" lon="11.874393972703482"><ele>6.333333333333334</ele><time>2026-03-23T11:02:18Z</time></trkpt><trkpt lat="44.97104512550395" lon="11.874264892113123"><ele>6.166666666666667</ele><time>2026-03-23T11:02:20Z</time></trkpt><trkpt lat="44.97107214292706" lon="11.874137107679772"><ele>6.0</ele><time>2026-03-23T11:02:22Z</time></trkpt><trkpt lat="44.971096643680454" lon="11.874010365276773"><ele>5.8</ele><time>2026-03-23T11:02:24Z</time></trkpt><trkpt lat="44.97111560708749" lon="11.873880645402052"><ele>5.6</ele><time>2026-03-23T11:02:26Z</time></trkpt><trkpt lat="44.97113365139898" lon="11.873748412953333"><ele>5.4</ele><time>2026-03-23T11:02:28Z</time></trkpt><trkpt lat="44.97115249116611" lon="11.873614457955316"><ele>5.2</ele><time>2026-03-23T11:02:30Z</time></trkpt><trkpt lat="44.97117127531038" lon="11.873479377159281"><ele>5.0</ele><time>2026-03-23T11:02:32Z</time></trkpt><trkpt lat="44.97118828776788" lon="11.873352435965039"><ele>5.333333333333334</ele><time>2026-03-23T11:02:34Z</time></trkpt><trkpt lat="44.97119793169278" lon="11.873227291929037"><ele>5.666666666666667</ele><time>2026-03-23T11:02:36Z</time></trkpt><trkpt lat="44.97121335914297" lon="11.873114467776228"><ele>6.0</ele><time>2026-03-23T11:02:38Z</time></trkpt><trkpt lat="44.97121979471109" lon="11.873005645734057"><ele>6.333333333333334</ele><time>2026-03-23T11:02:40Z</time></trkpt><trkpt lat="44.97123232544113" lon="11.872885947117924"><ele>6.666666666666667</ele><time>2026-03-23T11:02:42Z</time></trkpt><trkpt lat="44.971257471361206" lon="11.872763599438965"><ele>7.0</ele><time>2026-03-23T11:02:44Z</time></trkpt><trkpt lat="44.971275849942316" lon="11.872643679890126"><ele>7.166666666666667</ele><time>2026-03-23T11:02:46Z</time></trkpt><trkpt lat="44.97128788783527" lon="11.872527459183956"><ele>7.333333333333334</ele><time>2026-03-23T11:02:48Z</time></trkpt><trkpt lat="44.97129658494024" lon="11.872412721249596"><ele>7.5</ele><time>2026-03-23T11:02:50Z</time></trkpt><trkpt lat="44.971301648442434" lon="11.872301189541076"><ele>7.666666666666666</ele><time>2026-03-23T11:02:52Z</time></trkpt><trkpt lat="44.97131517349488" lon="11.872195495043215"><ele>7.833333333333333</ele><time>2026-03-23T11:02:54Z</time></trkpt><trkpt lat="44.97133122617838" lon="11.872093479913179"><ele>8.0</ele><time>2026-03-23T11:02:56Z</time></trkpt><trkpt lat="44.97134255887493" lon="11.871994562714598"><ele>7.999999999999999</ele><time>2026-03-23T11:02:58Z</time></trkpt><trkpt lat="44.971350799875694" lon="11.871893951623244"><ele>8.0</ele><time>2026-03-23T11:03:00Z</time></trkpt><trkpt lat="44.97137460182429" lon="11.87180456266412"><ele>8.0</ele><time>2026-03-23T11:03:02Z</time></trkpt><trkpt lat="44.97137473857518" lon="11.871699116840693"><ele>8.0</ele><time>2026-03-23T11:03:04Z</time></trkpt><trkpt lat="44.97138365136348" lon="11.871569962971094"><ele>7.999999999999999</ele><time>2026-03-23T11:03:06Z</time></trkpt><trkpt lat="44.971395850204374" lon="11.87143836550819"><ele>8.0</ele><time>2026-03-23T11:03:08Z</time></trkpt><trkpt lat="44.97141045034902" lon="11.871306839851632"><ele>7.4</ele><time>2026-03-23T11:03:10Z</time></trkpt><trkpt lat="44.97142114352026" lon="11.871174821483288"><ele>6.800000000000001</ele><time>2026-03-23T11:03:12Z</time></trkpt><trkpt lat="44.97142969818475" lon="11.871041620164837"><ele>6.2</ele><time>2026-03-23T11:03:14Z</time></trkpt><trkpt lat="44.9714372189515" lon="11.870908597046336"><ele>5.6</ele><time>2026-03-23T11:03:16Z</time></trkpt><trkpt lat="44.971447032335575" lon="11.87077114992103"><ele>5.0</ele><time>2026-03-23T11:03:18Z</time></trkpt><trkpt lat="44.97145177495326" lon="11.870637393021239"><ele>5.0</ele><time>2026-03-23T11:03:20Z</time></trkpt><trkpt lat="44.971452644718894" lon="11.870504013539337"><ele>5.0</ele><time>2026-03-23T11:03:21.999Z</time></trkpt><trkpt lat="44.97145387928854" lon="11.870365258869993"><ele>5.0</ele><time>2026-03-23T11:03:23.999Z</time></trkpt><trkpt lat="44.97145383049343" lon="11.870227242830792"><ele>5.0</ele><time>2026-03-23T11:03:25.999Z</time></trkpt><trkpt lat="44.97144820767622" lon="11.870090609745542"><ele>5.0</ele><time>2026-03-23T11:03:27.999Z</time></trkpt><trkpt lat="44.971447902081465" lon="11.869950945209075"><ele>5.0</ele><time>2026-03-23T11:03:29.999Z</time></trkpt><trkpt lat="44.97144460183574" lon="11.869810846886715"><ele>5.0</ele><time>2026-03-23T11:03:31.999Z</time></trkpt><trkpt lat="44.971442753922695" lon="11.869672253714919"><ele>5.0</ele><time>2026-03-23T11:03:33.999Z</time></trkpt><trkpt lat="44.97143368112614" lon="11.869534566426731"><ele>5.0</ele><time>2026-03-23T11:03:35.999Z</time></trkpt><trkpt lat="44.97142685285103" lon="11.869401441189785"><ele>5.0</ele><time>2026-03-23T11:03:37.999Z</time></trkpt><trkpt lat="44.9714218160651" lon="11.869277473906108"><ele>5.0</ele><time>2026-03-23T11:03:39.999Z</time></trkpt><trkpt lat="44.97141299710204" lon="11.869152425328425"><ele>5.0</ele><time>2026-03-23T11:03:41.999Z</time></trkpt><trkpt lat="44.97141199370061" lon="11.869031300128379"><ele>5.0</ele><time>2026-03-23T11:03:43.999Z</time></trkpt><trkpt lat="44.97140038490459" lon="11.868917121873379"><ele>5.0</ele><time>2026-03-23T11:03:45.999Z</time></trkpt><trkpt lat="44.97140890184781" lon="11.868791645158737"><ele>5.0</ele><time>2026-03-23T11:03:47.999Z</time></trkpt><trkpt lat="44.97138667355552" lon="11.868653179003674"><ele>5.0</ele><time>2026-03-23T11:03:49.999Z</time></trkpt><trkpt lat="44.97138035161217" lon="11.868497267331955"><ele>5.0</ele><time>2026-03-23T11:03:51.999Z</time></trkpt><trkpt lat="44.97137206465762" lon="11.868334738949438"><ele>5.0</ele><time>2026-03-23T11:03:53.999Z</time></trkpt><trkpt lat="44.97136165904926" lon="11.868177593867395"><ele>5.0</ele><time>2026-03-23T11:03:55.999Z</time></trkpt><trkpt lat="44.97135357312553" lon="11.868027110179344"><ele>5.0</ele><time>2026-03-23T11:03:57.999Z</time></trkpt><trkpt lat="44.971338947946705" lon="11.86788044433411"><ele>5.0</ele><time>2026-03-23T11:03:59.999Z</time></trkpt><trkpt lat="44.97133391960573" lon="11.867742275216111"><ele>5.0</ele><time>2026-03-23T11:04:01.999Z</time></trkpt><trkpt lat="44.971318144349546" lon="11.867612520398206"><ele>5.0</ele><time>2026-03-23T11:04:04Z</time></trkpt><trkpt lat="44.971312896349716" lon="11.867485289771183"><ele>5.0</ele><time>2026-03-23T11:04:06Z</time></trkpt><trkpt lat="44.971302369876696" lon="11.86736766085897"><ele>5.0</ele><time>2026-03-23T11:04:08Z</time></trkpt><trkpt lat="44.971296202528265" lon="11.867234169071072"><ele>5.0</ele><time>2026-03-23T11:04:10Z</time></trkpt><trkpt lat="44.97128303763355" lon="11.867116675321302"><ele>5.0</ele><time>2026-03-23T11:04:12Z</time></trkpt><trkpt lat="44.97127140797969" lon="11.866983014583427"><ele>5.2</ele><time>2026-03-23T11:04:14Z</time></trkpt><trkpt lat="44.97125945862686" lon="11.866849256471333"><ele>5.4</ele><time>2026-03-23T11:04:16Z</time></trkpt><trkpt lat="44.971254369556135" lon="11.866715172983413"><ele>5.6</ele><time>2026-03-23T11:04:18Z</time></trkpt><trkpt lat="44.97123938597566" lon="11.86658177513997"><ele>5.8</ele><time>2026-03-23T11:04:20Z</time></trkpt><trkpt lat="44.97122798832185" lon="11.866455582064123"><ele>6.0</ele><time>2026-03-23T11:04:22Z</time></trkpt><trkpt lat="44.97122005170363" lon="11.866339790848993"><ele>6.5</ele><time>2026-03-23T11:04:24Z</time></trkpt><trkpt lat="44.97120933251416" lon="11.866232642878973"><ele>7.0</ele><time>2026-03-23T11:04:26Z</time></trkpt><trkpt lat="44.971198779980476" lon="11.866122009724188"><ele>7.5</ele><time>2026-03-23T11:04:28Z</time></trkpt><trkpt lat="44.97118908770795" lon="11.866004248224431"><ele>8.0</ele><time>2026-03-23T11:04:30Z</time></trkpt><trkpt lat="44.9711769084099" lon="11.865875262049574"><ele>8.5</ele><time>2026-03-23T11:04:32Z</time></trkpt><trkpt lat="44.97116150077068" lon="11.865741515051806"><ele>9.0</ele><time>2026-03-23T11:04:34Z</time></trkpt><trkpt lat="44.97114571346968" lon="11.865609403557292"><ele>9.166666666666666</ele><time>2026-03-23T11:04:36Z</time></trkpt><trkpt lat="44.97113494583019" lon="11.865483688962195"><ele>9.333333333333334</ele><time>2026-03-23T11:04:38Z</time></trkpt><trkpt lat="44.97112855121274" lon="11.865366016908585"><ele>9.5</ele><time>2026-03-23T11:04:40Z</time></trkpt><trkpt lat="44.97111442864679" lon="11.865239591102721"><ele>9.666666666666668</ele><time>2026-03-23T11:04:42Z</time></trkpt><trkpt lat="44.97109570163627" lon="11.865109663654662"><ele>9.833333333333334</ele><time>2026-03-23T11:04:44Z</time></trkpt><trkpt lat="44.97108171883007" lon="11.864982969826391"><ele>10.0</ele><time>2026-03-23T11:04:46Z</time></trkpt><trkpt lat="44.97106696226377" lon="11.864863374503521"><ele>10.5</ele><time>2026-03-23T11:04:48Z</time></trkpt><trkpt lat="44.971053896346234" lon="11.864741813592806"><ele>11.0</ele><time>2026-03-23T11:04:50Z</time></trkpt><trkpt lat="44.97104250500663" lon="11.864615744183668"><ele>11.5</ele><time>2026-03-23T11:04:52Z</time></trkpt><trkpt lat="44.9710321283088" lon="11.864495332933142"><ele>12.0</ele><time>2026-03-23T11:04:54Z</time></trkpt><trkpt lat="44.971020820354916" lon="11.864382809444894"><ele>12.499999999999998</ele><time>2026-03-23T11:04:56Z</time></trkpt><trkpt lat="44.97100473941108" lon="11.864277544278453"><ele>13.0</ele><time>2026-03-23T11:04:58Z</time></trkpt><trkpt lat="44.970995895207174" lon="11.864173827890959"><ele>13.166666666666666</ele><time>2026-03-23T11:05:00Z</time></trkpt><trkpt lat="44.9709828909373" lon="11.864066965683316"><ele>13.333333333333332</ele><time>2026-03-23T11:05:02Z</time></trkpt><trkpt lat="44.97097437874782" lon="11.863961477717025"><ele>13.5</ele><time>2026-03-23T11:05:04Z</time></trkpt><trkpt lat="44.97096596913118" lon="11.86385801458167"><ele>13.666666666666668</ele><time>2026-03-23T11:05:06Z</time></trkpt><trkpt lat="44.97095007905431" lon="11.86373783351753"><ele>13.833333333333334</ele><time>2026-03-23T11:05:08Z</time></trkpt><trkpt lat="44.970935667237654" lon="11.86360761762883"><ele>14.0</ele><time>2026-03-23T11:05:10Z</time></trkpt><trkpt lat="44.970924230508324" lon="11.863475784828024"><ele>13.166666666666668</ele><time>2026-03-23T11:05:12Z</time></trkpt><trkpt lat="44.97090699920151" lon="11.863349440545406"><ele>12.333333333333334</ele><time>2026-03-23T11:05:14Z</time></trkpt><trkpt lat="44.97089764114496" lon="11.863228206054725"><ele>11.5</ele><time>2026-03-23T11:05:16Z</time></trkpt><trkpt lat="44.97088319303272" lon="11.863118974024186"><ele>10.666666666666668</ele><time>2026-03-23T11:05:18Z</time></trkpt><trkpt lat="44.970873727138866" lon="11.86301431746859"><ele>9.833333333333334</ele><time>2026-03-23T11:05:19.999Z</time></trkpt><trkpt lat="44.97085984420714" lon="11.86291447359388"><ele>9.0</ele><time>2026-03-23T11:05:21.999Z</time></trkpt><trkpt lat="44.970863307266775" lon="11.862795067435181"><ele>8.833333333333334</ele><time>2026-03-23T11:05:23.999Z</time></trkpt><trkpt lat="44.97083576605358" lon="11.862686688140306"><ele>8.666666666666666</ele><time>2026-03-23T11:05:25.999Z</time></trkpt><trkpt lat="44.97083032252708" lon="11.862578124006243"><ele>8.5</ele><time>2026-03-23T11:05:27.999Z</time></trkpt><trkpt lat="44.970819607720486" lon="11.862481288567112"><ele>8.333333333333332</ele><time>2026-03-23T11:05:29.999Z</time></trkpt><trkpt lat="44.97081141282568" lon="11.862387776344756"><ele>8.166666666666666</ele><time>2026-03-23T11:05:31.999Z</time></trkpt><trkpt lat="44.97079732605854" lon="11.86227871439298"><ele>8.0</ele><time>2026-03-23T11:05:33.999Z</time></trkpt><trkpt lat="44.9707826313005" lon="11.862155562319113"><ele>7.833333333333333</ele><time>2026-03-23T11:05:35.999Z</time></trkpt><trkpt lat="44.97077531508676" lon="11.862039359037384"><ele>7.666666666666666</ele><time>2026-03-23T11:05:37.999Z</time></trkpt><trkpt lat="44.970761696210005" lon="11.861937040318388"><ele>7.5</ele><time>2026-03-23T11:05:39.999Z</time></trkpt><trkpt lat="44.97074825031096" lon="11.861842218381696"><ele>7.333333333333334</ele><time>2026-03-23T11:05:41.999Z</time></trkpt><trkpt lat="44.97073823787739" lon="11.861741550171752"><ele>7.166666666666667</ele><time>2026-03-23T11:05:43.999Z</time></trkpt><trkpt lat="44.97074150680552" lon="11.861623481237341"><ele>7.0</ele><time>2026-03-23T11:05:46.999Z</time></trkpt><trkpt lat="44.97072796470245" lon="11.861493215394663"><ele>7.000000000000001</ele><time>2026-03-23T11:05:49.999Z</time></trkpt><trkpt lat="44.97071606632673" lon="11.861378761123412"><ele>7.0</ele><time>2026-03-23T11:05:51.999Z</time></trkpt><trkpt lat="44.97070366114039" lon="11.861259431672135"><ele>7.0</ele><time>2026-03-23T11:05:53.999Z</time></trkpt><trkpt lat="44.970690387503296" lon="11.861131748371058"><ele>7.0</ele><time>2026-03-23T11:05:55.999Z</time></trkpt><trkpt lat="44.970677644157576" lon="11.861009166068204"><ele>7.000000000000001</ele><time>2026-03-23T11:05:57.999Z</time></trkpt><trkpt lat="44.97065829791078" lon="11.860893980068328"><ele>7.0</ele><time>2026-03-23T11:05:59.999Z</time></trkpt><trkpt lat="44.97063852858771" lon="11.86076939272281"><ele>7.166666666666667</ele><time>2026-03-23T11:06:01.999Z</time></trkpt><trkpt lat="44.970625167939716" lon="11.860640046541171"><ele>7.333333333333334</ele><time>2026-03-23T11:06:03.999Z</time></trkpt><trkpt lat="44.970616944378214" lon="11.860520372190603"><ele>7.5</ele><time>2026-03-23T11:06:05.999Z</time></trkpt><trkpt lat="44.97060145251938" lon="11.860405585317167"><ele>7.666666666666666</ele><time>2026-03-23T11:06:07.999Z</time></trkpt><trkpt lat="44.970590444095706" lon="11.860296765075832"><ele>7.833333333333333</ele><time>2026-03-23T11:06:10Z</time></trkpt><trkpt lat="44.97057860165384" lon="11.86017696404134"><ele>8.0</ele><time>2026-03-23T11:06:12Z</time></trkpt><trkpt lat="44.970570954770636" lon="11.860049359414123"><ele>8.0</ele><time>2026-03-23T11:06:14Z</time></trkpt><trkpt lat="44.970552468000385" lon="11.859920659195236"><ele>8.0</ele><time>2026-03-23T11:06:16Z</time></trkpt><trkpt lat="44.97054047800414" lon="11.859790253020991"><ele>8.0</ele><time>2026-03-23T11:06:18Z</time></trkpt><trkpt lat="44.970529367390846" lon="11.85965906723909"><ele>8.0</ele><time>2026-03-23T11:06:20Z</time></trkpt><trkpt lat="44.97051416850247" lon="11.859526230603423"><ele>8.0</ele><time>2026-03-23T11:06:22Z</time></trkpt><trkpt lat="44.97049898797662" lon="11.85939321032813"><ele>7.6000000000000005</ele><time>2026-03-23T11:06:24Z</time></trkpt><trkpt lat="44.97047823635352" lon="11.859262422408419"><ele>7.200000000000001</ele><time>2026-03-23T11:06:26Z</time></trkpt><trkpt lat="44.970467873348085" lon="11.85912487193602"><ele>6.8</ele><time>2026-03-23T11:06:28Z</time></trkpt><trkpt lat="44.97045673540944" lon="11.858991556301548"><ele>6.4</ele><time>2026-03-23T11:06:30Z</time></trkpt><trkpt lat="44.97043680319125" lon="11.85885810206943"><ele>6.0</ele><time>2026-03-23T11:06:32Z</time></trkpt><trkpt lat="44.9704280147107" lon="11.858717501058035"><ele>6.0</ele><time>2026-03-23T11:06:34Z</time></trkpt><trkpt lat="44.970407458790326" lon="11.858585376988804"><ele>6.0</ele><time>2026-03-23T11:06:36Z</time></trkpt><trkpt lat="44.97039929490244" lon="11.858455667128135"><ele>6.0</ele><time>2026-03-23T11:06:38Z</time></trkpt><trkpt lat="44.97038142225222" lon="11.85833745723191"><ele>6.0</ele><time>2026-03-23T11:06:40Z</time></trkpt><trkpt lat="44.97037174545616" lon="11.85822163277082"><ele>6.0</ele><time>2026-03-23T11:06:42Z</time></trkpt><trkpt lat="44.970362767998616" lon="11.85811083318009"><ele>6.0</ele><time>2026-03-23T11:06:44Z</time></trkpt><trkpt lat="44.970350793469855" lon="11.857998514632465"><ele>5.3999999999999995</ele><time>2026-03-23T11:06:46Z</time></trkpt><trkpt lat="44.970334643640484" lon="11.857870298431912"><ele>4.8</ele><time>2026-03-23T11:06:48Z</time></trkpt><trkpt lat="44.97032157139443" lon="11.857742708589361"><ele>4.199999999999999</ele><time>2026-03-23T11:06:50Z</time></trkpt><trkpt lat="44.9703127617741" lon="11.857609131647921"><ele>3.5999999999999996</ele><time>2026-03-23T11:06:52Z</time></trkpt><trkpt lat="44.97029720181293" lon="11.857475879926215"><ele>3.0</ele><time>2026-03-23T11:06:54Z</time></trkpt><trkpt lat="44.97028189003172" lon="11.857339950593484"><ele>3.0</ele><time>2026-03-23T11:06:56Z</time></trkpt><trkpt lat="44.97026874844049" lon="11.857204445302584"><ele>3.0</ele><time>2026-03-23T11:06:58Z</time></trkpt><trkpt lat="44.9702530487195" lon="11.857069905072708"><ele>3.0</ele><time>2026-03-23T11:07:00Z</time></trkpt><trkpt lat="44.97023912213267" lon="11.856937571575834"><ele>3.0</ele><time>2026-03-23T11:07:02Z</time></trkpt><trkpt lat="44.9702253159107" lon="11.856807036184723"><ele>3.0</ele><time>2026-03-23T11:07:04Z</time></trkpt><trkpt lat="44.97021159154158" lon="11.856672573791984"><ele>3.0</ele><time>2026-03-23T11:07:06Z</time></trkpt><trkpt lat="44.97019768916391" lon="11.856537373639132"><ele>3.0</ele><time>2026-03-23T11:07:08Z</time></trkpt><trkpt lat="44.970181770646754" lon="11.856403031830208"><ele>3.0</ele><time>2026-03-23T11:07:10Z</time></trkpt><trkpt lat="44.970166007082916" lon="11.856273888335227"><ele>3.0</ele><time>2026-03-23T11:07:12Z</time></trkpt><trkpt lat="44.97015731559795" lon="11.856143605636348"><ele>3.0</ele><time>2026-03-23T11:07:14Z</time></trkpt><trkpt lat="44.970138312944904" lon="11.85601473649555"><ele>3.3333333333333335</ele><time>2026-03-23T11:07:16Z</time></trkpt><trkpt lat="44.97012566287335" lon="11.855881493191232"><ele>3.666666666666667</ele><time>2026-03-23T11:07:18Z</time></trkpt><trkpt lat="44.970111634133914" lon="11.855752366410288"><ele>4.0</ele><time>2026-03-23T11:07:20Z</time></trkpt><trkpt lat="44.970101077390794" lon="11.85562304772604"><ele>4.333333333333334</ele><time>2026-03-23T11:07:22Z</time></trkpt><trkpt lat="44.97008964516898" lon="11.855503658027391"><ele>4.666666666666667</ele><time>2026-03-23T11:07:24Z</time></trkpt><trkpt lat="44.97007688782575" lon="11.855393997453257"><ele>5.0</ele><time>2026-03-23T11:07:26Z</time></trkpt><trkpt lat="44.97006311666802" lon="11.855284846330338"><ele>5.0</ele><time>2026-03-23T11:07:27.999Z</time></trkpt><trkpt lat="44.97005764056965" lon="11.855170850115803"><ele>5.0</ele><time>2026-03-23T11:07:29.999Z</time></trkpt><trkpt lat="44.97004696697157" lon="11.85504697435293"><ele>5.0</ele><time>2026-03-23T11:07:31.999Z</time></trkpt><trkpt lat="44.97003271125936" lon="11.854932202748023"><ele>5.0</ele><time>2026-03-23T11:07:33.999Z</time></trkpt><trkpt lat="44.97002250256272" lon="11.85482370106505"><ele>5.0</ele><time>2026-03-23T11:07:35.999Z</time></trkpt><trkpt lat="44.970007180107636" lon="11.8547193754015"><ele>5.0</ele><time>2026-03-23T11:07:37.999Z</time></trkpt><trkpt lat="44.969997627440314" lon="11.854606771694398"><ele>5.4</ele><time>2026-03-23T11:07:39.999Z</time></trkpt><trkpt lat="44.969983883371896" lon="11.854476287416377"><ele>5.8</ele><time>2026-03-23T11:07:41.999Z</time></trkpt><trkpt lat="44.96997208995285" lon="11.854345550474521"><ele>6.199999999999999</ele><time>2026-03-23T11:07:43.999Z</time></trkpt><trkpt lat="44.9699560624571" lon="11.854209938589873"><ele>6.6</ele><time>2026-03-23T11:07:45.999Z</time></trkpt><trkpt lat="44.96994629920859" lon="11.854089054481278"><ele>7.0</ele><time>2026-03-23T11:07:47.999Z</time></trkpt><trkpt lat="44.969927724713564" lon="11.853961536819654"><ele>7.166666666666667</ele><time>2026-03-23T11:07:49.999Z</time></trkpt><trkpt lat="44.96992056000937" lon="11.85384597218857"><ele>7.333333333333334</ele><time>2026-03-23T11:07:51.999Z</time></trkpt><trkpt lat="44.96991299487364" lon="11.853737074517253"><ele>7.5</ele><time>2026-03-23T11:07:53.999Z</time></trkpt><trkpt lat="44.969895663641104" lon="11.85362944776854"><ele>7.666666666666666</ele><time>2026-03-23T11:07:55.999Z</time></trkpt><trkpt lat="44.96988009223816" lon="11.853498129324077"><ele>7.833333333333333</ele><time>2026-03-23T11:07:57.999Z</time></trkpt><trkpt lat="44.96986465750721" lon="11.853370320681016"><ele>8.0</ele><time>2026-03-23T11:07:59.999Z</time></trkpt><trkpt lat="44.96985357513979" lon="11.853248076306004"><ele>7.999999999999999</ele><time>2026-03-23T11:08:01.999Z</time></trkpt><trkpt lat="44.96984095474403" lon="11.85313115574294"><ele>8.0</ele><time>2026-03-23T11:08:03.999Z</time></trkpt><trkpt lat="44.96983360175127" lon="11.853023191806523"><ele>8.0</ele><time>2026-03-23T11:08:05.999Z</time></trkpt><trkpt lat="44.96982132854159" lon="11.852921791255879"><ele>8.0</ele><time>2026-03-23T11:08:07.999Z</time></trkpt><trkpt lat="44.969806778181535" lon="11.852824234604183"><ele>7.999999999999999</ele><time>2026-03-23T11:08:09.999Z</time></trkpt><trkpt lat="44.96979560954227" lon="11.852697813338224"><ele>8.0</ele><time>2026-03-23T11:08:11.999Z</time></trkpt><trkpt lat="44.969787174113584" lon="11.852577281154076"><ele>7.999999999999999</ele><time>2026-03-23T11:08:13.999Z</time></trkpt><trkpt lat="44.96976944494584" lon="11.852457732000195"><ele>8.0</ele><time>2026-03-23T11:08:16Z</time></trkpt><trkpt lat="44.96976322212148" lon="11.852345544815371"><ele>8.0</ele><time>2026-03-23T11:08:18Z</time></trkpt><trkpt lat="44.96975013211792" lon="11.852237618513191"><ele>8.0</ele><time>2026-03-23T11:08:20Z</time></trkpt><trkpt lat="44.969737973287664" lon="11.852133198025726"><ele>7.999999999999999</ele><time>2026-03-23T11:08:22Z</time></trkpt><trkpt lat="44.969724925706856" lon="11.85201326886943"><ele>8.0</ele><time>2026-03-23T11:08:24Z</time></trkpt><trkpt lat="44.96971034247127" lon="11.851897224943384"><ele>7.833333333333333</ele><time>2026-03-23T11:08:26Z</time></trkpt><trkpt lat="44.96971511321783" lon="11.85178206875528"><ele>7.666666666666666</ele><time>2026-03-23T11:08:28Z</time></trkpt><trkpt lat="44.969704232780884" lon="11.85167728498486"><ele>7.5</ele><time>2026-03-23T11:08:30Z</time></trkpt><trkpt lat="44.969684837424666" lon="11.85157867586528"><ele>7.333333333333334</ele><time>2026-03-23T11:08:32Z</time></trkpt><trkpt lat="44.969673504209695" lon="11.851484970054813"><ele>7.166666666666667</ele><time>2026-03-23T11:08:34Z</time></trkpt><trkpt lat="44.96966032723" lon="11.851364158191856"><ele>7.0</ele><time>2026-03-23T11:08:36Z</time></trkpt><trkpt lat="44.96965486264779" lon="11.85124986370405"><ele>7.000000000000001</ele><time>2026-03-23T11:08:38Z</time></trkpt><trkpt lat="44.96964295669555" lon="11.851141086548857"><ele>7.0</ele><time>2026-03-23T11:08:40Z</time></trkpt><trkpt lat="44.969632414340865" lon="11.851035869194186"><ele>7.0</ele><time>2026-03-23T11:08:42Z</time></trkpt><trkpt lat="44.96961873715295" lon="11.850930652703436"><ele>7.0</ele><time>2026-03-23T11:08:44Z</time></trkpt><trkpt lat="44.96960658428142" lon="11.850812370428985"><ele>7.000000000000001</ele><time>2026-03-23T11:08:46Z</time></trkpt><trkpt lat="44.96959659305458" lon="11.85070528439557"><ele>7.0</ele><time>2026-03-23T11:08:48Z</time></trkpt><trkpt lat="44.96958969048703" lon="11.850598430073621"><ele>7.000000000000001</ele><time>2026-03-23T11:08:50Z</time></trkpt><trkpt lat="44.96957646354391" lon="11.850496608131431"><ele>7.0</ele><time>2026-03-23T11:08:52Z</time></trkpt><trkpt lat="44.96957352491726" lon="11.850368096675378"><ele>7.0</ele><time>2026-03-23T11:08:54Z</time></trkpt><trkpt lat="44.969564927122" lon="11.850240067480867"><ele>7.0</ele><time>2026-03-23T11:08:56Z</time></trkpt><trkpt lat="44.969552076639" lon="11.850127492634678"><ele>7.000000000000001</ele><time>2026-03-23T11:08:58Z</time></trkpt><trkpt lat="44.96954244649832" lon="11.850015328837813"><ele>7.0</ele><time>2026-03-23T11:09:00Z</time></trkpt><trkpt lat="44.96953646026164" lon="11.849910868009243"><ele>7.000000000000001</ele><time>2026-03-23T11:09:02Z</time></trkpt><trkpt lat="44.969529740890835" lon="11.849796920067606"><ele>7.0</ele><time>2026-03-23T11:09:04Z</time></trkpt><trkpt lat="44.96952688928908" lon="11.849670292198116"><ele>7.0</ele><time>2026-03-23T11:09:06Z</time></trkpt><trkpt lat="44.96951484933746" lon="11.849546365971106"><ele>7.0</ele><time>2026-03-23T11:09:08Z</time></trkpt><trkpt lat="44.96950711616576" lon="11.8494362457369"><ele>7.000000000000001</ele><time>2026-03-23T11:09:10Z</time></trkpt><trkpt lat="44.969495290087785" lon="11.849336570600101"><ele>7.0</ele><time>2026-03-23T11:09:12Z</time></trkpt><trkpt lat="44.969490337650726" lon="11.84921852858426"><ele>7.000000000000001</ele><time>2026-03-23T11:09:14Z</time></trkpt><trkpt lat="44.9694853984494" lon="11.849097510065237"><ele>7.0</ele><time>2026-03-23T11:09:16Z</time></trkpt><trkpt lat="44.96947821290789" lon="11.848987165566458"><ele>7.0</ele><time>2026-03-23T11:09:18Z</time></trkpt><trkpt lat="44.969471659233285" lon="11.848884443820424"><ele>7.0</ele><time>2026-03-23T11:09:20Z</time></trkpt><trkpt lat="44.9694633981107" lon="11.848774262766574"><ele>7.000000000000001</ele><time>2026-03-23T11:09:22Z</time></trkpt><trkpt lat="44.969452997411416" lon="11.848648753169153"><ele>7.0</ele><time>2026-03-23T11:09:24Z</time></trkpt><trkpt lat="44.96944830844633" lon="11.848516952427032"><ele>7.199999999999999</ele><time>2026-03-23T11:09:26Z</time></trkpt><trkpt lat="44.96943601976688" lon="11.848380602700136"><ele>7.3999999999999995</ele><time>2026-03-23T11:09:28Z</time></trkpt><trkpt lat="44.96942719014652" lon="11.848247683506505"><ele>7.6000000000000005</ele><time>2026-03-23T11:09:30Z</time></trkpt><trkpt lat="44.96942294489963" lon="11.848113161259358"><ele>7.800000000000001</ele><time>2026-03-23T11:09:32Z</time></trkpt><trkpt lat="44.96941905587152" lon="11.847977269137324"><ele>8.0</ele><time>2026-03-23T11:09:33.999Z</time></trkpt><trkpt lat="44.9694109277662" lon="11.847844303335542"><ele>8.0</ele><time>2026-03-23T11:09:35.999Z</time></trkpt><trkpt lat="44.96940583331501" lon="11.84771056466374"><ele>8.0</ele><time>2026-03-23T11:09:37.999Z</time></trkpt><trkpt lat="44.96940310193098" lon="11.847574815658279"><ele>8.0</ele><time>2026-03-23T11:09:39.999Z</time></trkpt><trkpt lat="44.96939350786553" lon="11.847441308542573"><ele>8.0</ele><time>2026-03-23T11:09:41.999Z</time></trkpt><trkpt lat="44.9693905921383" lon="11.847305068561807"><ele>8.0</ele><time>2026-03-23T11:09:43.999Z</time></trkpt><trkpt lat="44.969383966598144" lon="11.847171797487695"><ele>7.6000000000000005</ele><time>2026-03-23T11:09:45.999Z</time></trkpt><trkpt lat="44.969376453808266" lon="11.847038873666955"><ele>7.200000000000001</ele><time>2026-03-23T11:09:47.999Z</time></trkpt><trkpt lat="44.96937251649885" lon="11.846905915532316"><ele>6.8</ele><time>2026-03-23T11:09:49.999Z</time></trkpt><trkpt lat="44.96936478801458" lon="11.846772755507258"><ele>6.4</ele><time>2026-03-23T11:09:51.999Z</time></trkpt><trkpt lat="44.96936171466411" lon="11.846637759341986"><ele>6.0</ele><time>2026-03-23T11:09:53.999Z</time></trkpt><trkpt lat="44.96935960569838" lon="11.84650361775494"><ele>5.8</ele><time>2026-03-23T11:09:55.999Z</time></trkpt><trkpt lat="44.96935270303775" lon="11.846371112085397"><ele>5.6</ele><time>2026-03-23T11:09:57.999Z</time></trkpt><trkpt lat="44.969351847393774" lon="11.846239147847058"><ele>5.4</ele><time>2026-03-23T11:09:59.999Z</time></trkpt><trkpt lat="44.96934636416563" lon="11.846104088182539"><ele>5.2</ele><time>2026-03-23T11:10:01.999Z</time></trkpt><trkpt lat="44.96934094361768" lon="11.845979026745907"><ele>5.0</ele><time>2026-03-23T11:10:03.999Z</time></trkpt><trkpt lat="44.969338394664916" lon="11.845858125345384"><ele>5.333333333333334</ele><time>2026-03-23T11:10:05.999Z</time></trkpt><trkpt lat="44.96933950426467" lon="11.845743731083898"><ele>5.666666666666667</ele><time>2026-03-23T11:10:07.999Z</time></trkpt><trkpt lat="44.96933485137407" lon="11.84562992341065"><ele>6.0</ele><time>2026-03-23T11:10:09.999Z</time></trkpt><trkpt lat="44.96933169232355" lon="11.845513667772869"><ele>6.333333333333334</ele><time>2026-03-23T11:10:11.999Z</time></trkpt><trkpt lat="44.96932618580558" lon="11.845388836877529"><ele>6.666666666666667</ele><time>2026-03-23T11:10:13.999Z</time></trkpt><trkpt lat="44.969329041708775" lon="11.845276551488299"><ele>7.0</ele><time>2026-03-23T11:10:15.999Z</time></trkpt><trkpt lat="44.96932433340083" lon="11.84517600532532"><ele>7.0</ele><time>2026-03-23T11:10:17.999Z</time></trkpt><trkpt lat="44.969340173006394" lon="11.845058969128308"><ele>6.999999999999999</ele><time>2026-03-23T11:10:19.999Z</time></trkpt><trkpt lat="44.96932951002071" lon="11.84492922273806"><ele>6.999999999999999</ele><time>2026-03-23T11:10:22Z</time></trkpt><trkpt lat="44.96932691925078" lon="11.844797005135106"><ele>7.0</ele><time>2026-03-23T11:10:24Z</time></trkpt><trkpt lat="44.969328679517524" lon="11.844668153385415"><ele>7.0</ele><time>2026-03-23T11:10:26Z</time></trkpt><trkpt lat="44.969327213907995" lon="11.844535975651597"><ele>7.0</ele><time>2026-03-23T11:10:28Z</time></trkpt><trkpt lat="44.969329956119346" lon="11.844402970006072"><ele>6.999999999999999</ele><time>2026-03-23T11:10:30Z</time></trkpt><trkpt lat="44.96932717802556" lon="11.84426685431959"><ele>6.999999999999999</ele><time>2026-03-23T11:10:32Z</time></trkpt><trkpt lat="44.96932926173003" lon="11.844142941965464"><ele>7.0</ele><time>2026-03-23T11:10:34Z</time></trkpt><trkpt lat="44.969330542091235" lon="11.844023039496085"><ele>7.0</ele><time>2026-03-23T11:10:36Z</time></trkpt><trkpt lat="44.96932944915039" lon="11.843896191167223"><ele>7.166666666666667</ele><time>2026-03-23T11:10:38Z</time></trkpt><trkpt lat="44.96932519202074" lon="11.843766721896314"><ele>7.333333333333334</ele><time>2026-03-23T11:10:40Z</time></trkpt><trkpt lat="44.96933469902548" lon="11.843642955560796"><ele>7.5</ele><time>2026-03-23T11:10:42Z</time></trkpt><trkpt lat="44.96933211139338" lon="11.843531962015012"><ele>7.666666666666666</ele><time>2026-03-23T11:10:44Z</time></trkpt><trkpt lat="44.96933654872219" lon="11.843418532926114"><ele>7.833333333333333</ele><time>2026-03-23T11:10:46Z</time></trkpt><trkpt lat="44.96933467205336" lon="11.843285235496964"><ele>8.0</ele><time>2026-03-23T11:10:48Z</time></trkpt><trkpt lat="44.969343432456746" lon="11.84315325142327"><ele>8.333333333333332</ele><time>2026-03-23T11:10:50Z</time></trkpt><trkpt lat="44.969341339133884" lon="11.843021923047182"><ele>8.666666666666666</ele><time>2026-03-23T11:10:52Z</time></trkpt><trkpt lat="44.969343338079355" lon="11.842893557284134"><ele>9.0</ele><time>2026-03-23T11:10:54Z</time></trkpt><trkpt lat="44.96934082361836" lon="11.842775857876505"><ele>9.333333333333334</ele><time>2026-03-23T11:10:56Z</time></trkpt><trkpt lat="44.96936194819262" lon="11.842668558743279"><ele>9.666666666666668</ele><time>2026-03-23T11:10:58Z</time></trkpt><trkpt lat="44.9693576668642" lon="11.842567601942383"><ele>10.0</ele><time>2026-03-23T11:11:00Z</time></trkpt><trkpt lat="44.969360892893945" lon="11.842470562091536"><ele>10.0</ele><time>2026-03-23T11:11:02Z</time></trkpt><trkpt lat="44.96935924006449" lon="11.842376399270409"><ele>10.0</ele><time>2026-03-23T11:11:04Z</time></trkpt><trkpt lat="44.96937484795933" lon="11.84225463122089"><ele>10.0</ele><time>2026-03-23T11:11:06Z</time></trkpt><trkpt lat="44.969383420276195" lon="11.842132862187421"><ele>10.0</ele><time>2026-03-23T11:11:08Z</time></trkpt><trkpt lat="44.96939181555506" lon="11.84202080872969"><ele>10.0</ele><time>2026-03-23T11:11:10Z</time></trkpt><trkpt lat="44.96940098360919" lon="11.841914383402656"><ele>10.0</ele><time>2026-03-23T11:11:12Z</time></trkpt><trkpt lat="44.96941711801718" lon="11.841817427358434"><ele>10.0</ele><time>2026-03-23T11:11:14Z</time></trkpt><trkpt lat="44.96942167919797" lon="11.841726785212623"><ele>10.0</ele><time>2026-03-23T11:11:16Z</time></trkpt><trkpt lat="44.96943108804197" lon="11.84162791636335"><ele>10.0</ele><time>2026-03-23T11:11:18Z</time></trkpt><trkpt lat="44.96944640527759" lon="11.841530346382289"><ele>10.0</ele><time>2026-03-23T11:11:20Z</time></trkpt><trkpt lat="44.969458802116336" lon="11.841414957837674"><ele>10.0</ele><time>2026-03-23T11:11:22Z</time></trkpt><trkpt lat="44.969473809225484" lon="11.84129329662919"><ele>10.0</ele><time>2026-03-23T11:11:24Z</time></trkpt><trkpt lat="44.9694946402672" lon="11.841183350073248"><ele>10.0</ele><time>2026-03-23T11:11:26Z</time></trkpt><trkpt lat="44.96949991862338" lon="11.841072045378272"><ele>10.0</ele><time>2026-03-23T11:11:28Z</time></trkpt><trkpt lat="44.96951483241618" lon="11.840957777693939"><ele>10.0</ele><time>2026-03-23T11:11:30Z</time></trkpt><trkpt lat="44.96953207370038" lon="11.840829889985434"><ele>10.0</ele><time>2026-03-23T11:11:32Z</time></trkpt><trkpt lat="44.96955303323801" lon="11.840703611494664"><ele>10.0</ele><time>2026-03-23T11:11:34Z</time></trkpt><trkpt lat="44.96957019966405" lon="11.84057757885332"><ele>10.0</ele><time>2026-03-23T11:11:36Z</time></trkpt><trkpt lat="44.96959209989191" lon="11.8404512921209"><ele>9.8</ele><time>2026-03-23T11:11:38Z</time></trkpt><trkpt lat="44.9696062512522" lon="11.840323296666094"><ele>9.6</ele><time>2026-03-23T11:11:40Z</time></trkpt><trkpt lat="44.969623447870745" lon="11.8401931125611"><ele>9.4</ele><time>2026-03-23T11:11:42Z</time></trkpt><trkpt lat="44.96964488190871" lon="11.840065294145063"><ele>9.2</ele><time>2026-03-23T11:11:44Z</time></trkpt><trkpt lat="44.96966108135176" lon="11.839934365310269"><ele>9.0</ele><time>2026-03-23T11:11:46Z</time></trkpt><trkpt lat="44.96967313977432" lon="11.839801282230606"><ele>9.0</ele><time>2026-03-23T11:11:48Z</time></trkpt><trkpt lat="44.969700755278666" lon="11.839674137612654"><ele>9.0</ele><time>2026-03-23T11:11:49.999Z</time></trkpt><trkpt lat="44.96971828941928" lon="11.839547177887573"><ele>9.0</ele><time>2026-03-23T11:11:51.999Z</time></trkpt><trkpt lat="44.96973418561735" lon="11.839422693034605"><ele>9.0</ele><time>2026-03-23T11:11:53.999Z</time></trkpt><trkpt lat="44.96975459234126" lon="11.839304246141571"><ele>9.0</ele><time>2026-03-23T11:11:55.999Z</time></trkpt><trkpt lat="44.9697710611829" lon="11.839188931728222"><ele>9.0</ele><time>2026-03-23T11:11:57.999Z</time></trkpt><trkpt lat="44.96978390610735" lon="11.839062276163075"><ele>9.2</ele><time>2026-03-23T11:11:59.999Z</time></trkpt><trkpt lat="44.96980641904401" lon="11.838934288867971"><ele>9.4</ele><time>2026-03-23T11:12:01.999Z</time></trkpt><trkpt lat="44.969818658120836" lon="11.838809269863168"><ele>9.6</ele><time>2026-03-23T11:12:03.999Z</time></trkpt><trkpt lat="44.96983500488516" lon="11.83867534071911"><ele>9.8</ele><time>2026-03-23T11:12:05.999Z</time></trkpt><trkpt lat="44.96985809565521" lon="11.838546282745309"><ele>10.0</ele><time>2026-03-23T11:12:07.999Z</time></trkpt><trkpt lat="44.96987442590421" lon="11.838413527941865"><ele>10.166666666666668</ele><time>2026-03-23T11:12:09.999Z</time></trkpt><trkpt lat="44.96990266930484" lon="11.838285828663466"><ele>10.333333333333334</ele><time>2026-03-23T11:12:11.999Z</time></trkpt><trkpt lat="44.969922482003724" lon="11.83815175995732"><ele>10.5</ele><time>2026-03-23T11:12:13.999Z</time></trkpt><trkpt lat="44.96994592082861" lon="11.838034508103922"><ele>10.666666666666666</ele><time>2026-03-23T11:12:15.999Z</time></trkpt><trkpt lat="44.96995435875763" lon="11.837913362965322"><ele>10.833333333333332</ele><time>2026-03-23T11:12:17.999Z</time></trkpt><trkpt lat="44.96996351451009" lon="11.837801586817879"><ele>11.0</ele><time>2026-03-23T11:12:19.999Z</time></trkpt><trkpt lat="44.9699822989987" lon="11.837694932371456"><ele>11.0</ele><time>2026-03-23T11:12:21.999Z</time></trkpt><trkpt lat="44.97001135338909" lon="11.83760959297696"><ele>11.0</ele><time>2026-03-23T11:12:23.999Z</time></trkpt><trkpt lat="44.970020174734216" lon="11.837492747610808"><ele>11.0</ele><time>2026-03-23T11:12:25.999Z</time></trkpt><trkpt lat="44.97003848858068" lon="11.837363372136007"><ele>11.0</ele><time>2026-03-23T11:12:28Z</time></trkpt><trkpt lat="44.97005740391645" lon="11.83723569599894"><ele>11.0</ele><time>2026-03-23T11:12:30Z</time></trkpt><trkpt lat="44.97007706808459" lon="11.837104336939877"><ele>11.0</ele><time>2026-03-23T11:12:32Z</time></trkpt><trkpt lat="44.97009385926617" lon="11.836968611542007"><ele>9.8</ele><time>2026-03-23T11:12:34Z</time></trkpt><trkpt lat="44.97011534095787" lon="11.83683540573557"><ele>8.600000000000001</ele><time>2026-03-23T11:12:36Z</time></trkpt><trkpt lat="44.97013410361975" lon="11.836702205823583"><ele>7.4</ele><time>2026-03-23T11:12:38Z</time></trkpt><trkpt lat="44.970151317058516" lon="11.836571108068805"><ele>6.2</ele><time>2026-03-23T11:12:40Z</time></trkpt><trkpt lat="44.9701708769811" lon="11.83643671743185"><ele>5.0</ele><time>2026-03-23T11:12:42Z</time></trkpt><trkpt lat="44.970189792075736" lon="11.836303956407862"><ele>4.8</ele><time>2026-03-23T11:12:44Z</time></trkpt><trkpt lat="44.970205133733955" lon="11.836159036919854"><ele>4.6</ele><time>2026-03-23T11:12:46Z</time></trkpt><trkpt lat="44.97023256463003" lon="11.836028992828162"><ele>4.4</ele><time>2026-03-23T11:12:48Z</time></trkpt><trkpt lat="44.970248387295115" lon="11.83591048762267"><ele>4.2</ele><time>2026-03-23T11:12:50Z</time></trkpt><trkpt lat="44.970273423531744" lon="11.83579190235547"><ele>4.0</ele><time>2026-03-23T11:12:52Z</time></trkpt><trkpt lat="44.970290926871705" lon="11.835683982226458"><ele>4.666666666666666</ele><time>2026-03-23T11:12:54Z</time></trkpt><trkpt lat="44.97031065161412" lon="11.835580548719795"><ele>5.333333333333333</ele><time>2026-03-23T11:12:56Z</time></trkpt><trkpt lat="44.970328429558826" lon="11.835483503027211"><ele>6.0</ele><time>2026-03-23T11:12:58Z</time></trkpt><trkpt lat="44.97034608897917" lon="11.835379329056575"><ele>6.666666666666666</ele><time>2026-03-23T11:13:00Z</time></trkpt><trkpt lat="44.97037104413424" lon="11.835263926205753"><ele>7.333333333333333</ele><time>2026-03-23T11:13:02Z</time></trkpt><trkpt lat="44.97039614546099" lon="11.835156615252325"><ele>8.0</ele><time>2026-03-23T11:13:04Z</time></trkpt><trkpt lat="44.97041471485796" lon="11.835050896775119"><ele>8.333333333333332</ele><time>2026-03-23T11:13:06Z</time></trkpt><trkpt lat="44.97043811923824" lon="11.834948515621102"><ele>8.666666666666666</ele><time>2026-03-23T11:13:08Z</time></trkpt><trkpt lat="44.97046083760248" lon="11.83485776795176"><ele>9.0</ele><time>2026-03-23T11:13:10Z</time></trkpt><trkpt lat="44.97047906228088" lon="11.83476681217233"><ele>9.333333333333334</ele><time>2026-03-23T11:13:12Z</time></trkpt><trkpt lat="44.97050056924814" lon="11.834650859260458"><ele>9.666666666666668</ele><time>2026-03-23T11:13:14Z</time></trkpt><trkpt lat="44.970524845106475" lon="11.83452234678709"><ele>10.0</ele><time>2026-03-23T11:13:16Z</time></trkpt><trkpt lat="44.97055340850673" lon="11.834417977918283"><ele>10.0</ele><time>2026-03-23T11:13:18Z</time></trkpt><trkpt lat="44.9705735464646" lon="11.834315347197782"><ele>10.0</ele><time>2026-03-23T11:13:20Z</time></trkpt><trkpt lat="44.97060142096377" lon="11.834221108615639"><ele>10.0</ele><time>2026-03-23T11:13:22Z</time></trkpt><trkpt lat="44.970610588159566" lon="11.834121802604269"><ele>10.0</ele><time>2026-03-23T11:13:24Z</time></trkpt><trkpt lat="44.97063742808916" lon="11.834021821359215"><ele>10.0</ele><time>2026-03-23T11:13:26Z</time></trkpt><trkpt lat="44.97066314187588" lon="11.833898031143574"><ele>10.0</ele><time>2026-03-23T11:13:28Z</time></trkpt><trkpt lat="44.9706875586816" lon="11.83376508017288"><ele>9.6</ele><time>2026-03-23T11:13:30Z</time></trkpt><trkpt lat="44.97072231550718" lon="11.833639012820933"><ele>9.2</ele><time>2026-03-23T11:13:32Z</time></trkpt><trkpt lat="44.97074362535818" lon="11.833505300241839"><ele>8.8</ele><time>2026-03-23T11:13:34Z</time></trkpt><trkpt lat="44.970781487103686" lon="11.833380207132233"><ele>8.4</ele><time>2026-03-23T11:13:36Z</time></trkpt><trkpt lat="44.970803631687446" lon="11.83324596892787"><ele>8.0</ele><time>2026-03-23T11:13:38Z</time></trkpt><trkpt lat="44.970830968960634" lon="11.833113884104481"><ele>7.833333333333333</ele><time>2026-03-23T11:13:40Z</time></trkpt><trkpt lat="44.970856731939215" lon="11.832979091084576"><ele>7.666666666666666</ele><time>2026-03-23T11:13:41.999Z</time></trkpt><trkpt lat="44.97087914128121" lon="11.832856861786299"><ele>7.5</ele><time>2026-03-23T11:13:43.999Z</time></trkpt><trkpt lat="44.9708985288979" lon="11.832744594032958"><ele>7.333333333333334</ele><time>2026-03-23T11:13:45.999Z</time></trkpt><trkpt lat="44.970919977085885" lon="11.832626705281964"><ele>7.166666666666667</ele><time>2026-03-23T11:13:47.999Z</time></trkpt><trkpt lat="44.970935484485345" lon="11.832496461105126"><ele>7.0</ele><time>2026-03-23T11:13:49.999Z</time></trkpt><trkpt lat="44.97094442202789" lon="11.832365411052107"><ele>6.0</ele><time>2026-03-23T11:13:51.999Z</time></trkpt><trkpt lat="44.97095847795065" lon="11.832240944108435"><ele>4.999999999999999</ele><time>2026-03-23T11:13:53.999Z</time></trkpt><trkpt lat="44.97097690951891" lon="11.832124093295656"><ele>4.0</ele><time>2026-03-23T11:13:55.999Z</time></trkpt><trkpt lat="44.97100103481029" lon="11.83199763104364"><ele>3.0</ele><time>2026-03-23T11:13:57.999Z</time></trkpt><trkpt lat="44.97102050964937" lon="11.83186675202025"><ele>2.0</ele><time>2026-03-23T11:13:59.999Z</time></trkpt><trkpt lat="44.97103676199537" lon="11.831732130741447"><ele>2.0</ele><time>2026-03-23T11:14:01.999Z</time></trkpt><trkpt lat="44.97105653091076" lon="11.831597793638105"><ele>2.0</ele><time>2026-03-23T11:14:03.999Z</time></trkpt><trkpt lat="44.97107794257089" lon="11.831466644714551"><ele>2.0</ele><time>2026-03-23T11:14:05.999Z</time></trkpt><trkpt lat="44.97110015050809" lon="11.831340554721416"><ele>2.0</ele><time>2026-03-23T11:14:07.999Z</time></trkpt><trkpt lat="44.97111850007072" lon="11.83121286557606"><ele>2.0</ele><time>2026-03-23T11:14:09.999Z</time></trkpt><trkpt lat="44.97114358948613" lon="11.831084708919105"><ele>2.4000000000000004</ele><time>2026-03-23T11:14:11.999Z</time></trkpt><trkpt lat="44.97116530744631" lon="11.830957608827353"><ele>2.8000000000000003</ele><time>2026-03-23T11:14:13.999Z</time></trkpt><trkpt lat="44.97118722726537" lon="11.830826892836837"><ele>3.2</ele><time>2026-03-23T11:14:15.999Z</time></trkpt><trkpt lat="44.97121377827116" lon="11.830694976634192"><ele>3.6</ele><time>2026-03-23T11:14:17.999Z</time></trkpt><trkpt lat="44.971242967197504" lon="11.830562748376824"><ele>4.0</ele><time>2026-03-23T11:14:19.999Z</time></trkpt><trkpt lat="44.97126459837161" lon="11.830427137791775"><ele>4.0</ele><time>2026-03-23T11:14:21.999Z</time></trkpt><trkpt lat="44.971286765419414" lon="11.830292959486544"><ele>4.0</ele><time>2026-03-23T11:14:23.999Z</time></trkpt><trkpt lat="44.97130604205375" lon="11.830158965776224"><ele>4.0</ele><time>2026-03-23T11:14:25.999Z</time></trkpt><trkpt lat="44.97132939134337" lon="11.830033158862951"><ele>4.0</ele><time>2026-03-23T11:14:27.999Z</time></trkpt><trkpt lat="44.971355962584866" lon="11.829922468477458"><ele>4.0</ele><time>2026-03-23T11:14:29.999Z</time></trkpt><trkpt lat="44.971378720841955" lon="11.829806938030373"><ele>4.2</ele><time>2026-03-23T11:14:31.999Z</time></trkpt><trkpt lat="44.97140405874455" lon="11.829684760016105"><ele>4.4</ele><time>2026-03-23T11:14:34Z</time></trkpt><trkpt lat="44.97144067182485" lon="11.829563688195353"><ele>4.6</ele><time>2026-03-23T11:14:36Z</time></trkpt><trkpt lat="44.971473575839546" lon="11.829440720264717"><ele>4.8</ele><time>2026-03-23T11:14:38Z</time></trkpt><trkpt lat="44.97151257661843" lon="11.829323109313505"><ele>5.0</ele><time>2026-03-23T11:14:40Z</time></trkpt><trkpt lat="44.97154723048589" lon="11.829203535127533"><ele>5.166666666666667</ele><time>2026-03-23T11:14:42Z</time></trkpt><trkpt lat="44.97157665193917" lon="11.829078980819475"><ele>5.333333333333334</ele><time>2026-03-23T11:14:44Z</time></trkpt><trkpt lat="44.971612256895014" lon="11.82895904468987"><ele>5.5</ele><time>2026-03-23T11:14:46Z</time></trkpt><trkpt lat="44.971647138814156" lon="11.82884186866505"><ele>5.666666666666667</ele><time>2026-03-23T11:14:48Z</time></trkpt><trkpt lat="44.97167586098853" lon="11.828731267360096"><ele>5.833333333333333</ele><time>2026-03-23T11:14:50Z</time></trkpt><trkpt lat="44.97169908735594" lon="11.828618709832172"><ele>6.0</ele><time>2026-03-23T11:14:52Z</time></trkpt><trkpt lat="44.971738679916434" lon="11.828504675949832"><ele>5.666666666666667</ele><time>2026-03-23T11:14:54Z</time></trkpt><trkpt lat="44.971763983711156" lon="11.828384274753533"><ele>5.333333333333333</ele><time>2026-03-23T11:14:56Z</time></trkpt><trkpt lat="44.97180110312491" lon="11.8282759884648"><ele>5.0</ele><time>2026-03-23T11:14:58Z</time></trkpt><trkpt lat="44.97183252249738" lon="11.828172720620111"><ele>4.666666666666666</ele><time>2026-03-23T11:15:00Z</time></trkpt><trkpt lat="44.9718650188206" lon="11.828051857851685"><ele>4.333333333333333</ele><time>2026-03-23T11:15:02Z</time></trkpt><trkpt lat="44.97189347066024" lon="11.827928051786463"><ele>4.0</ele><time>2026-03-23T11:15:04Z</time></trkpt><trkpt lat="44.971932512146395" lon="11.827813937303333"><ele>3.9999999999999996</ele><time>2026-03-23T11:15:06Z</time></trkpt><trkpt lat="44.97196405699287" lon="11.827710105814734"><ele>4.0</ele><time>2026-03-23T11:15:08Z</time></trkpt><trkpt lat="44.971996272215605" lon="11.82760716880922"><ele>4.0</ele><time>2026-03-23T11:15:10Z</time></trkpt><trkpt lat="44.97202263290449" lon="11.827493885478766"><ele>4.0</ele><time>2026-03-23T11:15:12Z</time></trkpt><trkpt lat="44.97204682632447" lon="11.827397567618506"><ele>3.9999999999999996</ele><time>2026-03-23T11:15:14Z</time></trkpt><trkpt lat="44.972082230994445" lon="11.82730663592162"><ele>4.0</ele><time>2026-03-23T11:15:16Z</time></trkpt><trkpt lat="44.972112832511066" lon="11.827188602563915"><ele>4.166666666666666</ele><time>2026-03-23T11:15:18Z</time></trkpt><trkpt lat="44.97214835459875" lon="11.827071493882245"><ele>4.333333333333333</ele><time>2026-03-23T11:15:20Z</time></trkpt><trkpt lat="44.97218571110254" lon="11.8269604028548"><ele>4.5</ele><time>2026-03-23T11:15:22Z</time></trkpt><trkpt lat="44.97222920946803" lon="11.826847820368503"><ele>4.666666666666667</ele><time>2026-03-23T11:15:24Z</time></trkpt><trkpt lat="44.972269744639185" lon="11.826739627941615"><ele>4.833333333333334</ele><time>2026-03-23T11:15:26Z</time></trkpt><trkpt lat="44.97230696789678" lon="11.826637864361015"><ele>5.0</ele><time>2026-03-23T11:15:28Z</time></trkpt><trkpt lat="44.972343970996654" lon="11.826520520127225"><ele>5.166666666666667</ele><time>2026-03-23T11:15:30Z</time></trkpt><trkpt lat="44.97238914797979" lon="11.826404970381914"><ele>5.333333333333334</ele><time>2026-03-23T11:15:32Z</time></trkpt><trkpt lat="44.97242049040286" lon="11.826289348824774"><ele>5.5</ele><time>2026-03-23T11:15:34Z</time></trkpt><trkpt lat="44.97244891223909" lon="11.826182332409946"><ele>5.666666666666667</ele><time>2026-03-23T11:15:36Z</time></trkpt><trkpt lat="44.972470554845245" lon="11.826074215476304"><ele>5.833333333333333</ele><time>2026-03-23T11:15:38Z</time></trkpt><trkpt lat="44.97248838471459" lon="11.825956031800203"><ele>6.0</ele><time>2026-03-23T11:15:40Z</time></trkpt><trkpt lat="44.972519374978205" lon="11.825842475205828"><ele>5.6</ele><time>2026-03-23T11:15:41.999Z</time></trkpt><trkpt lat="44.972537121908736" lon="11.825720443568786"><ele>5.199999999999999</ele><time>2026-03-23T11:15:43.999Z</time></trkpt><trkpt lat="44.97256434958358" lon="11.825595079481703"><ele>4.800000000000001</ele><time>2026-03-23T11:15:45.999Z</time></trkpt><trkpt lat="44.97259567664877" lon="11.825478607806232"><ele>4.4</ele><time>2026-03-23T11:15:47.999Z</time></trkpt><trkpt lat="44.97262802058138" lon="11.825354447495684"><ele>4.0</ele><time>2026-03-23T11:15:49.999Z</time></trkpt><trkpt lat="44.97265090014231" lon="11.825234739640662"><ele>3.9999999999999996</ele><time>2026-03-23T11:15:51.999Z</time></trkpt><trkpt lat="44.972673205495575" lon="11.825118427652464"><ele>4.0</ele><time>2026-03-23T11:15:53.999Z</time></trkpt><trkpt lat="44.97270015318249" lon="11.825000912839158"><ele>4.0</ele><time>2026-03-23T11:15:55.999Z</time></trkpt><trkpt lat="44.97271696520435" lon="11.824876179119302"><ele>4.0</ele><time>2026-03-23T11:15:57.999Z</time></trkpt><trkpt lat="44.9727413634024" lon="11.824758255239859"><ele>3.9999999999999996</ele><time>2026-03-23T11:15:59.999Z</time></trkpt><trkpt lat="44.97276596369035" lon="11.8246383379517"><ele>4.0</ele><time>2026-03-23T11:16:01.999Z</time></trkpt><trkpt lat="44.972793991448704" lon="11.824516836388403"><ele>4.0</ele><time>2026-03-23T11:16:03.999Z</time></trkpt><trkpt lat="44.97281628026378" lon="11.824396079533448"><ele>4.0</ele><time>2026-03-23T11:16:05.999Z</time></trkpt><trkpt lat="44.97284380432289" lon="11.824278914042631"><ele>4.0</ele><time>2026-03-23T11:16:07.999Z</time></trkpt><trkpt lat="44.972859521563876" lon="11.824151290526945"><ele>4.0</ele><time>2026-03-23T11:16:09.999Z</time></trkpt><trkpt lat="44.972885461107005" lon="11.82402359710492"><ele>4.0</ele><time>2026-03-23T11:16:11.999Z</time></trkpt><trkpt lat="44.97291961123889" lon="11.82390001638418"><ele>4.0</ele><time>2026-03-23T11:16:13.999Z</time></trkpt><trkpt lat="44.97293720722842" lon="11.823770054528344"><ele>4.0</ele><time>2026-03-23T11:16:15.999Z</time></trkpt><trkpt lat="44.9729738651036" lon="11.823650552652127"><ele>4.0</ele><time>2026-03-23T11:16:17.999Z</time></trkpt><trkpt lat="44.972997013901626" lon="11.82353212993591"><ele>4.0</ele><time>2026-03-23T11:16:19.999Z</time></trkpt><trkpt lat="44.97302057738386" lon="11.8234138876471"><ele>4.0</ele><time>2026-03-23T11:16:21.999Z</time></trkpt><trkpt lat="44.973049340813645" lon="11.82328705913219"><ele>3.9999999999999996</ele><time>2026-03-23T11:16:23.999Z</time></trkpt><trkpt lat="44.97307586780197" lon="11.823162595318319"><ele>4.0</ele><time>2026-03-23T11:16:25.999Z</time></trkpt><trkpt lat="44.973108475681855" lon="11.823051452926563"><ele>4.0</ele><time>2026-03-23T11:16:27.999Z</time></trkpt><trkpt lat="44.97314077004763" lon="11.822945510799398"><ele>4.0</ele><time>2026-03-23T11:16:29.999Z</time></trkpt><trkpt lat="44.97316201392141" lon="11.822831297948753"><ele>3.9999999999999996</ele><time>2026-03-23T11:16:31.999Z</time></trkpt><trkpt lat="44.97318617518322" lon="11.822708157056963"><ele>4.0</ele><time>2026-03-23T11:16:33.999Z</time></trkpt><trkpt lat="44.97321401956989" lon="11.822586170833453"><ele>3.9999999999999996</ele><time>2026-03-23T11:16:35.999Z</time></trkpt><trkpt lat="44.973242251157544" lon="11.82247115910351"><ele>4.0</ele><time>2026-03-23T11:16:37.999Z</time></trkpt><trkpt lat="44.973267857572885" lon="11.822357873436568"><ele>4.0</ele><time>2026-03-23T11:16:40Z</time></trkpt><trkpt lat="44.973289317296754" lon="11.822235500788233"><ele>4.0</ele><time>2026-03-23T11:16:42Z</time></trkpt><trkpt lat="44.97331871364133" lon="11.82211012047919"><ele>3.9999999999999996</ele><time>2026-03-23T11:16:44Z</time></trkpt><trkpt lat="44.973347260185164" lon="11.821981815776871"><ele>4.0</ele><time>2026-03-23T11:16:46Z</time></trkpt><trkpt lat="44.973384250248564" lon="11.821862185006129"><ele>3.9999999999999996</ele><time>2026-03-23T11:16:48Z</time></trkpt><trkpt lat="44.97340700035796" lon="11.821739228692907"><ele>4.0</ele><time>2026-03-23T11:16:50Z</time></trkpt><trkpt lat="44.973440821936435" lon="11.821631211291574"><ele>4.0</ele><time>2026-03-23T11:16:52Z</time></trkpt><trkpt lat="44.973459471953724" lon="11.821508921751878"><ele>4.0</ele><time>2026-03-23T11:16:54Z</time></trkpt><trkpt lat="44.9734704048126" lon="11.821391189663224"><ele>3.9999999999999996</ele><time>2026-03-23T11:16:56Z</time></trkpt><trkpt lat="44.97347955129134" lon="11.821280955341248"><ele>4.0</ele><time>2026-03-23T11:16:58Z</time></trkpt><trkpt lat="44.973454273154154" lon="11.821166633009872"><ele>3.9999999999999996</ele><time>2026-03-23T11:17:00Z</time></trkpt><trkpt lat="44.97337896580159" lon="11.821092197895224"><ele>4.0</ele><time>2026-03-23T11:17:02Z</time></trkpt><trkpt lat="44.97330154901342" lon="11.821041715340257"><ele>4.0</ele><time>2026-03-23T11:17:04Z</time></trkpt><trkpt lat="44.97322827081983" lon="11.820999096514162"><ele>4.0</ele><time>2026-03-23T11:17:06Z</time></trkpt><trkpt lat="44.973148962992035" lon="11.820961372394157"><ele>3.9999999999999996</ele><time>2026-03-23T11:17:08Z</time></trkpt><trkpt lat="44.97306025508602" lon="11.820906015880814"><ele>4.0</ele><time>2026-03-23T11:17:10Z</time></trkpt><trkpt lat="44.972969000831576" lon="11.8208682196554"><ele>4.2</ele><time>2026-03-23T11:17:12Z</time></trkpt><trkpt lat="44.97288182130914" lon="11.820810708996854"><ele>4.4</ele><time>2026-03-23T11:17:14Z</time></trkpt><trkpt lat="44.97281414898934" lon="11.82072982240281"><ele>4.6</ele><time>2026-03-23T11:17:16Z</time></trkpt><trkpt lat="44.97278125840195" lon="11.820614852693407"><ele>4.8</ele><time>2026-03-23T11:17:18Z</time></trkpt><trkpt lat="44.97275143415789" lon="11.820486196369679"><ele>5.0</ele><time>2026-03-23T11:17:20Z</time></trkpt><trkpt lat="44.97275260733603" lon="11.820354048415302"><ele>5.0</ele><time>2026-03-23T11:17:22Z</time></trkpt><trkpt lat="44.97276441757085" lon="11.82022942914693"><ele>5.0</ele><time>2026-03-23T11:17:24Z</time></trkpt><trkpt lat="44.97279432938564" lon="11.820119216885383"><ele>5.0</ele><time>2026-03-23T11:17:26Z</time></trkpt><trkpt lat="44.9728171716381" lon="11.820000319110129"><ele>5.0</ele><time>2026-03-23T11:17:28Z</time></trkpt><trkpt lat="44.9728434792449" lon="11.81987559078106"><ele>5.0</ele><time>2026-03-23T11:17:30Z</time></trkpt><trkpt lat="44.972875396654445" lon="11.8197513680313"><ele>5.0</ele><time>2026-03-23T11:17:32Z</time></trkpt><trkpt lat="44.97289737544469" lon="11.819623965408548"><ele>5.0</ele><time>2026-03-23T11:17:34Z</time></trkpt><trkpt lat="44.97292040144461" lon="11.819498617481566"><ele>5.0</ele><time>2026-03-23T11:17:36Z</time></trkpt><trkpt lat="44.972944657669224" lon="11.81938194333706"><ele>5.0</ele><time>2026-03-23T11:17:38Z</time></trkpt><trkpt lat="44.97296261649261" lon="11.819268004976076"><ele>5.0</ele><time>2026-03-23T11:17:40Z</time></trkpt><trkpt lat="44.97298455384131" lon="11.819159333206267"><ele>5.0</ele><time>2026-03-23T11:17:42Z</time></trkpt><trkpt lat="44.97301689000395" lon="11.819041552631456"><ele>5.0</ele><time>2026-03-23T11:17:44Z</time></trkpt><trkpt lat="44.973036931706474" lon="11.818925703265652"><ele>5.0</ele><time>2026-03-23T11:17:46Z</time></trkpt><trkpt lat="44.97305652001051" lon="11.818820324883303"><ele>5.0</ele><time>2026-03-23T11:17:48Z</time></trkpt><trkpt lat="44.97307443854971" lon="11.818723259079643"><ele>5.0</ele><time>2026-03-23T11:17:50Z</time></trkpt><trkpt lat="44.973099948087494" lon="11.81863152908809"><ele>5.0</ele><time>2026-03-23T11:17:51.999Z</time></trkpt><trkpt lat="44.97313183592328" lon="11.818525041429815"><ele>5.0</ele><time>2026-03-23T11:17:53.999Z</time></trkpt><trkpt lat="44.97315634337769" lon="11.818399266165898"><ele>5.0</ele><time>2026-03-23T11:17:55.999Z</time></trkpt><trkpt lat="44.97318197956044" lon="11.818274462131846"><ele>5.0</ele><time>2026-03-23T11:17:57.999Z</time></trkpt><trkpt lat="44.973210848214464" lon="11.8181529739522"><ele>5.0</ele><time>2026-03-23T11:17:59.999Z</time></trkpt><trkpt lat="44.97323447219361" lon="11.818025119956042"><ele>5.0</ele><time>2026-03-23T11:18:01.999Z</time></trkpt><trkpt lat="44.973260711711035" lon="11.817898171531816"><ele>5.0</ele><time>2026-03-23T11:18:03.999Z</time></trkpt><trkpt lat="44.97327824849511" lon="11.817766809143617"><ele>5.0</ele><time>2026-03-23T11:18:05.999Z</time></trkpt><trkpt lat="44.97330664974233" lon="11.817637602757616"><ele>5.0</ele><time>2026-03-23T11:18:07.999Z</time></trkpt><trkpt lat="44.973333146273035" lon="11.817512734850194"><ele>5.0</ele><time>2026-03-23T11:18:09.999Z</time></trkpt><trkpt lat="44.97336179386668" lon="11.817381580313754"><ele>5.0</ele><time>2026-03-23T11:18:11.999Z</time></trkpt><trkpt lat="44.97338259782596" lon="11.817250745808984"><ele>5.0</ele><time>2026-03-23T11:18:13.999Z</time></trkpt><trkpt lat="44.97341643841401" lon="11.817135765708544"><ele>5.0</ele><time>2026-03-23T11:18:15.999Z</time></trkpt><trkpt lat="44.973441715168676" lon="11.817016980973532"><ele>5.0</ele><time>2026-03-23T11:18:17.999Z</time></trkpt><trkpt lat="44.97347242778097" lon="11.81689237802712"><ele>5.0</ele><time>2026-03-23T11:18:19.999Z</time></trkpt><trkpt lat="44.973501652162966" lon="11.816766795089029"><ele>5.0</ele><time>2026-03-23T11:18:21.999Z</time></trkpt><trkpt lat="44.973538623483186" lon="11.816645193743595"><ele>5.0</ele><time>2026-03-23T11:18:23.999Z</time></trkpt><trkpt lat="44.97356724761615" lon="11.816517869998176"><ele>5.0</ele><time>2026-03-23T11:18:25.999Z</time></trkpt><trkpt lat="44.973596801109494" lon="11.816390550756875"><ele>4.8</ele><time>2026-03-23T11:18:27.999Z</time></trkpt><trkpt lat="44.97363630458563" lon="11.816270592415497"><ele>4.6</ele><time>2026-03-23T11:18:29.999Z</time></trkpt><trkpt lat="44.97368317559899" lon="11.816155869328894"><ele>4.4</ele><time>2026-03-23T11:18:31.999Z</time></trkpt><trkpt lat="44.97371744309582" lon="11.816035108859829"><ele>4.2</ele><time>2026-03-23T11:18:33.999Z</time></trkpt><trkpt lat="44.97375605078099" lon="11.815921647991933"><ele>4.0</ele><time>2026-03-23T11:18:35.999Z</time></trkpt><trkpt lat="44.97380056385343" lon="11.815807394707468"><ele>3.8000000000000003</ele><time>2026-03-23T11:18:37.999Z</time></trkpt><trkpt lat="44.97385058119513" lon="11.8156936151214"><ele>3.6000000000000005</ele><time>2026-03-23T11:18:39.999Z</time></trkpt><trkpt lat="44.97390985487985" lon="11.815583910365014"><ele>3.4</ele><time>2026-03-23T11:18:41.999Z</time></trkpt><trkpt lat="44.973967522663756" lon="11.815471204696124"><ele>3.2</ele><time>2026-03-23T11:18:43.999Z</time></trkpt><trkpt lat="44.97402591076458" lon="11.815359448077302"><ele>3.0</ele><time>2026-03-23T11:18:46Z</time></trkpt><trkpt lat="44.974080298457885" lon="11.815251042276493"><ele>3.0</ele><time>2026-03-23T11:18:48Z</time></trkpt><trkpt lat="44.974125109451066" lon="11.815132431781384"><ele>3.0</ele><time>2026-03-23T11:18:50Z</time></trkpt><trkpt lat="44.97415787998627" lon="11.815008756478946"><ele>3.0</ele><time>2026-03-23T11:18:52Z</time></trkpt><trkpt lat="44.974181511860216" lon="11.814878964099751"><ele>3.0</ele><time>2026-03-23T11:18:54Z</time></trkpt><trkpt lat="44.97418680709968" lon="11.814759503654395"><ele>3.0</ele><time>2026-03-23T11:18:56Z</time></trkpt><trkpt lat="44.97416503106886" lon="11.814636849278482"><ele>3.0</ele><time>2026-03-23T11:18:58Z</time></trkpt><trkpt lat="44.97412334824246" lon="11.81449419212478"><ele>3.0</ele><time>2026-03-23T11:19:00Z</time></trkpt><trkpt lat="44.97406912294522" lon="11.81436727355087"><ele>3.0</ele><time>2026-03-23T11:19:02Z</time></trkpt><trkpt lat="44.97401920308059" lon="11.814250020896399"><ele>3.0</ele><time>2026-03-23T11:19:04Z</time></trkpt><trkpt lat="44.97397187178505" lon="11.814139865965874"><ele>3.0</ele><time>2026-03-23T11:19:06Z</time></trkpt><trkpt lat="44.97393210715528" lon="11.814025642818233"><ele>3.0</ele><time>2026-03-23T11:19:08Z</time></trkpt><trkpt lat="44.97388171804898" lon="11.813909151589058"><ele>3.0</ele><time>2026-03-23T11:19:10Z</time></trkpt><trkpt lat="44.97383486980084" lon="11.813783998762505"><ele>3.0</ele><time>2026-03-23T11:19:12Z</time></trkpt><trkpt lat="44.97379217631587" lon="11.81366321583161"><ele>3.0</ele><time>2026-03-23T11:19:14Z</time></trkpt><trkpt lat="44.973754835466266" lon="11.813548920961566"><ele>3.0</ele><time>2026-03-23T11:19:16Z</time></trkpt><trkpt lat="44.97372353955355" lon="11.813440378444067"><ele>3.0</ele><time>2026-03-23T11:19:18Z</time></trkpt><trkpt lat="44.97369824763532" lon="11.813333544943639"><ele>3.0</ele><time>2026-03-23T11:19:20Z</time></trkpt><trkpt lat="44.97367646484314" lon="11.813231234470399"><ele>3.0</ele><time>2026-03-23T11:19:22Z</time></trkpt><trkpt lat="44.97366006828631" lon="11.81313626165624"><ele>3.0</ele><time>2026-03-23T11:19:24Z</time></trkpt><trkpt lat="44.97364223938782" lon="11.813021440968459"><ele>3.0</ele><time>2026-03-23T11:19:26Z</time></trkpt><trkpt lat="44.97363097050723" lon="11.812897501799512"><ele>3.0</ele><time>2026-03-23T11:19:28Z</time></trkpt><trkpt lat="44.97361396162182" lon="11.812784434130444"><ele>3.0</ele><time>2026-03-23T11:19:30Z</time></trkpt><trkpt lat="44.97359848129629" lon="11.812673817002985"><ele>3.0</ele><time>2026-03-23T11:19:32Z</time></trkpt><trkpt lat="44.97359580780402" lon="11.812546068599943"><ele>3.0</ele><time>2026-03-23T11:19:34Z</time></trkpt><trkpt lat="44.97358788072545" lon="11.812412615456541"><ele>3.0</ele><time>2026-03-23T11:19:36Z</time></trkpt><trkpt lat="44.97358321215463" lon="11.812277386465787"><ele>3.0</ele><time>2026-03-23T11:19:38Z</time></trkpt><trkpt lat="44.97358264405717" lon="11.812158099509853"><ele>3.0</ele><time>2026-03-23T11:19:40Z</time></trkpt><trkpt lat="44.973568403243156" lon="11.812044227029483"><ele>2.8333333333333335</ele><time>2026-03-23T11:19:42Z</time></trkpt><trkpt lat="44.973574078805456" lon="11.811936630082508"><ele>2.6666666666666665</ele><time>2026-03-23T11:19:44Z</time></trkpt><trkpt lat="44.97357784071054" lon="11.811823918261092"><ele>2.5</ele><time>2026-03-23T11:19:46Z</time></trkpt><trkpt lat="44.973567412665155" lon="11.811697583928183"><ele>2.333333333333333</ele><time>2026-03-23T11:19:48Z</time></trkpt><trkpt lat="44.97355474242884" lon="11.811583068828636"><ele>2.1666666666666665</ele><time>2026-03-23T11:19:50Z</time></trkpt><trkpt lat="44.97355615263508" lon="11.811462235680684"><ele>2.0</ele><time>2026-03-23T11:19:52Z</time></trkpt><trkpt lat="44.973553829994486" lon="11.81133009936821"><ele>2.0</ele><time>2026-03-23T11:19:53.999Z</time></trkpt><trkpt lat="44.9735607818935" lon="11.811195595489714"><ele>2.0</ele><time>2026-03-23T11:19:55.999Z</time></trkpt><trkpt lat="44.97355789103359" lon="11.811062059336345"><ele>2.0</ele><time>2026-03-23T11:19:57.999Z</time></trkpt><trkpt lat="44.973554430658886" lon="11.810931700583996"><ele>2.0</ele><time>2026-03-23T11:19:59.999Z</time></trkpt><trkpt lat="44.97355546714462" lon="11.810808839774655"><ele>2.0</ele><time>2026-03-23T11:20:01.999Z</time></trkpt><trkpt lat="44.97355423534662" lon="11.810692834263042"><ele>2.333333333333333</ele><time>2026-03-23T11:20:03.999Z</time></trkpt><trkpt lat="44.97355367194745" lon="11.810568149981986"><ele>2.6666666666666665</ele><time>2026-03-23T11:20:05.999Z</time></trkpt><trkpt lat="44.97354516883198" lon="11.810433665888088"><ele>3.0</ele><time>2026-03-23T11:20:07.999Z</time></trkpt><trkpt lat="44.97354788167327" lon="11.810309414724651"><ele>3.333333333333333</ele><time>2026-03-23T11:20:09.999Z</time></trkpt><trkpt lat="44.973546279456464" lon="11.810189492637804"><ele>3.6666666666666665</ele><time>2026-03-23T11:20:11.999Z</time></trkpt><trkpt lat="44.97354755112574" lon="11.810075625601206"><ele>4.0</ele><time>2026-03-23T11:20:13.999Z</time></trkpt><trkpt lat="44.9735475611636" lon="11.809964166027664"><ele>3.9999999999999996</ele><time>2026-03-23T11:20:15.999Z</time></trkpt><trkpt lat="44.97356439867904" lon="11.809839851072061"><ele>4.0</ele><time>2026-03-23T11:20:17.999Z</time></trkpt><trkpt lat="44.97357249213408" lon="11.809723397804758"><ele>4.0</ele><time>2026-03-23T11:20:19.999Z</time></trkpt><trkpt lat="44.973584827891145" lon="11.809614021933712"><ele>4.0</ele><time>2026-03-23T11:20:21.999Z</time></trkpt><trkpt lat="44.97359418478691" lon="11.809507465646139"><ele>3.9999999999999996</ele><time>2026-03-23T11:20:23.999Z</time></trkpt><trkpt lat="44.973603386937235" lon="11.809408753698198"><ele>4.0</ele><time>2026-03-23T11:20:25.999Z</time></trkpt><trkpt lat="44.97361030017063" lon="11.809294899879664"><ele>3.9999999999999996</ele><time>2026-03-23T11:20:28.999Z</time></trkpt><trkpt lat="44.973620829551756" lon="11.809184357965162"><ele>4.0</ele><time>2026-03-23T11:20:31.999Z</time></trkpt><trkpt lat="44.97363002913103" lon="11.809087690163665"><ele>4.0</ele><time>2026-03-23T11:25:00.999Z</time></trkpt><trkpt lat="44.973632916916294" lon="11.80896686566163"><ele>4.0</ele><time>2026-03-23T11:25:04Z</time></trkpt><trkpt lat="44.97364730891495" lon="11.808863878684637"><ele>3.9999999999999996</ele><time>2026-03-23T11:25:06Z</time></trkpt><trkpt lat="44.97365964639403" lon="11.808750722195288"><ele>4.0</ele><time>2026-03-23T11:25:08Z</time></trkpt><trkpt lat="44.97367737702264" lon="11.80861997527038"><ele>4.2</ele><time>2026-03-23T11:25:10Z</time></trkpt><trkpt lat="44.97369062012089" lon="11.808487587167138"><ele>4.4</ele><time>2026-03-23T11:25:12Z</time></trkpt><trkpt lat="44.97369906357931" lon="11.808352234600243"><ele>4.6</ele><time>2026-03-23T11:25:14Z</time></trkpt><trkpt lat="44.973713222823235" lon="11.808218888971327"><ele>4.8</ele><time>2026-03-23T11:25:16Z</time></trkpt><trkpt lat="44.9737321933605" lon="11.808090383316891"><ele>5.0</ele><time>2026-03-23T11:25:18Z</time></trkpt><trkpt lat="44.973740619695434" lon="11.807959554437662"><ele>5.0</ele><time>2026-03-23T11:25:20Z</time></trkpt><trkpt lat="44.97375728680032" lon="11.807830218857047"><ele>5.0</ele><time>2026-03-23T11:25:22Z</time></trkpt><trkpt lat="44.97376865196417" lon="11.807699553750016"><ele>5.0</ele><time>2026-03-23T11:25:24Z</time></trkpt><trkpt lat="44.973783503967255" lon="11.807569129544351"><ele>5.0</ele><time>2026-03-23T11:25:26Z</time></trkpt><trkpt lat="44.97379497165233" lon="11.807437925474689"><ele>5.0</ele><time>2026-03-23T11:25:28Z</time></trkpt><trkpt lat="44.97380827629887" lon="11.807306409629833"><ele>5.2</ele><time>2026-03-23T11:25:30Z</time></trkpt><trkpt lat="44.9738246521386" lon="11.807174851103246"><ele>5.4</ele><time>2026-03-23T11:25:32Z</time></trkpt><trkpt lat="44.9738377352092" lon="11.807041943144883"><ele>5.6</ele><time>2026-03-23T11:25:34Z</time></trkpt><trkpt lat="44.97385207197851" lon="11.80691198860806"><ele>5.8</ele><time>2026-03-23T11:25:36Z</time></trkpt><trkpt lat="44.973870817855286" lon="11.80678220528346"><ele>6.0</ele><time>2026-03-23T11:25:38Z</time></trkpt><trkpt lat="44.97389290952716" lon="11.806654004668843"><ele>5.833333333333333</ele><time>2026-03-23T11:25:40Z</time></trkpt><trkpt lat="44.97390947940272" lon="11.806525679703325"><ele>5.666666666666667</ele><time>2026-03-23T11:25:42Z</time></trkpt><trkpt lat="44.97392938857627" lon="11.806397801434203"><ele>5.5</ele><time>2026-03-23T11:25:44Z</time></trkpt><trkpt lat="44.973944461267656" lon="11.80627004506194"><ele>5.333333333333334</ele><time>2026-03-23T11:25:46Z</time></trkpt><trkpt lat="44.97395553344314" lon="11.80614671787021"><ele>5.166666666666667</ele><time>2026-03-23T11:25:48Z</time></trkpt><trkpt lat="44.973980141981386" lon="11.806035334485157"><ele>5.0</ele><time>2026-03-23T11:25:50Z</time></trkpt><trkpt lat="44.97399921646077" lon="11.805923541231623"><ele>5.0</ele><time>2026-03-23T11:25:52Z</time></trkpt><trkpt lat="44.974012732868346" lon="11.805817620026154"><ele>5.0</ele><time>2026-03-23T11:25:54Z</time></trkpt><trkpt lat="44.97403493114114" lon="11.80572154134291"><ele>5.0</ele><time>2026-03-23T11:25:56Z</time></trkpt><trkpt lat="44.97404986862021" lon="11.80562717971957"><ele>5.0</ele><time>2026-03-23T11:25:58Z</time></trkpt><trkpt lat="44.9740664597305" lon="11.805532373210266"><ele>5.0</ele><time>2026-03-23T11:26:00Z</time></trkpt><trkpt lat="44.97409236302326" lon="11.805410572255163"><ele>5.0</ele><time>2026-03-23T11:26:02Z</time></trkpt><trkpt lat="44.9741120961992" lon="11.805306409607354"><ele>5.0</ele><time>2026-03-23T11:26:04Z</time></trkpt><trkpt lat="44.97413797674595" lon="11.805206140328995"><ele>5.0</ele><time>2026-03-23T11:26:06Z</time></trkpt><trkpt lat="44.97415522038665" lon="11.805109082789192"><ele>5.0</ele><time>2026-03-23T11:26:07.999Z</time></trkpt><trkpt lat="44.974169045320785" lon="11.805007315891295"><ele>5.0</ele><time>2026-03-23T11:26:09.999Z</time></trkpt><trkpt lat="44.97418626642432" lon="11.80488908783044"><ele>5.0</ele><time>2026-03-23T11:26:11.999Z</time></trkpt><trkpt lat="44.97418312339854" lon="11.80477150152762"><ele>5.0</ele><time>2026-03-23T11:26:13.999Z</time></trkpt><trkpt lat="44.9741930961381" lon="11.804660974529174"><ele>4.833333333333334</ele><time>2026-03-23T11:26:15.999Z</time></trkpt><trkpt lat="44.97419211170779" lon="11.80455155752544"><ele>4.666666666666667</ele><time>2026-03-23T11:26:17.999Z</time></trkpt><trkpt lat="44.974187173033506" lon="11.80444608670972"><ele>4.5</ele><time>2026-03-23T11:26:19.999Z</time></trkpt><trkpt lat="44.97418146171723" lon="11.804333263689482"><ele>4.333333333333333</ele><time>2026-03-23T11:26:21.999Z</time></trkpt><trkpt lat="44.97417396379327" lon="11.804213387817137"><ele>4.166666666666666</ele><time>2026-03-23T11:26:23.999Z</time></trkpt><trkpt lat="44.97417028162117" lon="11.804098081546812"><ele>4.0</ele><time>2026-03-23T11:26:25.999Z</time></trkpt><trkpt lat="44.974157607668396" lon="11.803989878902941"><ele>3.9999999999999996</ele><time>2026-03-23T11:26:27.999Z</time></trkpt><trkpt lat="44.97414598050298" lon="11.803867030177873"><ele>4.0</ele><time>2026-03-23T11:26:29.999Z</time></trkpt><trkpt lat="44.97412972138473" lon="11.803748970606495"><ele>4.0</ele><time>2026-03-23T11:26:31.999Z</time></trkpt><trkpt lat="44.97412017172344" lon="11.803636909728665"><ele>4.0</ele><time>2026-03-23T11:26:33.999Z</time></trkpt><trkpt lat="44.97410685622986" lon="11.803530438981765"><ele>3.9999999999999996</ele><time>2026-03-23T11:26:35.999Z</time></trkpt><trkpt lat="44.974093276351645" lon="11.803418083880022"><ele>4.0</ele><time>2026-03-23T11:26:37.999Z</time></trkpt><trkpt lat="44.97407626223261" lon="11.803293232440476"><ele>4.2</ele><time>2026-03-23T11:26:39.999Z</time></trkpt><trkpt lat="44.97405526187654" lon="11.803164273529546"><ele>4.4</ele><time>2026-03-23T11:26:41.999Z</time></trkpt><trkpt lat="44.974035942277915" lon="11.803033786363118"><ele>4.6</ele><time>2026-03-23T11:26:43.999Z</time></trkpt><trkpt lat="44.97401791457217" lon="11.802902644583334"><ele>4.8</ele><time>2026-03-23T11:26:45.999Z</time></trkpt><trkpt lat="44.97399717074384" lon="11.802768342225098"><ele>5.0</ele><time>2026-03-23T11:26:47.999Z</time></trkpt><trkpt lat="44.973980733309254" lon="11.80263699594499"><ele>5.0</ele><time>2026-03-23T11:26:49.999Z</time></trkpt><trkpt lat="44.97395703001295" lon="11.802505689735352"><ele>5.0</ele><time>2026-03-23T11:26:51.999Z</time></trkpt><trkpt lat="44.97393872507027" lon="11.802373663349169"><ele>5.0</ele><time>2026-03-23T11:26:53.999Z</time></trkpt><trkpt lat="44.973922190988304" lon="11.80224155922591"><ele>5.0</ele><time>2026-03-23T11:26:55.999Z</time></trkpt><trkpt lat="44.973896893188225" lon="11.802118904455602"><ele>5.0</ele><time>2026-03-23T11:26:57.999Z</time></trkpt><trkpt lat="44.973878354031676" lon="11.801997096500944"><ele>5.0</ele><time>2026-03-23T11:26:59.999Z</time></trkpt><trkpt lat="44.97385175849851" lon="11.801876662473305"><ele>5.0</ele><time>2026-03-23T11:27:01.999Z</time></trkpt><trkpt lat="44.97382404525913" lon="11.801754247954785"><ele>5.0</ele><time>2026-03-23T11:27:03.999Z</time></trkpt><trkpt lat="44.973790912278496" lon="11.801634378246595"><ele>5.0</ele><time>2026-03-23T11:27:05.999Z</time></trkpt><trkpt lat="44.97376242875084" lon="11.801509354773836"><ele>5.0</ele><time>2026-03-23T11:27:07.999Z</time></trkpt><trkpt lat="44.973725445515086" lon="11.801388379106411"><ele>5.0</ele><time>2026-03-23T11:27:10Z</time></trkpt><trkpt lat="44.97368627232133" lon="11.801270872727036"><ele>5.0</ele><time>2026-03-23T11:27:12Z</time></trkpt><trkpt lat="44.97364764833958" lon="11.80114826966777"><ele>5.0</ele><time>2026-03-23T11:27:14Z</time></trkpt><trkpt lat="44.97362268352202" lon="11.801024557759881"><ele>5.0</ele><time>2026-03-23T11:27:16Z</time></trkpt><trkpt lat="44.97357846661539" lon="11.800906745512892"><ele>5.0</ele><time>2026-03-23T11:27:18Z</time></trkpt><trkpt lat="44.973541943870714" lon="11.800785981427913"><ele>4.666666666666667</ele><time>2026-03-23T11:27:20Z</time></trkpt><trkpt lat="44.973501491608474" lon="11.800667624956446"><ele>4.333333333333334</ele><time>2026-03-23T11:27:22Z</time></trkpt><trkpt lat="44.97346195306833" lon="11.800547144394793"><ele>4.0</ele><time>2026-03-23T11:27:24Z</time></trkpt><trkpt lat="44.97342739363715" lon="11.800435424943979"><ele>3.666666666666667</ele><time>2026-03-23T11:27:26Z</time></trkpt><trkpt lat="44.973388713438" lon="11.800329636681859"><ele>3.3333333333333335</ele><time>2026-03-23T11:27:28Z</time></trkpt><trkpt lat="44.97335650757663" lon="11.800224145797275"><ele>3.0</ele><time>2026-03-23T11:27:30Z</time></trkpt><trkpt lat="44.97332240831898" lon="11.800118736778861"><ele>3.0</ele><time>2026-03-23T11:27:32Z</time></trkpt><trkpt lat="44.97327896455288" lon="11.800001933001676"><ele>3.0</ele><time>2026-03-23T11:27:34Z</time></trkpt><trkpt lat="44.97322760876789" lon="11.799865574735415"><ele>3.0</ele><time>2026-03-23T11:27:36Z</time></trkpt><trkpt lat="44.97316417085201" lon="11.799720285551933"><ele>3.0</ele><time>2026-03-23T11:27:38Z</time></trkpt><trkpt lat="44.973094673637966" lon="11.799581736566296"><ele>3.0</ele><time>2026-03-23T11:27:40Z</time></trkpt><trkpt lat="44.97302334454383" lon="11.799455436751145"><ele>3.0</ele><time>2026-03-23T11:27:42Z</time></trkpt><trkpt lat="44.97295141686043" lon="11.799343736345591"><ele>3.0</ele><time>2026-03-23T11:27:44Z</time></trkpt><trkpt lat="44.97287791734023" lon="11.7992416702954"><ele>3.0</ele><time>2026-03-23T11:27:46Z</time></trkpt><trkpt lat="44.972801552506965" lon="11.799147331742759"><ele>3.0</ele><time>2026-03-23T11:27:48Z</time></trkpt><trkpt lat="44.97272680904517" lon="11.799054566385434"><ele>3.0</ele><time>2026-03-23T11:27:50Z</time></trkpt><trkpt lat="44.97264956922721" lon="11.79896563030272"><ele>2.8</ele><time>2026-03-23T11:27:52Z</time></trkpt><trkpt lat="44.97257281347214" lon="11.79887986532219"><ele>2.5999999999999996</ele><time>2026-03-23T11:27:54Z</time></trkpt><trkpt lat="44.97249552745418" lon="11.798795865818375"><ele>2.4000000000000004</ele><time>2026-03-23T11:27:56Z</time></trkpt><trkpt lat="44.97241448013879" lon="11.798717988816792"><ele>2.2</ele><time>2026-03-23T11:27:58Z</time></trkpt><trkpt lat="44.972331644201226" lon="11.79864902032999"><ele>2.0</ele><time>2026-03-23T11:28:00Z</time></trkpt><trkpt lat="44.97224706259286" lon="11.798583694587911"><ele>2.333333333333333</ele><time>2026-03-23T11:28:02Z</time></trkpt><trkpt lat="44.97216383794073" lon="11.798516892713165"><ele>2.6666666666666665</ele><time>2026-03-23T11:28:04Z</time></trkpt><trkpt lat="44.97208367570838" lon="11.79845369567049"><ele>3.0</ele><time>2026-03-23T11:28:06Z</time></trkpt><trkpt lat="44.97200317267855" lon="11.798396067217203"><ele>3.333333333333333</ele><time>2026-03-23T11:28:08Z</time></trkpt><trkpt lat="44.97192750441" lon="11.798340130458719"><ele>3.6666666666666665</ele><time>2026-03-23T11:28:10Z</time></trkpt><trkpt lat="44.971852874491816" lon="11.798292054048858"><ele>4.0</ele><time>2026-03-23T11:28:12Z</time></trkpt><trkpt lat="44.971781815771365" lon="11.798242924245898"><ele>4.166666666666666</ele><time>2026-03-23T11:28:14Z</time></trkpt><trkpt lat="44.97171118563477" lon="11.798198230797313"><ele>4.333333333333333</ele><time>2026-03-23T11:28:16Z</time></trkpt><trkpt lat="44.971631918868546" lon="11.79814558146679"><ele>4.5</ele><time>2026-03-23T11:28:17.999Z</time></trkpt><trkpt lat="44.971548497273666" lon="11.798084244190756"><ele>4.666666666666667</ele><time>2026-03-23T11:28:19.999Z</time></trkpt><trkpt lat="44.971469954354745" lon="11.798031002972255"><ele>4.833333333333334</ele><time>2026-03-23T11:28:21.999Z</time></trkpt><trkpt lat="44.97139410412266" lon="11.79798082803528"><ele>5.0</ele><time>2026-03-23T11:28:23.999Z</time></trkpt><trkpt lat="44.971312214058315" lon="11.797932689438998"><ele>5.2</ele><time>2026-03-23T11:28:25.999Z</time></trkpt><trkpt lat="44.971227828436" lon="11.797876238398564"><ele>5.4</ele><time>2026-03-23T11:28:27.999Z</time></trkpt><trkpt lat="44.971144813459325" lon="11.797813637415716"><ele>5.6</ele><time>2026-03-23T11:28:29.999Z</time></trkpt><trkpt lat="44.971056581959616" lon="11.797769208443219"><ele>5.8</ele><time>2026-03-23T11:28:31.999Z</time></trkpt><trkpt lat="44.970974639125565" lon="11.797720416733618"><ele>6.0</ele><time>2026-03-23T11:28:33.999Z</time></trkpt><trkpt lat="44.97089822920987" lon="11.797648428089396"><ele>5.3999999999999995</ele><time>2026-03-23T11:28:35.999Z</time></trkpt><trkpt lat="44.97081632473346" lon="11.797583524560304"><ele>4.8</ele><time>2026-03-23T11:28:37.999Z</time></trkpt><trkpt lat="44.9707322128101" lon="11.797531693563917"><ele>4.199999999999999</ele><time>2026-03-23T11:28:39.999Z</time></trkpt><trkpt lat="44.97065045688434" lon="11.79747022791352"><ele>3.5999999999999996</ele><time>2026-03-23T11:28:41.999Z</time></trkpt><trkpt lat="44.970565722150525" lon="11.797413249670953"><ele>3.0</ele><time>2026-03-23T11:28:43.999Z</time></trkpt><trkpt lat="44.97047974814271" lon="11.797352736805705"><ele>3.0</ele><time>2026-03-23T11:28:45.999Z</time></trkpt><trkpt lat="44.97039381272743" lon="11.797294406065276"><ele>3.0</ele><time>2026-03-23T11:28:47.999Z</time></trkpt><trkpt lat="44.97030745542859" lon="11.79722992731034"><ele>3.0</ele><time>2026-03-23T11:28:49.999Z</time></trkpt><trkpt lat="44.97021903648355" lon="11.797170264761816"><ele>3.0</ele><time>2026-03-23T11:28:51.999Z</time></trkpt><trkpt lat="44.970134172877664" lon="11.79710319333014"><ele>3.0</ele><time>2026-03-23T11:28:53.999Z</time></trkpt><trkpt lat="44.97005118559792" lon="11.79704063618141"><ele>3.3333333333333335</ele><time>2026-03-23T11:28:55.999Z</time></trkpt><trkpt lat="44.96997028292278" lon="11.796982540520109"><ele>3.666666666666667</ele><time>2026-03-23T11:28:57.999Z</time></trkpt><trkpt lat="44.96989556648909" lon="11.796927580323517"><ele>4.0</ele><time>2026-03-23T11:28:59.999Z</time></trkpt><trkpt lat="44.969821453541776" lon="11.796864339177194"><ele>4.333333333333334</ele><time>2026-03-23T11:29:01.999Z</time></trkpt><trkpt lat="44.969750967853116" lon="11.796805769593007"><ele>4.666666666666667</ele><time>2026-03-23T11:29:03.999Z</time></trkpt><trkpt lat="44.969671939719234" lon="11.796743462541263"><ele>5.0</ele><time>2026-03-23T11:29:05.999Z</time></trkpt><trkpt lat="44.96959504931016" lon="11.796670259042424"><ele>5.0</ele><time>2026-03-23T11:29:07.999Z</time></trkpt><trkpt lat="44.969518354068995" lon="11.796595078820957"><ele>5.0</ele><time>2026-03-23T11:29:09.999Z</time></trkpt><trkpt lat="44.96943966537171" lon="11.796520354841208"><ele>5.0</ele><time>2026-03-23T11:29:11.999Z</time></trkpt><trkpt lat="44.96936447642743" lon="11.796447435600681"><ele>5.0</ele><time>2026-03-23T11:29:13.999Z</time></trkpt><trkpt lat="44.96928466349098" lon="11.7963702991588"><ele>5.0</ele><time>2026-03-23T11:29:16Z</time></trkpt><trkpt lat="44.96920935067362" lon="11.796296699866648"><ele>5.0</ele><time>2026-03-23T11:29:18Z</time></trkpt><trkpt lat="44.969138429948586" lon="11.796227725796594"><ele>5.0</ele><time>2026-03-23T11:29:20Z</time></trkpt><trkpt lat="44.96907227477214" lon="11.79615906697473"><ele>5.0</ele><time>2026-03-23T11:29:22Z</time></trkpt><trkpt lat="44.969013740064675" lon="11.79608488884714"><ele>5.0</ele><time>2026-03-23T11:29:24Z</time></trkpt><trkpt lat="44.96894793154898" lon="11.79602121868881"><ele>5.0</ele><time>2026-03-23T11:29:26Z</time></trkpt><trkpt lat="44.96888125638525" lon="11.795936186072085"><ele>5.0</ele><time>2026-03-23T11:29:28Z</time></trkpt><trkpt lat="44.96881293000665" lon="11.795856832910946"><ele>5.0</ele><time>2026-03-23T11:29:30Z</time></trkpt><trkpt lat="44.96874684919941" lon="11.795785981939368"><ele>5.0</ele><time>2026-03-23T11:29:32Z</time></trkpt><trkpt lat="44.968683294129825" lon="11.795714215525662"><ele>5.0</ele><time>2026-03-23T11:29:34Z</time></trkpt><trkpt lat="44.968621106603145" lon="11.795647181499458"><ele>5.0</ele><time>2026-03-23T11:29:36Z</time></trkpt><trkpt lat="44.9685554870334" lon="11.795573407477924"><ele>5.0</ele><time>2026-03-23T11:29:38Z</time></trkpt><trkpt lat="44.96848237181456" lon="11.795491710427608"><ele>5.0</ele><time>2026-03-23T11:29:40Z</time></trkpt><trkpt lat="44.96841319056971" lon="11.79541082926668"><ele>4.666666666666667</ele><time>2026-03-23T11:29:42Z</time></trkpt><trkpt lat="44.96834495894836" lon="11.795329380975906"><ele>4.333333333333334</ele><time>2026-03-23T11:29:44Z</time></trkpt><trkpt lat="44.96828184994691" lon="11.79525370820107"><ele>4.0</ele><time>2026-03-23T11:29:46Z</time></trkpt><trkpt lat="44.96821241143468" lon="11.795179494112363"><ele>3.666666666666667</ele><time>2026-03-23T11:29:48Z</time></trkpt><trkpt lat="44.968141599874116" lon="11.795094710219654"><ele>3.3333333333333335</ele><time>2026-03-23T11:29:50Z</time></trkpt><trkpt lat="44.96806787836007" lon="11.795016179133501"><ele>3.0</ele><time>2026-03-23T11:29:52Z</time></trkpt><trkpt lat="44.96799367366739" lon="11.794932448612185"><ele>2.8</ele><time>2026-03-23T11:29:54Z</time></trkpt><trkpt lat="44.96791608702209" lon="11.794852457324202"><ele>2.5999999999999996</ele><time>2026-03-23T11:29:56Z</time></trkpt><trkpt lat="44.96783783817046" lon="11.794772556316529"><ele>2.4000000000000004</ele><time>2026-03-23T11:29:58Z</time></trkpt><trkpt lat="44.9677630120314" lon="11.794692818724132"><ele>2.2</ele><time>2026-03-23T11:30:00Z</time></trkpt><trkpt lat="44.967687464602996" lon="11.794611673268513"><ele>2.0</ele><time>2026-03-23T11:30:02Z</time></trkpt><trkpt lat="44.967609455760204" lon="11.79453134882336"><ele>2.0</ele><time>2026-03-23T11:30:04Z</time></trkpt><trkpt lat="44.967531093868" lon="11.794449836427171"><ele>2.0</ele><time>2026-03-23T11:30:06Z</time></trkpt><trkpt lat="44.96745223136343" lon="11.794366753468758"><ele>2.0</ele><time>2026-03-23T11:30:08Z</time></trkpt><trkpt lat="44.96737346524082" lon="11.794283357874573"><ele>2.0</ele><time>2026-03-23T11:30:10Z</time></trkpt><trkpt lat="44.96729636017085" lon="11.79419909447441"><ele>2.0</ele><time>2026-03-23T11:30:12Z</time></trkpt><trkpt lat="44.96721894812008" lon="11.79411781366521"><ele>2.2</ele><time>2026-03-23T11:30:14Z</time></trkpt><trkpt lat="44.967143061970695" lon="11.794035321674166"><ele>2.4000000000000004</ele><time>2026-03-23T11:30:15.999Z</time></trkpt><trkpt lat="44.96706716083176" lon="11.793949684710988"><ele>2.5999999999999996</ele><time>2026-03-23T11:30:17.999Z</time></trkpt><trkpt lat="44.966989534792454" lon="11.79386282422764"><ele>2.8</ele><time>2026-03-23T11:30:19.999Z</time></trkpt><trkpt lat="44.96690940214602" lon="11.79377773576565"><ele>3.0</ele><time>2026-03-23T11:30:21.999Z</time></trkpt><trkpt lat="44.96683132700318" lon="11.793688769364467"><ele>3.0</ele><time>2026-03-23T11:30:23.999Z</time></trkpt><trkpt lat="44.9667498236454" lon="11.793600666292537"><ele>3.0</ele><time>2026-03-23T11:30:25.999Z</time></trkpt><trkpt lat="44.96667144331717" lon="11.793510352568024"><ele>3.0</ele><time>2026-03-23T11:30:27.999Z</time></trkpt><trkpt lat="44.9665923589752" lon="11.793416956453894"><ele>3.0</ele><time>2026-03-23T11:30:29.999Z</time></trkpt><trkpt lat="44.96651086436263" lon="11.793330843096365"><ele>3.0</ele><time>2026-03-23T11:30:31.999Z</time></trkpt><trkpt lat="44.96643197822536" lon="11.793235641707604"><ele>3.2</ele><time>2026-03-23T11:30:33.999Z</time></trkpt><trkpt lat="44.96635033636592" lon="11.79314401905264"><ele>3.4</ele><time>2026-03-23T11:30:35.999Z</time></trkpt><trkpt lat="44.966269764698" lon="11.793049375230932"><ele>3.6000000000000005</ele><time>2026-03-23T11:30:37.999Z</time></trkpt><trkpt lat="44.96619157916294" lon="11.792952986496937"><ele>3.8000000000000003</ele><time>2026-03-23T11:30:39.999Z</time></trkpt><trkpt lat="44.96611069973603" lon="11.792861471983478"><ele>4.0</ele><time>2026-03-23T11:30:41.999Z</time></trkpt><trkpt lat="44.96603058117165" lon="11.792769388725862"><ele>4.0</ele><time>2026-03-23T11:30:43.999Z</time></trkpt><trkpt lat="44.96595015097611" lon="11.792676641782464"><ele>4.0</ele><time>2026-03-23T11:30:45.999Z</time></trkpt><trkpt lat="44.96587297701332" lon="11.792580328896603"><ele>4.0</ele><time>2026-03-23T11:30:47.999Z</time></trkpt><trkpt lat="44.96579068333521" lon="11.792491274762137"><ele>4.0</ele><time>2026-03-23T11:30:49.999Z</time></trkpt><trkpt lat="44.965714103165816" lon="11.792397084840093"><ele>4.0</ele><time>2026-03-23T11:30:51.999Z</time></trkpt><trkpt lat="44.96563658378874" lon="11.792302330804418"><ele>4.2</ele><time>2026-03-23T11:30:53.999Z</time></trkpt><trkpt lat="44.96555542361224" lon="11.792208915060383"><ele>4.4</ele><time>2026-03-23T11:30:55.999Z</time></trkpt><trkpt lat="44.9654757718706" lon="11.792115954069688"><ele>4.6</ele><time>2026-03-23T11:30:57.999Z</time></trkpt><trkpt lat="44.96539399355873" lon="11.79201973247681"><ele>4.8</ele><time>2026-03-23T11:30:59.999Z</time></trkpt><trkpt lat="44.96531384892788" lon="11.791924100247272"><ele>5.0</ele><time>2026-03-23T11:31:01.999Z</time></trkpt><trkpt lat="44.9652324837542" lon="11.791830060454554"><ele>4.6</ele><time>2026-03-23T11:31:03.999Z</time></trkpt><trkpt lat="44.96515183424553" lon="11.791731564966767"><ele>4.2</ele><time>2026-03-23T11:31:05.999Z</time></trkpt><trkpt lat="44.965070639867164" lon="11.791634929651968"><ele>3.8</ele><time>2026-03-23T11:31:07.999Z</time></trkpt><trkpt lat="44.964988279963706" lon="11.791541719137648"><ele>3.4</ele><time>2026-03-23T11:31:09.999Z</time></trkpt><trkpt lat="44.96490920852944" lon="11.791443313656726"><ele>3.0</ele><time>2026-03-23T11:31:11.999Z</time></trkpt><trkpt lat="44.964824950088136" lon="11.791348559801945"><ele>4.25</ele><time>2026-03-23T11:31:13.999Z</time></trkpt><trkpt lat="44.96473577293532" lon="11.791243437799512"><ele>5.5</ele><time>2026-03-23T11:31:15.999Z</time></trkpt><trkpt lat="44.96465013134568" lon="11.79113513562142"><ele>6.75</ele><time>2026-03-23T11:31:17.999Z</time></trkpt><trkpt lat="44.96456105698949" lon="11.791032107154244"><ele>8.0</ele><time>2026-03-23T11:31:19.999Z</time></trkpt><trkpt lat="44.964474288778945" lon="11.790929839450394"><ele>8.0</ele><time>2026-03-23T11:31:22Z</time></trkpt><trkpt lat="44.964391634216796" lon="11.790829375028087"><ele>8.0</ele><time>2026-03-23T11:31:24Z</time></trkpt><trkpt lat="44.9643079854072" lon="11.7907361721173"><ele>8.0</ele><time>2026-03-23T11:31:26Z</time></trkpt><trkpt lat="44.96422862128914" lon="11.790645287501851"><ele>8.0</ele><time>2026-03-23T11:31:28Z</time></trkpt><trkpt lat="44.96416123282669" lon="11.790553028930315"><ele>8.0</ele><time>2026-03-23T11:31:30Z</time></trkpt><trkpt lat="44.96408823214298" lon="11.790469635576569"><ele>8.0</ele><time>2026-03-23T11:31:32Z</time></trkpt><trkpt lat="44.96401349052521" lon="11.790387392628462"><ele>8.0</ele><time>2026-03-23T11:31:34Z</time></trkpt><trkpt lat="44.96394033468453" lon="11.790298837623416"><ele>8.0</ele><time>2026-03-23T11:31:36Z</time></trkpt><trkpt lat="44.963868323788546" lon="11.79020945346571"><ele>8.0</ele><time>2026-03-23T11:31:38Z</time></trkpt><trkpt lat="44.96379604914819" lon="11.790125815006792"><ele>8.0</ele><time>2026-03-23T11:31:40Z</time></trkpt><trkpt lat="44.96372633149874" lon="11.790045139897574"><ele>8.166666666666666</ele><time>2026-03-23T11:31:42Z</time></trkpt><trkpt lat="44.9636610896193" lon="11.789965620474486"><ele>8.333333333333332</ele><time>2026-03-23T11:31:44Z</time></trkpt><trkpt lat="44.963596813830556" lon="11.789892714211705"><ele>8.5</ele><time>2026-03-23T11:31:46Z</time></trkpt><trkpt lat="44.963531996010595" lon="11.789825031019195"><ele>8.666666666666666</ele><time>2026-03-23T11:31:48Z</time></trkpt><trkpt lat="44.963472364729675" lon="11.78975091982058"><ele>8.833333333333334</ele><time>2026-03-23T11:31:50Z</time></trkpt><trkpt lat="44.9634018858054" lon="11.789669320846443"><ele>9.0</ele><time>2026-03-23T11:31:52Z</time></trkpt><trkpt lat="44.963336537257156" lon="11.78959129402772"><ele>9.0</ele><time>2026-03-23T11:31:54Z</time></trkpt><trkpt lat="44.963274077835166" lon="11.789515454736202"><ele>9.0</ele><time>2026-03-23T11:31:56Z</time></trkpt><trkpt lat="44.963208591173625" lon="11.789447434999927"><ele>9.0</ele><time>2026-03-23T11:31:58Z</time></trkpt><trkpt lat="44.96315208186862" lon="11.789371279324792"><ele>9.0</ele><time>2026-03-23T11:32:00Z</time></trkpt><trkpt lat="44.963088094405336" lon="11.789296933241927"><ele>9.0</ele><time>2026-03-23T11:32:02Z</time></trkpt><trkpt lat="44.96301724270942" lon="11.789213679470615"><ele>9.0</ele><time>2026-03-23T11:32:04Z</time></trkpt><trkpt lat="44.96294218105246" lon="11.789127223173358"><ele>9.5</ele><time>2026-03-23T11:32:06Z</time></trkpt><trkpt lat="44.962869080419466" lon="11.78904322947046"><ele>10.0</ele><time>2026-03-23T11:32:08Z</time></trkpt><trkpt lat="44.96280175018707" lon="11.788967649029722"><ele>10.5</ele><time>2026-03-23T11:32:10Z</time></trkpt><trkpt lat="44.962735372896226" lon="11.788888573718628"><ele>11.0</ele><time>2026-03-23T11:32:12Z</time></trkpt><trkpt lat="44.96267004095361" lon="11.788816998920995"><ele>11.5</ele><time>2026-03-23T11:32:14Z</time></trkpt><trkpt lat="44.962605204733" lon="11.78874627412046"><ele>12.0</ele><time>2026-03-23T11:32:16Z</time></trkpt><trkpt lat="44.96253871047821" lon="11.78866144145772"><ele>12.0</ele><time>2026-03-23T11:32:18Z</time></trkpt><trkpt lat="44.96247199648682" lon="11.788581508707484"><ele>12.0</ele><time>2026-03-23T11:32:20Z</time></trkpt><trkpt lat="44.96240857912554" lon="11.788503223440888"><ele>12.0</ele><time>2026-03-23T11:32:22Z</time></trkpt><trkpt lat="44.9623474955111" lon="11.788422255976652"><ele>12.0</ele><time>2026-03-23T11:32:24Z</time></trkpt><trkpt lat="44.962289488792024" lon="11.788338253871329"><ele>12.0</ele><time>2026-03-23T11:32:25.999Z</time></trkpt><trkpt lat="44.96223653197636" lon="11.788251797311267"><ele>12.0</ele><time>2026-03-23T11:32:27.999Z</time></trkpt><trkpt lat="44.962186286669066" lon="11.788169405338111"><ele>12.0</ele><time>2026-03-23T11:32:29.999Z</time></trkpt><trkpt lat="44.96214375755232" lon="11.788079188712745"><ele>12.0</ele><time>2026-03-23T11:32:31.999Z</time></trkpt><trkpt lat="44.96208989258866" lon="11.787980117560265"><ele>12.0</ele><time>2026-03-23T11:32:33.999Z</time></trkpt><trkpt lat="44.96203641164325" lon="11.787877724628583"><ele>12.0</ele><time>2026-03-23T11:32:35.999Z</time></trkpt><trkpt lat="44.96198575342783" lon="11.787783186628292"><ele>12.0</ele><time>2026-03-23T11:32:37.999Z</time></trkpt><trkpt lat="44.96194190017033" lon="11.78769057457213"><ele>12.0</ele><time>2026-03-23T11:32:39.999Z</time></trkpt><trkpt lat="44.96189765464735" lon="11.78760569259481"><ele>11.5</ele><time>2026-03-23T11:32:41.999Z</time></trkpt><trkpt lat="44.961851708980774" lon="11.787533362204092"><ele>11.0</ele><time>2026-03-23T11:32:43.999Z</time></trkpt><trkpt lat="44.961809140453504" lon="11.787436861598387"><ele>10.5</ele><time>2026-03-23T11:32:45.999Z</time></trkpt><trkpt lat="44.9617646229553" lon="11.787330824220994"><ele>10.0</ele><time>2026-03-23T11:32:47.999Z</time></trkpt><trkpt lat="44.961714073671224" lon="11.787240654125227"><ele>9.5</ele><time>2026-03-23T11:32:49.999Z</time></trkpt><trkpt lat="44.96167011875064" lon="11.787152688492187"><ele>9.0</ele><time>2026-03-23T11:32:51.999Z</time></trkpt><trkpt lat="44.96162442210524" lon="11.787070861672923"><ele>9.000000000000002</ele><time>2026-03-23T11:32:53.999Z</time></trkpt><trkpt lat="44.96158358896209" lon="11.786992726396978"><ele>9.0</ele><time>2026-03-23T11:32:55.999Z</time></trkpt><trkpt lat="44.96154645480427" lon="11.786911486050634"><ele>9.0</ele><time>2026-03-23T11:32:57.999Z</time></trkpt><trkpt lat="44.961496681819945" lon="11.786827337316602"><ele>9.0</ele><time>2026-03-23T11:32:59.999Z</time></trkpt><trkpt lat="44.96145315391589" lon="11.786739510626521"><ele>9.0</ele><time>2026-03-23T11:33:01.999Z</time></trkpt><trkpt lat="44.96141353637682" lon="11.786652897519167"><ele>9.000000000000002</ele><time>2026-03-23T11:33:03.999Z</time></trkpt><trkpt lat="44.96137204496504" lon="11.786572369618218"><ele>9.0</ele><time>2026-03-23T11:33:05.999Z</time></trkpt><trkpt lat="44.96132964612556" lon="11.786497887873729"><ele>9.166666666666666</ele><time>2026-03-23T11:33:07.999Z</time></trkpt><trkpt lat="44.961284206399306" lon="11.786401528223633"><ele>9.333333333333334</ele><time>2026-03-23T11:33:09.999Z</time></trkpt><trkpt lat="44.961235024488325" lon="11.78630505616192"><ele>9.5</ele><time>2026-03-23T11:33:11.999Z</time></trkpt><trkpt lat="44.96118650062113" lon="11.786212220439072"><ele>9.666666666666668</ele><time>2026-03-23T11:33:13.999Z</time></trkpt><trkpt lat="44.961142899105845" lon="11.786122296508333"><ele>9.833333333333334</ele><time>2026-03-23T11:33:15.999Z</time></trkpt><trkpt lat="44.9610993826414" lon="11.786035485929986"><ele>10.0</ele><time>2026-03-23T11:33:17.999Z</time></trkpt><trkpt lat="44.96105749119022" lon="11.785956090179159"><ele>9.714285714285714</ele><time>2026-03-23T11:33:19.999Z</time></trkpt><trkpt lat="44.961015670617975" lon="11.785880295426107"><ele>9.428571428571429</ele><time>2026-03-23T11:33:21.999Z</time></trkpt><trkpt lat="44.960969782500996" lon="11.78579481013943"><ele>9.142857142857142</ele><time>2026-03-23T11:33:23.999Z</time></trkpt><trkpt lat="44.960932355733476" lon="11.785697916486747"><ele>8.857142857142858</ele><time>2026-03-23T11:33:25.999Z</time></trkpt><trkpt lat="44.96088575526376" lon="11.785618534514395"><ele>8.571428571428571</ele><time>2026-03-23T11:33:28Z</time></trkpt><trkpt lat="44.960845277097704" lon="11.785536419658508"><ele>8.285714285714285</ele><time>2026-03-23T11:33:30Z</time></trkpt><trkpt lat="44.96080814237524" lon="11.785458641226608"><ele>8.0</ele><time>2026-03-23T11:33:32Z</time></trkpt><trkpt lat="44.960764459814285" lon="11.785379489978007"><ele>7.800000000000001</ele><time>2026-03-23T11:33:34Z</time></trkpt><trkpt lat="44.96071340092352" lon="11.785270568884032"><ele>7.6000000000000005</ele><time>2026-03-23T11:33:36Z</time></trkpt><trkpt lat="44.960656849958575" lon="11.785165563465892"><ele>7.3999999999999995</ele><time>2026-03-23T11:33:38Z</time></trkpt><trkpt lat="44.9606000833406" lon="11.785057226566392"><ele>7.199999999999999</ele><time>2026-03-23T11:33:40Z</time></trkpt><trkpt lat="44.96054338061938" lon="11.784947690370663"><ele>7.0</ele><time>2026-03-23T11:33:42Z</time></trkpt><trkpt lat="44.960488086922375" lon="11.784837090144114"><ele>7.666666666666667</ele><time>2026-03-23T11:33:44Z</time></trkpt><trkpt lat="44.96043262222039" lon="11.78472788370161"><ele>8.333333333333334</ele><time>2026-03-23T11:33:46Z</time></trkpt><trkpt lat="44.960386545871295" lon="11.784615805931635"><ele>9.0</ele><time>2026-03-23T11:33:48Z</time></trkpt><trkpt lat="44.96035211953924" lon="11.784500373678583"><ele>9.666666666666666</ele><time>2026-03-23T11:33:50Z</time></trkpt><trkpt lat="44.96033265050185" lon="11.784380652780438"><ele>10.333333333333332</ele><time>2026-03-23T11:33:52Z</time></trkpt><trkpt lat="44.96031815453588" lon="11.784267058836319"><ele>11.0</ele><time>2026-03-23T11:33:54Z</time></trkpt><trkpt lat="44.96030968671198" lon="11.784159470814842"><ele>11.0</ele><time>2026-03-23T11:33:56Z</time></trkpt><trkpt lat="44.960316157675535" lon="11.78403447397615"><ele>11.0</ele><time>2026-03-23T11:33:58Z</time></trkpt><trkpt lat="44.96032113004001" lon="11.783915656870871"><ele>11.0</ele><time>2026-03-23T11:34:00Z</time></trkpt><trkpt lat="44.960328337386265" lon="11.783801468141927"><ele>11.0</ele><time>2026-03-23T11:34:02Z</time></trkpt><trkpt lat="44.96033575904813" lon="11.783692168030104"><ele>11.0</ele><time>2026-03-23T11:34:04Z</time></trkpt><trkpt lat="44.96034171242304" lon="11.783572879426218"><ele>11.0</ele><time>2026-03-23T11:34:06Z</time></trkpt><trkpt lat="44.96034887749061" lon="11.78345138650958"><ele>11.0</ele><time>2026-03-23T11:34:08Z</time></trkpt><trkpt lat="44.960355621392175" lon="11.783335588985095"><ele>11.0</ele><time>2026-03-23T11:34:10Z</time></trkpt><trkpt lat="44.96036025876075" lon="11.783223368800305"><ele>11.0</ele><time>2026-03-23T11:34:12Z</time></trkpt><trkpt lat="44.96036790777548" lon="11.783097543893492"><ele>11.0</ele><time>2026-03-23T11:34:14Z</time></trkpt><trkpt lat="44.960378575029054" lon="11.782967583597015"><ele>11.0</ele><time>2026-03-23T11:34:16Z</time></trkpt><trkpt lat="44.960389427449606" lon="11.782842377468608"><ele>11.0</ele><time>2026-03-23T11:34:18Z</time></trkpt><trkpt lat="44.96039556736203" lon="11.782721303719455"><ele>10.833333333333332</ele><time>2026-03-23T11:34:20Z</time></trkpt><trkpt lat="44.96040306270079" lon="11.782609172876784"><ele>10.666666666666666</ele><time>2026-03-23T11:34:22Z</time></trkpt><trkpt lat="44.96040881757463" lon="11.782504286899886"><ele>10.5</ele><time>2026-03-23T11:34:24Z</time></trkpt><trkpt lat="44.960413425419205" lon="11.782399364725011"><ele>10.333333333333334</ele><time>2026-03-23T11:34:26Z</time></trkpt><trkpt lat="44.96042330851859" lon="11.782279227844118"><ele>10.166666666666668</ele><time>2026-03-23T11:34:28Z</time></trkpt><trkpt lat="44.96043212791497" lon="11.782154634826645"><ele>10.0</ele><time>2026-03-23T11:34:30Z</time></trkpt><trkpt lat="44.96044087380237" lon="11.78204084294893"><ele>10.0</ele><time>2026-03-23T11:34:32Z</time></trkpt><trkpt lat="44.96044292798636" lon="11.78192853868821"><ele>10.0</ele><time>2026-03-23T11:34:34Z</time></trkpt><trkpt lat="44.960449947585126" lon="11.781820586538817"><ele>10.0</ele><time>2026-03-23T11:34:35.999Z</time></trkpt><trkpt lat="44.9604584462019" lon="11.781709483856494"><ele>10.0</ele><time>2026-03-23T11:34:37.999Z</time></trkpt><trkpt lat="44.96046331827939" lon="11.781597085701275"><ele>10.0</ele><time>2026-03-23T11:34:39.999Z</time></trkpt><trkpt lat="44.960470854291586" lon="11.7814924043302"><ele>10.0</ele><time>2026-03-23T11:34:41.999Z</time></trkpt><trkpt lat="44.96047758363313" lon="11.78138978122665"><ele>10.0</ele><time>2026-03-23T11:34:43.999Z</time></trkpt><trkpt lat="44.960486396935195" lon="11.78127362203861"><ele>10.0</ele><time>2026-03-23T11:34:45.999Z</time></trkpt><trkpt lat="44.96049307126414" lon="11.781165699741063"><ele>10.0</ele><time>2026-03-23T11:34:47.999Z</time></trkpt><trkpt lat="44.96050021903103" lon="11.781064181486261"><ele>10.0</ele><time>2026-03-23T11:34:49.999Z</time></trkpt><trkpt lat="44.96051044953943" lon="11.780941415995754"><ele>10.0</ele><time>2026-03-23T11:34:51.999Z</time></trkpt><trkpt lat="44.96051832563581" lon="11.780823305590184"><ele>10.0</ele><time>2026-03-23T11:34:53.999Z</time></trkpt><trkpt lat="44.960522447985696" lon="11.780711188127"><ele>10.0</ele><time>2026-03-23T11:34:55.999Z</time></trkpt><trkpt lat="44.96052867622172" lon="11.780605335384825"><ele>10.0</ele><time>2026-03-23T11:34:57.999Z</time></trkpt><trkpt lat="44.960530931067105" lon="11.780496772747831"><ele>10.0</ele><time>2026-03-23T11:34:59.999Z</time></trkpt><trkpt lat="44.96053959739137" lon="11.780371666148886"><ele>10.0</ele><time>2026-03-23T11:35:01.999Z</time></trkpt><trkpt lat="44.96054715670878" lon="11.78024834598121"><ele>10.0</ele><time>2026-03-23T11:35:03.999Z</time></trkpt><trkpt lat="44.96055572624198" lon="11.780128624549402"><ele>10.0</ele><time>2026-03-23T11:35:05.999Z</time></trkpt><trkpt lat="44.96056207338681" lon="11.78000527974408"><ele>9.666666666666668</ele><time>2026-03-23T11:35:07.999Z</time></trkpt><trkpt lat="44.96056349010876" lon="11.779901023744424"><ele>9.333333333333334</ele><time>2026-03-23T11:35:09.999Z</time></trkpt><trkpt lat="44.96057045494302" lon="11.779792943617558"><ele>9.0</ele><time>2026-03-23T11:35:11.999Z</time></trkpt><trkpt lat="44.96058078053458" lon="11.779673164724764"><ele>8.666666666666666</ele><time>2026-03-23T11:35:13.999Z</time></trkpt><trkpt lat="44.960588218410344" lon="11.779549279422161"><ele>8.333333333333332</ele><time>2026-03-23T11:35:15.999Z</time></trkpt><trkpt lat="44.96059547180885" lon="11.779429070830417"><ele>8.0</ele><time>2026-03-23T11:35:17.999Z</time></trkpt><trkpt lat="44.960603575665125" lon="11.779318288867943"><ele>7.999999999999999</ele><time>2026-03-23T11:35:19.999Z</time></trkpt><trkpt lat="44.96060359116733" lon="11.779209925550731"><ele>8.0</ele><time>2026-03-23T11:35:21.999Z</time></trkpt><trkpt lat="44.960600571423065" lon="11.779110076357892"><ele>8.0</ele><time>2026-03-23T11:35:23.999Z</time></trkpt><trkpt lat="44.960598468823804" lon="11.779014011258258"><ele>8.0</ele><time>2026-03-23T11:35:25.999Z</time></trkpt><trkpt lat="44.96057879315308" lon="11.77890250614365"><ele>7.999999999999999</ele><time>2026-03-23T11:35:27.999Z</time></trkpt><trkpt lat="44.96055405372082" lon="11.778783034664901"><ele>8.0</ele><time>2026-03-23T11:35:29.999Z</time></trkpt><trkpt lat="44.96051799735137" lon="11.778674918580304"><ele>7.999999999999999</ele><time>2026-03-23T11:35:31.999Z</time></trkpt><trkpt lat="44.960486148064824" lon="11.778570095261193"><ele>8.0</ele><time>2026-03-23T11:35:34Z</time></trkpt><trkpt lat="44.96045481360363" lon="11.778468119271983"><ele>8.0</ele><time>2026-03-23T11:35:36Z</time></trkpt><trkpt lat="44.960424366569555" lon="11.778371051799445"><ele>8.0</ele><time>2026-03-23T11:35:38Z</time></trkpt><trkpt lat="44.96038805482595" lon="11.778265678334614"><ele>7.999999999999999</ele><time>2026-03-23T11:35:40Z</time></trkpt><trkpt lat="44.96035982771524" lon="11.778154958596563"><ele>8.0</ele><time>2026-03-23T11:35:42Z</time></trkpt><trkpt lat="44.96032351141821" lon="11.778054526189583"><ele>7.333333333333333</ele><time>2026-03-23T11:35:44Z</time></trkpt><trkpt lat="44.96029417055939" lon="11.777943127306516"><ele>6.666666666666666</ele><time>2026-03-23T11:35:46Z</time></trkpt><trkpt lat="44.96025599641846" lon="11.77782747201707"><ele>6.0</ele><time>2026-03-23T11:35:48Z</time></trkpt><trkpt lat="44.960216656701476" lon="11.777716658038035"><ele>5.333333333333333</ele><time>2026-03-23T11:35:50Z</time></trkpt><trkpt lat="44.96018987629821" lon="11.777602353591059"><ele>4.666666666666666</ele><time>2026-03-23T11:35:52Z</time></trkpt><trkpt lat="44.960156647255104" lon="11.777493016597113"><ele>4.0</ele><time>2026-03-23T11:35:54Z</time></trkpt><trkpt lat="44.96013215698911" lon="11.777383250453644"><ele>3.6666666666666665</ele><time>2026-03-23T11:35:56Z</time></trkpt><trkpt lat="44.96010720291357" lon="11.777278917080983"><ele>3.333333333333333</ele><time>2026-03-23T11:35:58Z</time></trkpt><trkpt lat="44.96008191038549" lon="11.77717734833356"><ele>3.0</ele><time>2026-03-23T11:36:00Z</time></trkpt><trkpt lat="44.96006297676017" lon="11.777075352492364"><ele>2.6666666666666665</ele><time>2026-03-23T11:36:02Z</time></trkpt><trkpt lat="44.960037046033456" lon="11.77696888259173"><ele>2.333333333333333</ele><time>2026-03-23T11:36:04Z</time></trkpt><trkpt lat="44.96000893905403" lon="11.776848871327243"><ele>2.0</ele><time>2026-03-23T11:36:06Z</time></trkpt><trkpt lat="44.95998201142327" lon="11.77672593620272"><ele>1.9999999999999998</ele><time>2026-03-23T11:36:08Z</time></trkpt><trkpt lat="44.95995684219465" lon="11.776610579248317"><ele>2.0</ele><time>2026-03-23T11:36:10Z</time></trkpt><trkpt lat="44.959935765195006" lon="11.776498173561691"><ele>2.0</ele><time>2026-03-23T11:36:12Z</time></trkpt><trkpt lat="44.959913593392606" lon="11.77639421605792"><ele>2.0</ele><time>2026-03-23T11:36:14Z</time></trkpt><trkpt lat="44.95989165153416" lon="11.776290739893039"><ele>1.9999999999999998</ele><time>2026-03-23T11:36:16Z</time></trkpt><trkpt lat="44.95986652940541" lon="11.77618567118575"><ele>2.0</ele><time>2026-03-23T11:36:18Z</time></trkpt><trkpt lat="44.95984311400539" lon="11.776076581870418"><ele>2.1666666666666665</ele><time>2026-03-23T11:36:20Z</time></trkpt><trkpt lat="44.95982001754969" lon="11.775971626643937"><ele>2.333333333333333</ele><time>2026-03-23T11:36:22Z</time></trkpt><trkpt lat="44.95979636045981" lon="11.775863700270742"><ele>2.5</ele><time>2026-03-23T11:36:24Z</time></trkpt><trkpt lat="44.95976786762934" lon="11.775737190591862"><ele>2.6666666666666665</ele><time>2026-03-23T11:36:26Z</time></trkpt><trkpt lat="44.95974674353671" lon="11.775617280922576"><ele>2.8333333333333335</ele><time>2026-03-23T11:36:28Z</time></trkpt><trkpt lat="44.95971666927669" lon="11.775502730802444"><ele>3.0</ele><time>2026-03-23T11:36:30Z</time></trkpt><trkpt lat="44.95969383808039" lon="11.775392449731072"><ele>3.0</ele><time>2026-03-23T11:36:32Z</time></trkpt><trkpt lat="44.95966835863347" lon="11.77528687160704"><ele>3.0</ele><time>2026-03-23T11:36:34Z</time></trkpt><trkpt lat="44.959651749120376" lon="11.775184340346465"><ele>3.0</ele><time>2026-03-23T11:36:36Z</time></trkpt><trkpt lat="44.959626106292205" lon="11.775071842299882"><ele>3.0</ele><time>2026-03-23T11:36:38Z</time></trkpt><trkpt lat="44.95960150114296" lon="11.774957416774688"><ele>3.0</ele><time>2026-03-23T11:36:40Z</time></trkpt><trkpt lat="44.95957980344551" lon="11.77485058681542"><ele>3.0</ele><time>2026-03-23T11:36:42Z</time></trkpt><trkpt lat="44.95955877032495" lon="11.774751043398638"><ele>3.0</ele><time>2026-03-23T11:36:43.999Z</time></trkpt><trkpt lat="44.959534825839285" lon="11.774653867404233"><ele>3.0</ele><time>2026-03-23T11:36:45.999Z</time></trkpt><trkpt lat="44.959512609608154" lon="11.774543512460488"><ele>3.0</ele><time>2026-03-23T11:36:47.999Z</time></trkpt><trkpt lat="44.95948638212754" lon="11.774424798244677"><ele>3.0</ele><time>2026-03-23T11:36:49.999Z</time></trkpt><trkpt lat="44.95946212932037" lon="11.774315226998064"><ele>3.0</ele><time>2026-03-23T11:36:51.999Z</time></trkpt><trkpt lat="44.95943950243893" lon="11.774211810350305"><ele>3.0</ele><time>2026-03-23T11:36:53.999Z</time></trkpt><trkpt lat="44.95941850938534" lon="11.77411000982646"><ele>2.8333333333333335</ele><time>2026-03-23T11:36:55.999Z</time></trkpt><trkpt lat="44.95939458611594" lon="11.773991537793627"><ele>2.6666666666666665</ele><time>2026-03-23T11:36:57.999Z</time></trkpt><trkpt lat="44.95936981957561" lon="11.77388029857799"><ele>2.5</ele><time>2026-03-23T11:36:59.999Z</time></trkpt><trkpt lat="44.95934968326037" lon="11.773775056072447"><ele>2.333333333333333</ele><time>2026-03-23T11:37:01.999Z</time></trkpt><trkpt lat="44.95932850926297" lon="11.773670614730678"><ele>2.1666666666666665</ele><time>2026-03-23T11:37:03.999Z</time></trkpt><trkpt lat="44.95930483550898" lon="11.773568719440426"><ele>2.0</ele><time>2026-03-23T11:37:05.999Z</time></trkpt><trkpt lat="44.959278505373426" lon="11.773448878009665"><ele>1.9999999999999998</ele><time>2026-03-23T11:37:07.999Z</time></trkpt><trkpt lat="44.959255091797324" lon="11.773340462120261"><ele>2.0</ele><time>2026-03-23T11:37:09.999Z</time></trkpt><trkpt lat="44.959235834729924" lon="11.7732346302036"><ele>2.0</ele><time>2026-03-23T11:37:11.999Z</time></trkpt><trkpt lat="44.9592109207167" lon="11.773116858092024"><ele>2.0</ele><time>2026-03-23T11:37:13.999Z</time></trkpt><trkpt lat="44.95918475196232" lon="11.773001334531196"><ele>1.9999999999999998</ele><time>2026-03-23T11:37:15.999Z</time></trkpt><trkpt lat="44.95916146726129" lon="11.772875891090015"><ele>2.0</ele><time>2026-03-23T11:37:17.999Z</time></trkpt><trkpt lat="44.959133005407615" lon="11.772750859711447"><ele>2.4000000000000004</ele><time>2026-03-23T11:37:19.999Z</time></trkpt><trkpt lat="44.95910600686901" lon="11.772623014930328"><ele>2.8000000000000003</ele><time>2026-03-23T11:37:21.999Z</time></trkpt><trkpt lat="44.959081796796724" lon="11.77249646363289"><ele>3.2</ele><time>2026-03-23T11:37:23.999Z</time></trkpt><trkpt lat="44.959055927872384" lon="11.772368191578664"><ele>3.6</ele><time>2026-03-23T11:37:25.999Z</time></trkpt><trkpt lat="44.959026579443965" lon="11.772241813877942"><ele>4.0</ele><time>2026-03-23T11:37:27.999Z</time></trkpt><trkpt lat="44.95899970904437" lon="11.772117431131443"><ele>4.0</ele><time>2026-03-23T11:37:29.999Z</time></trkpt><trkpt lat="44.958973732417014" lon="11.771984796679938"><ele>4.0</ele><time>2026-03-23T11:37:31.999Z</time></trkpt><trkpt lat="44.95894574932882" lon="11.771855681486175"><ele>4.0</ele><time>2026-03-23T11:37:33.999Z</time></trkpt><trkpt lat="44.958919103236816" lon="11.771723715350797"><ele>4.0</ele><time>2026-03-23T11:37:35.999Z</time></trkpt><trkpt lat="44.95889214667466" lon="11.771594670009755"><ele>4.0</ele><time>2026-03-23T11:37:37.999Z</time></trkpt><trkpt lat="44.9588636482745" lon="11.771468680190486"><ele>4.0</ele><time>2026-03-23T11:37:40Z</time></trkpt><trkpt lat="44.95884016607664" lon="11.771338937379818"><ele>4.0</ele><time>2026-03-23T11:37:42Z</time></trkpt><trkpt lat="44.958812189661025" lon="11.771210567885282"><ele>4.0</ele><time>2026-03-23T11:37:44Z</time></trkpt><trkpt lat="44.958790043233996" lon="11.771087978767344"><ele>4.0</ele><time>2026-03-23T11:37:46Z</time></trkpt><trkpt lat="44.95876052729332" lon="11.770970214039657"><ele>4.0</ele><time>2026-03-23T11:37:48Z</time></trkpt><trkpt lat="44.958735345406716" lon="11.77085755614582"><ele>3.6666666666666665</ele><time>2026-03-23T11:37:50Z</time></trkpt><trkpt lat="44.95871703943954" lon="11.770738410670734"><ele>3.333333333333333</ele><time>2026-03-23T11:37:52Z</time></trkpt><trkpt lat="44.95869438165484" lon="11.770639766967799"><ele>3.0</ele><time>2026-03-23T11:37:54Z</time></trkpt><trkpt lat="44.95867473725086" lon="11.770533973216322"><ele>2.6666666666666665</ele><time>2026-03-23T11:37:56Z</time></trkpt><trkpt lat="44.95864746399126" lon="11.770417906030632"><ele>2.333333333333333</ele><time>2026-03-23T11:37:58Z</time></trkpt><trkpt lat="44.95863102177123" lon="11.770310803530858"><ele>2.0</ele><time>2026-03-23T11:38:00Z</time></trkpt><trkpt lat="44.95861286091029" lon="11.770210585924007"><ele>1.9999999999999998</ele><time>2026-03-23T11:38:02Z</time></trkpt><trkpt lat="44.95859501795111" lon="11.770098922392986"><ele>2.0</ele><time>2026-03-23T11:38:04Z</time></trkpt><trkpt lat="44.958577421400534" lon="11.769975881560969"><ele>2.0</ele><time>2026-03-23T11:38:06Z</time></trkpt><trkpt lat="44.95855740755838" lon="11.76985371161093"><ele>2.0</ele><time>2026-03-23T11:38:08Z</time></trkpt><trkpt lat="44.958541696874526" lon="11.76973812333189"><ele>1.9999999999999998</ele><time>2026-03-23T11:38:10Z</time></trkpt><trkpt lat="44.958526046179465" lon="11.769624601370772"><ele>2.0</ele><time>2026-03-23T11:38:12Z</time></trkpt><trkpt lat="44.95850885951475" lon="11.76952210651574"><ele>1.9999999999999998</ele><time>2026-03-23T11:38:14Z</time></trkpt><trkpt lat="44.95849980310104" lon="11.769411040074205"><ele>2.0</ele><time>2026-03-23T11:38:16Z</time></trkpt><trkpt lat="44.95848723520002" lon="11.76929230724722"><ele>2.0</ele><time>2026-03-23T11:38:18Z</time></trkpt><trkpt lat="44.95847707811797" lon="11.769182702281753"><ele>2.0</ele><time>2026-03-23T11:38:20Z</time></trkpt><trkpt lat="44.958459928450004" lon="11.76907731066443"><ele>1.9999999999999998</ele><time>2026-03-23T11:38:22Z</time></trkpt><trkpt lat="44.958446174024715" lon="11.76895453884529"><ele>2.0</ele><time>2026-03-23T11:38:24Z</time></trkpt><trkpt lat="44.958435234039875" lon="11.768835713197598"><ele>1.9999999999999998</ele><time>2026-03-23T11:38:26Z</time></trkpt><trkpt lat="44.958422000818906" lon="11.76872831669093"><ele>2.0</ele><time>2026-03-23T11:38:28Z</time></trkpt><trkpt lat="44.95841079293149" lon="11.768618151519389"><ele>2.0</ele><time>2026-03-23T11:38:30Z</time></trkpt><trkpt lat="44.958395485457906" lon="11.768491837596203"><ele>2.0</ele><time>2026-03-23T11:38:32Z</time></trkpt><trkpt lat="44.95838078899357" lon="11.76837056910521"><ele>1.9999999999999998</ele><time>2026-03-23T11:38:34Z</time></trkpt><trkpt lat="44.95837097829205" lon="11.76825535023731"><ele>2.0</ele><time>2026-03-23T11:38:36Z</time></trkpt><trkpt lat="44.95835862332784" lon="11.768145739437491"><ele>2.4285714285714284</ele><time>2026-03-23T11:38:38Z</time></trkpt><trkpt lat="44.95834521802927" lon="11.768040436132614"><ele>2.8571428571428568</ele><time>2026-03-23T11:38:40Z</time></trkpt><trkpt lat="44.95833327850409" lon="11.767939196335641"><ele>3.2857142857142856</ele><time>2026-03-23T11:38:42Z</time></trkpt><trkpt lat="44.95832529767357" lon="11.767825633502529"><ele>3.7142857142857144</ele><time>2026-03-23T11:38:44Z</time></trkpt><trkpt lat="44.95831250231465" lon="11.767725966608984"><ele>4.142857142857143</ele><time>2026-03-23T11:38:46Z</time></trkpt><trkpt lat="44.958299896531805" lon="11.767625908200765"><ele>4.571428571428571</ele><time>2026-03-23T11:38:48Z</time></trkpt><trkpt lat="44.95828660287709" lon="11.767525816839486"><ele>5.0</ele><time>2026-03-23T11:38:49.999Z</time></trkpt><trkpt lat="44.958276116400405" lon="11.767435369278015"><ele>5.166666666666667</ele><time>2026-03-23T11:38:51.999Z</time></trkpt><trkpt lat="44.95825979948443" lon="11.767330574138855"><ele>5.333333333333334</ele><time>2026-03-23T11:38:53.999Z</time></trkpt><trkpt lat="44.95825597591708" lon="11.76720963725355"><ele>5.5</ele><time>2026-03-23T11:38:55.999Z</time></trkpt><trkpt lat="44.958241627837225" lon="11.767098884617537"><ele>5.666666666666667</ele><time>2026-03-23T11:38:57.999Z</time></trkpt><trkpt lat="44.95822624862932" lon="11.766987505760385"><ele>5.833333333333333</ele><time>2026-03-23T11:38:59.999Z</time></trkpt><trkpt lat="44.95821363247475" lon="11.766865286371917"><ele>6.0</ele><time>2026-03-23T11:39:01.999Z</time></trkpt><trkpt lat="44.95820296033002" lon="11.766744063785117"><ele>5.666666666666667</ele><time>2026-03-23T11:39:03.999Z</time></trkpt><trkpt lat="44.958186795858964" lon="11.766633733424733"><ele>5.333333333333333</ele><time>2026-03-23T11:39:05.999Z</time></trkpt><trkpt lat="44.958177170935436" lon="11.766523137067106"><ele>5.0</ele><time>2026-03-23T11:39:07.999Z</time></trkpt><trkpt lat="44.95816566681672" lon="11.766415348129145"><ele>4.666666666666666</ele><time>2026-03-23T11:39:09.999Z</time></trkpt><trkpt lat="44.95815236641128" lon="11.766305918357887"><ele>4.333333333333333</ele><time>2026-03-23T11:39:11.999Z</time></trkpt><trkpt lat="44.95814225418416" lon="11.76619280280868"><ele>4.0</ele><time>2026-03-23T11:39:13.999Z</time></trkpt><trkpt lat="44.95812890343357" lon="11.766085958775973"><ele>3.833333333333333</ele><time>2026-03-23T11:39:15.999Z</time></trkpt><trkpt lat="44.95811623599077" lon="11.76598231781892"><ele>3.6666666666666665</ele><time>2026-03-23T11:39:17.999Z</time></trkpt><trkpt lat="44.95810757897989" lon="11.765861092091452"><ele>3.5</ele><time>2026-03-23T11:39:19.999Z</time></trkpt><trkpt lat="44.95809478635308" lon="11.765745018533764"><ele>3.333333333333333</ele><time>2026-03-23T11:39:21.999Z</time></trkpt><trkpt lat="44.95808147886189" lon="11.76563444029021"><ele>3.1666666666666665</ele><time>2026-03-23T11:39:23.999Z</time></trkpt><trkpt lat="44.95807124105369" lon="11.765531064872583"><ele>3.0</ele><time>2026-03-23T11:39:25.999Z</time></trkpt><trkpt lat="44.95805846484475" lon="11.765421024146049"><ele>3.0</ele><time>2026-03-23T11:39:27.999Z</time></trkpt><trkpt lat="44.95804521163976" lon="11.76532109457073"><ele>3.0</ele><time>2026-03-23T11:39:29.999Z</time></trkpt><trkpt lat="44.9580389536894" lon="11.765217939408238"><ele>3.0</ele><time>2026-03-23T11:39:31.999Z</time></trkpt><trkpt lat="44.958024784942495" lon="11.765111141360391"><ele>3.0</ele><time>2026-03-23T11:39:33.999Z</time></trkpt><trkpt lat="44.95801243393955" lon="11.765006282403082"><ele>3.0</ele><time>2026-03-23T11:39:35.999Z</time></trkpt><trkpt lat="44.95800084624386" lon="11.7649038093529"><ele>3.0</ele><time>2026-03-23T11:39:37.999Z</time></trkpt><trkpt lat="44.95799315826422" lon="11.764774556749167"><ele>3.1666666666666665</ele><time>2026-03-23T11:39:39.999Z</time></trkpt><trkpt lat="44.95797794891127" lon="11.764660061922633"><ele>3.333333333333333</ele><time>2026-03-23T11:39:41.999Z</time></trkpt><trkpt lat="44.95797058558419" lon="11.764551984870245"><ele>3.5</ele><time>2026-03-23T11:39:43.999Z</time></trkpt><trkpt lat="44.957959090540285" lon="11.764452290718273"><ele>3.6666666666666665</ele><time>2026-03-23T11:39:46Z</time></trkpt><trkpt lat="44.95794667129576" lon="11.764346259049551"><ele>3.833333333333333</ele><time>2026-03-23T11:39:48Z</time></trkpt><trkpt lat="44.9579356971958" lon="11.764223599635898"><ele>4.0</ele><time>2026-03-23T11:39:50Z</time></trkpt><trkpt lat="44.95792307843624" lon="11.764114864897369"><ele>3.9999999999999996</ele><time>2026-03-23T11:39:52Z</time></trkpt><trkpt lat="44.95791313729348" lon="11.764015414222426"><ele>4.0</ele><time>2026-03-23T11:39:54Z</time></trkpt><trkpt lat="44.957896530436415" lon="11.763909803123239"><ele>4.0</ele><time>2026-03-23T11:39:56Z</time></trkpt><trkpt lat="44.9578886933609" lon="11.763785130268658"><ele>4.0</ele><time>2026-03-23T11:39:58Z</time></trkpt><trkpt lat="44.9578761456968" lon="11.76368048072287"><ele>3.9999999999999996</ele><time>2026-03-23T11:40:00Z</time></trkpt><trkpt lat="44.95786021887865" lon="11.763577249254437"><ele>4.0</ele><time>2026-03-23T11:40:02Z</time></trkpt><trkpt lat="44.95784865788784" lon="11.763461354582542"><ele>3.833333333333333</ele><time>2026-03-23T11:40:04Z</time></trkpt><trkpt lat="44.9578357735823" lon="11.763340738703917"><ele>3.6666666666666665</ele><time>2026-03-23T11:40:06Z</time></trkpt><trkpt lat="44.957824221719456" lon="11.76322563024185"><ele>3.5</ele><time>2026-03-23T11:40:08Z</time></trkpt><trkpt lat="44.95780925925283" lon="11.763122282216607"><ele>3.333333333333333</ele><time>2026-03-23T11:40:10Z</time></trkpt><trkpt lat="44.95779795620267" lon="11.763013463181984"><ele>3.1666666666666665</ele><time>2026-03-23T11:40:12Z</time></trkpt><trkpt lat="44.95778735770303" lon="11.762901538203415"><ele>3.0</ele><time>2026-03-23T11:40:14Z</time></trkpt><trkpt lat="44.95777190738318" lon="11.762785045288533"><ele>3.3333333333333335</ele><time>2026-03-23T11:40:16Z</time></trkpt><trkpt lat="44.95776255455254" lon="11.762683593974867"><ele>3.666666666666667</ele><time>2026-03-23T11:40:18Z</time></trkpt><trkpt lat="44.95775579814689" lon="11.762584109872586"><ele>4.0</ele><time>2026-03-23T11:40:20Z</time></trkpt><trkpt lat="44.95774645315174" lon="11.762460905579134"><ele>4.333333333333334</ele><time>2026-03-23T11:40:22Z</time></trkpt><trkpt lat="44.957747877321445" lon="11.762336038446568"><ele>4.666666666666667</ele><time>2026-03-23T11:40:24Z</time></trkpt><trkpt lat="44.95774568832692" lon="11.762230110196946"><ele>5.0</ele><time>2026-03-23T11:40:26Z</time></trkpt><trkpt lat="44.9577479978565" lon="11.762120524663072"><ele>5.0</ele><time>2026-03-23T11:40:28Z</time></trkpt><trkpt lat="44.95774948733866" lon="11.762014214706381"><ele>5.0</ele><time>2026-03-23T11:40:30Z</time></trkpt><trkpt lat="44.957752042343955" lon="11.761905738865682"><ele>5.0</ele><time>2026-03-23T11:40:32Z</time></trkpt><trkpt lat="44.95774965529223" lon="11.761791903815684"><ele>5.0</ele><time>2026-03-23T11:40:34Z</time></trkpt><trkpt lat="44.957755565003026" lon="11.761692928510389"><ele>5.0</ele><time>2026-03-23T11:40:36Z</time></trkpt><trkpt lat="44.95775755259614" lon="11.761594482263726"><ele>5.0</ele><time>2026-03-23T11:40:38Z</time></trkpt><trkpt lat="44.95775702676644" lon="11.761490042188026"><ele>5.0</ele><time>2026-03-23T11:40:40Z</time></trkpt><trkpt lat="44.95775313175762" lon="11.761370742041802"><ele>5.0</ele><time>2026-03-23T11:40:42Z</time></trkpt><trkpt lat="44.957759861117474" lon="11.761259297436029"><ele>5.0</ele><time>2026-03-23T11:40:44Z</time></trkpt><trkpt lat="44.95775414064673" lon="11.761157090874322"><ele>5.0</ele><time>2026-03-23T11:40:46Z</time></trkpt><trkpt lat="44.95775100111382" lon="11.761058607622212"><ele>5.0</ele><time>2026-03-23T11:40:48Z</time></trkpt><trkpt lat="44.957739484105744" lon="11.760968390078194"><ele>5.0</ele><time>2026-03-23T11:40:50Z</time></trkpt><trkpt lat="44.95773458436539" lon="11.760851076998327"><ele>5.0</ele><time>2026-03-23T11:40:52Z</time></trkpt><trkpt lat="44.95772546940141" lon="11.76073773600199"><ele>5.0</ele><time>2026-03-23T11:40:54Z</time></trkpt><trkpt lat="44.95772064614028" lon="11.76063181598371"><ele>5.0</ele><time>2026-03-23T11:40:56Z</time></trkpt><trkpt lat="44.957713916524646" lon="11.760511035715602"><ele>5.0</ele><time>2026-03-23T11:40:57.999Z</time></trkpt><trkpt lat="44.957703203008116" lon="11.760393306521799"><ele>5.0</ele><time>2026-03-23T11:40:59.999Z</time></trkpt><trkpt lat="44.95769567610104" lon="11.760288891752337"><ele>5.0</ele><time>2026-03-23T11:41:01.999Z</time></trkpt><trkpt lat="44.95768951392158" lon="11.760189237721546"><ele>5.0</ele><time>2026-03-23T11:41:03.999Z</time></trkpt><trkpt lat="44.95768151492936" lon="11.760076458010019"><ele>4.857142857142857</ele><time>2026-03-23T11:41:05.999Z</time></trkpt><trkpt lat="44.95767511971229" lon="11.759969571372064"><ele>4.714285714285714</ele><time>2026-03-23T11:41:07.999Z</time></trkpt><trkpt lat="44.957667507905086" lon="11.759875631485137"><ele>4.571428571428571</ele><time>2026-03-23T11:41:09.999Z</time></trkpt><trkpt lat="44.957660971198834" lon="11.759777499146473"><ele>4.428571428571429</ele><time>2026-03-23T11:41:11.999Z</time></trkpt><trkpt lat="44.95765402892053" lon="11.759659904759161"><ele>4.285714285714286</ele><time>2026-03-23T11:41:13.999Z</time></trkpt><trkpt lat="44.957648381345244" lon="11.759550541431542"><ele>4.142857142857142</ele><time>2026-03-23T11:41:15.999Z</time></trkpt><trkpt lat="44.957640452874124" lon="11.7594487068325"><ele>4.0</ele><time>2026-03-23T11:41:17.999Z</time></trkpt><trkpt lat="44.9576317826545" lon="11.75934689591293"><ele>3.9999999999999996</ele><time>2026-03-23T11:41:19.999Z</time></trkpt><trkpt lat="44.95762042222161" lon="11.759229010576922"><ele>4.0</ele><time>2026-03-23T11:41:21.999Z</time></trkpt><trkpt lat="44.95760378776589" lon="11.75912177178866"><ele>4.0</ele><time>2026-03-23T11:41:23.999Z</time></trkpt><trkpt lat="44.957589363538" lon="11.75902442069709"><ele>4.0</ele><time>2026-03-23T11:41:25.999Z</time></trkpt><trkpt lat="44.957568343921025" lon="11.758915886713206"><ele>3.9999999999999996</ele><time>2026-03-23T11:41:27.999Z</time></trkpt><trkpt lat="44.95754961691429" lon="11.758802700951584"><ele>4.0</ele><time>2026-03-23T11:41:29.999Z</time></trkpt><trkpt lat="44.95752639136522" lon="11.75868400281877"><ele>4.833333333333333</ele><time>2026-03-23T11:41:31.999Z</time></trkpt><trkpt lat="44.957503686247286" lon="11.758577093097397"><ele>5.666666666666666</ele><time>2026-03-23T11:41:33.999Z</time></trkpt><trkpt lat="44.95748478713722" lon="11.758477108626188"><ele>6.5</ele><time>2026-03-23T11:41:35.999Z</time></trkpt><trkpt lat="44.957463704699364" lon="11.758374053884118"><ele>7.333333333333333</ele><time>2026-03-23T11:41:37.999Z</time></trkpt><trkpt lat="44.957438785712036" lon="11.758262577113097"><ele>8.166666666666666</ele><time>2026-03-23T11:41:39.999Z</time></trkpt><trkpt lat="44.957419732650045" lon="11.758154510653567"><ele>9.0</ele><time>2026-03-23T11:41:41.999Z</time></trkpt><trkpt lat="44.95739896134659" lon="11.758051778035227"><ele>9.000000000000002</ele><time>2026-03-23T11:41:43.999Z</time></trkpt><trkpt lat="44.95737717007663" lon="11.757957192661715"><ele>9.0</ele><time>2026-03-23T11:41:45.999Z</time></trkpt><trkpt lat="44.957353500412445" lon="11.7578686886805"><ele>9.0</ele><time>2026-03-23T11:41:47.999Z</time></trkpt><trkpt lat="44.95733489194989" lon="11.757783679889279"><ele>9.0</ele><time>2026-03-23T11:41:49.999Z</time></trkpt><trkpt lat="44.9573198713923" lon="11.757691439589168"><ele>9.0</ele><time>2026-03-23T11:41:52Z</time></trkpt><trkpt lat="44.95729774139386" lon="11.757582251679667"><ele>9.000000000000002</ele><time>2026-03-23T11:41:54Z</time></trkpt><trkpt lat="44.95727974271224" lon="11.757484697784946"><ele>9.0</ele><time>2026-03-23T11:41:56Z</time></trkpt><trkpt lat="44.957258771471714" lon="11.75739532318257"><ele>9.000000000000002</ele><time>2026-03-23T11:41:58Z</time></trkpt><trkpt lat="44.95723912002565" lon="11.757309458776797"><ele>9.0</ele><time>2026-03-23T11:42:00Z</time></trkpt><trkpt lat="44.95721897301678" lon="11.757208415592205"><ele>9.0</ele><time>2026-03-23T11:42:02Z</time></trkpt><trkpt lat="44.95719561439299" lon="11.757107981185824"><ele>9.0</ele><time>2026-03-23T11:42:04Z</time></trkpt><trkpt lat="44.957172126006185" lon="11.757013761592258"><ele>9.0</ele><time>2026-03-23T11:42:06Z</time></trkpt><trkpt lat="44.95714759503377" lon="11.756930113985458"><ele>9.000000000000002</ele><time>2026-03-23T11:42:08Z</time></trkpt><trkpt lat="44.957103182158974" lon="11.75686273653064"><ele>9.0</ele><time>2026-03-23T11:42:10Z</time></trkpt><trkpt lat="44.9570609111667" lon="11.756776445692646"><ele>9.0</ele><time>2026-03-23T11:42:12Z</time></trkpt><trkpt lat="44.956997071220044" lon="11.75667001229699"><ele>9.0</ele><time>2026-03-23T11:42:14Z</time></trkpt><trkpt lat="44.95692238164807" lon="11.756525000398602"><ele>9.0</ele><time>2026-03-23T11:42:16Z</time></trkpt><trkpt lat="44.95687900269023" lon="11.756446543604762"><ele>9.0</ele><time>2026-03-23T11:42:17Z</time></trkpt><trkpt lat="44.95684089146091" lon="11.756368578269281"><ele>9.0</ele><time>2026-03-23T11:42:18Z</time></trkpt><trkpt lat="44.9567931945812" lon="11.756199550227649"><ele>9.0</ele><time>2026-03-23T11:42:20Z</time></trkpt><trkpt lat="44.95678159620698" lon="11.756045343090687"><ele>9.0</ele><time>2026-03-23T11:42:22Z</time></trkpt><trkpt lat="44.95677240607499" lon="11.755923181669587"><ele>9.0</ele><time>2026-03-23T11:42:24Z</time></trkpt><trkpt lat="44.95676871584213" lon="11.755807544035953"><ele>9.0</ele><time>2026-03-23T11:42:27Z</time></trkpt><trkpt lat="44.95676248314241" lon="11.7557041392398"><ele>9.0</ele><time>2026-03-23T11:42:29Z</time></trkpt><trkpt lat="44.95675329298666" lon="11.75556890800468"><ele>9.0</ele><time>2026-03-23T11:42:31Z</time></trkpt><trkpt lat="44.95673481184275" lon="11.755422495328611"><ele>8.8</ele><time>2026-03-23T11:42:33Z</time></trkpt><trkpt lat="44.95671749772065" lon="11.755282639224408"><ele>8.600000000000001</ele><time>2026-03-23T11:42:35Z</time></trkpt><trkpt lat="44.95670397480697" lon="11.75514737823061"><ele>8.4</ele><time>2026-03-23T11:42:37Z</time></trkpt><trkpt lat="44.95668824105274" lon="11.755023626481886"><ele>8.200000000000001</ele><time>2026-03-23T11:42:39Z</time></trkpt><trkpt lat="44.95666965883184" lon="11.754905609721995"><ele>8.0</ele><time>2026-03-23T11:42:41Z</time></trkpt><trkpt lat="44.95666080221422" lon="11.75479375261225"><ele>7.857142857142857</ele><time>2026-03-23T11:42:43Z</time></trkpt><trkpt lat="44.956655848601365" lon="11.754697486731526"><ele>7.7142857142857135</ele><time>2026-03-23T11:42:45Z</time></trkpt><trkpt lat="44.95672277748807" lon="11.754659248754582"><ele>7.571428571428571</ele><time>2026-03-23T11:42:48Z</time></trkpt><trkpt lat="44.95676074594844" lon="11.754766708857735"><ele>7.428571428571429</ele><time>2026-03-23T11:42:50Z</time></trkpt><trkpt lat="44.956749318550436" lon="11.75486677653231"><ele>7.285714285714286</ele><time>2026-03-23T11:42:52Z</time></trkpt><trkpt lat="44.956747638998856" lon="11.754962299756277"><ele>7.142857142857142</ele><time>2026-03-23T11:42:54Z</time></trkpt><trkpt lat="44.956773602378625" lon="11.755074267823579"><ele>7.0</ele><time>2026-03-23T11:42:56Z</time></trkpt><trkpt lat="44.956782531358996" lon="11.755183658502752"><ele>7.166666666666667</ele><time>2026-03-23T11:42:58Z</time></trkpt><trkpt lat="44.95679434804088" lon="11.7552882553838"><ele>7.333333333333334</ele><time>2026-03-23T11:43:00Z</time></trkpt><trkpt lat="44.956806921494874" lon="11.755380254290335"><ele>7.5</ele><time>2026-03-23T11:43:02Z</time></trkpt><trkpt lat="44.95681716973776" lon="11.755505818499067"><ele>7.666666666666666</ele><time>2026-03-23T11:43:05Z</time></trkpt><trkpt lat="44.95683801866009" lon="11.755614503128577"><ele>7.833333333333333</ele><time>2026-03-23T11:43:07.999Z</time></trkpt><trkpt lat="44.95684881563685" lon="11.755719326875257"><ele>8.0</ele><time>2026-03-23T11:43:10.999Z</time></trkpt><trkpt lat="44.95689890859865" lon="11.755806014409911"><ele>8.0</ele><time>2026-03-23T11:43:14.999Z</time></trkpt><trkpt lat="44.95696819566976" lon="11.755822036534678"><ele>8.0</ele><time>2026-03-23T11:43:16.999Z</time></trkpt><trkpt lat="44.95706882451782" lon="11.755814534439383"><ele>8.0</ele><time>2026-03-23T11:43:18.999Z</time></trkpt><trkpt lat="44.95718372723085" lon="11.755793903137747"><ele>8.0</ele><time>2026-03-23T11:43:20.999Z</time></trkpt><trkpt lat="44.957290804869125" lon="11.755763763164023"><ele>8.0</ele><time>2026-03-23T11:43:22.999Z</time></trkpt><trkpt lat="44.95737913914492" lon="11.755745368936042"><ele>8.0</ele><time>2026-03-23T11:43:24.999Z</time></trkpt><trkpt lat="44.957445176554195" lon="11.755764745639466"><ele>7.999999999999999</ele><time>2026-03-23T11:43:26.999Z</time></trkpt><trkpt lat="44.95747431691245" lon="11.755872287444058"><ele>8.0</ele><time>2026-03-23T11:43:30.999Z</time></trkpt><trkpt lat="44.95743586846767" lon="11.75578569514621"><ele>8.0</ele><time>2026-03-23T11:44:42Z</time></trkpt><trkpt lat="44.957378035785624" lon="11.755748120183718"><ele>7.999999999999999</ele><time>2026-03-23T11:44:45Z</time></trkpt><trkpt lat="44.95731836344285" lon="11.755777070444703"><ele>8.0</ele><time>2026-03-23T11:44:48Z</time></trkpt><trkpt lat="44.95721874841489" lon="11.755797989244055"><ele>8.0</ele><time>2026-03-23T11:44:51Z</time></trkpt><trkpt lat="44.95713451836866" lon="11.75580113764452"><ele>7.999999999999999</ele><time>2026-03-23T11:44:54Z</time></trkpt><trkpt lat="44.95706251850953" lon="11.755839504136393"><ele>8.0</ele><time>2026-03-23T11:44:57Z</time></trkpt><trkpt lat="44.95698313756065" lon="11.755860651645325"><ele>8.0</ele><time>2026-03-23T11:44:59Z</time></trkpt><trkpt lat="44.95691749024242" lon="11.75587825617891"><ele>8.0</ele><time>2026-03-23T11:45:01Z</time></trkpt><trkpt lat="44.95685437855099" lon="11.755895180716836"><ele>7.999999999999999</ele><time>2026-03-23T11:45:08Z</time></trkpt><trkpt lat="44.9567435231244" lon="11.75592422683536"><ele>8.0</ele><time>2026-03-23T11:45:13Z</time></trkpt><trkpt lat="44.95663415299112" lon="11.755914645508883"><ele>8.166666666666666</ele><time>2026-03-23T11:45:15Z</time></trkpt><trkpt lat="44.95652370647767" lon="11.755948921441014"><ele>8.333333333333332</ele><time>2026-03-23T11:45:17Z</time></trkpt><trkpt lat="44.95641089258007" lon="11.755973109832219"><ele>8.5</ele><time>2026-03-23T11:45:19Z</time></trkpt><trkpt lat="44.95634618545095" lon="11.755984633882981"><ele>8.666666666666666</ele><time>2026-03-23T11:45:20Z</time></trkpt><trkpt lat="44.95628193531126" lon="11.755994570165548"><ele>8.833333333333334</ele><time>2026-03-23T11:45:21Z</time></trkpt><trkpt lat="44.95621757675349" lon="11.756009598269353"><ele>9.0</ele><time>2026-03-23T11:45:22Z</time></trkpt><trkpt lat="44.95615279729372" lon="11.756027773599383"><ele>9.000000000000002</ele><time>2026-03-23T11:45:23Z</time></trkpt><trkpt lat="44.956084574811086" lon="11.756047379617135"><ele>9.0</ele><time>2026-03-23T11:45:24Z</time></trkpt><trkpt lat="44.956015394194495" lon="11.756061955157497"><ele>9.0</ele><time>2026-03-23T11:45:25Z</time></trkpt><trkpt lat="44.955945231591805" lon="11.756070739250802"><ele>9.0</ele><time>2026-03-23T11:45:26Z</time></trkpt><trkpt lat="44.95587209341783" lon="11.756090117215404"><ele>9.0</ele><time>2026-03-23T11:45:27Z</time></trkpt><trkpt lat="44.95579867482202" lon="11.756106228598055"><ele>9.000000000000002</ele><time>2026-03-23T11:45:27.999Z</time></trkpt><trkpt lat="44.95572485867928" lon="11.7561266275999"><ele>9.0</ele><time>2026-03-23T11:45:28.999Z</time></trkpt><trkpt lat="44.95565042085543" lon="11.756154865819745"><ele>8.5</ele><time>2026-03-23T11:45:29.999Z</time></trkpt><trkpt lat="44.95557343299105" lon="11.756170067981355"><ele>8.0</ele><time>2026-03-23T11:45:30.999Z</time></trkpt><trkpt lat="44.95549419452432" lon="11.75618189052086"><ele>7.5</ele><time>2026-03-23T11:45:31.999Z</time></trkpt><trkpt lat="44.95541307925297" lon="11.756191789119047"><ele>7.0</ele><time>2026-03-23T11:45:32.999Z</time></trkpt><trkpt lat="44.95533342502893" lon="11.756209870070514"><ele>6.5</ele><time>2026-03-23T11:45:33.999Z</time></trkpt><trkpt lat="44.95525299781714" lon="11.756227285211928"><ele>6.0</ele><time>2026-03-23T11:45:34.999Z</time></trkpt><trkpt lat="44.95518283494182" lon="11.756247857343094"><ele>6.0</ele><time>2026-03-23T11:45:35.999Z</time></trkpt><trkpt lat="44.95511797265354" lon="11.756291946498594"><ele>6.0</ele><time>2026-03-23T11:45:36.999Z</time></trkpt><trkpt lat="44.955064181142625" lon="11.756356688867982"><ele>6.0</ele><time>2026-03-23T11:45:37.999Z</time></trkpt><trkpt lat="44.9550214823335" lon="11.756428597063168"><ele>6.0</ele><time>2026-03-23T11:45:38.999Z</time></trkpt><trkpt lat="44.95497436962417" lon="11.756566131880074"><ele>6.0</ele><time>2026-03-23T11:45:40.999Z</time></trkpt><trkpt lat="44.95507297240924" lon="11.756650462198838"><ele>6.0</ele><time>2026-03-23T11:45:43.999Z</time></trkpt><trkpt lat="44.95516858146254" lon="11.75666774644369"><ele>6.0</ele><time>2026-03-23T11:45:45.999Z</time></trkpt><trkpt lat="44.95525893460477" lon="11.756661989839891"><ele>6.0</ele><time>2026-03-23T11:45:47.999Z</time></trkpt><trkpt lat="44.95534568784877" lon="11.756664209380581"><ele>6.0</ele><time>2026-03-23T11:45:49.999Z</time></trkpt><trkpt lat="44.95543253948272" lon="11.756658508988068"><ele>6.0</ele><time>2026-03-23T11:45:51.999Z</time></trkpt><trkpt lat="44.95550403027903" lon="11.756635035952012"><ele>6.0</ele><time>2026-03-23T11:45:53.999Z</time></trkpt><trkpt lat="44.95559846844429" lon="11.756641274114811"><ele>6.0</ele><time>2026-03-23T11:45:55.999Z</time></trkpt><trkpt lat="44.95567838013452" lon="11.756634537927356"><ele>6.0</ele><time>2026-03-23T11:45:57.999Z</time></trkpt><trkpt lat="44.95576428583875" lon="11.756630186510158"><ele>6.0</ele><time>2026-03-23T11:45:59.999Z</time></trkpt><trkpt lat="44.955849864209895" lon="11.756622681426625"><ele>6.0</ele><time>2026-03-23T11:46:01.999Z</time></trkpt><trkpt lat="44.9559246860933" lon="11.756628712311556"><ele>6.0</ele><time>2026-03-23T11:46:04Z</time></trkpt><trkpt lat="44.956013718311354" lon="11.75662439636871"><ele>6.0</ele><time>2026-03-23T11:46:06Z</time></trkpt><trkpt lat="44.95610599702993" lon="11.756613634935373"><ele>6.0</ele><time>2026-03-23T11:46:08Z</time></trkpt><trkpt lat="44.95619171260733" lon="11.756604637345262"><ele>6.5</ele><time>2026-03-23T11:46:10Z</time></trkpt><trkpt lat="44.95627200713366" lon="11.756606331755066"><ele>7.0</ele><time>2026-03-23T11:46:12Z</time></trkpt><trkpt lat="44.95633385814108" lon="11.756659746755194"><ele>7.5</ele><time>2026-03-23T11:46:14Z</time></trkpt><trkpt lat="44.95639734061876" lon="11.756731919258018"><ele>8.0</ele><time>2026-03-23T11:46:16Z</time></trkpt><trkpt lat="44.95648304310998" lon="11.756777454636339"><ele>8.5</ele><time>2026-03-23T11:46:19Z</time></trkpt><trkpt lat="44.95655232862799" lon="11.756831530237923"><ele>9.0</ele><time>2026-03-23T11:46:22Z</time></trkpt><trkpt lat="44.95661869541545" lon="11.75686659653246"><ele>9.000000000000002</ele><time>2026-03-23T11:46:27Z</time></trkpt><trkpt lat="44.95666957778381" lon="11.75693748867419"><ele>9.0</ele><time>2026-03-23T11:46:40Z</time></trkpt><trkpt lat="44.95663324430438" lon="11.757038564094087"><ele>9.0</ele><time>2026-03-23T12:45:54Z</time></trkpt><trkpt lat="44.956575506923826" lon="11.756992462572171"><ele>9.0</ele><time>2026-03-23T12:46:02Z</time></trkpt><trkpt lat="44.956524992214995" lon="11.756929477213044"><ele>9.0</ele><time>2026-03-23T12:46:05Z</time></trkpt><trkpt lat="44.95649137645987" lon="11.756833469928107"><ele>9.000000000000002</ele><time>2026-03-23T12:46:07Z</time></trkpt><trkpt lat="44.95644464840959" lon="11.756758204533572"><ele>9.0</ele><time>2026-03-23T12:46:10Z</time></trkpt><trkpt lat="44.956372227578974" lon="11.75675605203024"><ele>9.0</ele><time>2026-03-23T12:46:13Z</time></trkpt><trkpt lat="44.956295725123425" lon="11.756758047141162"><ele>9.0</ele><time>2026-03-23T12:46:16Z</time></trkpt><trkpt lat="44.956258737982004" lon="11.75665339308697"><ele>9.0</ele><time>2026-03-23T12:46:19Z</time></trkpt><trkpt lat="44.95620288587205" lon="11.756573019688073"><ele>9.0</ele><time>2026-03-23T12:46:22Z</time></trkpt><trkpt lat="44.956113301760816" lon="11.756570975131359"><ele>9.0</ele><time>2026-03-23T12:46:24Z</time></trkpt><trkpt lat="44.95601751025809" lon="11.756572329522648"><ele>9.0</ele><time>2026-03-23T12:46:26Z</time></trkpt><trkpt lat="44.95592695647987" lon="11.756584874226528"><ele>8.4</ele><time>2026-03-23T12:46:28Z</time></trkpt><trkpt lat="44.95583751395363" lon="11.756587917237098"><ele>7.800000000000001</ele><time>2026-03-23T12:46:30Z</time></trkpt><trkpt lat="44.955738166753676" lon="11.756588398077614"><ele>7.199999999999999</ele><time>2026-03-23T12:46:32Z</time></trkpt><trkpt lat="44.95564648236802" lon="11.75660421035293"><ele>6.6</ele><time>2026-03-23T12:46:34Z</time></trkpt><trkpt lat="44.95555875691405" lon="11.756613839868225"><ele>6.0</ele><time>2026-03-23T12:46:36Z</time></trkpt><trkpt lat="44.95547301061522" lon="11.756602122595758"><ele>6.0</ele><time>2026-03-23T12:46:38Z</time></trkpt><trkpt lat="44.95539252394156" lon="11.756592014012233"><ele>6.0</ele><time>2026-03-23T12:46:40Z</time></trkpt><trkpt lat="44.955310396341616" lon="11.756607369996901"><ele>6.0</ele><time>2026-03-23T12:46:42Z</time></trkpt><trkpt lat="44.95522362469253" lon="11.756608739832242"><ele>6.0</ele><time>2026-03-23T12:46:44Z</time></trkpt><trkpt lat="44.95514224714782" lon="11.756622586727435"><ele>6.0</ele><time>2026-03-23T12:46:46Z</time></trkpt><trkpt lat="44.95505864753918" lon="11.756649741216116"><ele>6.0</ele><time>2026-03-23T12:46:48Z</time></trkpt><trkpt lat="44.95499205695962" lon="11.7566023199454"><ele>6.0</ele><time>2026-03-23T12:46:50Z</time></trkpt><trkpt lat="44.95500766318812" lon="11.756490013766234"><ele>6.0</ele><time>2026-03-23T12:46:52Z</time></trkpt><trkpt lat="44.95507201728827" lon="11.756407796144963"><ele>6.0</ele><time>2026-03-23T12:46:54Z</time></trkpt><trkpt lat="44.95513156725408" lon="11.75632659422522"><ele>6.0</ele><time>2026-03-23T12:46:56Z</time></trkpt><trkpt lat="44.95520290713612" lon="11.756274641471077"><ele>6.0</ele><time>2026-03-23T12:46:58.001Z</time></trkpt><trkpt lat="44.95528269870034" lon="11.756251950878974"><ele>6.0</ele><time>2026-03-23T12:47:00.001Z</time></trkpt><trkpt lat="44.95536418469788" lon="11.75623529605834"><ele>6.0</ele><time>2026-03-23T12:47:02.001Z</time></trkpt><trkpt lat="44.955441359534106" lon="11.756208706176718"><ele>6.0</ele><time>2026-03-23T12:47:04.001Z</time></trkpt><trkpt lat="44.95551950009684" lon="11.75618702559748"><ele>6.0</ele><time>2026-03-23T12:47:06.001Z</time></trkpt><trkpt lat="44.95560178419872" lon="11.75616194766392"><ele>6.0</ele><time>2026-03-23T12:47:08.001Z</time></trkpt><trkpt lat="44.95568163396291" lon="11.756144273789895"><ele>6.0</ele><time>2026-03-23T12:47:10.001Z</time></trkpt><trkpt lat="44.95576216576991" lon="11.756123533660118"><ele>6.0</ele><time>2026-03-23T12:47:12.001Z</time></trkpt><trkpt lat="44.955840418120374" lon="11.756096000959003"><ele>6.5</ele><time>2026-03-23T12:47:14.001Z</time></trkpt><trkpt lat="44.95592270738174" lon="11.756084697918414"><ele>7.0</ele><time>2026-03-23T12:47:16Z</time></trkpt><trkpt lat="44.956004588192116" lon="11.756053317807995"><ele>7.5</ele><time>2026-03-23T12:47:18Z</time></trkpt><trkpt lat="44.956083480364924" lon="11.756040302148975"><ele>8.0</ele><time>2026-03-23T12:47:20Z</time></trkpt><trkpt lat="44.9561635970767" lon="11.756020049703181"><ele>8.5</ele><time>2026-03-23T12:47:22Z</time></trkpt><trkpt lat="44.95623973668427" lon="11.75600944661415"><ele>9.0</ele><time>2026-03-23T12:47:24Z</time></trkpt><trkpt lat="44.95632236502901" lon="11.755977253186215"><ele>9.0</ele><time>2026-03-23T12:47:26Z</time></trkpt><trkpt lat="44.956403292048364" lon="11.755959966912531"><ele>9.0</ele><time>2026-03-23T12:47:28Z</time></trkpt><trkpt lat="44.95648395097045" lon="11.75593897791118"><ele>9.0</ele><time>2026-03-23T12:47:30Z</time></trkpt><trkpt lat="44.95659978388161" lon="11.755908438825545"><ele>9.0</ele><time>2026-03-23T12:47:33Z</time></trkpt><trkpt lat="44.956674512039605" lon="11.755877080185375"><ele>9.0</ele><time>2026-03-23T12:47:35Z</time></trkpt><trkpt lat="44.9567107169681" lon="11.755799486769687"><ele>9.0</ele><time>2026-03-23T12:47:37Z</time></trkpt><trkpt lat="44.95671795130904" lon="11.75568784408616"><ele>8.833333333333334</ele><time>2026-03-23T12:47:39Z</time></trkpt><trkpt lat="44.95672514448114" lon="11.75556370736649"><ele>8.666666666666666</ele><time>2026-03-23T12:47:41Z</time></trkpt><trkpt lat="44.95672482210705" lon="11.755438545099425"><ele>8.5</ele><time>2026-03-23T12:47:43Z</time></trkpt><trkpt lat="44.956716944920224" lon="11.755314026183424"><ele>8.333333333333332</ele><time>2026-03-23T12:47:45Z</time></trkpt><trkpt lat="44.95670144525987" lon="11.755195725085978"><ele>8.166666666666666</ele><time>2026-03-23T12:47:47Z</time></trkpt><trkpt lat="44.95668492308098" lon="11.75507866729937"><ele>8.0</ele><time>2026-03-23T12:47:49Z</time></trkpt><trkpt lat="44.9566763288648" lon="11.754951683294584"><ele>7.999999999999999</ele><time>2026-03-23T12:47:51Z</time></trkpt><trkpt lat="44.95666791374704" lon="11.754836027633386"><ele>8.0</ele><time>2026-03-23T12:47:53Z</time></trkpt><trkpt lat="44.956664524983566" lon="11.754732864170165"><ele>8.0</ele><time>2026-03-23T12:47:55Z</time></trkpt><trkpt lat="44.956676597028775" lon="11.754604662752271"><ele>8.0</ele><time>2026-03-23T12:47:58Z</time></trkpt><trkpt lat="44.956675680391584" lon="11.754507659659495"><ele>7.999999999999999</ele><time>2026-03-23T12:48:00Z</time></trkpt><trkpt lat="44.956671061633514" lon="11.754380793020653"><ele>8.0</ele><time>2026-03-23T12:48:03Z</time></trkpt><trkpt lat="44.956663350278276" lon="11.754259224302695"><ele>7.999999999999999</ele><time>2026-03-23T12:48:06Z</time></trkpt><trkpt lat="44.9566430081355" lon="11.754155524330423"><ele>8.0</ele><time>2026-03-23T12:48:08Z</time></trkpt><trkpt lat="44.95661613887917" lon="11.754049090023189"><ele>8.0</ele><time>2026-03-23T12:48:10Z</time></trkpt><trkpt lat="44.95660069789776" lon="11.753953611986049"><ele>8.0</ele><time>2026-03-23T12:48:12Z</time></trkpt><trkpt lat="44.956583502433055" lon="11.753860777983414"><ele>7.999999999999999</ele><time>2026-03-23T12:48:14Z</time></trkpt><trkpt lat="44.956550687742535" lon="11.753742679624377"><ele>8.0</ele><time>2026-03-23T12:48:17Z</time></trkpt><trkpt lat="44.95653659486253" lon="11.753627573160253"><ele>8.0</ele><time>2026-03-23T12:48:20Z</time></trkpt><trkpt lat="44.95650701690516" lon="11.753542813466398"><ele>7.999999999999999</ele><time>2026-03-23T12:48:22Z</time></trkpt><trkpt lat="44.956481748165814" lon="11.753434305116864"><ele>8.0</ele><time>2026-03-23T12:48:24Z</time></trkpt><trkpt lat="44.956466424393795" lon="11.753331722286257"><ele>8.0</ele><time>2026-03-23T12:48:26Z</time></trkpt><trkpt lat="44.956443568116406" lon="11.753239614412948"><ele>7.999999999999999</ele><time>2026-03-23T12:48:28Z</time></trkpt><trkpt lat="44.956425310194824" lon="11.753148519148445"><ele>8.0</ele><time>2026-03-23T12:48:30Z</time></trkpt><trkpt lat="44.956402974099426" lon="11.753041967807308"><ele>8.0</ele><time>2026-03-23T12:48:32Z</time></trkpt><trkpt lat="44.95637152221615" lon="11.752918291273126"><ele>7.999999999999999</ele><time>2026-03-23T12:48:34Z</time></trkpt><trkpt lat="44.95634390790098" lon="11.752794232072358"><ele>8.0</ele><time>2026-03-23T12:48:36Z</time></trkpt><trkpt lat="44.956316864223325" lon="11.752681729315979"><ele>8.0</ele><time>2026-03-23T12:48:38Z</time></trkpt><trkpt lat="44.956289413469115" lon="11.752574226913962"><ele>8.0</ele><time>2026-03-23T12:48:40Z</time></trkpt><trkpt lat="44.956271850733614" lon="11.75246468261099"><ele>7.999999999999999</ele><time>2026-03-23T12:48:42Z</time></trkpt><trkpt lat="44.95625092512412" lon="11.752364823365129"><ele>8.0</ele><time>2026-03-23T12:48:44Z</time></trkpt><trkpt lat="44.95622212357079" lon="11.752252477484356"><ele>7.999999999999999</ele><time>2026-03-23T12:48:46Z</time></trkpt><trkpt lat="44.95620230655273" lon="11.752140937441215"><ele>8.0</ele><time>2026-03-23T12:48:48Z</time></trkpt><trkpt lat="44.956175885927834" lon="11.752034406138165"><ele>8.0</ele><time>2026-03-23T12:48:50Z</time></trkpt><trkpt lat="44.95615143417808" lon="11.751923749074075"><ele>8.0</ele><time>2026-03-23T12:48:52Z</time></trkpt><trkpt lat="44.95612714589453" lon="11.751805197660817"><ele>7.999999999999999</ele><time>2026-03-23T12:48:54Z</time></trkpt><trkpt lat="44.95609668303832" lon="11.751684741907138"><ele>8.0</ele><time>2026-03-23T12:48:56Z</time></trkpt><trkpt lat="44.95606562947302" lon="11.751561126385642"><ele>8.166666666666666</ele><time>2026-03-23T12:48:58Z</time></trkpt><trkpt lat="44.95603590873146" lon="11.75143831110338"><ele>8.333333333333332</ele><time>2026-03-23T12:49:00Z</time></trkpt><trkpt lat="44.95600425382841" lon="11.751317434878477"><ele>8.5</ele><time>2026-03-23T12:49:01.999Z</time></trkpt><trkpt lat="44.955970186184416" lon="11.751202544956174"><ele>8.666666666666666</ele><time>2026-03-23T12:49:04Z</time></trkpt><trkpt lat="44.95593572219397" lon="11.751092546706333"><ele>8.833333333333334</ele><time>2026-03-23T12:49:06Z</time></trkpt><trkpt lat="44.955902540670806" lon="11.75097475987473"><ele>9.0</ele><time>2026-03-23T12:49:08Z</time></trkpt><trkpt lat="44.95585854555674" lon="11.750862701613034"><ele>9.0</ele><time>2026-03-23T12:49:10Z</time></trkpt><trkpt lat="44.95581140287766" lon="11.750754081629811"><ele>9.0</ele><time>2026-03-23T12:49:12Z</time></trkpt><trkpt lat="44.95576169604617" lon="11.750643309650833"><ele>9.0</ele><time>2026-03-23T12:49:14Z</time></trkpt><trkpt lat="44.955711717250736" lon="11.75053550816901"><ele>9.0</ele><time>2026-03-23T12:49:16Z</time></trkpt><trkpt lat="44.955662272887984" lon="11.75042917676239"><ele>9.0</ele><time>2026-03-23T12:49:18Z</time></trkpt><trkpt lat="44.95561265275725" lon="11.750321817416545"><ele>9.0</ele><time>2026-03-23T12:49:20Z</time></trkpt><trkpt lat="44.95556203630837" lon="11.750213353639538"><ele>9.0</ele><time>2026-03-23T12:49:22Z</time></trkpt><trkpt lat="44.95551168243123" lon="11.750103881440651"><ele>9.0</ele><time>2026-03-23T12:49:24Z</time></trkpt><trkpt lat="44.95546070863432" lon="11.749991262478487"><ele>9.0</ele><time>2026-03-23T12:49:26Z</time></trkpt><trkpt lat="44.95540470544188" lon="11.749882756808875"><ele>9.0</ele><time>2026-03-23T12:49:28Z</time></trkpt><trkpt lat="44.955354796276936" lon="11.74976801468538"><ele>9.6</ele><time>2026-03-23T12:49:30Z</time></trkpt><trkpt lat="44.955305849079586" lon="11.749653642130722"><ele>10.2</ele><time>2026-03-23T12:49:32Z</time></trkpt><trkpt lat="44.95525596709541" lon="11.749541704316451"><ele>10.799999999999999</ele><time>2026-03-23T12:49:34Z</time></trkpt><trkpt lat="44.95520538183961" lon="11.749437903700965"><ele>11.4</ele><time>2026-03-23T12:49:36Z</time></trkpt><trkpt lat="44.95515742040477" lon="11.749331295716006"><ele>12.0</ele><time>2026-03-23T12:49:38Z</time></trkpt><trkpt lat="44.955109667496394" lon="11.749219962401657"><ele>12.0</ele><time>2026-03-23T12:49:40Z</time></trkpt><trkpt lat="44.95506195612772" lon="11.749112168023904"><ele>12.0</ele><time>2026-03-23T12:49:42Z</time></trkpt><trkpt lat="44.95500931136528" lon="11.749005081688551"><ele>12.0</ele><time>2026-03-23T12:49:44Z</time></trkpt><trkpt lat="44.95495824066192" lon="11.748893049641191"><ele>12.0</ele><time>2026-03-23T12:49:46Z</time></trkpt><trkpt lat="44.95491057095622" lon="11.748780547473293"><ele>12.0</ele><time>2026-03-23T12:49:48Z</time></trkpt><trkpt lat="44.95485523526476" lon="11.748671115948055"><ele>11.2</ele><time>2026-03-23T12:49:50Z</time></trkpt><trkpt lat="44.95480496431746" lon="11.748559541311701"><ele>10.399999999999999</ele><time>2026-03-23T12:49:52Z</time></trkpt><trkpt lat="44.954752725056665" lon="11.748448222073801"><ele>9.600000000000001</ele><time>2026-03-23T12:49:54Z</time></trkpt><trkpt lat="44.95469957862487" lon="11.748337471153748"><ele>8.8</ele><time>2026-03-23T12:49:56Z</time></trkpt><trkpt lat="44.95464393531123" lon="11.748227289404525"><ele>8.0</ele><time>2026-03-23T12:49:58Z</time></trkpt><trkpt lat="44.954588955046034" lon="11.748112854974574"><ele>8.0</ele><time>2026-03-23T12:50:00Z</time></trkpt><trkpt lat="44.954534368831425" lon="11.748007187852503"><ele>8.0</ele><time>2026-03-23T12:50:02Z</time></trkpt><trkpt lat="44.954480832749596" lon="11.74789785724565"><ele>8.0</ele><time>2026-03-23T12:50:04Z</time></trkpt><trkpt lat="44.9544292486306" lon="11.74779278175052"><ele>8.0</ele><time>2026-03-23T12:50:06Z</time></trkpt><trkpt lat="44.95437499061626" lon="11.747687975523831"><ele>8.0</ele><time>2026-03-23T12:50:08Z</time></trkpt><trkpt lat="44.95432134316994" lon="11.74758227388499"><ele>7.800000000000001</ele><time>2026-03-23T12:50:10Z</time></trkpt><trkpt lat="44.954268974627084" lon="11.747474697642037"><ele>7.6000000000000005</ele><time>2026-03-23T12:50:12Z</time></trkpt><trkpt lat="44.954212915826275" lon="11.7473647349276"><ele>7.3999999999999995</ele><time>2026-03-23T12:50:14Z</time></trkpt><trkpt lat="44.954157178495116" lon="11.747262195804696"><ele>7.199999999999999</ele><time>2026-03-23T12:50:16Z</time></trkpt><trkpt lat="44.95410884285793" lon="11.747159837496913"><ele>7.0</ele><time>2026-03-23T12:50:18Z</time></trkpt><trkpt lat="44.95405901253433" lon="11.747063179442517"><ele>7.000000000000001</ele><time>2026-03-23T12:50:20Z</time></trkpt><trkpt lat="44.95401310948468" lon="11.74697002964024"><ele>7.0</ele><time>2026-03-23T12:50:22Z</time></trkpt><trkpt lat="44.95396651403892" lon="11.746880410163495"><ele>7.0</ele><time>2026-03-23T12:50:24Z</time></trkpt><trkpt lat="44.953918235174825" lon="11.746774755078798"><ele>7.0</ele><time>2026-03-23T12:50:26Z</time></trkpt><trkpt lat="44.953866210082325" lon="11.746669225527969"><ele>7.000000000000001</ele><time>2026-03-23T12:50:28Z</time></trkpt><trkpt lat="44.95381229891944" lon="11.74656116443067"><ele>7.0</ele><time>2026-03-23T12:50:29.999Z</time></trkpt><trkpt lat="44.95376020647009" lon="11.746451449520322"><ele>7.6</ele><time>2026-03-23T12:50:31.999Z</time></trkpt><trkpt lat="44.95370312650387" lon="11.746344203352875"><ele>8.2</ele><time>2026-03-23T12:50:33.999Z</time></trkpt><trkpt lat="44.953648705857425" lon="11.74623218030687"><ele>8.8</ele><time>2026-03-23T12:50:35.999Z</time></trkpt><trkpt lat="44.95359568529536" lon="11.746124970191142"><ele>9.4</ele><time>2026-03-23T12:50:37.999Z</time></trkpt><trkpt lat="44.95354431925803" lon="11.746027297111342"><ele>10.0</ele><time>2026-03-23T12:50:39.999Z</time></trkpt><trkpt lat="44.95349664642727" lon="11.745936065813085"><ele>10.285714285714285</ele><time>2026-03-23T12:50:41.999Z</time></trkpt><trkpt lat="44.95344756824029" lon="11.74585460718044"><ele>10.571428571428571</ele><time>2026-03-23T12:50:43.999Z</time></trkpt><trkpt lat="44.95340215533941" lon="11.745771927581185"><ele>10.857142857142858</ele><time>2026-03-23T12:50:45.999Z</time></trkpt><trkpt lat="44.95335563368717" lon="11.74569311473884"><ele>11.142857142857142</ele><time>2026-03-23T12:50:47.999Z</time></trkpt><trkpt lat="44.95331066000519" lon="11.745616923243528"><ele>11.428571428571429</ele><time>2026-03-23T12:50:49.999Z</time></trkpt><trkpt lat="44.95326587332112" lon="11.745542571629858"><ele>11.714285714285714</ele><time>2026-03-23T12:50:51.999Z</time></trkpt><trkpt lat="44.953224309264805" lon="11.74546256922906"><ele>12.0</ele><time>2026-03-23T12:50:53.999Z</time></trkpt><trkpt lat="44.953156338743085" lon="11.745384580016495"><ele>12.0</ele><time>2026-03-23T12:50:55.999Z</time></trkpt><trkpt lat="44.95308426078161" lon="11.74530264761093"><ele>12.0</ele><time>2026-03-23T12:50:57.999Z</time></trkpt><trkpt lat="44.95302013963972" lon="11.745211716921157"><ele>12.0</ele><time>2026-03-23T12:50:59.999Z</time></trkpt><trkpt lat="44.95295407693686" lon="11.745129453901543"><ele>12.0</ele><time>2026-03-23T12:51:01.999Z</time></trkpt><trkpt lat="44.9528875163004" lon="11.745047912603411"><ele>12.0</ele><time>2026-03-23T12:51:03.999Z</time></trkpt><trkpt lat="44.95282248644045" lon="11.744962205643276"><ele>12.0</ele><time>2026-03-23T12:51:05.999Z</time></trkpt><trkpt lat="44.95276076625642" lon="11.744880448966803"><ele>12.166666666666666</ele><time>2026-03-23T12:51:07.999Z</time></trkpt><trkpt lat="44.95270150355628" lon="11.744802510729087"><ele>12.333333333333332</ele><time>2026-03-23T12:51:10Z</time></trkpt><trkpt lat="44.95263006377933" lon="11.74472858609325"><ele>12.5</ele><time>2026-03-23T12:51:12Z</time></trkpt><trkpt lat="44.952563178088745" lon="11.744653908014158"><ele>12.666666666666666</ele><time>2026-03-23T12:51:14Z</time></trkpt><trkpt lat="44.95250426597995" lon="11.744576387334558"><ele>12.833333333333332</ele><time>2026-03-23T12:51:16Z</time></trkpt><trkpt lat="44.952444105608805" lon="11.744508544052003"><ele>13.0</ele><time>2026-03-23T12:51:18Z</time></trkpt><trkpt lat="44.952389077072766" lon="11.744440575944248"><ele>12.833333333333332</ele><time>2026-03-23T12:51:20Z</time></trkpt><trkpt lat="44.95233938617086" lon="11.744366844392891"><ele>12.666666666666666</ele><time>2026-03-23T12:51:22Z</time></trkpt><trkpt lat="44.95227512460897" lon="11.74429271628152"><ele>12.5</ele><time>2026-03-23T12:51:24Z</time></trkpt><trkpt lat="44.952209583312" lon="11.744218723286586"><ele>12.333333333333332</ele><time>2026-03-23T12:51:26Z</time></trkpt><trkpt lat="44.95214387574888" lon="11.744149534008656"><ele>12.166666666666666</ele><time>2026-03-23T12:51:28Z</time></trkpt><trkpt lat="44.95207584855101" lon="11.744090504299278"><ele>12.0</ele><time>2026-03-23T12:51:30Z</time></trkpt><trkpt lat="44.95201330735433" lon="11.744027563963684"><ele>12.0</ele><time>2026-03-23T12:51:32Z</time></trkpt><trkpt lat="44.951946211882735" lon="11.743957874725359"><ele>12.0</ele><time>2026-03-23T12:51:34Z</time></trkpt><trkpt lat="44.95187422645532" lon="11.743889654243834"><ele>12.0</ele><time>2026-03-23T12:51:36Z</time></trkpt><trkpt lat="44.95179426020987" lon="11.743830292617382"><ele>12.0</ele><time>2026-03-23T12:51:38Z</time></trkpt><trkpt lat="44.951716900488314" lon="11.743775726099875"><ele>12.0</ele><time>2026-03-23T12:51:40Z</time></trkpt><trkpt lat="44.951647449415084" lon="11.743716466226573"><ele>12.0</ele><time>2026-03-23T12:51:42Z</time></trkpt><trkpt lat="44.951579120380615" lon="11.743660152835814"><ele>11.666666666666666</ele><time>2026-03-23T12:51:44Z</time></trkpt><trkpt lat="44.951507811048394" lon="11.743614261176656"><ele>11.333333333333334</ele><time>2026-03-23T12:51:46Z</time></trkpt><trkpt lat="44.95142603545968" lon="11.743564470845604"><ele>11.0</ele><time>2026-03-23T12:51:48Z</time></trkpt><trkpt lat="44.951345107211296" lon="11.743514347310379"><ele>10.666666666666668</ele><time>2026-03-23T12:51:50Z</time></trkpt><trkpt lat="44.95126905755549" lon="11.74346358107676"><ele>10.333333333333334</ele><time>2026-03-23T12:51:52Z</time></trkpt><trkpt lat="44.951196357619985" lon="11.743417952199055"><ele>10.0</ele><time>2026-03-23T12:51:54Z</time></trkpt><trkpt lat="44.95112787908583" lon="11.743365791502612"><ele>10.0</ele><time>2026-03-23T12:51:56Z</time></trkpt><trkpt lat="44.951057432727595" lon="11.743325554652047"><ele>10.0</ele><time>2026-03-23T12:51:58Z</time></trkpt><trkpt lat="44.95098135427867" lon="11.743269052657213"><ele>10.0</ele><time>2026-03-23T12:52:00Z</time></trkpt><trkpt lat="44.95090175090149" lon="11.74322075286566"><ele>10.0</ele><time>2026-03-23T12:52:02Z</time></trkpt><trkpt lat="44.95082585360277" lon="11.743179500666738"><ele>10.0</ele><time>2026-03-23T12:52:04Z</time></trkpt><trkpt lat="44.95075383050475" lon="11.743137765532165"><ele>10.0</ele><time>2026-03-23T12:52:06Z</time></trkpt><trkpt lat="44.95068412615694" lon="11.743091161489026"><ele>10.0</ele><time>2026-03-23T12:52:08Z</time></trkpt><trkpt lat="44.95060571769719" lon="11.743042185147782"><ele>10.0</ele><time>2026-03-23T12:52:10Z</time></trkpt><trkpt lat="44.95051754390546" lon="11.743007821455457"><ele>10.0</ele><time>2026-03-23T12:52:12Z</time></trkpt><trkpt lat="44.950433762943156" lon="11.74297771301758"><ele>10.0</ele><time>2026-03-23T12:52:14Z</time></trkpt><trkpt lat="44.95035510175103" lon="11.742936466099698"><ele>10.0</ele><time>2026-03-23T12:52:16Z</time></trkpt><trkpt lat="44.9502836276645" lon="11.742892565920938"><ele>10.0</ele><time>2026-03-23T12:52:18Z</time></trkpt><trkpt lat="44.950209661930785" lon="11.742856631753932"><ele>10.0</ele><time>2026-03-23T12:52:20Z</time></trkpt><trkpt lat="44.95012298016523" lon="11.742822138808576"><ele>10.0</ele><time>2026-03-23T12:52:22Z</time></trkpt><trkpt lat="44.95003481663004" lon="11.742788034763125"><ele>10.0</ele><time>2026-03-23T12:52:24Z</time></trkpt><trkpt lat="44.94994396843593" lon="11.74276279237542"><ele>10.0</ele><time>2026-03-23T12:52:26Z</time></trkpt><trkpt lat="44.94985353647144" lon="11.74273445925359"><ele>10.0</ele><time>2026-03-23T12:52:28Z</time></trkpt><trkpt lat="44.94976207599334" lon="11.74269898899206"><ele>9.4</ele><time>2026-03-23T12:52:30Z</time></trkpt><trkpt lat="44.94966539835223" lon="11.742670003475911"><ele>8.8</ele><time>2026-03-23T12:52:32Z</time></trkpt><trkpt lat="44.94956824523334" lon="11.742642409142409"><ele>8.2</ele><time>2026-03-23T12:52:34Z</time></trkpt><trkpt lat="44.94947211300648" lon="11.74261243742207"><ele>7.6</ele><time>2026-03-23T12:52:35.999Z</time></trkpt><trkpt lat="44.94938032506449" lon="11.742583509765415"><ele>7.0</ele><time>2026-03-23T12:52:37.999Z</time></trkpt><trkpt lat="44.949288611090864" lon="11.742560792446778"><ele>6.6</ele><time>2026-03-23T12:52:39.999Z</time></trkpt><trkpt lat="44.94919969698068" lon="11.742535146773104"><ele>6.199999999999999</ele><time>2026-03-23T12:52:41.999Z</time></trkpt><trkpt lat="44.94911068151638" lon="11.742505648307326"><ele>5.8</ele><time>2026-03-23T12:52:43.999Z</time></trkpt><trkpt lat="44.94901871447863" lon="11.742483170814104"><ele>5.4</ele><time>2026-03-23T12:52:45.999Z</time></trkpt><trkpt lat="44.94892823827016" lon="11.7424530965756"><ele>5.0</ele><time>2026-03-23T12:52:47.999Z</time></trkpt><trkpt lat="44.948833705774" lon="11.742427365921152"><ele>5.0</ele><time>2026-03-23T12:52:49.999Z</time></trkpt><trkpt lat="44.948738534183576" lon="11.742402912459053"><ele>5.0</ele><time>2026-03-23T12:52:51.999Z</time></trkpt><trkpt lat="44.94864324718877" lon="11.742377237994694"><ele>5.0</ele><time>2026-03-23T12:52:53.999Z</time></trkpt><trkpt lat="44.94854613283498" lon="11.742354959574055"><ele>5.0</ele><time>2026-03-23T12:52:55.999Z</time></trkpt><trkpt lat="44.94845105639728" lon="11.742324050711392"><ele>5.0</ele><time>2026-03-23T12:52:57.999Z</time></trkpt><trkpt lat="44.9483513554622" lon="11.742298071677038"><ele>5.4</ele><time>2026-03-23T12:52:59.999Z</time></trkpt><trkpt lat="44.94824998235864" lon="11.742278560650888"><ele>5.8</ele><time>2026-03-23T12:53:01.999Z</time></trkpt><trkpt lat="44.94814691677508" lon="11.742253775522189"><ele>6.199999999999999</ele><time>2026-03-23T12:53:03.999Z</time></trkpt><trkpt lat="44.94804644634052" lon="11.74223134825597"><ele>6.6</ele><time>2026-03-23T12:53:05.999Z</time></trkpt><trkpt lat="44.94794292763069" lon="11.742212180591297"><ele>7.0</ele><time>2026-03-23T12:53:07.999Z</time></trkpt><trkpt lat="44.94784007773066" lon="11.742190460651633"><ele>7.0</ele><time>2026-03-23T12:53:09.999Z</time></trkpt><trkpt lat="44.94773618309024" lon="11.742171598382383"><ele>6.999999999999999</ele><time>2026-03-23T12:53:11.999Z</time></trkpt><trkpt lat="44.947631480613474" lon="11.742153560372326"><ele>6.999999999999999</ele><time>2026-03-23T12:53:13.999Z</time></trkpt><trkpt lat="44.94752779796203" lon="11.742133825127008"><ele>7.0</ele><time>2026-03-23T12:53:16Z</time></trkpt><trkpt lat="44.94742313671869" lon="11.742117673057177"><ele>7.0</ele><time>2026-03-23T12:53:18Z</time></trkpt><trkpt lat="44.94731552885315" lon="11.74210414553932"><ele>6.6</ele><time>2026-03-23T12:53:20Z</time></trkpt><trkpt lat="44.94721000929045" lon="11.742095457517845"><ele>6.199999999999999</ele><time>2026-03-23T12:53:22Z</time></trkpt><trkpt lat="44.94711020706997" lon="11.742083652060535"><ele>5.8</ele><time>2026-03-23T12:53:24Z</time></trkpt><trkpt lat="44.947005830934096" lon="11.742077887147497"><ele>5.4</ele><time>2026-03-23T12:53:26Z</time></trkpt><trkpt lat="44.94690409665676" lon="11.742059474640762"><ele>5.0</ele><time>2026-03-23T12:53:28Z</time></trkpt><trkpt lat="44.94680242713657" lon="11.742060185630272"><ele>5.2</ele><time>2026-03-23T12:53:30Z</time></trkpt><trkpt lat="44.94669924295712" lon="11.7420686970197"><ele>5.4</ele><time>2026-03-23T12:53:32Z</time></trkpt><trkpt lat="44.94659636303807" lon="11.742096356504993"><ele>5.6</ele><time>2026-03-23T12:53:34Z</time></trkpt><trkpt lat="44.94649415133721" lon="11.74213032918712"><ele>5.8</ele><time>2026-03-23T12:53:36Z</time></trkpt><trkpt lat="44.946400853601475" lon="11.742174643997854"><ele>6.0</ele><time>2026-03-23T12:53:38Z</time></trkpt><trkpt lat="44.94630498179131" lon="11.742222905702107"><ele>6.0</ele><time>2026-03-23T12:53:40Z</time></trkpt><trkpt lat="44.94620826495667" lon="11.742277114388052"><ele>6.0</ele><time>2026-03-23T12:53:42Z</time></trkpt><trkpt lat="44.946109679615866" lon="11.742334555776278"><ele>6.0</ele><time>2026-03-23T12:53:44Z</time></trkpt><trkpt lat="44.946012651900595" lon="11.742390994872029"><ele>6.0</ele><time>2026-03-23T12:53:46Z</time></trkpt><trkpt lat="44.945913436745364" lon="11.74244911680008"><ele>6.0</ele><time>2026-03-23T12:53:48Z</time></trkpt><trkpt lat="44.9458133767039" lon="11.742503574806342"><ele>5.8</ele><time>2026-03-23T12:53:50Z</time></trkpt><trkpt lat="44.945714420239945" lon="11.742556011654004"><ele>5.6</ele><time>2026-03-23T12:53:52Z</time></trkpt><trkpt lat="44.945613934010666" lon="11.742613941261943"><ele>5.4</ele><time>2026-03-23T12:53:54Z</time></trkpt><trkpt lat="44.945515109613055" lon="11.742670747614468"><ele>5.2</ele><time>2026-03-23T12:53:56Z</time></trkpt><trkpt lat="44.94541714135732" lon="11.74272744714086"><ele>5.0</ele><time>2026-03-23T12:53:58Z</time></trkpt><trkpt lat="44.945318493566646" lon="11.742790152383616"><ele>5.2</ele><time>2026-03-23T12:54:00Z</time></trkpt><trkpt lat="44.945216152868795" lon="11.742839169296563"><ele>5.4</ele><time>2026-03-23T12:54:02Z</time></trkpt><trkpt lat="44.94511816112889" lon="11.742893462325481"><ele>5.6</ele><time>2026-03-23T12:54:04Z</time></trkpt><trkpt lat="44.94501954041092" lon="11.742950792788623"><ele>5.8</ele><time>2026-03-23T12:54:06Z</time></trkpt><trkpt lat="44.94491935576519" lon="11.743004957098126"><ele>6.0</ele><time>2026-03-23T12:54:08Z</time></trkpt><trkpt lat="44.94481972030706" lon="11.74306794900739"><ele>6.0</ele><time>2026-03-23T12:54:10Z</time></trkpt><trkpt lat="44.944719153364865" lon="11.743124419724381"><ele>6.0</ele><time>2026-03-23T12:54:12Z</time></trkpt><trkpt lat="44.94461792542902" lon="11.743184576331949"><ele>6.0</ele><time>2026-03-23T12:54:14Z</time></trkpt><trkpt lat="44.9445153261531" lon="11.743239079067347"><ele>6.0</ele><time>2026-03-23T12:54:16Z</time></trkpt><trkpt lat="44.944413013569225" lon="11.743297422614392"><ele>6.0</ele><time>2026-03-23T12:54:18Z</time></trkpt><trkpt lat="44.9443089113305" lon="11.743355902482936"><ele>5.8</ele><time>2026-03-23T12:54:20Z</time></trkpt><trkpt lat="44.94420710129943" lon="11.743415556316569"><ele>5.6</ele><time>2026-03-23T12:54:22Z</time></trkpt><trkpt lat="44.94410616877139" lon="11.743474470043179"><ele>5.4</ele><time>2026-03-23T12:54:24Z</time></trkpt><trkpt lat="44.9440039936457" lon="11.74352840054698"><ele>5.2</ele><time>2026-03-23T12:54:26Z</time></trkpt><trkpt lat="44.943899842481635" lon="11.74358815849719"><ele>5.0</ele><time>2026-03-23T12:54:28Z</time></trkpt><trkpt lat="44.943799406186365" lon="11.743647058667309"><ele>5.0</ele><time>2026-03-23T12:54:30Z</time></trkpt><trkpt lat="44.94369843656572" lon="11.743705343516236"><ele>5.0</ele><time>2026-03-23T12:54:32Z</time></trkpt><trkpt lat="44.9435964032096" lon="11.74375937847083"><ele>5.0</ele><time>2026-03-23T12:54:34Z</time></trkpt><trkpt lat="44.94350036701382" lon="11.74381416334275"><ele>5.0</ele><time>2026-03-23T12:54:36Z</time></trkpt><trkpt lat="44.94340668759115" lon="11.743865688173384"><ele>5.0</ele><time>2026-03-23T12:54:38Z</time></trkpt><trkpt lat="44.9433160453726" lon="11.743923016320162"><ele>5.0</ele><time>2026-03-23T12:54:39.999Z</time></trkpt><trkpt lat="44.9432250009239" lon="11.743968623111858"><ele>5.0</ele><time>2026-03-23T12:54:41.999Z</time></trkpt><trkpt lat="44.94313820715127" lon="11.74401790526192"><ele>5.0</ele><time>2026-03-23T12:54:43.999Z</time></trkpt><trkpt lat="44.943049764190945" lon="11.744069109413132"><ele>5.0</ele><time>2026-03-23T12:54:45.999Z</time></trkpt><trkpt lat="44.94295314955374" lon="11.744124611578675"><ele>5.0</ele><time>2026-03-23T12:54:47.999Z</time></trkpt><trkpt lat="44.94285620256723" lon="11.74417755295363"><ele>5.0</ele><time>2026-03-23T12:54:49.999Z</time></trkpt><trkpt lat="44.94275837939607" lon="11.744236978339028"><ele>5.0</ele><time>2026-03-23T12:54:51.999Z</time></trkpt><trkpt lat="44.94265652591223" lon="11.744282919359737"><ele>5.0</ele><time>2026-03-23T12:54:53.999Z</time></trkpt><trkpt lat="44.94255921924521" lon="11.744341065757615"><ele>5.0</ele><time>2026-03-23T12:54:55.999Z</time></trkpt><trkpt lat="44.942464456425824" lon="11.744400383446894"><ele>5.0</ele><time>2026-03-23T12:54:57.999Z</time></trkpt><trkpt lat="44.9423734730677" lon="11.744451700575244"><ele>4.833333333333334</ele><time>2026-03-23T12:54:59.999Z</time></trkpt><trkpt lat="44.94229279002285" lon="11.74451454945564"><ele>4.666666666666667</ele><time>2026-03-23T12:55:01.999Z</time></trkpt><trkpt lat="44.942211529596" lon="11.744571226565526"><ele>4.5</ele><time>2026-03-23T12:55:03.999Z</time></trkpt><trkpt lat="44.94213035154925" lon="11.744626611794741"><ele>4.333333333333333</ele><time>2026-03-23T12:55:05.999Z</time></trkpt><trkpt lat="44.94205142326195" lon="11.744676935614775"><ele>4.166666666666666</ele><time>2026-03-23T12:55:07.999Z</time></trkpt><trkpt lat="44.94197803438035" lon="11.744727326374443"><ele>4.0</ele><time>2026-03-23T12:55:09.999Z</time></trkpt><trkpt lat="44.94190788082451" lon="11.744774523750372"><ele>3.9999999999999996</ele><time>2026-03-23T12:55:11.999Z</time></trkpt><trkpt lat="44.9418370965846" lon="11.74481930287326"><ele>4.0</ele><time>2026-03-23T12:55:13.999Z</time></trkpt><trkpt lat="44.94176758651752" lon="11.744855186121246"><ele>4.0</ele><time>2026-03-23T12:55:15.999Z</time></trkpt><trkpt lat="44.94169729278242" lon="11.744904405965077"><ele>4.0</ele><time>2026-03-23T12:55:17.999Z</time></trkpt><trkpt lat="44.94161238626993" lon="11.74496312013844"><ele>3.9999999999999996</ele><time>2026-03-23T12:55:19.999Z</time></trkpt><trkpt lat="44.94152703443554" lon="11.745005265160222"><ele>4.0</ele><time>2026-03-23T12:55:22Z</time></trkpt><trkpt lat="44.94144636782456" lon="11.745048409146506"><ele>4.166666666666666</ele><time>2026-03-23T12:55:24Z</time></trkpt><trkpt lat="44.94136604294089" lon="11.745087977773457"><ele>4.333333333333333</ele><time>2026-03-23T12:55:26Z</time></trkpt><trkpt lat="44.941290802601685" lon="11.74512866415423"><ele>4.5</ele><time>2026-03-23T12:55:28Z</time></trkpt><trkpt lat="44.94121276688878" lon="11.745157177005183"><ele>4.666666666666667</ele><time>2026-03-23T12:55:30Z</time></trkpt><trkpt lat="44.94113659209504" lon="11.74518422179125"><ele>4.833333333333334</ele><time>2026-03-23T12:55:32Z</time></trkpt><trkpt lat="44.94105720938444" lon="11.745213593916068"><ele>5.0</ele><time>2026-03-23T12:55:34Z</time></trkpt><trkpt lat="44.94096298193625" lon="11.745243463099836"><ele>4.833333333333334</ele><time>2026-03-23T12:55:36Z</time></trkpt><trkpt lat="44.9408722865294" lon="11.745264955348418"><ele>4.666666666666667</ele><time>2026-03-23T12:55:38Z</time></trkpt><trkpt lat="44.940784157244146" lon="11.745276459216461"><ele>4.5</ele><time>2026-03-23T12:55:40Z</time></trkpt><trkpt lat="44.940701294584684" lon="11.745285031381094"><ele>4.333333333333333</ele><time>2026-03-23T12:55:42Z</time></trkpt><trkpt lat="44.94062049763772" lon="11.74531232468875"><ele>4.166666666666666</ele><time>2026-03-23T12:55:44Z</time></trkpt><trkpt lat="44.94052787002882" lon="11.745343282008385"><ele>4.0</ele><time>2026-03-23T12:55:46Z</time></trkpt><trkpt lat="44.94043796592156" lon="11.7453734091276"><ele>3.9999999999999996</ele><time>2026-03-23T12:55:48Z</time></trkpt><trkpt lat="44.94035369612789" lon="11.745405646035316"><ele>4.0</ele><time>2026-03-23T12:55:50Z</time></trkpt><trkpt lat="44.940271181450996" lon="11.745434339868861"><ele>4.0</ele><time>2026-03-23T12:55:52Z</time></trkpt><trkpt lat="44.94019005633026" lon="11.745464398215814"><ele>4.0</ele><time>2026-03-23T12:55:54Z</time></trkpt><trkpt lat="44.940110993249505" lon="11.745485468863409"><ele>3.9999999999999996</ele><time>2026-03-23T12:55:56Z</time></trkpt><trkpt lat="44.94003281559071" lon="11.745515474622799"><ele>4.0</ele><time>2026-03-23T12:55:58Z</time></trkpt><trkpt lat="44.939959567532455" lon="11.745546006078495"><ele>4.6</ele><time>2026-03-23T12:56:00Z</time></trkpt><trkpt lat="44.93989123917239" lon="11.745586325461263"><ele>5.2</ele><time>2026-03-23T12:56:02Z</time></trkpt><trkpt lat="44.93981444914155" lon="11.745608900480912"><ele>5.799999999999999</ele><time>2026-03-23T12:56:04Z</time></trkpt><trkpt lat="44.939721950985756" lon="11.745644418403732"><ele>6.3999999999999995</ele><time>2026-03-23T12:56:06Z</time></trkpt><trkpt lat="44.939625868989765" lon="11.745689858114524"><ele>7.0</ele><time>2026-03-23T12:56:08Z</time></trkpt><trkpt lat="44.93952697314317" lon="11.745729048936312"><ele>7.0</ele><time>2026-03-23T12:56:10Z</time></trkpt><trkpt lat="44.93942687706398" lon="11.745770342197074"><ele>6.999999999999999</ele><time>2026-03-23T12:56:12Z</time></trkpt><trkpt lat="44.939327561246714" lon="11.745813092841361"><ele>6.999999999999999</ele><time>2026-03-23T12:56:14Z</time></trkpt><trkpt lat="44.9392295019832" lon="11.745857144189436"><ele>7.0</ele><time>2026-03-23T12:56:16Z</time></trkpt><trkpt lat="44.93912941354947" lon="11.74589905781896"><ele>7.0</ele><time>2026-03-23T12:56:18Z</time></trkpt><trkpt lat="44.93902879183639" lon="11.745937158606557"><ele>6.3999999999999995</ele><time>2026-03-23T12:56:20Z</time></trkpt><trkpt lat="44.938925811232856" lon="11.7459793850492"><ele>5.799999999999999</ele><time>2026-03-23T12:56:22Z</time></trkpt><trkpt lat="44.93882442915997" lon="11.746026509405912"><ele>5.2</ele><time>2026-03-23T12:56:24Z</time></trkpt><trkpt lat="44.938720608170605" lon="11.746065431484292"><ele>4.6</ele><time>2026-03-23T12:56:25.999Z</time></trkpt><trkpt lat="44.9386179251339" lon="11.74611121831389"><ele>4.0</ele><time>2026-03-23T12:56:27.999Z</time></trkpt><trkpt lat="44.93851436638742" lon="11.746155339499545"><ele>4.0</ele><time>2026-03-23T12:56:29.999Z</time></trkpt><trkpt lat="44.938410971662755" lon="11.746198619688109"><ele>4.0</ele><time>2026-03-23T12:56:31.999Z</time></trkpt><trkpt lat="44.93830432789284" lon="11.746243469738566"><ele>4.0</ele><time>2026-03-23T12:56:33.999Z</time></trkpt><trkpt lat="44.93819854546149" lon="11.746281662009944"><ele>4.0</ele><time>2026-03-23T12:56:35.999Z</time></trkpt><trkpt lat="44.93809464892315" lon="11.746322238801694"><ele>4.0</ele><time>2026-03-23T12:56:37.999Z</time></trkpt><trkpt lat="44.9379952469257" lon="11.746362941716527"><ele>4.0</ele><time>2026-03-23T12:56:39.999Z</time></trkpt><trkpt lat="44.93789739053174" lon="11.746404270463009"><ele>4.0</ele><time>2026-03-23T12:56:41.999Z</time></trkpt><trkpt lat="44.937796733159736" lon="11.746454051965433"><ele>4.0</ele><time>2026-03-23T12:56:43.999Z</time></trkpt><trkpt lat="44.937697343620755" lon="11.74650941930327"><ele>4.0</ele><time>2026-03-23T12:56:45.999Z</time></trkpt><trkpt lat="44.937591850470554" lon="11.746550721897353"><ele>4.0</ele><time>2026-03-23T12:56:47.999Z</time></trkpt><trkpt lat="44.93748337091115" lon="11.74656639987537"><ele>4.4</ele><time>2026-03-23T12:56:49.999Z</time></trkpt><trkpt lat="44.93737790344187" lon="11.74658508019122"><ele>4.800000000000001</ele><time>2026-03-23T12:56:51.999Z</time></trkpt><trkpt lat="44.93727097531067" lon="11.746605769286445"><ele>5.199999999999999</ele><time>2026-03-23T12:56:53.999Z</time></trkpt><trkpt lat="44.937164833538056" lon="11.746631248028114"><ele>5.6</ele><time>2026-03-23T12:56:55.999Z</time></trkpt><trkpt lat="44.93706253193534" lon="11.746655471553535"><ele>6.0</ele><time>2026-03-23T12:56:57.999Z</time></trkpt><trkpt lat="44.93696077640752" lon="11.746683735012057"><ele>6.0</ele><time>2026-03-23T12:56:59.999Z</time></trkpt><trkpt lat="44.93686116991839" lon="11.746713905839421"><ele>6.0</ele><time>2026-03-23T12:57:01.999Z</time></trkpt><trkpt lat="44.93676310892946" lon="11.746744471723161"><ele>6.0</ele><time>2026-03-23T12:57:03.999Z</time></trkpt><trkpt lat="44.9366726759378" lon="11.746782085521493"><ele>6.0</ele><time>2026-03-23T12:57:05.999Z</time></trkpt><trkpt lat="44.936583443997705" lon="11.746808333609101"><ele>6.0</ele><time>2026-03-23T12:57:07.999Z</time></trkpt><trkpt lat="44.9364954715503" lon="11.74683555966228"><ele>5.5</ele><time>2026-03-23T12:57:09.999Z</time></trkpt><trkpt lat="44.93641469104731" lon="11.746864731824257"><ele>5.0</ele><time>2026-03-23T12:57:11.999Z</time></trkpt><trkpt lat="44.936335943480046" lon="11.746894779034328"><ele>4.5</ele><time>2026-03-23T12:57:13.999Z</time></trkpt><trkpt lat="44.936259693918" lon="11.746914550870573"><ele>4.0</ele><time>2026-03-23T12:57:15.999Z</time></trkpt><trkpt lat="44.93618753862278" lon="11.746941261513511"><ele>3.5</ele><time>2026-03-23T12:57:17.999Z</time></trkpt><trkpt lat="44.9361171299762" lon="11.746967676596578"><ele>3.0</ele><time>2026-03-23T12:57:19.999Z</time></trkpt><trkpt lat="44.93605022166716" lon="11.746990847558807"><ele>3.0</ele><time>2026-03-23T12:57:21.999Z</time></trkpt><trkpt lat="44.93598808054771" lon="11.747013071580485"><ele>3.0</ele><time>2026-03-23T12:57:23.999Z</time></trkpt><trkpt lat="44.93590028875636" lon="11.747053786770982"><ele>3.0</ele><time>2026-03-23T12:57:26.999Z</time></trkpt><trkpt lat="44.93580331028291" lon="11.747083858878373"><ele>3.0</ele><time>2026-03-23T12:57:30Z</time></trkpt><trkpt lat="44.935716201768166" lon="11.747112264483322"><ele>3.0</ele><time>2026-03-23T12:57:32Z</time></trkpt><trkpt lat="44.935636633406" lon="11.747136697974291"><ele>3.0</ele><time>2026-03-23T12:57:34Z</time></trkpt><trkpt lat="44.935561847437036" lon="11.747170320517032"><ele>3.3333333333333335</ele><time>2026-03-23T12:57:36Z</time></trkpt><trkpt lat="44.93548990747444" lon="11.747198769203383"><ele>3.666666666666667</ele><time>2026-03-23T12:57:38Z</time></trkpt><trkpt lat="44.93542089542118" lon="11.747228560599499"><ele>4.0</ele><time>2026-03-23T12:57:40Z</time></trkpt><trkpt lat="44.935338812482264" lon="11.747271173424645"><ele>4.333333333333334</ele><time>2026-03-23T12:57:42Z</time></trkpt><trkpt lat="44.935252841041915" lon="11.747316037004044"><ele>4.666666666666667</ele><time>2026-03-23T12:57:44Z</time></trkpt><trkpt lat="44.935169083618355" lon="11.747342738343365"><ele>5.0</ele><time>2026-03-23T12:57:46Z</time></trkpt><trkpt lat="44.935090228273495" lon="11.747379415147874"><ele>5.833333333333334</ele><time>2026-03-23T12:57:48Z</time></trkpt><trkpt lat="44.93501028318749" lon="11.74740858601473"><ele>6.666666666666667</ele><time>2026-03-23T12:57:50Z</time></trkpt><trkpt lat="44.93493222195495" lon="11.747440365878964"><ele>7.5</ele><time>2026-03-23T12:57:52Z</time></trkpt><trkpt lat="44.934851795111996" lon="11.747464223529445"><ele>8.333333333333334</ele><time>2026-03-23T12:57:54Z</time></trkpt><trkpt lat="44.93475612803486" lon="11.747486203828025"><ele>9.166666666666668</ele><time>2026-03-23T12:57:56Z</time></trkpt><trkpt lat="44.93466382830971" lon="11.747497938207188"><ele>10.0</ele><time>2026-03-23T12:57:58Z</time></trkpt><trkpt lat="44.934572525466564" lon="11.747499793299518"><ele>10.0</ele><time>2026-03-23T12:58:00Z</time></trkpt><trkpt lat="44.93448743798658" lon="11.74749556009303"><ele>10.0</ele><time>2026-03-23T12:58:02Z</time></trkpt><trkpt lat="44.934407418088824" lon="11.7474765004062"><ele>10.0</ele><time>2026-03-23T12:58:04Z</time></trkpt><trkpt lat="44.93432684308066" lon="11.747459087645789"><ele>10.0</ele><time>2026-03-23T12:58:06Z</time></trkpt><trkpt lat="44.93425102691309" lon="11.747430872479558"><ele>10.0</ele><time>2026-03-23T12:58:08Z</time></trkpt><trkpt lat="44.93415560062951" lon="11.747402095061473"><ele>10.0</ele><time>2026-03-23T12:58:10Z</time></trkpt><trkpt lat="44.93405664257389" lon="11.747365650993965"><ele>10.4</ele><time>2026-03-23T12:58:12Z</time></trkpt><trkpt lat="44.93395557308244" lon="11.747328197205873"><ele>10.8</ele><time>2026-03-23T12:58:14Z</time></trkpt><trkpt lat="44.9338579587049" lon="11.747277272681595"><ele>11.2</ele><time>2026-03-23T12:58:16Z</time></trkpt><trkpt lat="44.93376404956656" lon="11.747234054390878"><ele>11.6</ele><time>2026-03-23T12:58:18Z</time></trkpt><trkpt lat="44.9336724342108" lon="11.747189857447921"><ele>12.0</ele><time>2026-03-23T12:58:20Z</time></trkpt><trkpt lat="44.933585924303024" lon="11.747150367637172"><ele>12.0</ele><time>2026-03-23T12:58:22Z</time></trkpt><trkpt lat="44.93350247609519" lon="11.747110530084264"><ele>12.0</ele><time>2026-03-23T12:58:24Z</time></trkpt><trkpt lat="44.933417669871154" lon="11.747070560383584"><ele>12.0</ele><time>2026-03-23T12:58:26Z</time></trkpt><trkpt lat="44.93332421756899" lon="11.747026708575836"><ele>12.0</ele><time>2026-03-23T12:58:28Z</time></trkpt><trkpt lat="44.933229718926405" lon="11.746982765500757"><ele>12.0</ele><time>2026-03-23T12:58:30Z</time></trkpt><trkpt lat="44.933138466344765" lon="11.746935991656239"><ele>11.2</ele><time>2026-03-23T12:58:32Z</time></trkpt><trkpt lat="44.93304780883994" lon="11.746904017563883"><ele>10.399999999999999</ele><time>2026-03-23T12:58:34Z</time></trkpt><trkpt lat="44.932960956653446" lon="11.746870817229425"><ele>9.600000000000001</ele><time>2026-03-23T12:58:36Z</time></trkpt><trkpt lat="44.93287028531974" lon="11.746834040238744"><ele>8.8</ele><time>2026-03-23T12:58:38Z</time></trkpt><trkpt lat="44.9327725430317" lon="11.746791861597119"><ele>8.0</ele><time>2026-03-23T12:58:40Z</time></trkpt><trkpt lat="44.93266903696887" lon="11.746765218308697"><ele>8.0</ele><time>2026-03-23T12:58:42Z</time></trkpt><trkpt lat="44.93256871447314" lon="11.746731877622144"><ele>8.0</ele><time>2026-03-23T12:58:44Z</time></trkpt><trkpt lat="44.93246451671959" lon="11.746722712730772"><ele>8.0</ele><time>2026-03-23T12:58:46Z</time></trkpt><trkpt lat="44.932359776904164" lon="11.746733240358722"><ele>8.0</ele><time>2026-03-23T12:58:48Z</time></trkpt><trkpt lat="44.932255323446235" lon="11.746754590775009"><ele>8.0</ele><time>2026-03-23T12:58:49.999Z</time></trkpt><trkpt lat="44.93215158465578" lon="11.746790010763043"><ele>8.0</ele><time>2026-03-23T12:58:51.999Z</time></trkpt><trkpt lat="44.932045443566174" lon="11.746823668340266"><ele>8.0</ele><time>2026-03-23T12:58:53.999Z</time></trkpt><trkpt lat="44.93194018820313" lon="11.746865166410673"><ele>8.0</ele><time>2026-03-23T12:58:55.999Z</time></trkpt><trkpt lat="44.93183578074453" lon="11.746906669830707"><ele>8.0</ele><time>2026-03-23T12:58:57.999Z</time></trkpt><trkpt lat="44.931731493013785" lon="11.74694559157296"><ele>8.0</ele><time>2026-03-23T12:58:59.999Z</time></trkpt><trkpt lat="44.931627420974415" lon="11.7469780743796"><ele>8.200000000000001</ele><time>2026-03-23T12:59:01.999Z</time></trkpt><trkpt lat="44.931527733370224" lon="11.746989132276282"><ele>8.4</ele><time>2026-03-23T12:59:03.999Z</time></trkpt><trkpt lat="44.931433860825194" lon="11.74698302108396"><ele>8.600000000000001</ele><time>2026-03-23T12:59:05.999Z</time></trkpt><trkpt lat="44.93134330368722" lon="11.74695686444797"><ele>8.8</ele><time>2026-03-23T12:59:07.999Z</time></trkpt><trkpt lat="44.93125512940277" lon="11.746896094245336"><ele>9.0</ele><time>2026-03-23T12:59:09.999Z</time></trkpt><trkpt lat="44.93115369805706" lon="11.746844000033038"><ele>9.0</ele><time>2026-03-23T12:59:11.999Z</time></trkpt><trkpt lat="44.93106645596494" lon="11.746776517838674"><ele>9.0</ele><time>2026-03-23T12:59:13.999Z</time></trkpt><trkpt lat="44.93099999440467" lon="11.746683673109148"><ele>9.0</ele><time>2026-03-23T12:59:15.999Z</time></trkpt><trkpt lat="44.93094066906477" lon="11.746587155877252"><ele>9.0</ele><time>2026-03-23T12:59:17.999Z</time></trkpt><trkpt lat="44.93088921708166" lon="11.746465727053677"><ele>9.0</ele><time>2026-03-23T12:59:19.999Z</time></trkpt><trkpt lat="44.930843743688605" lon="11.746334546926475"><ele>8.8</ele><time>2026-03-23T12:59:21.999Z</time></trkpt><trkpt lat="44.930801643262726" lon="11.746202492869383"><ele>8.600000000000001</ele><time>2026-03-23T12:59:23.999Z</time></trkpt><trkpt lat="44.930752087985745" lon="11.746066531732156"><ele>8.4</ele><time>2026-03-23T12:59:25.999Z</time></trkpt><trkpt lat="44.930701348245016" lon="11.745935068068228"><ele>8.200000000000001</ele><time>2026-03-23T12:59:27.999Z</time></trkpt><trkpt lat="44.9306445731782" lon="11.745808751727157"><ele>8.0</ele><time>2026-03-23T12:59:29.999Z</time></trkpt><trkpt lat="44.93057801400039" lon="11.745692513952866"><ele>7.800000000000001</ele><time>2026-03-23T12:59:31.999Z</time></trkpt><trkpt lat="44.930508119218764" lon="11.745590837407828"><ele>7.6000000000000005</ele><time>2026-03-23T12:59:34Z</time></trkpt><trkpt lat="44.93044128455531" lon="11.74549597708792"><ele>7.3999999999999995</ele><time>2026-03-23T12:59:36Z</time></trkpt><trkpt lat="44.9303718934628" lon="11.745408438129958"><ele>7.199999999999999</ele><time>2026-03-23T12:59:38Z</time></trkpt><trkpt lat="44.930284658355994" lon="11.745332076931772"><ele>7.0</ele><time>2026-03-23T12:59:40Z</time></trkpt><trkpt lat="44.93019786252132" lon="11.745254314166157"><ele>7.000000000000001</ele><time>2026-03-23T12:59:42Z</time></trkpt><trkpt lat="44.93011421691141" lon="11.745186344411216"><ele>7.0</ele><time>2026-03-23T12:59:44Z</time></trkpt><trkpt lat="44.93003493241911" lon="11.74512281861494"><ele>7.0</ele><time>2026-03-23T12:59:46Z</time></trkpt><trkpt lat="44.929956464149555" lon="11.745064829785846"><ele>7.0</ele><time>2026-03-23T12:59:48Z</time></trkpt><trkpt lat="44.9298822152838" lon="11.745005897099627"><ele>7.000000000000001</ele><time>2026-03-23T12:59:50Z</time></trkpt><trkpt lat="44.92980930960113" lon="11.744940985011892"><ele>7.0</ele><time>2026-03-23T12:59:52Z</time></trkpt><trkpt lat="44.92973472941934" lon="11.744886759151155"><ele>7.000000000000001</ele><time>2026-03-23T12:59:54Z</time></trkpt><trkpt lat="44.92966056329527" lon="11.744845215529846"><ele>7.0</ele><time>2026-03-23T12:59:56Z</time></trkpt><trkpt lat="44.92959104641369" lon="11.744791600774487"><ele>7.0</ele><time>2026-03-23T12:59:58Z</time></trkpt><trkpt lat="44.92952738523103" lon="11.744741364208087"><ele>7.0</ele><time>2026-03-23T13:00:00Z</time></trkpt><trkpt lat="44.9294608389036" lon="11.744702363690799"><ele>7.000000000000001</ele><time>2026-03-23T13:00:02Z</time></trkpt><trkpt lat="44.92940221311151" lon="11.744658218798572"><ele>7.0</ele><time>2026-03-23T13:00:04Z</time></trkpt><trkpt lat="44.92931920324252" lon="11.744606280969252"><ele>7.000000000000001</ele><time>2026-03-23T13:00:07Z</time></trkpt><trkpt lat="44.92924355237388" lon="11.74455741426515"><ele>7.0</ele><time>2026-03-23T13:00:10Z</time></trkpt><trkpt lat="44.929179100916556" lon="11.744513951355124"><ele>7.0</ele><time>2026-03-23T13:00:12Z</time></trkpt><trkpt lat="44.92908970551151" lon="11.744461101558015"><ele>7.0</ele><time>2026-03-23T13:00:14Z</time></trkpt><trkpt lat="44.92900496032155" lon="11.744407735970446"><ele>7.000000000000001</ele><time>2026-03-23T13:00:16Z</time></trkpt><trkpt lat="44.92892293489777" lon="11.74436568382521"><ele>7.0</ele><time>2026-03-23T13:00:18Z</time></trkpt><trkpt lat="44.92884627731794" lon="11.744316797812157"><ele>6.833333333333334</ele><time>2026-03-23T13:00:20Z</time></trkpt><trkpt lat="44.92877200404516" lon="11.744270319538016"><ele>6.666666666666667</ele><time>2026-03-23T13:00:22Z</time></trkpt><trkpt lat="44.92870223832803" lon="11.744222008482284"><ele>6.5</ele><time>2026-03-23T13:00:24Z</time></trkpt><trkpt lat="44.92863163042282" lon="11.744168947029923"><ele>6.333333333333334</ele><time>2026-03-23T13:00:26Z</time></trkpt><trkpt lat="44.92855118624741" lon="11.744126548881756"><ele>6.166666666666667</ele><time>2026-03-23T13:00:28Z</time></trkpt><trkpt lat="44.928477003507716" lon="11.744081553528185"><ele>6.0</ele><time>2026-03-23T13:00:30Z</time></trkpt><trkpt lat="44.92840962150175" lon="11.744026383947853"><ele>5.999999999999999</ele><time>2026-03-23T13:00:32Z</time></trkpt><trkpt lat="44.92834089856636" lon="11.743978599187491"><ele>6.0</ele><time>2026-03-23T13:00:34Z</time></trkpt><trkpt lat="44.92827441228783" lon="11.743930444429894"><ele>6.0</ele><time>2026-03-23T13:00:36Z</time></trkpt><trkpt lat="44.92821273222398" lon="11.743876267664374"><ele>6.0</ele><time>2026-03-23T13:00:38Z</time></trkpt><trkpt lat="44.92814955087363" lon="11.743834866126292"><ele>6.0</ele><time>2026-03-23T13:00:40Z</time></trkpt><trkpt lat="44.92809117113508" lon="11.743797584100845"><ele>5.999999999999999</ele><time>2026-03-23T13:00:42Z</time></trkpt><trkpt lat="44.92803528872187" lon="11.743738573579453"><ele>6.0</ele><time>2026-03-23T13:00:43.999Z</time></trkpt><trkpt lat="44.92795049824518" lon="11.74368437168156"><ele>6.0</ele><time>2026-03-23T13:00:45.999Z</time></trkpt><trkpt lat="44.92786418752726" lon="11.74363996968118"><ele>6.0</ele><time>2026-03-23T13:00:47.999Z</time></trkpt><trkpt lat="44.92778567557509" lon="11.743597265645818"><ele>6.0</ele><time>2026-03-23T13:00:49.999Z</time></trkpt><trkpt lat="44.92771213038437" lon="11.743545758222021"><ele>6.0</ele><time>2026-03-23T13:00:51.999Z</time></trkpt><trkpt lat="44.92763860044864" lon="11.743510764110876"><ele>6.0</ele><time>2026-03-23T13:00:53.999Z</time></trkpt><trkpt lat="44.92757112653677" lon="11.74347813245178"><ele>6.0</ele><time>2026-03-23T13:00:55.999Z</time></trkpt><trkpt lat="44.92750340867384" lon="11.743448346131991"><ele>6.333333333333333</ele><time>2026-03-23T13:00:57.999Z</time></trkpt><trkpt lat="44.92744133878891" lon="11.743426031788486"><ele>6.666666666666666</ele><time>2026-03-23T13:00:59.999Z</time></trkpt><trkpt lat="44.927358152946645" lon="11.74337318973752"><ele>7.0</ele><time>2026-03-23T13:01:02.999Z</time></trkpt><trkpt lat="44.9273028091743" lon="11.743315115082156"><ele>7.333333333333333</ele><time>2026-03-23T13:01:04.999Z</time></trkpt><trkpt lat="44.9272268792731" lon="11.743247606728785"><ele>7.666666666666666</ele><time>2026-03-23T13:01:06.999Z</time></trkpt><trkpt lat="44.92714661901546" lon="11.743174774556097"><ele>8.0</ele><time>2026-03-23T13:01:08.999Z</time></trkpt><trkpt lat="44.92707613913579" lon="11.743096245895455"><ele>8.0</ele><time>2026-03-23T13:01:10.999Z</time></trkpt><trkpt lat="44.92700647054072" lon="11.74301851147077"><ele>8.0</ele><time>2026-03-23T13:01:12.999Z</time></trkpt><trkpt lat="44.926939841751924" lon="11.74294241141237"><ele>8.0</ele><time>2026-03-23T13:01:14.999Z</time></trkpt><trkpt lat="44.9268768398487" lon="11.742863164533787"><ele>8.0</ele><time>2026-03-23T13:01:16.999Z</time></trkpt><trkpt lat="44.92680639336115" lon="11.742769952888091"><ele>8.0</ele><time>2026-03-23T13:01:18.999Z</time></trkpt><trkpt lat="44.926735608956506" lon="11.742668477173329"><ele>8.166666666666666</ele><time>2026-03-23T13:01:20.999Z</time></trkpt><trkpt lat="44.92666267800384" lon="11.74256541750896"><ele>8.333333333333332</ele><time>2026-03-23T13:01:22.999Z</time></trkpt><trkpt lat="44.92659032182034" lon="11.742473850769269"><ele>8.5</ele><time>2026-03-23T13:01:24.999Z</time></trkpt><trkpt lat="44.92654528492716" lon="11.742400311715103"><ele>8.666666666666666</ele><time>2026-03-23T13:02:50Z</time></trkpt><trkpt lat="44.92649099672278" lon="11.742348235017406"><ele>8.833333333333334</ele><time>2026-03-23T13:02:54Z</time></trkpt><trkpt lat="44.92643815827025" lon="11.742292000612006"><ele>9.0</ele><time>2026-03-23T13:02:57Z</time></trkpt><trkpt lat="44.92638408538292" lon="11.742228005832665"><ele>9.0</ele><time>2026-03-23T13:02:58.999Z</time></trkpt><trkpt lat="44.92631972993585" lon="11.742135006977776"><ele>9.0</ele><time>2026-03-23T13:03:00.999Z</time></trkpt><trkpt lat="44.92624987083214" lon="11.742033503886748"><ele>9.0</ele><time>2026-03-23T13:03:02.999Z</time></trkpt><trkpt lat="44.926189133660074" lon="11.741925462472054"><ele>9.0</ele><time>2026-03-23T13:03:04.999Z</time></trkpt><trkpt lat="44.92613720042746" lon="11.741819002952907"><ele>9.0</ele><time>2026-03-23T13:03:06.999Z</time></trkpt><trkpt lat="44.926085546888295" lon="11.741692850582359"><ele>9.2</ele><time>2026-03-23T13:03:08.999Z</time></trkpt><trkpt lat="44.92604721830051" lon="11.741556835755198"><ele>9.4</ele><time>2026-03-23T13:03:10.999Z</time></trkpt><trkpt lat="44.92600679480547" lon="11.741421997631342"><ele>9.6</ele><time>2026-03-23T13:03:12.999Z</time></trkpt><trkpt lat="44.925966064800306" lon="11.741284300251106"><ele>9.8</ele><time>2026-03-23T13:03:14.999Z</time></trkpt><trkpt lat="44.92592286779762" lon="11.741151208483089"><ele>10.0</ele><time>2026-03-23T13:03:16.999Z</time></trkpt><trkpt lat="44.925882610715355" lon="11.741020920298944"><ele>9.2</ele><time>2026-03-23T13:03:18.999Z</time></trkpt><trkpt lat="44.92584083661217" lon="11.740886800847594"><ele>8.4</ele><time>2026-03-23T13:03:20.999Z</time></trkpt><trkpt lat="44.92579729219183" lon="11.7407571538783"><ele>7.6</ele><time>2026-03-23T13:03:22.999Z</time></trkpt><trkpt lat="44.92575208447456" lon="11.740631592425075"><ele>6.8</ele><time>2026-03-23T13:03:24.999Z</time></trkpt><trkpt lat="44.925709176956914" lon="11.740502356881517"><ele>6.0</ele><time>2026-03-23T13:03:26.999Z</time></trkpt><trkpt lat="44.92566659662609" lon="11.740378846488444"><ele>6.0</ele><time>2026-03-23T13:03:28.999Z</time></trkpt><trkpt lat="44.925616269719214" lon="11.740252094409078"><ele>6.0</ele><time>2026-03-23T13:03:30.999Z</time></trkpt><trkpt lat="44.92556763929253" lon="11.740119993054353"><ele>6.0</ele><time>2026-03-23T13:03:32.999Z</time></trkpt><trkpt lat="44.92551638265964" lon="11.73999041494113"><ele>6.0</ele><time>2026-03-23T13:03:34.999Z</time></trkpt><trkpt lat="44.92546829624546" lon="11.739865467869906"><ele>6.0</ele><time>2026-03-23T13:03:36.999Z</time></trkpt><trkpt lat="44.92541947352272" lon="11.739733494000857"><ele>6.6</ele><time>2026-03-23T13:03:38.999Z</time></trkpt><trkpt lat="44.92537423599657" lon="11.739604896190066"><ele>7.199999999999999</ele><time>2026-03-23T13:03:40.999Z</time></trkpt><trkpt lat="44.92533388933769" lon="11.739475596521023"><ele>7.800000000000001</ele><time>2026-03-23T13:03:42.999Z</time></trkpt><trkpt lat="44.92529514339757" lon="11.739341560050939"><ele>8.4</ele><time>2026-03-23T13:03:44.999Z</time></trkpt><trkpt lat="44.92525803857122" lon="11.73920492980305"><ele>9.0</ele><time>2026-03-23T13:03:47Z</time></trkpt><trkpt lat="44.925224435436405" lon="11.739070286408907"><ele>9.4</ele><time>2026-03-23T13:03:49Z</time></trkpt><trkpt lat="44.92519303584935" lon="11.738936498282774"><ele>9.8</ele><time>2026-03-23T13:03:51Z</time></trkpt><trkpt lat="44.925156800643414" lon="11.738800622559479"><ele>10.200000000000001</ele><time>2026-03-23T13:03:53Z</time></trkpt><trkpt lat="44.92511627269105" lon="11.738671232734804"><ele>10.600000000000001</ele><time>2026-03-23T13:03:55Z</time></trkpt><trkpt lat="44.92508154353978" lon="11.738553160727761"><ele>11.0</ele><time>2026-03-23T13:03:57Z</time></trkpt><trkpt lat="44.92504391279409" lon="11.738443710814789"><ele>11.0</ele><time>2026-03-23T13:03:59Z</time></trkpt><trkpt lat="44.9250050329446" lon="11.738341883771238"><ele>11.0</ele><time>2026-03-23T13:04:01Z</time></trkpt><trkpt lat="44.92496826958715" lon="11.738238944111913"><ele>11.0</ele><time>2026-03-23T13:04:03Z</time></trkpt><trkpt lat="44.924922011709754" lon="11.738124144143262"><ele>11.0</ele><time>2026-03-23T13:04:05Z</time></trkpt><trkpt lat="44.92486992722587" lon="11.738002101538582"><ele>11.0</ele><time>2026-03-23T13:04:07Z</time></trkpt><trkpt lat="44.92481853022009" lon="11.73787709834408"><ele>11.0</ele><time>2026-03-23T13:04:09Z</time></trkpt><trkpt lat="44.92476258080938" lon="11.737753747699301"><ele>11.0</ele><time>2026-03-23T13:04:11Z</time></trkpt><trkpt lat="44.92470919435014" lon="11.737628060806422"><ele>11.0</ele><time>2026-03-23T13:04:13Z</time></trkpt><trkpt lat="44.924662263090426" lon="11.737501371307397"><ele>11.0</ele><time>2026-03-23T13:04:15Z</time></trkpt><trkpt lat="44.92460840519721" lon="11.73737793283117"><ele>11.0</ele><time>2026-03-23T13:04:17Z</time></trkpt><trkpt lat="44.92455537196036" lon="11.737268423295019"><ele>11.0</ele><time>2026-03-23T13:04:19Z</time></trkpt><trkpt lat="44.924512021314285" lon="11.737154265215306"><ele>11.0</ele><time>2026-03-23T13:04:21Z</time></trkpt><trkpt lat="44.924468621364895" lon="11.737049837821449"><ele>11.0</ele><time>2026-03-23T13:04:23Z</time></trkpt><trkpt lat="44.92442403740597" lon="11.736947403216739"><ele>11.0</ele><time>2026-03-23T13:04:25Z</time></trkpt><trkpt lat="44.92437832280772" lon="11.736840654107015"><ele>11.0</ele><time>2026-03-23T13:04:27Z</time></trkpt><trkpt lat="44.924329788179314" lon="11.73671766182217"><ele>10.8</ele><time>2026-03-23T13:04:29Z</time></trkpt><trkpt lat="44.924303445131244" lon="11.736589088579208"><ele>10.600000000000001</ele><time>2026-03-23T13:04:31Z</time></trkpt><trkpt lat="44.924296262314705" lon="11.73645025328222"><ele>10.4</ele><time>2026-03-23T13:04:33Z</time></trkpt><trkpt lat="44.924307222139184" lon="11.736323402540831"><ele>10.2</ele><time>2026-03-23T13:04:35Z</time></trkpt><trkpt lat="44.924325798546974" lon="11.736196858203202"><ele>10.0</ele><time>2026-03-23T13:04:37Z</time></trkpt><trkpt lat="44.92433391210797" lon="11.73607604183076"><ele>10.0</ele><time>2026-03-23T13:04:39Z</time></trkpt><trkpt lat="44.92434054463135" lon="11.735947752278001"><ele>10.0</ele><time>2026-03-23T13:04:41Z</time></trkpt><trkpt lat="44.92434541318144" lon="11.735812104672855"><ele>10.0</ele><time>2026-03-23T13:04:43Z</time></trkpt><trkpt lat="44.92435093923568" lon="11.735678175600132"><ele>10.0</ele><time>2026-03-23T13:04:45Z</time></trkpt><trkpt lat="44.92434445072248" lon="11.735550207095471"><ele>10.0</ele><time>2026-03-23T13:04:47Z</time></trkpt><trkpt lat="44.924339936379276" lon="11.735427964944314"><ele>10.0</ele><time>2026-03-23T13:04:49Z</time></trkpt><trkpt lat="44.924330710181685" lon="11.735305221015434"><ele>10.0</ele><time>2026-03-23T13:04:51Z</time></trkpt><trkpt lat="44.92432531641552" lon="11.735169530824843"><ele>10.0</ele><time>2026-03-23T13:04:53Z</time></trkpt><trkpt lat="44.9243135465344" lon="11.735039862484532"><ele>10.0</ele><time>2026-03-23T13:04:55Z</time></trkpt><trkpt lat="44.924301286546395" lon="11.734917313151566"><ele>10.0</ele><time>2026-03-23T13:04:57Z</time></trkpt><trkpt lat="44.92429316038796" lon="11.73480088110402"><ele>10.0</ele><time>2026-03-23T13:04:59Z</time></trkpt><trkpt lat="44.924287861602444" lon="11.73467405992408"><ele>10.0</ele><time>2026-03-23T13:05:00.999Z</time></trkpt><trkpt lat="44.92428033669118" lon="11.734548454438007"><ele>10.0</ele><time>2026-03-23T13:05:02.999Z</time></trkpt><trkpt lat="44.92426895563995" lon="11.734428001160554"><ele>10.0</ele><time>2026-03-23T13:05:04.999Z</time></trkpt><trkpt lat="44.92426509533188" lon="11.734312807619128"><ele>10.0</ele><time>2026-03-23T13:05:06.999Z</time></trkpt><trkpt lat="44.92426143702293" lon="11.734201791724647"><ele>10.0</ele><time>2026-03-23T13:05:08.999Z</time></trkpt><trkpt lat="44.92425082436102" lon="11.734072753830194"><ele>10.0</ele><time>2026-03-23T13:05:10.999Z</time></trkpt><trkpt lat="44.92424176188324" lon="11.733945052145197"><ele>10.0</ele><time>2026-03-23T13:05:12.999Z</time></trkpt><trkpt lat="44.9242347439587" lon="11.733828930910088"><ele>10.0</ele><time>2026-03-23T13:05:14.999Z</time></trkpt><trkpt lat="44.92423297868158" lon="11.733707595185434"><ele>10.0</ele><time>2026-03-23T13:05:16.999Z</time></trkpt><trkpt lat="44.92422141069207" lon="11.733568220096947"><ele>10.0</ele><time>2026-03-23T13:05:18.999Z</time></trkpt><trkpt lat="44.92420996611731" lon="11.733435316127771"><ele>10.0</ele><time>2026-03-23T13:05:20.999Z</time></trkpt><trkpt lat="44.92421025128723" lon="11.7333038827976"><ele>10.333333333333334</ele><time>2026-03-23T13:05:22.999Z</time></trkpt><trkpt lat="44.92420253851217" lon="11.733177380377397"><ele>10.666666666666668</ele><time>2026-03-23T13:05:24.999Z</time></trkpt><trkpt lat="44.92418109636565" lon="11.733060586378402"><ele>11.0</ele><time>2026-03-23T13:05:26.999Z</time></trkpt><trkpt lat="44.924180850549746" lon="11.732942514825428"><ele>11.333333333333334</ele><time>2026-03-23T13:05:28.999Z</time></trkpt><trkpt lat="44.924180323546274" lon="11.732831934835858"><ele>11.666666666666666</ele><time>2026-03-23T13:05:30.999Z</time></trkpt><trkpt lat="44.92417235204416" lon="11.732710909697456"><ele>12.0</ele><time>2026-03-23T13:05:32.999Z</time></trkpt><trkpt lat="44.924172113047135" lon="11.732574817291178"><ele>12.399999999999999</ele><time>2026-03-23T13:05:34.999Z</time></trkpt><trkpt lat="44.924161085931175" lon="11.732439117477842"><ele>12.799999999999999</ele><time>2026-03-23T13:05:36.999Z</time></trkpt><trkpt lat="44.92414930660713" lon="11.732294282818794"><ele>13.2</ele><time>2026-03-23T13:05:38.999Z</time></trkpt><trkpt lat="44.924153591794074" lon="11.732161239836966"><ele>13.6</ele><time>2026-03-23T13:05:40.999Z</time></trkpt><trkpt lat="44.92414503199721" lon="11.732039887442413"><ele>14.0</ele><time>2026-03-23T13:05:42.999Z</time></trkpt><trkpt lat="44.92413322364898" lon="11.731927354250105"><ele>13.799999999999999</ele><time>2026-03-23T13:05:44.999Z</time></trkpt><trkpt lat="44.92412540200141" lon="11.731791693930838"><ele>13.599999999999998</ele><time>2026-03-23T13:05:46.999Z</time></trkpt><trkpt lat="44.924119798527606" lon="11.731665066886068"><ele>13.4</ele><time>2026-03-23T13:05:48.999Z</time></trkpt><trkpt lat="44.92411533434632" lon="11.731544258482081"><ele>13.2</ele><time>2026-03-23T13:05:50.999Z</time></trkpt><trkpt lat="44.92410692290827" lon="11.731423464250625"><ele>13.0</ele><time>2026-03-23T13:05:53Z</time></trkpt><trkpt lat="44.9241014983345" lon="11.731281968465982"><ele>13.0</ele><time>2026-03-23T13:05:55Z</time></trkpt><trkpt lat="44.92408955589342" lon="11.731137708263791"><ele>13.0</ele><time>2026-03-23T13:05:57Z</time></trkpt><trkpt lat="44.92407765156369" lon="11.730991602461884"><ele>13.0</ele><time>2026-03-23T13:05:59Z</time></trkpt><trkpt lat="44.924070717073135" lon="11.730843115100877"><ele>13.0</ele><time>2026-03-23T13:06:01Z</time></trkpt><trkpt lat="44.92406200674124" lon="11.730697771182395"><ele>13.0</ele><time>2026-03-23T13:06:03Z</time></trkpt><trkpt lat="44.92405072696763" lon="11.730554866689682"><ele>13.0</ele><time>2026-03-23T13:06:05Z</time></trkpt><trkpt lat="44.92403754176907" lon="11.73041941917737"><ele>13.0</ele><time>2026-03-23T13:06:07Z</time></trkpt><trkpt lat="44.9240194807675" lon="11.730287891032978"><ele>13.0</ele><time>2026-03-23T13:06:09Z</time></trkpt><trkpt lat="44.92400091174184" lon="11.730162145514"><ele>13.0</ele><time>2026-03-23T13:06:11Z</time></trkpt><trkpt lat="44.92399003217637" lon="11.73003945916927"><ele>13.0</ele><time>2026-03-23T13:06:13Z</time></trkpt><trkpt lat="44.92398139272205" lon="11.729922163098378"><ele>12.833333333333332</ele><time>2026-03-23T13:06:15Z</time></trkpt><trkpt lat="44.92396336629158" lon="11.729813634722138"><ele>12.666666666666666</ele><time>2026-03-23T13:06:17Z</time></trkpt><trkpt lat="44.92391295047531" lon="11.729729038184283"><ele>12.5</ele><time>2026-03-23T13:06:19Z</time></trkpt><trkpt lat="44.92383361389406" lon="11.729667725303127"><ele>12.333333333333332</ele><time>2026-03-23T13:06:21Z</time></trkpt><trkpt lat="44.92374193675498" lon="11.729580766653118"><ele>12.166666666666666</ele><time>2026-03-23T13:06:23Z</time></trkpt><trkpt lat="44.923690034454225" lon="11.729519517993483"><ele>12.0</ele><time>2026-03-23T13:06:24Z</time></trkpt><trkpt lat="44.923634262728015" lon="11.729447597594259"><ele>11.666666666666666</ele><time>2026-03-23T13:06:25Z</time></trkpt><trkpt lat="44.923577079419026" lon="11.729369176705655"><ele>11.333333333333334</ele><time>2026-03-23T13:06:26Z</time></trkpt><trkpt lat="44.92351813556456" lon="11.729287103309904"><ele>11.0</ele><time>2026-03-23T13:06:27Z</time></trkpt><trkpt lat="44.92345961804339" lon="11.729206178618625"><ele>10.666666666666668</ele><time>2026-03-23T13:06:28Z</time></trkpt><trkpt lat="44.923397449932835" lon="11.729124295863992"><ele>10.333333333333334</ele><time>2026-03-23T13:06:29Z</time></trkpt><trkpt lat="44.923337263224454" lon="11.729044618808851"><ele>10.0</ele><time>2026-03-23T13:06:30Z</time></trkpt><trkpt lat="44.92327666635926" lon="11.728961907460496"><ele>9.166666666666668</ele><time>2026-03-23T13:06:31Z</time></trkpt><trkpt lat="44.92321938541171" lon="11.728880161406257"><ele>8.333333333333334</ele><time>2026-03-23T13:06:32Z</time></trkpt><trkpt lat="44.92316221483042" lon="11.728799481293304"><ele>7.5</ele><time>2026-03-23T13:06:33Z</time></trkpt><trkpt lat="44.923107227078994" lon="11.728729109936065"><ele>6.666666666666667</ele><time>2026-03-23T13:06:34Z</time></trkpt><trkpt lat="44.92304638094073" lon="11.728665067577717"><ele>5.833333333333334</ele><time>2026-03-23T13:06:35Z</time></trkpt><trkpt lat="44.922980218824264" lon="11.728620249204656"><ele>5.0</ele><time>2026-03-23T13:06:36Z</time></trkpt><trkpt lat="44.92291574085809" lon="11.728577966504696"><ele>5.0</ele><time>2026-03-23T13:06:37Z</time></trkpt><trkpt lat="44.922799006612614" lon="11.728552452665706"><ele>5.0</ele><time>2026-03-23T13:06:39Z</time></trkpt><trkpt lat="44.92272603470865" lon="11.728563357015895"><ele>5.0</ele><time>2026-03-23T13:06:41Z</time></trkpt><trkpt lat="44.92272792524058" lon="11.728402909544386"><ele>5.0</ele><time>2026-03-23T13:06:44Z</time></trkpt><trkpt lat="44.922709773597084" lon="11.728292146907817"><ele>5.0</ele><time>2026-03-23T13:06:46Z</time></trkpt><trkpt lat="44.922676809404685" lon="11.728174381234417"><ele>4.8</ele><time>2026-03-23T13:06:48Z</time></trkpt><trkpt lat="44.92263409249918" lon="11.72804621433154"><ele>4.6</ele><time>2026-03-23T13:06:50Z</time></trkpt><trkpt lat="44.92258829578077" lon="11.727939258558127"><ele>4.4</ele><time>2026-03-23T13:06:52Z</time></trkpt><trkpt lat="44.92254583895862" lon="11.727827700046161"><ele>4.2</ele><time>2026-03-23T13:06:54Z</time></trkpt><trkpt lat="44.92251834483989" lon="11.727707602041278"><ele>4.0</ele><time>2026-03-23T13:06:56Z</time></trkpt><trkpt lat="44.92248350370248" lon="11.727602571975968"><ele>4.0</ele><time>2026-03-23T13:06:58Z</time></trkpt><trkpt lat="44.92244198240776" lon="11.727488930925"><ele>4.0</ele><time>2026-03-23T13:07:00Z</time></trkpt><trkpt lat="44.92240492669423" lon="11.72736374859689"><ele>4.0</ele><time>2026-03-23T13:07:02Z</time></trkpt><trkpt lat="44.922364583126104" lon="11.727244303805557"><ele>4.0</ele><time>2026-03-23T13:07:04Z</time></trkpt><trkpt lat="44.92232244356923" lon="11.727125137080415"><ele>4.0</ele><time>2026-03-23T13:07:06Z</time></trkpt><trkpt lat="44.92227152340853" lon="11.727017720296583"><ele>3.9999999999999996</ele><time>2026-03-23T13:07:08Z</time></trkpt><trkpt lat="44.922238386038536" lon="11.72689908836906"><ele>4.0</ele><time>2026-03-23T13:07:10Z</time></trkpt><trkpt lat="44.92221127731628" lon="11.726781675622693"><ele>4.0</ele><time>2026-03-23T13:07:12Z</time></trkpt><trkpt lat="44.92219309466448" lon="11.726662910798122"><ele>4.0</ele><time>2026-03-23T13:07:13.999Z</time></trkpt><trkpt lat="44.92219181612306" lon="11.726534761707505"><ele>3.9999999999999996</ele><time>2026-03-23T13:07:15.999Z</time></trkpt><trkpt lat="44.922196679895244" lon="11.726416087652437"><ele>4.0</ele><time>2026-03-23T13:07:17.999Z</time></trkpt><trkpt lat="44.92221376495967" lon="11.726303776532033"><ele>3.833333333333333</ele><time>2026-03-23T13:07:19.999Z</time></trkpt><trkpt lat="44.9222028064588" lon="11.72619411978314"><ele>3.6666666666666665</ele><time>2026-03-23T13:07:21.999Z</time></trkpt><trkpt lat="44.922215338366186" lon="11.726102909457651"><ele>3.5</ele><time>2026-03-23T13:07:23.999Z</time></trkpt><trkpt lat="44.92221884970925" lon="11.725982990510781"><ele>3.333333333333333</ele><time>2026-03-23T13:07:25.999Z</time></trkpt><trkpt lat="44.92222886016504" lon="11.725854179007513"><ele>3.1666666666666665</ele><time>2026-03-23T13:07:27.999Z</time></trkpt><trkpt lat="44.922239310057606" lon="11.725741049415344"><ele>3.0</ele><time>2026-03-23T13:07:29.999Z</time></trkpt><trkpt lat="44.92224620246382" lon="11.725632135136692"><ele>2.8333333333333335</ele><time>2026-03-23T13:07:31.999Z</time></trkpt><trkpt lat="44.922258806352545" lon="11.725535280825643"><ele>2.6666666666666665</ele><time>2026-03-23T13:07:33.999Z</time></trkpt><trkpt lat="44.92227766089494" lon="11.725415462017388"><ele>2.5</ele><time>2026-03-23T13:07:35.999Z</time></trkpt><trkpt lat="44.92229789280501" lon="11.725294986378925"><ele>2.333333333333333</ele><time>2026-03-23T13:07:37.999Z</time></trkpt><trkpt lat="44.92232891978083" lon="11.72519629898694"><ele>2.1666666666666665</ele><time>2026-03-23T13:07:39.999Z</time></trkpt><trkpt lat="44.922337564131176" lon="11.72509837586421"><ele>2.0</ele><time>2026-03-23T13:07:41.999Z</time></trkpt><trkpt lat="44.92235735322799" lon="11.724994018435913"><ele>2.0</ele><time>2026-03-23T13:07:43.999Z</time></trkpt><trkpt lat="44.92238792996435" lon="11.724893545884862"><ele>1.9999999999999998</ele><time>2026-03-23T13:07:45.999Z</time></trkpt><trkpt lat="44.92242757266877" lon="11.72481449501971"><ele>2.0</ele><time>2026-03-23T13:07:47.999Z</time></trkpt><trkpt lat="44.92244400705522" lon="11.724724827576397"><ele>2.0</ele><time>2026-03-23T13:08:04Z</time></trkpt><trkpt lat="44.92247810875195" lon="11.724643465638538"><ele>1.9999999999999998</ele><time>2026-03-23T13:08:06Z</time></trkpt><trkpt lat="44.9225164641453" lon="11.724544330499517"><ele>2.0</ele><time>2026-03-23T13:08:08Z</time></trkpt><trkpt lat="44.92256414190615" lon="11.724442798102796"><ele>2.0</ele><time>2026-03-23T13:08:10Z</time></trkpt><trkpt lat="44.92260755663922" lon="11.724360575348083"><ele>2.333333333333333</ele><time>2026-03-23T13:08:12Z</time></trkpt><trkpt lat="44.92265535330452" lon="11.724268106486393"><ele>2.6666666666666665</ele><time>2026-03-23T13:08:14Z</time></trkpt><trkpt lat="44.92271174324798" lon="11.724172543782835"><ele>3.0</ele><time>2026-03-23T13:08:16Z</time></trkpt><trkpt lat="44.922760220916906" lon="11.724079968914088"><ele>3.333333333333333</ele><time>2026-03-23T13:08:18Z</time></trkpt><trkpt lat="44.92280570431912" lon="11.724003199781754"><ele>3.6666666666666665</ele><time>2026-03-23T13:08:20Z</time></trkpt><trkpt lat="44.92285985691569" lon="11.723903644259467"><ele>4.0</ele><time>2026-03-23T13:08:22Z</time></trkpt><trkpt lat="44.92291925683014" lon="11.72379863292179"><ele>3.9999999999999996</ele><time>2026-03-23T13:08:24Z</time></trkpt><trkpt lat="44.922981269232594" lon="11.723693727410723"><ele>4.0</ele><time>2026-03-23T13:08:26Z</time></trkpt><trkpt lat="44.92302723997639" lon="11.723608642376135"><ele>4.0</ele><time>2026-03-23T13:08:28Z</time></trkpt><trkpt lat="44.92307311997611" lon="11.723526302549503"><ele>4.0</ele><time>2026-03-23T13:08:30Z</time></trkpt><trkpt lat="44.92311990909681" lon="11.72344703989753"><ele>3.9999999999999996</ele><time>2026-03-23T13:08:32Z</time></trkpt><trkpt lat="44.92315974161042" lon="11.723371531387906"><ele>4.0</ele><time>2026-03-23T13:08:34Z</time></trkpt><trkpt lat="44.923209759161374" lon="11.7232774424782"><ele>3.9999999999999996</ele><time>2026-03-23T13:08:36Z</time></trkpt><trkpt lat="44.92327027682729" lon="11.723195071100385"><ele>4.0</ele><time>2026-03-23T13:08:38Z</time></trkpt><trkpt lat="44.92329810423494" lon="11.723100301676261"><ele>4.0</ele><time>2026-03-23T13:08:40Z</time></trkpt><trkpt lat="44.92333307114072" lon="11.723019463241387"><ele>4.0</ele><time>2026-03-23T13:08:42Z</time></trkpt><trkpt lat="44.923375146609374" lon="11.722926439961887"><ele>3.9999999999999996</ele><time>2026-03-23T13:08:44Z</time></trkpt><trkpt lat="44.92340430588376" lon="11.722832008384778"><ele>4.0</ele><time>2026-03-23T13:08:46Z</time></trkpt><trkpt lat="44.92342051646708" lon="11.722701009798435"><ele>3.833333333333333</ele><time>2026-03-23T13:08:49Z</time></trkpt><trkpt lat="44.92341707070989" lon="11.722605230768625"><ele>3.6666666666666665</ele><time>2026-03-23T13:08:51Z</time></trkpt><trkpt lat="44.923417023855656" lon="11.722476722431255"><ele>3.5</ele><time>2026-03-23T13:08:53Z</time></trkpt><trkpt lat="44.92341225976227" lon="11.722354390911233"><ele>3.333333333333333</ele><time>2026-03-23T13:08:55Z</time></trkpt><trkpt lat="44.9234065530435" lon="11.722251845136812"><ele>3.1666666666666665</ele><time>2026-03-23T13:08:57Z</time></trkpt><trkpt lat="44.9234006700864" lon="11.72213765869785"><ele>3.0</ele><time>2026-03-23T13:08:59Z</time></trkpt><trkpt lat="44.92339161486125" lon="11.722012730751201"><ele>2.8</ele><time>2026-03-23T13:09:01Z</time></trkpt><trkpt lat="44.92338498138249" lon="11.721874279018193"><ele>2.5999999999999996</ele><time>2026-03-23T13:09:03Z</time></trkpt><trkpt lat="44.92337835228698" lon="11.721737832778759"><ele>2.4000000000000004</ele><time>2026-03-23T13:09:05Z</time></trkpt><trkpt lat="44.92336774682199" lon="11.721600459073642"><ele>2.2</ele><time>2026-03-23T13:09:07Z</time></trkpt><trkpt lat="44.92335997124956" lon="11.721465271493665"><ele>2.0</ele><time>2026-03-23T13:09:09Z</time></trkpt><trkpt lat="44.923353880875766" lon="11.721341050408238"><ele>2.0</ele><time>2026-03-23T13:09:11Z</time></trkpt><trkpt lat="44.92334529138956" lon="11.72122400483785"><ele>2.0</ele><time>2026-03-23T13:09:13Z</time></trkpt><trkpt lat="44.92333957531862" lon="11.721106462609006"><ele>2.0</ele><time>2026-03-23T13:09:15Z</time></trkpt><trkpt lat="44.9233317660142" lon="11.720968673535547"><ele>2.0</ele><time>2026-03-23T13:09:16.999Z</time></trkpt><trkpt lat="44.92332444299729" lon="11.720831189697972"><ele>2.0</ele><time>2026-03-23T13:09:18.999Z</time></trkpt><trkpt lat="44.92331866825992" lon="11.720705117985753"><ele>2.0</ele><time>2026-03-23T13:09:20.999Z</time></trkpt><trkpt lat="44.92331117914709" lon="11.720573616160088"><ele>2.0</ele><time>2026-03-23T13:09:22.999Z</time></trkpt><trkpt lat="44.92330462989998" lon="11.720435645516712"><ele>2.0</ele><time>2026-03-23T13:09:24.999Z</time></trkpt><trkpt lat="44.92329337111022" lon="11.720293758885534"><ele>2.0</ele><time>2026-03-23T13:09:26.999Z</time></trkpt><trkpt lat="44.92328258014716" lon="11.720156780528352"><ele>2.0</ele><time>2026-03-23T13:09:28.999Z</time></trkpt><trkpt lat="44.923270800838914" lon="11.720027096993691"><ele>2.0</ele><time>2026-03-23T13:09:30.999Z</time></trkpt><trkpt lat="44.92326119135647" lon="11.719899114113426"><ele>2.0</ele><time>2026-03-23T13:09:32.999Z</time></trkpt><trkpt lat="44.92326201171767" lon="11.71977995421368"><ele>2.0</ele><time>2026-03-23T13:09:34.999Z</time></trkpt><trkpt lat="44.92325978420546" lon="11.719646742734842"><ele>2.0</ele><time>2026-03-23T13:09:36.999Z</time></trkpt><trkpt lat="44.92325367121125" lon="11.71950810423727"><ele>2.0</ele><time>2026-03-23T13:09:38.999Z</time></trkpt><trkpt lat="44.92323933986312" lon="11.719372156185512"><ele>2.1666666666666665</ele><time>2026-03-23T13:09:40.999Z</time></trkpt><trkpt lat="44.92322444499781" lon="11.719235820026952"><ele>2.333333333333333</ele><time>2026-03-23T13:09:42.999Z</time></trkpt><trkpt lat="44.9232094992505" lon="11.719108127648997"><ele>2.5</ele><time>2026-03-23T13:09:44.999Z</time></trkpt><trkpt lat="44.923186587153" lon="11.718997563351426"><ele>2.6666666666666665</ele><time>2026-03-23T13:09:46.999Z</time></trkpt><trkpt lat="44.92316193815223" lon="11.718884470339635"><ele>2.8333333333333335</ele><time>2026-03-23T13:09:48.999Z</time></trkpt><trkpt lat="44.92313484090674" lon="11.718773521308766"><ele>3.0</ele><time>2026-03-23T13:09:50.999Z</time></trkpt><trkpt lat="44.9231160024589" lon="11.71867120648458"><ele>3.0</ele><time>2026-03-23T13:09:52.999Z</time></trkpt><trkpt lat="44.92308898341659" lon="11.718561715228855"><ele>3.0</ele><time>2026-03-23T13:09:54.999Z</time></trkpt><trkpt lat="44.923063016369255" lon="11.718436772842923"><ele>3.0</ele><time>2026-03-23T13:09:56.999Z</time></trkpt><trkpt lat="44.92303512445383" lon="11.7183202268575"><ele>3.0</ele><time>2026-03-23T13:09:58.999Z</time></trkpt><trkpt lat="44.923011386632716" lon="11.718180732232982"><ele>3.0</ele><time>2026-03-23T13:10:00.999Z</time></trkpt><trkpt lat="44.92299274010434" lon="11.718060747149176"><ele>3.0</ele><time>2026-03-23T13:10:02.999Z</time></trkpt><trkpt lat="44.92298276747838" lon="11.717943348262263"><ele>3.0</ele><time>2026-03-23T13:10:05Z</time></trkpt><trkpt lat="44.92297377581137" lon="11.717823749140278"><ele>3.0</ele><time>2026-03-23T13:10:07Z</time></trkpt><trkpt lat="44.922968697073" lon="11.717716594028007"><ele>3.0</ele><time>2026-03-23T13:10:09Z</time></trkpt><trkpt lat="44.922962566777095" lon="11.717611589547785"><ele>3.0</ele><time>2026-03-23T13:10:11Z</time></trkpt><trkpt lat="44.92295902740144" lon="11.717482752030056"><ele>3.0</ele><time>2026-03-23T13:10:13Z</time></trkpt><trkpt lat="44.92295090583359" lon="11.71737023933873"><ele>3.1666666666666665</ele><time>2026-03-23T13:10:15Z</time></trkpt><trkpt lat="44.922947313280304" lon="11.717270360517926"><ele>3.333333333333333</ele><time>2026-03-23T13:10:17Z</time></trkpt><trkpt lat="44.92294751015103" lon="11.717129808531721"><ele>3.5</ele><time>2026-03-23T13:10:20Z</time></trkpt><trkpt lat="44.92295137389397" lon="11.717011139440567"><ele>3.6666666666666665</ele><time>2026-03-23T13:10:23Z</time></trkpt><trkpt lat="44.92296373742617" lon="11.716919932141636"><ele>3.833333333333333</ele><time>2026-03-23T13:10:26Z</time></trkpt><trkpt lat="44.922962552770464" lon="11.716828046646238"><ele>4.0</ele><time>2026-03-23T13:10:28Z</time></trkpt><trkpt lat="44.923010337493295" lon="11.716706930683628"><ele>4.0</ele><time>2026-03-23T13:10:31Z</time></trkpt><trkpt lat="44.92297708168311" lon="11.716603765183999"><ele>3.9999999999999996</ele><time>2026-03-23T13:10:35Z</time></trkpt><trkpt lat="44.922953628672396" lon="11.716519027408909"><ele>4.0</ele><time>2026-03-23T13:10:38Z</time></trkpt><trkpt lat="44.922943858334484" lon="11.71642154058258"><ele>4.0</ele><time>2026-03-23T13:10:41Z</time></trkpt><trkpt lat="44.92292957647991" lon="11.716318549275103"><ele>3.9999999999999996</ele><time>2026-03-23T13:10:44Z</time></trkpt><trkpt lat="44.92290567927767" lon="11.716212317485539"><ele>4.0</ele><time>2026-03-23T13:10:46Z</time></trkpt><trkpt lat="44.92289129867861" lon="11.716120059288736"><ele>4.0</ele><time>2026-03-23T13:10:48Z</time></trkpt><trkpt lat="44.92287544285415" lon="11.716029136378246"><ele>4.0</ele><time>2026-03-23T13:10:50Z</time></trkpt><trkpt lat="44.92285699070048" lon="11.715926378094082"><ele>3.9999999999999996</ele><time>2026-03-23T13:10:52Z</time></trkpt><trkpt lat="44.92284457863098" lon="11.715832795155618"><ele>4.0</ele><time>2026-03-23T13:10:54Z</time></trkpt><trkpt lat="44.922840005343154" lon="11.715733021179387"><ele>4.0</ele><time>2026-03-23T13:10:56Z</time></trkpt><trkpt lat="44.92280602787308" lon="11.715615538379486"><ele>3.9999999999999996</ele><time>2026-03-23T13:10:58Z</time></trkpt><trkpt lat="44.922791481686424" lon="11.715510299514127"><ele>4.0</ele><time>2026-03-23T13:11:00Z</time></trkpt><trkpt lat="44.92276929737331" lon="11.715416189598775"><ele>4.0</ele><time>2026-03-23T13:11:02Z</time></trkpt><trkpt lat="44.9227510625767" lon="11.715322994460095"><ele>4.142857142857142</ele><time>2026-03-23T13:11:04Z</time></trkpt><trkpt lat="44.922746600800444" lon="11.715229307061975"><ele>4.285714285714286</ele><time>2026-03-23T13:11:06Z</time></trkpt><trkpt lat="44.92271277051253" lon="11.71514861982391"><ele>4.428571428571429</ele><time>2026-03-23T13:11:08Z</time></trkpt><trkpt lat="44.92269335671528" lon="11.715029817003243"><ele>4.571428571428571</ele><time>2026-03-23T13:11:10Z</time></trkpt><trkpt lat="44.92266041087882" lon="11.714937761486214"><ele>4.714285714285714</ele><time>2026-03-23T13:11:12Z</time></trkpt><trkpt lat="44.92261801944707" lon="11.714856933031678"><ele>4.857142857142857</ele><time>2026-03-23T13:11:14Z</time></trkpt><trkpt lat="44.92257964779493" lon="11.714776710797576"><ele>5.0</ele><time>2026-03-23T13:11:16Z</time></trkpt><trkpt lat="44.92254340217927" lon="11.714695988526307"><ele>5.0</ele><time>2026-03-23T13:11:18Z</time></trkpt><trkpt lat="44.922499231902854" lon="11.714597273431345"><ele>5.0</ele><time>2026-03-23T13:11:19.999Z</time></trkpt><trkpt lat="44.92245726491988" lon="11.71450706018286"><ele>5.0</ele><time>2026-03-23T13:11:21.999Z</time></trkpt><trkpt lat="44.92241515337077" lon="11.714424765504537"><ele>5.0</ele><time>2026-03-23T13:11:23.999Z</time></trkpt><trkpt lat="44.92237308310905" lon="11.714346522592397"><ele>5.0</ele><time>2026-03-23T13:11:25.999Z</time></trkpt><trkpt lat="44.92232879232823" lon="11.714252732481222"><ele>5.0</ele><time>2026-03-23T13:11:27.999Z</time></trkpt><trkpt lat="44.92228121908404" lon="11.714159912017527"><ele>5.0</ele><time>2026-03-23T13:11:29.999Z</time></trkpt><trkpt lat="44.922238509309906" lon="11.714072897650185"><ele>5.0</ele><time>2026-03-23T13:11:31.999Z</time></trkpt><trkpt lat="44.92219465357243" lon="11.713987914047703"><ele>5.0</ele><time>2026-03-23T13:11:33.999Z</time></trkpt><trkpt lat="44.92216947694529" lon="11.713895313605317"><ele>5.0</ele><time>2026-03-23T13:11:35.999Z</time></trkpt><trkpt lat="44.92211858623384" lon="11.713827842191968"><ele>5.0</ele><time>2026-03-23T13:11:37.999Z</time></trkpt><trkpt lat="44.922078440989296" lon="11.713749492301918"><ele>5.0</ele><time>2026-03-23T13:11:39.999Z</time></trkpt><trkpt lat="44.922049917882624" lon="11.713656441506025"><ele>5.0</ele><time>2026-03-23T13:11:41.999Z</time></trkpt><trkpt lat="44.92199690743696" lon="11.713602657144268"><ele>5.0</ele><time>2026-03-23T13:11:43.999Z</time></trkpt><trkpt lat="44.92195384691524" lon="11.713519142740433"><ele>5.0</ele><time>2026-03-23T13:11:45.999Z</time></trkpt><trkpt lat="44.92186031334721" lon="11.71346624867672"><ele>5.0</ele><time>2026-03-23T13:11:47.999Z</time></trkpt><trkpt lat="44.92178951663553" lon="11.713547388185042"><ele>5.0</ele><time>2026-03-23T13:11:48.999Z</time></trkpt><trkpt lat="44.92169825781428" lon="11.713541208315947"><ele>5.0</ele><time>2026-03-23T13:11:50.999Z</time></trkpt><trkpt lat="44.92161033123546" lon="11.713513097512292"><ele>5.0</ele><time>2026-03-23T13:11:52.999Z</time></trkpt><trkpt lat="44.92152220273592" lon="11.71350594476549"><ele>4.666666666666667</ele><time>2026-03-23T13:11:54.999Z</time></trkpt><trkpt lat="44.921435380784885" lon="11.713499979692235"><ele>4.333333333333334</ele><time>2026-03-23T13:11:56.999Z</time></trkpt><trkpt lat="44.921340232105116" lon="11.713507389310864"><ele>4.0</ele><time>2026-03-23T13:11:58.999Z</time></trkpt><trkpt lat="44.92124883592124" lon="11.713499638462526"><ele>3.666666666666667</ele><time>2026-03-23T13:12:00.999Z</time></trkpt><trkpt lat="44.92116080649468" lon="11.71349358115143"><ele>3.3333333333333335</ele><time>2026-03-23T13:12:02.999Z</time></trkpt><trkpt lat="44.92107504401251" lon="11.713486932460144"><ele>3.0</ele><time>2026-03-23T13:12:04.999Z</time></trkpt><trkpt lat="44.92098856085024" lon="11.713480518229362"><ele>2.8333333333333335</ele><time>2026-03-23T13:12:06.999Z</time></trkpt><trkpt lat="44.92089369981973" lon="11.71347509654193"><ele>2.6666666666666665</ele><time>2026-03-23T13:12:08.999Z</time></trkpt><trkpt lat="44.920803869858446" lon="11.713468209459505"><ele>2.5</ele><time>2026-03-23T13:12:11Z</time></trkpt><trkpt lat="44.920716441311626" lon="11.713462584184933"><ele>2.333333333333333</ele><time>2026-03-23T13:12:13Z</time></trkpt><trkpt lat="44.92063245762491" lon="11.71344983769661"><ele>2.1666666666666665</ele><time>2026-03-23T13:12:15Z</time></trkpt><trkpt lat="44.92054915734142" lon="11.713446507172277"><ele>2.0</ele><time>2026-03-23T13:12:17Z</time></trkpt><trkpt lat="44.92046981776081" lon="11.713436688908047"><ele>1.9999999999999998</ele><time>2026-03-23T13:12:19Z</time></trkpt><trkpt lat="44.920384390893645" lon="11.71342796463606"><ele>2.0</ele><time>2026-03-23T13:12:21Z</time></trkpt><trkpt lat="44.920296150026054" lon="11.71342417059216"><ele>2.0</ele><time>2026-03-23T13:12:23Z</time></trkpt><trkpt lat="44.92021192656865" lon="11.713420841519557"><ele>2.0</ele><time>2026-03-23T13:12:25Z</time></trkpt><trkpt lat="44.92013267430213" lon="11.713417287835235"><ele>1.9999999999999998</ele><time>2026-03-23T13:12:27Z</time></trkpt><trkpt lat="44.92004789755447" lon="11.713402714216677"><ele>2.0</ele><time>2026-03-23T13:12:29Z</time></trkpt><trkpt lat="44.919950405959945" lon="11.713391538949505"><ele>1.8</ele><time>2026-03-23T13:12:31Z</time></trkpt><trkpt lat="44.91984873458411" lon="11.713384208299692"><ele>1.6</ele><time>2026-03-23T13:12:33Z</time></trkpt><trkpt lat="44.919751670698815" lon="11.713376616867272"><ele>1.4000000000000001</ele><time>2026-03-23T13:12:35Z</time></trkpt><trkpt lat="44.91966168916887" lon="11.713368449784427"><ele>1.2000000000000002</ele><time>2026-03-23T13:12:37Z</time></trkpt><trkpt lat="44.91957504940455" lon="11.71336241404021"><ele>1.0</ele><time>2026-03-23T13:12:39Z</time></trkpt><trkpt lat="44.91948738261161" lon="11.713349983564633"><ele>1.0</ele><time>2026-03-23T13:12:41Z</time></trkpt><trkpt lat="44.91938968118465" lon="11.713343235255863"><ele>1.0</ele><time>2026-03-23T13:12:43Z</time></trkpt><trkpt lat="44.919297284654995" lon="11.713333707182777"><ele>1.0</ele><time>2026-03-23T13:12:45Z</time></trkpt><trkpt lat="44.91921057454664" lon="11.713330551997766"><ele>1.0</ele><time>2026-03-23T13:12:47Z</time></trkpt><trkpt lat="44.919122082302174" lon="11.71332467796775"><ele>1.0</ele><time>2026-03-23T13:12:49Z</time></trkpt><trkpt lat="44.919037862236735" lon="11.713312192422645"><ele>1.1666666666666665</ele><time>2026-03-23T13:12:51Z</time></trkpt><trkpt lat="44.91895655827769" lon="11.713312059375953"><ele>1.3333333333333333</ele><time>2026-03-23T13:12:53Z</time></trkpt><trkpt lat="44.91887650759334" lon="11.713308920011745"><ele>1.5</ele><time>2026-03-23T13:12:55Z</time></trkpt><trkpt lat="44.91880230247484" lon="11.713308314243111"><ele>1.6666666666666665</ele><time>2026-03-23T13:12:57Z</time></trkpt><trkpt lat="44.91871924109217" lon="11.713304879101893"><ele>1.8333333333333333</ele><time>2026-03-23T13:12:59Z</time></trkpt><trkpt lat="44.918617518032136" lon="11.713293683754829"><ele>2.0</ele><time>2026-03-23T13:13:01Z</time></trkpt><trkpt lat="44.91852138294016" lon="11.713288459080403"><ele>1.9999999999999998</ele><time>2026-03-23T13:13:03Z</time></trkpt><trkpt lat="44.91843247759996" lon="11.713282349522533"><ele>2.0</ele><time>2026-03-23T13:13:05Z</time></trkpt><trkpt lat="44.91834684379161" lon="11.713272290810416"><ele>2.0</ele><time>2026-03-23T13:13:07Z</time></trkpt><trkpt lat="44.9182632665958" lon="11.713264761856424"><ele>2.0</ele><time>2026-03-23T13:13:09Z</time></trkpt><trkpt lat="44.91818478989325" lon="11.713256133634966"><ele>1.9999999999999998</ele><time>2026-03-23T13:13:11Z</time></trkpt><trkpt lat="44.918102487801406" lon="11.713245345803612"><ele>2.0</ele><time>2026-03-23T13:13:13Z</time></trkpt><trkpt lat="44.918017132036184" lon="11.713241721232171"><ele>2.1666666666666665</ele><time>2026-03-23T13:13:15Z</time></trkpt><trkpt lat="44.91793602000418" lon="11.713236826518346"><ele>2.333333333333333</ele><time>2026-03-23T13:13:17Z</time></trkpt><trkpt lat="44.91785864513733" lon="11.713231105114854"><ele>2.5</ele><time>2026-03-23T13:13:19Z</time></trkpt><trkpt lat="44.91778327629471" lon="11.713222703164735"><ele>2.6666666666666665</ele><time>2026-03-23T13:13:21Z</time></trkpt><trkpt lat="44.91771143141516" lon="11.713210764727867"><ele>2.8333333333333335</ele><time>2026-03-23T13:13:23Z</time></trkpt><trkpt lat="44.91764094438645" lon="11.71320688991511"><ele>3.0</ele><time>2026-03-23T13:13:25Z</time></trkpt><trkpt lat="44.91755597758185" lon="11.713208496902684"><ele>3.0</ele><time>2026-03-23T13:13:26.999Z</time></trkpt><trkpt lat="44.91746733082815" lon="11.713199151438031"><ele>3.0</ele><time>2026-03-23T13:13:28.999Z</time></trkpt><trkpt lat="44.91738385284027" lon="11.71319574903584"><ele>3.0</ele><time>2026-03-23T13:13:30.999Z</time></trkpt><trkpt lat="44.91730575603359" lon="11.713186323114272"><ele>3.0</ele><time>2026-03-23T13:13:32.999Z</time></trkpt><trkpt lat="44.91723121074697" lon="11.713178447468875"><ele>3.0</ele><time>2026-03-23T13:13:34.999Z</time></trkpt><trkpt lat="44.917162259967355" lon="11.713172208759461"><ele>3.0</ele><time>2026-03-23T13:13:36.999Z</time></trkpt><trkpt lat="44.91709380311806" lon="11.713164586812233"><ele>3.0</ele><time>2026-03-23T13:13:38.999Z</time></trkpt><trkpt lat="44.91700569755442" lon="11.713157436710834"><ele>3.0</ele><time>2026-03-23T13:13:40.999Z</time></trkpt><trkpt lat="44.916913197108926" lon="11.71315449094604"><ele>3.0</ele><time>2026-03-23T13:13:42.999Z</time></trkpt><trkpt lat="44.9168267556953" lon="11.71312935232878"><ele>3.0</ele><time>2026-03-23T13:13:44.999Z</time></trkpt><trkpt lat="44.91674550790936" lon="11.713123814665968"><ele>3.0</ele><time>2026-03-23T13:13:46.999Z</time></trkpt><trkpt lat="44.91667170267929" lon="11.713111963763312"><ele>3.0</ele><time>2026-03-23T13:13:48.999Z</time></trkpt><trkpt lat="44.916595422866344" lon="11.713105763774754"><ele>3.1666666666666665</ele><time>2026-03-23T13:13:50.999Z</time></trkpt><trkpt lat="44.9165017750313" lon="11.713099831506021"><ele>3.333333333333333</ele><time>2026-03-23T13:13:52.999Z</time></trkpt><trkpt lat="44.91640955017431" lon="11.71309537567665"><ele>3.5</ele><time>2026-03-23T13:13:54.999Z</time></trkpt><trkpt lat="44.91632123068631" lon="11.713097519404203"><ele>3.6666666666666665</ele><time>2026-03-23T13:13:56.999Z</time></trkpt><trkpt lat="44.91623908004156" lon="11.713085577758712"><ele>3.833333333333333</ele><time>2026-03-23T13:13:58.999Z</time></trkpt><trkpt lat="44.91616024484497" lon="11.713067166026232"><ele>4.0</ele><time>2026-03-23T13:14:00.999Z</time></trkpt><trkpt lat="44.91609094945276" lon="11.71302253820644"><ele>3.9999999999999996</ele><time>2026-03-23T13:14:02.999Z</time></trkpt><trkpt lat="44.9160084097326" lon="11.713052057898985"><ele>4.0</ele><time>2026-03-23T13:14:04.999Z</time></trkpt><trkpt lat="44.915933291670044" lon="11.713063860721283"><ele>4.0</ele><time>2026-03-23T13:14:06.999Z</time></trkpt><trkpt lat="44.91584172311253" lon="11.713058768065862"><ele>4.0</ele><time>2026-03-23T13:14:08.999Z</time></trkpt><trkpt lat="44.91575160671529" lon="11.713051117004456"><ele>3.9999999999999996</ele><time>2026-03-23T13:14:10.999Z</time></trkpt><trkpt lat="44.9156675441643" lon="11.713040265606235"><ele>4.0</ele><time>2026-03-23T13:14:12.999Z</time></trkpt><trkpt lat="44.915578350738436" lon="11.713023812380438"><ele>3.9999999999999996</ele><time>2026-03-23T13:14:14.999Z</time></trkpt><trkpt lat="44.91548705829892" lon="11.71302067586552"><ele>4.0</ele><time>2026-03-23T13:14:17Z</time></trkpt><trkpt lat="44.91540489806916" lon="11.713010793079071"><ele>4.0</ele><time>2026-03-23T13:14:19Z</time></trkpt><trkpt lat="44.91532933959171" lon="11.713011123523687"><ele>4.0</ele><time>2026-03-23T13:14:21Z</time></trkpt><trkpt lat="44.91526056895573" lon="11.713012690831178"><ele>3.9999999999999996</ele><time>2026-03-23T13:14:23Z</time></trkpt><trkpt lat="44.91518478132576" lon="11.713024602509865"><ele>4.0</ele><time>2026-03-23T13:14:25Z</time></trkpt><trkpt lat="44.91511530435946" lon="11.713068493973442"><ele>3.833333333333333</ele><time>2026-03-23T13:14:27Z</time></trkpt><trkpt lat="44.91505269552462" lon="11.713124358500767"><ele>3.6666666666666665</ele><time>2026-03-23T13:14:29Z</time></trkpt><trkpt lat="44.915007741917826" lon="11.713210490875936"><ele>3.5</ele><time>2026-03-23T13:14:31Z</time></trkpt><trkpt lat="44.9149544917546" lon="11.713294092392138"><ele>3.333333333333333</ele><time>2026-03-23T13:14:33Z</time></trkpt><trkpt lat="44.914897143624046" lon="11.713388631996542"><ele>3.1666666666666665</ele><time>2026-03-23T13:14:35Z</time></trkpt><trkpt lat="44.91484409297114" lon="11.713494396002037"><ele>3.0</ele><time>2026-03-23T13:14:37Z</time></trkpt><trkpt lat="44.9147850622615" lon="11.7135923130535"><ele>3.0</ele><time>2026-03-23T13:14:39Z</time></trkpt><trkpt lat="44.9147187916727" lon="11.71369526156502"><ele>3.0</ele><time>2026-03-23T13:14:41Z</time></trkpt><trkpt lat="44.91465488833147" lon="11.713792039853882"><ele>3.0</ele><time>2026-03-23T13:14:43Z</time></trkpt><trkpt lat="44.91458950293583" lon="11.713881186469694"><ele>3.0</ele><time>2026-03-23T13:14:45Z</time></trkpt><trkpt lat="44.91452394123704" lon="11.713969906841898"><ele>3.0</ele><time>2026-03-23T13:14:47Z</time></trkpt><trkpt lat="44.91446989992283" lon="11.714060650153991"><ele>3.0</ele><time>2026-03-23T13:14:49Z</time></trkpt><trkpt lat="44.91440119777418" lon="11.714134928403675"><ele>3.0</ele><time>2026-03-23T13:14:51Z</time></trkpt><trkpt lat="44.914340509780644" lon="11.714217318602499"><ele>3.0</ele><time>2026-03-23T13:14:53Z</time></trkpt><trkpt lat="44.914283354003416" lon="11.714301010997552"><ele>3.0</ele><time>2026-03-23T13:14:55Z</time></trkpt><trkpt lat="44.91422489669691" lon="11.714388669488432"><ele>3.0</ele><time>2026-03-23T13:14:57Z</time></trkpt><trkpt lat="44.91416028946514" lon="11.714481585006299"><ele>3.0</ele><time>2026-03-23T13:14:59Z</time></trkpt><trkpt lat="44.914101478950144" lon="11.714576673312802"><ele>2.4</ele><time>2026-03-23T13:15:01Z</time></trkpt><trkpt lat="44.914041735993834" lon="11.714666569108259"><ele>1.7999999999999998</ele><time>2026-03-23T13:15:03Z</time></trkpt><trkpt lat="44.913974422711334" lon="11.714764855229628"><ele>1.2</ele><time>2026-03-23T13:15:05Z</time></trkpt><trkpt lat="44.91390798373101" lon="11.714868274026866"><ele>0.6</ele><time>2026-03-23T13:15:07Z</time></trkpt><trkpt lat="44.91383985602691" lon="11.714963180534129"><ele>0.0</ele><time>2026-03-23T13:15:09Z</time></trkpt><trkpt lat="44.91378085534115" lon="11.71505502189547"><ele>0.0</ele><time>2026-03-23T13:15:11Z</time></trkpt><trkpt lat="44.91372191028129" lon="11.71514401423636"><ele>0.0</ele><time>2026-03-23T13:15:13Z</time></trkpt><trkpt lat="44.91366859731866" lon="11.715234906384508"><ele>0.0</ele><time>2026-03-23T13:15:15Z</time></trkpt><trkpt lat="44.91361341507891" lon="11.715318413393398"><ele>0.0</ele><time>2026-03-23T13:15:17Z</time></trkpt><trkpt lat="44.91356157806485" lon="11.715397161338682"><ele>0.0</ele><time>2026-03-23T13:15:19Z</time></trkpt><trkpt lat="44.91351346668563" lon="11.71547816745823"><ele>0.0</ele><time>2026-03-23T13:15:21Z</time></trkpt><trkpt lat="44.91345881075828" lon="11.715549172806812"><ele>0.0</ele><time>2026-03-23T13:15:23Z</time></trkpt><trkpt lat="44.91341328871488" lon="11.71562655980732"><ele>0.0</ele><time>2026-03-23T13:15:24.999Z</time></trkpt><trkpt lat="44.91336657371819" lon="11.71569393830007"><ele>0.0</ele><time>2026-03-23T13:15:26.999Z</time></trkpt><trkpt lat="44.913318728564136" lon="11.715761585345291"><ele>0.0</ele><time>2026-03-23T13:15:28.999Z</time></trkpt><trkpt lat="44.91325857509384" lon="11.715847502045802"><ele>0.0</ele><time>2026-03-23T13:15:30.999Z</time></trkpt><trkpt lat="44.913198965769176" lon="11.715932901009756"><ele>0.0</ele><time>2026-03-23T13:15:32.999Z</time></trkpt><trkpt lat="44.913137977933296" lon="11.716014314902097"><ele>0.3333333333333333</ele><time>2026-03-23T13:15:34.999Z</time></trkpt><trkpt lat="44.91307608175677" lon="11.716086616774673"><ele>0.6666666666666666</ele><time>2026-03-23T13:15:36.999Z</time></trkpt><trkpt lat="44.9130467419234" lon="11.716191884015208"><ele>1.0</ele><time>2026-03-23T13:15:38.999Z</time></trkpt><trkpt lat="44.913030048257774" lon="11.716295097960284"><ele>1.3333333333333333</ele><time>2026-03-23T13:15:40.999Z</time></trkpt><trkpt lat="44.91300293437611" lon="11.716387455639769"><ele>1.6666666666666665</ele><time>2026-03-23T13:15:42.999Z</time></trkpt><trkpt lat="44.91306284954567" lon="11.716443956087348"><ele>2.0</ele><time>2026-03-23T13:15:43.999Z</time></trkpt><trkpt lat="44.91311174905797" lon="11.716537905022317"><ele>1.9999999999999998</ele><time>2026-03-23T13:15:45.999Z</time></trkpt><trkpt lat="44.91314467733982" lon="11.716657480477766"><ele>2.0</ele><time>2026-03-23T13:15:47.999Z</time></trkpt><trkpt lat="44.913175321901214" lon="11.716765207965123"><ele>2.0</ele><time>2026-03-23T13:15:49.999Z</time></trkpt><trkpt lat="44.91321074207509" lon="11.71686953161696"><ele>2.0</ele><time>2026-03-23T13:15:51.999Z</time></trkpt><trkpt lat="44.91323431632038" lon="11.71698838797458"><ele>1.9999999999999998</ele><time>2026-03-23T13:15:53.999Z</time></trkpt><trkpt lat="44.913261058397346" lon="11.717118060812954"><ele>2.0</ele><time>2026-03-23T13:15:55.999Z</time></trkpt><trkpt lat="44.91329208340994" lon="11.717254849721511"><ele>2.0</ele><time>2026-03-23T13:15:57.999Z</time></trkpt><trkpt lat="44.91332831543248" lon="11.717382787277213"><ele>2.0</ele><time>2026-03-23T13:15:59.999Z</time></trkpt><trkpt lat="44.913371670845" lon="11.717496576145017"><ele>2.0</ele><time>2026-03-23T13:16:01.999Z</time></trkpt><trkpt lat="44.913420333863925" lon="11.717603135655649"><ele>2.0</ele><time>2026-03-23T13:16:03.999Z</time></trkpt><trkpt lat="44.91347080591181" lon="11.717705273271179"><ele>2.0</ele><time>2026-03-23T13:16:05.999Z</time></trkpt><trkpt lat="44.91352780928514" lon="11.717816010789823"><ele>1.8</ele><time>2026-03-23T13:16:07.999Z</time></trkpt><trkpt lat="44.913577846382545" lon="11.717927629752408"><ele>1.6</ele><time>2026-03-23T13:16:09.999Z</time></trkpt><trkpt lat="44.913631615082785" lon="11.718029608618354"><ele>1.4000000000000001</ele><time>2026-03-23T13:16:11.999Z</time></trkpt><trkpt lat="44.91368376817565" lon="11.718135568061603"><ele>1.2000000000000002</ele><time>2026-03-23T13:16:13.999Z</time></trkpt><trkpt lat="44.91373694411971" lon="11.718252973641356"><ele>1.0</ele><time>2026-03-23T13:16:15.999Z</time></trkpt><trkpt lat="44.91379640280591" lon="11.718368014260612"><ele>1.0</ele><time>2026-03-23T13:16:17.999Z</time></trkpt><trkpt lat="44.913858596094705" lon="11.718486935801158"><ele>1.0</ele><time>2026-03-23T13:16:19.999Z</time></trkpt><trkpt lat="44.91391778908763" lon="11.71860755607984"><ele>1.0</ele><time>2026-03-23T13:16:22Z</time></trkpt><trkpt lat="44.91397827257154" lon="11.71872686358304"><ele>1.0</ele><time>2026-03-23T13:16:24Z</time></trkpt><trkpt lat="44.91403974080545" lon="11.71884521990065"><ele>1.0</ele><time>2026-03-23T13:16:26Z</time></trkpt><trkpt lat="44.91409789965609" lon="11.718969911463223"><ele>1.2000000000000002</ele><time>2026-03-23T13:16:28Z</time></trkpt><trkpt lat="44.91415671744194" lon="11.719089239230918"><ele>1.4000000000000001</ele><time>2026-03-23T13:16:30Z</time></trkpt><trkpt lat="44.91421472823906" lon="11.719205620332572"><ele>1.6</ele><time>2026-03-23T13:16:32Z</time></trkpt><trkpt lat="44.91427432681001" lon="11.719314881267278"><ele>1.8</ele><time>2026-03-23T13:16:34Z</time></trkpt><trkpt lat="44.914325805865374" lon="11.719423471823847"><ele>2.0</ele><time>2026-03-23T13:16:36Z</time></trkpt><trkpt lat="44.91437270403553" lon="11.719536741799967"><ele>2.0</ele><time>2026-03-23T13:16:38Z</time></trkpt><trkpt lat="44.914426633170095" lon="11.719659180135015"><ele>2.0</ele><time>2026-03-23T13:16:40Z</time></trkpt><trkpt lat="44.91448734910148" lon="11.719776517962359"><ele>2.0</ele><time>2026-03-23T13:16:42Z</time></trkpt><trkpt lat="44.914553216860284" lon="11.71988944297208"><ele>2.0</ele><time>2026-03-23T13:16:44Z</time></trkpt><trkpt lat="44.91460749653009" lon="11.720011676356478"><ele>2.0</ele><time>2026-03-23T13:16:46Z</time></trkpt><trkpt lat="44.914653925405204" lon="11.720141441003067"><ele>1.8</ele><time>2026-03-23T13:16:48Z</time></trkpt><trkpt lat="44.914713501366805" lon="11.720260496845452"><ele>1.6</ele><time>2026-03-23T13:16:50Z</time></trkpt><trkpt lat="44.91476946707345" lon="11.72038087408258"><ele>1.4000000000000001</ele><time>2026-03-23T13:16:52Z</time></trkpt><trkpt lat="44.91482824236519" lon="11.720498133272853"><ele>1.2000000000000002</ele><time>2026-03-23T13:16:54Z</time></trkpt><trkpt lat="44.91489233981701" lon="11.72061003808506"><ele>1.0</ele><time>2026-03-23T13:16:56Z</time></trkpt><trkpt lat="44.914952453354815" lon="11.720725891936343"><ele>1.0</ele><time>2026-03-23T13:16:58Z</time></trkpt><trkpt lat="44.91501445074613" lon="11.72084040321107"><ele>1.0</ele><time>2026-03-23T13:17:00Z</time></trkpt><trkpt lat="44.91507974774028" lon="11.72095183429707"><ele>1.0</ele><time>2026-03-23T13:17:02Z</time></trkpt><trkpt lat="44.915146657523614" lon="11.72106361904563"><ele>1.0</ele><time>2026-03-23T13:17:04Z</time></trkpt><trkpt lat="44.9152098450392" lon="11.721178712642594"><ele>1.0</ele><time>2026-03-23T13:17:06Z</time></trkpt><trkpt lat="44.91526255380461" lon="11.721303396524178"><ele>1.0</ele><time>2026-03-23T13:17:08Z</time></trkpt><trkpt lat="44.91532705452296" lon="11.721417527834603"><ele>1.0</ele><time>2026-03-23T13:17:10Z</time></trkpt><trkpt lat="44.9153864298506" lon="11.721534713542898"><ele>1.0</ele><time>2026-03-23T13:17:12Z</time></trkpt><trkpt lat="44.915443366011374" lon="11.721645234827744"><ele>1.0</ele><time>2026-03-23T13:17:14Z</time></trkpt><trkpt lat="44.91549433534833" lon="11.721750451946738"><ele>1.0</ele><time>2026-03-23T13:17:16Z</time></trkpt><trkpt lat="44.91554257616609" lon="11.72185804661203"><ele>1.6</ele><time>2026-03-23T13:17:18Z</time></trkpt><trkpt lat="44.91559792860333" lon="11.721971268126614"><ele>2.2</ele><time>2026-03-23T13:17:20Z</time></trkpt><trkpt lat="44.91565088875674" lon="11.722089333087943"><ele>2.8000000000000003</ele><time>2026-03-23T13:17:22Z</time></trkpt><trkpt lat="44.91570794226391" lon="11.722189997827769"><ele>3.4000000000000004</ele><time>2026-03-23T13:17:24Z</time></trkpt><trkpt lat="44.91575892428808" lon="11.722284889224783"><ele>4.0</ele><time>2026-03-23T13:17:25.999Z</time></trkpt><trkpt lat="44.915799069603345" lon="11.722385175920708"><ele>4.0</ele><time>2026-03-23T13:17:27.999Z</time></trkpt><trkpt lat="44.915850348793676" lon="11.722465093118778"><ele>3.9999999999999996</ele><time>2026-03-23T13:17:29.999Z</time></trkpt><trkpt lat="44.91588386207367" lon="11.722552986246251"><ele>4.0</ele><time>2026-03-23T13:17:31.999Z</time></trkpt><trkpt lat="44.9159153457726" lon="11.722634534163207"><ele>4.0</ele><time>2026-03-23T13:17:33.999Z</time></trkpt><trkpt lat="44.915957068109876" lon="11.722703654708901"><ele>3.9999999999999996</ele><time>2026-03-23T13:17:35.999Z</time></trkpt><trkpt lat="44.91600410812189" lon="11.722808386545584"><ele>4.0</ele><time>2026-03-23T13:17:38.999Z</time></trkpt><trkpt lat="44.91604701837726" lon="11.722904692706095"><ele>4.0</ele><time>2026-03-23T13:17:41.999Z</time></trkpt><trkpt lat="44.91608339415978" lon="11.72299269011377"><ele>3.833333333333333</ele><time>2026-03-23T13:17:44.999Z</time></trkpt><trkpt lat="44.915999262771265" lon="11.723040611726487"><ele>3.6666666666666665</ele><time>2026-03-23T13:17:48.999Z</time></trkpt><trkpt lat="44.91593129536136" lon="11.723082519032404"><ele>3.5</ele><time>2026-03-23T13:17:52.999Z</time></trkpt><trkpt lat="44.91586786835767" lon="11.723102208839913"><ele>3.333333333333333</ele><time>2026-03-23T13:20:08.999Z</time></trkpt><trkpt lat="44.91593140539114" lon="11.7230798674639"><ele>3.1666666666666665</ele><time>2026-03-23T13:20:19.999Z</time></trkpt><trkpt lat="44.91602844866681" lon="11.723030711744796"><ele>3.0</ele><time>2026-03-23T13:22:28.999Z</time></trkpt><trkpt lat="44.91610966160153" lon="11.723003553684569"><ele>3.0</ele><time>2026-03-23T13:22:33.999Z</time></trkpt><trkpt lat="44.916206763292834" lon="11.723314246134928"><ele>3.0</ele><time>2026-03-23T13:22:37.999Z</time></trkpt><trkpt lat="44.916256054019335" lon="11.723420592817485"><ele>3.0</ele><time>2026-03-23T13:22:40Z</time></trkpt><trkpt lat="44.916305135193454" lon="11.723529067236033"><ele>3.0</ele><time>2026-03-23T13:22:42Z</time></trkpt><trkpt lat="44.91634294962751" lon="11.723628872875834"><ele>2.8</ele><time>2026-03-23T13:22:44Z</time></trkpt><trkpt lat="44.91638184791012" lon="11.723728302182874"><ele>2.5999999999999996</ele><time>2026-03-23T13:22:46Z</time></trkpt><trkpt lat="44.91643393278283" lon="11.723845334559206"><ele>2.4000000000000004</ele><time>2026-03-23T13:22:48Z</time></trkpt><trkpt lat="44.91648345871649" lon="11.723971023570083"><ele>2.2</ele><time>2026-03-23T13:22:50Z</time></trkpt><trkpt lat="44.91653268388567" lon="11.724090490257009"><ele>2.0</ele><time>2026-03-23T13:22:52Z</time></trkpt><trkpt lat="44.916576609005325" lon="11.724210140304466"><ele>2.0</ele><time>2026-03-23T13:22:54Z</time></trkpt><trkpt lat="44.91662499258" lon="11.724321973914138"><ele>2.0</ele><time>2026-03-23T13:22:56Z</time></trkpt><trkpt lat="44.916667279283935" lon="11.724429688631982"><ele>2.0</ele><time>2026-03-23T13:22:58Z</time></trkpt><trkpt lat="44.91669933946593" lon="11.724544242492147"><ele>2.0</ele><time>2026-03-23T13:23:00Z</time></trkpt><trkpt lat="44.91669964100574" lon="11.724681679041801"><ele>2.0</ele><time>2026-03-23T13:23:02Z</time></trkpt><trkpt lat="44.916686209972575" lon="11.724818965319546"><ele>2.0</ele><time>2026-03-23T13:23:04Z</time></trkpt><trkpt lat="44.91665865836919" lon="11.724953039290558"><ele>2.0</ele><time>2026-03-23T13:23:06Z</time></trkpt><trkpt lat="44.91663106817052" lon="11.725078675421322"><ele>2.0</ele><time>2026-03-23T13:23:08Z</time></trkpt><trkpt lat="44.91660537788918" lon="11.725199197348083"><ele>2.0</ele><time>2026-03-23T13:23:10Z</time></trkpt><trkpt lat="44.91658023741007" lon="11.725320400556573"><ele>2.0</ele><time>2026-03-23T13:23:12Z</time></trkpt><trkpt lat="44.91655524310288" lon="11.725436316833896"><ele>1.9999999999999998</ele><time>2026-03-23T13:23:14Z</time></trkpt><trkpt lat="44.916530090607026" lon="11.725547008597536"><ele>2.0</ele><time>2026-03-23T13:23:16Z</time></trkpt><trkpt lat="44.916510029517646" lon="11.725650451736067"><ele>2.0</ele><time>2026-03-23T13:23:18Z</time></trkpt><trkpt lat="44.91649000267812" lon="11.725750445029991"><ele>2.0</ele><time>2026-03-23T13:23:20Z</time></trkpt><trkpt lat="44.91646887370524" lon="11.725862486633819"><ele>1.9999999999999998</ele><time>2026-03-23T13:23:22Z</time></trkpt><trkpt lat="44.916445163896505" lon="11.72597838538937"><ele>2.0</ele><time>2026-03-23T13:23:24Z</time></trkpt><trkpt lat="44.916423390364805" lon="11.726091791145643"><ele>2.0</ele><time>2026-03-23T13:23:26Z</time></trkpt><trkpt lat="44.91639866646237" lon="11.726193882689786"><ele>2.0</ele><time>2026-03-23T13:23:28Z</time></trkpt><trkpt lat="44.91637865104117" lon="11.72630939865935"><ele>2.0</ele><time>2026-03-23T13:23:30Z</time></trkpt><trkpt lat="44.91635317049066" lon="11.726435293712319"><ele>2.0</ele><time>2026-03-23T13:23:32Z</time></trkpt><trkpt lat="44.916327582089956" lon="11.726569856707837"><ele>2.0</ele><time>2026-03-23T13:23:34Z</time></trkpt><trkpt lat="44.916299748674405" lon="11.726704337353139"><ele>2.0</ele><time>2026-03-23T13:23:36Z</time></trkpt><trkpt lat="44.916276023363274" lon="11.726842138300098"><ele>2.0</ele><time>2026-03-23T13:23:38Z</time></trkpt><trkpt lat="44.91624700752284" lon="11.726980277105971"><ele>2.0</ele><time>2026-03-23T13:23:40Z</time></trkpt><trkpt lat="44.91621795878523" lon="11.72711638134875"><ele>2.0</ele><time>2026-03-23T13:23:42Z</time></trkpt><trkpt lat="44.91619062627997" lon="11.72725267200775"><ele>2.0</ele><time>2026-03-23T13:23:44Z</time></trkpt><trkpt lat="44.91616251180525" lon="11.727391429051883"><ele>1.8</ele><time>2026-03-23T13:23:46Z</time></trkpt><trkpt lat="44.916136371030134" lon="11.72753106889832"><ele>1.6</ele><time>2026-03-23T13:23:48Z</time></trkpt><trkpt lat="44.916110111949585" lon="11.727669369226046"><ele>1.4000000000000001</ele><time>2026-03-23T13:23:49.999Z</time></trkpt><trkpt lat="44.916078761763075" lon="11.72780130135873"><ele>1.2000000000000002</ele><time>2026-03-23T13:23:51.999Z</time></trkpt><trkpt lat="44.91604947958008" lon="11.727935217433794"><ele>1.0</ele><time>2026-03-23T13:23:53.999Z</time></trkpt><trkpt lat="44.91602075761379" lon="11.728069673183395"><ele>1.0</ele><time>2026-03-23T13:23:55.999Z</time></trkpt><trkpt lat="44.9159947086374" lon="11.728207170700285"><ele>1.0</ele><time>2026-03-23T13:23:57.999Z</time></trkpt><trkpt lat="44.91596639967701" lon="11.728341117064245"><ele>1.0</ele><time>2026-03-23T13:23:59.999Z</time></trkpt><trkpt lat="44.915941190939925" lon="11.728469382212776"><ele>1.0</ele><time>2026-03-23T13:24:01.999Z</time></trkpt><trkpt lat="44.915918236947945" lon="11.728593000972207"><ele>1.0</ele><time>2026-03-23T13:24:03.999Z</time></trkpt><trkpt lat="44.91589128328686" lon="11.72872050209599"><ele>0.8</ele><time>2026-03-23T13:24:05.999Z</time></trkpt><trkpt lat="44.91586172720316" lon="11.728858312463746"><ele>0.6000000000000001</ele><time>2026-03-23T13:24:07.999Z</time></trkpt><trkpt lat="44.91583584270522" lon="11.728995552309081"><ele>0.4</ele><time>2026-03-23T13:24:09.999Z</time></trkpt><trkpt lat="44.915806397147534" lon="11.729131726467685"><ele>0.2</ele><time>2026-03-23T13:24:11.999Z</time></trkpt><trkpt lat="44.915781311108645" lon="11.729261219675088"><ele>0.0</ele><time>2026-03-23T13:24:13.999Z</time></trkpt><trkpt lat="44.91575715281755" lon="11.729387973538865"><ele>0.0</ele><time>2026-03-23T13:24:15.999Z</time></trkpt><trkpt lat="44.91573158849705" lon="11.729505567792993"><ele>0.0</ele><time>2026-03-23T13:24:17.999Z</time></trkpt><trkpt lat="44.91571091130823" lon="11.729619843751149"><ele>0.0</ele><time>2026-03-23T13:24:19.999Z</time></trkpt><trkpt lat="44.91568717447246" lon="11.729755710089885"><ele>0.0</ele><time>2026-03-23T13:24:21.999Z</time></trkpt><trkpt lat="44.91565896071656" lon="11.729885212698688"><ele>0.0</ele><time>2026-03-23T13:24:23.999Z</time></trkpt><trkpt lat="44.915634456556" lon="11.73001689666706"><ele>0.0</ele><time>2026-03-23T13:24:25.999Z</time></trkpt><trkpt lat="44.915606993634185" lon="11.730136333019585"><ele>0.0</ele><time>2026-03-23T13:24:27.999Z</time></trkpt><trkpt lat="44.91558862473282" lon="11.730237950374239"><ele>0.0</ele><time>2026-03-23T13:24:29.999Z</time></trkpt><trkpt lat="44.9155590957868" lon="11.730332288444476"><ele>0.0</ele><time>2026-03-23T13:24:32.999Z</time></trkpt><trkpt lat="44.91554925509642" lon="11.730449597730892"><ele>0.0</ele><time>2026-03-23T13:25:54Z</time></trkpt><trkpt lat="44.91552599424368" lon="11.73054294368781"><ele>0.0</ele><time>2026-03-23T13:25:56Z</time></trkpt><trkpt lat="44.9155021626794" lon="11.73063916139329"><ele>0.4</ele><time>2026-03-23T13:25:57.999Z</time></trkpt><trkpt lat="44.915482048727235" lon="11.730755017400702"><ele>0.8</ele><time>2026-03-23T13:25:59.999Z</time></trkpt><trkpt lat="44.915454073280614" lon="11.730887911627388"><ele>1.2000000000000002</ele><time>2026-03-23T13:26:01.999Z</time></trkpt><trkpt lat="44.915429288544075" lon="11.731023493210657"><ele>1.6</ele><time>2026-03-23T13:26:03.999Z</time></trkpt><trkpt lat="44.91540091872464" lon="11.731159328857835"><ele>2.0</ele><time>2026-03-23T13:26:05.999Z</time></trkpt><trkpt lat="44.91537039775837" lon="11.73129478951444"><ele>2.0</ele><time>2026-03-23T13:26:07.999Z</time></trkpt><trkpt lat="44.91534248593601" lon="11.731433488351577"><ele>2.0</ele><time>2026-03-23T13:26:09.999Z</time></trkpt><trkpt lat="44.91530260397944" lon="11.731637295366744"><ele>2.0</ele><time>2026-03-23T13:26:12.999Z</time></trkpt><trkpt lat="44.91527962681152" lon="11.731776728426077"><ele>2.0</ele><time>2026-03-23T13:26:14.999Z</time></trkpt><trkpt lat="44.91525497862867" lon="11.73191275935512"><ele>1.8</ele><time>2026-03-23T13:26:16.999Z</time></trkpt><trkpt lat="44.915223214505744" lon="11.732048022299834"><ele>1.6</ele><time>2026-03-23T13:26:18.999Z</time></trkpt><trkpt lat="44.91519813710684" lon="11.732176114524174"><ele>1.4000000000000001</ele><time>2026-03-23T13:26:20.999Z</time></trkpt><trkpt lat="44.915169601490305" lon="11.732306117832149"><ele>1.2000000000000002</ele><time>2026-03-23T13:26:22.999Z</time></trkpt><trkpt lat="44.91513951598303" lon="11.732440602567138"><ele>1.0</ele><time>2026-03-23T13:26:24.999Z</time></trkpt><trkpt lat="44.915109848119" lon="11.73257489203422"><ele>1.0</ele><time>2026-03-23T13:26:26.999Z</time></trkpt><trkpt lat="44.91508548381863" lon="11.732712412049352"><ele>1.0</ele><time>2026-03-23T13:26:28.999Z</time></trkpt><trkpt lat="44.915052659672654" lon="11.73284894579234"><ele>1.0</ele><time>2026-03-23T13:26:30.999Z</time></trkpt><trkpt lat="44.91502547601817" lon="11.73299023577374"><ele>1.0</ele><time>2026-03-23T13:26:32.999Z</time></trkpt><trkpt lat="44.9149989704368" lon="11.733122832583547"><ele>1.0</ele><time>2026-03-23T13:26:34.999Z</time></trkpt><trkpt lat="44.91497747530178" lon="11.733250760729161"><ele>1.4</ele><time>2026-03-23T13:26:36.999Z</time></trkpt><trkpt lat="44.914952471319296" lon="11.733370863332565"><ele>1.8</ele><time>2026-03-23T13:26:38.999Z</time></trkpt><trkpt lat="44.914926909524695" lon="11.733489690411474"><ele>2.1999999999999997</ele><time>2026-03-23T13:26:40.999Z</time></trkpt><trkpt lat="44.914901886505326" lon="11.73361798836294"><ele>2.6</ele><time>2026-03-23T13:26:42.999Z</time></trkpt><trkpt lat="44.91487621057334" lon="11.733758070232337"><ele>3.0</ele><time>2026-03-23T13:26:44.999Z</time></trkpt><trkpt lat="44.914849941884604" lon="11.733895247475125"><ele>3.0</ele><time>2026-03-23T13:26:46.999Z</time></trkpt><trkpt lat="44.91482061336205" lon="11.734029500234293"><ele>3.0</ele><time>2026-03-23T13:26:48.999Z</time></trkpt><trkpt lat="44.9147906754247" lon="11.734164986595104"><ele>3.0</ele><time>2026-03-23T13:26:50.999Z</time></trkpt><trkpt lat="44.9147625195754" lon="11.734301113963948"><ele>3.0</ele><time>2026-03-23T13:26:53Z</time></trkpt><trkpt lat="44.91473368318222" lon="11.734436410866003"><ele>3.0</ele><time>2026-03-23T13:26:55Z</time></trkpt><trkpt lat="44.91470835779078" lon="11.734574560991575"><ele>2.8</ele><time>2026-03-23T13:26:57Z</time></trkpt><trkpt lat="44.91468363232538" lon="11.734713679565443"><ele>2.5999999999999996</ele><time>2026-03-23T13:26:59Z</time></trkpt><trkpt lat="44.91465233440973" lon="11.73484746751885"><ele>2.4000000000000004</ele><time>2026-03-23T13:27:01Z</time></trkpt><trkpt lat="44.91462217236659" lon="11.734984446560528"><ele>2.2</ele><time>2026-03-23T13:27:03Z</time></trkpt><trkpt lat="44.91459200076721" lon="11.735124406958908"><ele>2.0</ele><time>2026-03-23T13:27:05Z</time></trkpt><trkpt lat="44.91456802584705" lon="11.735262789168518"><ele>2.0</ele><time>2026-03-23T13:27:07Z</time></trkpt><trkpt lat="44.91454178509228" lon="11.735405038418701"><ele>2.0</ele><time>2026-03-23T13:27:09Z</time></trkpt><trkpt lat="44.91451238267388" lon="11.73554192876928"><ele>2.0</ele><time>2026-03-23T13:27:11Z</time></trkpt><trkpt lat="44.914484734762816" lon="11.735681012723301"><ele>2.0</ele><time>2026-03-23T13:27:13Z</time></trkpt><trkpt lat="44.91445666701812" lon="11.735817175742458"><ele>2.0</ele><time>2026-03-23T13:27:15Z</time></trkpt><trkpt lat="44.91442808732188" lon="11.735954119952364"><ele>2.4000000000000004</ele><time>2026-03-23T13:27:17Z</time></trkpt><trkpt lat="44.914402649701934" lon="11.736092813826934"><ele>2.8000000000000003</ele><time>2026-03-23T13:27:19Z</time></trkpt><trkpt lat="44.914379097511066" lon="11.736231747038827"><ele>3.2</ele><time>2026-03-23T13:27:21Z</time></trkpt><trkpt lat="44.91435312701863" lon="11.736372852555903"><ele>3.6</ele><time>2026-03-23T13:27:23Z</time></trkpt><trkpt lat="44.91431756808232" lon="11.736508823659483"><ele>4.0</ele><time>2026-03-23T13:27:25Z</time></trkpt><trkpt lat="44.91429561776449" lon="11.73664738782203"><ele>4.0</ele><time>2026-03-23T13:27:27Z</time></trkpt><trkpt lat="44.914268927391824" lon="11.736782731123283"><ele>4.0</ele><time>2026-03-23T13:27:29Z</time></trkpt><trkpt lat="44.91424332542176" lon="11.736915627207082"><ele>4.0</ele><time>2026-03-23T13:27:31Z</time></trkpt><trkpt lat="44.914218647841565" lon="11.737037521672791"><ele>4.0</ele><time>2026-03-23T13:27:33Z</time></trkpt><trkpt lat="44.91419381758821" lon="11.737154087601485"><ele>4.0</ele><time>2026-03-23T13:27:35Z</time></trkpt><trkpt lat="44.91417162527625" lon="11.737268711706086"><ele>3.833333333333333</ele><time>2026-03-23T13:27:37Z</time></trkpt><trkpt lat="44.914147613890854" lon="11.737373387251365"><ele>3.6666666666666665</ele><time>2026-03-23T13:27:39Z</time></trkpt><trkpt lat="44.91412589902495" lon="11.737490107640344"><ele>3.5</ele><time>2026-03-23T13:27:41Z</time></trkpt><trkpt lat="44.9141034961093" lon="11.737618744431536"><ele>3.333333333333333</ele><time>2026-03-23T13:27:43Z</time></trkpt><trkpt lat="44.91406603356023" lon="11.737731087931467"><ele>3.1666666666666665</ele><time>2026-03-23T13:27:45Z</time></trkpt><trkpt lat="44.91401104714774" lon="11.73783005968445"><ele>3.0</ele><time>2026-03-23T13:27:47Z</time></trkpt><trkpt lat="44.91394818252837" lon="11.737921753979998"><ele>2.8</ele><time>2026-03-23T13:27:49Z</time></trkpt><trkpt lat="44.91389403913037" lon="11.738037671592352"><ele>2.5999999999999996</ele><time>2026-03-23T13:27:51Z</time></trkpt><trkpt lat="44.91384514859711" lon="11.7381619093073"><ele>2.4000000000000004</ele><time>2026-03-23T13:27:53Z</time></trkpt><trkpt lat="44.913814270285314" lon="11.73829985790928"><ele>2.2</ele><time>2026-03-23T13:27:55Z</time></trkpt><trkpt lat="44.91378598560335" lon="11.738436932107506"><ele>2.0</ele><time>2026-03-23T13:27:57Z</time></trkpt><trkpt lat="44.913761743811484" lon="11.738576862740246"><ele>2.4000000000000004</ele><time>2026-03-23T13:27:59Z</time></trkpt><trkpt lat="44.91373225532512" lon="11.738711112111835"><ele>2.8000000000000003</ele><time>2026-03-23T13:28:01Z</time></trkpt><trkpt lat="44.91370693924341" lon="11.738855644101912"><ele>3.2</ele><time>2026-03-23T13:28:03Z</time></trkpt><trkpt lat="44.9136762575268" lon="11.738988680357823"><ele>3.6</ele><time>2026-03-23T13:28:04.999Z</time></trkpt><trkpt lat="44.91364789187492" lon="11.739121511028003"><ele>4.0</ele><time>2026-03-23T13:28:06.999Z</time></trkpt><trkpt lat="44.91360258643741" lon="11.739235333891932"><ele>4.0</ele><time>2026-03-23T13:28:08.999Z</time></trkpt><trkpt lat="44.91353958915355" lon="11.739329874611922"><ele>4.0</ele><time>2026-03-23T13:28:10.999Z</time></trkpt><trkpt lat="44.91346332764107" lon="11.739403428112468"><ele>4.0</ele><time>2026-03-23T13:28:12.999Z</time></trkpt><trkpt lat="44.91337556505984" lon="11.73948262933984"><ele>4.0</ele><time>2026-03-23T13:28:14.999Z</time></trkpt><trkpt lat="44.9132874279486" lon="11.739562206719018"><ele>4.0</ele><time>2026-03-23T13:28:16.999Z</time></trkpt><trkpt lat="44.913198318537624" lon="11.739633633345692"><ele>3.6</ele><time>2026-03-23T13:28:18.999Z</time></trkpt><trkpt lat="44.91311002782995" lon="11.739706380181369"><ele>3.2</ele><time>2026-03-23T13:28:20.999Z</time></trkpt><trkpt lat="44.91302396281824" lon="11.739791412190476"><ele>2.8000000000000003</ele><time>2026-03-23T13:28:22.999Z</time></trkpt><trkpt lat="44.91293769633424" lon="11.739872675017647"><ele>2.4000000000000004</ele><time>2026-03-23T13:28:24.999Z</time></trkpt><trkpt lat="44.912848925058476" lon="11.73995214172629"><ele>2.0</ele><time>2026-03-23T13:28:26.999Z</time></trkpt><trkpt lat="44.91276094861753" lon="11.740024889653254"><ele>2.0</ele><time>2026-03-23T13:28:28.999Z</time></trkpt><trkpt lat="44.91267253056718" lon="11.740105857569311"><ele>2.0</ele><time>2026-03-23T13:28:30.999Z</time></trkpt><trkpt lat="44.912587721291274" lon="11.74017973578321"><ele>2.0</ele><time>2026-03-23T13:28:32.999Z</time></trkpt><trkpt lat="44.912500297022895" lon="11.74025514830695"><ele>2.0</ele><time>2026-03-23T13:28:34.999Z</time></trkpt><trkpt lat="44.91240652600626" lon="11.740328929863619"><ele>2.0</ele><time>2026-03-23T13:28:36.999Z</time></trkpt><trkpt lat="44.912322903967514" lon="11.740406400201456"><ele>2.4000000000000004</ele><time>2026-03-23T13:28:38.999Z</time></trkpt><trkpt lat="44.91223368758388" lon="11.740478264484208"><ele>2.8000000000000003</ele><time>2026-03-23T13:28:40.999Z</time></trkpt><trkpt lat="44.91216278341527" lon="11.740565662910672"><ele>3.2</ele><time>2026-03-23T13:28:42.999Z</time></trkpt><trkpt lat="44.912083219385025" lon="11.740640541646757"><ele>3.6</ele><time>2026-03-23T13:28:44.999Z</time></trkpt><trkpt lat="44.912026641123916" lon="11.740745089913576"><ele>4.0</ele><time>2026-03-23T13:28:46.999Z</time></trkpt><trkpt lat="44.91196567427207" lon="11.74083488034967"><ele>4.0</ele><time>2026-03-23T13:28:48.999Z</time></trkpt><trkpt lat="44.91190778517008" lon="11.740933105303135"><ele>4.0</ele><time>2026-03-23T13:28:50.999Z</time></trkpt><trkpt lat="44.91185257453999" lon="11.74103149882648"><ele>4.0</ele><time>2026-03-23T13:28:52.999Z</time></trkpt><trkpt lat="44.911794378094676" lon="11.741120787104357"><ele>4.0</ele><time>2026-03-23T13:28:54.999Z</time></trkpt><trkpt lat="44.91173413616858" lon="11.741215425568086"><ele>4.0</ele><time>2026-03-23T13:28:56.999Z</time></trkpt><trkpt lat="44.91167575293485" lon="11.74132411882164"><ele>3.6</ele><time>2026-03-23T13:28:59Z</time></trkpt><trkpt lat="44.91160588660036" lon="11.741429538137641"><ele>3.2</ele><time>2026-03-23T13:29:01Z</time></trkpt><trkpt lat="44.91154205389169" lon="11.74153971331682"><ele>2.8000000000000003</ele><time>2026-03-23T13:29:03Z</time></trkpt><trkpt lat="44.91148149069092" lon="11.741650494322531"><ele>2.4000000000000004</ele><time>2026-03-23T13:29:05Z</time></trkpt><trkpt lat="44.91142005146676" lon="11.741769174148462"><ele>2.0</ele><time>2026-03-23T13:29:07Z</time></trkpt><trkpt lat="44.91135722553514" lon="11.741870010600817"><ele>1.9999999999999998</ele><time>2026-03-23T13:29:09Z</time></trkpt><trkpt lat="44.91129190660822" lon="11.741968221708497"><ele>2.0</ele><time>2026-03-23T13:29:11Z</time></trkpt><trkpt lat="44.91123069857734" lon="11.742055879235135"><ele>2.0</ele><time>2026-03-23T13:29:13Z</time></trkpt><trkpt lat="44.9111769138573" lon="11.742147486709626"><ele>2.0</ele><time>2026-03-23T13:29:15Z</time></trkpt><trkpt lat="44.91112441278209" lon="11.742227978579434"><ele>1.9999999999999998</ele><time>2026-03-23T13:29:17Z</time></trkpt><trkpt lat="44.91106806515936" lon="11.742304023669861"><ele>2.0</ele><time>2026-03-23T13:29:20Z</time></trkpt><trkpt lat="44.91100229157954" lon="11.742380377477273"><ele>2.0</ele><time>2026-03-23T13:29:44Z</time></trkpt><trkpt lat="44.91095326774697" lon="11.742450051691325"><ele>2.0</ele><time>2026-03-23T13:29:46Z</time></trkpt><trkpt lat="44.91089472081114" lon="11.742543294736945"><ele>2.0</ele><time>2026-03-23T13:29:48Z</time></trkpt><trkpt lat="44.91081560391269" lon="11.7426503809823"><ele>2.0</ele><time>2026-03-23T13:29:50Z</time></trkpt><trkpt lat="44.91073684611841" lon="11.742761403442804"><ele>2.0</ele><time>2026-03-23T13:29:52Z</time></trkpt><trkpt lat="44.91065944219759" lon="11.74286538079545"><ele>2.0</ele><time>2026-03-23T13:29:54Z</time></trkpt><trkpt lat="44.91058344006853" lon="11.742971782590642"><ele>2.0</ele><time>2026-03-23T13:29:56Z</time></trkpt><trkpt lat="44.910502645257054" lon="11.743072846970986"><ele>2.0</ele><time>2026-03-23T13:29:58Z</time></trkpt><trkpt lat="44.91042064053053" lon="11.743171552832829"><ele>2.0</ele><time>2026-03-23T13:30:00Z</time></trkpt><trkpt lat="44.91034511899946" lon="11.74327256035574"><ele>2.0</ele><time>2026-03-23T13:30:02Z</time></trkpt><trkpt lat="44.91026649060849" lon="11.743371595313578"><ele>2.0</ele><time>2026-03-23T13:30:03.999Z</time></trkpt><trkpt lat="44.910189590524396" lon="11.743471653151127"><ele>2.0</ele><time>2026-03-23T13:30:05.999Z</time></trkpt><trkpt lat="44.91010922405831" lon="11.743572249296284"><ele>2.0</ele><time>2026-03-23T13:30:07.999Z</time></trkpt><trkpt lat="44.910030469804575" lon="11.74366746572892"><ele>2.0</ele><time>2026-03-23T13:30:09.999Z</time></trkpt><trkpt lat="44.909953574963865" lon="11.743763579644629"><ele>2.0</ele><time>2026-03-23T13:30:11.999Z</time></trkpt><trkpt lat="44.909879623647996" lon="11.743862094309387"><ele>1.8</ele><time>2026-03-23T13:30:13.999Z</time></trkpt><trkpt lat="44.909803598107366" lon="11.743956015336625"><ele>1.6</ele><time>2026-03-23T13:30:15.999Z</time></trkpt><trkpt lat="44.90972622992013" lon="11.744052938708329"><ele>1.4000000000000001</ele><time>2026-03-23T13:30:17.999Z</time></trkpt><trkpt lat="44.909649926052886" lon="11.744147323245471"><ele>1.2000000000000002</ele><time>2026-03-23T13:30:19.999Z</time></trkpt><trkpt lat="44.90957250923811" lon="11.744243603797631"><ele>1.0</ele><time>2026-03-23T13:30:21.999Z</time></trkpt><trkpt lat="44.909497098512816" lon="11.744338663349053"><ele>1.0</ele><time>2026-03-23T13:30:23.999Z</time></trkpt><trkpt lat="44.909421278025484" lon="11.744438012289436"><ele>1.0</ele><time>2026-03-23T13:30:25.999Z</time></trkpt><trkpt lat="44.90935084433224" lon="11.74452961760386"><ele>1.0</ele><time>2026-03-23T13:30:27.999Z</time></trkpt><trkpt lat="44.90928025344893" lon="11.744616204220423"><ele>1.0</ele><time>2026-03-23T13:30:29.999Z</time></trkpt><trkpt lat="44.909210194029754" lon="11.744700915322047"><ele>1.0</ele><time>2026-03-23T13:30:31.999Z</time></trkpt><trkpt lat="44.90913171790105" lon="11.744774227004324"><ele>1.2000000000000002</ele><time>2026-03-23T13:30:33.999Z</time></trkpt><trkpt lat="44.90906023331197" lon="11.744832117338682"><ele>1.4000000000000001</ele><time>2026-03-23T13:30:35.999Z</time></trkpt><trkpt lat="44.90898687380083" lon="11.74489668258355"><ele>1.6</ele><time>2026-03-23T13:30:37.999Z</time></trkpt><trkpt lat="44.90891390795288" lon="11.744962981439224"><ele>1.8</ele><time>2026-03-23T13:30:39.999Z</time></trkpt><trkpt lat="44.908832363633444" lon="11.745031673331859"><ele>2.0</ele><time>2026-03-23T13:30:41.999Z</time></trkpt><trkpt lat="44.90874547425525" lon="11.745102490392616"><ele>2.0</ele><time>2026-03-23T13:30:43.999Z</time></trkpt><trkpt lat="44.90866056430255" lon="11.745178075326718"><ele>2.0</ele><time>2026-03-23T13:30:45.999Z</time></trkpt><trkpt lat="44.90857268426514" lon="11.74525291751938"><ele>2.0</ele><time>2026-03-23T13:30:47.999Z</time></trkpt><trkpt lat="44.90848653226849" lon="11.745330151148305"><ele>2.0</ele><time>2026-03-23T13:30:49.999Z</time></trkpt><trkpt lat="44.90840017285497" lon="11.745406667829185"><ele>2.0</ele><time>2026-03-23T13:30:51.999Z</time></trkpt><trkpt lat="44.9083149585019" lon="11.745483545069536"><ele>2.0</ele><time>2026-03-23T13:30:53.999Z</time></trkpt><trkpt lat="44.90823153495952" lon="11.745554355630764"><ele>2.0</ele><time>2026-03-23T13:30:55.999Z</time></trkpt><trkpt lat="44.908149578164476" lon="11.74561701536672"><ele>2.0</ele><time>2026-03-23T13:30:57.999Z</time></trkpt><trkpt lat="44.908069127800644" lon="11.745671847956233"><ele>2.0</ele><time>2026-03-23T13:30:59.999Z</time></trkpt><trkpt lat="44.907983852607394" lon="11.745724165196572"><ele>2.0</ele><time>2026-03-23T13:31:01.999Z</time></trkpt><trkpt lat="44.90789351755406" lon="11.745774977566827"><ele>2.0</ele><time>2026-03-23T13:31:04Z</time></trkpt><trkpt lat="44.90780250337964" lon="11.745834366799697"><ele>2.0</ele><time>2026-03-23T13:31:06Z</time></trkpt><trkpt lat="44.90772193509814" lon="11.745906137521906"><ele>2.0</ele><time>2026-03-23T13:31:08Z</time></trkpt><trkpt lat="44.90765784604365" lon="11.746009635085242"><ele>2.0</ele><time>2026-03-23T13:31:10Z</time></trkpt><trkpt lat="44.90760907667361" lon="11.746119752388042"><ele>2.0</ele><time>2026-03-23T13:31:12Z</time></trkpt><trkpt lat="44.907560754741134" lon="11.746224450989962"><ele>2.2</ele><time>2026-03-23T13:31:14Z</time></trkpt><trkpt lat="44.90751384763357" lon="11.746343972350996"><ele>2.4000000000000004</ele><time>2026-03-23T13:31:16Z</time></trkpt><trkpt lat="44.90746119215196" lon="11.746464163033316"><ele>2.5999999999999996</ele><time>2026-03-23T13:31:18Z</time></trkpt><trkpt lat="44.90740969400729" lon="11.746584679006155"><ele>2.8</ele><time>2026-03-23T13:31:20Z</time></trkpt><trkpt lat="44.90736065262791" lon="11.74670058947951"><ele>3.0</ele><time>2026-03-23T13:31:22Z</time></trkpt><trkpt lat="44.90731898358894" lon="11.746814176588463"><ele>3.1666666666666665</ele><time>2026-03-23T13:31:24Z</time></trkpt><trkpt lat="44.90727551634505" lon="11.746921268497756"><ele>3.333333333333333</ele><time>2026-03-23T13:31:26Z</time></trkpt><trkpt lat="44.90723317672279" lon="11.747021516445466"><ele>3.5</ele><time>2026-03-23T13:31:28Z</time></trkpt><trkpt lat="44.90719408136272" lon="11.747119852948444"><ele>3.6666666666666665</ele><time>2026-03-23T13:31:30Z</time></trkpt><trkpt lat="44.90715689027544" lon="11.7472111011053"><ele>3.833333333333333</ele><time>2026-03-23T13:31:32Z</time></trkpt><trkpt lat="44.90711994898514" lon="11.747295512436443"><ele>4.0</ele><time>2026-03-23T13:31:34Z</time></trkpt><trkpt lat="44.90707420817886" lon="11.747364303320794"><ele>4.0</ele><time>2026-03-23T13:31:36Z</time></trkpt><trkpt lat="44.9070333113111" lon="11.747456856477688"><ele>3.9999999999999996</ele><time>2026-03-23T13:31:38Z</time></trkpt><trkpt lat="44.906991322254136" lon="11.747553439136711"><ele>4.0</ele><time>2026-03-23T13:31:40Z</time></trkpt><trkpt lat="44.9069535887718" lon="11.747639972089654"><ele>4.0</ele><time>2026-03-23T13:31:42Z</time></trkpt><trkpt lat="44.906924827587694" lon="11.74773011814719"><ele>3.9999999999999996</ele><time>2026-03-23T13:31:44Z</time></trkpt><trkpt lat="44.906886849916425" lon="11.747804792491998"><ele>4.0</ele><time>2026-03-23T13:31:46Z</time></trkpt><trkpt lat="44.906858066253044" lon="11.74788708156085"><ele>4.0</ele><time>2026-03-23T13:31:48Z</time></trkpt><trkpt lat="44.90680922341482" lon="11.747982206163258"><ele>3.9999999999999996</ele><time>2026-03-23T13:31:51Z</time></trkpt><trkpt lat="44.90675970441815" lon="11.748076709639125"><ele>4.0</ele><time>2026-03-23T13:31:54Z</time></trkpt><trkpt lat="44.906715083453044" lon="11.74817548760812"><ele>4.0</ele><time>2026-03-23T13:31:56Z</time></trkpt><trkpt lat="44.90667464956861" lon="11.74828077133648"><ele>4.0</ele><time>2026-03-23T13:31:58Z</time></trkpt><trkpt lat="44.90664095081989" lon="11.74837234624233"><ele>3.9999999999999996</ele><time>2026-03-23T13:32:00Z</time></trkpt><trkpt lat="44.90660000803928" lon="11.74845440102788"><ele>4.0</ele><time>2026-03-23T13:32:02Z</time></trkpt><trkpt lat="44.90655894000372" lon="11.748525505390434"><ele>3.8000000000000003</ele><time>2026-03-23T13:32:04Z</time></trkpt><trkpt lat="44.90649855276728" lon="11.748640033449048"><ele>3.6000000000000005</ele><time>2026-03-23T13:32:06.999Z</time></trkpt><trkpt lat="44.906444657639454" lon="11.748744823386183"><ele>3.4</ele><time>2026-03-23T13:32:08.999Z</time></trkpt><trkpt lat="44.906396902971856" lon="11.748865236795762"><ele>3.2</ele><time>2026-03-23T13:32:10.999Z</time></trkpt><trkpt lat="44.906363883752874" lon="11.74898768997135"><ele>3.0</ele><time>2026-03-23T13:32:12.999Z</time></trkpt><trkpt lat="44.906341421674995" lon="11.749102065155965"><ele>3.0</ele><time>2026-03-23T13:32:14.999Z</time></trkpt><trkpt lat="44.906301535417775" lon="11.749199446764688"><ele>3.0</ele><time>2026-03-23T13:32:16.999Z</time></trkpt><trkpt lat="44.906278032513505" lon="11.749292344106493"><ele>3.0</ele><time>2026-03-23T13:32:18.999Z</time></trkpt><trkpt lat="44.90625908521282" lon="11.74938152822247"><ele>3.0</ele><time>2026-03-23T13:32:20.999Z</time></trkpt><trkpt lat="44.906233339221835" lon="11.749502065371354"><ele>3.0</ele><time>2026-03-23T13:32:23.999Z</time></trkpt><trkpt lat="44.9062058890508" lon="11.749624504209347"><ele>3.0</ele><time>2026-03-23T13:32:26.999Z</time></trkpt><trkpt lat="44.90618544904257" lon="11.749745438567798"><ele>3.0</ele><time>2026-03-23T13:32:28.999Z</time></trkpt><trkpt lat="44.90615945801674" lon="11.749854555077052"><ele>3.0</ele><time>2026-03-23T13:32:30.999Z</time></trkpt><trkpt lat="44.90613373521916" lon="11.749957106262709"><ele>3.0</ele><time>2026-03-23T13:32:32.999Z</time></trkpt><trkpt lat="44.906123073888814" lon="11.75005679053628"><ele>3.0</ele><time>2026-03-23T13:32:34.999Z</time></trkpt><trkpt lat="44.90610100975236" lon="11.750151059346996"><ele>3.0</ele><time>2026-03-23T13:32:36.999Z</time></trkpt><trkpt lat="44.906088923557306" lon="11.750252106069713"><ele>3.0</ele><time>2026-03-23T13:32:38.999Z</time></trkpt><trkpt lat="44.90608091165841" lon="11.750384012633294"><ele>3.0</ele><time>2026-03-23T13:32:40.999Z</time></trkpt><trkpt lat="44.90607418237156" lon="11.750515260360883"><ele>3.0</ele><time>2026-03-23T13:32:42.999Z</time></trkpt><trkpt lat="44.906073902985966" lon="11.750638870807622"><ele>3.0</ele><time>2026-03-23T13:32:44.999Z</time></trkpt><trkpt lat="44.90606567223654" lon="11.750750670584367"><ele>3.0</ele><time>2026-03-23T13:32:46.999Z</time></trkpt><trkpt lat="44.906065775058195" lon="11.750856416141493"><ele>3.0</ele><time>2026-03-23T13:32:48.999Z</time></trkpt><trkpt lat="44.90606449099038" lon="11.750958387190165"><ele>3.0</ele><time>2026-03-23T13:32:50.999Z</time></trkpt><trkpt lat="44.90605567025287" lon="11.751053154631833"><ele>3.0</ele><time>2026-03-23T13:32:52.999Z</time></trkpt><trkpt lat="44.906050875922325" lon="11.751143862471956"><ele>3.0</ele><time>2026-03-23T13:32:54.999Z</time></trkpt><trkpt lat="44.90604442339153" lon="11.751258123702623"><ele>3.0</ele><time>2026-03-23T13:32:56.999Z</time></trkpt><trkpt lat="44.906038414590896" lon="11.751391223852364"><ele>3.0</ele><time>2026-03-23T13:32:58.999Z</time></trkpt><trkpt lat="44.906028843625016" lon="11.751527921552135"><ele>3.0</ele><time>2026-03-23T13:33:00.999Z</time></trkpt><trkpt lat="44.90602167498869" lon="11.751670832196481"><ele>3.0</ele><time>2026-03-23T13:33:02.999Z</time></trkpt><trkpt lat="44.906011747902696" lon="11.75180774866387"><ele>3.0</ele><time>2026-03-23T13:33:04.999Z</time></trkpt><trkpt lat="44.906005302045635" lon="11.751951035331386"><ele>3.0</ele><time>2026-03-23T13:33:06.999Z</time></trkpt><trkpt lat="44.905998187611345" lon="11.752087672009624"><ele>3.0</ele><time>2026-03-23T13:33:09Z</time></trkpt><trkpt lat="44.90598297801466" lon="11.752217929871874"><ele>3.0</ele><time>2026-03-23T13:33:11Z</time></trkpt><trkpt lat="44.90597189761063" lon="11.75234638912089"><ele>3.0</ele><time>2026-03-23T13:33:13Z</time></trkpt><trkpt lat="44.905959434640025" lon="11.752475372478445"><ele>3.0</ele><time>2026-03-23T13:33:15Z</time></trkpt><trkpt lat="44.90594584437359" lon="11.752615905738221"><ele>3.0</ele><time>2026-03-23T13:33:17Z</time></trkpt><trkpt lat="44.90593785654815" lon="11.752747066918355"><ele>3.0</ele><time>2026-03-23T13:33:19Z</time></trkpt><trkpt lat="44.90592368133002" lon="11.752871122206187"><ele>3.0</ele><time>2026-03-23T13:33:21Z</time></trkpt><trkpt lat="44.90590558526529" lon="11.752986678735134"><ele>3.0</ele><time>2026-03-23T13:33:23Z</time></trkpt><trkpt lat="44.9058798021134" lon="11.75309949346354"><ele>2.9999999999999996</ele><time>2026-03-23T13:33:25Z</time></trkpt><trkpt lat="44.905828523225445" lon="11.753181895418297"><ele>3.0</ele><time>2026-03-23T13:33:27Z</time></trkpt><trkpt lat="44.90575802631183" lon="11.753224635610806"><ele>3.0</ele><time>2026-03-23T13:33:29Z</time></trkpt><trkpt lat="44.90568335082435" lon="11.753235470241473"><ele>3.0</ele><time>2026-03-23T13:33:31Z</time></trkpt><trkpt lat="44.9056121083122" lon="11.75325850292531"><ele>3.0</ele><time>2026-03-23T13:33:33Z</time></trkpt><trkpt lat="44.905538717395494" lon="11.753245852188195"><ele>2.9999999999999996</ele><time>2026-03-23T13:33:35Z</time></trkpt><trkpt lat="44.90546777870951" lon="11.75326799572134"><ele>3.0</ele><time>2026-03-23T13:33:37Z</time></trkpt><trkpt lat="44.90540093716633" lon="11.753284804350839"><ele>3.0</ele><time>2026-03-23T13:33:39Z</time></trkpt><trkpt lat="44.9053291229752" lon="11.753310721457884"><ele>3.0</ele><time>2026-03-23T13:33:41Z</time></trkpt><trkpt lat="44.90524903151318" lon="11.753368990936766"><ele>3.0</ele><time>2026-03-23T13:33:43Z</time></trkpt><trkpt lat="44.90517943682694" lon="11.753428653966228"><ele>3.0</ele><time>2026-03-23T13:33:45Z</time></trkpt><trkpt lat="44.9051164312755" lon="11.75348578447656"><ele>3.0</ele><time>2026-03-23T13:33:47Z</time></trkpt><trkpt lat="44.90505772349532" lon="11.753539919366219"><ele>3.0</ele><time>2026-03-23T13:33:49Z</time></trkpt><trkpt lat="44.90498468910236" lon="11.75362099370892"><ele>2.714285714285714</ele><time>2026-03-23T13:33:52Z</time></trkpt><trkpt lat="44.904928559906494" lon="11.753664689441077"><ele>2.4285714285714284</ele><time>2026-03-23T13:33:54Z</time></trkpt><trkpt lat="44.90487060912315" lon="11.753726740987815"><ele>2.142857142857143</ele><time>2026-03-23T13:33:56Z</time></trkpt><trkpt lat="44.90481970089374" lon="11.753790614831626"><ele>1.857142857142857</ele><time>2026-03-23T13:33:58Z</time></trkpt><trkpt lat="44.90476339136715" lon="11.753837022403054"><ele>1.5714285714285712</ele><time>2026-03-23T13:34:00Z</time></trkpt><trkpt lat="44.90469669743749" lon="11.753901527539279"><ele>1.2857142857142856</ele><time>2026-03-23T13:34:02Z</time></trkpt><trkpt lat="44.904636610233204" lon="11.75397456573453"><ele>1.0</ele><time>2026-03-23T13:34:04Z</time></trkpt><trkpt lat="44.90456441436596" lon="11.754030787510361"><ele>1.0</ele><time>2026-03-23T13:34:06Z</time></trkpt><trkpt lat="44.90447795550666" lon="11.754097715186061"><ele>1.0</ele><time>2026-03-23T13:34:08Z</time></trkpt><trkpt lat="44.90438528084272" lon="11.754155152105373"><ele>1.0</ele><time>2026-03-23T13:34:10Z</time></trkpt><trkpt lat="44.904291405248095" lon="11.754211061723742"><ele>1.0</ele><time>2026-03-23T13:34:12Z</time></trkpt><trkpt lat="44.9041947854386" lon="11.754256587661962"><ele>1.0</ele><time>2026-03-23T13:34:14Z</time></trkpt><trkpt lat="44.904097843641395" lon="11.754290161199828"><ele>1.0</ele><time>2026-03-23T13:34:15.999Z</time></trkpt><trkpt lat="44.90400461218647" lon="11.754340716288517"><ele>1.0</ele><time>2026-03-23T13:34:17.999Z</time></trkpt><trkpt lat="44.90390819428133" lon="11.754386392297945"><ele>1.0</ele><time>2026-03-23T13:34:19.999Z</time></trkpt><trkpt lat="44.90380964550145" lon="11.754421176997463"><ele>1.0</ele><time>2026-03-23T13:34:21.999Z</time></trkpt><trkpt lat="44.903713782791094" lon="11.75446395978016"><ele>1.0</ele><time>2026-03-23T13:34:23.999Z</time></trkpt><trkpt lat="44.90361819561875" lon="11.75452179353184"><ele>1.0</ele><time>2026-03-23T13:34:25.999Z</time></trkpt><trkpt lat="44.90352255982567" lon="11.754572619158814"><ele>1.0</ele><time>2026-03-23T13:34:27.999Z</time></trkpt><trkpt lat="44.90343213695135" lon="11.754640803919916"><ele>1.0</ele><time>2026-03-23T13:34:29.999Z</time></trkpt><trkpt lat="44.903355530283896" lon="11.754744363003315"><ele>1.0</ele><time>2026-03-23T13:34:31.999Z</time></trkpt><trkpt lat="44.903279097046735" lon="11.754826196022348"><ele>1.0</ele><time>2026-03-23T13:34:33.999Z</time></trkpt><trkpt lat="44.903192690419274" lon="11.754901491960434"><ele>1.2000000000000002</ele><time>2026-03-23T13:34:35.999Z</time></trkpt><trkpt lat="44.90311655114754" lon="11.7549810627687"><ele>1.4000000000000001</ele><time>2026-03-23T13:34:37.999Z</time></trkpt><trkpt lat="44.90304334646775" lon="11.755057514180082"><ele>1.6</ele><time>2026-03-23T13:34:39.999Z</time></trkpt><trkpt lat="44.90297642071496" lon="11.755137353777124"><ele>1.8</ele><time>2026-03-23T13:34:41.999Z</time></trkpt><trkpt lat="44.902912101290894" lon="11.755210811450807"><ele>2.0</ele><time>2026-03-23T13:34:43.999Z</time></trkpt><trkpt lat="44.90283131540111" lon="11.755286294366273"><ele>1.9999999999999998</ele><time>2026-03-23T13:34:45.999Z</time></trkpt><trkpt lat="44.90275276555428" lon="11.755347886242928"><ele>2.0</ele><time>2026-03-23T13:34:47.999Z</time></trkpt><trkpt lat="44.90267884572836" lon="11.755409018754579"><ele>2.0</ele><time>2026-03-23T13:34:49.999Z</time></trkpt><trkpt lat="44.9026078655933" lon="11.755463310137355"><ele>2.0</ele><time>2026-03-23T13:34:51.999Z</time></trkpt><trkpt lat="44.90253955220294" lon="11.755511406312765"><ele>1.9999999999999998</ele><time>2026-03-23T13:34:53.999Z</time></trkpt><trkpt lat="44.90247078325399" lon="11.755548348568214"><ele>2.0</ele><time>2026-03-23T13:34:55.999Z</time></trkpt><trkpt lat="44.90239475970015" lon="11.755575793145214"><ele>1.6</ele><time>2026-03-23T13:34:57.999Z</time></trkpt><trkpt lat="44.90230136266155" lon="11.75561710000126"><ele>1.2000000000000002</ele><time>2026-03-23T13:34:59.999Z</time></trkpt><trkpt lat="44.90220753791437" lon="11.755631370986647"><ele>0.8</ele><time>2026-03-23T13:35:01.999Z</time></trkpt><trkpt lat="44.90211668016279" lon="11.755649727022618"><ele>0.4</ele><time>2026-03-23T13:35:03.999Z</time></trkpt><trkpt lat="44.90202995741481" lon="11.755667402557743"><ele>0.0</ele><time>2026-03-23T13:35:05.999Z</time></trkpt><trkpt lat="44.90194375381324" lon="11.755676741402459"><ele>0.0</ele><time>2026-03-23T13:35:07.999Z</time></trkpt><trkpt lat="44.901860500742465" lon="11.755695929109695"><ele>0.0</ele><time>2026-03-23T13:35:09.999Z</time></trkpt><trkpt lat="44.90178099567842" lon="11.75570614981396"><ele>0.0</ele><time>2026-03-23T13:35:11.999Z</time></trkpt><trkpt lat="44.90170104337183" lon="11.755707945229984"><ele>0.0</ele><time>2026-03-23T13:35:13.999Z</time></trkpt><trkpt lat="44.90162580340714" lon="11.75571140462958"><ele>0.0</ele><time>2026-03-23T13:35:16Z</time></trkpt><trkpt lat="44.90154984807364" lon="11.755711160454467"><ele>0.0</ele><time>2026-03-23T13:35:18Z</time></trkpt><trkpt lat="44.901457091343744" lon="11.75573618690608"><ele>0.5</ele><time>2026-03-23T13:35:20Z</time></trkpt><trkpt lat="44.90136545841909" lon="11.755752733772933"><ele>1.0</ele><time>2026-03-23T13:35:22Z</time></trkpt><trkpt lat="44.90128102245549" lon="11.755783756166455"><ele>1.5</ele><time>2026-03-23T13:35:24Z</time></trkpt><trkpt lat="44.90119730646085" lon="11.755805874536629"><ele>2.0</ele><time>2026-03-23T13:35:26Z</time></trkpt><trkpt lat="44.901120319209866" lon="11.755835666047224"><ele>2.5</ele><time>2026-03-23T13:35:28Z</time></trkpt><trkpt lat="44.90105119999682" lon="11.755890567186874"><ele>3.0</ele><time>2026-03-23T13:35:30Z</time></trkpt><trkpt lat="44.90099317773177" lon="11.755950593304462"><ele>3.0</ele><time>2026-03-23T13:35:32Z</time></trkpt><trkpt lat="44.90093671259667" lon="11.75601557758321"><ele>3.0</ele><time>2026-03-23T13:35:34Z</time></trkpt><trkpt lat="44.90087457968483" lon="11.756064244433043"><ele>3.0</ele><time>2026-03-23T13:35:36Z</time></trkpt><trkpt lat="44.90080370801307" lon="11.756141682390725"><ele>3.0</ele><time>2026-03-23T13:35:38Z</time></trkpt><trkpt lat="44.900730241433465" lon="11.756205548304324"><ele>3.0</ele><time>2026-03-23T13:35:40Z</time></trkpt><trkpt lat="44.90066756802869" lon="11.756280934182582"><ele>3.0</ele><time>2026-03-23T13:35:42Z</time></trkpt><trkpt lat="44.900596931055325" lon="11.756339475671146"><ele>3.1666666666666665</ele><time>2026-03-23T13:35:44Z</time></trkpt><trkpt lat="44.900538215748966" lon="11.756405756080781"><ele>3.333333333333333</ele><time>2026-03-23T13:35:46Z</time></trkpt><trkpt lat="44.900480844301185" lon="11.756463587823957"><ele>3.5</ele><time>2026-03-23T13:35:48Z</time></trkpt><trkpt lat="44.900423526127355" lon="11.756516839326858"><ele>3.6666666666666665</ele><time>2026-03-23T13:35:50Z</time></trkpt><trkpt lat="44.900361508293635" lon="11.756582554309162"><ele>3.833333333333333</ele><time>2026-03-23T13:35:52Z</time></trkpt><trkpt lat="44.90028436922063" lon="11.756652723223821"><ele>4.0</ele><time>2026-03-23T13:35:54Z</time></trkpt><trkpt lat="44.90021381512277" lon="11.756715801785893"><ele>3.9999999999999996</ele><time>2026-03-23T13:35:56Z</time></trkpt><trkpt lat="44.900150032743" lon="11.75678524162125"><ele>4.0</ele><time>2026-03-23T13:35:58Z</time></trkpt><trkpt lat="44.90008731131416" lon="11.756845420316242"><ele>4.0</ele><time>2026-03-23T13:36:00Z</time></trkpt><trkpt lat="44.90002054528205" lon="11.75688615014316"><ele>4.0</ele><time>2026-03-23T13:36:02Z</time></trkpt><trkpt lat="44.899948961789384" lon="11.75693735407028"><ele>3.9999999999999996</ele><time>2026-03-23T13:36:04Z</time></trkpt><trkpt lat="44.89986514040021" lon="11.75700870842526"><ele>4.0</ele><time>2026-03-23T13:36:06Z</time></trkpt><trkpt lat="44.89977484365378" lon="11.757080483662339"><ele>3.8000000000000003</ele><time>2026-03-23T13:36:08Z</time></trkpt><trkpt lat="44.89967975267846" lon="11.757133590439816"><ele>3.6000000000000005</ele><time>2026-03-23T13:36:10Z</time></trkpt><trkpt lat="44.89959052667805" lon="11.75719070351587"><ele>3.4</ele><time>2026-03-23T13:36:12Z</time></trkpt><trkpt lat="44.899505693748985" lon="11.757250705628369"><ele>3.2</ele><time>2026-03-23T13:36:14Z</time></trkpt><trkpt lat="44.899418615223425" lon="11.757294084201424"><ele>3.0</ele><time>2026-03-23T13:36:16Z</time></trkpt><trkpt lat="44.89933742356666" lon="11.757353419730794"><ele>3.0</ele><time>2026-03-23T13:36:17.999Z</time></trkpt><trkpt lat="44.899255072036084" lon="11.757396409874188"><ele>3.0</ele><time>2026-03-23T13:36:19.999Z</time></trkpt><trkpt lat="44.89917997534618" lon="11.757453296079385"><ele>3.0</ele><time>2026-03-23T13:36:21.999Z</time></trkpt><trkpt lat="44.89910262476642" lon="11.757499520319957"><ele>3.0</ele><time>2026-03-23T13:36:23.999Z</time></trkpt><trkpt lat="44.89903193026182" lon="11.757546747897745"><ele>3.0</ele><time>2026-03-23T13:36:25.999Z</time></trkpt><trkpt lat="44.89896112420318" lon="11.75759000061507"><ele>3.0</ele><time>2026-03-23T13:36:27.999Z</time></trkpt><trkpt lat="44.898891274235716" lon="11.757610282765679"><ele>2.8333333333333335</ele><time>2026-03-23T13:36:29.999Z</time></trkpt><trkpt lat="44.898830436352874" lon="11.757650300295028"><ele>2.6666666666666665</ele><time>2026-03-23T13:36:31.999Z</time></trkpt><trkpt lat="44.89876279153557" lon="11.757682785312847"><ele>2.5</ele><time>2026-03-23T13:36:33.999Z</time></trkpt><trkpt lat="44.89867376909157" lon="11.757718574568605"><ele>2.333333333333333</ele><time>2026-03-23T13:36:35.999Z</time></trkpt><trkpt lat="44.89858934230257" lon="11.757739912782592"><ele>2.1666666666666665</ele><time>2026-03-23T13:36:37.999Z</time></trkpt><trkpt lat="44.89851246487502" lon="11.757778591195164"><ele>2.0</ele><time>2026-03-23T13:36:39.999Z</time></trkpt><trkpt lat="44.89843514357687" lon="11.757801064668422"><ele>1.8333333333333333</ele><time>2026-03-23T13:36:41.999Z</time></trkpt><trkpt lat="44.89836541433907" lon="11.75783453593379"><ele>1.6666666666666665</ele><time>2026-03-23T13:36:43.999Z</time></trkpt><trkpt lat="44.89829158562815" lon="11.757862366541959"><ele>1.5</ele><time>2026-03-23T13:36:45.999Z</time></trkpt><trkpt lat="44.8981988821237" lon="11.757889060150603"><ele>1.3333333333333333</ele><time>2026-03-23T13:36:47.999Z</time></trkpt><trkpt lat="44.898108889274624" lon="11.757939596145533"><ele>1.1666666666666665</ele><time>2026-03-23T13:36:49.999Z</time></trkpt><trkpt lat="44.89802484758993" lon="11.757991474028266"><ele>1.0</ele><time>2026-03-23T13:36:51.999Z</time></trkpt><trkpt lat="44.897948215417124" lon="11.758045284297172"><ele>0.9999999999999999</ele><time>2026-03-23T13:36:53.999Z</time></trkpt><trkpt lat="44.897882649444824" lon="11.758120656765916"><ele>1.0</ele><time>2026-03-23T13:36:55.999Z</time></trkpt><trkpt lat="44.89781864618072" lon="11.758183248184235"><ele>1.0</ele><time>2026-03-23T13:36:57.999Z</time></trkpt><trkpt lat="44.897761703435606" lon="11.758254233241212"><ele>1.0</ele><time>2026-03-23T13:36:59.999Z</time></trkpt><trkpt lat="44.89770072891463" lon="11.758331199027538"><ele>0.9999999999999999</ele><time>2026-03-23T13:37:01.999Z</time></trkpt><trkpt lat="44.897628910689114" lon="11.758418620558135"><ele>1.0</ele><time>2026-03-23T13:37:03.999Z</time></trkpt><trkpt lat="44.89755915440705" lon="11.7584947261896"><ele>1.1666666666666665</ele><time>2026-03-23T13:37:05.999Z</time></trkpt><trkpt lat="44.897497467529206" lon="11.758570872731994"><ele>1.3333333333333333</ele><time>2026-03-23T13:37:07.999Z</time></trkpt><trkpt lat="44.89742594836671" lon="11.758628733343947"><ele>1.5</ele><time>2026-03-23T13:37:09.999Z</time></trkpt><trkpt lat="44.8973657049967" lon="11.758698045986122"><ele>1.6666666666666665</ele><time>2026-03-23T13:37:11.999Z</time></trkpt><trkpt lat="44.89730965968444" lon="11.758765883896253"><ele>1.8333333333333333</ele><time>2026-03-23T13:37:13.999Z</time></trkpt><trkpt lat="44.89725045449962" lon="11.75882832703537"><ele>2.0</ele><time>2026-03-23T13:37:15.999Z</time></trkpt><trkpt lat="44.89717968389275" lon="11.758893013028933"><ele>2.0</ele><time>2026-03-23T13:37:17.999Z</time></trkpt><trkpt lat="44.89710945452051" lon="11.75895246478692"><ele>1.9999999999999998</ele><time>2026-03-23T13:37:19.999Z</time></trkpt><trkpt lat="44.89704493941224" lon="11.759019541837468"><ele>2.0</ele><time>2026-03-23T13:37:22Z</time></trkpt><trkpt lat="44.896982328153435" lon="11.75907545464725"><ele>2.0</ele><time>2026-03-23T13:37:24Z</time></trkpt><trkpt lat="44.89692689177983" lon="11.759142359345983"><ele>1.9999999999999998</ele><time>2026-03-23T13:37:26Z</time></trkpt><trkpt lat="44.89687295532894" lon="11.759192378733655"><ele>2.0</ele><time>2026-03-23T13:37:28Z</time></trkpt><trkpt lat="44.896825514598284" lon="11.759254044221281"><ele>2.0</ele><time>2026-03-23T13:37:30Z</time></trkpt><trkpt lat="44.89675341497345" lon="11.759330637576829"><ele>1.9999999999999998</ele><time>2026-03-23T13:37:33Z</time></trkpt><trkpt lat="44.896688012485235" lon="11.7594015711979"><ele>2.0</ele><time>2026-03-23T13:37:36Z</time></trkpt><trkpt lat="44.896627922494886" lon="11.759468271735317"><ele>2.0</ele><time>2026-03-23T13:37:39Z</time></trkpt><trkpt lat="44.89657843038075" lon="11.75953897639087"><ele>2.0</ele><time>2026-03-23T13:37:42Z</time></trkpt><trkpt lat="44.896520416857264" lon="11.75957790934875"><ele>1.9999999999999998</ele><time>2026-03-23T13:37:45Z</time></trkpt><trkpt lat="44.89643207275853" lon="11.759654697235112"><ele>2.0</ele><time>2026-03-23T13:42:18Z</time></trkpt><trkpt lat="44.89637317312227" lon="11.75972516371941"><ele>1.9999999999999998</ele><time>2026-03-23T13:42:22Z</time></trkpt><trkpt lat="44.89632154058732" lon="11.759781514649749"><ele>2.0</ele><time>2026-03-23T13:42:24Z</time></trkpt><trkpt lat="44.8962537347143" lon="11.759857772931362"><ele>2.0</ele><time>2026-03-23T13:42:27Z</time></trkpt><trkpt lat="44.89618819150726" lon="11.759931849408483"><ele>2.0</ele><time>2026-03-23T13:42:30Z</time></trkpt><trkpt lat="44.896125851881756" lon="11.760004944418"><ele>1.9999999999999998</ele><time>2026-03-23T13:42:33Z</time></trkpt><trkpt lat="44.896055383411245" lon="11.760071876018936"><ele>2.0</ele><time>2026-03-23T13:42:36Z</time></trkpt><trkpt lat="44.8959812994938" lon="11.760139329148418"><ele>1.8333333333333333</ele><time>2026-03-23T13:42:38Z</time></trkpt><trkpt lat="44.895903428657185" lon="11.760218098198976"><ele>1.6666666666666665</ele><time>2026-03-23T13:42:40Z</time></trkpt><trkpt lat="44.89583439257764" lon="11.76029442650766"><ele>1.5</ele><time>2026-03-23T13:42:42Z</time></trkpt><trkpt lat="44.8957691043678" lon="11.760369430441907"><ele>1.3333333333333333</ele><time>2026-03-23T13:42:44Z</time></trkpt><trkpt lat="44.89570830678236" lon="11.760441897850637"><ele>1.1666666666666665</ele><time>2026-03-23T13:42:46Z</time></trkpt><trkpt lat="44.89566124743927" lon="11.76052545086156"><ele>1.0</ele><time>2026-03-23T13:42:47.999Z</time></trkpt><trkpt lat="44.895618297229554" lon="11.76061732197886"><ele>1.0</ele><time>2026-03-23T13:42:49.999Z</time></trkpt><trkpt lat="44.89557953500592" lon="11.760719858896541"><ele>0.9999999999999999</ele><time>2026-03-23T13:42:51.999Z</time></trkpt><trkpt lat="44.89554530672986" lon="11.760812309421627"><ele>1.0</ele><time>2026-03-23T13:42:53.999Z</time></trkpt><trkpt lat="44.895520705492586" lon="11.760909916051405"><ele>1.0</ele><time>2026-03-23T13:42:55.999Z</time></trkpt><trkpt lat="44.895494332714684" lon="11.76099544466716"><ele>0.9999999999999999</ele><time>2026-03-23T13:42:57.999Z</time></trkpt><trkpt lat="44.89546998109201" lon="11.761081527941888"><ele>1.0</ele><time>2026-03-23T13:42:59.999Z</time></trkpt><trkpt lat="44.895445816071216" lon="11.76118342379954"><ele>1.0</ele><time>2026-03-23T13:43:01.999Z</time></trkpt><trkpt lat="44.89541282656874" lon="11.761310234040941"><ele>0.8333333333333333</ele><time>2026-03-23T13:43:03.999Z</time></trkpt><trkpt lat="44.89538070763204" lon="11.761435303118846"><ele>0.6666666666666666</ele><time>2026-03-23T13:43:05.999Z</time></trkpt><trkpt lat="44.89534896369011" lon="11.761552518254401"><ele>0.5</ele><time>2026-03-23T13:43:07.999Z</time></trkpt><trkpt lat="44.89531584324787" lon="11.761667155885588"><ele>0.3333333333333333</ele><time>2026-03-23T13:43:09.999Z</time></trkpt><trkpt lat="44.895287598359445" lon="11.761767243091642"><ele>0.16666666666666666</ele><time>2026-03-23T13:43:11.999Z</time></trkpt><trkpt lat="44.89526560277005" lon="11.761868587102974"><ele>0.0</ele><time>2026-03-23T13:43:13.999Z</time></trkpt><trkpt lat="44.89523180439474" lon="11.761971827370688"><ele>0.0</ele><time>2026-03-23T13:43:15.999Z</time></trkpt><trkpt lat="44.89519116476764" lon="11.762098380882458"><ele>0.0</ele><time>2026-03-23T13:43:17.999Z</time></trkpt><trkpt lat="44.89514175380105" lon="11.762211897425962"><ele>0.0</ele><time>2026-03-23T13:43:19.999Z</time></trkpt><trkpt lat="44.89508371995577" lon="11.76232601067578"><ele>0.0</ele><time>2026-03-23T13:43:21.999Z</time></trkpt><trkpt lat="44.89502578123174" lon="11.762439574892218"><ele>0.0</ele><time>2026-03-23T13:43:23.999Z</time></trkpt><trkpt lat="44.89496634923092" lon="11.76255423267244"><ele>0.0</ele><time>2026-03-23T13:43:25.999Z</time></trkpt><trkpt lat="44.8949039239621" lon="11.762666853277851"><ele>0.0</ele><time>2026-03-23T13:43:27.999Z</time></trkpt><trkpt lat="44.89484255633138" lon="11.762784982603323"><ele>0.0</ele><time>2026-03-23T13:43:29.999Z</time></trkpt><trkpt lat="44.89478486799564" lon="11.762897567587455"><ele>0.0</ele><time>2026-03-23T13:43:31.999Z</time></trkpt><trkpt lat="44.894722585663786" lon="11.76301028522852"><ele>0.0</ele><time>2026-03-23T13:43:33.999Z</time></trkpt><trkpt lat="44.89466414134265" lon="11.763125372866083"><ele>0.0</ele><time>2026-03-23T13:43:35.999Z</time></trkpt><trkpt lat="44.89460402694807" lon="11.763244177967142"><ele>0.0</ele><time>2026-03-23T13:43:37.999Z</time></trkpt><trkpt lat="44.894545341178166" lon="11.763359788586474"><ele>0.0</ele><time>2026-03-23T13:43:40Z</time></trkpt><trkpt lat="44.8944867234306" lon="11.76347635817484"><ele>0.0</ele><time>2026-03-23T13:43:42Z</time></trkpt><trkpt lat="44.89442932899966" lon="11.763589635895256"><ele>0.0</ele><time>2026-03-23T13:43:44Z</time></trkpt><trkpt lat="44.894371237272416" lon="11.763707012224053"><ele>0.2</ele><time>2026-03-23T13:43:46Z</time></trkpt><trkpt lat="44.89431417602764" lon="11.76382607515172"><ele>0.4</ele><time>2026-03-23T13:43:48Z</time></trkpt><trkpt lat="44.894256939784185" lon="11.76394412956286"><ele>0.6000000000000001</ele><time>2026-03-23T13:43:50Z</time></trkpt><trkpt lat="44.89420564352628" lon="11.764062425832497"><ele>0.8</ele><time>2026-03-23T13:43:52Z</time></trkpt><trkpt lat="44.894149351830116" lon="11.764178574829222"><ele>1.0</ele><time>2026-03-23T13:43:54Z</time></trkpt><trkpt lat="44.89408823825697" lon="11.764293895890928"><ele>1.0</ele><time>2026-03-23T13:43:56Z</time></trkpt><trkpt lat="44.89403800966892" lon="11.764414373851189"><ele>1.0</ele><time>2026-03-23T13:43:58Z</time></trkpt><trkpt lat="44.893983986953906" lon="11.76453427699237"><ele>1.0</ele><time>2026-03-23T13:44:00Z</time></trkpt><trkpt lat="44.893925665943506" lon="11.764653111285146"><ele>1.0</ele><time>2026-03-23T13:44:02Z</time></trkpt><trkpt lat="44.8938687772679" lon="11.764771507177981"><ele>1.0</ele><time>2026-03-23T13:44:04Z</time></trkpt><trkpt lat="44.89381161077423" lon="11.764893441833856"><ele>1.0</ele><time>2026-03-23T13:44:06Z</time></trkpt><trkpt lat="44.89375623698424" lon="11.765014324677168"><ele>1.0</ele><time>2026-03-23T13:44:08Z</time></trkpt><trkpt lat="44.89370096449731" lon="11.765134813356593"><ele>1.0</ele><time>2026-03-23T13:44:10Z</time></trkpt><trkpt lat="44.893644456195645" lon="11.765256464720885"><ele>1.0</ele><time>2026-03-23T13:44:12Z</time></trkpt><trkpt lat="44.89358567088161" lon="11.765376080272542"><ele>1.0</ele><time>2026-03-23T13:44:14Z</time></trkpt><trkpt lat="44.89352957191645" lon="11.765496784072312"><ele>1.0</ele><time>2026-03-23T13:44:16Z</time></trkpt><trkpt lat="44.89347223561726" lon="11.765614713608453"><ele>1.0</ele><time>2026-03-23T13:44:18Z</time></trkpt><trkpt lat="44.89341637104444" lon="11.765734555470667"><ele>1.0</ele><time>2026-03-23T13:44:20Z</time></trkpt><trkpt lat="44.89336169091197" lon="11.765851720434167"><ele>1.0</ele><time>2026-03-23T13:44:22Z</time></trkpt><trkpt lat="44.89330356199089" lon="11.765971161884444"><ele>1.0</ele><time>2026-03-23T13:44:24Z</time></trkpt><trkpt lat="44.89324776352729" lon="11.766089535678017"><ele>1.0</ele><time>2026-03-23T13:44:26Z</time></trkpt><trkpt lat="44.89319004585201" lon="11.76620524897182"><ele>1.0</ele><time>2026-03-23T13:44:28Z</time></trkpt><trkpt lat="44.89313476599714" lon="11.766328465975059"><ele>1.0</ele><time>2026-03-23T13:44:30Z</time></trkpt><trkpt lat="44.893080017396045" lon="11.766449824179718"><ele>1.0</ele><time>2026-03-23T13:44:32Z</time></trkpt><trkpt lat="44.89302255888656" lon="11.766565004180618"><ele>1.0</ele><time>2026-03-23T13:44:34Z</time></trkpt><trkpt lat="44.8929679712609" lon="11.766685151480754"><ele>1.0</ele><time>2026-03-23T13:44:36Z</time></trkpt><trkpt lat="44.892910740710285" lon="11.76680198520391"><ele>1.0</ele><time>2026-03-23T13:44:38Z</time></trkpt><trkpt lat="44.89286302917598" lon="11.766923546475521"><ele>1.0</ele><time>2026-03-23T13:44:40Z</time></trkpt><trkpt lat="44.89281643489124" lon="11.767035756019038"><ele>1.0</ele><time>2026-03-23T13:44:42Z</time></trkpt><trkpt lat="44.89278572133435" lon="11.767153825197965"><ele>1.0</ele><time>2026-03-23T13:44:43.999Z</time></trkpt><trkpt lat="44.89276877860878" lon="11.767277049915812"><ele>1.2000000000000002</ele><time>2026-03-23T13:44:45.999Z</time></trkpt><trkpt lat="44.89276615639646" lon="11.767399165843901"><ele>1.4000000000000001</ele><time>2026-03-23T13:44:47.999Z</time></trkpt><trkpt lat="44.89276825285505" lon="11.767535329876068"><ele>1.6</ele><time>2026-03-23T13:44:49.999Z</time></trkpt><trkpt lat="44.89277816802594" lon="11.767672562833418"><ele>1.8</ele><time>2026-03-23T13:44:51.999Z</time></trkpt><trkpt lat="44.892777170803896" lon="11.767807698005113"><ele>2.0</ele><time>2026-03-23T13:44:53.999Z</time></trkpt><trkpt lat="44.89277607243505" lon="11.767941018765024"><ele>2.0</ele><time>2026-03-23T13:44:55.999Z</time></trkpt><trkpt lat="44.8927871242582" lon="11.76807674127993"><ele>2.0</ele><time>2026-03-23T13:44:57.999Z</time></trkpt><trkpt lat="44.8928073366153" lon="11.768203713321249"><ele>2.0</ele><time>2026-03-23T13:44:59.999Z</time></trkpt><trkpt lat="44.892814560938184" lon="11.768339719258657"><ele>2.0</ele><time>2026-03-23T13:45:01.999Z</time></trkpt><trkpt lat="44.89281722683031" lon="11.768477550907543"><ele>2.0</ele><time>2026-03-23T13:45:03.999Z</time></trkpt><trkpt lat="44.892830851137774" lon="11.768618531989011"><ele>2.0</ele><time>2026-03-23T13:45:05.999Z</time></trkpt><trkpt lat="44.89283055451095" lon="11.768759209903276"><ele>2.0</ele><time>2026-03-23T13:45:07.999Z</time></trkpt><trkpt lat="44.89282823519975" lon="11.768904558059448"><ele>2.0</ele><time>2026-03-23T13:45:09.999Z</time></trkpt><trkpt lat="44.892822214864175" lon="11.769054112473606"><ele>2.0</ele><time>2026-03-23T13:45:11.999Z</time></trkpt><trkpt lat="44.89282229317002" lon="11.769195176622972"><ele>2.0</ele><time>2026-03-23T13:45:13.999Z</time></trkpt><trkpt lat="44.892813392362314" lon="11.769336011627047"><ele>2.0</ele><time>2026-03-23T13:45:15.999Z</time></trkpt><trkpt lat="44.892816306505225" lon="11.76946927834907"><ele>2.0</ele><time>2026-03-23T13:45:17.999Z</time></trkpt><trkpt lat="44.89282833947724" lon="11.769602798574722"><ele>2.0</ele><time>2026-03-23T13:45:19.999Z</time></trkpt><trkpt lat="44.89284818901393" lon="11.769718476723543"><ele>2.0</ele><time>2026-03-23T13:45:21.999Z</time></trkpt><trkpt lat="44.892877860426864" lon="11.76983377169369"><ele>2.0</ele><time>2026-03-23T13:45:23.999Z</time></trkpt><trkpt lat="44.89293074761606" lon="11.769935639147002"><ele>1.9999999999999998</ele><time>2026-03-23T13:45:25.999Z</time></trkpt><trkpt lat="44.892986011787976" lon="11.770025374225865"><ele>2.0</ele><time>2026-03-23T13:45:27.999Z</time></trkpt><trkpt lat="44.8930322323591" lon="11.770114032441633"><ele>2.0</ele><time>2026-03-23T13:45:29.999Z</time></trkpt><trkpt lat="44.89308137147823" lon="11.77019492882351"><ele>2.0</ele><time>2026-03-23T13:45:31.999Z</time></trkpt><trkpt lat="44.89311423941394" lon="11.770284715411492"><ele>1.9999999999999998</ele><time>2026-03-23T13:45:33.999Z</time></trkpt><trkpt lat="44.8931548970075" lon="11.770378428738846"><ele>2.0</ele><time>2026-03-23T13:45:35.999Z</time></trkpt><trkpt lat="44.89321036637581" lon="11.770489834128146"><ele>1.9999999999999998</ele><time>2026-03-23T13:45:37.999Z</time></trkpt><trkpt lat="44.8932634018143" lon="11.770589587993504"><ele>2.0</ele><time>2026-03-23T13:45:39.999Z</time></trkpt><trkpt lat="44.893309664201524" lon="11.770685710701875"><ele>2.0</ele><time>2026-03-23T13:45:41.999Z</time></trkpt><trkpt lat="44.893357463469016" lon="11.770770703427988"><ele>2.0</ele><time>2026-03-23T13:45:43.999Z</time></trkpt><trkpt lat="44.893407422226964" lon="11.770873008897725"><ele>1.9999999999999998</ele><time>2026-03-23T13:45:46Z</time></trkpt><trkpt lat="44.89346453590958" lon="11.77098755220245"><ele>2.0</ele><time>2026-03-23T13:45:48Z</time></trkpt><trkpt lat="44.89352572682472" lon="11.77110366057016"><ele>2.4000000000000004</ele><time>2026-03-23T13:45:50Z</time></trkpt><trkpt lat="44.89358393735227" lon="11.771213148123042"><ele>2.8000000000000003</ele><time>2026-03-23T13:45:52Z</time></trkpt><trkpt lat="44.893639922105514" lon="11.771318803030606"><ele>3.2</ele><time>2026-03-23T13:45:54Z</time></trkpt><trkpt lat="44.89369583038011" lon="11.77141719528433"><ele>3.6</ele><time>2026-03-23T13:45:56Z</time></trkpt><trkpt lat="44.893744737987234" lon="11.77151499024455"><ele>4.0</ele><time>2026-03-23T13:45:58Z</time></trkpt><trkpt lat="44.8937962401986" lon="11.77161778356143"><ele>3.9999999999999996</ele><time>2026-03-23T13:46:00Z</time></trkpt><trkpt lat="44.8938365671262" lon="11.771719690226478"><ele>4.0</ele><time>2026-03-23T13:46:02Z</time></trkpt><trkpt lat="44.89385048477204" lon="11.771830245543997"><ele>4.0</ele><time>2026-03-23T13:46:04Z</time></trkpt><trkpt lat="44.89383381221784" lon="11.771953848213945"><ele>4.0</ele><time>2026-03-23T13:46:06Z</time></trkpt><trkpt lat="44.893797754363646" lon="11.772083532741544"><ele>3.9999999999999996</ele><time>2026-03-23T13:46:08Z</time></trkpt><trkpt lat="44.89375423205704" lon="11.772199550771266"><ele>4.0</ele><time>2026-03-23T13:46:10Z</time></trkpt><trkpt lat="44.89372553977219" lon="11.772316625903303"><ele>3.9999999999999996</ele><time>2026-03-23T13:46:12Z</time></trkpt><trkpt lat="44.893698296494655" lon="11.772428383487158"><ele>4.0</ele><time>2026-03-23T13:46:14Z</time></trkpt><trkpt lat="44.893652489121486" lon="11.772506540435195"><ele>4.0</ele><time>2026-03-23T13:46:16Z</time></trkpt><trkpt lat="44.893622068811254" lon="11.772621517358019"><ele>4.0</ele><time>2026-03-23T13:46:48Z</time></trkpt><trkpt lat="44.89358881088809" lon="11.772708381098026"><ele>3.9999999999999996</ele><time>2026-03-23T13:46:50Z</time></trkpt><trkpt lat="44.89355814016028" lon="11.772824507562506"><ele>4.0</ele><time>2026-03-23T13:46:52Z</time></trkpt><trkpt lat="44.893523947182324" lon="11.77294936209156"><ele>3.9999999999999996</ele><time>2026-03-23T13:46:53.999Z</time></trkpt><trkpt lat="44.89348673608548" lon="11.773060768569344"><ele>4.0</ele><time>2026-03-23T13:46:55.999Z</time></trkpt><trkpt lat="44.89345400509689" lon="11.773170570756234"><ele>4.0</ele><time>2026-03-23T13:46:57.999Z</time></trkpt><trkpt lat="44.89341505918225" lon="11.77326089775795"><ele>4.0</ele><time>2026-03-23T13:46:59.999Z</time></trkpt><trkpt lat="44.8933432958808" lon="11.773324754530144"><ele>3.9999999999999996</ele><time>2026-03-23T13:47:02.999Z</time></trkpt><trkpt lat="44.89334254770526" lon="11.773441331983289"><ele>4.0</ele><time>2026-03-23T13:47:05.999Z</time></trkpt><trkpt lat="44.89342204343691" lon="11.77350981614581"><ele>3.833333333333333</ele><time>2026-03-23T13:47:07.999Z</time></trkpt><trkpt lat="44.893484856922626" lon="11.773577056372956"><ele>3.6666666666666665</ele><time>2026-03-23T13:47:09.999Z</time></trkpt><trkpt lat="44.893541843771665" lon="11.773648144643339"><ele>3.5</ele><time>2026-03-23T13:47:11.999Z</time></trkpt><trkpt lat="44.89359009982766" lon="11.773723840214462"><ele>3.333333333333333</ele><time>2026-03-23T13:47:13.999Z</time></trkpt><trkpt lat="44.89363090893502" lon="11.773808932739117"><ele>3.1666666666666665</ele><time>2026-03-23T13:47:15.999Z</time></trkpt><trkpt lat="44.893675584229356" lon="11.773892582522645"><ele>3.0</ele><time>2026-03-23T13:47:17.999Z</time></trkpt><trkpt lat="44.893728205776306" lon="11.773982860890387"><ele>3.0</ele><time>2026-03-23T13:47:19.999Z</time></trkpt><trkpt lat="44.89378055692261" lon="11.774076303469064"><ele>3.0</ele><time>2026-03-23T13:47:21.999Z</time></trkpt><trkpt lat="44.8938269586619" lon="11.774162211540188"><ele>3.0</ele><time>2026-03-23T13:47:23.999Z</time></trkpt><trkpt lat="44.89387924853965" lon="11.774265107631935"><ele>3.0</ele><time>2026-03-23T13:47:25.999Z</time></trkpt><trkpt lat="44.89392627392727" lon="11.77438346836065"><ele>3.0</ele><time>2026-03-23T13:47:27.999Z</time></trkpt><trkpt lat="44.893982546060755" lon="11.7744966117395"><ele>3.0</ele><time>2026-03-23T13:47:29.999Z</time></trkpt><trkpt lat="44.894028183907835" lon="11.774611972678423"><ele>3.4</ele><time>2026-03-23T13:47:31.999Z</time></trkpt><trkpt lat="44.894072363041666" lon="11.774717763773841"><ele>3.8</ele><time>2026-03-23T13:47:33.999Z</time></trkpt><trkpt lat="44.894116107511444" lon="11.77482143102295"><ele>4.2</ele><time>2026-03-23T13:47:35.999Z</time></trkpt><trkpt lat="44.894166174596194" lon="11.774919047982973"><ele>4.6</ele><time>2026-03-23T13:47:37.999Z</time></trkpt><trkpt lat="44.89421017960213" lon="11.775038628575926"><ele>5.0</ele><time>2026-03-23T13:47:39.999Z</time></trkpt><trkpt lat="44.89425339660704" lon="11.775166755697068"><ele>4.6</ele><time>2026-03-23T13:47:41.999Z</time></trkpt><trkpt lat="44.8942988838431" lon="11.77529979075132"><ele>4.2</ele><time>2026-03-23T13:47:43.999Z</time></trkpt><trkpt lat="44.894350234820756" lon="11.77542413613911"><ele>3.8</ele><time>2026-03-23T13:47:45.999Z</time></trkpt><trkpt lat="44.894392011823726" lon="11.77554793537314"><ele>3.4</ele><time>2026-03-23T13:47:47.999Z</time></trkpt><trkpt lat="44.894443812613524" lon="11.775675402194896"><ele>3.0</ele><time>2026-03-23T13:47:49.999Z</time></trkpt><trkpt lat="44.89449047590616" lon="11.775804579272354"><ele>3.0</ele><time>2026-03-23T13:47:52Z</time></trkpt><trkpt lat="44.89454118273132" lon="11.775928514137268"><ele>3.0</ele><time>2026-03-23T13:47:54Z</time></trkpt><trkpt lat="44.894584709063366" lon="11.776051503285151"><ele>3.0</ele><time>2026-03-23T13:47:56Z</time></trkpt><trkpt lat="44.894635253424475" lon="11.776176110642554"><ele>3.0</ele><time>2026-03-23T13:47:58Z</time></trkpt><trkpt lat="44.89468081306347" lon="11.776302795443717"><ele>3.0</ele><time>2026-03-23T13:48:00Z</time></trkpt><trkpt lat="44.89473194169142" lon="11.776418535075297"><ele>3.0</ele><time>2026-03-23T13:48:02Z</time></trkpt><trkpt lat="44.894776805433686" lon="11.776533111138015"><ele>3.0</ele><time>2026-03-23T13:48:04Z</time></trkpt><trkpt lat="44.89481901308438" lon="11.776647350766735"><ele>3.0</ele><time>2026-03-23T13:48:06Z</time></trkpt><trkpt lat="44.89486874669991" lon="11.776769071909111"><ele>3.0</ele><time>2026-03-23T13:48:08Z</time></trkpt><trkpt lat="44.89491688155226" lon="11.776896059834051"><ele>3.0</ele><time>2026-03-23T13:48:10Z</time></trkpt><trkpt lat="44.89496869338605" lon="11.777020706650049"><ele>3.0</ele><time>2026-03-23T13:48:12Z</time></trkpt><trkpt lat="44.8950167782393" lon="11.777146305587362"><ele>3.0</ele><time>2026-03-23T13:48:14Z</time></trkpt><trkpt lat="44.895071748750574" lon="11.777268501927235"><ele>3.0</ele><time>2026-03-23T13:48:16Z</time></trkpt><trkpt lat="44.89512288693063" lon="11.77739162791456"><ele>3.0</ele><time>2026-03-23T13:48:18Z</time></trkpt><trkpt lat="44.89518638001765" lon="11.777506617742022"><ele>3.0</ele><time>2026-03-23T13:48:20Z</time></trkpt><trkpt lat="44.8952638369185" lon="11.777597658508242"><ele>3.0</ele><time>2026-03-23T13:48:22Z</time></trkpt><trkpt lat="44.89534064486273" lon="11.777692316418811"><ele>3.0</ele><time>2026-03-23T13:48:24Z</time></trkpt><trkpt lat="44.89540160356938" lon="11.777799873623911"><ele>3.0</ele><time>2026-03-23T13:48:26Z</time></trkpt><trkpt lat="44.89547493607588" lon="11.77789484675797"><ele>3.0</ele><time>2026-03-23T13:48:28Z</time></trkpt><trkpt lat="44.89555012808725" lon="11.777992541385064"><ele>3.0</ele><time>2026-03-23T13:48:30Z</time></trkpt><trkpt lat="44.89561350229808" lon="11.778100140605812"><ele>3.0</ele><time>2026-03-23T13:48:32Z</time></trkpt><trkpt lat="44.89567835645403" lon="11.77821635377815"><ele>3.0</ele><time>2026-03-23T13:48:34Z</time></trkpt><trkpt lat="44.89572782500519" lon="11.77833955243912"><ele>3.0</ele><time>2026-03-23T13:48:36Z</time></trkpt><trkpt lat="44.89577736600899" lon="11.778463730077283"><ele>3.0</ele><time>2026-03-23T13:48:38Z</time></trkpt><trkpt lat="44.89579920133442" lon="11.778608685423265"><ele>3.0</ele><time>2026-03-23T13:48:40Z</time></trkpt><trkpt lat="44.8958050367724" lon="11.778755294132239"><ele>2.8</ele><time>2026-03-23T13:48:42Z</time></trkpt><trkpt lat="44.89579594477596" lon="11.778896354346143"><ele>2.5999999999999996</ele><time>2026-03-23T13:48:44Z</time></trkpt><trkpt lat="44.895779095827166" lon="11.77904250968798"><ele>2.4000000000000004</ele><time>2026-03-23T13:48:46Z</time></trkpt><trkpt lat="44.89576635158539" lon="11.77918675710779"><ele>2.2</ele><time>2026-03-23T13:48:48Z</time></trkpt><trkpt lat="44.89575354020944" lon="11.779336794837656"><ele>2.0</ele><time>2026-03-23T13:48:50Z</time></trkpt><trkpt lat="44.895743400687934" lon="11.779482513158309"><ele>2.0</ele><time>2026-03-23T13:48:52Z</time></trkpt><trkpt lat="44.89573811487994" lon="11.779629994305333"><ele>2.0</ele><time>2026-03-23T13:48:54Z</time></trkpt><trkpt lat="44.89572580543893" lon="11.779779668995221"><ele>2.0</ele><time>2026-03-23T13:48:56Z</time></trkpt><trkpt lat="44.89571616513875" lon="11.779928932709506"><ele>2.0</ele><time>2026-03-23T13:48:58Z</time></trkpt><trkpt lat="44.895707635195706" lon="11.780075015258658"><ele>2.0</ele><time>2026-03-23T13:49:00Z</time></trkpt><trkpt lat="44.895698707516274" lon="11.780222620332978"><ele>1.8</ele><time>2026-03-23T13:49:02Z</time></trkpt><trkpt lat="44.895693526861315" lon="11.780365632590748"><ele>1.6</ele><time>2026-03-23T13:49:04Z</time></trkpt><trkpt lat="44.89567831592334" lon="11.780506228452015"><ele>1.4000000000000001</ele><time>2026-03-23T13:49:05.999Z</time></trkpt><trkpt lat="44.895673868573816" lon="11.780649598219249"><ele>1.2000000000000002</ele><time>2026-03-23T13:49:07.999Z</time></trkpt><trkpt lat="44.895661096363824" lon="11.780794506933013"><ele>1.0</ele><time>2026-03-23T13:49:09.999Z</time></trkpt><trkpt lat="44.89564635741551" lon="11.780932556394283"><ele>1.4</ele><time>2026-03-23T13:49:11.999Z</time></trkpt><trkpt lat="44.89563625631861" lon="11.781075004472859"><ele>1.8</ele><time>2026-03-23T13:49:13.999Z</time></trkpt><trkpt lat="44.89563396217194" lon="11.78121785253463"><ele>2.1999999999999997</ele><time>2026-03-23T13:49:15.999Z</time></trkpt><trkpt lat="44.89562402539624" lon="11.781357372634341"><ele>2.6</ele><time>2026-03-23T13:49:17.999Z</time></trkpt><trkpt lat="44.89562858798349" lon="11.781491072512495"><ele>3.0</ele><time>2026-03-23T13:49:19.999Z</time></trkpt><trkpt lat="44.89565954921192" lon="11.781609811973524"><ele>3.0</ele><time>2026-03-23T13:49:21.999Z</time></trkpt><trkpt lat="44.89571382873335" lon="11.7816959632595"><ele>3.0</ele><time>2026-03-23T13:49:23.999Z</time></trkpt><trkpt lat="44.895767042011066" lon="11.781767961622979"><ele>3.0</ele><time>2026-03-23T13:49:25.999Z</time></trkpt><trkpt lat="44.89581444407677" lon="11.781843323734963"><ele>3.0</ele><time>2026-03-23T13:49:27.999Z</time></trkpt><trkpt lat="44.89587005395951" lon="11.781891051879347"><ele>3.0</ele><time>2026-03-23T13:49:29.999Z</time></trkpt><trkpt lat="44.8959241188234" lon="11.781938300967917"><ele>3.0</ele><time>2026-03-23T13:49:31.999Z</time></trkpt><trkpt lat="44.89600741854982" lon="11.782003409525123"><ele>2.8333333333333335</ele><time>2026-03-23T13:49:34.999Z</time></trkpt><trkpt lat="44.89608963551654" lon="11.782051652827818"><ele>2.6666666666666665</ele><time>2026-03-23T13:49:36.999Z</time></trkpt><trkpt lat="44.896166680857895" lon="11.782097362949843"><ele>2.5</ele><time>2026-03-23T13:49:38.999Z</time></trkpt><trkpt lat="44.8962336323726" lon="11.782131773118547"><ele>2.333333333333333</ele><time>2026-03-23T13:49:40.999Z</time></trkpt><trkpt lat="44.89630869839727" lon="11.782175417453859"><ele>2.1666666666666665</ele><time>2026-03-23T13:49:42.999Z</time></trkpt><trkpt lat="44.8963994055035" lon="11.782223149135374"><ele>2.0</ele><time>2026-03-23T13:49:44.999Z</time></trkpt><trkpt lat="44.8964894539592" lon="11.782271256422977"><ele>2.0</ele><time>2026-03-23T13:49:46.999Z</time></trkpt><trkpt lat="44.896578451804544" lon="11.782313932265039"><ele>2.0</ele><time>2026-03-23T13:49:48.999Z</time></trkpt><trkpt lat="44.89666102138858" lon="11.782358745963169"><ele>2.0</ele><time>2026-03-23T13:49:50.999Z</time></trkpt><trkpt lat="44.89675395132809" lon="11.782400997439828"><ele>2.0</ele><time>2026-03-23T13:49:52.999Z</time></trkpt><trkpt lat="44.896843674799186" lon="11.782443702652461"><ele>2.0</ele><time>2026-03-23T13:49:54.999Z</time></trkpt><trkpt lat="44.896936294902545" lon="11.78248895851716"><ele>1.8</ele><time>2026-03-23T13:49:57Z</time></trkpt><trkpt lat="44.89702760424734" lon="11.782534268623023"><ele>1.6</ele><time>2026-03-23T13:49:59Z</time></trkpt><trkpt lat="44.897119780128214" lon="11.782582409541336"><ele>1.4000000000000001</ele><time>2026-03-23T13:50:01Z</time></trkpt><trkpt lat="44.8972086332267" lon="11.782615306094893"><ele>1.2000000000000002</ele><time>2026-03-23T13:50:03Z</time></trkpt><trkpt lat="44.89728554164196" lon="11.782657975529977"><ele>1.0</ele><time>2026-03-23T13:50:05Z</time></trkpt><trkpt lat="44.897364492753404" lon="11.782692678547157"><ele>1.0</ele><time>2026-03-23T13:50:07Z</time></trkpt><trkpt lat="44.897440748515365" lon="11.782723306420756"><ele>1.0</ele><time>2026-03-23T13:50:09Z</time></trkpt><trkpt lat="44.89751685042723" lon="11.782762895313411"><ele>1.0</ele><time>2026-03-23T13:50:11Z</time></trkpt><trkpt lat="44.89760869051964" lon="11.782815725512831"><ele>1.0</ele><time>2026-03-23T13:50:13Z</time></trkpt><trkpt lat="44.89770233958484" lon="11.78286211050022"><ele>1.0</ele><time>2026-03-23T13:50:15Z</time></trkpt><trkpt lat="44.897798353287826" lon="11.782902612963337"><ele>1.0</ele><time>2026-03-23T13:50:17Z</time></trkpt><trkpt lat="44.89789486623901" lon="11.782942455045253"><ele>1.0</ele><time>2026-03-23T13:50:19Z</time></trkpt><trkpt lat="44.897988530869775" lon="11.782988434266267"><ele>1.0</ele><time>2026-03-23T13:50:21Z</time></trkpt><trkpt lat="44.898072626738525" lon="11.783030243068374"><ele>1.0</ele><time>2026-03-23T13:50:23Z</time></trkpt><trkpt lat="44.89815532947964" lon="11.783054692381132"><ele>1.0</ele><time>2026-03-23T13:50:25Z</time></trkpt><trkpt lat="44.89822492526972" lon="11.783110531872946"><ele>0.9999999999999999</ele><time>2026-03-23T13:50:27Z</time></trkpt><trkpt lat="44.8982937442197" lon="11.783141224134985"><ele>1.0</ele><time>2026-03-23T13:50:29Z</time></trkpt><trkpt lat="44.89835358268421" lon="11.783190643642838"><ele>1.0</ele><time>2026-03-23T13:50:31Z</time></trkpt><trkpt lat="44.89841317710363" lon="11.783223683782134"><ele>1.0</ele><time>2026-03-23T13:50:33Z</time></trkpt><trkpt lat="44.898489179879704" lon="11.783278680393394"><ele>0.9999999999999999</ele><time>2026-03-23T13:50:36Z</time></trkpt><trkpt lat="44.898581756149824" lon="11.783335597047877"><ele>1.0</ele><time>2026-03-23T13:50:39Z</time></trkpt><trkpt lat="44.89864983057791" lon="11.783377031035686"><ele>1.1666666666666665</ele><time>2026-03-23T13:50:41Z</time></trkpt><trkpt lat="44.898703731315" lon="11.783426383344388"><ele>1.3333333333333333</ele><time>2026-03-23T13:50:43Z</time></trkpt><trkpt lat="44.89878248596276" lon="11.783478649000015"><ele>1.5</ele><time>2026-03-23T13:50:46Z</time></trkpt><trkpt lat="44.89883918396971" lon="11.783523303923902"><ele>1.6666666666666665</ele><time>2026-03-23T13:50:48Z</time></trkpt><trkpt lat="44.89891870050191" lon="11.783586346614735"><ele>1.8333333333333333</ele><time>2026-03-23T13:50:50Z</time></trkpt><trkpt lat="44.89899540721636" lon="11.783632552598204"><ele>2.0</ele><time>2026-03-23T13:50:52Z</time></trkpt><trkpt lat="44.89905345675188" lon="11.783700641369064"><ele>2.0</ele><time>2026-03-23T13:50:54Z</time></trkpt><trkpt lat="44.89911788289777" lon="11.783745736310797"><ele>1.9999999999999998</ele><time>2026-03-23T13:50:56Z</time></trkpt><trkpt lat="44.899168904406814" lon="11.783809336746184"><ele>2.0</ele><time>2026-03-23T13:50:58Z</time></trkpt><trkpt lat="44.89921973110828" lon="11.783866179340135"><ele>2.0</ele><time>2026-03-23T13:51:00Z</time></trkpt><trkpt lat="44.899277050044475" lon="11.783924017194103"><ele>1.9999999999999998</ele><time>2026-03-23T13:51:02Z</time></trkpt><trkpt lat="44.89934593141618" lon="11.783982439012561"><ele>2.0</ele><time>2026-03-23T13:51:04Z</time></trkpt><trkpt lat="44.89940631404439" lon="11.784035321197953"><ele>2.0</ele><time>2026-03-23T13:51:06Z</time></trkpt><trkpt lat="44.89946021248199" lon="11.78409612134452"><ele>1.9999999999999998</ele><time>2026-03-23T13:51:08Z</time></trkpt><trkpt lat="44.899518635217746" lon="11.78414858717204"><ele>2.0</ele><time>2026-03-23T13:51:10Z</time></trkpt><trkpt lat="44.899590705545485" lon="11.784195248189773"><ele>2.0</ele><time>2026-03-23T13:51:12Z</time></trkpt><trkpt lat="44.899651034155305" lon="11.784257882003898"><ele>2.0</ele><time>2026-03-23T13:51:14Z</time></trkpt><trkpt lat="44.89971083552781" lon="11.784303419772503"><ele>1.9999999999999998</ele><time>2026-03-23T13:51:16Z</time></trkpt><trkpt lat="44.89979350012084" lon="11.78436173459595"><ele>2.0</ele><time>2026-03-23T13:51:19Z</time></trkpt><trkpt lat="44.89988340452943" lon="11.784427194349657"><ele>1.9999999999999998</ele><time>2026-03-23T13:51:22Z</time></trkpt><trkpt lat="44.8999419964267" lon="11.784471309944353"><ele>2.0</ele><time>2026-03-23T13:51:24Z</time></trkpt><trkpt lat="44.89998382503861" lon="11.784539748683416"><ele>2.0</ele><time>2026-03-23T13:51:26Z</time></trkpt><trkpt lat="44.89999847422719" lon="11.784630577010613"><ele>2.0</ele><time>2026-03-23T13:51:28Z</time></trkpt><trkpt lat="44.89995617640787" lon="11.78474321759644"><ele>1.9999999999999998</ele><time>2026-03-23T13:51:31Z</time></trkpt><trkpt lat="44.89992256371079" lon="11.784853212204508"><ele>2.0</ele><time>2026-03-23T13:51:33.999Z</time></trkpt><trkpt lat="44.899887287833124" lon="11.784969296781435"><ele>1.9999999999999998</ele><time>2026-03-23T13:51:36.999Z</time></trkpt><trkpt lat="44.89984712925113" lon="11.785083657160962"><ele>2.0</ele><time>2026-03-23T13:51:38.999Z</time></trkpt><trkpt lat="44.89981493282622" lon="11.785186156938492"><ele>2.0</ele><time>2026-03-23T13:51:40.999Z</time></trkpt><trkpt lat="44.89977847005153" lon="11.785283256602463"><ele>2.0</ele><time>2026-03-23T13:51:42.999Z</time></trkpt><trkpt lat="44.89974897480732" lon="11.78537828790827"><ele>1.9999999999999998</ele><time>2026-03-23T13:51:44.999Z</time></trkpt><trkpt lat="44.89971949433965" lon="11.785467868835338"><ele>2.0</ele><time>2026-03-23T13:51:46.999Z</time></trkpt><trkpt lat="44.89969011292215" lon="11.785570550618958"><ele>1.8333333333333333</ele><time>2026-03-23T13:51:48.999Z</time></trkpt><trkpt lat="44.899652377128916" lon="11.785686276624336"><ele>1.6666666666666665</ele><time>2026-03-23T13:51:50.999Z</time></trkpt><trkpt lat="44.89961460192847" lon="11.785790248835394"><ele>1.5</ele><time>2026-03-23T13:51:52.999Z</time></trkpt><trkpt lat="44.899582763579375" lon="11.785895208175871"><ele>1.3333333333333333</ele><time>2026-03-23T13:51:54.999Z</time></trkpt><trkpt lat="44.89954694735571" lon="11.785988572756107"><ele>1.1666666666666665</ele><time>2026-03-23T13:51:56.999Z</time></trkpt><trkpt lat="44.899520467244635" lon="11.78608813647417"><ele>1.0</ele><time>2026-03-23T13:51:58.999Z</time></trkpt><trkpt lat="44.89948396620889" lon="11.786182593064966"><ele>0.9999999999999999</ele><time>2026-03-23T13:52:00.999Z</time></trkpt><trkpt lat="44.89944800543808" lon="11.786305657024602"><ele>1.0</ele><time>2026-03-23T13:52:03Z</time></trkpt><trkpt lat="44.89940700508044" lon="11.786422279824029"><ele>1.0</ele><time>2026-03-23T13:52:05Z</time></trkpt><trkpt lat="44.899370776432704" lon="11.786535976701279"><ele>1.0</ele><time>2026-03-23T13:52:07Z</time></trkpt><trkpt lat="44.89933352713321" lon="11.786648178408914"><ele>0.9999999999999999</ele><time>2026-03-23T13:52:09Z</time></trkpt><trkpt lat="44.89929523203366" lon="11.78675437021921"><ele>1.0</ele><time>2026-03-23T13:52:11Z</time></trkpt><trkpt lat="44.899262870210045" lon="11.78685696707134"><ele>0.8333333333333333</ele><time>2026-03-23T13:52:13Z</time></trkpt><trkpt lat="44.899231374110116" lon="11.786957416548276"><ele>0.6666666666666666</ele><time>2026-03-23T13:52:15Z</time></trkpt><trkpt lat="44.899192719450106" lon="11.787068562194712"><ele>0.5</ele><time>2026-03-23T13:52:17Z</time></trkpt><trkpt lat="44.89915704217297" lon="11.78718790723704"><ele>0.3333333333333333</ele><time>2026-03-23T13:52:19Z</time></trkpt><trkpt lat="44.89911680470512" lon="11.787294596694329"><ele>0.16666666666666666</ele><time>2026-03-23T13:52:21Z</time></trkpt><trkpt lat="44.89908253930996" lon="11.78739623481317"><ele>0.0</ele><time>2026-03-23T13:52:23Z</time></trkpt><trkpt lat="44.89905236729991" lon="11.787495953645385"><ele>0.0</ele><time>2026-03-23T13:52:25Z</time></trkpt><trkpt lat="44.89901401458073" lon="11.787593972470772"><ele>0.0</ele><time>2026-03-23T13:52:27Z</time></trkpt><trkpt lat="44.89897510566085" lon="11.78770815007909"><ele>0.0</ele><time>2026-03-23T13:52:29Z</time></trkpt><trkpt lat="44.89893102188748" lon="11.787830677792366"><ele>0.0</ele><time>2026-03-23T13:52:31Z</time></trkpt><trkpt lat="44.89889687450294" lon="11.787941441500879"><ele>0.0</ele><time>2026-03-23T13:52:33Z</time></trkpt><trkpt lat="44.89885718272239" lon="11.78805028001424"><ele>0.0</ele><time>2026-03-23T13:52:35Z</time></trkpt><trkpt lat="44.89885002045002" lon="11.788162138412728"><ele>0.3333333333333333</ele><time>2026-03-23T13:52:37Z</time></trkpt><trkpt lat="44.89888241634075" lon="11.788264092086612"><ele>0.6666666666666666</ele><time>2026-03-23T13:52:39Z</time></trkpt><trkpt lat="44.89892570789137" lon="11.788346911262774"><ele>1.0</ele><time>2026-03-23T13:52:41Z</time></trkpt><trkpt lat="44.89897951040777" lon="11.788429667888671"><ele>1.3333333333333333</ele><time>2026-03-23T13:52:43Z</time></trkpt><trkpt lat="44.89904673600277" lon="11.788528784628554"><ele>1.6666666666666665</ele><time>2026-03-23T13:52:45Z</time></trkpt><trkpt lat="44.89911578381556" lon="11.788604723386555"><ele>2.0</ele><time>2026-03-23T13:52:47Z</time></trkpt><trkpt lat="44.89918667307024" lon="11.788672059804396"><ele>1.8333333333333333</ele><time>2026-03-23T13:52:49Z</time></trkpt><trkpt lat="44.899259117824826" lon="11.788729286063258"><ele>1.6666666666666665</ele><time>2026-03-23T13:52:51Z</time></trkpt><trkpt lat="44.89932465152079" lon="11.788774655932505"><ele>1.5</ele><time>2026-03-23T13:52:53Z</time></trkpt><trkpt lat="44.89938850990739" lon="11.788820178024043"><ele>1.3333333333333333</ele><time>2026-03-23T13:52:55Z</time></trkpt><trkpt lat="44.89947134588927" lon="11.788866710036581"><ele>1.1666666666666665</ele><time>2026-03-23T13:52:57Z</time></trkpt><trkpt lat="44.89955221802604" lon="11.788909473489024"><ele>1.0</ele><time>2026-03-23T13:52:59Z</time></trkpt><trkpt lat="44.89962711418926" lon="11.78893984678505"><ele>1.0</ele><time>2026-03-23T13:53:01Z</time></trkpt><trkpt lat="44.8996924951807" lon="11.788977038831735"><ele>0.9999999999999999</ele><time>2026-03-23T13:53:03Z</time></trkpt><trkpt lat="44.8997573008081" lon="11.788997006059073"><ele>1.0</ele><time>2026-03-23T13:53:05Z</time></trkpt><trkpt lat="44.89983244488962" lon="11.789041237596589"><ele>1.0</ele><time>2026-03-23T13:53:07Z</time></trkpt><trkpt lat="44.89990820147333" lon="11.78907541628815"><ele>0.9999999999999999</ele><time>2026-03-23T13:53:09Z</time></trkpt><trkpt lat="44.89996846211727" lon="11.789112936333698"><ele>1.0</ele><time>2026-03-23T13:53:11Z</time></trkpt><trkpt lat="44.90004062667815" lon="11.789140846579462"><ele>1.0</ele><time>2026-03-23T13:53:13Z</time></trkpt><trkpt lat="44.900128781305014" lon="11.789181579781049"><ele>1.0</ele><time>2026-03-23T13:53:15Z</time></trkpt><trkpt lat="44.90021902990093" lon="11.789231521196859"><ele>1.0</ele><time>2026-03-23T13:53:17Z</time></trkpt><trkpt lat="44.90031141067315" lon="11.789280930258235"><ele>1.0</ele><time>2026-03-23T13:53:19Z</time></trkpt><trkpt lat="44.90040524928942" lon="11.789328906812505"><ele>1.0</ele><time>2026-03-23T13:53:21Z</time></trkpt><trkpt lat="44.90049959329258" lon="11.789382599834664"><ele>1.0</ele><time>2026-03-23T13:53:23Z</time></trkpt><trkpt lat="44.900591272840906" lon="11.78943138478433"><ele>1.0</ele><time>2026-03-23T13:53:25Z</time></trkpt><trkpt lat="44.900681710081265" lon="11.789486351390245"><ele>1.0</ele><time>2026-03-23T13:53:27Z</time></trkpt><trkpt lat="44.90076381841047" lon="11.789550556646699"><ele>1.0</ele><time>2026-03-23T13:53:29Z</time></trkpt><trkpt lat="44.90085248981573" lon="11.78962076632707"><ele>1.0</ele><time>2026-03-23T13:53:31Z</time></trkpt><trkpt lat="44.9009300229017" lon="11.789705514170766"><ele>1.0</ele><time>2026-03-23T13:53:33Z</time></trkpt><trkpt lat="44.90100818502672" lon="11.78979244335151"><ele>1.0</ele><time>2026-03-23T13:53:35Z</time></trkpt><trkpt lat="44.901082229981974" lon="11.789886551001292"><ele>1.0</ele><time>2026-03-23T13:53:37Z</time></trkpt><trkpt lat="44.901153128227975" lon="11.789983590527081"><ele>1.0</ele><time>2026-03-23T13:53:39Z</time></trkpt><trkpt lat="44.90122550341003" lon="11.790080008794677"><ele>1.0</ele><time>2026-03-23T13:53:41Z</time></trkpt><trkpt lat="44.90130005971616" lon="11.790180557397457"><ele>1.0</ele><time>2026-03-23T13:53:43Z</time></trkpt><trkpt lat="44.90136211860138" lon="11.790290526473617"><ele>1.2000000000000002</ele><time>2026-03-23T13:53:45Z</time></trkpt><trkpt lat="44.90141846434311" lon="11.790406924923325"><ele>1.4000000000000001</ele><time>2026-03-23T13:53:46.999Z</time></trkpt><trkpt lat="44.90147112093836" lon="11.790519402861467"><ele>1.6</ele><time>2026-03-23T13:53:48.999Z</time></trkpt><trkpt lat="44.90150953757566" lon="11.790637056394576"><ele>1.8</ele><time>2026-03-23T13:53:50.999Z</time></trkpt><trkpt lat="44.90152630480691" lon="11.790768762357107"><ele>2.0</ele><time>2026-03-23T13:53:52.999Z</time></trkpt><trkpt lat="44.90154335153214" lon="11.790907140917762"><ele>1.8</ele><time>2026-03-23T13:53:54.999Z</time></trkpt><trkpt lat="44.90155744549885" lon="11.791034546676876"><ele>1.6</ele><time>2026-03-23T13:53:56.999Z</time></trkpt><trkpt lat="44.901570424404184" lon="11.791170192241045"><ele>1.4000000000000001</ele><time>2026-03-23T13:53:58.999Z</time></trkpt><trkpt lat="44.90158018761525" lon="11.791303162755934"><ele>1.2000000000000002</ele><time>2026-03-23T13:54:00.999Z</time></trkpt><trkpt lat="44.90161188781982" lon="11.791423302653872"><ele>1.0</ele><time>2026-03-23T13:54:02.999Z</time></trkpt><trkpt lat="44.901640431995716" lon="11.79153770090404"><ele>0.9999999999999999</ele><time>2026-03-23T13:54:04.999Z</time></trkpt><trkpt lat="44.90168695373023" lon="11.791643804256623"><ele>1.0</ele><time>2026-03-23T13:54:06.999Z</time></trkpt><trkpt lat="44.90172444490333" lon="11.791743097991572"><ele>1.0</ele><time>2026-03-23T13:54:09Z</time></trkpt><trkpt lat="44.9017679109821" lon="11.791831502596716"><ele>1.0</ele><time>2026-03-23T13:54:11Z</time></trkpt><trkpt lat="44.90181037290581" lon="11.791911217282072"><ele>0.9999999999999999</ele><time>2026-03-23T13:54:13Z</time></trkpt><trkpt lat="44.90184797892015" lon="11.791988753590239"><ele>1.0</ele><time>2026-03-23T13:54:15Z</time></trkpt><trkpt lat="44.90191330870885" lon="11.79209167895173"><ele>1.1666666666666665</ele><time>2026-03-23T13:54:18Z</time></trkpt><trkpt lat="44.901956790603705" lon="11.792165973790299"><ele>1.3333333333333333</ele><time>2026-03-23T13:54:20Z</time></trkpt><trkpt lat="44.90201450964689" lon="11.79226404521807"><ele>1.5</ele><time>2026-03-23T13:54:23Z</time></trkpt><trkpt lat="44.90206601566099" lon="11.792355467617744"><ele>1.6666666666666665</ele><time>2026-03-23T13:54:26Z</time></trkpt><trkpt lat="44.902115885741026" lon="11.792432833474429"><ele>1.8333333333333333</ele><time>2026-03-23T13:54:28Z</time></trkpt><trkpt lat="44.90217247924943" lon="11.792527479067104"><ele>2.0</ele><time>2026-03-23T13:54:30Z</time></trkpt><trkpt lat="44.90221920820615" lon="11.792608572944586"><ele>2.0</ele><time>2026-03-23T13:54:32Z</time></trkpt><trkpt lat="44.90225394278953" lon="11.792696578136532"><ele>1.9999999999999998</ele><time>2026-03-23T13:54:34Z</time></trkpt><trkpt lat="44.90229507241532" lon="11.79276996283373"><ele>2.0</ele><time>2026-03-23T13:54:36Z</time></trkpt><trkpt lat="44.90233208375365" lon="11.792858074693635"><ele>2.0</ele><time>2026-03-23T13:54:38Z</time></trkpt><trkpt lat="44.90237540867603" lon="11.792949914019097"><ele>1.9999999999999998</ele><time>2026-03-23T13:54:40Z</time></trkpt><trkpt lat="44.90240305530333" lon="11.793039807479614"><ele>2.0</ele><time>2026-03-23T13:54:42Z</time></trkpt><trkpt lat="44.902434144615896" lon="11.79312504490673"><ele>2.0</ele><time>2026-03-23T13:54:44Z</time></trkpt><trkpt lat="44.90245966000394" lon="11.793209258298766"><ele>1.9999999999999998</ele><time>2026-03-23T13:54:46Z</time></trkpt><trkpt lat="44.9024968387771" lon="11.793317196840617"><ele>2.0</ele><time>2026-03-23T13:54:48Z</time></trkpt><trkpt lat="44.902536677127024" lon="11.793432919328207"><ele>2.0</ele><time>2026-03-23T13:54:50Z</time></trkpt><trkpt lat="44.90258334651474" lon="11.793531618507046"><ele>2.0</ele><time>2026-03-23T13:54:52Z</time></trkpt><trkpt lat="44.90262706074872" lon="11.793621089257588"><ele>1.9999999999999998</ele><time>2026-03-23T13:54:54Z</time></trkpt><trkpt lat="44.90267175600144" lon="11.793701491864248"><ele>2.0</ele><time>2026-03-23T13:54:56Z</time></trkpt><trkpt lat="44.90272749240011" lon="11.793784813896142"><ele>1.8</ele><time>2026-03-23T13:54:58Z</time></trkpt><trkpt lat="44.902791020310666" lon="11.793885006774309"><ele>1.6</ele><time>2026-03-23T13:55:00Z</time></trkpt><trkpt lat="44.90285993184868" lon="11.793987008505466"><ele>1.4000000000000001</ele><time>2026-03-23T13:55:02Z</time></trkpt><trkpt lat="44.90292484022321" lon="11.794098294151569"><ele>1.2000000000000002</ele><time>2026-03-23T13:55:04Z</time></trkpt><trkpt lat="44.90298830876808" lon="11.794197558128916"><ele>1.0</ele><time>2026-03-23T13:55:06Z</time></trkpt><trkpt lat="44.90304889297956" lon="11.794291162594789"><ele>0.8</ele><time>2026-03-23T13:55:08Z</time></trkpt><trkpt lat="44.90309689517363" lon="11.794391051280794"><ele>0.6000000000000001</ele><time>2026-03-23T13:55:10Z</time></trkpt><trkpt lat="44.90314393276934" lon="11.794509814863531"><ele>0.4</ele><time>2026-03-23T13:55:12Z</time></trkpt><trkpt lat="44.90319107584683" lon="11.794636980241727"><ele>0.2</ele><time>2026-03-23T13:55:14Z</time></trkpt><trkpt lat="44.90323487892312" lon="11.794765209282662"><ele>0.0</ele><time>2026-03-23T13:55:16Z</time></trkpt><trkpt lat="44.9032819932586" lon="11.794888794157265"><ele>0.0</ele><time>2026-03-23T13:55:18Z</time></trkpt><trkpt lat="44.903305963203316" lon="11.795016136648803"><ele>0.0</ele><time>2026-03-23T13:55:20Z</time></trkpt><trkpt lat="44.903335295169235" lon="11.795134447875059"><ele>0.0</ele><time>2026-03-23T13:55:22Z</time></trkpt><trkpt lat="44.9033583362592" lon="11.795253996721591"><ele>0.0</ele><time>2026-03-23T13:55:24Z</time></trkpt><trkpt lat="44.90337585233825" lon="11.795392694181476"><ele>0.0</ele><time>2026-03-23T13:55:26Z</time></trkpt><trkpt lat="44.90338679145413" lon="11.795523269817831"><ele>0.16666666666666666</ele><time>2026-03-23T13:55:28Z</time></trkpt><trkpt lat="44.903386887188205" lon="11.795646073491524"><ele>0.3333333333333333</ele><time>2026-03-23T13:55:30Z</time></trkpt><trkpt lat="44.90337540005804" lon="11.795769417056388"><ele>0.5</ele><time>2026-03-23T13:55:32Z</time></trkpt><trkpt lat="44.90336123425413" lon="11.795902876385856"><ele>0.6666666666666666</ele><time>2026-03-23T13:55:34Z</time></trkpt><trkpt lat="44.90333633166606" lon="11.796025173503027"><ele>0.8333333333333333</ele><time>2026-03-23T13:55:36Z</time></trkpt><trkpt lat="44.90331757163798" lon="11.79613952697752"><ele>1.0</ele><time>2026-03-23T13:55:38Z</time></trkpt><trkpt lat="44.90330577954949" lon="11.796255168538124"><ele>1.0</ele><time>2026-03-23T13:55:40Z</time></trkpt><trkpt lat="44.90328359124176" lon="11.796362607788923"><ele>0.9999999999999999</ele><time>2026-03-23T13:55:42Z</time></trkpt><trkpt lat="44.90327899362956" lon="11.796463462867269"><ele>1.0</ele><time>2026-03-23T13:55:44Z</time></trkpt><trkpt lat="44.903283677767476" lon="11.79655276243426"><ele>1.0</ele><time>2026-03-23T13:55:46Z</time></trkpt><trkpt lat="44.90331683396449" lon="11.796655720705399"><ele>0.9999999999999999</ele><time>2026-03-23T13:55:48.999Z</time></trkpt><trkpt lat="44.903366601818064" lon="11.79671016151677"><ele>1.0</ele><time>2026-03-23T13:55:50.999Z</time></trkpt><trkpt lat="44.903415955338005" lon="11.796770617695303"><ele>1.0</ele><time>2026-03-23T13:55:53.999Z</time></trkpt><trkpt lat="44.9034691332889" lon="11.79683654745659"><ele>1.0</ele><time>2026-03-23T13:55:57.999Z</time></trkpt><trkpt lat="44.90342322163955" lon="11.79690156495311"><ele>0.9999999999999999</ele><time>2026-03-23T13:56:02.999Z</time></trkpt><trkpt lat="44.90340620568698" lon="11.797007409236997"><ele>1.0</ele><time>2026-03-23T13:56:07.999Z</time></trkpt><trkpt lat="44.90339417716979" lon="11.797094750336562"><ele>1.0</ele><time>2026-03-23T13:56:11.999Z</time></trkpt><trkpt lat="44.903372042586746" lon="11.797180375144467"><ele>0.9999999999999999</ele><time>2026-03-23T13:56:15Z</time></trkpt><trkpt lat="44.90335688139725" lon="11.797298505061933"><ele>1.0</ele><time>2026-03-23T13:56:19Z</time></trkpt><trkpt lat="44.903340674412505" lon="11.797403317395062"><ele>1.0</ele><time>2026-03-23T13:56:22Z</time></trkpt><trkpt lat="44.90332254009827" lon="11.797514163821797"><ele>1.0</ele><time>2026-03-23T13:56:26Z</time></trkpt><trkpt lat="44.903320694214635" lon="11.797420548007311"><ele>0.9999999999999999</ele><time>2026-03-23T14:18:14Z</time></trkpt><trkpt lat="44.90333614153672" lon="11.797328033222172"><ele>1.0</ele><time>2026-03-23T14:18:22Z</time></trkpt><trkpt lat="44.90334298088177" lon="11.797238252952043"><ele>1.0</ele><time>2026-03-23T14:18:31.999Z</time></trkpt><trkpt lat="44.903355258675155" lon="11.797141052699722"><ele>0.9999999999999999</ele><time>2026-03-23T14:18:44.999Z</time></trkpt><trkpt lat="44.90334382576458" lon="11.797049450105657"><ele>1.0</ele><time>2026-03-23T14:18:52.999Z</time></trkpt><trkpt lat="44.90336716711584" lon="11.796956821244686"><ele>1.0</ele><time>2026-03-23T14:19:04.999Z</time></trkpt><trkpt lat="44.903434466224" lon="11.796956471125153"><ele>0.9999999999999999</ele><time>2026-03-23T14:21:54Z</time></trkpt><trkpt lat="44.90342486587696" lon="11.796865554491127"><ele>1.0</ele><time>2026-03-23T14:22:04Z</time></trkpt><trkpt lat="44.90340768179303" lon="11.796779600583033"><ele>1.0</ele><time>2026-03-23T14:22:34Z</time></trkpt><trkpt lat="44.90333911725318" lon="11.79673727571761"><ele>1.0</ele><time>2026-03-23T14:22:37.999Z</time></trkpt><trkpt lat="44.90327913711506" lon="11.79669396978804"><ele>0.9999999999999999</ele><time>2026-03-23T14:22:40.999Z</time></trkpt><trkpt lat="44.90319982901523" lon="11.796647403525828"><ele>1.0</ele><time>2026-03-23T14:22:44.999Z</time></trkpt><trkpt lat="44.903102205659266" lon="11.796673259953977"><ele>1.1666666666666665</ele><time>2026-03-23T14:22:47.999Z</time></trkpt><trkpt lat="44.90302568889939" lon="11.796697715595855"><ele>1.3333333333333333</ele><time>2026-03-23T14:22:49.999Z</time></trkpt><trkpt lat="44.90296126203961" lon="11.796734168699212"><ele>1.5</ele><time>2026-03-23T14:22:51.999Z</time></trkpt><trkpt lat="44.90289675699058" lon="11.79675889095079"><ele>1.6666666666666665</ele><time>2026-03-23T14:22:53.999Z</time></trkpt><trkpt lat="44.90280836576488" lon="11.796800258000143"><ele>1.8333333333333333</ele><time>2026-03-23T14:22:56.999Z</time></trkpt><trkpt lat="44.902744993137475" lon="11.796826492809428"><ele>2.0</ele><time>2026-03-23T14:22:58.999Z</time></trkpt><trkpt lat="44.90265852628318" lon="11.796858230631253"><ele>1.9999999999999998</ele><time>2026-03-23T14:23:00.999Z</time></trkpt><trkpt lat="44.902568242954246" lon="11.796880098818384"><ele>2.0</ele><time>2026-03-23T14:23:02.999Z</time></trkpt><trkpt lat="44.90248666557068" lon="11.796879094930237"><ele>2.0</ele><time>2026-03-23T14:23:04.999Z</time></trkpt><trkpt lat="44.902404847320376" lon="11.796875504470055"><ele>2.0</ele><time>2026-03-23T14:23:06.999Z</time></trkpt><trkpt lat="44.90232523291904" lon="11.796850355041055"><ele>1.9999999999999998</ele><time>2026-03-23T14:23:08.999Z</time></trkpt><trkpt lat="44.90225509258045" lon="11.796826874967346"><ele>2.0</ele><time>2026-03-23T14:23:10.999Z</time></trkpt><trkpt lat="44.90218924860688" lon="11.796793399959926"><ele>2.2</ele><time>2026-03-23T14:23:12.999Z</time></trkpt><trkpt lat="44.902132534949935" lon="11.796748791157952"><ele>2.4000000000000004</ele><time>2026-03-23T14:23:14.999Z</time></trkpt><trkpt lat="44.902060127192016" lon="11.796718653241614"><ele>2.5999999999999996</ele><time>2026-03-23T14:23:16.999Z</time></trkpt><trkpt lat="44.9019621801782" lon="11.796674490280207"><ele>2.8</ele><time>2026-03-23T14:23:18.999Z</time></trkpt><trkpt lat="44.90186825892308" lon="11.796612056630162"><ele>3.0</ele><time>2026-03-23T14:23:20.999Z</time></trkpt><trkpt lat="44.90177287998343" lon="11.796554503808053"><ele>3.0</ele><time>2026-03-23T14:23:22.999Z</time></trkpt><trkpt lat="44.90167997710109" lon="11.796506898922939"><ele>3.0</ele><time>2026-03-23T14:23:24.999Z</time></trkpt><trkpt lat="44.901598803853936" lon="11.796462521201668"><ele>3.0</ele><time>2026-03-23T14:23:26.999Z</time></trkpt><trkpt lat="44.901521285520886" lon="11.796416434159092"><ele>3.0</ele><time>2026-03-23T14:23:28.999Z</time></trkpt><trkpt lat="44.90143921000699" lon="11.796373383905129"><ele>3.0</ele><time>2026-03-23T14:23:30.999Z</time></trkpt><trkpt lat="44.9013468671501" lon="11.796313472138449"><ele>3.0</ele><time>2026-03-23T14:23:33Z</time></trkpt><trkpt lat="44.90125831528958" lon="11.796239313981276"><ele>3.0</ele><time>2026-03-23T14:23:35Z</time></trkpt><trkpt lat="44.901174416991864" lon="11.796152206913114"><ele>3.0</ele><time>2026-03-23T14:23:37Z</time></trkpt><trkpt lat="44.90110016719077" lon="11.796060094969562"><ele>3.0</ele><time>2026-03-23T14:23:39Z</time></trkpt><trkpt lat="44.901035515795755" lon="11.795962799923764"><ele>3.0</ele><time>2026-03-23T14:23:41Z</time></trkpt><trkpt lat="44.90097444199556" lon="11.795863658878563"><ele>2.6666666666666665</ele><time>2026-03-23T14:23:43Z</time></trkpt><trkpt lat="44.90091961363545" lon="11.79576695997065"><ele>2.3333333333333335</ele><time>2026-03-23T14:23:45Z</time></trkpt><trkpt lat="44.900866776471915" lon="11.795674550008055"><ele>2.0</ele><time>2026-03-23T14:23:47Z</time></trkpt><trkpt lat="44.900817801685236" lon="11.7955861203348"><ele>1.6666666666666665</ele><time>2026-03-23T14:23:49Z</time></trkpt><trkpt lat="44.900775588505795" lon="11.795506686415903"><ele>1.3333333333333333</ele><time>2026-03-23T14:23:51Z</time></trkpt><trkpt lat="44.90073375890397" lon="11.795428356790566"><ele>1.0</ele><time>2026-03-23T14:23:53Z</time></trkpt><trkpt lat="44.90067722866638" lon="11.79532242430915"><ele>1.0</ele><time>2026-03-23T14:23:55Z</time></trkpt><trkpt lat="44.90062425492455" lon="11.79521503783175"><ele>1.0</ele><time>2026-03-23T14:23:57Z</time></trkpt><trkpt lat="44.90056721480188" lon="11.795123291501113"><ele>1.0</ele><time>2026-03-23T14:23:59Z</time></trkpt><trkpt lat="44.90051183875146" lon="11.795023956416141"><ele>1.0</ele><time>2026-03-23T14:24:01Z</time></trkpt><trkpt lat="44.900463075764236" lon="11.794900945880292"><ele>1.0</ele><time>2026-03-23T14:24:03Z</time></trkpt><trkpt lat="44.900418331868025" lon="11.794774420247625"><ele>1.0</ele><time>2026-03-23T14:24:05Z</time></trkpt><trkpt lat="44.900365913100124" lon="11.794660661711674"><ele>1.0</ele><time>2026-03-23T14:24:07Z</time></trkpt><trkpt lat="44.90030344951513" lon="11.794554669663778"><ele>1.0</ele><time>2026-03-23T14:24:09Z</time></trkpt><trkpt lat="44.900249265231864" lon="11.794458909708315"><ele>1.0</ele><time>2026-03-23T14:24:11Z</time></trkpt><trkpt lat="44.90018756462214" lon="11.794357470049269"><ele>1.0</ele><time>2026-03-23T14:24:13Z</time></trkpt><trkpt lat="44.90011320697279" lon="11.79426923777071"><ele>1.2000000000000002</ele><time>2026-03-23T14:24:15Z</time></trkpt><trkpt lat="44.900032023934706" lon="11.79418731278682"><ele>1.4000000000000001</ele><time>2026-03-23T14:24:17Z</time></trkpt><trkpt lat="44.89995278828285" lon="11.79411051411874"><ele>1.6</ele><time>2026-03-23T14:24:19Z</time></trkpt><trkpt lat="44.89986313134513" lon="11.794040749295688"><ele>1.8</ele><time>2026-03-23T14:24:21Z</time></trkpt><trkpt lat="44.8997745485387" lon="11.79397156274591"><ele>2.0</ele><time>2026-03-23T14:24:23Z</time></trkpt><trkpt lat="44.89968642112242" lon="11.79390025411843"><ele>2.0</ele><time>2026-03-23T14:24:25Z</time></trkpt><trkpt lat="44.89960199442412" lon="11.79381621221964"><ele>2.0</ele><time>2026-03-23T14:24:27Z</time></trkpt><trkpt lat="44.89952293401053" lon="11.793731775811983"><ele>2.0</ele><time>2026-03-23T14:24:29Z</time></trkpt><trkpt lat="44.89943404647888" lon="11.793659973839308"><ele>2.0</ele><time>2026-03-23T14:24:31Z</time></trkpt><trkpt lat="44.899351404274945" lon="11.793578507681195"><ele>2.0</ele><time>2026-03-23T14:24:33Z</time></trkpt><trkpt lat="44.8992672673697" lon="11.793503697560523"><ele>2.0</ele><time>2026-03-23T14:24:35Z</time></trkpt><trkpt lat="44.899184658049066" lon="11.793426907083681"><ele>2.0</ele><time>2026-03-23T14:24:37Z</time></trkpt><trkpt lat="44.899091532391694" lon="11.793364685784452"><ele>2.0</ele><time>2026-03-23T14:24:38.999Z</time></trkpt><trkpt lat="44.89899943342906" lon="11.793300877246468"><ele>2.0</ele><time>2026-03-23T14:24:40.999Z</time></trkpt><trkpt lat="44.89890438627396" lon="11.79324336096274"><ele>2.0</ele><time>2026-03-23T14:24:42.999Z</time></trkpt><trkpt lat="44.898814792167286" lon="11.79318381366724"><ele>2.0</ele><time>2026-03-23T14:24:44.999Z</time></trkpt><trkpt lat="44.898731098497066" lon="11.793112318522386"><ele>2.0</ele><time>2026-03-23T14:24:46.999Z</time></trkpt><trkpt lat="44.89864627041319" lon="11.793051850182067"><ele>2.0</ele><time>2026-03-23T14:24:48.999Z</time></trkpt><trkpt lat="44.89856816870689" lon="11.792995577210526"><ele>2.0</ele><time>2026-03-23T14:24:50.999Z</time></trkpt><trkpt lat="44.89848741908186" lon="11.792937792305771"><ele>2.0</ele><time>2026-03-23T14:24:52.999Z</time></trkpt><trkpt lat="44.89839730108928" lon="11.792876031567603"><ele>1.8333333333333333</ele><time>2026-03-23T14:24:54.999Z</time></trkpt><trkpt lat="44.89831354678797" lon="11.792839115195864"><ele>1.6666666666666665</ele><time>2026-03-23T14:24:56.999Z</time></trkpt><trkpt lat="44.89823442480014" lon="11.792790954747291"><ele>1.5</ele><time>2026-03-23T14:24:58.999Z</time></trkpt><trkpt lat="44.89816282638477" lon="11.792755913527788"><ele>1.3333333333333333</ele><time>2026-03-23T14:25:00.999Z</time></trkpt><trkpt lat="44.89809680865965" lon="11.792723093967211"><ele>1.1666666666666665</ele><time>2026-03-23T14:25:02.999Z</time></trkpt><trkpt lat="44.89802163585753" lon="11.7926871490449"><ele>1.0</ele><time>2026-03-23T14:25:04.999Z</time></trkpt><trkpt lat="44.897933243835915" lon="11.79264496225879"><ele>0.8</ele><time>2026-03-23T14:25:06.999Z</time></trkpt><trkpt lat="44.89784229851366" lon="11.792612940147386"><ele>0.6000000000000001</ele><time>2026-03-23T14:25:08.999Z</time></trkpt><trkpt lat="44.89774946219242" lon="11.792582022073052"><ele>0.4</ele><time>2026-03-23T14:25:10.999Z</time></trkpt><trkpt lat="44.897654469594265" lon="11.79255714597713"><ele>0.2</ele><time>2026-03-23T14:25:12.999Z</time></trkpt><trkpt lat="44.8975537976697" lon="11.79254134935915"><ele>0.0</ele><time>2026-03-23T14:25:14.999Z</time></trkpt><trkpt lat="44.89745545544763" lon="11.792527432628901"><ele>0.0</ele><time>2026-03-23T14:25:16.999Z</time></trkpt><trkpt lat="44.897357380077146" lon="11.792517350926923"><ele>0.0</ele><time>2026-03-23T14:25:18.999Z</time></trkpt><trkpt lat="44.897263469528625" lon="11.792502408849106"><ele>0.0</ele><time>2026-03-23T14:25:20.999Z</time></trkpt><trkpt lat="44.897166179926856" lon="11.792503404805371"><ele>0.0</ele><time>2026-03-23T14:25:22.999Z</time></trkpt><trkpt lat="44.89706806014379" lon="11.792499932878494"><ele>0.0</ele><time>2026-03-23T14:25:24.999Z</time></trkpt><trkpt lat="44.89696940140062" lon="11.792500967570072"><ele>0.0</ele><time>2026-03-23T14:25:26.999Z</time></trkpt><trkpt lat="44.89686616303844" lon="11.792506735209326"><ele>0.0</ele><time>2026-03-23T14:25:28.999Z</time></trkpt><trkpt lat="44.89676392809396" lon="11.79247724755367"><ele>0.0</ele><time>2026-03-23T14:25:30.999Z</time></trkpt><trkpt lat="44.89667110615628" lon="11.792478249681384"><ele>0.0</ele><time>2026-03-23T14:25:32.999Z</time></trkpt><trkpt lat="44.896574325276646" lon="11.79247929454877"><ele>0.0</ele><time>2026-03-23T14:25:34.999Z</time></trkpt><trkpt lat="44.896477471108135" lon="11.792480340207383"><ele>0.2</ele><time>2026-03-23T14:25:36.999Z</time></trkpt><trkpt lat="44.896385070365874" lon="11.792479209295651"><ele>0.4</ele><time>2026-03-23T14:25:39Z</time></trkpt><trkpt lat="44.896294922076784" lon="11.792477047658718"><ele>0.6000000000000001</ele><time>2026-03-23T14:25:41Z</time></trkpt><trkpt lat="44.896209974470075" lon="11.792474898489377"><ele>0.8</ele><time>2026-03-23T14:25:43Z</time></trkpt><trkpt lat="44.89611347297689" lon="11.792471631705146"><ele>1.0</ele><time>2026-03-23T14:25:45Z</time></trkpt><trkpt lat="44.89601302606978" lon="11.792468231361994"><ele>1.2000000000000002</ele><time>2026-03-23T14:25:47Z</time></trkpt><trkpt lat="44.89591592124117" lon="11.792487283331448"><ele>1.4000000000000001</ele><time>2026-03-23T14:25:49Z</time></trkpt><trkpt lat="44.89581366163436" lon="11.792483257314487"><ele>1.6</ele><time>2026-03-23T14:25:51Z</time></trkpt><trkpt lat="44.89571716062188" lon="11.79248001301736"><ele>1.8</ele><time>2026-03-23T14:25:53Z</time></trkpt><trkpt lat="44.89561788355651" lon="11.792474188267244"><ele>2.0</ele><time>2026-03-23T14:25:55Z</time></trkpt><trkpt lat="44.89551574003196" lon="11.792467952163427"><ele>2.0</ele><time>2026-03-23T14:25:57Z</time></trkpt><trkpt lat="44.89540806507283" lon="11.792462231056742"><ele>2.0</ele><time>2026-03-23T14:25:59Z</time></trkpt><trkpt lat="44.89530480152899" lon="11.792476654591583"><ele>2.0</ele><time>2026-03-23T14:26:01Z</time></trkpt><trkpt lat="44.89520359361115" lon="11.792505174124974"><ele>2.0</ele><time>2026-03-23T14:26:03Z</time></trkpt><trkpt lat="44.89511063807833" lon="11.792534616407496"><ele>2.0</ele><time>2026-03-23T14:26:05Z</time></trkpt><trkpt lat="44.89502083367632" lon="11.79256473943588"><ele>1.9999999999999998</ele><time>2026-03-23T14:26:07Z</time></trkpt><trkpt lat="44.89493635515291" lon="11.792596320789647"><ele>2.0</ele><time>2026-03-23T14:26:09Z</time></trkpt><trkpt lat="44.89485403674947" lon="11.792627094629866"><ele>2.0</ele><time>2026-03-23T14:26:11Z</time></trkpt><trkpt lat="44.89477822034414" lon="11.792677671359133"><ele>2.0</ele><time>2026-03-23T14:26:13Z</time></trkpt><trkpt lat="44.89469338864732" lon="11.792712196741665"><ele>1.9999999999999998</ele><time>2026-03-23T14:26:15Z</time></trkpt><trkpt lat="44.894594808185786" lon="11.792744336539608"><ele>2.0</ele><time>2026-03-23T14:26:17Z</time></trkpt><trkpt lat="44.894506056069545" lon="11.79280028608093"><ele>2.0</ele><time>2026-03-23T14:26:19Z</time></trkpt><trkpt lat="44.89442568005536" lon="11.79287838577457"><ele>2.0</ele><time>2026-03-23T14:26:21Z</time></trkpt><trkpt lat="44.89433988836244" lon="11.792944483607808"><ele>2.0</ele><time>2026-03-23T14:26:23Z</time></trkpt><trkpt lat="44.894275492548495" lon="11.793054925191758"><ele>2.0</ele><time>2026-03-23T14:26:25Z</time></trkpt><trkpt lat="44.89419118262503" lon="11.793136945417158"><ele>2.0</ele><time>2026-03-23T14:26:27Z</time></trkpt><trkpt lat="44.894133032988805" lon="11.793256544744285"><ele>2.0</ele><time>2026-03-23T14:26:29Z</time></trkpt><trkpt lat="44.89407237291334" lon="11.7933745433008"><ele>2.0</ele><time>2026-03-23T14:26:31Z</time></trkpt><trkpt lat="44.89401959902564" lon="11.79349874308008"><ele>2.0</ele><time>2026-03-23T14:26:33Z</time></trkpt><trkpt lat="44.89396695821555" lon="11.793619341326355"><ele>2.0</ele><time>2026-03-23T14:26:35Z</time></trkpt><trkpt lat="44.893903575145245" lon="11.79372814214523"><ele>2.0</ele><time>2026-03-23T14:26:37Z</time></trkpt><trkpt lat="44.89386397745984" lon="11.79386002263994"><ele>2.0</ele><time>2026-03-23T14:26:39Z</time></trkpt><trkpt lat="44.89381343417805" lon="11.793975375869827"><ele>2.0</ele><time>2026-03-23T14:26:41Z</time></trkpt><trkpt lat="44.89376120594316" lon="11.79408059607039"><ele>2.0</ele><time>2026-03-23T14:26:43Z</time></trkpt><trkpt lat="44.893696719674736" lon="11.794166979254783"><ele>2.0</ele><time>2026-03-23T14:26:45Z</time></trkpt><trkpt lat="44.89363319501926" lon="11.794249105460368"><ele>2.0</ele><time>2026-03-23T14:26:47Z</time></trkpt><trkpt lat="44.89354444930699" lon="11.79430131571552"><ele>2.0</ele><time>2026-03-23T14:26:49Z</time></trkpt><trkpt lat="44.89345445087443" lon="11.794358790619484"><ele>2.0</ele><time>2026-03-23T14:26:51Z</time></trkpt><trkpt lat="44.89336340450459" lon="11.794405345814093"><ele>2.0</ele><time>2026-03-23T14:26:53Z</time></trkpt><trkpt lat="44.89326864378274" lon="11.79444338395679"><ele>2.0</ele><time>2026-03-23T14:26:55Z</time></trkpt><trkpt lat="44.893173178503304" lon="11.794473529557608"><ele>2.0</ele><time>2026-03-23T14:26:57Z</time></trkpt><trkpt lat="44.89307463930208" lon="11.794502787347133"><ele>2.0</ele><time>2026-03-23T14:26:59Z</time></trkpt><trkpt lat="44.892972090092776" lon="11.794532017582782"><ele>2.0</ele><time>2026-03-23T14:27:01Z</time></trkpt><trkpt lat="44.892872959435394" lon="11.794560271534563"><ele>2.0</ele><time>2026-03-23T14:27:03Z</time></trkpt><trkpt lat="44.89277451158654" lon="11.79458966555616"><ele>2.0</ele><time>2026-03-23T14:27:05Z</time></trkpt><trkpt lat="44.892677042709344" lon="11.794621859350665"><ele>2.0</ele><time>2026-03-23T14:27:07Z</time></trkpt><trkpt lat="44.8925939435427" lon="11.79465183464344"><ele>2.1666666666666665</ele><time>2026-03-23T14:27:09Z</time></trkpt><trkpt lat="44.89250653108785" lon="11.794687041525295"><ele>2.333333333333333</ele><time>2026-03-23T14:27:11Z</time></trkpt><trkpt lat="44.892435861075704" lon="11.794715921089336"><ele>2.5</ele><time>2026-03-23T14:27:13Z</time></trkpt><trkpt lat="44.89236052745831" lon="11.794751508372174"><ele>2.6666666666666665</ele><time>2026-03-23T14:27:15Z</time></trkpt><trkpt lat="44.89228839992019" lon="11.794799416996325"><ele>2.8333333333333335</ele><time>2026-03-23T14:27:17Z</time></trkpt><trkpt lat="44.89224333095628" lon="11.79488485019027"><ele>3.0</ele><time>2026-03-23T14:27:19Z</time></trkpt><trkpt lat="44.89224118462112" lon="11.795017085242323"><ele>3.0</ele><time>2026-03-23T14:27:21Z</time></trkpt><trkpt lat="44.89224923775855" lon="11.795130755287824"><ele>3.0</ele><time>2026-03-23T14:27:22.999Z</time></trkpt><trkpt lat="44.89228263633862" lon="11.795217635123322"><ele>3.0</ele><time>2026-03-23T14:27:24.999Z</time></trkpt><trkpt lat="44.89230181322396" lon="11.795306399706835"><ele>3.0</ele><time>2026-03-23T14:27:26.999Z</time></trkpt><trkpt lat="44.89233525608271" lon="11.795382390589328"><ele>3.0</ele><time>2026-03-23T14:27:28.999Z</time></trkpt><trkpt lat="44.89237573565146" lon="11.795480420398343"><ele>3.0</ele><time>2026-03-23T14:27:30.999Z</time></trkpt><trkpt lat="44.89242512647754" lon="11.795587675049006"><ele>3.0</ele><time>2026-03-23T14:27:32.999Z</time></trkpt><trkpt lat="44.89247597131045" lon="11.795678429109188"><ele>3.0</ele><time>2026-03-23T14:27:34.999Z</time></trkpt><trkpt lat="44.89252709068755" lon="11.795765516985707"><ele>3.0</ele><time>2026-03-23T14:27:36.999Z</time></trkpt><trkpt lat="44.89258509640616" lon="11.795861928568073"><ele>3.0</ele><time>2026-03-23T14:27:38.999Z</time></trkpt><trkpt lat="44.892652316903956" lon="11.795963062895508"><ele>3.0</ele><time>2026-03-23T14:27:40.999Z</time></trkpt><trkpt lat="44.89271882591765" lon="11.796066135207466"><ele>3.0</ele><time>2026-03-23T14:27:42.999Z</time></trkpt><trkpt lat="44.89278885929249" lon="11.796161799272397"><ele>2.8333333333333335</ele><time>2026-03-23T14:27:45Z</time></trkpt><trkpt lat="44.892848239917896" lon="11.796245716619342"><ele>2.6666666666666665</ele><time>2026-03-23T14:27:47Z</time></trkpt><trkpt lat="44.89290677327458" lon="11.796329449612578"><ele>2.5</ele><time>2026-03-23T14:27:49Z</time></trkpt><trkpt lat="44.89296493488253" lon="11.796410367150632"><ele>2.333333333333333</ele><time>2026-03-23T14:27:51Z</time></trkpt><trkpt lat="44.89302379136757" lon="11.796485612656584"><ele>2.1666666666666665</ele><time>2026-03-23T14:27:53Z</time></trkpt><trkpt lat="44.893080166126076" lon="11.796564075206224"><ele>2.0</ele><time>2026-03-23T14:27:55Z</time></trkpt><trkpt lat="44.89313841313566" lon="11.796649992922115"><ele>1.9999999999999998</ele><time>2026-03-23T14:27:57Z</time></trkpt><trkpt lat="44.893196625790765" lon="11.796740248468272"><ele>2.0</ele><time>2026-03-23T14:27:59Z</time></trkpt><trkpt lat="44.8932567809349" lon="11.796829787153555"><ele>2.0</ele><time>2026-03-23T14:28:01Z</time></trkpt><trkpt lat="44.8933102287589" lon="11.796910514829317"><ele>2.0</ele><time>2026-03-23T14:28:03Z</time></trkpt><trkpt lat="44.89334857045645" lon="11.796999955553154"><ele>1.9999999999999998</ele><time>2026-03-23T14:28:05Z</time></trkpt><trkpt lat="44.89338469590381" lon="11.797085088705481"><ele>2.0</ele><time>2026-03-23T14:28:07Z</time></trkpt><trkpt lat="44.89342644373523" lon="11.797174420319369"><ele>1.9999999999999998</ele><time>2026-03-23T14:28:09Z</time></trkpt><trkpt lat="44.89345831623301" lon="11.797297329334485"><ele>2.0</ele><time>2026-03-23T14:28:11Z</time></trkpt><trkpt lat="44.89348558928378" lon="11.797412396833506"><ele>2.0</ele><time>2026-03-23T14:28:13Z</time></trkpt><trkpt lat="44.89351204065757" lon="11.797516372357213"><ele>2.0</ele><time>2026-03-23T14:28:15Z</time></trkpt><trkpt lat="44.89353134660417" lon="11.797620843311897"><ele>1.9999999999999998</ele><time>2026-03-23T14:28:17Z</time></trkpt><trkpt lat="44.89355264355697" lon="11.797715208185528"><ele>2.0</ele><time>2026-03-23T14:28:19Z</time></trkpt><trkpt lat="44.89357597468147" lon="11.79781467641148"><ele>1.8333333333333333</ele><time>2026-03-23T14:28:21Z</time></trkpt><trkpt lat="44.89358866563606" lon="11.797940617179572"><ele>1.6666666666666665</ele><time>2026-03-23T14:28:23Z</time></trkpt><trkpt lat="44.89360710011256" lon="11.798058193198456"><ele>1.5</ele><time>2026-03-23T14:28:25Z</time></trkpt><trkpt lat="44.89362358887014" lon="11.798167317400038"><ele>1.3333333333333333</ele><time>2026-03-23T14:28:27Z</time></trkpt><trkpt lat="44.893638548685495" lon="11.798271618561875"><ele>1.1666666666666665</ele><time>2026-03-23T14:28:29Z</time></trkpt><trkpt lat="44.89364696155571" lon="11.798376366540964"><ele>1.0</ele><time>2026-03-23T14:28:31Z</time></trkpt><trkpt lat="44.89365854998068" lon="11.798503995254443"><ele>1.0</ele><time>2026-03-23T14:28:33Z</time></trkpt><trkpt lat="44.89367139155245" lon="11.798644292450396"><ele>1.0</ele><time>2026-03-23T14:28:35Z</time></trkpt><trkpt lat="44.89367798588402" lon="11.79878313715279"><ele>1.0</ele><time>2026-03-23T14:28:37Z</time></trkpt><trkpt lat="44.89367727690757" lon="11.79892652384989"><ele>1.0</ele><time>2026-03-23T14:28:39Z</time></trkpt><trkpt lat="44.893680657072586" lon="11.799072370966533"><ele>1.0</ele><time>2026-03-23T14:28:41Z</time></trkpt><trkpt lat="44.893678725168485" lon="11.799216257148647"><ele>1.0</ele><time>2026-03-23T14:28:43Z</time></trkpt><trkpt lat="44.89366788445519" lon="11.799361953343155"><ele>1.0</ele><time>2026-03-23T14:28:45Z</time></trkpt><trkpt lat="44.89365755414274" lon="11.799503622740897"><ele>1.0</ele><time>2026-03-23T14:28:47Z</time></trkpt><trkpt lat="44.89364208280013" lon="11.799646848564908"><ele>1.0</ele><time>2026-03-23T14:28:49Z</time></trkpt><trkpt lat="44.8936239140968" lon="11.799788860884984"><ele>1.0</ele><time>2026-03-23T14:28:51Z</time></trkpt><trkpt lat="44.89360625612031" lon="11.799934160718596"><ele>1.0</ele><time>2026-03-23T14:28:53Z</time></trkpt><trkpt lat="44.89358513536127" lon="11.800075710128585"><ele>1.0</ele><time>2026-03-23T14:28:55Z</time></trkpt><trkpt lat="44.893567784911056" lon="11.800216719550054"><ele>1.0</ele><time>2026-03-23T14:28:57Z</time></trkpt><trkpt lat="44.893545246242624" lon="11.80035615004155"><ele>1.0</ele><time>2026-03-23T14:28:59Z</time></trkpt><trkpt lat="44.893537937987745" lon="11.800491788236194"><ele>1.0</ele><time>2026-03-23T14:29:01Z</time></trkpt><trkpt lat="44.8935287043444" lon="11.800622084354329"><ele>1.2000000000000002</ele><time>2026-03-23T14:29:03Z</time></trkpt><trkpt lat="44.89351491618319" lon="11.800727161211721"><ele>1.4000000000000001</ele><time>2026-03-23T14:29:05Z</time></trkpt><trkpt lat="44.893483672064285" lon="11.800823808430017"><ele>1.6</ele><time>2026-03-23T14:29:08Z</time></trkpt><trkpt lat="44.89330955040005" lon="11.800726837849304"><ele>1.8</ele><time>2026-03-23T14:29:15.999Z</time></trkpt><trkpt lat="44.89323526722591" lon="11.800734066694769"><ele>2.0</ele><time>2026-03-23T14:29:18.999Z</time></trkpt><trkpt lat="44.89315570814699" lon="11.800748892385572"><ele>1.9999999999999998</ele><time>2026-03-23T14:29:21.999Z</time></trkpt><trkpt lat="44.8931662519991" lon="11.800951061761817"><ele>2.0</ele><time>2026-03-23T14:29:25.999Z</time></trkpt><trkpt lat="44.893145236729325" lon="11.801050880419513"><ele>2.0</ele><time>2026-03-23T14:29:27.999Z</time></trkpt><trkpt lat="44.89313777506638" lon="11.801140663240089"><ele>2.0</ele><time>2026-03-23T14:29:29.999Z</time></trkpt><trkpt lat="44.89309893306696" lon="11.801212508439031"><ele>1.9999999999999998</ele><time>2026-03-23T14:29:31.999Z</time></trkpt><trkpt lat="44.893032635424426" lon="11.801305403076144"><ele>2.0</ele><time>2026-03-23T14:29:34.999Z</time></trkpt><trkpt lat="44.89298282319386" lon="11.801398861856914"><ele>1.9999999999999998</ele><time>2026-03-23T14:29:36.999Z</time></trkpt><trkpt lat="44.89292330595346" lon="11.801473045138469"><ele>2.0</ele><time>2026-03-23T14:29:38.999Z</time></trkpt><trkpt lat="44.892887812721575" lon="11.801568279406633"><ele>2.0</ele><time>2026-03-23T14:29:40.999Z</time></trkpt><trkpt lat="44.8928682434998" lon="11.801673693417253"><ele>2.0</ele><time>2026-03-23T14:29:42.999Z</time></trkpt><trkpt lat="44.892852584607276" lon="11.801773619773078"><ele>1.9999999999999998</ele><time>2026-03-23T14:29:44.999Z</time></trkpt><trkpt lat="44.89285035996307" lon="11.80188119079253"><ele>2.0</ele><time>2026-03-23T14:29:46.999Z</time></trkpt><trkpt lat="44.892843816361086" lon="11.802006319815698"><ele>1.9999999999999998</ele><time>2026-03-23T14:29:48.999Z</time></trkpt><trkpt lat="44.892864551989796" lon="11.802127994920165"><ele>2.0</ele><time>2026-03-23T14:29:51Z</time></trkpt><trkpt lat="44.89288103079232" lon="11.802247816029992"><ele>2.0</ele><time>2026-03-23T14:29:53Z</time></trkpt><trkpt lat="44.89290111348512" lon="11.802358917133152"><ele>2.0</ele><time>2026-03-23T14:29:55Z</time></trkpt><trkpt lat="44.89291262079659" lon="11.802468041645204"><ele>1.9999999999999998</ele><time>2026-03-23T14:29:57Z</time></trkpt><trkpt lat="44.89292398338708" lon="11.802573573409758"><ele>2.0</ele><time>2026-03-23T14:29:59Z</time></trkpt><trkpt lat="44.892921885551466" lon="11.80268891476942"><ele>1.9999999999999998</ele><time>2026-03-23T14:30:01Z</time></trkpt><trkpt lat="44.892921506768054" lon="11.802802365007814"><ele>2.0</ele><time>2026-03-23T14:30:03Z</time></trkpt><trkpt lat="44.89292076384619" lon="11.802912385424964"><ele>2.0</ele><time>2026-03-23T14:30:05Z</time></trkpt><trkpt lat="44.89290732500682" lon="11.803019406926957"><ele>2.0</ele><time>2026-03-23T14:30:07Z</time></trkpt><trkpt lat="44.89289772284251" lon="11.803124311915614"><ele>1.9999999999999998</ele><time>2026-03-23T14:30:09Z</time></trkpt><trkpt lat="44.892878769597246" lon="11.803251064397278"><ele>2.0</ele><time>2026-03-23T14:30:11Z</time></trkpt><trkpt lat="44.89286318731581" lon="11.803371369740484"><ele>1.9999999999999998</ele><time>2026-03-23T14:30:13Z</time></trkpt><trkpt lat="44.892845793241875" lon="11.80348349177264"><ele>2.0</ele><time>2026-03-23T14:30:15Z</time></trkpt><trkpt lat="44.89282527997678" lon="11.803585605199329"><ele>2.0</ele><time>2026-03-23T14:30:17Z</time></trkpt><trkpt lat="44.892812811047335" lon="11.803689254036668"><ele>2.0</ele><time>2026-03-23T14:30:19Z</time></trkpt><trkpt lat="44.89279452067405" lon="11.803801088855437"><ele>1.9999999999999998</ele><time>2026-03-23T14:30:21Z</time></trkpt><trkpt lat="44.89277896069417" lon="11.803915398061024"><ele>2.0</ele><time>2026-03-23T14:30:23Z</time></trkpt><trkpt lat="44.8927717700073" lon="11.804020563284215"><ele>1.9999999999999998</ele><time>2026-03-23T14:30:25Z</time></trkpt><trkpt lat="44.89275936238826" lon="11.804125787949793"><ele>2.0</ele><time>2026-03-23T14:30:27Z</time></trkpt><trkpt lat="44.892745979816674" lon="11.80422443569303"><ele>2.0</ele><time>2026-03-23T14:30:29Z</time></trkpt><trkpt lat="44.89273208097059" lon="11.804333203371552"><ele>2.0</ele><time>2026-03-23T14:30:31Z</time></trkpt><trkpt lat="44.89271450298729" lon="11.804447243419082"><ele>1.9999999999999998</ele><time>2026-03-23T14:30:33Z</time></trkpt><trkpt lat="44.89270411582345" lon="11.804560698171986"><ele>2.0</ele><time>2026-03-23T14:30:35Z</time></trkpt><trkpt lat="44.89269283177495" lon="11.804670078141665"><ele>2.0</ele><time>2026-03-23T14:30:37Z</time></trkpt><trkpt lat="44.892686918849634" lon="11.804771135423504"><ele>1.9999999999999998</ele><time>2026-03-23T14:30:39Z</time></trkpt><trkpt lat="44.89268116728005" lon="11.80486825510339"><ele>2.0</ele><time>2026-03-23T14:30:41Z</time></trkpt><trkpt lat="44.89267186549065" lon="11.80495803628746"><ele>2.0</ele><time>2026-03-23T14:30:43Z</time></trkpt><trkpt lat="44.89266745568661" lon="11.805051961411776"><ele>1.9999999999999998</ele><time>2026-03-23T14:30:45Z</time></trkpt><trkpt lat="44.89265746915568" lon="11.80516956953375"><ele>2.0</ele><time>2026-03-23T14:30:47Z</time></trkpt><trkpt lat="44.89264668615461" lon="11.805289568760148"><ele>2.0</ele><time>2026-03-23T14:30:49Z</time></trkpt><trkpt lat="44.8926375773777" lon="11.805404743561533"><ele>2.1666666666666665</ele><time>2026-03-23T14:30:51Z</time></trkpt><trkpt lat="44.892627151678994" lon="11.805518385907444"><ele>2.333333333333333</ele><time>2026-03-23T14:30:53Z</time></trkpt><trkpt lat="44.89261164006036" lon="11.805645256556359"><ele>2.5</ele><time>2026-03-23T14:30:55Z</time></trkpt><trkpt lat="44.89260371514828" lon="11.805763250215286"><ele>2.6666666666666665</ele><time>2026-03-23T14:30:57Z</time></trkpt><trkpt lat="44.89259840134095" lon="11.805871874357111"><ele>2.8333333333333335</ele><time>2026-03-23T14:30:58.999Z</time></trkpt><trkpt lat="44.892594859904634" lon="11.805983913593657"><ele>3.0</ele><time>2026-03-23T14:31:00.999Z</time></trkpt><trkpt lat="44.89258894085646" lon="11.806106250719923"><ele>2.4</ele><time>2026-03-23T14:31:02.999Z</time></trkpt><trkpt lat="44.892577367094084" lon="11.80624385969436"><ele>1.7999999999999998</ele><time>2026-03-23T14:31:04.999Z</time></trkpt><trkpt lat="44.89257367507616" lon="11.806380341519898"><ele>1.2</ele><time>2026-03-23T14:31:06.999Z</time></trkpt><trkpt lat="44.89256842389701" lon="11.806506579288957"><ele>0.6</ele><time>2026-03-23T14:31:08.999Z</time></trkpt><trkpt lat="44.892560766700626" lon="11.806632171218991"><ele>0.0</ele><time>2026-03-23T14:31:10.999Z</time></trkpt><trkpt lat="44.89256157059684" lon="11.806767240188128"><ele>0.0</ele><time>2026-03-23T14:31:12.999Z</time></trkpt><trkpt lat="44.89255839664527" lon="11.806895096186674"><ele>0.0</ele><time>2026-03-23T14:31:14.999Z</time></trkpt><trkpt lat="44.89255553163798" lon="11.80701739212637"><ele>0.0</ele><time>2026-03-23T14:31:16.999Z</time></trkpt><trkpt lat="44.892555773948395" lon="11.807135023055308"><ele>0.0</ele><time>2026-03-23T14:31:18.999Z</time></trkpt><trkpt lat="44.89256574446605" lon="11.80724976240718"><ele>0.0</ele><time>2026-03-23T14:31:20.999Z</time></trkpt><trkpt lat="44.89257914592091" lon="11.80735676886226"><ele>0.0</ele><time>2026-03-23T14:31:22.999Z</time></trkpt><trkpt lat="44.89260241137314" lon="11.80746791807888"><ele>0.0</ele><time>2026-03-23T14:31:24.999Z</time></trkpt><trkpt lat="44.892633777583946" lon="11.807589975757422"><ele>0.0</ele><time>2026-03-23T14:31:26.999Z</time></trkpt><trkpt lat="44.89266188037673" lon="11.807704333508557"><ele>0.0</ele><time>2026-03-23T14:31:28.999Z</time></trkpt><trkpt lat="44.8926887030392" lon="11.807811236721625"><ele>0.0</ele><time>2026-03-23T14:31:30.999Z</time></trkpt><trkpt lat="44.89271453073441" lon="11.807913186007706"><ele>0.0</ele><time>2026-03-23T14:31:32.999Z</time></trkpt><trkpt lat="44.892746807569466" lon="11.80800924928657"><ele>0.0</ele><time>2026-03-23T14:31:34.999Z</time></trkpt><trkpt lat="44.89277102051204" lon="11.808119105630551"><ele>0.0</ele><time>2026-03-23T14:31:36.999Z</time></trkpt><trkpt lat="44.892801663800704" lon="11.808218788090569"><ele>0.0</ele><time>2026-03-23T14:31:38.999Z</time></trkpt><trkpt lat="44.8928254808417" lon="11.808305147533517"><ele>0.0</ele><time>2026-03-23T14:31:40.999Z</time></trkpt><trkpt lat="44.8928537496691" lon="11.808389614458166"><ele>0.0</ele><time>2026-03-23T14:31:42.999Z</time></trkpt><trkpt lat="44.89288787770998" lon="11.808478377116234"><ele>0.0</ele><time>2026-03-23T14:31:44.999Z</time></trkpt><trkpt lat="44.89292346447584" lon="11.808594996406448"><ele>0.0</ele><time>2026-03-23T14:31:46.999Z</time></trkpt><trkpt lat="44.89296163550628" lon="11.808699368231943"><ele>0.0</ele><time>2026-03-23T14:31:48.999Z</time></trkpt><trkpt lat="44.892996193632555" lon="11.808802183719267"><ele>0.0</ele><time>2026-03-23T14:31:50.999Z</time></trkpt><trkpt lat="44.89303255359364" lon="11.808897691126388"><ele>0.0</ele><time>2026-03-23T14:31:52.999Z</time></trkpt><trkpt lat="44.893073896988824" lon="11.809010068686995"><ele>0.0</ele><time>2026-03-23T14:31:54.999Z</time></trkpt><trkpt lat="44.8931137660424" lon="11.809129777215988"><ele>0.0</ele><time>2026-03-23T14:31:57Z</time></trkpt><trkpt lat="44.893155086564576" lon="11.809237769784792"><ele>0.0</ele><time>2026-03-23T14:31:59Z</time></trkpt><trkpt lat="44.89318613198465" lon="11.809343524802864"><ele>0.0</ele><time>2026-03-23T14:32:01Z</time></trkpt><trkpt lat="44.8931928459388" lon="11.809451598806179"><ele>0.0</ele><time>2026-03-23T14:32:03Z</time></trkpt><trkpt lat="44.893196475936215" lon="11.809581081664005"><ele>0.0</ele><time>2026-03-23T14:32:05Z</time></trkpt><trkpt lat="44.893211975229455" lon="11.809712536239617"><ele>0.0</ele><time>2026-03-23T14:32:07Z</time></trkpt><trkpt lat="44.89322451445679" lon="11.809828335179239"><ele>0.0</ele><time>2026-03-23T14:32:09Z</time></trkpt><trkpt lat="44.89324876912259" lon="11.809936570526567"><ele>0.0</ele><time>2026-03-23T14:32:11Z</time></trkpt><trkpt lat="44.89328761389008" lon="11.81003453155767"><ele>0.0</ele><time>2026-03-23T14:32:13Z</time></trkpt><trkpt lat="44.893319803991666" lon="11.810128754617748"><ele>0.0</ele><time>2026-03-23T14:32:15Z</time></trkpt><trkpt lat="44.89335186025527" lon="11.810212618379408"><ele>0.0</ele><time>2026-03-23T14:32:17Z</time></trkpt><trkpt lat="44.8933891596502" lon="11.810290877999517"><ele>0.0</ele><time>2026-03-23T14:32:19Z</time></trkpt><trkpt lat="44.89342282977095" lon="11.810390904436632"><ele>0.0</ele><time>2026-03-23T14:32:21Z</time></trkpt><trkpt lat="44.89346524685362" lon="11.810475313948494"><ele>0.0</ele><time>2026-03-23T14:32:23Z</time></trkpt><trkpt lat="44.893508197404934" lon="11.810555634077843"><ele>0.0</ele><time>2026-03-23T14:32:25Z</time></trkpt><trkpt lat="44.89354478748644" lon="11.810632561226718"><ele>0.16666666666666666</ele><time>2026-03-23T14:32:27Z</time></trkpt><trkpt lat="44.89359223424489" lon="11.810695761866448"><ele>0.3333333333333333</ele><time>2026-03-23T14:32:29Z</time></trkpt><trkpt lat="44.893644813298216" lon="11.81078090418351"><ele>0.5</ele><time>2026-03-23T14:32:32Z</time></trkpt><trkpt lat="44.893698960537115" lon="11.810864128508939"><ele>0.6666666666666666</ele><time>2026-03-23T14:32:36Z</time></trkpt><trkpt lat="44.89367691563475" lon="11.810955085127107"><ele>0.8333333333333333</ele><time>2026-03-23T14:32:40Z</time></trkpt><trkpt lat="44.89357930825994" lon="11.81098115536193"><ele>1.0</ele><time>2026-03-23T14:32:43Z</time></trkpt><trkpt lat="44.893486401355894" lon="11.811004470101283"><ele>0.8</ele><time>2026-03-23T14:32:45Z</time></trkpt><trkpt lat="44.89339276681421" lon="11.811034356940903"><ele>0.6000000000000001</ele><time>2026-03-23T14:32:47Z</time></trkpt><trkpt lat="44.89330339774029" lon="11.81106928880674"><ele>0.4</ele><time>2026-03-23T14:32:49Z</time></trkpt><trkpt lat="44.89321258901295" lon="11.81109295103525"><ele>0.2</ele><time>2026-03-23T14:32:51Z</time></trkpt><trkpt lat="44.893122975715436" lon="11.811122147163033"><ele>0.0</ele><time>2026-03-23T14:32:53Z</time></trkpt><trkpt lat="44.89303440094772" lon="11.811149403904016"><ele>0.0</ele><time>2026-03-23T14:32:55Z</time></trkpt><trkpt lat="44.89294644776969" lon="11.81117164318986"><ele>0.0</ele><time>2026-03-23T14:32:57Z</time></trkpt><trkpt lat="44.89285836577583" lon="11.811194559693444"><ele>0.0</ele><time>2026-03-23T14:32:59Z</time></trkpt><trkpt lat="44.892765695255626" lon="11.811219272004914"><ele>0.0</ele><time>2026-03-23T14:33:01Z</time></trkpt><trkpt lat="44.89266463607239" lon="11.81123795724872"><ele>0.0</ele><time>2026-03-23T14:33:03Z</time></trkpt><trkpt lat="44.89257081280418" lon="11.811260413786677"><ele>0.2</ele><time>2026-03-23T14:33:05Z</time></trkpt><trkpt lat="44.8924755871881" lon="11.811279790500793"><ele>0.4</ele><time>2026-03-23T14:33:07Z</time></trkpt><trkpt lat="44.89238220764117" lon="11.811279023944207"><ele>0.6000000000000001</ele><time>2026-03-23T14:33:09Z</time></trkpt><trkpt lat="44.89228711349234" lon="11.811296546329755"><ele>0.8</ele><time>2026-03-23T14:33:11Z</time></trkpt><trkpt lat="44.892197588925875" lon="11.811306617614795"><ele>1.0</ele><time>2026-03-23T14:33:13Z</time></trkpt><trkpt lat="44.89210869113208" lon="11.811317644937516"><ele>0.9999999999999999</ele><time>2026-03-23T14:33:15Z</time></trkpt><trkpt lat="44.89202059507482" lon="11.811324371528395"><ele>1.0</ele><time>2026-03-23T14:33:16.999Z</time></trkpt><trkpt lat="44.89193669368411" lon="11.81133052385899"><ele>1.0</ele><time>2026-03-23T14:33:18.999Z</time></trkpt><trkpt lat="44.89185544151942" lon="11.811352067684135"><ele>1.0</ele><time>2026-03-23T14:33:20.999Z</time></trkpt><trkpt lat="44.891772343119904" lon="11.811351505388718"><ele>0.9999999999999999</ele><time>2026-03-23T14:33:22.999Z</time></trkpt><trkpt lat="44.89170377030636" lon="11.811355931132562"><ele>1.0</ele><time>2026-03-23T14:33:24.999Z</time></trkpt><trkpt lat="44.89163595918699" lon="11.81136173508712"><ele>1.0</ele><time>2026-03-23T14:33:26.999Z</time></trkpt><trkpt lat="44.89154718215421" lon="11.811368316776086"><ele>1.0</ele><time>2026-03-23T14:33:29.999Z</time></trkpt><trkpt lat="44.89157054739762" lon="11.81157573124783"><ele>1.0</ele><time>2026-03-23T14:33:31.999Z</time></trkpt><trkpt lat="44.89157503279517" lon="11.811691328536781"><ele>1.0</ele><time>2026-03-23T14:33:33.999Z</time></trkpt><trkpt lat="44.89158646114867" lon="11.811806119817053"><ele>1.0</ele><time>2026-03-23T14:33:35.999Z</time></trkpt><trkpt lat="44.89158942230192" lon="11.811911058877746"><ele>1.1666666666666665</ele><time>2026-03-23T14:33:37.999Z</time></trkpt><trkpt lat="44.89157813308672" lon="11.812011409976652"><ele>1.3333333333333333</ele><time>2026-03-23T14:33:39.999Z</time></trkpt><trkpt lat="44.89158861935176" lon="11.812141423877076"><ele>1.5</ele><time>2026-03-23T14:33:41.999Z</time></trkpt><trkpt lat="44.89159239466522" lon="11.81227256470739"><ele>1.6666666666666665</ele><time>2026-03-23T14:33:43.999Z</time></trkpt><trkpt lat="44.89160002830359" lon="11.812392057796158"><ele>1.8333333333333333</ele><time>2026-03-23T14:33:45.999Z</time></trkpt><trkpt lat="44.89160117056959" lon="11.812502106783604"><ele>2.0</ele><time>2026-03-23T14:33:47.999Z</time></trkpt><trkpt lat="44.89160833889632" lon="11.812607850606504"><ele>1.9999999999999998</ele><time>2026-03-23T14:33:49.999Z</time></trkpt><trkpt lat="44.891618278351245" lon="11.81272207430224"><ele>2.0</ele><time>2026-03-23T14:33:51.999Z</time></trkpt><trkpt lat="44.891624071126515" lon="11.812831403250819"><ele>2.0</ele><time>2026-03-23T14:33:53.999Z</time></trkpt><trkpt lat="44.89162791629462" lon="11.812943514771485"><ele>2.0</ele><time>2026-03-23T14:33:55.999Z</time></trkpt><trkpt lat="44.8916346004753" lon="11.813070762974402"><ele>1.9999999999999998</ele><time>2026-03-23T14:33:57.999Z</time></trkpt><trkpt lat="44.891638700783176" lon="11.813189780110791"><ele>2.0</ele><time>2026-03-23T14:33:59.999Z</time></trkpt><trkpt lat="44.891640541459935" lon="11.813301232923688"><ele>1.9999999999999998</ele><time>2026-03-23T14:34:02Z</time></trkpt><trkpt lat="44.8916498504897" lon="11.813403808729795"><ele>2.0</ele><time>2026-03-23T14:34:04Z</time></trkpt><trkpt lat="44.891660044479636" lon="11.81349933518658"><ele>2.0</ele><time>2026-03-23T14:34:06Z</time></trkpt><trkpt lat="44.89166111935451" lon="11.81363217996333"><ele>2.0</ele><time>2026-03-23T14:34:09Z</time></trkpt><trkpt lat="44.89166718151981" lon="11.813760844425012"><ele>1.9999999999999998</ele><time>2026-03-23T14:34:12Z</time></trkpt><trkpt lat="44.89167420766999" lon="11.813891379237258"><ele>2.0</ele><time>2026-03-23T14:34:15Z</time></trkpt><trkpt lat="44.89168219108162" lon="11.814003302553727"><ele>1.9999999999999998</ele><time>2026-03-23T14:34:17Z</time></trkpt><trkpt lat="44.89168944736578" lon="11.814110358316931"><ele>2.0</ele><time>2026-03-23T14:34:19Z</time></trkpt><trkpt lat="44.89170108078586" lon="11.814212553652908"><ele>2.0</ele><time>2026-03-23T14:34:21Z</time></trkpt><trkpt lat="44.89170327575979" lon="11.814304351547433"><ele>2.0</ele><time>2026-03-23T14:34:23Z</time></trkpt><trkpt lat="44.89170848830417" lon="11.81444020143013"><ele>1.9999999999999998</ele><time>2026-03-23T14:34:26Z</time></trkpt><trkpt lat="44.89171231684774" lon="11.81454666351947"><ele>2.0</ele><time>2026-03-23T14:34:28Z</time></trkpt><trkpt lat="44.891719298718364" lon="11.814640615465159"><ele>1.9999999999999998</ele><time>2026-03-23T14:34:30Z</time></trkpt><trkpt lat="44.89171857824003" lon="11.814761097794932"><ele>2.0</ele><time>2026-03-23T14:34:32Z</time></trkpt><trkpt lat="44.891728979907334" lon="11.814890459057462"><ele>2.0</ele><time>2026-03-23T14:34:34Z</time></trkpt><trkpt lat="44.89173370151437" lon="11.815014717525331"><ele>2.0</ele><time>2026-03-23T14:34:36Z</time></trkpt><trkpt lat="44.89174328152969" lon="11.815131140740633"><ele>1.9999999999999998</ele><time>2026-03-23T14:34:38Z</time></trkpt><trkpt lat="44.89175722751598" lon="11.815236856543764"><ele>2.0</ele><time>2026-03-23T14:34:40Z</time></trkpt><trkpt lat="44.89175804481302" lon="11.815340426733819"><ele>2.333333333333333</ele><time>2026-03-23T14:34:42Z</time></trkpt><trkpt lat="44.89177963075328" lon="11.815461874005754"><ele>2.6666666666666665</ele><time>2026-03-23T14:34:44Z</time></trkpt><trkpt lat="44.89179489120142" lon="11.815578326726724"><ele>3.0</ele><time>2026-03-23T14:34:46Z</time></trkpt><trkpt lat="44.891793961280946" lon="11.815684755182753"><ele>3.333333333333333</ele><time>2026-03-23T14:34:48Z</time></trkpt><trkpt lat="44.891874564443704" lon="11.815761271562584"><ele>3.6666666666666665</ele><time>2026-03-23T14:34:50Z</time></trkpt><trkpt lat="44.891919011421116" lon="11.815826090947716"><ele>4.0</ele><time>2026-03-23T14:34:52Z</time></trkpt><trkpt lat="44.89198546367978" lon="11.815861533657102"><ele>4.0</ele><time>2026-03-23T14:34:54Z</time></trkpt><trkpt lat="44.89201049077506" lon="11.816021268437805"><ele>4.0</ele><time>2026-03-23T14:34:56Z</time></trkpt><trkpt lat="44.89208946541935" lon="11.815939100548551"><ele>4.0</ele><time>2026-03-23T14:34:57Z</time></trkpt><trkpt lat="44.892157125418805" lon="11.815991308138285"><ele>4.0</ele><time>2026-03-23T14:34:59Z</time></trkpt><trkpt lat="44.89218229456425" lon="11.816159912985466"><ele>4.0</ele><time>2026-03-23T14:35:01Z</time></trkpt><trkpt lat="44.89225590974717" lon="11.816219230294282"><ele>4.0</ele><time>2026-03-23T14:35:03Z</time></trkpt><trkpt lat="44.89231938061433" lon="11.816270916304962"><ele>3.9999999999999996</ele><time>2026-03-23T14:35:05Z</time></trkpt><trkpt lat="44.892385165434995" lon="11.816324286905257"><ele>4.0</ele><time>2026-03-23T14:35:07Z</time></trkpt><trkpt lat="44.892441212970574" lon="11.81636975774084"><ele>4.0</ele><time>2026-03-23T14:35:09Z</time></trkpt><trkpt lat="44.89250448407023" lon="11.816421088581924"><ele>3.9999999999999996</ele><time>2026-03-23T14:35:11Z</time></trkpt><trkpt lat="44.89257606672504" lon="11.816478540621361"><ele>4.0</ele><time>2026-03-23T14:35:13Z</time></trkpt><trkpt lat="44.892637232247196" lon="11.816527807881501"><ele>4.0</ele><time>2026-03-23T14:35:15Z</time></trkpt><trkpt lat="44.89270234535765" lon="11.816580254815856"><ele>3.9999999999999996</ele><time>2026-03-23T14:35:17Z</time></trkpt><trkpt lat="44.892760134525474" lon="11.816626802497357"><ele>4.0</ele><time>2026-03-23T14:35:19Z</time></trkpt><trkpt lat="44.89282676255723" lon="11.816680469658893"><ele>4.0</ele><time>2026-03-23T14:35:21Z</time></trkpt><trkpt lat="44.89289194717704" lon="11.816731747503496"><ele>4.0</ele><time>2026-03-23T14:35:22.999Z</time></trkpt><trkpt lat="44.89296592976919" lon="11.81678938749347"><ele>3.9999999999999996</ele><time>2026-03-23T14:35:24.999Z</time></trkpt><trkpt lat="44.893032350560844" lon="11.816841136080187"><ele>4.0</ele><time>2026-03-23T14:35:26.999Z</time></trkpt><trkpt lat="44.893099951226205" lon="11.816893803913608"><ele>3.9999999999999996</ele><time>2026-03-23T14:35:28.999Z</time></trkpt><trkpt lat="44.89316822493543" lon="11.816946996109078"><ele>4.0</ele><time>2026-03-23T14:35:30.999Z</time></trkpt><trkpt lat="44.89323615509005" lon="11.81699992063507"><ele>4.0</ele><time>2026-03-23T14:35:32.999Z</time></trkpt><trkpt lat="44.89329376666265" lon="11.817044805394339"><ele>4.0</ele><time>2026-03-23T14:35:34.999Z</time></trkpt><trkpt lat="44.893377414118554" lon="11.81710991252119"><ele>3.9999999999999996</ele><time>2026-03-23T14:35:37.999Z</time></trkpt><trkpt lat="44.89344167005607" lon="11.817036016989345"><ele>4.0</ele><time>2026-03-23T14:35:38.999Z</time></trkpt><trkpt lat="44.89348530609223" lon="11.817126801528621"><ele>3.9999999999999996</ele><time>2026-03-23T14:35:41.999Z</time></trkpt><trkpt lat="44.89354505573138" lon="11.817171842035727"><ele>4.0</ele><time>2026-03-23T14:35:43.999Z</time></trkpt><trkpt lat="44.89359184269332" lon="11.817278408243384"><ele>4.0</ele><time>2026-03-23T14:35:45.999Z</time></trkpt><trkpt lat="44.89365274011706" lon="11.817326412031905"><ele>4.0</ele><time>2026-03-23T14:35:47.999Z</time></trkpt><trkpt lat="44.893735175580865" lon="11.817414822272012"><ele>3.9999999999999996</ele><time>2026-03-23T14:35:50.999Z</time></trkpt><trkpt lat="44.893821153791734" lon="11.817473493727348"><ele>4.0</ele><time>2026-03-23T14:35:52.999Z</time></trkpt><trkpt lat="44.89389514945766" lon="11.817541031752755"><ele>4.0</ele><time>2026-03-23T14:35:54.999Z</time></trkpt><trkpt lat="44.89398050932328" lon="11.817603917939909"><ele>4.0</ele><time>2026-03-23T14:35:56.999Z</time></trkpt><trkpt lat="44.89406610185392" lon="11.8176725776366"><ele>4.0</ele><time>2026-03-23T14:35:58.999Z</time></trkpt><trkpt lat="44.89415323110454" lon="11.817743576995442"><ele>4.0</ele><time>2026-03-23T14:36:00.999Z</time></trkpt><trkpt lat="44.8942370452674" lon="11.817820092956332"><ele>4.0</ele><time>2026-03-23T14:36:02.999Z</time></trkpt><trkpt lat="44.89432226224165" lon="11.817887697614024"><ele>3.6</ele><time>2026-03-23T14:36:04.999Z</time></trkpt><trkpt lat="44.894409317736475" lon="11.817952243337045"><ele>3.2</ele><time>2026-03-23T14:36:06.999Z</time></trkpt><trkpt lat="44.89449712423109" lon="11.818021839178327"><ele>2.8000000000000003</ele><time>2026-03-23T14:36:09Z</time></trkpt><trkpt lat="44.89458123854649" lon="11.81809207310506"><ele>2.4000000000000004</ele><time>2026-03-23T14:36:11Z</time></trkpt><trkpt lat="44.89467083390055" lon="11.818158336589867"><ele>2.0</ele><time>2026-03-23T14:36:13Z</time></trkpt><trkpt lat="44.89476512987974" lon="11.818226868239421"><ele>2.0</ele><time>2026-03-23T14:36:15Z</time></trkpt><trkpt lat="44.89484284883967" lon="11.818303661240433"><ele>2.0</ele><time>2026-03-23T14:36:17Z</time></trkpt><trkpt lat="44.89491927366953" lon="11.818385180625617"><ele>2.0</ele><time>2026-03-23T14:36:19Z</time></trkpt><trkpt lat="44.89498907255215" lon="11.818486239811381"><ele>2.0</ele><time>2026-03-23T14:36:21Z</time></trkpt><trkpt lat="44.89505212316237" lon="11.818592898068244"><ele>2.0</ele><time>2026-03-23T14:36:23Z</time></trkpt><trkpt lat="44.89511316991061" lon="11.818705249736578"><ele>2.0</ele><time>2026-03-23T14:36:25Z</time></trkpt><trkpt lat="44.8951639467471" lon="11.818824342767181"><ele>2.0</ele><time>2026-03-23T14:36:27Z</time></trkpt><trkpt lat="44.89520566837326" lon="11.818953352459337"><ele>2.0</ele><time>2026-03-23T14:36:29Z</time></trkpt><trkpt lat="44.895246004477016" lon="11.81908312109863"><ele>2.0</ele><time>2026-03-23T14:36:31Z</time></trkpt><trkpt lat="44.89526847306026" lon="11.819215365424045"><ele>2.0</ele><time>2026-03-23T14:36:33Z</time></trkpt><trkpt lat="44.895286962887944" lon="11.819346193593754"><ele>1.8</ele><time>2026-03-23T14:36:35Z</time></trkpt><trkpt lat="44.895305388461544" lon="11.819478906534084"><ele>1.6</ele><time>2026-03-23T14:36:37Z</time></trkpt><trkpt lat="44.89533053181993" lon="11.819616018830763"><ele>1.4000000000000001</ele><time>2026-03-23T14:36:39Z</time></trkpt><trkpt lat="44.89535328152167" lon="11.819755486623553"><ele>1.2000000000000002</ele><time>2026-03-23T14:36:41Z</time></trkpt><trkpt lat="44.89537585961107" lon="11.819892143116775"><ele>1.0</ele><time>2026-03-23T14:36:43Z</time></trkpt><trkpt lat="44.89539660743951" lon="11.820028141954442"><ele>1.4</ele><time>2026-03-23T14:36:45Z</time></trkpt><trkpt lat="44.895424314705096" lon="11.820165316279189"><ele>1.8</ele><time>2026-03-23T14:36:47Z</time></trkpt><trkpt lat="44.895446972599466" lon="11.82030385462621"><ele>2.1999999999999997</ele><time>2026-03-23T14:36:49Z</time></trkpt><trkpt lat="44.89546660304191" lon="11.820444608859356"><ele>2.6</ele><time>2026-03-23T14:36:51Z</time></trkpt><trkpt lat="44.89549064927719" lon="11.82057779325911"><ele>3.0</ele><time>2026-03-23T14:36:53Z</time></trkpt><trkpt lat="44.89551155807304" lon="11.820714006252876"><ele>3.0</ele><time>2026-03-23T14:36:55Z</time></trkpt><trkpt lat="44.89553349220661" lon="11.820848051395615"><ele>3.0</ele><time>2026-03-23T14:36:57Z</time></trkpt><trkpt lat="44.895550887929495" lon="11.820983546283435"><ele>3.0</ele><time>2026-03-23T14:36:59Z</time></trkpt><trkpt lat="44.89557421257222" lon="11.821112330449884"><ele>3.0</ele><time>2026-03-23T14:37:01Z</time></trkpt><trkpt lat="44.89559314330742" lon="11.821234964646523"><ele>3.0</ele><time>2026-03-23T14:37:03Z</time></trkpt><trkpt lat="44.8956141456644" lon="11.821351089990818"><ele>3.0</ele><time>2026-03-23T14:37:05Z</time></trkpt><trkpt lat="44.895635378543396" lon="11.821453925780489"><ele>3.0</ele><time>2026-03-23T14:37:07Z</time></trkpt><trkpt lat="44.89564829849549" lon="11.82155634523093"><ele>3.0</ele><time>2026-03-23T14:37:09Z</time></trkpt><trkpt lat="44.89566634102134" lon="11.821650040942286"><ele>3.0</ele><time>2026-03-23T14:37:11Z</time></trkpt><trkpt lat="44.89567835633923" lon="11.821739646617804"><ele>3.0</ele><time>2026-03-23T14:37:13Z</time></trkpt><trkpt lat="44.89569694018901" lon="11.821869973630566"><ele>3.0</ele><time>2026-03-23T14:37:16Z</time></trkpt><trkpt lat="44.895715751841536" lon="11.822002005210202"><ele>2.8333333333333335</ele><time>2026-03-23T14:37:19Z</time></trkpt><trkpt lat="44.89573329195424" lon="11.822108449444292"><ele>2.6666666666666665</ele><time>2026-03-23T14:37:21Z</time></trkpt><trkpt lat="44.89574804365244" lon="11.822200915240238"><ele>2.5</ele><time>2026-03-23T14:37:23Z</time></trkpt><trkpt lat="44.89577157089405" lon="11.822328598411328"><ele>2.333333333333333</ele><time>2026-03-23T14:37:26Z</time></trkpt><trkpt lat="44.895791980220665" lon="11.822450683420252"><ele>2.1666666666666665</ele><time>2026-03-23T14:37:28.999Z</time></trkpt><trkpt lat="44.89579059805478" lon="11.82256298939766"><ele>2.0</ele><time>2026-03-23T14:37:31.999Z</time></trkpt><trkpt lat="44.895788056283855" lon="11.82265274676641"><ele>2.4000000000000004</ele><time>2026-03-23T14:37:35.999Z</time></trkpt><trkpt lat="44.89581053241043" lon="11.822743043012801"><ele>2.8000000000000003</ele><time>2026-03-23T14:37:38.999Z</time></trkpt><trkpt lat="44.895838271984815" lon="11.822899546236128"><ele>3.2</ele><time>2026-03-23T14:37:41.999Z</time></trkpt><trkpt lat="44.895864006541316" lon="11.823027403149537"><ele>3.6</ele><time>2026-03-23T14:37:43.999Z</time></trkpt><trkpt lat="44.895883656699084" lon="11.823162247427161"><ele>4.0</ele><time>2026-03-23T14:37:45.999Z</time></trkpt><trkpt lat="44.89590569762097" lon="11.823286188226927"><ele>3.833333333333333</ele><time>2026-03-23T14:37:47.999Z</time></trkpt><trkpt lat="44.89592065563634" lon="11.823402822579709"><ele>3.6666666666666665</ele><time>2026-03-23T14:37:49.999Z</time></trkpt><trkpt lat="44.8959443092659" lon="11.823515559460882"><ele>3.5</ele><time>2026-03-23T14:37:51.999Z</time></trkpt><trkpt lat="44.89595664925197" lon="11.823623684949444"><ele>3.333333333333333</ele><time>2026-03-23T14:37:53.999Z</time></trkpt><trkpt lat="44.89597619650244" lon="11.823728732520722"><ele>3.1666666666666665</ele><time>2026-03-23T14:37:55.999Z</time></trkpt><trkpt lat="44.895997028141316" lon="11.823841405842558"><ele>3.0</ele><time>2026-03-23T14:37:57.999Z</time></trkpt><trkpt lat="44.89601251167908" lon="11.823969052725825"><ele>3.1666666666666665</ele><time>2026-03-23T14:37:59.999Z</time></trkpt><trkpt lat="44.896035634363635" lon="11.824090554327794"><ele>3.333333333333333</ele><time>2026-03-23T14:38:01.999Z</time></trkpt><trkpt lat="44.89605079739624" lon="11.824205473156443"><ele>3.5</ele><time>2026-03-23T14:38:03.999Z</time></trkpt><trkpt lat="44.89606857790772" lon="11.824314070285519"><ele>3.6666666666666665</ele><time>2026-03-23T14:38:05.999Z</time></trkpt><trkpt lat="44.89608845800601" lon="11.824416973553596"><ele>3.833333333333333</ele><time>2026-03-23T14:38:07.999Z</time></trkpt><trkpt lat="44.89610454549707" lon="11.824508513548183"><ele>4.0</ele><time>2026-03-23T14:38:09.999Z</time></trkpt><trkpt lat="44.896119221975205" lon="11.824610679954269"><ele>3.9999999999999996</ele><time>2026-03-23T14:38:11.999Z</time></trkpt><trkpt lat="44.89613793436493" lon="11.824722975207742"><ele>4.0</ele><time>2026-03-23T14:38:14Z</time></trkpt><trkpt lat="44.896150678271724" lon="11.82482792814867"><ele>4.0</ele><time>2026-03-23T14:38:16Z</time></trkpt><trkpt lat="44.89616892668152" lon="11.8249259689728"><ele>4.0</ele><time>2026-03-23T14:38:18Z</time></trkpt><trkpt lat="44.89618489385448" lon="11.825015849916786"><ele>3.9999999999999996</ele><time>2026-03-23T14:38:20Z</time></trkpt><trkpt lat="44.896200746778526" lon="11.825121111184425"><ele>4.0</ele><time>2026-03-23T14:38:22Z</time></trkpt><trkpt lat="44.89622674597753" lon="11.825242161032557"><ele>4.0</ele><time>2026-03-23T14:38:24Z</time></trkpt><trkpt lat="44.89624552052413" lon="11.825358672137149"><ele>3.9999999999999996</ele><time>2026-03-23T14:38:26Z</time></trkpt><trkpt lat="44.89625874270642" lon="11.825462989327109"><ele>4.0</ele><time>2026-03-23T14:38:28Z</time></trkpt><trkpt lat="44.89628004705598" lon="11.825554895210757"><ele>4.0</ele><time>2026-03-23T14:38:30Z</time></trkpt><trkpt lat="44.896295204011416" lon="11.825648386690887"><ele>3.9999999999999996</ele><time>2026-03-23T14:38:32Z</time></trkpt><trkpt lat="44.896310381064026" lon="11.825737287521196"><ele>4.0</ele><time>2026-03-23T14:38:34Z</time></trkpt><trkpt lat="44.89633495576578" lon="11.825835473074893"><ele>4.0</ele><time>2026-03-23T14:38:37Z</time></trkpt><trkpt lat="44.89633365520471" lon="11.825936647663848"><ele>3.833333333333333</ele><time>2026-03-23T14:38:58Z</time></trkpt><trkpt lat="44.896357311466225" lon="11.826045113823644"><ele>3.6666666666666665</ele><time>2026-03-23T14:39:01Z</time></trkpt><trkpt lat="44.89641058935354" lon="11.826092712669995"><ele>3.5</ele><time>2026-03-23T14:39:03Z</time></trkpt><trkpt lat="44.896430948444845" lon="11.826236090715879"><ele>3.333333333333333</ele><time>2026-03-23T14:39:08Z</time></trkpt><trkpt lat="44.896451894515764" lon="11.826360627657166"><ele>3.1666666666666665</ele><time>2026-03-23T14:39:10Z</time></trkpt><trkpt lat="44.89647100654045" lon="11.826474260155411"><ele>3.0</ele><time>2026-03-23T14:39:12Z</time></trkpt><trkpt lat="44.89648947290391" lon="11.826584053807455"><ele>2.9999999999999996</ele><time>2026-03-23T14:39:14Z</time></trkpt><trkpt lat="44.89650669547629" lon="11.826687572530151"><ele>3.0</ele><time>2026-03-23T14:39:16Z</time></trkpt><trkpt lat="44.89652396292211" lon="11.82679171423273"><ele>3.0</ele><time>2026-03-23T14:39:18Z</time></trkpt><trkpt lat="44.89653959593966" lon="11.826886083897199"><ele>3.0</ele><time>2026-03-23T14:39:20Z</time></trkpt><trkpt lat="44.89655735359658" lon="11.826993542194664"><ele>3.0</ele><time>2026-03-23T14:39:22Z</time></trkpt><trkpt lat="44.89657389587264" lon="11.82709364582438"><ele>2.9999999999999996</ele><time>2026-03-23T14:39:24Z</time></trkpt><trkpt lat="44.89659072598623" lon="11.827195491142621"><ele>3.0</ele><time>2026-03-23T14:39:26Z</time></trkpt><trkpt lat="44.89660572149509" lon="11.827286234630423"><ele>3.0</ele><time>2026-03-23T14:39:28Z</time></trkpt><trkpt lat="44.89662045308586" lon="11.827374811907813"><ele>3.0</ele><time>2026-03-23T14:39:30Z</time></trkpt><trkpt lat="44.89674799780392" lon="11.827456308220583"><ele>3.0</ele><time>2026-03-23T14:39:33Z</time></trkpt><trkpt lat="44.896656592720625" lon="11.827589595836962"><ele>3.0</ele><time>2026-03-23T14:39:42.999Z</time></trkpt><trkpt lat="44.896674310013246" lon="11.827695492036327"><ele>3.0</ele><time>2026-03-23T14:39:50.999Z</time></trkpt><trkpt lat="44.89693162211499" lon="11.827636045831715"><ele>3.0</ele><time>2026-03-23T14:39:51.999Z</time></trkpt><trkpt lat="44.89686651415889" lon="11.82774124889713"><ele>3.0</ele><time>2026-03-23T14:39:55.999Z</time></trkpt><trkpt lat="44.896962778467675" lon="11.827712816155964"><ele>3.0</ele><time>2026-03-23T14:42:32Z</time></trkpt><trkpt lat="44.896919804332455" lon="11.827800031306946"><ele>3.0</ele><time>2026-03-23T14:45:06Z</time></trkpt><trkpt lat="44.89693355414503" lon="11.827896879232313"><ele>3.0</ele><time>2026-03-23T14:45:10Z</time></trkpt><trkpt lat="44.896969079660515" lon="11.827979228584068"><ele>3.0</ele><time>2026-03-23T14:45:14Z</time></trkpt><trkpt lat="44.896947404156634" lon="11.828070416874079"><ele>3.0</ele><time>2026-03-23T14:45:19Z</time></trkpt><trkpt lat="44.89693400698586" lon="11.828213322030507"><ele>3.0</ele><time>2026-03-23T14:45:22Z</time></trkpt><trkpt lat="44.89694533316882" lon="11.828311722475018"><ele>3.0</ele><time>2026-03-23T14:45:24Z</time></trkpt><trkpt lat="44.896964188439476" lon="11.828398141256269"><ele>3.0</ele><time>2026-03-23T14:45:26Z</time></trkpt><trkpt lat="44.897016099495914" lon="11.828500786571858"><ele>3.0</ele><time>2026-03-23T14:45:29Z</time></trkpt><trkpt lat="44.89701502808899" lon="11.828619080542397"><ele>3.0</ele><time>2026-03-23T14:45:32Z</time></trkpt><trkpt lat="44.8969482799521" lon="11.828648922259633"><ele>3.0</ele><time>2026-03-23T14:45:34Z</time></trkpt><trkpt lat="44.89690524501776" lon="11.828715721183167"><ele>3.0</ele><time>2026-03-23T14:45:37Z</time></trkpt><trkpt lat="44.89692254728551" lon="11.828837124666785"><ele>3.0</ele><time>2026-03-23T14:45:40Z</time></trkpt><trkpt lat="44.896944816505844" lon="11.828943846539458"><ele>3.0</ele><time>2026-03-23T14:45:42Z</time></trkpt><trkpt lat="44.89696309555482" lon="11.829064877069305"><ele>3.0</ele><time>2026-03-23T14:45:44Z</time></trkpt><trkpt lat="44.896981102191745" lon="11.82917414745822"><ele>3.0</ele><time>2026-03-23T14:45:46Z</time></trkpt><trkpt lat="44.89699433777831" lon="11.82926872717545"><ele>3.1666666666666665</ele><time>2026-03-23T14:45:48Z</time></trkpt><trkpt lat="44.897012361266306" lon="11.829373007403476"><ele>3.333333333333333</ele><time>2026-03-23T14:45:50Z</time></trkpt><trkpt lat="44.89703099653719" lon="11.829481918774148"><ele>3.5</ele><time>2026-03-23T14:45:52Z</time></trkpt><trkpt lat="44.897049096337504" lon="11.829603062250534"><ele>3.6666666666666665</ele><time>2026-03-23T14:45:53.999Z</time></trkpt><trkpt lat="44.89707513269856" lon="11.829719616308598"><ele>3.833333333333333</ele><time>2026-03-23T14:45:55.999Z</time></trkpt><trkpt lat="44.8970900278099" lon="11.829821516696486"><ele>4.0</ele><time>2026-03-23T14:45:57.999Z</time></trkpt><trkpt lat="44.89710228540195" lon="11.829919118055454"><ele>3.9999999999999996</ele><time>2026-03-23T14:45:59.999Z</time></trkpt><trkpt lat="44.89712554130056" lon="11.830061767093921"><ele>4.0</ele><time>2026-03-23T14:46:02.999Z</time></trkpt><trkpt lat="44.89714791726524" lon="11.830177991297285"><ele>4.0</ele><time>2026-03-23T14:46:04.999Z</time></trkpt><trkpt lat="44.897169455162704" lon="11.83028558485238"><ele>4.0</ele><time>2026-03-23T14:46:06.999Z</time></trkpt><trkpt lat="44.89718288071516" lon="11.830392191994195"><ele>3.9999999999999996</ele><time>2026-03-23T14:46:08.999Z</time></trkpt><trkpt lat="44.89720490279938" lon="11.830498332633368"><ele>4.0</ele><time>2026-03-23T14:46:10.999Z</time></trkpt><trkpt lat="44.8972291717723" lon="11.830626216396722"><ele>4.0</ele><time>2026-03-23T14:46:12.999Z</time></trkpt><trkpt lat="44.89724594222024" lon="11.830760114742779"><ele>4.0</ele><time>2026-03-23T14:46:14.999Z</time></trkpt><trkpt lat="44.89726396427291" lon="11.830890092735055"><ele>4.0</ele><time>2026-03-23T14:46:16.999Z</time></trkpt><trkpt lat="44.8972923374546" lon="11.831026422470167"><ele>4.0</ele><time>2026-03-23T14:46:18.999Z</time></trkpt><trkpt lat="44.89731193738385" lon="11.831152116638876"><ele>4.0</ele><time>2026-03-23T14:46:20.999Z</time></trkpt><trkpt lat="44.897336631246105" lon="11.831264529290502"><ele>3.833333333333333</ele><time>2026-03-23T14:46:22.999Z</time></trkpt><trkpt lat="44.8973491600641" lon="11.831383559545984"><ele>3.6666666666666665</ele><time>2026-03-23T14:46:24.999Z</time></trkpt><trkpt lat="44.89736719739104" lon="11.831503114859865"><ele>3.5</ele><time>2026-03-23T14:46:26.999Z</time></trkpt><trkpt lat="44.89739093190133" lon="11.83162475884711"><ele>3.333333333333333</ele><time>2026-03-23T14:46:28.999Z</time></trkpt><trkpt lat="44.89740520760799" lon="11.83174302699322"><ele>3.1666666666666665</ele><time>2026-03-23T14:46:30.999Z</time></trkpt><trkpt lat="44.897424792342754" lon="11.831852079333677"><ele>3.0</ele><time>2026-03-23T14:46:32.999Z</time></trkpt><trkpt lat="44.89743491680972" lon="11.831958807334571"><ele>3.0</ele><time>2026-03-23T14:46:34.999Z</time></trkpt><trkpt lat="44.89745490533356" lon="11.83205816062199"><ele>3.0</ele><time>2026-03-23T14:46:36.999Z</time></trkpt><trkpt lat="44.897474659162924" lon="11.832170249645754"><ele>3.0</ele><time>2026-03-23T14:46:39Z</time></trkpt><trkpt lat="44.89749047365066" lon="11.832281250816095"><ele>3.0</ele><time>2026-03-23T14:46:41Z</time></trkpt><trkpt lat="44.8975081195808" lon="11.832391904851448"><ele>3.0</ele><time>2026-03-23T14:46:43Z</time></trkpt><trkpt lat="44.897522759021314" lon="11.83249036510866"><ele>3.0</ele><time>2026-03-23T14:46:45Z</time></trkpt><trkpt lat="44.8975478885213" lon="11.832600209780306"><ele>3.0</ele><time>2026-03-23T14:46:47Z</time></trkpt><trkpt lat="44.89757093379437" lon="11.83270593619926"><ele>3.0</ele><time>2026-03-23T14:46:49Z</time></trkpt><trkpt lat="44.89758516921607" lon="11.832834993848483"><ele>3.0</ele><time>2026-03-23T14:46:51Z</time></trkpt><trkpt lat="44.89761699343464" lon="11.832962149110893"><ele>3.0</ele><time>2026-03-23T14:46:53Z</time></trkpt><trkpt lat="44.89762961198188" lon="11.833099427074854"><ele>3.0</ele><time>2026-03-23T14:46:55Z</time></trkpt><trkpt lat="44.897649057795235" lon="11.833233746029665"><ele>3.2</ele><time>2026-03-23T14:46:57Z</time></trkpt><trkpt lat="44.89767562848889" lon="11.833362950904785"><ele>3.4</ele><time>2026-03-23T14:46:59Z</time></trkpt><trkpt lat="44.89769493332066" lon="11.833489498267369"><ele>3.6000000000000005</ele><time>2026-03-23T14:47:01Z</time></trkpt><trkpt lat="44.89771782937561" lon="11.83362396912114"><ele>3.8000000000000003</ele><time>2026-03-23T14:47:03Z</time></trkpt><trkpt lat="44.89773575158727" lon="11.833758158778169"><ele>4.0</ele><time>2026-03-23T14:47:05Z</time></trkpt><trkpt lat="44.89775795866776" lon="11.833897458606046"><ele>3.9999999999999996</ele><time>2026-03-23T14:47:07Z</time></trkpt><trkpt lat="44.89778225601173" lon="11.834020561971009"><ele>4.0</ele><time>2026-03-23T14:47:09Z</time></trkpt><trkpt lat="44.89779483495646" lon="11.834138806451595"><ele>4.0</ele><time>2026-03-23T14:47:11Z</time></trkpt><trkpt lat="44.89781903200156" lon="11.834243525980922"><ele>4.0</ele><time>2026-03-23T14:47:13Z</time></trkpt><trkpt lat="44.897838199538164" lon="11.834364798440028"><ele>3.9999999999999996</ele><time>2026-03-23T14:47:15Z</time></trkpt><trkpt lat="44.89785370804348" lon="11.834460844642622"><ele>4.0</ele><time>2026-03-23T14:47:17Z</time></trkpt><trkpt lat="44.89787131202664" lon="11.834573510246843"><ele>3.833333333333333</ele><time>2026-03-23T14:47:19Z</time></trkpt><trkpt lat="44.89789155789891" lon="11.834687536871202"><ele>3.6666666666666665</ele><time>2026-03-23T14:47:21Z</time></trkpt><trkpt lat="44.8979107624411" lon="11.834794273616408"><ele>3.5</ele><time>2026-03-23T14:47:23Z</time></trkpt><trkpt lat="44.89792509950307" lon="11.834915852467347"><ele>3.333333333333333</ele><time>2026-03-23T14:47:25Z</time></trkpt><trkpt lat="44.89794237977485" lon="11.835026171851949"><ele>3.1666666666666665</ele><time>2026-03-23T14:47:27Z</time></trkpt><trkpt lat="44.89795469596858" lon="11.835125526611114"><ele>3.0</ele><time>2026-03-23T14:47:29Z</time></trkpt><trkpt lat="44.89798416484396" lon="11.835213923245826"><ele>3.0</ele><time>2026-03-23T14:47:31Z</time></trkpt><trkpt lat="44.898055919868725" lon="11.835283584664086"><ele>3.0</ele><time>2026-03-23T14:47:34Z</time></trkpt><trkpt lat="44.89813931070689" lon="11.835293489853964"><ele>3.0</ele><time>2026-03-23T14:47:36Z</time></trkpt><trkpt lat="44.89823088251155" lon="11.835305279825247"><ele>3.0</ele><time>2026-03-23T14:47:38Z</time></trkpt><trkpt lat="44.898324024778674" lon="11.835320455117"><ele>3.0</ele><time>2026-03-23T14:47:40Z</time></trkpt><trkpt lat="44.8984136786602" lon="11.835332460867278"><ele>3.0</ele><time>2026-03-23T14:47:42Z</time></trkpt><trkpt lat="44.89850589516572" lon="11.835351224681355"><ele>3.0</ele><time>2026-03-23T14:47:44Z</time></trkpt><trkpt lat="44.89859672868027" lon="11.835376221801939"><ele>3.0</ele><time>2026-03-23T14:47:46Z</time></trkpt><trkpt lat="44.89868110266522" lon="11.835391377315633"><ele>3.0</ele><time>2026-03-23T14:47:47.999Z</time></trkpt><trkpt lat="44.89876214815201" lon="11.835399808543059"><ele>3.0</ele><time>2026-03-23T14:47:49.999Z</time></trkpt><trkpt lat="44.89884299057387" lon="11.83542777607045"><ele>3.0</ele><time>2026-03-23T14:47:51.999Z</time></trkpt><trkpt lat="44.89893263167944" lon="11.835454304586563"><ele>3.0</ele><time>2026-03-23T14:47:53.999Z</time></trkpt><trkpt lat="44.899028710474674" lon="11.835478280355556"><ele>3.0</ele><time>2026-03-23T14:47:55.999Z</time></trkpt><trkpt lat="44.89912270587127" lon="11.835498697653206"><ele>3.0</ele><time>2026-03-23T14:47:57.999Z</time></trkpt><trkpt lat="44.899211769568595" lon="11.835538011319239"><ele>3.0</ele><time>2026-03-23T14:47:59.999Z</time></trkpt><trkpt lat="44.8992953892924" lon="11.835564257339705"><ele>3.0</ele><time>2026-03-23T14:48:01.999Z</time></trkpt><trkpt lat="44.89937348922169" lon="11.835602060549435"><ele>3.0</ele><time>2026-03-23T14:48:03.999Z</time></trkpt><trkpt lat="44.899448465958436" lon="11.835652302234944"><ele>3.0</ele><time>2026-03-23T14:48:05.999Z</time></trkpt><trkpt lat="44.899517579894976" lon="11.835700532089993"><ele>2.8571428571428568</ele><time>2026-03-23T14:48:07.999Z</time></trkpt><trkpt lat="44.89958385641938" lon="11.835740406732135"><ele>2.7142857142857144</ele><time>2026-03-23T14:48:09.999Z</time></trkpt><trkpt lat="44.89964593680184" lon="11.835785829773265"><ele>2.571428571428571</ele><time>2026-03-23T14:48:11.999Z</time></trkpt><trkpt lat="44.899719567673216" lon="11.83582477101328"><ele>2.4285714285714284</ele><time>2026-03-23T14:48:14.999Z</time></trkpt><trkpt lat="44.89978489932373" lon="11.835814990106803"><ele>2.2857142857142856</ele><time>2026-03-23T14:48:17.999Z</time></trkpt><trkpt lat="44.899846679421515" lon="11.83577282998443"><ele>2.142857142857143</ele><time>2026-03-23T14:48:19.999Z</time></trkpt><trkpt lat="44.8999368095701" lon="11.835763625112435"><ele>2.0</ele><time>2026-03-23T14:48:21.999Z</time></trkpt><trkpt lat="44.90001459317081" lon="11.835825134669514"><ele>1.9999999999999998</ele><time>2026-03-23T14:48:23.999Z</time></trkpt><trkpt lat="44.90008495439402" lon="11.835863148364917"><ele>2.0</ele><time>2026-03-23T14:48:25.999Z</time></trkpt><trkpt lat="44.90015021819297" lon="11.835910191664395"><ele>2.0</ele><time>2026-03-23T14:48:27.999Z</time></trkpt><trkpt lat="44.90020983650295" lon="11.835939435945706"><ele>2.0</ele><time>2026-03-23T14:48:29.999Z</time></trkpt><trkpt lat="44.90028459058797" lon="11.835983620024695"><ele>1.9999999999999998</ele><time>2026-03-23T14:48:32.999Z</time></trkpt><trkpt lat="44.90025334832219" lon="11.836099284835782"><ele>2.0</ele><time>2026-03-23T14:48:35.999Z</time></trkpt><trkpt lat="44.90025836951665" lon="11.836228085978009"><ele>2.0</ele><time>2026-03-23T14:48:38.999Z</time></trkpt><trkpt lat="44.90030598508541" lon="11.836336935599531"><ele>2.0</ele><time>2026-03-23T14:48:40.999Z</time></trkpt><trkpt lat="44.900388235190135" lon="11.836403485476822"><ele>2.0</ele><time>2026-03-23T14:48:42.999Z</time></trkpt><trkpt lat="44.900480547596075" lon="11.836454072558876"><ele>2.0</ele><time>2026-03-23T14:48:45Z</time></trkpt><trkpt lat="44.9005691357765" lon="11.836511935487527"><ele>2.0</ele><time>2026-03-23T14:48:47Z</time></trkpt><trkpt lat="44.90065659619335" lon="11.836569195355358"><ele>2.0</ele><time>2026-03-23T14:48:49Z</time></trkpt><trkpt lat="44.90074292408642" lon="11.836626811711765"><ele>2.0</ele><time>2026-03-23T14:48:51Z</time></trkpt><trkpt lat="44.900835797003495" lon="11.836669988848211"><ele>2.0</ele><time>2026-03-23T14:48:53Z</time></trkpt><trkpt lat="44.90092736382817" lon="11.836717682445393"><ele>2.0</ele><time>2026-03-23T14:48:55Z</time></trkpt><trkpt lat="44.901018816933245" lon="11.836761103812323"><ele>2.0</ele><time>2026-03-23T14:48:57Z</time></trkpt><trkpt lat="44.901113882266756" lon="11.836801126071574"><ele>2.2</ele><time>2026-03-23T14:48:59Z</time></trkpt><trkpt lat="44.90120690327404" lon="11.836845813729175"><ele>2.4000000000000004</ele><time>2026-03-23T14:49:01Z</time></trkpt><trkpt lat="44.90130190740186" lon="11.836884725510764"><ele>2.5999999999999996</ele><time>2026-03-23T14:49:03Z</time></trkpt><trkpt lat="44.90139660564711" lon="11.836928876444576"><ele>2.8</ele><time>2026-03-23T14:49:05Z</time></trkpt><trkpt lat="44.90148946200652" lon="11.836975030328086"><ele>3.0</ele><time>2026-03-23T14:49:07Z</time></trkpt><trkpt lat="44.901582467524925" lon="11.837016781015414"><ele>3.0</ele><time>2026-03-23T14:49:09Z</time></trkpt><trkpt lat="44.90167774774868" lon="11.837066002610369"><ele>3.0</ele><time>2026-03-23T14:49:11Z</time></trkpt><trkpt lat="44.9017712497191" lon="11.837119202557375"><ele>3.0</ele><time>2026-03-23T14:49:13Z</time></trkpt><trkpt lat="44.90186131448553" lon="11.837175792841819"><ele>3.0</ele><time>2026-03-23T14:49:15Z</time></trkpt><trkpt lat="44.90195516209978" lon="11.837233560456498"><ele>3.0</ele><time>2026-03-23T14:49:17Z</time></trkpt><trkpt lat="44.90203996284435" lon="11.837299729505654"><ele>3.0</ele><time>2026-03-23T14:49:19Z</time></trkpt><trkpt lat="44.90212700918994" lon="11.837364598090378"><ele>3.0</ele><time>2026-03-23T14:49:21Z</time></trkpt><trkpt lat="44.9022120934306" lon="11.837429799558466"><ele>3.0</ele><time>2026-03-23T14:49:23Z</time></trkpt><trkpt lat="44.9022992308519" lon="11.837499904579602"><ele>3.0</ele><time>2026-03-23T14:49:25Z</time></trkpt><trkpt lat="44.90238548242551" lon="11.837565860377708"><ele>3.0</ele><time>2026-03-23T14:49:27Z</time></trkpt><trkpt lat="44.90247168676491" lon="11.837635787070289"><ele>3.0</ele><time>2026-03-23T14:49:29Z</time></trkpt><trkpt lat="44.902556835539464" lon="11.837708094614017"><ele>3.0</ele><time>2026-03-23T14:49:31Z</time></trkpt><trkpt lat="44.90264270264652" lon="11.837779017173675"><ele>3.0</ele><time>2026-03-23T14:49:32.999Z</time></trkpt><trkpt lat="44.90272734308493" lon="11.837854322543478"><ele>3.0</ele><time>2026-03-23T14:49:34.999Z</time></trkpt><trkpt lat="44.902810023109495" lon="11.837935582315533"><ele>3.0</ele><time>2026-03-23T14:49:36.999Z</time></trkpt><trkpt lat="44.902894086462084" lon="11.838015824089517"><ele>3.0</ele><time>2026-03-23T14:49:38.999Z</time></trkpt><trkpt lat="44.90297394041619" lon="11.838099453851168"><ele>3.0</ele><time>2026-03-23T14:49:40.999Z</time></trkpt><trkpt lat="44.90305408089743" lon="11.838182416648491"><ele>3.0</ele><time>2026-03-23T14:49:42.999Z</time></trkpt><trkpt lat="44.90313586137933" lon="11.838265326008386"><ele>3.0</ele><time>2026-03-23T14:49:44.999Z</time></trkpt><trkpt lat="44.90321523723474" lon="11.838351513975795"><ele>3.0</ele><time>2026-03-23T14:49:46.999Z</time></trkpt><trkpt lat="44.903294191087895" lon="11.838434557469911"><ele>2.8</ele><time>2026-03-23T14:49:48.999Z</time></trkpt><trkpt lat="44.903372429126954" lon="11.83851913521768"><ele>2.5999999999999996</ele><time>2026-03-23T14:49:50.999Z</time></trkpt><trkpt lat="44.903452232506574" lon="11.838602410192161"><ele>2.4000000000000004</ele><time>2026-03-23T14:49:52.999Z</time></trkpt><trkpt lat="44.90353537515754" lon="11.83868324756527"><ele>2.2</ele><time>2026-03-23T14:49:54.999Z</time></trkpt><trkpt lat="44.903616667781364" lon="11.838767048311011"><ele>2.0</ele><time>2026-03-23T14:49:56.999Z</time></trkpt><trkpt lat="44.90369570320686" lon="11.838849120401552"><ele>2.0</ele><time>2026-03-23T14:49:58.999Z</time></trkpt><trkpt lat="44.90377561209051" lon="11.838931565413308"><ele>2.0</ele><time>2026-03-23T14:50:00.999Z</time></trkpt><trkpt lat="44.90385623716661" lon="11.839015359164994"><ele>2.0</ele><time>2026-03-23T14:50:02.999Z</time></trkpt><trkpt lat="44.9039397450279" lon="11.83909545440027"><ele>2.0</ele><time>2026-03-23T14:50:04.999Z</time></trkpt><trkpt lat="44.90402588116784" lon="11.839171679863695"><ele>2.0</ele><time>2026-03-23T14:50:06.999Z</time></trkpt><trkpt lat="44.90411079878424" lon="11.839246913825802"><ele>1.8</ele><time>2026-03-23T14:50:08.999Z</time></trkpt><trkpt lat="44.90419631061149" lon="11.839316561170385"><ele>1.6</ele><time>2026-03-23T14:50:10.999Z</time></trkpt><trkpt lat="44.90428786408147" lon="11.83937665490683"><ele>1.4000000000000001</ele><time>2026-03-23T14:50:12.999Z</time></trkpt><trkpt lat="44.90437984756907" lon="11.839434514883944"><ele>1.2000000000000002</ele><time>2026-03-23T14:50:14.999Z</time></trkpt><trkpt lat="44.9044723831108" lon="11.83948586670767"><ele>1.0</ele><time>2026-03-23T14:50:16.999Z</time></trkpt><trkpt lat="44.90456623719589" lon="11.839535100416546"><ele>0.8</ele><time>2026-03-23T14:50:18.999Z</time></trkpt><trkpt lat="44.90465599848014" lon="11.839588662857269"><ele>0.6000000000000001</ele><time>2026-03-23T14:50:20.999Z</time></trkpt><trkpt lat="44.90475102637727" lon="11.839627991548246"><ele>0.4</ele><time>2026-03-23T14:50:22.999Z</time></trkpt><trkpt lat="44.90484768814593" lon="11.839666694369194"><ele>0.2</ele><time>2026-03-23T14:50:24.999Z</time></trkpt><trkpt lat="44.90494382356018" lon="11.839698985685697"><ele>0.0</ele><time>2026-03-23T14:50:26.999Z</time></trkpt><trkpt lat="44.90503786495375" lon="11.839729692620015"><ele>0.4</ele><time>2026-03-23T14:50:28.999Z</time></trkpt><trkpt lat="44.905137574216134" lon="11.839759082649028"><ele>0.8</ele><time>2026-03-23T14:50:30.999Z</time></trkpt><trkpt lat="44.905236741442046" lon="11.839784547742235"><ele>1.2000000000000002</ele><time>2026-03-23T14:50:32.999Z</time></trkpt><trkpt lat="44.90533351638932" lon="11.839812958867471"><ele>1.6</ele><time>2026-03-23T14:50:34.999Z</time></trkpt><trkpt lat="44.90543183488914" lon="11.839847925835322"><ele>2.0</ele><time>2026-03-23T14:50:36.999Z</time></trkpt><trkpt lat="44.90552800758475" lon="11.839894342085728"><ele>2.0</ele><time>2026-03-23T14:50:38.999Z</time></trkpt><trkpt lat="44.905623180671306" lon="11.839946231322674"><ele>2.0</ele><time>2026-03-23T14:50:40.999Z</time></trkpt><trkpt lat="44.905714330008145" lon="11.840008893940833"><ele>2.0</ele><time>2026-03-23T14:50:42.999Z</time></trkpt><trkpt lat="44.905803697833136" lon="11.840072310441524"><ele>2.0</ele><time>2026-03-23T14:50:44.999Z</time></trkpt><trkpt lat="44.90589065603256" lon="11.840140412237794"><ele>2.0</ele><time>2026-03-23T14:50:46.999Z</time></trkpt><trkpt lat="44.90597748891537" lon="11.840214384626028"><ele>2.0</ele><time>2026-03-23T14:50:48.999Z</time></trkpt><trkpt lat="44.90606163606735" lon="11.840290829485038"><ele>2.0</ele><time>2026-03-23T14:50:51Z</time></trkpt><trkpt lat="44.90614515010967" lon="11.840371716741709"><ele>2.0</ele><time>2026-03-23T14:50:53Z</time></trkpt><trkpt lat="44.90622956759007" lon="11.840448590749046"><ele>2.0</ele><time>2026-03-23T14:50:55Z</time></trkpt><trkpt lat="44.9063111167883" lon="11.840529807001412"><ele>2.0</ele><time>2026-03-23T14:50:57Z</time></trkpt><trkpt lat="44.90639350484836" lon="11.840613794221088"><ele>2.0</ele><time>2026-03-23T14:50:59Z</time></trkpt><trkpt lat="44.90647183219703" lon="11.84069991453133"><ele>2.0</ele><time>2026-03-23T14:51:01Z</time></trkpt><trkpt lat="44.906550146807035" lon="11.840786908886907"><ele>2.0</ele><time>2026-03-23T14:51:03Z</time></trkpt><trkpt lat="44.906627371090835" lon="11.84087811574364"><ele>2.0</ele><time>2026-03-23T14:51:05Z</time></trkpt><trkpt lat="44.90670618711319" lon="11.840969936701066"><ele>2.0</ele><time>2026-03-23T14:51:07Z</time></trkpt><trkpt lat="44.906764665424475" lon="11.841069691793274"><ele>2.6</ele><time>2026-03-23T14:51:09Z</time></trkpt><trkpt lat="44.90681870889535" lon="11.841174432678105"><ele>3.2</ele><time>2026-03-23T14:51:11Z</time></trkpt><trkpt lat="44.90686980746027" lon="11.841283323507811"><ele>3.8</ele><time>2026-03-23T14:51:13Z</time></trkpt><trkpt lat="44.906919968537835" lon="11.841399662951911"><ele>4.4</ele><time>2026-03-23T14:51:15Z</time></trkpt><trkpt lat="44.906964226381795" lon="11.841501452662117"><ele>5.0</ele><time>2026-03-23T14:51:17Z</time></trkpt><trkpt lat="44.907022186535826" lon="11.841599966761391"><ele>5.0</ele><time>2026-03-23T14:51:19Z</time></trkpt><trkpt lat="44.90705338184486" lon="11.841728817577641"><ele>5.0</ele><time>2026-03-23T14:51:21Z</time></trkpt><trkpt lat="44.907101473324246" lon="11.841856192852461"><ele>5.0</ele><time>2026-03-23T14:51:23Z</time></trkpt><trkpt lat="44.90714390574486" lon="11.841984336464217"><ele>5.0</ele><time>2026-03-23T14:51:25Z</time></trkpt><trkpt lat="44.907186045357236" lon="11.842112591872523"><ele>5.0</ele><time>2026-03-23T14:51:27Z</time></trkpt><trkpt lat="44.907228979694246" lon="11.842240769088852"><ele>4.6</ele><time>2026-03-23T14:51:29Z</time></trkpt><trkpt lat="44.90727194141262" lon="11.842367798998596"><ele>4.2</ele><time>2026-03-23T14:51:31Z</time></trkpt><trkpt lat="44.90730660364648" lon="11.842483287995373"><ele>3.8</ele><time>2026-03-23T14:51:33Z</time></trkpt><trkpt lat="44.90734168974208" lon="11.842606902795533"><ele>3.4</ele><time>2026-03-23T14:51:35Z</time></trkpt><trkpt lat="44.9073725783329" lon="11.84271795705805"><ele>3.0</ele><time>2026-03-23T14:51:37Z</time></trkpt><trkpt lat="44.90740274671993" lon="11.84283534499588"><ele>3.0</ele><time>2026-03-23T14:51:39Z</time></trkpt><trkpt lat="44.907430970160156" lon="11.842964204444796"><ele>3.0</ele><time>2026-03-23T14:51:41Z</time></trkpt><trkpt lat="44.907463162735496" lon="11.843082048867931"><ele>3.0</ele><time>2026-03-23T14:51:43Z</time></trkpt><trkpt lat="44.90749975716212" lon="11.843188080949766"><ele>3.0</ele><time>2026-03-23T14:51:45Z</time></trkpt><trkpt lat="44.907534238870966" lon="11.843304587383395"><ele>3.0</ele><time>2026-03-23T14:51:47Z</time></trkpt><trkpt lat="44.90757512476943" lon="11.843434108843578"><ele>2.6</ele><time>2026-03-23T14:51:49Z</time></trkpt><trkpt lat="44.9076120628865" lon="11.84356185240083"><ele>2.1999999999999997</ele><time>2026-03-23T14:51:51Z</time></trkpt><trkpt lat="44.90764906445825" lon="11.843695645260738"><ele>1.8</ele><time>2026-03-23T14:51:53Z</time></trkpt><trkpt lat="44.90768794534993" lon="11.84382969732262"><ele>1.4</ele><time>2026-03-23T14:51:54.999Z</time></trkpt><trkpt lat="44.90770126019639" lon="11.84396630230663"><ele>1.0</ele><time>2026-03-23T14:51:56.999Z</time></trkpt><trkpt lat="44.907709120160355" lon="11.84410253868198"><ele>1.0</ele><time>2026-03-23T14:51:58.999Z</time></trkpt><trkpt lat="44.90770968494011" lon="11.844241034612745"><ele>1.0</ele><time>2026-03-23T14:52:00.999Z</time></trkpt><trkpt lat="44.907705063751536" lon="11.844379754695211"><ele>1.0</ele><time>2026-03-23T14:52:02.999Z</time></trkpt><trkpt lat="44.907699649243504" lon="11.8445200506522"><ele>1.0</ele><time>2026-03-23T14:52:04.999Z</time></trkpt><trkpt lat="44.90769196692635" lon="11.84465221606762"><ele>1.0</ele><time>2026-03-23T14:52:06.999Z</time></trkpt><trkpt lat="44.90768948462533" lon="11.84477448440381"><ele>1.0</ele><time>2026-03-23T14:52:08.999Z</time></trkpt><trkpt lat="44.907695241510304" lon="11.844894036957374"><ele>1.0</ele><time>2026-03-23T14:52:10.999Z</time></trkpt><trkpt lat="44.90770087456166" lon="11.845011777448061"><ele>1.0</ele><time>2026-03-23T14:52:12.999Z</time></trkpt><trkpt lat="44.90771149957391" lon="11.84514112652302"><ele>1.0</ele><time>2026-03-23T14:52:14.999Z</time></trkpt><trkpt lat="44.907726953698486" lon="11.845276614861406"><ele>1.0</ele><time>2026-03-23T14:52:16.999Z</time></trkpt><trkpt lat="44.90775127961137" lon="11.845416049631375"><ele>1.2000000000000002</ele><time>2026-03-23T14:52:18.999Z</time></trkpt><trkpt lat="44.90777417685556" lon="11.84555136342971"><ele>1.4000000000000001</ele><time>2026-03-23T14:52:20.999Z</time></trkpt><trkpt lat="44.90779706020793" lon="11.84568969872186"><ele>1.6</ele><time>2026-03-23T14:52:22.999Z</time></trkpt><trkpt lat="44.90781936072881" lon="11.845826290585572"><ele>1.8</ele><time>2026-03-23T14:52:24.999Z</time></trkpt><trkpt lat="44.90784769665475" lon="11.84596333912532"><ele>2.0</ele><time>2026-03-23T14:52:26.999Z</time></trkpt><trkpt lat="44.90788036049397" lon="11.84609881902771"><ele>2.2</ele><time>2026-03-23T14:52:28.999Z</time></trkpt><trkpt lat="44.907910364080486" lon="11.846232693258502"><ele>2.4000000000000004</ele><time>2026-03-23T14:52:30.999Z</time></trkpt><trkpt lat="44.90795069988692" lon="11.846356665357796"><ele>2.5999999999999996</ele><time>2026-03-23T14:52:32.999Z</time></trkpt><trkpt lat="44.90799289165991" lon="11.846484649556759"><ele>2.8</ele><time>2026-03-23T14:52:34.999Z</time></trkpt><trkpt lat="44.90803853177145" lon="11.846608143170542"><ele>3.0</ele><time>2026-03-23T14:52:36.999Z</time></trkpt><trkpt lat="44.90808430847676" lon="11.846730749193814"><ele>3.0</ele><time>2026-03-23T14:52:38.999Z</time></trkpt><trkpt lat="44.90813144711824" lon="11.846858762758274"><ele>3.0</ele><time>2026-03-23T14:52:40.999Z</time></trkpt><trkpt lat="44.90817911111505" lon="11.84698377380143"><ele>3.0</ele><time>2026-03-23T14:52:42.999Z</time></trkpt><trkpt lat="44.90822705220111" lon="11.847110041371355"><ele>3.0</ele><time>2026-03-23T14:52:44.999Z</time></trkpt><trkpt lat="44.90827215553024" lon="11.847239036825302"><ele>3.0</ele><time>2026-03-23T14:52:46.999Z</time></trkpt><trkpt lat="44.90832126021592" lon="11.847364860111771"><ele>3.0</ele><time>2026-03-23T14:52:48.999Z</time></trkpt><trkpt lat="44.90836304512025" lon="11.847490841147595"><ele>3.0</ele><time>2026-03-23T14:52:50.999Z</time></trkpt><trkpt lat="44.90840353535851" lon="11.847608139031713"><ele>3.0</ele><time>2026-03-23T14:52:52.999Z</time></trkpt><trkpt lat="44.90844116385585" lon="11.847725694505934"><ele>3.0</ele><time>2026-03-23T14:52:54.999Z</time></trkpt><trkpt lat="44.908482440815" lon="11.847830836497119"><ele>3.0</ele><time>2026-03-23T14:52:57Z</time></trkpt><trkpt lat="44.908519925682974" lon="11.847953376880236"><ele>2.8</ele><time>2026-03-23T14:52:59Z</time></trkpt><trkpt lat="44.90855937461475" lon="11.848079981869851"><ele>2.5999999999999996</ele><time>2026-03-23T14:53:01Z</time></trkpt><trkpt lat="44.908591563795035" lon="11.848210073399066"><ele>2.4000000000000004</ele><time>2026-03-23T14:53:03Z</time></trkpt><trkpt lat="44.90862017160972" lon="11.848343013186703"><ele>2.2</ele><time>2026-03-23T14:53:05Z</time></trkpt><trkpt lat="44.90864821438092" lon="11.848479343344367"><ele>2.0</ele><time>2026-03-23T14:53:07Z</time></trkpt><trkpt lat="44.90867112874695" lon="11.848614445212162"><ele>2.0</ele><time>2026-03-23T14:53:09Z</time></trkpt><trkpt lat="44.9086938793549" lon="11.848752325838955"><ele>2.0</ele><time>2026-03-23T14:53:11Z</time></trkpt><trkpt lat="44.9087142621381" lon="11.84888749959761"><ele>2.0</ele><time>2026-03-23T14:53:13Z</time></trkpt><trkpt lat="44.9087328939108" lon="11.84902280504628"><ele>2.0</ele><time>2026-03-23T14:53:15Z</time></trkpt><trkpt lat="44.908752456119046" lon="11.849160851820654"><ele>2.0</ele><time>2026-03-23T14:53:17Z</time></trkpt><trkpt lat="44.90877519739462" lon="11.849297728686665"><ele>2.0</ele><time>2026-03-23T14:53:19Z</time></trkpt><trkpt lat="44.90879505113422" lon="11.849436942921551"><ele>2.0</ele><time>2026-03-23T14:53:21Z</time></trkpt><trkpt lat="44.90881542959875" lon="11.849577421979346"><ele>2.0</ele><time>2026-03-23T14:53:23Z</time></trkpt><trkpt lat="44.90883532189618" lon="11.849717333665884"><ele>2.0</ele><time>2026-03-23T14:53:25Z</time></trkpt><trkpt lat="44.90885319619426" lon="11.849856044701788"><ele>2.0</ele><time>2026-03-23T14:53:27Z</time></trkpt><trkpt lat="44.908865757678896" lon="11.849994095328332"><ele>2.0</ele><time>2026-03-23T14:53:29Z</time></trkpt><trkpt lat="44.90888141058523" lon="11.850134786938865"><ele>2.0</ele><time>2026-03-23T14:53:31Z</time></trkpt><trkpt lat="44.908895722693956" lon="11.85026956820569"><ele>2.0</ele><time>2026-03-23T14:53:33Z</time></trkpt><trkpt lat="44.90890650419766" lon="11.850404560799484"><ele>2.0</ele><time>2026-03-23T14:53:35Z</time></trkpt><trkpt lat="44.90891859565162" lon="11.850531581451236"><ele>2.0</ele><time>2026-03-23T14:53:37Z</time></trkpt><trkpt lat="44.908932805372075" lon="11.850658963996777"><ele>2.0</ele><time>2026-03-23T14:53:39Z</time></trkpt><trkpt lat="44.9089430191667" lon="11.8507929997189"><ele>2.0</ele><time>2026-03-23T14:53:41Z</time></trkpt><trkpt lat="44.90895913035381" lon="11.850920489878842"><ele>2.0</ele><time>2026-03-23T14:53:43Z</time></trkpt><trkpt lat="44.908971713155104" lon="11.851039138350966"><ele>2.0</ele><time>2026-03-23T14:53:45Z</time></trkpt><trkpt lat="44.908987386099646" lon="11.85116465459973"><ele>2.0</ele><time>2026-03-23T14:53:47Z</time></trkpt><trkpt lat="44.90901156979047" lon="11.851298558252804"><ele>2.2</ele><time>2026-03-23T14:53:49Z</time></trkpt><trkpt lat="44.90903287709305" lon="11.851430211811522"><ele>2.4000000000000004</ele><time>2026-03-23T14:53:51Z</time></trkpt><trkpt lat="44.90905498243593" lon="11.851559268685412"><ele>2.5999999999999996</ele><time>2026-03-23T14:53:53Z</time></trkpt><trkpt lat="44.90907874979052" lon="11.851693559317189"><ele>2.8</ele><time>2026-03-23T14:53:55Z</time></trkpt><trkpt lat="44.90910067674926" lon="11.851820205891812"><ele>3.0</ele><time>2026-03-23T14:53:57Z</time></trkpt><trkpt lat="44.90912348439884" lon="11.851942107775528"><ele>3.0</ele><time>2026-03-23T14:53:59Z</time></trkpt><trkpt lat="44.90914837380925" lon="11.852067356738656"><ele>3.0</ele><time>2026-03-23T14:54:01Z</time></trkpt><trkpt lat="44.909174402065354" lon="11.852197922373323"><ele>3.0</ele><time>2026-03-23T14:54:02.999Z</time></trkpt><trkpt lat="44.90920463208179" lon="11.852326715738421"><ele>3.0</ele><time>2026-03-23T14:54:04.999Z</time></trkpt><trkpt lat="44.90923987599945" lon="11.852447854322035"><ele>3.0</ele><time>2026-03-23T14:54:06.999Z</time></trkpt><trkpt lat="44.90927471289391" lon="11.852563899123151"><ele>2.8</ele><time>2026-03-23T14:54:08.999Z</time></trkpt><trkpt lat="44.90930680261422" lon="11.852670811827927"><ele>2.5999999999999996</ele><time>2026-03-23T14:54:10.999Z</time></trkpt><trkpt lat="44.90934534621166" lon="11.852774708607067"><ele>2.4000000000000004</ele><time>2026-03-23T14:54:12.999Z</time></trkpt><trkpt lat="44.9093946376684" lon="11.852888984910114"><ele>2.2</ele><time>2026-03-23T14:54:14.999Z</time></trkpt><trkpt lat="44.90945350091289" lon="11.853003703843767"><ele>2.0</ele><time>2026-03-23T14:54:16.999Z</time></trkpt><trkpt lat="44.90952053500992" lon="11.853109526149439"><ele>2.0</ele><time>2026-03-23T14:54:18.999Z</time></trkpt><trkpt lat="44.909588785358956" lon="11.853210350349647"><ele>2.0</ele><time>2026-03-23T14:54:20.999Z</time></trkpt><trkpt lat="44.90967083656634" lon="11.85331449458091"><ele>2.0</ele><time>2026-03-23T14:54:22.999Z</time></trkpt><trkpt lat="44.9097618096402" lon="11.853429970607552"><ele>2.0</ele><time>2026-03-23T14:54:24.999Z</time></trkpt><trkpt lat="44.90985678190045" lon="11.853546751659245"><ele>2.0</ele><time>2026-03-23T14:54:26.999Z</time></trkpt><trkpt lat="44.909909028987336" lon="11.853606744604544"><ele>1.9999999999999998</ele><time>2026-03-23T14:54:27.999Z</time></trkpt><trkpt lat="44.90995991520694" lon="11.853669039194141"><ele>2.0</ele><time>2026-03-23T14:54:28.999Z</time></trkpt><trkpt lat="44.910014026354766" lon="11.853733493757218"><ele>2.0</ele><time>2026-03-23T14:54:29.999Z</time></trkpt><trkpt lat="44.910069947281144" lon="11.853800801378817"><ele>1.9999999999999998</ele><time>2026-03-23T14:54:30.999Z</time></trkpt><trkpt lat="44.910123717256" lon="11.853866175642997"><ele>2.0</ele><time>2026-03-23T14:54:31.999Z</time></trkpt><trkpt lat="44.91017779117375" lon="11.853934697247658"><ele>2.0</ele><time>2026-03-23T14:54:32.999Z</time></trkpt><trkpt lat="44.9102335466076" lon="11.85400060903995"><ele>1.857142857142857</ele><time>2026-03-23T14:54:33.999Z</time></trkpt><trkpt lat="44.9102869512429" lon="11.854064845623176"><ele>1.714285714285714</ele><time>2026-03-23T14:54:34.999Z</time></trkpt><trkpt lat="44.910349155383315" lon="11.8541335207796"><ele>1.5714285714285714</ele><time>2026-03-23T14:54:35.999Z</time></trkpt><trkpt lat="44.91040465150178" lon="11.854202574816071"><ele>1.4285714285714284</ele><time>2026-03-23T14:54:36.999Z</time></trkpt><trkpt lat="44.91046119431476" lon="11.854275424948161"><ele>1.2857142857142856</ele><time>2026-03-23T14:54:37.999Z</time></trkpt><trkpt lat="44.91051470155059" lon="11.854345187567674"><ele>1.1428571428571428</ele><time>2026-03-23T14:54:38.999Z</time></trkpt><trkpt lat="44.91057150293811" lon="11.854410052381706"><ele>1.0</ele><time>2026-03-23T14:54:39.999Z</time></trkpt><trkpt lat="44.9106220253489" lon="11.854470687429972"><ele>1.0</ele><time>2026-03-23T14:54:40.999Z</time></trkpt><trkpt lat="44.910672719188746" lon="11.85453104082739"><ele>1.0</ele><time>2026-03-23T14:54:41.999Z</time></trkpt><trkpt lat="44.91072037862913" lon="11.85459128987156"><ele>1.0</ele><time>2026-03-23T14:54:42.999Z</time></trkpt><trkpt lat="44.910807350963694" lon="11.85471318110315"><ele>1.0</ele><time>2026-03-23T14:54:44.999Z</time></trkpt><trkpt lat="44.91088693949514" lon="11.854830935936763"><ele>1.0</ele><time>2026-03-23T14:54:46.999Z</time></trkpt><trkpt lat="44.910950618575654" lon="11.854960272089452"><ele>1.0</ele><time>2026-03-23T14:54:48.999Z</time></trkpt><trkpt lat="44.91101956934565" lon="11.855109555796812"><ele>1.0</ele><time>2026-03-23T14:54:50.999Z</time></trkpt><trkpt lat="44.911052122969096" lon="11.855186231049482"><ele>1.0</ele><time>2026-03-23T14:54:51.999Z</time></trkpt><trkpt lat="44.91108311127107" lon="11.855266098457523"><ele>1.0</ele><time>2026-03-23T14:54:52.999Z</time></trkpt><trkpt lat="44.91112662284424" lon="11.85542532316157"><ele>1.0</ele><time>2026-03-23T14:54:54.999Z</time></trkpt><trkpt lat="44.91116984585224" lon="11.855567002122934"><ele>1.1666666666666665</ele><time>2026-03-23T14:54:56.999Z</time></trkpt><trkpt lat="44.91120678781634" lon="11.85570668722953"><ele>1.3333333333333333</ele><time>2026-03-23T14:54:58.999Z</time></trkpt><trkpt lat="44.91124562160269" lon="11.855865603265883"><ele>1.5</ele><time>2026-03-23T14:55:00.999Z</time></trkpt><trkpt lat="44.91126820796588" lon="11.855949001381656"><ele>1.6666666666666665</ele><time>2026-03-23T14:55:02Z</time></trkpt><trkpt lat="44.91129050575432" lon="11.856033279926375"><ele>1.8333333333333333</ele><time>2026-03-23T14:55:03Z</time></trkpt><trkpt lat="44.911314424618176" lon="11.856119157022276"><ele>2.0</ele><time>2026-03-23T14:55:04Z</time></trkpt><trkpt lat="44.9113369022565" lon="11.856206941503126"><ele>2.0</ele><time>2026-03-23T14:55:05Z</time></trkpt><trkpt lat="44.911364813502466" lon="11.856293810382223"><ele>1.9999999999999998</ele><time>2026-03-23T14:55:06Z</time></trkpt><trkpt lat="44.91139150495647" lon="11.856385515964627"><ele>2.0</ele><time>2026-03-23T14:55:07Z</time></trkpt><trkpt lat="44.911420744716544" lon="11.856477510425869"><ele>2.0</ele><time>2026-03-23T14:55:08Z</time></trkpt><trkpt lat="44.91145400567473" lon="11.856569497031147"><ele>1.9999999999999998</ele><time>2026-03-23T14:55:09Z</time></trkpt><trkpt lat="44.911490273260235" lon="11.856659971348313"><ele>2.0</ele><time>2026-03-23T14:55:10Z</time></trkpt><trkpt lat="44.911525755217944" lon="11.856751946011796"><ele>2.0</ele><time>2026-03-23T14:55:11Z</time></trkpt><trkpt lat="44.9115632486906" lon="11.85684335753661"><ele>1.9999999999999998</ele><time>2026-03-23T14:55:12Z</time></trkpt><trkpt lat="44.91160465029127" lon="11.856931297638443"><ele>2.0</ele><time>2026-03-23T14:55:13Z</time></trkpt><trkpt lat="44.91165006886205" lon="11.857019483220697"><ele>2.0</ele><time>2026-03-23T14:55:14Z</time></trkpt><trkpt lat="44.91169844468793" lon="11.857104830226891"><ele>2.0</ele><time>2026-03-23T14:55:15Z</time></trkpt><trkpt lat="44.91174172749526" lon="11.857190870313444"><ele>1.9999999999999998</ele><time>2026-03-23T14:55:16Z</time></trkpt><trkpt lat="44.91179058712179" lon="11.85727662250338"><ele>2.0</ele><time>2026-03-23T14:55:17Z</time></trkpt><trkpt lat="44.911840209048805" lon="11.857361998993877"><ele>2.0</ele><time>2026-03-23T14:55:18Z</time></trkpt><trkpt lat="44.9118861530845" lon="11.857445733218523"><ele>1.9999999999999998</ele><time>2026-03-23T14:55:19Z</time></trkpt><trkpt lat="44.911934699208615" lon="11.857526850439537"><ele>2.0</ele><time>2026-03-23T14:55:20Z</time></trkpt><trkpt lat="44.9119765956864" lon="11.857609133391463"><ele>2.0</ele><time>2026-03-23T14:55:21Z</time></trkpt><trkpt lat="44.91202047403104" lon="11.857686735903549"><ele>1.9999999999999998</ele><time>2026-03-23T14:55:22Z</time></trkpt><trkpt lat="44.912062264775116" lon="11.857759263216158"><ele>2.0</ele><time>2026-03-23T14:55:23Z</time></trkpt><trkpt lat="44.91210354792913" lon="11.857833170766455"><ele>2.0</ele><time>2026-03-23T14:55:24Z</time></trkpt><trkpt lat="44.912143957684215" lon="11.85790341667315"><ele>2.0</ele><time>2026-03-23T14:55:25Z</time></trkpt><trkpt lat="44.91218575128651" lon="11.85796994016061"><ele>2.0</ele><time>2026-03-23T14:55:26Z</time></trkpt><trkpt lat="44.91226900684685" lon="11.858092617061262"><ele>2.0</ele><time>2026-03-23T14:55:28Z</time></trkpt><trkpt lat="44.91234474488655" lon="11.858213256773409"><ele>2.0</ele><time>2026-03-23T14:55:30Z</time></trkpt><trkpt lat="44.912421507985364" lon="11.858316081866416"><ele>2.0</ele><time>2026-03-23T14:55:32Z</time></trkpt><trkpt lat="44.91248084980725" lon="11.858427925992666"><ele>1.8</ele><time>2026-03-23T14:55:34Z</time></trkpt><trkpt lat="44.91255112469179" lon="11.858520921219432"><ele>1.6</ele><time>2026-03-23T14:55:36Z</time></trkpt><trkpt lat="44.9126095180555" lon="11.858623709842554"><ele>1.4000000000000001</ele><time>2026-03-23T14:55:38Z</time></trkpt><trkpt lat="44.91268431641095" lon="11.858720561516245"><ele>1.2000000000000002</ele><time>2026-03-23T14:55:40Z</time></trkpt><trkpt lat="44.91275676307109" lon="11.858813728556777"><ele>1.0</ele><time>2026-03-23T14:55:42Z</time></trkpt><trkpt lat="44.91281794549171" lon="11.85890611600762"><ele>0.9999999999999999</ele><time>2026-03-23T14:55:44Z</time></trkpt><trkpt lat="44.91287752041596" lon="11.858987150262362"><ele>1.0</ele><time>2026-03-23T14:55:46Z</time></trkpt><trkpt lat="44.91293148940106" lon="11.859062042821757"><ele>1.0</ele><time>2026-03-23T14:55:48Z</time></trkpt><trkpt lat="44.912989554856104" lon="11.85914609501938"><ele>1.0</ele><time>2026-03-23T14:55:50Z</time></trkpt><trkpt lat="44.91304353188285" lon="11.859226026968724"><ele>0.9999999999999999</ele><time>2026-03-23T14:55:52Z</time></trkpt><trkpt lat="44.913103172482025" lon="11.859304551829695"><ele>1.0</ele><time>2026-03-23T14:55:54Z</time></trkpt><trkpt lat="44.91317351354901" lon="11.859399531374516"><ele>1.2000000000000002</ele><time>2026-03-23T14:55:56Z</time></trkpt><trkpt lat="44.913235241493965" lon="11.85948273938073"><ele>1.4000000000000001</ele><time>2026-03-23T14:55:58Z</time></trkpt><trkpt lat="44.91329596165098" lon="11.859579325971453"><ele>1.6</ele><time>2026-03-23T14:56:00Z</time></trkpt><trkpt lat="44.91336491985016" lon="11.85967478274673"><ele>1.8</ele><time>2026-03-23T14:56:02Z</time></trkpt><trkpt lat="44.91342842647347" lon="11.859766422173793"><ele>2.0</ele><time>2026-03-23T14:56:04Z</time></trkpt><trkpt lat="44.91349595545065" lon="11.859858466797013"><ele>1.9999999999999998</ele><time>2026-03-23T14:56:06Z</time></trkpt><trkpt lat="44.913568334524705" lon="11.85995928184388"><ele>2.0</ele><time>2026-03-23T14:56:08Z</time></trkpt><trkpt lat="44.91363522005903" lon="11.860048677848878"><ele>2.0</ele><time>2026-03-23T14:56:10Z</time></trkpt><trkpt lat="44.91369848125168" lon="11.860130624708324"><ele>2.0</ele><time>2026-03-23T14:56:12Z</time></trkpt><trkpt lat="44.91375777764568" lon="11.86021283556959"><ele>1.9999999999999998</ele><time>2026-03-23T14:56:13.999Z</time></trkpt><trkpt lat="44.91381230586829" lon="11.860303506817635"><ele>2.0</ele><time>2026-03-23T14:56:15.999Z</time></trkpt><trkpt lat="44.91387667997701" lon="11.86038746995653"><ele>2.0</ele><time>2026-03-23T14:56:17.999Z</time></trkpt><trkpt lat="44.913939307604" lon="11.86046857459891"><ele>2.0</ele><time>2026-03-23T14:56:19.999Z</time></trkpt><trkpt lat="44.91401164479812" lon="11.860581711096115"><ele>2.0</ele><time>2026-03-23T14:56:21.999Z</time></trkpt><trkpt lat="44.91408959233337" lon="11.86070411806921"><ele>2.0</ele><time>2026-03-23T14:56:23.999Z</time></trkpt><trkpt lat="44.91413530968221" lon="11.860768810170528"><ele>2.0</ele><time>2026-03-23T14:56:24.999Z</time></trkpt><trkpt lat="44.91421863305652" lon="11.860885755050527"><ele>1.75</ele><time>2026-03-23T14:56:26.999Z</time></trkpt><trkpt lat="44.91430133377444" lon="11.860999848297133"><ele>1.5</ele><time>2026-03-23T14:56:28.999Z</time></trkpt><trkpt lat="44.914386588798486" lon="11.861111741527097"><ele>1.25</ele><time>2026-03-23T14:56:30.999Z</time></trkpt><trkpt lat="44.91447137513896" lon="11.861230211826909"><ele>1.0</ele><time>2026-03-23T14:56:32.999Z</time></trkpt><trkpt lat="44.9145616813899" lon="11.86135876472557"><ele>0.9999999999999999</ele><time>2026-03-23T14:56:34.999Z</time></trkpt><trkpt lat="44.9146071882916" lon="11.861424935283654"><ele>1.0</ele><time>2026-03-23T14:56:35.999Z</time></trkpt><trkpt lat="44.91465575103435" lon="11.861491472080248"><ele>1.0</ele><time>2026-03-23T14:56:36.999Z</time></trkpt><trkpt lat="44.914696974692625" lon="11.861563430631248"><ele>1.0</ele><time>2026-03-23T14:56:37.999Z</time></trkpt><trkpt lat="44.9147318217418" lon="11.861641897194103"><ele>0.9999999999999999</ele><time>2026-03-23T14:56:38.999Z</time></trkpt><trkpt lat="44.914807635211304" lon="11.861770796422656"><ele>1.0</ele><time>2026-03-23T14:56:40.999Z</time></trkpt><trkpt lat="44.91489190133268" lon="11.861882713280108"><ele>1.0</ele><time>2026-03-23T14:56:42.999Z</time></trkpt><trkpt lat="44.914947684021314" lon="11.861999763870374"><ele>1.0</ele><time>2026-03-23T14:56:44.999Z</time></trkpt><trkpt lat="44.91499910799563" lon="11.862123009268013"><ele>1.0</ele><time>2026-03-23T14:56:46.999Z</time></trkpt><trkpt lat="44.915063000037776" lon="11.862247913462735"><ele>1.0</ele><time>2026-03-23T14:56:48.999Z</time></trkpt><trkpt lat="44.91513762262301" lon="11.86237709075597"><ele>1.0</ele><time>2026-03-23T14:56:50.999Z</time></trkpt><trkpt lat="44.91518443662997" lon="11.862516513380802"><ele>0.6000000000000001</ele><time>2026-03-23T14:56:52.999Z</time></trkpt><trkpt lat="44.91522032132784" lon="11.86265439406417"><ele>0.20000000000000007</ele><time>2026-03-23T14:56:54.999Z</time></trkpt><trkpt lat="44.91525815353732" lon="11.86278089951104"><ele>-0.20000000000000007</ele><time>2026-03-23T14:56:56.999Z</time></trkpt><trkpt lat="44.915293185958944" lon="11.862903573233165"><ele>-0.6000000000000001</ele><time>2026-03-23T14:56:58.999Z</time></trkpt><trkpt lat="44.915317256814404" lon="11.86302606963125"><ele>-1.0</ele><time>2026-03-23T14:57:00.999Z</time></trkpt><trkpt lat="44.91534826503935" lon="11.863140829929534"><ele>-0.9999999999999999</ele><time>2026-03-23T14:57:02.999Z</time></trkpt><trkpt lat="44.91535432561512" lon="11.86325536014271"><ele>-1.0</ele><time>2026-03-23T14:57:04.999Z</time></trkpt><trkpt lat="44.91533939587811" lon="11.86336850862078"><ele>-1.0</ele><time>2026-03-23T14:57:06.999Z</time></trkpt><trkpt lat="44.91534648524328" lon="11.863475422503608"><ele>-1.0</ele><time>2026-03-23T14:57:09Z</time></trkpt><trkpt lat="44.91535940128302" lon="11.863580183651731"><ele>-0.9999999999999999</ele><time>2026-03-23T14:57:11Z</time></trkpt><trkpt lat="44.91533360628605" lon="11.863678415351082"><ele>-1.0</ele><time>2026-03-23T14:57:13Z</time></trkpt><trkpt lat="44.91533440071841" lon="11.863775054704286"><ele>-0.6666666666666666</ele><time>2026-03-23T14:57:15Z</time></trkpt><trkpt lat="44.91532095647195" lon="11.863865155345"><ele>-0.3333333333333333</ele><time>2026-03-23T14:57:17Z</time></trkpt><trkpt lat="44.91531729220766" lon="11.863956084102268"><ele>0.0</ele><time>2026-03-23T14:57:19Z</time></trkpt><trkpt lat="44.91529987961425" lon="11.864084246728066"><ele>0.3333333333333333</ele><time>2026-03-23T14:57:22Z</time></trkpt><trkpt lat="44.91529046269728" lon="11.864209728556824"><ele>0.6666666666666666</ele><time>2026-03-23T14:57:24Z</time></trkpt><trkpt lat="44.91528671875811" lon="11.864329052954432"><ele>1.0</ele><time>2026-03-23T14:57:26Z</time></trkpt><trkpt lat="44.91526722609679" lon="11.864456638701007"><ele>1.1666666666666665</ele><time>2026-03-23T14:57:28Z</time></trkpt><trkpt lat="44.91526223977909" lon="11.864592107924919"><ele>1.3333333333333333</ele><time>2026-03-23T14:57:30Z</time></trkpt><trkpt lat="44.915252321265754" lon="11.864718429896165"><ele>1.5</ele><time>2026-03-23T14:57:32Z</time></trkpt><trkpt lat="44.91524049288846" lon="11.86484288012626"><ele>1.6666666666666665</ele><time>2026-03-23T14:57:34Z</time></trkpt><trkpt lat="44.91523333966716" lon="11.864957781106865"><ele>1.8333333333333333</ele><time>2026-03-23T14:57:36Z</time></trkpt><trkpt lat="44.91523695975455" lon="11.865066304622172"><ele>2.0</ele><time>2026-03-23T14:57:38Z</time></trkpt><trkpt lat="44.91523773333286" lon="11.86519073857476"><ele>1.9999999999999998</ele><time>2026-03-23T14:57:40Z</time></trkpt><trkpt lat="44.91522408587275" lon="11.865327668516725"><ele>2.0</ele><time>2026-03-23T14:57:42Z</time></trkpt><trkpt lat="44.91519633878118" lon="11.865452507137496"><ele>2.0</ele><time>2026-03-23T14:57:44Z</time></trkpt><trkpt lat="44.91520054853368" lon="11.865575453164311"><ele>2.0</ele><time>2026-03-23T14:57:46Z</time></trkpt><trkpt lat="44.9151844277744" lon="11.865688468034365"><ele>1.9999999999999998</ele><time>2026-03-23T14:57:48Z</time></trkpt><trkpt lat="44.915176514794275" lon="11.865803540702066"><ele>2.0</ele><time>2026-03-23T14:57:50Z</time></trkpt><trkpt lat="44.91517839190452" lon="11.865946795375626"><ele>1.9999999999999998</ele><time>2026-03-23T14:57:52Z</time></trkpt><trkpt lat="44.91518272266518" lon="11.866087555956714"><ele>2.0</ele><time>2026-03-23T14:57:54Z</time></trkpt><trkpt lat="44.91520136913892" lon="11.86621564938679"><ele>2.0</ele><time>2026-03-23T14:57:56Z</time></trkpt><trkpt lat="44.91521959758936" lon="11.86632726039621"><ele>2.0</ele><time>2026-03-23T14:57:58Z</time></trkpt><trkpt lat="44.91523883521015" lon="11.866430982448074"><ele>1.9999999999999998</ele><time>2026-03-23T14:58:00Z</time></trkpt><trkpt lat="44.91527752423028" lon="11.86652389413628"><ele>2.0</ele><time>2026-03-23T14:58:02Z</time></trkpt><trkpt lat="44.91531110240402" lon="11.866613467892872"><ele>1.9999999999999998</ele><time>2026-03-23T14:58:04Z</time></trkpt><trkpt lat="44.915353595937844" lon="11.866702961364394"><ele>2.0</ele><time>2026-03-23T14:58:06Z</time></trkpt><trkpt lat="44.915420025745824" lon="11.866785182887094"><ele>2.0</ele><time>2026-03-23T14:58:08Z</time></trkpt><trkpt lat="44.915477759477355" lon="11.866861582956483"><ele>2.0</ele><time>2026-03-23T14:58:09.999Z</time></trkpt><trkpt lat="44.915534459423206" lon="11.866933395883136"><ele>1.9999999999999998</ele><time>2026-03-23T14:58:11.999Z</time></trkpt><trkpt lat="44.91559199331666" lon="11.86700318114017"><ele>2.0</ele><time>2026-03-23T14:58:13.999Z</time></trkpt><trkpt lat="44.9156484782475" lon="11.867068095483559"><ele>1.9999999999999998</ele><time>2026-03-23T14:58:15.999Z</time></trkpt><trkpt lat="44.915725390331836" lon="11.867149614647849"><ele>2.0</ele><time>2026-03-23T14:58:17.999Z</time></trkpt><trkpt lat="44.915793823203906" lon="11.867232129205787"><ele>2.0</ele><time>2026-03-23T14:58:19.999Z</time></trkpt><trkpt lat="44.91585265194898" lon="11.867307157690185"><ele>2.0</ele><time>2026-03-23T14:58:21.999Z</time></trkpt><trkpt lat="44.9159200747278" lon="11.867374857779364"><ele>1.9999999999999998</ele><time>2026-03-23T14:58:23.999Z</time></trkpt><trkpt lat="44.91597273386794" lon="11.86743894661859"><ele>2.0</ele><time>2026-03-23T14:58:25.999Z</time></trkpt><trkpt lat="44.91602560067504" lon="11.86749818750308"><ele>1.9999999999999998</ele><time>2026-03-23T14:58:27.999Z</time></trkpt><trkpt lat="44.916085783703004" lon="11.86756787962168"><ele>2.0</ele><time>2026-03-23T14:58:29.999Z</time></trkpt><trkpt lat="44.91614898259348" lon="11.86763439322983"><ele>2.0</ele><time>2026-03-23T14:58:31.999Z</time></trkpt><trkpt lat="44.9161982901544" lon="11.867702949242501"><ele>2.0</ele><time>2026-03-23T14:58:33.999Z</time></trkpt><trkpt lat="44.916260932422304" lon="11.867743331764867"><ele>1.9999999999999998</ele><time>2026-03-23T14:58:35.999Z</time></trkpt><trkpt lat="44.91633214878251" lon="11.867822928876565"><ele>2.0</ele><time>2026-03-23T14:58:37.999Z</time></trkpt><trkpt lat="44.91639221417765" lon="11.867916185802592"><ele>1.9999999999999998</ele><time>2026-03-23T14:58:39.999Z</time></trkpt><trkpt lat="44.91646806159219" lon="11.867974788048308"><ele>2.0</ele><time>2026-03-23T14:58:41.999Z</time></trkpt><trkpt lat="44.9165152964406" lon="11.868073832817954"><ele>2.0</ele><time>2026-03-23T14:58:43.999Z</time></trkpt><trkpt lat="44.916588079061306" lon="11.868146153145899"><ele>2.0</ele><time>2026-03-23T14:58:45.999Z</time></trkpt><trkpt lat="44.91665122331628" lon="11.868222317611457"><ele>1.9999999999999998</ele><time>2026-03-23T14:58:47.999Z</time></trkpt><trkpt lat="44.916719039077556" lon="11.868289519835365"><ele>2.0</ele><time>2026-03-23T14:58:49.999Z</time></trkpt><trkpt lat="44.9167958244055" lon="11.868368481911594"><ele>1.8</ele><time>2026-03-23T14:58:51.999Z</time></trkpt><trkpt lat="44.91686453241027" lon="11.868445400308532"><ele>1.6</ele><time>2026-03-23T14:58:53.999Z</time></trkpt><trkpt lat="44.91692462112797" lon="11.868535656168758"><ele>1.4000000000000001</ele><time>2026-03-23T14:58:55.999Z</time></trkpt><trkpt lat="44.91688098564444" lon="11.868698927235373"><ele>1.2000000000000002</ele><time>2026-03-23T14:58:58.999Z</time></trkpt><trkpt lat="44.91683975473362" lon="11.868795241962559"><ele>1.0</ele><time>2026-03-23T14:59:00.999Z</time></trkpt><trkpt lat="44.916786015605325" lon="11.868866380446306"><ele>0.9999999999999999</ele><time>2026-03-23T14:59:02.999Z</time></trkpt><trkpt lat="44.916727438897816" lon="11.868968390896004"><ele>1.0</ele><time>2026-03-23T14:59:05.999Z</time></trkpt><trkpt lat="44.916663693984084" lon="11.869079423953039"><ele>1.0</ele><time>2026-03-23T14:59:08.999Z</time></trkpt><trkpt lat="44.91660919833343" lon="11.869163301601075"><ele>1.0</ele><time>2026-03-23T14:59:10.999Z</time></trkpt><trkpt lat="44.91656973072383" lon="11.869241600580224"><ele>0.9999999999999999</ele><time>2026-03-23T14:59:21Z</time></trkpt><trkpt lat="44.91652594788787" lon="11.869323309892552"><ele>1.0</ele><time>2026-03-23T15:01:38Z</time></trkpt><trkpt lat="44.91650037144713" lon="11.86944245787816"><ele>0.8333333333333333</ele><time>2026-03-23T15:01:41Z</time></trkpt><trkpt lat="44.91644823398856" lon="11.869508096825562"><ele>0.6666666666666666</ele><time>2026-03-23T15:01:43Z</time></trkpt><trkpt lat="44.916401186843494" lon="11.869594286557863"><ele>0.5</ele><time>2026-03-23T15:01:45Z</time></trkpt><trkpt lat="44.91634346935325" lon="11.8696941329688"><ele>0.3333333333333333</ele><time>2026-03-23T15:01:47Z</time></trkpt><trkpt lat="44.916278021568424" lon="11.869799270611317"><ele>0.16666666666666666</ele><time>2026-03-23T15:01:49Z</time></trkpt><trkpt lat="44.91621574731547" lon="11.869908970207234"><ele>0.0</ele><time>2026-03-23T15:01:51Z</time></trkpt><trkpt lat="44.916156035240896" lon="11.87001781555423"><ele>0.2</ele><time>2026-03-23T15:01:53Z</time></trkpt><trkpt lat="44.91609467095068" lon="11.870124400013024"><ele>0.4</ele><time>2026-03-23T15:01:55Z</time></trkpt><trkpt lat="44.916042766168246" lon="11.870212035940213"><ele>0.6000000000000001</ele><time>2026-03-23T15:01:57Z</time></trkpt><trkpt lat="44.91597766290304" lon="11.870317566611956"><ele>0.8</ele><time>2026-03-23T15:01:59Z</time></trkpt><trkpt lat="44.91590998945025" lon="11.870420086713677"><ele>1.0</ele><time>2026-03-23T15:02:01Z</time></trkpt><trkpt lat="44.91582468182372" lon="11.870502751519949"><ele>1.0</ele><time>2026-03-23T15:02:03Z</time></trkpt><trkpt lat="44.91574073246514" lon="11.870579646974498"><ele>1.0</ele><time>2026-03-23T15:02:05Z</time></trkpt><trkpt lat="44.91565448412083" lon="11.87063828524781"><ele>1.0</ele><time>2026-03-23T15:02:07Z</time></trkpt><trkpt lat="44.91556204850965" lon="11.870699139843346"><ele>1.0</ele><time>2026-03-23T15:02:09Z</time></trkpt><trkpt lat="44.915471742285945" lon="11.87076020422533"><ele>1.0</ele><time>2026-03-23T15:02:11Z</time></trkpt><trkpt lat="44.91537723499826" lon="11.87081563632469"><ele>1.0</ele><time>2026-03-23T15:02:13Z</time></trkpt><trkpt lat="44.9152856267277" lon="11.870874584193768"><ele>1.0</ele><time>2026-03-23T15:02:15Z</time></trkpt><trkpt lat="44.91519574724319" lon="11.870931736764488"><ele>1.0</ele><time>2026-03-23T15:02:17Z</time></trkpt><trkpt lat="44.91510593450423" lon="11.870990452634379"><ele>1.0</ele><time>2026-03-23T15:02:19Z</time></trkpt><trkpt lat="44.91501798045415" lon="11.871048761257352"><ele>1.0</ele><time>2026-03-23T15:02:21Z</time></trkpt><trkpt lat="44.914929741745546" lon="11.871108891046408"><ele>1.4</ele><time>2026-03-23T15:02:23Z</time></trkpt><trkpt lat="44.91484330144154" lon="11.871171934373761"><ele>1.8</ele><time>2026-03-23T15:02:25Z</time></trkpt><trkpt lat="44.914762584927104" lon="11.87125038636478"><ele>2.1999999999999997</ele><time>2026-03-23T15:02:27Z</time></trkpt><trkpt lat="44.91468564996562" lon="11.871336001957216"><ele>2.6</ele><time>2026-03-23T15:02:29Z</time></trkpt><trkpt lat="44.91460983639636" lon="11.871416869332913"><ele>3.0</ele><time>2026-03-23T15:02:30.999Z</time></trkpt><trkpt lat="44.9145440313743" lon="11.87150316487674"><ele>3.0</ele><time>2026-03-23T15:02:32.999Z</time></trkpt><trkpt lat="44.91447543667093" lon="11.871589380191743"><ele>3.0</ele><time>2026-03-23T15:02:34.999Z</time></trkpt><trkpt lat="44.91440028850404" lon="11.871693533527084"><ele>3.0</ele><time>2026-03-23T15:02:36.999Z</time></trkpt><trkpt lat="44.91432089020483" lon="11.871809077814982"><ele>3.0</ele><time>2026-03-23T15:02:38.999Z</time></trkpt><trkpt lat="44.91424852421358" lon="11.87194949981026"><ele>3.0</ele><time>2026-03-23T15:02:40.999Z</time></trkpt><trkpt lat="44.91421079274408" lon="11.87202267954339"><ele>2.9999999999999996</ele><time>2026-03-23T15:02:41.999Z</time></trkpt><trkpt lat="44.91417515278933" lon="11.872104272779172"><ele>3.0</ele><time>2026-03-23T15:02:42.999Z</time></trkpt><trkpt lat="44.91414253262506" lon="11.872187860240317"><ele>3.0</ele><time>2026-03-23T15:02:43.999Z</time></trkpt><trkpt lat="44.91410464251717" lon="11.872275247463094"><ele>3.0</ele><time>2026-03-23T15:02:44.999Z</time></trkpt><trkpt lat="44.91406766221824" lon="11.872364495904957"><ele>3.0</ele><time>2026-03-23T15:02:45.999Z</time></trkpt><trkpt lat="44.91402758194188" lon="11.872448727642182"><ele>2.9999999999999996</ele><time>2026-03-23T15:02:46.999Z</time></trkpt><trkpt lat="44.91398634201633" lon="11.872541163437427"><ele>3.0</ele><time>2026-03-23T15:02:47.999Z</time></trkpt><trkpt lat="44.91394789913422" lon="11.872630780021487"><ele>3.0</ele><time>2026-03-23T15:02:48.999Z</time></trkpt><trkpt lat="44.91390815098307" lon="11.872723024940688"><ele>3.0</ele><time>2026-03-23T15:02:49.999Z</time></trkpt><trkpt lat="44.91387102970024" lon="11.872817335045589"><ele>3.0</ele><time>2026-03-23T15:02:50.999Z</time></trkpt><trkpt lat="44.913829042592226" lon="11.872912345637955"><ele>3.0</ele><time>2026-03-23T15:02:51.999Z</time></trkpt><trkpt lat="44.91378600518854" lon="11.873005709261328"><ele>3.0</ele><time>2026-03-23T15:02:52.999Z</time></trkpt><trkpt lat="44.913745025387065" lon="11.873098023383582"><ele>3.0</ele><time>2026-03-23T15:02:53.999Z</time></trkpt><trkpt lat="44.91369967944245" lon="11.87318817899307"><ele>3.0</ele><time>2026-03-23T15:02:54.999Z</time></trkpt><trkpt lat="44.913653247687776" lon="11.873276476302848"><ele>3.0</ele><time>2026-03-23T15:02:55.999Z</time></trkpt><trkpt lat="44.91360226961616" lon="11.873357478265532"><ele>3.0</ele><time>2026-03-23T15:02:56.999Z</time></trkpt><trkpt lat="44.913550061873345" lon="11.873435608374397"><ele>3.0</ele><time>2026-03-23T15:02:57.999Z</time></trkpt><trkpt lat="44.91349450760403" lon="11.873506192655384"><ele>3.0</ele><time>2026-03-23T15:02:58.999Z</time></trkpt><trkpt lat="44.91343834576992" lon="11.873573125825434"><ele>3.0</ele><time>2026-03-23T15:02:59.999Z</time></trkpt><trkpt lat="44.91337946882603" lon="11.873640939857514"><ele>2.5</ele><time>2026-03-23T15:03:00.999Z</time></trkpt><trkpt lat="44.91332150099951" lon="11.873710183084409"><ele>2.0</ele><time>2026-03-23T15:03:01.999Z</time></trkpt><trkpt lat="44.913262541697186" lon="11.873777692632997"><ele>1.5</ele><time>2026-03-23T15:03:02.999Z</time></trkpt><trkpt lat="44.913201015915135" lon="11.873848549474191"><ele>1.0</ele><time>2026-03-23T15:03:03.999Z</time></trkpt><trkpt lat="44.91313903871312" lon="11.873919060931456"><ele>0.5</ele><time>2026-03-23T15:03:04.999Z</time></trkpt><trkpt lat="44.913080409509206" lon="11.873990415068599"><ele>0.0</ele><time>2026-03-23T15:03:05.999Z</time></trkpt><trkpt lat="44.91301884614496" lon="11.87406141019789"><ele>0.0</ele><time>2026-03-23T15:03:06.999Z</time></trkpt><trkpt lat="44.912961399010115" lon="11.874129414811769"><ele>0.0</ele><time>2026-03-23T15:03:07.999Z</time></trkpt><trkpt lat="44.91290433219757" lon="11.87419370755823"><ele>0.0</ele><time>2026-03-23T15:03:08.999Z</time></trkpt><trkpt lat="44.91284605419493" lon="11.874258230916547"><ele>0.0</ele><time>2026-03-23T15:03:09.999Z</time></trkpt><trkpt lat="44.91278488836615" lon="11.87431944034512"><ele>0.0</ele><time>2026-03-23T15:03:10.999Z</time></trkpt><trkpt lat="44.912727934710006" lon="11.874385588285222"><ele>0.0</ele><time>2026-03-23T15:03:11.999Z</time></trkpt><trkpt lat="44.91266979296854" lon="11.874455023358593"><ele>0.0</ele><time>2026-03-23T15:03:12.999Z</time></trkpt><trkpt lat="44.912612691360806" lon="11.874524195685828"><ele>-0.16666666666666666</ele><time>2026-03-23T15:03:13.999Z</time></trkpt><trkpt lat="44.912552776680194" lon="11.874596639941897"><ele>-0.3333333333333333</ele><time>2026-03-23T15:03:14.999Z</time></trkpt><trkpt lat="44.91249528427909" lon="11.874671098784471"><ele>-0.5</ele><time>2026-03-23T15:03:15.999Z</time></trkpt><trkpt lat="44.912441824698554" lon="11.87475152451282"><ele>-0.6666666666666666</ele><time>2026-03-23T15:03:16.999Z</time></trkpt><trkpt lat="44.912390576809884" lon="11.874833086576796"><ele>-0.8333333333333333</ele><time>2026-03-23T15:03:17.999Z</time></trkpt><trkpt lat="44.91234145382984" lon="11.874917986450448"><ele>-1.0</ele><time>2026-03-23T15:03:18.999Z</time></trkpt><trkpt lat="44.9122942558116" lon="11.875006027104517"><ele>-1.0</ele><time>2026-03-23T15:03:19.999Z</time></trkpt><trkpt lat="44.91224948239308" lon="11.875094830168045"><ele>-0.9999999999999999</ele><time>2026-03-23T15:03:20.999Z</time></trkpt><trkpt lat="44.912206368027896" lon="11.875183472156536"><ele>-1.0</ele><time>2026-03-23T15:03:21.999Z</time></trkpt><trkpt lat="44.91216411082661" lon="11.875271034281168"><ele>-1.0</ele><time>2026-03-23T15:03:22.999Z</time></trkpt><trkpt lat="44.912124903355135" lon="11.875359216354454"><ele>-0.9999999999999999</ele><time>2026-03-23T15:03:23.999Z</time></trkpt><trkpt lat="44.91208864234034" lon="11.87544900808857"><ele>-1.0</ele><time>2026-03-23T15:03:24.999Z</time></trkpt><trkpt lat="44.912053906138375" lon="11.87554022472704"><ele>-1.0</ele><time>2026-03-23T15:03:26Z</time></trkpt><trkpt lat="44.91202189001164" lon="11.875636610899091"><ele>-0.8333333333333333</ele><time>2026-03-23T15:03:27Z</time></trkpt><trkpt lat="44.912000980900196" lon="11.875744224278307"><ele>-0.6666666666666666</ele><time>2026-03-23T15:03:28Z</time></trkpt><trkpt lat="44.91198933338499" lon="11.87585309690472"><ele>-0.5</ele><time>2026-03-23T15:03:29Z</time></trkpt><trkpt lat="44.91198677767808" lon="11.875959067676847"><ele>-0.3333333333333333</ele><time>2026-03-23T15:03:30Z</time></trkpt><trkpt lat="44.91199577797346" lon="11.876070289061216"><ele>-0.16666666666666666</ele><time>2026-03-23T15:03:31Z</time></trkpt><trkpt lat="44.912010766436275" lon="11.876174393751095"><ele>0.0</ele><time>2026-03-23T15:03:32Z</time></trkpt><trkpt lat="44.91202847009615" lon="11.876280632762805"><ele>0.0</ele><time>2026-03-23T15:03:33Z</time></trkpt><trkpt lat="44.91204313625265" lon="11.876389441044624"><ele>0.0</ele><time>2026-03-23T15:03:34Z</time></trkpt><trkpt lat="44.912058161866646" lon="11.876494955616689"><ele>0.0</ele><time>2026-03-23T15:03:35Z</time></trkpt><trkpt lat="44.9120704453388" lon="11.876600763113741"><ele>0.0</ele><time>2026-03-23T15:03:36Z</time></trkpt><trkpt lat="44.91208062865072" lon="11.876707118811126"><ele>0.0</ele><time>2026-03-23T15:03:37Z</time></trkpt><trkpt lat="44.91209134023962" lon="11.87681649638805"><ele>0.0</ele><time>2026-03-23T15:03:38Z</time></trkpt><trkpt lat="44.91209752697578" lon="11.876925676032549"><ele>0.0</ele><time>2026-03-23T15:03:39Z</time></trkpt><trkpt lat="44.91210383236537" lon="11.877036821369868"><ele>0.0</ele><time>2026-03-23T15:03:40Z</time></trkpt><trkpt lat="44.91210831959457" lon="11.877146001712315"><ele>0.0</ele><time>2026-03-23T15:03:41Z</time></trkpt><trkpt lat="44.91211283552177" lon="11.87725345022275"><ele>0.0</ele><time>2026-03-23T15:03:42Z</time></trkpt><trkpt lat="44.91211494645513" lon="11.877358905929071"><ele>0.0</ele><time>2026-03-23T15:03:43Z</time></trkpt><trkpt lat="44.9121150004509" lon="11.87746540751845"><ele>0.0</ele><time>2026-03-23T15:03:44Z</time></trkpt><trkpt lat="44.91211399342218" lon="11.877570150982406"><ele>0.0</ele><time>2026-03-23T15:03:45Z</time></trkpt><trkpt lat="44.9121148878629" lon="11.877674995174628"><ele>0.0</ele><time>2026-03-23T15:03:46Z</time></trkpt><trkpt lat="44.91211231160542" lon="11.877779456297233"><ele>0.0</ele><time>2026-03-23T15:03:47Z</time></trkpt><trkpt lat="44.91210870866514" lon="11.877884759134941"><ele>0.0</ele><time>2026-03-23T15:03:48Z</time></trkpt><trkpt lat="44.9121083861122" lon="11.877992804938563"><ele>0.0</ele><time>2026-03-23T15:03:49Z</time></trkpt><trkpt lat="44.91211105232104" lon="11.878098350383723"><ele>0.0</ele><time>2026-03-23T15:03:50Z</time></trkpt><trkpt lat="44.912122754050664" lon="11.878207334315167"><ele>0.0</ele><time>2026-03-23T15:03:51Z</time></trkpt><trkpt lat="44.91214493565495" lon="11.878313845311745"><ele>0.0</ele><time>2026-03-23T15:03:52Z</time></trkpt><trkpt lat="44.912176058881975" lon="11.878412363125713"><ele>0.0</ele><time>2026-03-23T15:03:53Z</time></trkpt><trkpt lat="44.91221250128842" lon="11.878508460150929"><ele>0.0</ele><time>2026-03-23T15:03:54Z</time></trkpt><trkpt lat="44.912252085996" lon="11.878604724559198"><ele>0.0</ele><time>2026-03-23T15:03:55Z</time></trkpt><trkpt lat="44.912290540717336" lon="11.878699930072084"><ele>0.0</ele><time>2026-03-23T15:03:56Z</time></trkpt><trkpt lat="44.9123268024825" lon="11.878796394575328"><ele>-0.16666666666666666</ele><time>2026-03-23T15:03:57Z</time></trkpt><trkpt lat="44.912360113908406" lon="11.878891947847093"><ele>-0.3333333333333333</ele><time>2026-03-23T15:03:58Z</time></trkpt><trkpt lat="44.91238781792114" lon="11.87899115192029"><ele>-0.5</ele><time>2026-03-23T15:03:59Z</time></trkpt><trkpt lat="44.912409279390936" lon="11.879091377926759"><ele>-0.6666666666666666</ele><time>2026-03-23T15:04:00Z</time></trkpt><trkpt lat="44.91241907820977" lon="11.879194690550374"><ele>-0.8333333333333333</ele><time>2026-03-23T15:04:01Z</time></trkpt><trkpt lat="44.91242780139453" lon="11.879300207963592"><ele>-1.0</ele><time>2026-03-23T15:04:02Z</time></trkpt><trkpt lat="44.912431095356595" lon="11.879407453926323"><ele>-0.9999999999999999</ele><time>2026-03-23T15:04:03Z</time></trkpt><trkpt lat="44.9124267131911" lon="11.879515328769417"><ele>-1.0</ele><time>2026-03-23T15:04:04Z</time></trkpt><trkpt lat="44.91241671351672" lon="11.879623002394426"><ele>-1.0</ele><time>2026-03-23T15:04:05Z</time></trkpt><trkpt lat="44.91240190351287" lon="11.87972990545855"><ele>-1.0</ele><time>2026-03-23T15:04:06Z</time></trkpt><trkpt lat="44.912380488566605" lon="11.879834331065394"><ele>-0.9999999999999999</ele><time>2026-03-23T15:04:07Z</time></trkpt><trkpt lat="44.912357567236626" lon="11.879936941026424"><ele>-1.0</ele><time>2026-03-23T15:04:08Z</time></trkpt><trkpt lat="44.912336402767885" lon="11.8800419226455"><ele>-0.9999999999999999</ele><time>2026-03-23T15:04:09Z</time></trkpt><trkpt lat="44.91231315965583" lon="11.880145347392245"><ele>-1.0</ele><time>2026-03-23T15:04:10Z</time></trkpt><trkpt lat="44.912285608436754" lon="11.880246668332928"><ele>-1.0</ele><time>2026-03-23T15:04:11Z</time></trkpt><trkpt lat="44.912256050604114" lon="11.880349464837947"><ele>-1.0</ele><time>2026-03-23T15:04:12Z</time></trkpt><trkpt lat="44.9122274031072" lon="11.880451356335291"><ele>-0.9999999999999999</ele><time>2026-03-23T15:04:13Z</time></trkpt><trkpt lat="44.91220301327623" lon="11.88055219103759"><ele>-1.0</ele><time>2026-03-23T15:04:14Z</time></trkpt><trkpt lat="44.91217521682482" lon="11.880648621551366"><ele>-1.0</ele><time>2026-03-23T15:04:15Z</time></trkpt><trkpt lat="44.91214779185296" lon="11.88074620752348"><ele>-0.9999999999999999</ele><time>2026-03-23T15:04:16Z</time></trkpt><trkpt lat="44.91211461755629" lon="11.880841079749533"><ele>-1.0</ele><time>2026-03-23T15:04:17Z</time></trkpt><trkpt lat="44.912089520392584" lon="11.880937941320267"><ele>-1.0</ele><time>2026-03-23T15:04:18Z</time></trkpt><trkpt lat="44.91206608475433" lon="11.88103997440077"><ele>-0.9999999999999999</ele><time>2026-03-23T15:04:19Z</time></trkpt><trkpt lat="44.9120398325778" lon="11.881138220089287"><ele>-1.0</ele><time>2026-03-23T15:04:20Z</time></trkpt><trkpt lat="44.91200824525112" lon="11.881224447138743"><ele>-1.0</ele><time>2026-03-23T15:04:21Z</time></trkpt><trkpt lat="44.91198409503351" lon="11.881310935652495"><ele>-1.0</ele><time>2026-03-23T15:04:22Z</time></trkpt><trkpt lat="44.911954797564825" lon="11.881404630702908"><ele>-0.9999999999999999</ele><time>2026-03-23T15:04:23Z</time></trkpt><trkpt lat="44.911918688532225" lon="11.881500160166114"><ele>-1.0</ele><time>2026-03-23T15:04:24Z</time></trkpt><trkpt lat="44.911883679007744" lon="11.881583716165832"><ele>-1.0</ele><time>2026-03-23T15:04:25Z</time></trkpt><trkpt lat="44.911850378133444" lon="11.8816634656746"><ele>-0.9999999999999999</ele><time>2026-03-23T15:04:26Z</time></trkpt><trkpt lat="44.91181508751039" lon="11.88174939510443"><ele>-1.0</ele><time>2026-03-23T15:04:27Z</time></trkpt><trkpt lat="44.91177723879046" lon="11.881835977587633"><ele>-1.0</ele><time>2026-03-23T15:04:28Z</time></trkpt><trkpt lat="44.91173975709795" lon="11.881924046913163"><ele>-0.8333333333333333</ele><time>2026-03-23T15:04:29Z</time></trkpt><trkpt lat="44.911702626100876" lon="11.88201609183057"><ele>-0.6666666666666666</ele><time>2026-03-23T15:04:30Z</time></trkpt><trkpt lat="44.911664394199306" lon="11.882108289128446"><ele>-0.5</ele><time>2026-03-23T15:04:31Z</time></trkpt><trkpt lat="44.911625161871584" lon="11.882203526126524"><ele>-0.3333333333333333</ele><time>2026-03-23T15:04:32Z</time></trkpt><trkpt lat="44.91158618630836" lon="11.882296508766403"><ele>-0.16666666666666666</ele><time>2026-03-23T15:04:32.999Z</time></trkpt><trkpt lat="44.91154609211517" lon="11.882394282786137"><ele>0.0</ele><time>2026-03-23T15:04:33.999Z</time></trkpt><trkpt lat="44.91151031354215" lon="11.882489639972192"><ele>0.0</ele><time>2026-03-23T15:04:34.999Z</time></trkpt><trkpt lat="44.91147506361512" lon="11.882587394889745"><ele>0.0</ele><time>2026-03-23T15:04:35.999Z</time></trkpt><trkpt lat="44.9114316180471" lon="11.882683327462988"><ele>0.0</ele><time>2026-03-23T15:04:36.999Z</time></trkpt><trkpt lat="44.911390471946106" lon="11.882777124302901"><ele>0.0</ele><time>2026-03-23T15:04:38Z</time></trkpt><trkpt lat="44.91134847986489" lon="11.882867411791267"><ele>0.0</ele><time>2026-03-23T15:04:38.999Z</time></trkpt><trkpt lat="44.91130567227697" lon="11.882954039270832"><ele>0.0</ele><time>2026-03-23T15:04:39.999Z</time></trkpt><trkpt lat="44.911255871122556" lon="11.883033236233638"><ele>-0.16666666666666666</ele><time>2026-03-23T15:04:40.999Z</time></trkpt><trkpt lat="44.91120320482172" lon="11.88310822781275"><ele>-0.3333333333333333</ele><time>2026-03-23T15:04:41.999Z</time></trkpt><trkpt lat="44.91114459220822" lon="11.88317621708374"><ele>-0.5</ele><time>2026-03-23T15:04:42.999Z</time></trkpt><trkpt lat="44.91108801804445" lon="11.883240214320045"><ele>-0.6666666666666666</ele><time>2026-03-23T15:04:43.999Z</time></trkpt><trkpt lat="44.911027928879896" lon="11.883307003505179"><ele>-0.8333333333333333</ele><time>2026-03-23T15:04:44.999Z</time></trkpt><trkpt lat="44.91096724931625" lon="11.883372640716608"><ele>-1.0</ele><time>2026-03-23T15:04:45.999Z</time></trkpt><trkpt lat="44.91090661489278" lon="11.883441305530315"><ele>-1.1666666666666665</ele><time>2026-03-23T15:04:46.999Z</time></trkpt><trkpt lat="44.910845255947706" lon="11.8835095345016"><ele>-1.3333333333333333</ele><time>2026-03-23T15:04:47.999Z</time></trkpt><trkpt lat="44.91078396653133" lon="11.88357761115075"><ele>-1.5</ele><time>2026-03-23T15:04:48.999Z</time></trkpt><trkpt lat="44.910721853625745" lon="11.883642184872919"><ele>-1.6666666666666665</ele><time>2026-03-23T15:04:49.999Z</time></trkpt><trkpt lat="44.91066078701807" lon="11.883710005336303"><ele>-1.8333333333333333</ele><time>2026-03-23T15:04:50.999Z</time></trkpt><trkpt lat="44.91060077661986" lon="11.883777851505325"><ele>-2.0</ele><time>2026-03-23T15:04:51.999Z</time></trkpt><trkpt lat="44.91054202499128" lon="11.883843887595274"><ele>-1.9999999999999998</ele><time>2026-03-23T15:04:52.999Z</time></trkpt><trkpt lat="44.91048273231555" lon="11.883907168456945"><ele>-2.0</ele><time>2026-03-23T15:04:53.999Z</time></trkpt><trkpt lat="44.91042260193439" lon="11.883971620256178"><ele>-2.0</ele><time>2026-03-23T15:04:54.999Z</time></trkpt><trkpt lat="44.91036577744719" lon="11.884036379899996"><ele>-2.0</ele><time>2026-03-23T15:04:55.999Z</time></trkpt><trkpt lat="44.910304612789155" lon="11.884100936572402"><ele>-1.9999999999999998</ele><time>2026-03-23T15:04:56.999Z</time></trkpt><trkpt lat="44.91024580217514" lon="11.884168412768805"><ele>-2.0</ele><time>2026-03-23T15:04:57.999Z</time></trkpt><trkpt lat="44.91018605606795" lon="11.884240584406756"><ele>-1.6666666666666665</ele><time>2026-03-23T15:04:58.999Z</time></trkpt><trkpt lat="44.91012734678655" lon="11.88431299285496"><ele>-1.3333333333333333</ele><time>2026-03-23T15:04:59.999Z</time></trkpt><trkpt lat="44.91007083361631" lon="11.884386565812381"><ele>-1.0</ele><time>2026-03-23T15:05:00.999Z</time></trkpt><trkpt lat="44.91001421358513" lon="11.884462037953726"><ele>-0.6666666666666666</ele><time>2026-03-23T15:05:01.999Z</time></trkpt><trkpt lat="44.909960701636855" lon="11.884544028952131"><ele>-0.3333333333333333</ele><time>2026-03-23T15:05:02.999Z</time></trkpt><trkpt lat="44.90990621561882" lon="11.884625915728629"><ele>0.0</ele><time>2026-03-23T15:05:03.999Z</time></trkpt><trkpt lat="44.90985679461155" lon="11.884707779427488"><ele>0.14285714285714285</ele><time>2026-03-23T15:05:04.999Z</time></trkpt><trkpt lat="44.9098100199207" lon="11.884785730245838"><ele>0.2857142857142857</ele><time>2026-03-23T15:05:05.999Z</time></trkpt><trkpt lat="44.90975749742885" lon="11.884864070168947"><ele>0.42857142857142855</ele><time>2026-03-23T15:05:06.999Z</time></trkpt><trkpt lat="44.90970670913767" lon="11.884938986013818"><ele>0.5714285714285714</ele><time>2026-03-23T15:05:07.999Z</time></trkpt><trkpt lat="44.909658143095314" lon="11.885020490793975"><ele>0.7142857142857142</ele><time>2026-03-23T15:05:08.999Z</time></trkpt><trkpt lat="44.9096089958909" lon="11.885103117637971"><ele>0.8571428571428571</ele><time>2026-03-23T15:05:09.999Z</time></trkpt><trkpt lat="44.90956265064682" lon="11.885181208145521"><ele>1.0</ele><time>2026-03-23T15:05:10.999Z</time></trkpt><trkpt lat="44.90951265901407" lon="11.885260804238243"><ele>0.9999999999999999</ele><time>2026-03-23T15:05:11.999Z</time></trkpt><trkpt lat="44.90945833302519" lon="11.88533582807303"><ele>1.0</ele><time>2026-03-23T15:05:12.999Z</time></trkpt><trkpt lat="44.909407836138364" lon="11.885414387309044"><ele>1.0</ele><time>2026-03-23T15:05:13.999Z</time></trkpt><trkpt lat="44.90936232634085" lon="11.885496330369739"><ele>1.0</ele><time>2026-03-23T15:05:14.999Z</time></trkpt><trkpt lat="44.909312809439186" lon="11.885577966848551"><ele>0.9999999999999999</ele><time>2026-03-23T15:05:15.999Z</time></trkpt><trkpt lat="44.9092637565498" lon="11.885655512213159"><ele>1.0</ele><time>2026-03-23T15:05:16.999Z</time></trkpt><trkpt lat="44.9092096345351" lon="11.885731476807639"><ele>0.8333333333333333</ele><time>2026-03-23T15:05:17.999Z</time></trkpt><trkpt lat="44.90915827188911" lon="11.885808584410949"><ele>0.6666666666666666</ele><time>2026-03-23T15:05:18.999Z</time></trkpt><trkpt lat="44.90910934091195" lon="11.88589089026831"><ele>0.5</ele><time>2026-03-23T15:05:19.999Z</time></trkpt><trkpt lat="44.90905706583806" lon="11.885966635294746"><ele>0.3333333333333333</ele><time>2026-03-23T15:05:20.999Z</time></trkpt><trkpt lat="44.9090107960736" lon="11.88604457659158"><ele>0.16666666666666666</ele><time>2026-03-23T15:05:21.999Z</time></trkpt><trkpt lat="44.908957568999234" lon="11.886121692140659"><ele>0.0</ele><time>2026-03-23T15:05:22.999Z</time></trkpt><trkpt lat="44.90891060083058" lon="11.886205283123468"><ele>0.0</ele><time>2026-03-23T15:05:23.999Z</time></trkpt><trkpt lat="44.90886299459036" lon="11.886287203695375"><ele>0.0</ele><time>2026-03-23T15:05:24.999Z</time></trkpt><trkpt lat="44.908817406186685" lon="11.886370787026898"><ele>0.0</ele><time>2026-03-23T15:05:25.999Z</time></trkpt><trkpt lat="44.908778863154005" lon="11.886460111643448"><ele>0.0</ele><time>2026-03-23T15:05:26.999Z</time></trkpt><trkpt lat="44.90875159437833" lon="11.886562610740684"><ele>0.0</ele><time>2026-03-23T15:05:27.999Z</time></trkpt><trkpt lat="44.908736834121505" lon="11.886670544404708"><ele>0.0</ele><time>2026-03-23T15:05:28.999Z</time></trkpt><trkpt lat="44.9087360854448" lon="11.886783990537808"><ele>0.0</ele><time>2026-03-23T15:05:29.999Z</time></trkpt><trkpt lat="44.90875051805513" lon="11.88689527948669"><ele>0.0</ele><time>2026-03-23T15:05:30.999Z</time></trkpt><trkpt lat="44.90876916775886" lon="11.88700554699871"><ele>0.0</ele><time>2026-03-23T15:05:32Z</time></trkpt><trkpt lat="44.90879011899125" lon="11.88710960470312"><ele>0.0</ele><time>2026-03-23T15:05:33Z</time></trkpt><trkpt lat="44.90880735362731" lon="11.887212867552185"><ele>0.0</ele><time>2026-03-23T15:05:34Z</time></trkpt><trkpt lat="44.90882435542413" lon="11.887315890473197"><ele>0.0</ele><time>2026-03-23T15:05:35Z</time></trkpt><trkpt lat="44.90883999517837" lon="11.887415770964898"><ele>0.0</ele><time>2026-03-23T15:05:36Z</time></trkpt><trkpt lat="44.90885774308547" lon="11.887513704567027"><ele>0.0</ele><time>2026-03-23T15:05:37Z</time></trkpt><trkpt lat="44.9088809681104" lon="11.887613410535137"><ele>0.0</ele><time>2026-03-23T15:05:38Z</time></trkpt><trkpt lat="44.908892598874004" lon="11.887715081556397"><ele>0.0</ele><time>2026-03-23T15:05:39Z</time></trkpt><trkpt lat="44.90890702495074" lon="11.887810418486847"><ele>0.0</ele><time>2026-03-23T15:05:40Z</time></trkpt><trkpt lat="44.908925848125804" lon="11.887906471958805"><ele>0.0</ele><time>2026-03-23T15:05:41Z</time></trkpt><trkpt lat="44.90893816463308" lon="11.888004306108929"><ele>0.0</ele><time>2026-03-23T15:05:42Z</time></trkpt><trkpt lat="44.90895937842983" lon="11.888102603779735"><ele>0.0</ele><time>2026-03-23T15:05:43Z</time></trkpt><trkpt lat="44.90897392629697" lon="11.888197623434593"><ele>0.0</ele><time>2026-03-23T15:05:44Z</time></trkpt><trkpt lat="44.90898648808191" lon="11.8882955412032"><ele>0.0</ele><time>2026-03-23T15:05:45Z</time></trkpt><trkpt lat="44.909003521070346" lon="11.88838744240994"><ele>0.0</ele><time>2026-03-23T15:05:46Z</time></trkpt><trkpt lat="44.909017596313184" lon="11.888475825251893"><ele>0.0</ele><time>2026-03-23T15:05:47Z</time></trkpt><trkpt lat="44.90902696226503" lon="11.888566354955394"><ele>0.0</ele><time>2026-03-23T15:05:48Z</time></trkpt><trkpt lat="44.909045989390194" lon="11.888655788154505"><ele>0.0</ele><time>2026-03-23T15:05:49Z</time></trkpt><trkpt lat="44.90906669542081" lon="11.88875002726151"><ele>0.0</ele><time>2026-03-23T15:05:50Z</time></trkpt><trkpt lat="44.909080241435554" lon="11.888845905821478"><ele>0.0</ele><time>2026-03-23T15:05:51Z</time></trkpt><trkpt lat="44.90909766199196" lon="11.888941259669545"><ele>0.0</ele><time>2026-03-23T15:05:52Z</time></trkpt><trkpt lat="44.90911270088441" lon="11.889028332826038"><ele>0.0</ele><time>2026-03-23T15:05:53Z</time></trkpt><trkpt lat="44.90913843480445" lon="11.889202895695666"><ele>0.0</ele><time>2026-03-23T15:05:55Z</time></trkpt><trkpt lat="44.909171473706124" lon="11.889366739385462"><ele>0.0</ele><time>2026-03-23T15:05:57Z</time></trkpt><trkpt lat="44.90919358781497" lon="11.889523845813118"><ele>-0.2</ele><time>2026-03-23T15:05:59Z</time></trkpt><trkpt lat="44.90921812266416" lon="11.889672378158915"><ele>-0.4</ele><time>2026-03-23T15:06:01Z</time></trkpt><trkpt lat="44.9092464866206" lon="11.889815178411865"><ele>-0.6000000000000001</ele><time>2026-03-23T15:06:03Z</time></trkpt><trkpt lat="44.90926857867024" lon="11.889966341694155"><ele>-0.8</ele><time>2026-03-23T15:06:05Z</time></trkpt><trkpt lat="44.90929685709335" lon="11.890130466231648"><ele>-1.0</ele><time>2026-03-23T15:06:07Z</time></trkpt><trkpt lat="44.90931231142346" lon="11.890219873106377"><ele>-1.0</ele><time>2026-03-23T15:06:08Z</time></trkpt><trkpt lat="44.9093290118919" lon="11.890308070567203"><ele>-1.0</ele><time>2026-03-23T15:06:09Z</time></trkpt><trkpt lat="44.90935670241678" lon="11.890470226376175"><ele>-1.0</ele><time>2026-03-23T15:06:11Z</time></trkpt><trkpt lat="44.909386714840146" lon="11.890633546498222"><ele>-1.0</ele><time>2026-03-23T15:06:13Z</time></trkpt><trkpt lat="44.90941122809827" lon="11.890795304369078"><ele>-1.0</ele><time>2026-03-23T15:06:15Z</time></trkpt><trkpt lat="44.90942458248042" lon="11.890883359230441"><ele>-1.0</ele><time>2026-03-23T15:06:16Z</time></trkpt><trkpt lat="44.909441682226046" lon="11.890976867473315"><ele>-0.9999999999999999</ele><time>2026-03-23T15:06:17Z</time></trkpt><trkpt lat="44.909456313114" lon="11.891067713789093"><ele>-1.0</ele><time>2026-03-23T15:06:18Z</time></trkpt><trkpt lat="44.90947238423638" lon="11.891165565384672"><ele>-1.0</ele><time>2026-03-23T15:06:19Z</time></trkpt><trkpt lat="44.909487428920194" lon="11.891263542885044"><ele>-0.9999999999999999</ele><time>2026-03-23T15:06:20Z</time></trkpt><trkpt lat="44.90950551846919" lon="11.89136432492791"><ele>-1.0</ele><time>2026-03-23T15:06:21Z</time></trkpt><trkpt lat="44.90952421555844" lon="11.891464817336898"><ele>-1.0</ele><time>2026-03-23T15:06:22Z</time></trkpt><trkpt lat="44.90954031099118" lon="11.891569696632448"><ele>-0.9999999999999999</ele><time>2026-03-23T15:06:23Z</time></trkpt><trkpt lat="44.90955904387468" lon="11.891675224183054"><ele>-1.0</ele><time>2026-03-23T15:06:24Z</time></trkpt><trkpt lat="44.90957543302671" lon="11.891780180063787"><ele>-1.0</ele><time>2026-03-23T15:06:25Z</time></trkpt><trkpt lat="44.90959437288519" lon="11.891886236270222"><ele>-1.0</ele><time>2026-03-23T15:06:26Z</time></trkpt><trkpt lat="44.909612997009305" lon="11.891994036037483"><ele>-0.9999999999999999</ele><time>2026-03-23T15:06:27Z</time></trkpt><trkpt lat="44.90963177920796" lon="11.892099669122997"><ele>-1.0</ele><time>2026-03-23T15:06:28Z</time></trkpt><trkpt lat="44.90965046243881" lon="11.89220629040252"><ele>-1.1666666666666665</ele><time>2026-03-23T15:06:29Z</time></trkpt><trkpt lat="44.909671001874756" lon="11.892314930408578"><ele>-1.3333333333333333</ele><time>2026-03-23T15:06:30Z</time></trkpt><trkpt lat="44.909688514357924" lon="11.892423504228962"><ele>-1.5</ele><time>2026-03-23T15:06:30.999Z</time></trkpt><trkpt lat="44.90970676114015" lon="11.892526765778438"><ele>-1.6666666666666665</ele><time>2026-03-23T15:06:31.999Z</time></trkpt><trkpt lat="44.909724400655726" lon="11.892627693751336"><ele>-1.8333333333333333</ele><time>2026-03-23T15:06:32.999Z</time></trkpt><trkpt lat="44.90973889439535" lon="11.89272949379563"><ele>-2.0</ele><time>2026-03-23T15:06:33.999Z</time></trkpt><trkpt lat="44.90975656796204" lon="11.892831723689083"><ele>-1.8333333333333333</ele><time>2026-03-23T15:06:34.999Z</time></trkpt><trkpt lat="44.90977556586238" lon="11.892933934955732"><ele>-1.6666666666666665</ele><time>2026-03-23T15:06:35.999Z</time></trkpt><trkpt lat="44.90979369418865" lon="11.893034217905084"><ele>-1.5</ele><time>2026-03-23T15:06:36.999Z</time></trkpt><trkpt lat="44.909811208512444" lon="11.893140003945044"><ele>-1.3333333333333333</ele><time>2026-03-23T15:06:37.999Z</time></trkpt><trkpt lat="44.90982935020669" lon="11.893245567137566"><ele>-1.1666666666666665</ele><time>2026-03-23T15:06:38.999Z</time></trkpt><trkpt lat="44.90984714432818" lon="11.89335043985414"><ele>-1.0</ele><time>2026-03-23T15:06:39.999Z</time></trkpt><trkpt lat="44.90986827400426" lon="11.89345457829836"><ele>-1.0</ele><time>2026-03-23T15:06:40.999Z</time></trkpt><trkpt lat="44.90989127447266" lon="11.8935562066571"><ele>-0.9999999999999999</ele><time>2026-03-23T15:06:41.999Z</time></trkpt><trkpt lat="44.909903254561954" lon="11.893661724475935"><ele>-1.0</ele><time>2026-03-23T15:06:42.999Z</time></trkpt><trkpt lat="44.90991983685233" lon="11.893759633522391"><ele>-1.0</ele><time>2026-03-23T15:06:43.999Z</time></trkpt><trkpt lat="44.909939213240946" lon="11.893862335865984"><ele>-0.9999999999999999</ele><time>2026-03-23T15:06:44.999Z</time></trkpt><trkpt lat="44.90995238532468" lon="11.89396601896262"><ele>-1.0</ele><time>2026-03-23T15:06:45.999Z</time></trkpt><trkpt lat="44.90996700965664" lon="11.894072223219704"><ele>-1.0</ele><time>2026-03-23T15:06:46.999Z</time></trkpt><trkpt lat="44.90998211040772" lon="11.894175466444981"><ele>-0.9999999999999999</ele><time>2026-03-23T15:06:47.999Z</time></trkpt><trkpt lat="44.9100039424279" lon="11.894281843682405"><ele>-1.0</ele><time>2026-03-23T15:06:48.999Z</time></trkpt><trkpt lat="44.91002185492385" lon="11.894386113432924"><ele>-1.0</ele><time>2026-03-23T15:06:49.999Z</time></trkpt><trkpt lat="44.910037644855095" lon="11.89449280918123"><ele>-1.0</ele><time>2026-03-23T15:06:50.999Z</time></trkpt><trkpt lat="44.910056689788604" lon="11.89459891168779"><ele>-0.9999999999999999</ele><time>2026-03-23T15:06:51.999Z</time></trkpt><trkpt lat="44.91007497342502" lon="11.894705503897809"><ele>-1.0</ele><time>2026-03-23T15:06:52.999Z</time></trkpt><trkpt lat="44.910091541383295" lon="11.894811385161239"><ele>-0.9999999999999999</ele><time>2026-03-23T15:06:53.999Z</time></trkpt><trkpt lat="44.910107548856566" lon="11.894916265708934"><ele>-1.0</ele><time>2026-03-23T15:06:54.999Z</time></trkpt><trkpt lat="44.91012515251974" lon="11.895024465041155"><ele>-1.0</ele><time>2026-03-23T15:06:55.999Z</time></trkpt><trkpt lat="44.91014339912914" lon="11.89512858683785"><ele>-1.0</ele><time>2026-03-23T15:06:56.999Z</time></trkpt><trkpt lat="44.91015905630394" lon="11.895232420065534"><ele>-0.9999999999999999</ele><time>2026-03-23T15:06:57.999Z</time></trkpt><trkpt lat="44.91017793883102" lon="11.895340022262127"><ele>-1.0</ele><time>2026-03-23T15:06:58.999Z</time></trkpt><trkpt lat="44.91019543600792" lon="11.895448143158008"><ele>-0.8333333333333333</ele><time>2026-03-23T15:06:59.999Z</time></trkpt><trkpt lat="44.91021078166133" lon="11.895554994073557"><ele>-0.6666666666666666</ele><time>2026-03-23T15:07:00.999Z</time></trkpt><trkpt lat="44.91023065818916" lon="11.895660259456156"><ele>-0.5</ele><time>2026-03-23T15:07:01.999Z</time></trkpt><trkpt lat="44.91024985968772" lon="11.895765220576498"><ele>-0.3333333333333333</ele><time>2026-03-23T15:07:02.999Z</time></trkpt><trkpt lat="44.91026941371979" lon="11.895870647860637"><ele>-0.16666666666666666</ele><time>2026-03-23T15:07:03.999Z</time></trkpt><trkpt lat="44.91028739181407" lon="11.895975813082753"><ele>0.0</ele><time>2026-03-23T15:07:04.999Z</time></trkpt><trkpt lat="44.91031091517101" lon="11.89607777201288"><ele>0.0</ele><time>2026-03-23T15:07:05.999Z</time></trkpt><trkpt lat="44.910334131983966" lon="11.896180211659386"><ele>0.0</ele><time>2026-03-23T15:07:06.999Z</time></trkpt><trkpt lat="44.910360850286544" lon="11.896282395194742"><ele>0.0</ele><time>2026-03-23T15:07:07.999Z</time></trkpt><trkpt lat="44.91039195054558" lon="11.896384124392991"><ele>0.0</ele><time>2026-03-23T15:07:08.999Z</time></trkpt><trkpt lat="44.91042923408244" lon="11.896476308120201"><ele>0.0</ele><time>2026-03-23T15:07:09.999Z</time></trkpt><trkpt lat="44.910468830936914" lon="11.896571685840062"><ele>0.0</ele><time>2026-03-23T15:07:10.999Z</time></trkpt><trkpt lat="44.9105119886366" lon="11.896663164827121"><ele>0.0</ele><time>2026-03-23T15:07:11.999Z</time></trkpt><trkpt lat="44.91055988724782" lon="11.896747483714467"><ele>0.0</ele><time>2026-03-23T15:07:12.999Z</time></trkpt><trkpt lat="44.91060968369067" lon="11.896829914764457"><ele>0.0</ele><time>2026-03-23T15:07:13.999Z</time></trkpt><trkpt lat="44.910660464336395" lon="11.896909750146321"><ele>0.0</ele><time>2026-03-23T15:07:14.999Z</time></trkpt><trkpt lat="44.910710997753334" lon="11.89699211906257"><ele>0.0</ele><time>2026-03-23T15:07:15.999Z</time></trkpt><trkpt lat="44.91075928849313" lon="11.89707367566084"><ele>0.0</ele><time>2026-03-23T15:07:16.999Z</time></trkpt><trkpt lat="44.9108104751697" lon="11.897155410038721"><ele>0.0</ele><time>2026-03-23T15:07:17.999Z</time></trkpt><trkpt lat="44.91086095511268" lon="11.897235318049448"><ele>0.0</ele><time>2026-03-23T15:07:18.999Z</time></trkpt><trkpt lat="44.910911122392754" lon="11.8973168071377"><ele>0.0</ele><time>2026-03-23T15:07:19.999Z</time></trkpt><trkpt lat="44.91096264357816" lon="11.897398820860756"><ele>0.0</ele><time>2026-03-23T15:07:20.999Z</time></trkpt><trkpt lat="44.91101721478767" lon="11.897480318459454"><ele>0.0</ele><time>2026-03-23T15:07:21.999Z</time></trkpt><trkpt lat="44.91106682785574" lon="11.897562874699693"><ele>0.0</ele><time>2026-03-23T15:07:22.999Z</time></trkpt><trkpt lat="44.91111867008997" lon="11.897645091571377"><ele>-0.3333333333333333</ele><time>2026-03-23T15:07:23.999Z</time></trkpt><trkpt lat="44.91116936307469" lon="11.897726291209631"><ele>-0.6666666666666666</ele><time>2026-03-23T15:07:24.999Z</time></trkpt><trkpt lat="44.91121737670991" lon="11.897808218978065"><ele>-1.0</ele><time>2026-03-23T15:07:25.999Z</time></trkpt><trkpt lat="44.91126634788962" lon="11.897889605962906"><ele>-1.3333333333333333</ele><time>2026-03-23T15:07:26.999Z</time></trkpt><trkpt lat="44.91131717127855" lon="11.897968887847389"><ele>-1.6666666666666665</ele><time>2026-03-23T15:07:27.999Z</time></trkpt><trkpt lat="44.911367916620556" lon="11.898050059028531"><ele>-2.0</ele><time>2026-03-23T15:07:28.999Z</time></trkpt><trkpt lat="44.911419116071606" lon="11.89813062618351"><ele>-1.9999999999999998</ele><time>2026-03-23T15:07:29.999Z</time></trkpt><trkpt lat="44.911470264843636" lon="11.898211259173491"><ele>-2.0</ele><time>2026-03-23T15:07:30.999Z</time></trkpt><trkpt lat="44.911518861765245" lon="11.898294167986139"><ele>-2.0</ele><time>2026-03-23T15:07:31.999Z</time></trkpt><trkpt lat="44.91156948068935" lon="11.898373837250864"><ele>-2.0</ele><time>2026-03-23T15:07:32.999Z</time></trkpt><trkpt lat="44.91162342945142" lon="11.898455094762406"><ele>-1.9999999999999998</ele><time>2026-03-23T15:07:33.999Z</time></trkpt><trkpt lat="44.91167388731453" lon="11.898537559662456"><ele>-2.0</ele><time>2026-03-23T15:07:34.999Z</time></trkpt><trkpt lat="44.91172393256551" lon="11.898620768465808"><ele>-1.9999999999999998</ele><time>2026-03-23T15:07:35.999Z</time></trkpt><trkpt lat="44.911772953025505" lon="11.898706636669937"><ele>-2.0</ele><time>2026-03-23T15:07:36.999Z</time></trkpt><trkpt lat="44.911822968989576" lon="11.8987932536631"><ele>-2.0</ele><time>2026-03-23T15:07:38Z</time></trkpt><trkpt lat="44.911871757590674" lon="11.898882978635385"><ele>-2.0</ele><time>2026-03-23T15:07:39Z</time></trkpt><trkpt lat="44.91191494039211" lon="11.898972841040791"><ele>-1.9999999999999998</ele><time>2026-03-23T15:07:40Z</time></trkpt><trkpt lat="44.91194966243511" lon="11.899073782185805"><ele>-2.0</ele><time>2026-03-23T15:07:41Z</time></trkpt><trkpt lat="44.91197702019549" lon="11.89917589960025"><ele>-1.857142857142857</ele><time>2026-03-23T15:07:42Z</time></trkpt><trkpt lat="44.91199825726448" lon="11.899276973146693"><ele>-1.714285714285714</ele><time>2026-03-23T15:07:43Z</time></trkpt><trkpt lat="44.91201310945211" lon="11.89938201608228"><ele>-1.5714285714285714</ele><time>2026-03-23T15:07:44Z</time></trkpt><trkpt lat="44.91201897086103" lon="11.899482929031425"><ele>-1.4285714285714284</ele><time>2026-03-23T15:07:45Z</time></trkpt><trkpt lat="44.91202797526787" lon="11.899584245323057"><ele>-1.2857142857142856</ele><time>2026-03-23T15:07:46Z</time></trkpt><trkpt lat="44.91203583674722" lon="11.89968836048197"><ele>-1.1428571428571428</ele><time>2026-03-23T15:07:47Z</time></trkpt><trkpt lat="44.9120384634061" lon="11.899785301176603"><ele>-1.0</ele><time>2026-03-23T15:07:48Z</time></trkpt><trkpt lat="44.912042767116745" lon="11.899890321959125"><ele>-0.9999999999999999</ele><time>2026-03-23T15:07:49Z</time></trkpt><trkpt lat="44.91204809170223" lon="11.899998610926083"><ele>-1.0</ele><time>2026-03-23T15:07:50Z</time></trkpt><trkpt lat="44.9120554401179" lon="11.900099657890246"><ele>-1.0</ele><time>2026-03-23T15:07:51Z</time></trkpt><trkpt lat="44.912063159631934" lon="11.90020764931932"><ele>-1.0</ele><time>2026-03-23T15:07:52Z</time></trkpt><trkpt lat="44.91207277463461" lon="11.900311366611621"><ele>-0.9999999999999999</ele><time>2026-03-23T15:07:53Z</time></trkpt><trkpt lat="44.91208464013059" lon="11.900417813634586"><ele>-1.0</ele><time>2026-03-23T15:07:54Z</time></trkpt><trkpt lat="44.912097349452104" lon="11.900528251939669"><ele>-0.8333333333333333</ele><time>2026-03-23T15:07:55Z</time></trkpt><trkpt lat="44.91210933861947" lon="11.900639925313063"><ele>-0.6666666666666666</ele><time>2026-03-23T15:07:56Z</time></trkpt><trkpt lat="44.912123930895085" lon="11.900750095918223"><ele>-0.5</ele><time>2026-03-23T15:07:57Z</time></trkpt><trkpt lat="44.91213708156246" lon="11.90085830696964"><ele>-0.3333333333333333</ele><time>2026-03-23T15:07:58Z</time></trkpt><trkpt lat="44.91214941748494" lon="11.900963975173205"><ele>-0.16666666666666666</ele><time>2026-03-23T15:07:59Z</time></trkpt><trkpt lat="44.91216156250855" lon="11.901069783671167"><ele>0.0</ele><time>2026-03-23T15:08:00Z</time></trkpt><trkpt lat="44.9121711532446" lon="11.901177021927332"><ele>0.0</ele><time>2026-03-23T15:08:01Z</time></trkpt><trkpt lat="44.91217674969912" lon="11.90128029084002"><ele>0.0</ele><time>2026-03-23T15:08:02Z</time></trkpt><trkpt lat="44.91218029191979" lon="11.901380055136553"><ele>0.0</ele><time>2026-03-23T15:08:03Z</time></trkpt><trkpt lat="44.9121812288033" lon="11.901477246766316"><ele>0.0</ele><time>2026-03-23T15:08:04Z</time></trkpt><trkpt lat="44.912180419071746" lon="11.901576510057856"><ele>0.0</ele><time>2026-03-23T15:08:05Z</time></trkpt><trkpt lat="44.91217878785366" lon="11.901667522103837"><ele>0.0</ele><time>2026-03-23T15:08:06Z</time></trkpt><trkpt lat="44.91217595565097" lon="11.90175987419784"><ele>0.0</ele><time>2026-03-23T15:08:07Z</time></trkpt><trkpt lat="44.91216851769899" lon="11.901850735441572"><ele>0.0</ele><time>2026-03-23T15:08:08Z</time></trkpt><trkpt lat="44.91215635694501" lon="11.90202403296315"><ele>0.0</ele><time>2026-03-23T15:08:10Z</time></trkpt><trkpt lat="44.91214241985869" lon="11.902196426532972"><ele>0.0</ele><time>2026-03-23T15:08:12Z</time></trkpt><trkpt lat="44.9121341518921" lon="11.902365755326956"><ele>0.0</ele><time>2026-03-23T15:08:14Z</time></trkpt><trkpt lat="44.912128626829414" lon="11.902457683783462"><ele>0.0</ele><time>2026-03-23T15:08:15Z</time></trkpt><trkpt lat="44.91212495479782" lon="11.902553542408183"><ele>0.14285714285714285</ele><time>2026-03-23T15:08:16Z</time></trkpt><trkpt lat="44.91211692148116" lon="11.902650684650922"><ele>0.2857142857142857</ele><time>2026-03-23T15:08:17Z</time></trkpt><trkpt lat="44.91210709385012" lon="11.902747366957376"><ele>0.42857142857142855</ele><time>2026-03-23T15:08:18Z</time></trkpt><trkpt lat="44.91210453987921" lon="11.902849027473653"><ele>0.5714285714285714</ele><time>2026-03-23T15:08:19Z</time></trkpt><trkpt lat="44.912107958874245" lon="11.90295697214163"><ele>0.7142857142857142</ele><time>2026-03-23T15:08:20Z</time></trkpt><trkpt lat="44.91211187966728" lon="11.90306188671535"><ele>0.8571428571428571</ele><time>2026-03-23T15:08:21Z</time></trkpt><trkpt lat="44.91211592238735" lon="11.90316848629193"><ele>1.0</ele><time>2026-03-23T15:08:22Z</time></trkpt><trkpt lat="44.91212495105898" lon="11.903282396856898"><ele>0.9999999999999999</ele><time>2026-03-23T15:08:23Z</time></trkpt><trkpt lat="44.912133936332154" lon="11.90339041797936"><ele>1.0</ele><time>2026-03-23T15:08:24Z</time></trkpt><trkpt lat="44.91214111724114" lon="11.90350089976385"><ele>1.0</ele><time>2026-03-23T15:08:25Z</time></trkpt><trkpt lat="44.912145630665755" lon="11.903609517568736"><ele>1.0</ele><time>2026-03-23T15:08:26Z</time></trkpt><trkpt lat="44.91215112434823" lon="11.903718129662199"><ele>0.9999999999999999</ele><time>2026-03-23T15:08:27Z</time></trkpt><trkpt lat="44.9121568938258" lon="11.903824289168513"><ele>1.0</ele><time>2026-03-23T15:08:28Z</time></trkpt><trkpt lat="44.912163400336176" lon="11.903926957717545"><ele>1.0</ele><time>2026-03-23T15:08:29Z</time></trkpt><trkpt lat="44.912167403252646" lon="11.904034950885553"><ele>0.9999999999999999</ele><time>2026-03-23T15:08:30Z</time></trkpt><trkpt lat="44.912172000834886" lon="11.904137036667565"><ele>1.0</ele><time>2026-03-23T15:08:31Z</time></trkpt><trkpt lat="44.9121777771228" lon="11.904240946141673"><ele>1.0</ele><time>2026-03-23T15:08:32Z</time></trkpt><trkpt lat="44.91218180477977" lon="11.90434570850517"><ele>0.9999999999999999</ele><time>2026-03-23T15:08:33Z</time></trkpt><trkpt lat="44.91218786920529" lon="11.90445653725341"><ele>1.0</ele><time>2026-03-23T15:08:34Z</time></trkpt><trkpt lat="44.9121937335473" lon="11.904559655269974"><ele>1.0</ele><time>2026-03-23T15:08:35Z</time></trkpt><trkpt lat="44.91219869269167" lon="11.904663161781652"><ele>1.0</ele><time>2026-03-23T15:08:36Z</time></trkpt><trkpt lat="44.91220403430832" lon="11.90476833779439"><ele>0.9999999999999999</ele><time>2026-03-23T15:08:37Z</time></trkpt><trkpt lat="44.91220729428732" lon="11.904869258785746"><ele>1.0</ele><time>2026-03-23T15:08:38Z</time></trkpt><trkpt lat="44.91221662105285" lon="11.904971389170605"><ele>1.0</ele><time>2026-03-23T15:08:39Z</time></trkpt><trkpt lat="44.91221988339341" lon="11.90506875539578"><ele>0.9999999999999999</ele><time>2026-03-23T15:08:40Z</time></trkpt><trkpt lat="44.912222420217006" lon="11.905158034894649"><ele>1.0</ele><time>2026-03-23T15:08:41Z</time></trkpt><trkpt lat="44.91222533792276" lon="11.905258093248216"><ele>1.0</ele><time>2026-03-23T15:08:42Z</time></trkpt><trkpt lat="44.91223864856213" lon="11.905438659304687"><ele>0.75</ele><time>2026-03-23T15:08:44Z</time></trkpt><trkpt lat="44.912242893940004" lon="11.905613608294844"><ele>0.5</ele><time>2026-03-23T15:08:45.999Z</time></trkpt><trkpt lat="44.912238406476554" lon="11.905779666797732"><ele>0.25</ele><time>2026-03-23T15:08:47.999Z</time></trkpt><trkpt lat="44.91223869893143" lon="11.905939084371845"><ele>0.0</ele><time>2026-03-23T15:08:49.999Z</time></trkpt><trkpt lat="44.912267966841604" lon="11.906096252865936"><ele>0.0</ele><time>2026-03-23T15:08:51.999Z</time></trkpt><trkpt lat="44.91225299210325" lon="11.906237155503202"><ele>0.0</ele><time>2026-03-23T15:08:53.999Z</time></trkpt><trkpt lat="44.91225947060719" lon="11.906376357894128"><ele>0.0</ele><time>2026-03-23T15:08:55.999Z</time></trkpt><trkpt lat="44.912265633895714" lon="11.90650878759777"><ele>0.0</ele><time>2026-03-23T15:08:57.999Z</time></trkpt><trkpt lat="44.912272318147856" lon="11.906652411029723"><ele>0.0</ele><time>2026-03-23T15:08:59.999Z</time></trkpt><trkpt lat="44.912279530198035" lon="11.90680737517591"><ele>0.0</ele><time>2026-03-23T15:09:01.999Z</time></trkpt><trkpt lat="44.912286693665486" lon="11.906954080193941"><ele>0.0</ele><time>2026-03-23T15:09:03.999Z</time></trkpt><trkpt lat="44.91229471206864" lon="11.90711658520102"><ele>0.0</ele><time>2026-03-23T15:09:05.999Z</time></trkpt><trkpt lat="44.91229575007386" lon="11.907292165300806"><ele>0.0</ele><time>2026-03-23T15:09:07.999Z</time></trkpt><trkpt lat="44.912292149763786" lon="11.907382709321038"><ele>0.0</ele><time>2026-03-23T15:09:08.999Z</time></trkpt><trkpt lat="44.91229661510372" lon="11.907471680339754"><ele>0.2857142857142857</ele><time>2026-03-23T15:09:09.999Z</time></trkpt><trkpt lat="44.912307675863545" lon="11.907637582522112"><ele>0.5714285714285714</ele><time>2026-03-23T15:09:11.999Z</time></trkpt><trkpt lat="44.91231449860927" lon="11.907730301635757"><ele>0.8571428571428571</ele><time>2026-03-23T15:09:12.999Z</time></trkpt><trkpt lat="44.91231669303544" lon="11.907822690738735"><ele>1.1428571428571428</ele><time>2026-03-23T15:09:13.999Z</time></trkpt><trkpt lat="44.91231990231594" lon="11.907919529575064"><ele>1.4285714285714284</ele><time>2026-03-23T15:09:14.999Z</time></trkpt><trkpt lat="44.912325843834736" lon="11.908008913344796"><ele>1.7142857142857142</ele><time>2026-03-23T15:09:15.999Z</time></trkpt><trkpt lat="44.91234454302569" lon="11.908094673718361"><ele>2.0</ele><time>2026-03-23T15:09:16.999Z</time></trkpt><trkpt lat="44.91234933895436" lon="11.908186196307156"><ele>2.0</ele><time>2026-03-23T15:09:17.999Z</time></trkpt><trkpt lat="44.91234146081601" lon="11.908351244064523"><ele>2.0</ele><time>2026-03-23T15:09:19.999Z</time></trkpt><trkpt lat="44.91235383481032" lon="11.908510366133166"><ele>2.0</ele><time>2026-03-23T15:09:21.999Z</time></trkpt><trkpt lat="44.91236453575146" lon="11.90867137053836"><ele>2.0</ele><time>2026-03-23T15:09:23.999Z</time></trkpt><trkpt lat="44.91237808950958" lon="11.908816979698418"><ele>2.0</ele><time>2026-03-23T15:09:25.999Z</time></trkpt><trkpt lat="44.91238042463909" lon="11.908969354812056"><ele>1.8</ele><time>2026-03-23T15:09:27.999Z</time></trkpt><trkpt lat="44.912386610594766" lon="11.909105705819409"><ele>1.6</ele><time>2026-03-23T15:09:29.999Z</time></trkpt><trkpt lat="44.912405775342144" lon="11.909258685605941"><ele>1.4000000000000001</ele><time>2026-03-23T15:09:31.999Z</time></trkpt><trkpt lat="44.91241457967118" lon="11.909418019913407"><ele>1.2000000000000002</ele><time>2026-03-23T15:09:33.999Z</time></trkpt><trkpt lat="44.9124219952096" lon="11.909566303689784"><ele>1.0</ele><time>2026-03-23T15:09:35.999Z</time></trkpt><trkpt lat="44.912428856074925" lon="11.90970349607303"><ele>0.9999999999999999</ele><time>2026-03-23T15:09:37.999Z</time></trkpt><trkpt lat="44.91241932459805" lon="11.909839431244993"><ele>1.0</ele><time>2026-03-23T15:09:39.999Z</time></trkpt><trkpt lat="44.912442041341166" lon="11.909967154360444"><ele>1.0</ele><time>2026-03-23T15:09:41.999Z</time></trkpt><trkpt lat="44.91244834131537" lon="11.910093134036927"><ele>1.0</ele><time>2026-03-23T15:09:44Z</time></trkpt><trkpt lat="44.912454724477655" lon="11.910215465325875"><ele>0.9999999999999999</ele><time>2026-03-23T15:09:46Z</time></trkpt><trkpt lat="44.91245029316474" lon="11.910321080863872"><ele>1.0</ele><time>2026-03-23T15:09:48Z</time></trkpt><trkpt lat="44.91245770877763" lon="11.91044623072853"><ele>1.1666666666666665</ele><time>2026-03-23T15:09:50Z</time></trkpt><trkpt lat="44.9124612334937" lon="11.910572207715969"><ele>1.3333333333333333</ele><time>2026-03-23T15:09:52Z</time></trkpt><trkpt lat="44.912472083240395" lon="11.910678977006574"><ele>1.5</ele><time>2026-03-23T15:09:54Z</time></trkpt><trkpt lat="44.91248584408644" lon="11.910785295863791"><ele>1.6666666666666665</ele><time>2026-03-23T15:09:56Z</time></trkpt><trkpt lat="44.91249729452784" lon="11.910906359596392"><ele>1.8333333333333333</ele><time>2026-03-23T15:09:58Z</time></trkpt><trkpt lat="44.9125187822103" lon="11.911056584445962"><ele>2.0</ele><time>2026-03-23T15:10:00Z</time></trkpt><trkpt lat="44.91252763952814" lon="11.911200574602743"><ele>2.0</ele><time>2026-03-23T15:10:02Z</time></trkpt><trkpt lat="44.91253541963363" lon="11.911334894905334"><ele>2.0</ele><time>2026-03-23T15:10:04Z</time></trkpt><trkpt lat="44.91254135863248" lon="11.911458048263812"><ele>2.0</ele><time>2026-03-23T15:10:06Z</time></trkpt><trkpt lat="44.91255083104228" lon="11.91157176352225"><ele>2.0</ele><time>2026-03-23T15:10:08Z</time></trkpt><trkpt lat="44.91255384971357" lon="11.911677243555072"><ele>2.0</ele><time>2026-03-23T15:10:10Z</time></trkpt><trkpt lat="44.91240616272842" lon="11.911750259850342"><ele>2.0</ele><time>2026-03-23T15:10:14Z</time></trkpt><trkpt lat="44.91230895706247" lon="11.911777871313562"><ele>2.0</ele><time>2026-03-23T15:10:16Z</time></trkpt><trkpt lat="44.91219738429488" lon="11.911804565693968"><ele>2.0</ele><time>2026-03-23T15:10:18Z</time></trkpt><trkpt lat="44.91213349503049" lon="11.911819657824234"><ele>2.0</ele><time>2026-03-23T15:10:19Z</time></trkpt><trkpt lat="44.91202110652454" lon="11.911851780789748"><ele>2.0</ele><time>2026-03-23T15:10:21Z</time></trkpt><trkpt lat="44.911911309974435" lon="11.911882308123767"><ele>2.0</ele><time>2026-03-23T15:10:23Z</time></trkpt><trkpt lat="44.911796041616476" lon="11.91191888391731"><ele>1.9999999999999998</ele><time>2026-03-23T15:10:25Z</time></trkpt><trkpt lat="44.91173451574504" lon="11.911938048521312"><ele>2.0</ele><time>2026-03-23T15:10:26Z</time></trkpt><trkpt lat="44.91167116892287" lon="11.911955398085478"><ele>2.0</ele><time>2026-03-23T15:10:27Z</time></trkpt><trkpt lat="44.9116057676665" lon="11.911972017061425"><ele>1.9999999999999998</ele><time>2026-03-23T15:10:28Z</time></trkpt><trkpt lat="44.91154002130727" lon="11.911995890149424"><ele>2.0</ele><time>2026-03-23T15:10:29Z</time></trkpt><trkpt lat="44.911477961676056" lon="11.912010990038667"><ele>2.0</ele><time>2026-03-23T15:10:30Z</time></trkpt><trkpt lat="44.91135548252251" lon="11.912039633215073"><ele>1.5</ele><time>2026-03-23T15:10:32Z</time></trkpt><trkpt lat="44.91123483391546" lon="11.912076128970373"><ele>1.0</ele><time>2026-03-23T15:10:34Z</time></trkpt><trkpt lat="44.91112003563505" lon="11.91211656852349"><ele>0.5</ele><time>2026-03-23T15:10:36Z</time></trkpt><trkpt lat="44.91100757365571" lon="11.912143760841847"><ele>0.0</ele><time>2026-03-23T15:10:38Z</time></trkpt><trkpt lat="44.91090318440059" lon="11.912181273505347"><ele>0.0</ele><time>2026-03-23T15:10:40Z</time></trkpt><trkpt lat="44.910802915064956" lon="11.912202564391325"><ele>0.0</ele><time>2026-03-23T15:10:42Z</time></trkpt><trkpt lat="44.9106962776674" lon="11.912225745189868"><ele>0.0</ele><time>2026-03-23T15:10:44Z</time></trkpt><trkpt lat="44.91057633242692" lon="11.912258508043365"><ele>0.0</ele><time>2026-03-23T15:10:46Z</time></trkpt><trkpt lat="44.910461894578006" lon="11.912291632666168"><ele>0.0</ele><time>2026-03-23T15:10:48Z</time></trkpt><trkpt lat="44.91040015306008" lon="11.912312486742977"><ele>0.0</ele><time>2026-03-23T15:10:49Z</time></trkpt><trkpt lat="44.91028075664255" lon="11.912352419353331"><ele>0.0</ele><time>2026-03-23T15:10:51Z</time></trkpt><trkpt lat="44.910168736588204" lon="11.912370064958177"><ele>0.0</ele><time>2026-03-23T15:10:52.999Z</time></trkpt><trkpt lat="44.91006651822112" lon="11.91241123105556"><ele>0.0</ele><time>2026-03-23T15:10:54.999Z</time></trkpt><trkpt lat="44.909964251629496" lon="11.9124240249967"><ele>0.0</ele><time>2026-03-23T15:10:56.999Z</time></trkpt><trkpt lat="44.90987402422845" lon="11.912436728968084"><ele>0.0</ele><time>2026-03-23T15:10:58.999Z</time></trkpt><trkpt lat="44.90978169767722" lon="11.91244079724758"><ele>0.0</ele><time>2026-03-23T15:11:00.999Z</time></trkpt><trkpt lat="44.90974959083009" lon="11.912622968769165"><ele>0.0</ele><time>2026-03-23T15:11:01.999Z</time></trkpt><trkpt lat="44.90970918109168" lon="11.91275274323959"><ele>0.0</ele><time>2026-03-23T15:11:03.999Z</time></trkpt><trkpt lat="44.909644439874135" lon="11.912863093763681"><ele>0.0</ele><time>2026-03-23T15:11:05.999Z</time></trkpt><trkpt lat="44.90958022335688" lon="11.913001821811791"><ele>0.0</ele><time>2026-03-23T15:11:07.999Z</time></trkpt><trkpt lat="44.909516674180786" lon="11.913146656125594"><ele>0.0</ele><time>2026-03-23T15:11:09.999Z</time></trkpt><trkpt lat="44.90945561238451" lon="11.913272557321424"><ele>0.0</ele><time>2026-03-23T15:11:11.999Z</time></trkpt><trkpt lat="44.90939031304882" lon="11.913410039469628"><ele>0.0</ele><time>2026-03-23T15:11:13.999Z</time></trkpt><trkpt lat="44.90932212690068" lon="11.913537516293788"><ele>0.0</ele><time>2026-03-23T15:11:15.999Z</time></trkpt><trkpt lat="44.90926744755646" lon="11.913674746969058"><ele>0.0</ele><time>2026-03-23T15:11:17.999Z</time></trkpt><trkpt lat="44.90920727302046" lon="11.913795010011311"><ele>0.0</ele><time>2026-03-23T15:11:19.999Z</time></trkpt><trkpt lat="44.90915083956743" lon="11.91391701668246"><ele>0.0</ele><time>2026-03-23T15:11:21.999Z</time></trkpt><trkpt lat="44.90909871064233" lon="11.914042437084898"><ele>0.0</ele><time>2026-03-23T15:11:23.999Z</time></trkpt><trkpt lat="44.90903300398415" lon="11.91416817815842"><ele>0.0</ele><time>2026-03-23T15:11:25.999Z</time></trkpt><trkpt lat="44.90897295502608" lon="11.914297346097069"><ele>0.0</ele><time>2026-03-23T15:11:27.999Z</time></trkpt><trkpt lat="44.90891585236697" lon="11.914422715630659"><ele>0.0</ele><time>2026-03-23T15:11:29.999Z</time></trkpt><trkpt lat="44.90885585942078" lon="11.914547101332369"><ele>0.0</ele><time>2026-03-23T15:11:31.999Z</time></trkpt><trkpt lat="44.908804738966474" lon="11.914668023459782"><ele>0.0</ele><time>2026-03-23T15:11:33.999Z</time></trkpt><trkpt lat="44.908755544398204" lon="11.914780273347487"><ele>0.0</ele><time>2026-03-23T15:11:35.999Z</time></trkpt><trkpt lat="44.90871354747082" lon="11.91489810197661"><ele>0.0</ele><time>2026-03-23T15:11:37.999Z</time></trkpt><trkpt lat="44.908682388365854" lon="11.915036337176948"><ele>0.0</ele><time>2026-03-23T15:11:39.999Z</time></trkpt><trkpt lat="44.90864326232304" lon="11.91518557396582"><ele>0.0</ele><time>2026-03-23T15:11:41.999Z</time></trkpt><trkpt lat="44.90861417685149" lon="11.915343288255816"><ele>0.0</ele><time>2026-03-23T15:11:43.999Z</time></trkpt><trkpt lat="44.908587602357294" lon="11.915499997705787"><ele>0.0</ele><time>2026-03-23T15:11:45.999Z</time></trkpt><trkpt lat="44.90856488950726" lon="11.915642982047876"><ele>0.0</ele><time>2026-03-23T15:11:47.999Z</time></trkpt><trkpt lat="44.908542659190935" lon="11.915776492126069"><ele>0.0</ele><time>2026-03-23T15:11:50Z</time></trkpt><trkpt lat="44.9085249336248" lon="11.915883070830024"><ele>0.0</ele><time>2026-03-23T15:11:52Z</time></trkpt><trkpt lat="44.908507798297826" lon="11.915981531152786"><ele>0.0</ele><time>2026-03-23T15:14:55Z</time></trkpt><trkpt lat="44.908468145592174" lon="11.916145380614687"><ele>0.0</ele><time>2026-03-23T15:14:58Z</time></trkpt><trkpt lat="44.90844887376928" lon="11.916256771600372"><ele>0.0</ele><time>2026-03-23T15:14:59.999Z</time></trkpt><trkpt lat="44.908427821880984" lon="11.916391529988184"><ele>0.0</ele><time>2026-03-23T15:15:01.999Z</time></trkpt><trkpt lat="44.908406196483234" lon="11.91654344763876"><ele>0.0</ele><time>2026-03-23T15:15:03.999Z</time></trkpt><trkpt lat="44.90837685575961" lon="11.916705321780958"><ele>0.0</ele><time>2026-03-23T15:15:05.999Z</time></trkpt><trkpt lat="44.90834699083265" lon="11.916878130326225"><ele>-0.16666666666666666</ele><time>2026-03-23T15:15:07.999Z</time></trkpt><trkpt lat="44.90833161422361" lon="11.91697009604766"><ele>-0.3333333333333333</ele><time>2026-03-23T15:15:08.999Z</time></trkpt><trkpt lat="44.90831982517821" lon="11.917060572794359"><ele>-0.5</ele><time>2026-03-23T15:15:09.999Z</time></trkpt><trkpt lat="44.90829038792325" lon="11.91723355424592"><ele>-0.6666666666666666</ele><time>2026-03-23T15:15:11.999Z</time></trkpt><trkpt lat="44.90827436009867" lon="11.917323810891192"><ele>-0.8333333333333333</ele><time>2026-03-23T15:15:12.999Z</time></trkpt><trkpt lat="44.90825898064387" lon="11.917410716049043"><ele>-1.0</ele><time>2026-03-23T15:15:13.999Z</time></trkpt><trkpt lat="44.9082443052894" lon="11.917499246273488"><ele>-1.0</ele><time>2026-03-23T15:15:14.999Z</time></trkpt><trkpt lat="44.908228593224216" lon="11.917592369611244"><ele>-0.9999999999999999</ele><time>2026-03-23T15:15:15.999Z</time></trkpt><trkpt lat="44.90821539324351" lon="11.917685574399831"><ele>-1.0</ele><time>2026-03-23T15:15:16.999Z</time></trkpt><trkpt lat="44.908202219232" lon="11.917778993348444"><ele>-1.0</ele><time>2026-03-23T15:15:17.999Z</time></trkpt><trkpt lat="44.90819010344242" lon="11.917873512756495"><ele>-0.9999999999999999</ele><time>2026-03-23T15:15:18.999Z</time></trkpt><trkpt lat="44.90817434994512" lon="11.917969583841035"><ele>-1.0</ele><time>2026-03-23T15:15:19.999Z</time></trkpt><trkpt lat="44.908161624653935" lon="11.918069033859714"><ele>-1.0</ele><time>2026-03-23T15:15:20.999Z</time></trkpt><trkpt lat="44.90814817484999" lon="11.918163647277693"><ele>-0.9999999999999999</ele><time>2026-03-23T15:15:21.999Z</time></trkpt><trkpt lat="44.908132377159376" lon="11.918259381867928"><ele>-1.0</ele><time>2026-03-23T15:15:22.999Z</time></trkpt><trkpt lat="44.9081177367773" lon="11.918353747536377"><ele>-1.0</ele><time>2026-03-23T15:15:23.999Z</time></trkpt><trkpt lat="44.90809876491652" lon="11.91844458790963"><ele>-1.0</ele><time>2026-03-23T15:15:24.999Z</time></trkpt><trkpt lat="44.908084882798036" lon="11.91853333386668"><ele>-0.9999999999999999</ele><time>2026-03-23T15:15:25.999Z</time></trkpt><trkpt lat="44.90807119778644" lon="11.918623682598167"><ele>-1.0</ele><time>2026-03-23T15:15:26.999Z</time></trkpt><trkpt lat="44.908046731296544" lon="11.91879445666945"><ele>-1.2000000000000002</ele><time>2026-03-23T15:15:28.999Z</time></trkpt><trkpt lat="44.90802955162135" lon="11.91895466545515"><ele>-1.4000000000000001</ele><time>2026-03-23T15:15:30.999Z</time></trkpt><trkpt lat="44.90800121978683" lon="11.919101478348558"><ele>-1.6</ele><time>2026-03-23T15:15:32.999Z</time></trkpt><trkpt lat="44.907977641900885" lon="11.919238331916574"><ele>-1.8</ele><time>2026-03-23T15:15:34.999Z</time></trkpt><trkpt lat="44.90795078784191" lon="11.919361982172555"><ele>-2.0</ele><time>2026-03-23T15:15:36.999Z</time></trkpt><trkpt lat="44.90791977563304" lon="11.919507342334823"><ele>-2.2</ele><time>2026-03-23T15:15:38.999Z</time></trkpt><trkpt lat="44.9079044408614" lon="11.919665127911937"><ele>-2.4000000000000004</ele><time>2026-03-23T15:15:40.999Z</time></trkpt><trkpt lat="44.907885641742936" lon="11.919811056543383"><ele>-2.5999999999999996</ele><time>2026-03-23T15:15:42.999Z</time></trkpt><trkpt lat="44.90785730265788" lon="11.919971616814763"><ele>-2.8</ele><time>2026-03-23T15:15:44.999Z</time></trkpt><trkpt lat="44.907834680473876" lon="11.920129495015122"><ele>-3.0</ele><time>2026-03-23T15:15:46.999Z</time></trkpt><trkpt lat="44.907790638337765" lon="11.920270765702167"><ele>-3.0</ele><time>2026-03-23T15:15:48.999Z</time></trkpt><trkpt lat="44.90776536048695" lon="11.920420509833063"><ele>-3.0</ele><time>2026-03-23T15:15:50.999Z</time></trkpt><trkpt lat="44.90774068332214" lon="11.920577363228817"><ele>-3.0</ele><time>2026-03-23T15:15:52.999Z</time></trkpt><trkpt lat="44.907714774786136" lon="11.920737670862628"><ele>-3.0</ele><time>2026-03-23T15:15:54.999Z</time></trkpt><trkpt lat="44.907689919058384" lon="11.920900381927039"><ele>-2.6</ele><time>2026-03-23T15:15:56.999Z</time></trkpt><trkpt lat="44.90766594855025" lon="11.921044922475941"><ele>-2.1999999999999997</ele><time>2026-03-23T15:15:58.999Z</time></trkpt><trkpt lat="44.907639463060086" lon="11.92118210476901"><ele>-1.8</ele><time>2026-03-23T15:16:00.999Z</time></trkpt><trkpt lat="44.907620647696824" lon="11.921315399191906"><ele>-1.4</ele><time>2026-03-23T15:16:03Z</time></trkpt><trkpt lat="44.9075961308683" lon="11.92143862172526"><ele>-1.0</ele><time>2026-03-23T15:16:05Z</time></trkpt><trkpt lat="44.90755452446106" lon="11.921542574405048"><ele>-0.8</ele><time>2026-03-23T15:16:07Z</time></trkpt><trkpt lat="44.907427817889435" lon="11.921605652101983"><ele>-0.6000000000000001</ele><time>2026-03-23T15:16:10Z</time></trkpt><trkpt lat="44.907344605054" lon="11.921571716038903"><ele>-0.4</ele><time>2026-03-23T15:16:12Z</time></trkpt><trkpt lat="44.90726071856325" lon="11.921557695421459"><ele>-0.2</ele><time>2026-03-23T15:16:14Z</time></trkpt><trkpt lat="44.9071889185015" lon="11.921556272861908"><ele>0.0</ele><time>2026-03-23T15:16:16Z</time></trkpt><trkpt lat="44.90718209687283" lon="11.921779277925156"><ele>-0.3333333333333333</ele><time>2026-03-23T15:16:18Z</time></trkpt><trkpt lat="44.907201709593224" lon="11.921898086082003"><ele>-0.6666666666666666</ele><time>2026-03-23T15:16:20Z</time></trkpt><trkpt lat="44.90721686893425" lon="11.922011116917362"><ele>-1.0</ele><time>2026-03-23T15:16:22Z</time></trkpt><trkpt lat="44.907227949548094" lon="11.922111341317223"><ele>-1.3333333333333333</ele><time>2026-03-23T15:16:24Z</time></trkpt><trkpt lat="44.90723224845623" lon="11.9222401252048"><ele>-1.6666666666666665</ele><time>2026-03-23T15:16:26Z</time></trkpt><trkpt lat="44.90724003951085" lon="11.922379747341077"><ele>-2.0</ele><time>2026-03-23T15:16:28Z</time></trkpt><trkpt lat="44.90723581506321" lon="11.922535394384436"><ele>-2.0</ele><time>2026-03-23T15:16:30Z</time></trkpt><trkpt lat="44.90725223815863" lon="11.922672529230116"><ele>-2.0</ele><time>2026-03-23T15:16:32Z</time></trkpt><trkpt lat="44.90726079320885" lon="11.922799010490932"><ele>-2.0</ele><time>2026-03-23T15:16:34Z</time></trkpt><trkpt lat="44.90726554622267" lon="11.922922426492974"><ele>-2.0</ele><time>2026-03-23T15:16:36Z</time></trkpt><trkpt lat="44.90727758361025" lon="11.923059405705496"><ele>-2.0</ele><time>2026-03-23T15:16:38Z</time></trkpt><trkpt lat="44.90728302631701" lon="11.923201996448272"><ele>-1.9999999999999998</ele><time>2026-03-23T15:16:40Z</time></trkpt><trkpt lat="44.90729677230754" lon="11.923328089456623"><ele>-2.0</ele><time>2026-03-23T15:16:42Z</time></trkpt><trkpt lat="44.90730353220987" lon="11.923447428692077"><ele>-2.0</ele><time>2026-03-23T15:16:44Z</time></trkpt><trkpt lat="44.90730401072595" lon="11.92356326033489"><ele>-2.0</ele><time>2026-03-23T15:16:46Z</time></trkpt><trkpt lat="44.907306772341755" lon="11.923694315296247"><ele>-1.9999999999999998</ele><time>2026-03-23T15:16:48Z</time></trkpt><trkpt lat="44.90731294098249" lon="11.923817426646625"><ele>-2.0</ele><time>2026-03-23T15:16:50Z</time></trkpt><trkpt lat="44.90731982970426" lon="11.923930978209963"><ele>-2.0</ele><time>2026-03-23T15:16:52Z</time></trkpt><trkpt lat="44.90732676444903" lon="11.924059884042466"><ele>-2.0</ele><time>2026-03-23T15:16:54Z</time></trkpt><trkpt lat="44.907327609089805" lon="11.924204958852798"><ele>-2.0</ele><time>2026-03-23T15:16:56Z</time></trkpt><trkpt lat="44.907344717344884" lon="11.924362855837431"><ele>-2.0</ele><time>2026-03-23T15:16:58Z</time></trkpt><trkpt lat="44.90735666013392" lon="11.924528073594303"><ele>-2.0</ele><time>2026-03-23T15:17:00Z</time></trkpt><trkpt lat="44.90735603413966" lon="11.924703706844628"><ele>-1.9999999999999998</ele><time>2026-03-23T15:17:02Z</time></trkpt><trkpt lat="44.9073700016892" lon="11.924885088450376"><ele>-2.0</ele><time>2026-03-23T15:17:04Z</time></trkpt><trkpt lat="44.90738131111291" lon="11.924977546693325"><ele>-2.0</ele><time>2026-03-23T15:17:05Z</time></trkpt><trkpt lat="44.90738828724971" lon="11.925070457231083"><ele>-2.0</ele><time>2026-03-23T15:17:06Z</time></trkpt><trkpt lat="44.90738943505436" lon="11.925167177108506"><ele>-1.9999999999999998</ele><time>2026-03-23T15:17:07Z</time></trkpt><trkpt lat="44.907392898574" lon="11.925264421873973"><ele>-2.0</ele><time>2026-03-23T15:17:08Z</time></trkpt><trkpt lat="44.907398445522695" lon="11.92536527409194"><ele>-2.0</ele><time>2026-03-23T15:17:09Z</time></trkpt><trkpt lat="44.907404574399756" lon="11.925464946082338"><ele>-1.9999999999999998</ele><time>2026-03-23T15:17:10Z</time></trkpt><trkpt lat="44.907410322404814" lon="11.925569118935027"><ele>-2.0</ele><time>2026-03-23T15:17:11Z</time></trkpt><trkpt lat="44.907416924379895" lon="11.92567314949708"><ele>-2.0</ele><time>2026-03-23T15:17:12Z</time></trkpt><trkpt lat="44.907423256560705" lon="11.92578002864312"><ele>-1.9999999999999998</ele><time>2026-03-23T15:17:12.999Z</time></trkpt><trkpt lat="44.90743024300863" lon="11.925888478579926"><ele>-2.0</ele><time>2026-03-23T15:17:13.999Z</time></trkpt><trkpt lat="44.90743522927787" lon="11.925996225730772"><ele>-2.0</ele><time>2026-03-23T15:17:14.999Z</time></trkpt><trkpt lat="44.9074397802832" lon="11.926103654376528"><ele>-1.9999999999999998</ele><time>2026-03-23T15:17:15.999Z</time></trkpt><trkpt lat="44.907445157350196" lon="11.926213241487003"><ele>-2.0</ele><time>2026-03-23T15:17:16.999Z</time></trkpt><trkpt lat="44.907453093449305" lon="11.926321051370588"><ele>-2.0</ele><time>2026-03-23T15:17:17.999Z</time></trkpt><trkpt lat="44.90745886821253" lon="11.926427862041288"><ele>-2.0</ele><time>2026-03-23T15:17:18.999Z</time></trkpt><trkpt lat="44.90746088667657" lon="11.926535632638569"><ele>-1.9999999999999998</ele><time>2026-03-23T15:17:19.999Z</time></trkpt><trkpt lat="44.907464257187776" lon="11.926642377874108"><ele>-2.0</ele><time>2026-03-23T15:17:20.999Z</time></trkpt><trkpt lat="44.907472435697215" lon="11.926750506536015"><ele>-1.9999999999999998</ele><time>2026-03-23T15:17:21.999Z</time></trkpt><trkpt lat="44.907478405547195" lon="11.926856890430958"><ele>-2.0</ele><time>2026-03-23T15:17:22.999Z</time></trkpt><trkpt lat="44.90748212552373" lon="11.92696575483022"><ele>-2.0</ele><time>2026-03-23T15:17:23.999Z</time></trkpt><trkpt lat="44.907486004232496" lon="11.927075102272067"><ele>-2.0</ele><time>2026-03-23T15:17:24.999Z</time></trkpt><trkpt lat="44.907489871184026" lon="11.927185773983407"><ele>-1.9999999999999998</ele><time>2026-03-23T15:17:25.999Z</time></trkpt><trkpt lat="44.907493568000746" lon="11.92729611877124"><ele>-2.0</ele><time>2026-03-23T15:17:26.999Z</time></trkpt><trkpt lat="44.907497410719174" lon="11.927403954233036"><ele>-1.9999999999999998</ele><time>2026-03-23T15:17:27.999Z</time></trkpt><trkpt lat="44.907502430457335" lon="11.927510437742809"><ele>-2.0</ele><time>2026-03-23T15:17:28.999Z</time></trkpt><trkpt lat="44.90751194871593" lon="11.92761989023459"><ele>-2.0</ele><time>2026-03-23T15:17:29.999Z</time></trkpt><trkpt lat="44.9075176270241" lon="11.927726805496773"><ele>-2.0</ele><time>2026-03-23T15:17:30.999Z</time></trkpt><trkpt lat="44.90752624334317" lon="11.927836278996402"><ele>-1.9999999999999998</ele><time>2026-03-23T15:17:31.999Z</time></trkpt><trkpt lat="44.90752994384593" lon="11.927938788656977"><ele>-2.0</ele><time>2026-03-23T15:17:32.999Z</time></trkpt><trkpt lat="44.90753193355898" lon="11.928046030477809"><ele>-1.857142857142857</ele><time>2026-03-23T15:17:33.999Z</time></trkpt><trkpt lat="44.90753644208061" lon="11.9281530093271"><ele>-1.714285714285714</ele><time>2026-03-23T15:17:34.999Z</time></trkpt><trkpt lat="44.907543067293965" lon="11.928260236201439"><ele>-1.5714285714285714</ele><time>2026-03-23T15:17:35.999Z</time></trkpt><trkpt lat="44.907545980603096" lon="11.9283613186161"><ele>-1.4285714285714284</ele><time>2026-03-23T15:17:36.999Z</time></trkpt><trkpt lat="44.907550668616835" lon="11.92846199655797"><ele>-1.2857142857142856</ele><time>2026-03-23T15:17:37.999Z</time></trkpt><trkpt lat="44.90755493731271" lon="11.928555713677657"><ele>-1.1428571428571428</ele><time>2026-03-23T15:17:38.999Z</time></trkpt><trkpt lat="44.90756273974601" lon="11.92864884073038"><ele>-1.0</ele><time>2026-03-23T15:17:39.999Z</time></trkpt><trkpt lat="44.907570633865404" lon="11.928824207254637"><ele>-1.2000000000000002</ele><time>2026-03-23T15:17:41.999Z</time></trkpt><trkpt lat="44.90757792956144" lon="11.92898824686323"><ele>-1.4000000000000001</ele><time>2026-03-23T15:17:43.999Z</time></trkpt><trkpt lat="44.90758424376402" lon="11.929142634862718"><ele>-1.6</ele><time>2026-03-23T15:17:45.999Z</time></trkpt><trkpt lat="44.907590119789226" lon="11.929289967614483"><ele>-1.8</ele><time>2026-03-23T15:17:47.999Z</time></trkpt><trkpt lat="44.90759830957532" lon="11.929421208294348"><ele>-2.0</ele><time>2026-03-23T15:17:49.999Z</time></trkpt><trkpt lat="44.90760429855969" lon="11.929547389591729"><ele>-2.1666666666666665</ele><time>2026-03-23T15:17:51.999Z</time></trkpt><trkpt lat="44.90761515356967" lon="11.92967111724219"><ele>-2.333333333333333</ele><time>2026-03-23T15:17:53.999Z</time></trkpt><trkpt lat="44.90761422862087" lon="11.929788491879886"><ele>-2.5</ele><time>2026-03-23T15:17:55.999Z</time></trkpt><trkpt lat="44.90761910681654" lon="11.929913640279786"><ele>-2.6666666666666665</ele><time>2026-03-23T15:17:57.999Z</time></trkpt><trkpt lat="44.90763178459858" lon="11.930033774657279"><ele>-2.8333333333333335</ele><time>2026-03-23T15:17:59.999Z</time></trkpt><trkpt lat="44.90764142610736" lon="11.930160279625376"><ele>-3.0</ele><time>2026-03-23T15:18:01.999Z</time></trkpt><trkpt lat="44.90764842926378" lon="11.930317991904255"><ele>-3.1666666666666665</ele><time>2026-03-23T15:18:03.999Z</time></trkpt><trkpt lat="44.9076577210492" lon="11.930486671909634"><ele>-3.333333333333333</ele><time>2026-03-23T15:18:05.999Z</time></trkpt><trkpt lat="44.90766952278074" lon="11.9306620009184"><ele>-3.5</ele><time>2026-03-23T15:18:08Z</time></trkpt><trkpt lat="44.90767577506775" lon="11.930752731975979"><ele>-3.6666666666666665</ele><time>2026-03-23T15:18:09Z</time></trkpt><trkpt lat="44.907675890881066" lon="11.930847316272425"><ele>-3.833333333333333</ele><time>2026-03-23T15:18:10Z</time></trkpt><trkpt lat="44.90767781771895" lon="11.930941800457525"><ele>-4.0</ele><time>2026-03-23T15:18:11Z</time></trkpt><trkpt lat="44.90768195823296" lon="11.931039587557528"><ele>-3.9999999999999996</ele><time>2026-03-23T15:18:12Z</time></trkpt><trkpt lat="44.90768895683212" lon="11.931140666196322"><ele>-4.0</ele><time>2026-03-23T15:18:13Z</time></trkpt><trkpt lat="44.90769728519123" lon="11.931241659688283"><ele>-4.0</ele><time>2026-03-23T15:18:14Z</time></trkpt><trkpt lat="44.907689148793665" lon="11.931338338965176"><ele>-4.0</ele><time>2026-03-23T15:18:15Z</time></trkpt><trkpt lat="44.90770713075634" lon="11.931427348706212"><ele>-3.9999999999999996</ele><time>2026-03-23T15:18:16Z</time></trkpt><trkpt lat="44.907710756173564" lon="11.931601213266333"><ele>-4.0</ele><time>2026-03-23T15:18:18Z</time></trkpt><trkpt lat="44.90770842495005" lon="11.931774218050379"><ele>-4.0</ele><time>2026-03-23T15:18:20Z</time></trkpt><trkpt lat="44.9077161637168" lon="11.931864179248482"><ele>-4.0</ele><time>2026-03-23T15:18:21Z</time></trkpt><trkpt lat="44.90773081767424" lon="11.9320390201864"><ele>-4.0</ele><time>2026-03-23T15:18:23Z</time></trkpt><trkpt lat="44.90773896172805" lon="11.932197880332437"><ele>-4.0</ele><time>2026-03-23T15:18:25Z</time></trkpt><trkpt lat="44.90775110327102" lon="11.932370108987906"><ele>-4.0</ele><time>2026-03-23T15:18:27Z</time></trkpt><trkpt lat="44.90775881658191" lon="11.9324631271866"><ele>-4.25</ele><time>2026-03-23T15:18:28Z</time></trkpt><trkpt lat="44.907767733870365" lon="11.93264160679827"><ele>-4.5</ele><time>2026-03-23T15:18:30Z</time></trkpt><trkpt lat="44.907762914968444" lon="11.932799940365449"><ele>-4.75</ele><time>2026-03-23T15:18:32Z</time></trkpt><trkpt lat="44.90778099884496" lon="11.93294930311399"><ele>-5.0</ele><time>2026-03-23T15:18:34Z</time></trkpt><trkpt lat="44.907772680878175" lon="11.9331229919251"><ele>-5.0</ele><time>2026-03-23T15:18:36Z</time></trkpt><trkpt lat="44.90778137971845" lon="11.933212481212307"><ele>-5.0</ele><time>2026-03-23T15:18:37Z</time></trkpt><trkpt lat="44.90779490488761" lon="11.933306321000588"><ele>-5.0</ele><time>2026-03-23T15:18:38Z</time></trkpt><trkpt lat="44.90780218468528" lon="11.933402234133073"><ele>-5.0</ele><time>2026-03-23T15:18:39Z</time></trkpt><trkpt lat="44.907808977122706" lon="11.933498768887578"><ele>-5.0</ele><time>2026-03-23T15:18:40Z</time></trkpt><trkpt lat="44.90781420425272" lon="11.933601132809354"><ele>-5.0</ele><time>2026-03-23T15:18:41Z</time></trkpt><trkpt lat="44.90781581423465" lon="11.933700497453323"><ele>-5.0</ele><time>2026-03-23T15:18:42Z</time></trkpt><trkpt lat="44.907820106155995" lon="11.933804665554621"><ele>-4.857142857142857</ele><time>2026-03-23T15:18:43Z</time></trkpt><trkpt lat="44.90782800184058" lon="11.933905599576194"><ele>-4.714285714285714</ele><time>2026-03-23T15:18:44Z</time></trkpt><trkpt lat="44.90782656727124" lon="11.934006469418053"><ele>-4.571428571428571</ele><time>2026-03-23T15:18:45Z</time></trkpt><trkpt lat="44.90783543848473" lon="11.934102789052293"><ele>-4.428571428571429</ele><time>2026-03-23T15:18:46Z</time></trkpt><trkpt lat="44.90784201715589" lon="11.934198783127016"><ele>-4.285714285714286</ele><time>2026-03-23T15:18:47Z</time></trkpt><trkpt lat="44.907846248168475" lon="11.934304143742052"><ele>-4.142857142857142</ele><time>2026-03-23T15:18:48Z</time></trkpt><trkpt lat="44.9078512871039" lon="11.934402607058438"><ele>-4.0</ele><time>2026-03-23T15:18:49Z</time></trkpt><trkpt lat="44.90785159113289" lon="11.934509908525822"><ele>-3.9999999999999996</ele><time>2026-03-23T15:18:50Z</time></trkpt><trkpt lat="44.90785461632919" lon="11.934617461309342"><ele>-4.0</ele><time>2026-03-23T15:18:51Z</time></trkpt><trkpt lat="44.90785874083219" lon="11.934723680355528"><ele>-4.0</ele><time>2026-03-23T15:18:52Z</time></trkpt><trkpt lat="44.907865458574705" lon="11.934828247217403"><ele>-4.0</ele><time>2026-03-23T15:18:53Z</time></trkpt><trkpt lat="44.90787094006151" lon="11.934937426273878"><ele>-3.9999999999999996</ele><time>2026-03-23T15:18:54Z</time></trkpt><trkpt lat="44.90787667084428" lon="11.935044710254655"><ele>-4.0</ele><time>2026-03-23T15:18:55Z</time></trkpt><trkpt lat="44.90788372287441" lon="11.935152014712036"><ele>-3.9999999999999996</ele><time>2026-03-23T15:18:56Z</time></trkpt><trkpt lat="44.90789018305645" lon="11.935262168959975"><ele>-4.0</ele><time>2026-03-23T15:18:57Z</time></trkpt><trkpt lat="44.907889714304346" lon="11.935367303663542"><ele>-4.0</ele><time>2026-03-23T15:18:58Z</time></trkpt><trkpt lat="44.907898416300476" lon="11.935476213809038"><ele>-4.0</ele><time>2026-03-23T15:18:59Z</time></trkpt><trkpt lat="44.90790388850078" lon="11.935585719945738"><ele>-3.9999999999999996</ele><time>2026-03-23T15:19:00Z</time></trkpt><trkpt lat="44.90790463934736" lon="11.935694461754785"><ele>-4.0</ele><time>2026-03-23T15:19:01Z</time></trkpt><trkpt lat="44.90790569500796" lon="11.935805319263569"><ele>-3.833333333333333</ele><time>2026-03-23T15:19:02Z</time></trkpt><trkpt lat="44.90790656089962" lon="11.935912917685616"><ele>-3.6666666666666665</ele><time>2026-03-23T15:19:03Z</time></trkpt><trkpt lat="44.90791273865888" lon="11.936022109747563"><ele>-3.5</ele><time>2026-03-23T15:19:04Z</time></trkpt><trkpt lat="44.907920276973115" lon="11.936131286239924"><ele>-3.333333333333333</ele><time>2026-03-23T15:19:05Z</time></trkpt><trkpt lat="44.90792902422037" lon="11.936241459324322"><ele>-3.1666666666666665</ele><time>2026-03-23T15:19:06Z</time></trkpt><trkpt lat="44.90793325970813" lon="11.93634993460261"><ele>-3.0</ele><time>2026-03-23T15:19:07Z</time></trkpt><trkpt lat="44.907936177248224" lon="11.936458779035616"><ele>-3.0</ele><time>2026-03-23T15:19:08Z</time></trkpt><trkpt lat="44.90794281527739" lon="11.936568128657944"><ele>-3.0</ele><time>2026-03-23T15:19:09Z</time></trkpt><trkpt lat="44.90795018974542" lon="11.936672848248248"><ele>-3.0</ele><time>2026-03-23T15:19:10Z</time></trkpt><trkpt lat="44.907956979905144" lon="11.936781779935444"><ele>-3.0</ele><time>2026-03-23T15:19:11Z</time></trkpt><trkpt lat="44.90796723179795" lon="11.936890233453079"><ele>-3.0</ele><time>2026-03-23T15:19:12Z</time></trkpt><trkpt lat="44.90796556269468" lon="11.936999135829744"><ele>-3.0</ele><time>2026-03-23T15:19:13Z</time></trkpt><trkpt lat="44.907969867881995" lon="11.937106141525096"><ele>-3.0</ele><time>2026-03-23T15:19:14Z</time></trkpt><trkpt lat="44.90797657401309" lon="11.937213743296537"><ele>-3.0</ele><time>2026-03-23T15:19:15Z</time></trkpt><trkpt lat="44.90798476319066" lon="11.937323256187879"><ele>-3.0</ele><time>2026-03-23T15:19:16Z</time></trkpt><trkpt lat="44.90798951368442" lon="11.937432208221868"><ele>-3.0</ele><time>2026-03-23T15:19:17Z</time></trkpt><trkpt lat="44.90799306374276" lon="11.937538963858392"><ele>-3.0</ele><time>2026-03-23T15:19:17.999Z</time></trkpt><trkpt lat="44.90800109206335" lon="11.937645644001044"><ele>-3.0</ele><time>2026-03-23T15:19:18.999Z</time></trkpt><trkpt lat="44.90800732416602" lon="11.937742318632143"><ele>-2.9999999999999996</ele><time>2026-03-23T15:19:19.999Z</time></trkpt><trkpt lat="44.90801142152752" lon="11.937839227045488"><ele>-3.0</ele><time>2026-03-23T15:19:20.999Z</time></trkpt><trkpt lat="44.908014527115775" lon="11.937938797625904"><ele>-3.0</ele><time>2026-03-23T15:19:21.999Z</time></trkpt><trkpt lat="44.90802037250047" lon="11.938042309128301"><ele>-3.0</ele><time>2026-03-23T15:19:22.999Z</time></trkpt><trkpt lat="44.908020776595684" lon="11.938146088393603"><ele>-3.0</ele><time>2026-03-23T15:19:23.999Z</time></trkpt><trkpt lat="44.90802446932345" lon="11.93824978364226"><ele>-2.9999999999999996</ele><time>2026-03-23T15:19:24.999Z</time></trkpt><trkpt lat="44.90802978952496" lon="11.938357749716962"><ele>-3.0</ele><time>2026-03-23T15:19:25.999Z</time></trkpt><trkpt lat="44.908041015155796" lon="11.93846063511796"><ele>-3.1428571428571423</ele><time>2026-03-23T15:19:26.999Z</time></trkpt><trkpt lat="44.908050781022894" lon="11.938566070144923"><ele>-3.2857142857142856</ele><time>2026-03-23T15:19:27.999Z</time></trkpt><trkpt lat="44.90805325817468" lon="11.938668344929868"><ele>-3.4285714285714284</ele><time>2026-03-23T15:19:28.999Z</time></trkpt><trkpt lat="44.908056036804965" lon="11.938768280610992"><ele>-3.571428571428571</ele><time>2026-03-23T15:19:29.999Z</time></trkpt><trkpt lat="44.90805954618919" lon="11.938867380493784"><ele>-3.714285714285714</ele><time>2026-03-23T15:19:30.999Z</time></trkpt><trkpt lat="44.90805848142367" lon="11.93896037531484"><ele>-3.8571428571428568</ele><time>2026-03-23T15:19:31.999Z</time></trkpt><trkpt lat="44.90805852863228" lon="11.939063143710213"><ele>-4.0</ele><time>2026-03-23T15:19:32.999Z</time></trkpt><trkpt lat="44.90806782159717" lon="11.939243538387238"><ele>-3.6</ele><time>2026-03-23T15:19:34.999Z</time></trkpt><trkpt lat="44.908082272826825" lon="11.939412202227796"><ele>-3.2</ele><time>2026-03-23T15:19:36.999Z</time></trkpt><trkpt lat="44.908089932613116" lon="11.939571614972026"><ele>-2.8000000000000003</ele><time>2026-03-23T15:19:38.999Z</time></trkpt><trkpt lat="44.90809405890099" lon="11.939724182069954"><ele>-2.4000000000000004</ele><time>2026-03-23T15:19:40.999Z</time></trkpt><trkpt lat="44.90810128855381" lon="11.939868223589652"><ele>-2.0</ele><time>2026-03-23T15:19:42.999Z</time></trkpt><trkpt lat="44.90811317171608" lon="11.94000659227447"><ele>-2.0</ele><time>2026-03-23T15:19:44.999Z</time></trkpt><trkpt lat="44.908126350481055" lon="11.940157568620306"><ele>-2.0</ele><time>2026-03-23T15:19:46.999Z</time></trkpt><trkpt lat="44.90813120268381" lon="11.940321868341641"><ele>-2.0</ele><time>2026-03-23T15:19:48.999Z</time></trkpt><trkpt lat="44.908134245076255" lon="11.940496006044567"><ele>-2.0</ele><time>2026-03-23T15:19:50.999Z</time></trkpt><trkpt lat="44.908145682443966" lon="11.940659537106972"><ele>-2.0</ele><time>2026-03-23T15:19:52.999Z</time></trkpt><trkpt lat="44.90815137989789" lon="11.94081406367299"><ele>-2.0</ele><time>2026-03-23T15:19:54.999Z</time></trkpt><trkpt lat="44.908162543002604" lon="11.940950615993174"><ele>-2.0</ele><time>2026-03-23T15:19:56.999Z</time></trkpt><trkpt lat="44.90817391396824" lon="11.941092894453048"><ele>-2.0</ele><time>2026-03-23T15:19:58.999Z</time></trkpt><trkpt lat="44.90817794678032" lon="11.94125376602297"><ele>-2.0</ele><time>2026-03-23T15:20:00.999Z</time></trkpt><trkpt lat="44.90818523889657" lon="11.94142492605666"><ele>-2.0</ele><time>2026-03-23T15:20:02.999Z</time></trkpt><trkpt lat="44.90819314349526" lon="11.941514329770026"><ele>-2.0</ele><time>2026-03-23T15:20:03.999Z</time></trkpt><trkpt lat="44.90819590557488" lon="11.941605334206022"><ele>-2.0</ele><time>2026-03-23T15:20:04.999Z</time></trkpt><trkpt lat="44.908195354788184" lon="11.941774608563628"><ele>-2.0</ele><time>2026-03-23T15:20:06.999Z</time></trkpt><trkpt lat="44.90820927513192" lon="11.941932034479803"><ele>-2.0</ele><time>2026-03-23T15:20:08.999Z</time></trkpt><trkpt lat="44.90822139940265" lon="11.942084260612408"><ele>-2.4000000000000004</ele><time>2026-03-23T15:20:10.999Z</time></trkpt><trkpt lat="44.90822954426662" lon="11.942245228986744"><ele>-2.8000000000000003</ele><time>2026-03-23T15:20:12.999Z</time></trkpt><trkpt lat="44.908238409245286" lon="11.942413156864033"><ele>-3.2</ele><time>2026-03-23T15:20:15Z</time></trkpt><trkpt lat="44.908234081029335" lon="11.94250259082579"><ele>-3.6</ele><time>2026-03-23T15:20:16Z</time></trkpt><trkpt lat="44.90825090359955" lon="11.94266797615076"><ele>-4.0</ele><time>2026-03-23T15:20:18Z</time></trkpt><trkpt lat="44.90825157897991" lon="11.942836133620682"><ele>-4.0</ele><time>2026-03-23T15:20:20Z</time></trkpt><trkpt lat="44.90826144913175" lon="11.942991453711798"><ele>-4.0</ele><time>2026-03-23T15:20:22Z</time></trkpt><trkpt lat="44.90826685845035" lon="11.94314161786193"><ele>-4.0</ele><time>2026-03-23T15:20:24Z</time></trkpt><trkpt lat="44.908273716996774" lon="11.943283307436706"><ele>-4.0</ele><time>2026-03-23T15:20:26Z</time></trkpt><trkpt lat="44.908283649389624" lon="11.943447301098358"><ele>-4.0</ele><time>2026-03-23T15:20:28Z</time></trkpt><trkpt lat="44.90828352983562" lon="11.943619861337341"><ele>-4.0</ele><time>2026-03-23T15:20:30Z</time></trkpt><trkpt lat="44.90828924212722" lon="11.94371137683833"><ele>-3.9999999999999996</ele><time>2026-03-23T15:20:31Z</time></trkpt><trkpt lat="44.90830263570067" lon="11.943801334573598"><ele>-4.0</ele><time>2026-03-23T15:20:32Z</time></trkpt><trkpt lat="44.90830769343148" lon="11.94389572553235"><ele>-4.0</ele><time>2026-03-23T15:20:33Z</time></trkpt><trkpt lat="44.90831136938186" lon="11.943992531556207"><ele>-3.9999999999999996</ele><time>2026-03-23T15:20:34Z</time></trkpt><trkpt lat="44.908312612394305" lon="11.94409071661101"><ele>-4.0</ele><time>2026-03-23T15:20:35Z</time></trkpt><trkpt lat="44.908315686924006" lon="11.944190119703386"><ele>-4.0</ele><time>2026-03-23T15:20:36Z</time></trkpt><trkpt lat="44.90831917754957" lon="11.94428891049583"><ele>-4.0</ele><time>2026-03-23T15:20:37Z</time></trkpt><trkpt lat="44.908326793009635" lon="11.944393768779968"><ele>-3.9999999999999996</ele><time>2026-03-23T15:20:38Z</time></trkpt><trkpt lat="44.9083310360242" lon="11.94449200557904"><ele>-4.0</ele><time>2026-03-23T15:20:39Z</time></trkpt><trkpt lat="44.90833657948521" lon="11.94458441965064"><ele>-4.0</ele><time>2026-03-23T15:20:40Z</time></trkpt><trkpt lat="44.90833678009471" lon="11.9446754671015"><ele>-3.9999999999999996</ele><time>2026-03-23T15:20:41Z</time></trkpt><trkpt lat="44.90833980497262" lon="11.944765297827328"><ele>-4.0</ele><time>2026-03-23T15:20:42Z</time></trkpt><trkpt lat="44.90834748914757" lon="11.944854284959549"><ele>-4.0</ele><time>2026-03-23T15:20:43Z</time></trkpt><trkpt lat="44.908356820060995" lon="11.944946067620986"><ele>-4.0</ele><time>2026-03-23T15:20:44Z</time></trkpt><trkpt lat="44.90835947212891" lon="11.945042473517166"><ele>-3.9999999999999996</ele><time>2026-03-23T15:20:45Z</time></trkpt><trkpt lat="44.90836141150344" lon="11.945141607297403"><ele>-4.0</ele><time>2026-03-23T15:20:46Z</time></trkpt><trkpt lat="44.908362195471504" lon="11.945240255234543"><ele>-4.0</ele><time>2026-03-23T15:20:47Z</time></trkpt><trkpt lat="44.9083646170745" lon="11.945336641865811"><ele>-3.9999999999999996</ele><time>2026-03-23T15:20:48Z</time></trkpt><trkpt lat="44.908371956695625" lon="11.945439436321116"><ele>-4.0</ele><time>2026-03-23T15:20:49Z</time></trkpt><trkpt lat="44.90837977826467" lon="11.945543607724032"><ele>-4.0</ele><time>2026-03-23T15:20:50Z</time></trkpt><trkpt lat="44.90838393329539" lon="11.945647265328333"><ele>-3.8571428571428568</ele><time>2026-03-23T15:20:51Z</time></trkpt><trkpt lat="44.908390376965215" lon="11.94575056451945"><ele>-3.714285714285714</ele><time>2026-03-23T15:20:52Z</time></trkpt><trkpt lat="44.90839783346422" lon="11.945854088016494"><ele>-3.571428571428571</ele><time>2026-03-23T15:20:53Z</time></trkpt><trkpt lat="44.90840207271822" lon="11.945957660302131"><ele>-3.4285714285714284</ele><time>2026-03-23T15:20:54Z</time></trkpt><trkpt lat="44.9084010814402" lon="11.946055833337654"><ele>-3.2857142857142856</ele><time>2026-03-23T15:20:55Z</time></trkpt><trkpt lat="44.908399545776355" lon="11.946146353304183"><ele>-3.1428571428571423</ele><time>2026-03-23T15:20:56Z</time></trkpt><trkpt lat="44.90840644025152" lon="11.946241407494105"><ele>-3.0</ele><time>2026-03-23T15:20:57Z</time></trkpt><trkpt lat="44.90841341173152" lon="11.946418688090509"><ele>-2.8</ele><time>2026-03-23T15:20:59Z</time></trkpt><trkpt lat="44.90842855965268" lon="11.946585380513037"><ele>-2.5999999999999996</ele><time>2026-03-23T15:21:01Z</time></trkpt><trkpt lat="44.908428456300804" lon="11.94674136931353"><ele>-2.4000000000000004</ele><time>2026-03-23T15:21:03Z</time></trkpt><trkpt lat="44.90844381345875" lon="11.946888434113298"><ele>-2.2</ele><time>2026-03-23T15:21:05Z</time></trkpt><trkpt lat="44.90845209968205" lon="11.947040005943505"><ele>-2.0</ele><time>2026-03-23T15:21:07Z</time></trkpt><trkpt lat="44.908454782623195" lon="11.947189993188099"><ele>-2.4000000000000004</ele><time>2026-03-23T15:21:09Z</time></trkpt><trkpt lat="44.90846461926718" lon="11.947348195286924"><ele>-2.8000000000000003</ele><time>2026-03-23T15:21:11Z</time></trkpt><trkpt lat="44.90847203926612" lon="11.947519016478525"><ele>-3.2</ele><time>2026-03-23T15:21:12.999Z</time></trkpt><trkpt lat="44.908482877545346" lon="11.947672228611067"><ele>-3.6</ele><time>2026-03-23T15:21:14.999Z</time></trkpt><trkpt lat="44.90848810440866" lon="11.947817949255532"><ele>-4.0</ele><time>2026-03-23T15:21:16.999Z</time></trkpt><trkpt lat="44.90849301405511" lon="11.947976446366718"><ele>-4.0</ele><time>2026-03-23T15:21:18.999Z</time></trkpt><trkpt lat="44.90850174330544" lon="11.948129381668798"><ele>-4.0</ele><time>2026-03-23T15:21:20.999Z</time></trkpt><trkpt lat="44.90850935943881" lon="11.948275500786071"><ele>-4.0</ele><time>2026-03-23T15:21:22.999Z</time></trkpt><trkpt lat="44.9085157255148" lon="11.948413120084025"><ele>-4.0</ele><time>2026-03-23T15:21:24.999Z</time></trkpt><trkpt lat="44.908525900193034" lon="11.948547540681695"><ele>-4.0</ele><time>2026-03-23T15:21:26.999Z</time></trkpt><trkpt lat="44.90853705526082" lon="11.948696981702584"><ele>-4.0</ele><time>2026-03-23T15:21:28.999Z</time></trkpt><trkpt lat="44.90854490367503" lon="11.948859959008475"><ele>-4.0</ele><time>2026-03-23T15:21:30.999Z</time></trkpt><trkpt lat="44.908555389766036" lon="11.949016755989216"><ele>-4.0</ele><time>2026-03-23T15:21:32.999Z</time></trkpt><trkpt lat="44.90855669349057" lon="11.949177890552567"><ele>-4.0</ele><time>2026-03-23T15:21:34.999Z</time></trkpt><trkpt lat="44.908570988981396" lon="11.949355837338702"><ele>-4.0</ele><time>2026-03-23T15:21:36.999Z</time></trkpt><trkpt lat="44.90857682586768" lon="11.949450545210077"><ele>-3.9999999999999996</ele><time>2026-03-23T15:21:37.999Z</time></trkpt><trkpt lat="44.90858050722493" lon="11.949543982633221"><ele>-4.0</ele><time>2026-03-23T15:21:38.999Z</time></trkpt><trkpt lat="44.90858533364021" lon="11.949639288501396"><ele>-4.0</ele><time>2026-03-23T15:21:39.999Z</time></trkpt><trkpt lat="44.908589401157016" lon="11.949736251325076"><ele>-3.9999999999999996</ele><time>2026-03-23T15:21:40.999Z</time></trkpt><trkpt lat="44.908595281583494" lon="11.949828673223228"><ele>-4.0</ele><time>2026-03-23T15:21:41.999Z</time></trkpt><trkpt lat="44.908598692116456" lon="11.949921589712728"><ele>-4.0</ele><time>2026-03-23T15:21:42.999Z</time></trkpt><trkpt lat="44.90860037872387" lon="11.950019265893168"><ele>-4.0</ele><time>2026-03-23T15:21:43.999Z</time></trkpt><trkpt lat="44.9086049138542" lon="11.950112261502696"><ele>-3.9999999999999996</ele><time>2026-03-23T15:21:44.999Z</time></trkpt><trkpt lat="44.9086121319127" lon="11.95020306540081"><ele>-4.0</ele><time>2026-03-23T15:21:45.999Z</time></trkpt><trkpt lat="44.908616046923385" lon="11.950293173343528"><ele>-4.0</ele><time>2026-03-23T15:21:46.999Z</time></trkpt><trkpt lat="44.90861863251346" lon="11.950383631519209"><ele>-3.9999999999999996</ele><time>2026-03-23T15:21:47.999Z</time></trkpt><trkpt lat="44.90862039725532" lon="11.950478343141613"><ele>-4.0</ele><time>2026-03-23T15:21:48.999Z</time></trkpt><trkpt lat="44.9086279709733" lon="11.950575659905097"><ele>-4.0</ele><time>2026-03-23T15:21:49.999Z</time></trkpt><trkpt lat="44.90863492098785" lon="11.95067453434064"><ele>-3.9999999999999996</ele><time>2026-03-23T15:21:50.999Z</time></trkpt><trkpt lat="44.90863967751096" lon="11.950768897074154"><ele>-4.0</ele><time>2026-03-23T15:21:51.999Z</time></trkpt><trkpt lat="44.90864437026858" lon="11.95086034379838"><ele>-4.0</ele><time>2026-03-23T15:21:52.999Z</time></trkpt><trkpt lat="44.908647076304064" lon="11.950950666736086"><ele>-4.0</ele><time>2026-03-23T15:21:53.999Z</time></trkpt><trkpt lat="44.90865377695026" lon="11.951128925561225"><ele>-3.9999999999999996</ele><time>2026-03-23T15:21:55.999Z</time></trkpt><trkpt lat="44.90865690413125" lon="11.95122140603951"><ele>-4.0</ele><time>2026-03-23T15:21:56.999Z</time></trkpt><trkpt lat="44.90866199166778" lon="11.951320008626427"><ele>-4.0</ele><time>2026-03-23T15:21:57.999Z</time></trkpt><trkpt lat="44.90866935016436" lon="11.951409476847427"><ele>-4.0</ele><time>2026-03-23T15:21:58.999Z</time></trkpt><trkpt lat="44.90867513215384" lon="11.951578985751496"><ele>-4.0</ele><time>2026-03-23T15:22:00.999Z</time></trkpt><trkpt lat="44.90868353661557" lon="11.951738992700315"><ele>-4.0</ele><time>2026-03-23T15:22:02.999Z</time></trkpt><trkpt lat="44.90868690738445" lon="11.951898187585963"><ele>-4.0</ele><time>2026-03-23T15:22:04.999Z</time></trkpt><trkpt lat="44.90869949690976" lon="11.95207142408709"><ele>-3.8000000000000003</ele><time>2026-03-23T15:22:06.999Z</time></trkpt><trkpt lat="44.90870448567034" lon="11.952237540640946"><ele>-3.6000000000000005</ele><time>2026-03-23T15:22:08.999Z</time></trkpt><trkpt lat="44.90870963329695" lon="11.952327311124005"><ele>-3.4</ele><time>2026-03-23T15:22:09.999Z</time></trkpt><trkpt lat="44.9087167102442" lon="11.95249545393128"><ele>-3.2</ele><time>2026-03-23T15:22:11.999Z</time></trkpt><trkpt lat="44.90872334026458" lon="11.952658239769002"><ele>-3.0</ele><time>2026-03-23T15:22:13.999Z</time></trkpt><trkpt lat="44.908729552392494" lon="11.952803565162892"><ele>-3.0</ele><time>2026-03-23T15:22:15.999Z</time></trkpt><trkpt lat="44.908740105267896" lon="11.952941494167602"><ele>-3.0</ele><time>2026-03-23T15:22:17.999Z</time></trkpt><trkpt lat="44.90874890487636" lon="11.953094124588267"><ele>-3.0</ele><time>2026-03-23T15:22:20Z</time></trkpt><trkpt lat="44.908761084164695" lon="11.95325903650762"><ele>-3.0</ele><time>2026-03-23T15:22:22Z</time></trkpt><trkpt lat="44.908767617571996" lon="11.953432985375038"><ele>-3.0</ele><time>2026-03-23T15:22:24Z</time></trkpt><trkpt lat="44.908775162677316" lon="11.953527945870363"><ele>-2.9999999999999996</ele><time>2026-03-23T15:22:25Z</time></trkpt><trkpt lat="44.908773367305365" lon="11.95361769286332"><ele>-3.0</ele><time>2026-03-23T15:22:26Z</time></trkpt><trkpt lat="44.908776588342896" lon="11.953711463063447"><ele>-3.0</ele><time>2026-03-23T15:22:27Z</time></trkpt><trkpt lat="44.90878141780045" lon="11.953809425927776"><ele>-3.0</ele><time>2026-03-23T15:22:28Z</time></trkpt><trkpt lat="44.9087849943791" lon="11.9539060867984"><ele>-3.0</ele><time>2026-03-23T15:22:29Z</time></trkpt><trkpt lat="44.908794270705116" lon="11.954004179689457"><ele>-2.9999999999999996</ele><time>2026-03-23T15:22:30Z</time></trkpt><trkpt lat="44.90880083005637" lon="11.954108223734885"><ele>-3.0</ele><time>2026-03-23T15:22:31Z</time></trkpt><trkpt lat="44.9088020156168" lon="11.954213089331388"><ele>-3.1428571428571423</ele><time>2026-03-23T15:22:32Z</time></trkpt><trkpt lat="44.908807376769055" lon="11.954319483492494"><ele>-3.2857142857142856</ele><time>2026-03-23T15:22:33Z</time></trkpt><trkpt lat="44.90881435324057" lon="11.954426147941735"><ele>-3.4285714285714284</ele><time>2026-03-23T15:22:34Z</time></trkpt><trkpt lat="44.908823168240716" lon="11.954532960210948"><ele>-3.571428571428571</ele><time>2026-03-23T15:22:35Z</time></trkpt><trkpt lat="44.90882983196829" lon="11.95463269009035"><ele>-3.714285714285714</ele><time>2026-03-23T15:22:36Z</time></trkpt><trkpt lat="44.90883738280705" lon="11.954732161093224"><ele>-3.8571428571428568</ele><time>2026-03-23T15:22:37Z</time></trkpt><trkpt lat="44.90882763509977" lon="11.954828972501401"><ele>-4.0</ele><time>2026-03-23T15:22:38Z</time></trkpt><trkpt lat="44.9088321939465" lon="11.954923798443005"><ele>-3.9999999999999996</ele><time>2026-03-23T15:22:39Z</time></trkpt><trkpt lat="44.90884693364567" lon="11.955011855783798"><ele>-4.0</ele><time>2026-03-23T15:22:40Z</time></trkpt><trkpt lat="44.908850609059904" lon="11.955102827290995"><ele>-4.0</ele><time>2026-03-23T15:22:41Z</time></trkpt><trkpt lat="44.90886020654316" lon="11.955190934143674"><ele>-4.0</ele><time>2026-03-23T15:22:42Z</time></trkpt><trkpt lat="44.90886403720143" lon="11.955360406489408"><ele>-3.9999999999999996</ele><time>2026-03-23T15:22:44Z</time></trkpt><trkpt lat="44.90887144660974" lon="11.955520823075359"><ele>-4.0</ele><time>2026-03-23T15:22:46Z</time></trkpt><trkpt lat="44.90886944113683" lon="11.955670061217138"><ele>-4.0</ele><time>2026-03-23T15:22:48Z</time></trkpt><trkpt lat="44.90887795054527" lon="11.955816064598435"><ele>-4.0</ele><time>2026-03-23T15:22:50Z</time></trkpt><trkpt lat="44.908885134042386" lon="11.955964698042697"><ele>-4.0</ele><time>2026-03-23T15:22:52Z</time></trkpt><trkpt lat="44.90889206692151" lon="11.956112211804651"><ele>-4.0</ele><time>2026-03-23T15:22:54Z</time></trkpt><trkpt lat="44.90889885464909" lon="11.956273938780834"><ele>-4.0</ele><time>2026-03-23T15:22:56Z</time></trkpt><trkpt lat="44.908904900055234" lon="11.956447530077408"><ele>-4.0</ele><time>2026-03-23T15:22:58Z</time></trkpt><trkpt lat="44.90890996566465" lon="11.956537081889529"><ele>-4.0</ele><time>2026-03-23T15:22:59Z</time></trkpt><trkpt lat="44.90891827341263" lon="11.95662680550502"><ele>-4.0</ele><time>2026-03-23T15:23:00Z</time></trkpt><trkpt lat="44.908918977149845" lon="11.956798899233217"><ele>-4.0</ele><time>2026-03-23T15:23:02Z</time></trkpt><trkpt lat="44.90892614926722" lon="11.956958111693368"><ele>-4.0</ele><time>2026-03-23T15:23:04Z</time></trkpt><trkpt lat="44.90893751851217" lon="11.957112686435263"><ele>-4.0</ele><time>2026-03-23T15:23:06Z</time></trkpt><trkpt lat="44.908943074071615" lon="11.957260031930783"><ele>-4.0</ele><time>2026-03-23T15:23:08Z</time></trkpt><trkpt lat="44.908956467305295" lon="11.957422202721578"><ele>-4.0</ele><time>2026-03-23T15:23:10Z</time></trkpt><trkpt lat="44.908963209750176" lon="11.95759911044216"><ele>-4.0</ele><time>2026-03-23T15:23:12Z</time></trkpt><trkpt lat="44.908967259677425" lon="11.957771585299417"><ele>-4.0</ele><time>2026-03-23T15:23:14Z</time></trkpt><trkpt lat="44.908976335294675" lon="11.957945005629574"><ele>-4.0</ele><time>2026-03-23T15:23:16Z</time></trkpt><trkpt lat="44.90898126700196" lon="11.958038590951562"><ele>-4.0</ele><time>2026-03-23T15:23:17Z</time></trkpt><trkpt lat="44.90899187965885" lon="11.95820319020004"><ele>-4.0</ele><time>2026-03-23T15:23:19Z</time></trkpt><trkpt lat="44.908998059779144" lon="11.958357559569562"><ele>-4.0</ele><time>2026-03-23T15:23:21Z</time></trkpt><trkpt lat="44.90900651996334" lon="11.958522311661364"><ele>-4.0</ele><time>2026-03-23T15:23:23Z</time></trkpt><trkpt lat="44.909018616157674" lon="11.958696248810295"><ele>-4.0</ele><time>2026-03-23T15:23:25Z</time></trkpt><trkpt lat="44.90902567579934" lon="11.958856389261909"><ele>-4.0</ele><time>2026-03-23T15:23:27Z</time></trkpt><trkpt lat="44.90902978214789" lon="11.959028918493258"><ele>-4.0</ele><time>2026-03-23T15:23:29Z</time></trkpt><trkpt lat="44.90903631929176" lon="11.959201162608197"><ele>-4.0</ele><time>2026-03-23T15:23:30.999Z</time></trkpt><trkpt lat="44.9090407879739" lon="11.959363985143398"><ele>-4.0</ele><time>2026-03-23T15:23:32.999Z</time></trkpt><trkpt lat="44.90905469553941" lon="11.959523424462901"><ele>-4.0</ele><time>2026-03-23T15:23:34.999Z</time></trkpt><trkpt lat="44.90906218895174" lon="11.959699515658425"><ele>-4.0</ele><time>2026-03-23T15:23:36.999Z</time></trkpt><trkpt lat="44.90906836034818" lon="11.95978827399909"><ele>-4.0</ele><time>2026-03-23T15:23:37.999Z</time></trkpt><trkpt lat="44.909075693502686" lon="11.959952145337121"><ele>-4.25</ele><time>2026-03-23T15:23:39.999Z</time></trkpt><trkpt lat="44.909080303229786" lon="11.960109389761776"><ele>-4.5</ele><time>2026-03-23T15:23:41.999Z</time></trkpt><trkpt lat="44.90908894682255" lon="11.96026007574804"><ele>-4.75</ele><time>2026-03-23T15:23:43.999Z</time></trkpt><trkpt lat="44.909099023782936" lon="11.960421311830803"><ele>-5.0</ele><time>2026-03-23T15:23:45.999Z</time></trkpt><trkpt lat="44.909107585726495" lon="11.960591513072105"><ele>-5.0</ele><time>2026-03-23T15:23:47.999Z</time></trkpt><trkpt lat="44.909113993074115" lon="11.960760311916122"><ele>-5.0</ele><time>2026-03-23T15:23:49.999Z</time></trkpt><trkpt lat="44.90912437538552" lon="11.96092900586889"><ele>-5.0</ele><time>2026-03-23T15:23:51.999Z</time></trkpt><trkpt lat="44.90913470740451" lon="11.961084575657845"><ele>-5.0</ele><time>2026-03-23T15:23:53.999Z</time></trkpt><trkpt lat="44.90914135273179" lon="11.961246373321393"><ele>-5.0</ele><time>2026-03-23T15:23:55.999Z</time></trkpt><trkpt lat="44.90914987889132" lon="11.961414800887312"><ele>-5.0</ele><time>2026-03-23T15:23:57.999Z</time></trkpt><trkpt lat="44.909157771920256" lon="11.961588726755528"><ele>-5.0</ele><time>2026-03-23T15:23:59.999Z</time></trkpt><trkpt lat="44.90916248750237" lon="11.961677842614874"><ele>-5.0</ele><time>2026-03-23T15:24:00.999Z</time></trkpt><trkpt lat="44.9091660869615" lon="11.961766738594203"><ele>-5.0</ele><time>2026-03-23T15:24:01.999Z</time></trkpt><trkpt lat="44.909171691676434" lon="11.961855789203645"><ele>-5.0</ele><time>2026-03-23T15:24:02.999Z</time></trkpt><trkpt lat="44.90917677044088" lon="11.961945607538714"><ele>-4.833333333333334</ele><time>2026-03-23T15:24:03.999Z</time></trkpt><trkpt lat="44.90918027513976" lon="11.96203806935886"><ele>-4.666666666666667</ele><time>2026-03-23T15:24:04.999Z</time></trkpt><trkpt lat="44.90918351897754" lon="11.96212730844631"><ele>-4.5</ele><time>2026-03-23T15:24:05.999Z</time></trkpt><trkpt lat="44.90918840444308" lon="11.962217853864061"><ele>-4.333333333333333</ele><time>2026-03-23T15:24:06.999Z</time></trkpt><trkpt lat="44.90919749738477" lon="11.962393420629075"><ele>-4.166666666666666</ele><time>2026-03-23T15:24:08.999Z</time></trkpt><trkpt lat="44.909206754891215" lon="11.962572930201386"><ele>-4.0</ele><time>2026-03-23T15:24:10.999Z</time></trkpt><trkpt lat="44.909211999006544" lon="11.962665195078412"><ele>-4.0</ele><time>2026-03-23T15:24:11.999Z</time></trkpt><trkpt lat="44.90921770500391" lon="11.96283721056889"><ele>-3.9999999999999996</ele><time>2026-03-23T15:24:13.999Z</time></trkpt><trkpt lat="44.909224325875854" lon="11.962929735518516"><ele>-4.0</ele><time>2026-03-23T15:24:14.999Z</time></trkpt><trkpt lat="44.90923082700167" lon="11.963020436731384"><ele>-4.0</ele><time>2026-03-23T15:24:15.999Z</time></trkpt><trkpt lat="44.90923556221559" lon="11.963111539606349"><ele>-3.9999999999999996</ele><time>2026-03-23T15:24:16.999Z</time></trkpt><trkpt lat="44.90924198408609" lon="11.963201916798983"><ele>-4.0</ele><time>2026-03-23T15:24:17.999Z</time></trkpt><trkpt lat="44.90924556073845" lon="11.963293768960117"><ele>-4.0</ele><time>2026-03-23T15:24:18.999Z</time></trkpt><trkpt lat="44.909249633424984" lon="11.96338691881912"><ele>-4.2</ele><time>2026-03-23T15:24:19.999Z</time></trkpt><trkpt lat="44.90925493099975" lon="11.963477273665344"><ele>-4.4</ele><time>2026-03-23T15:24:20.999Z</time></trkpt><trkpt lat="44.90926030202039" lon="11.963568555832746"><ele>-4.6</ele><time>2026-03-23T15:24:21.999Z</time></trkpt><trkpt lat="44.90926840133875" lon="11.963742820678725"><ele>-4.8</ele><time>2026-03-23T15:24:23.999Z</time></trkpt><trkpt lat="44.90927630567704" lon="11.963922619136412"><ele>-5.0</ele><time>2026-03-23T15:24:26Z</time></trkpt><trkpt lat="44.90928170878166" lon="11.964095919100878"><ele>-5.166666666666667</ele><time>2026-03-23T15:24:28Z</time></trkpt><trkpt lat="44.90928961805846" lon="11.964272456657525"><ele>-5.333333333333334</ele><time>2026-03-23T15:24:30Z</time></trkpt><trkpt lat="44.90929337085336" lon="11.964364169331406"><ele>-5.5</ele><time>2026-03-23T15:24:31Z</time></trkpt><trkpt lat="44.9092978731039" lon="11.964455037252225"><ele>-5.666666666666667</ele><time>2026-03-23T15:24:32Z</time></trkpt><trkpt lat="44.90930778465693" lon="11.964626380399947"><ele>-5.833333333333333</ele><time>2026-03-23T15:24:34Z</time></trkpt><trkpt lat="44.90930859157708" lon="11.964715626507697"><ele>-6.0</ele><time>2026-03-23T15:24:35Z</time></trkpt><trkpt lat="44.90931546551838" lon="11.964808112728065"><ele>-6.0</ele><time>2026-03-23T15:24:36Z</time></trkpt><trkpt lat="44.90932404402326" lon="11.96490240749757"><ele>-6.0</ele><time>2026-03-23T15:24:37Z</time></trkpt><trkpt lat="44.90932992489155" lon="11.964991780647278"><ele>-6.0</ele><time>2026-03-23T15:24:38Z</time></trkpt><trkpt lat="44.909334086285874" lon="11.965164532849448"><ele>-6.0</ele><time>2026-03-23T15:24:40Z</time></trkpt><trkpt lat="44.909345090911096" lon="11.965345719003958"><ele>-6.0</ele><time>2026-03-23T15:24:42Z</time></trkpt><trkpt lat="44.90935006410304" lon="11.965441654145847"><ele>-6.0</ele><time>2026-03-23T15:24:43Z</time></trkpt><trkpt lat="44.90935468837144" lon="11.965533450586083"><ele>-6.0</ele><time>2026-03-23T15:24:44Z</time></trkpt><trkpt lat="44.90936457467687" lon="11.965708757472223"><ele>-6.0</ele><time>2026-03-23T15:24:46Z</time></trkpt><trkpt lat="44.909368314734124" lon="11.96579904208382"><ele>-6.0</ele><time>2026-03-23T15:24:47Z</time></trkpt><trkpt lat="44.909371393235475" lon="11.965893359763692"><ele>-6.0</ele><time>2026-03-23T15:24:48Z</time></trkpt><trkpt lat="44.909375706447236" lon="11.96599218195777"><ele>-6.0</ele><time>2026-03-23T15:24:49Z</time></trkpt><trkpt lat="44.909378950452876" lon="11.966084227606554"><ele>-6.0</ele><time>2026-03-23T15:24:50Z</time></trkpt><trkpt lat="44.9093886932668" lon="11.966258989148477"><ele>-6.0</ele><time>2026-03-23T15:24:52Z</time></trkpt><trkpt lat="44.90939317954107" lon="11.966350508191132"><ele>-6.0</ele><time>2026-03-23T15:24:53Z</time></trkpt><trkpt lat="44.909398251324646" lon="11.96644173265339"><ele>-6.0</ele><time>2026-03-23T15:24:54Z</time></trkpt><trkpt lat="44.90940255799006" lon="11.966534148993881"><ele>-6.0</ele><time>2026-03-23T15:24:55Z</time></trkpt><trkpt lat="44.90941110591412" lon="11.966715853198032"><ele>-6.0</ele><time>2026-03-23T15:24:57Z</time></trkpt><trkpt lat="44.90941255330733" lon="11.966892480231824"><ele>-5.8</ele><time>2026-03-23T15:24:59Z</time></trkpt><trkpt lat="44.909416821163425" lon="11.96698284437277"><ele>-5.6</ele><time>2026-03-23T15:25:00Z</time></trkpt><trkpt lat="44.909427923502314" lon="11.967159179887332"><ele>-5.4</ele><time>2026-03-23T15:25:02Z</time></trkpt><trkpt lat="44.90943366949445" lon="11.967334207049026"><ele>-5.2</ele><time>2026-03-23T15:25:04Z</time></trkpt><trkpt lat="44.9094387794457" lon="11.9674230995038"><ele>-5.0</ele><time>2026-03-23T15:25:05Z</time></trkpt><trkpt lat="44.90944813646105" lon="11.96759563249183"><ele>-5.0</ele><time>2026-03-23T15:25:07Z</time></trkpt><trkpt lat="44.90945490997289" lon="11.967767638494559"><ele>-5.0</ele><time>2026-03-23T15:25:09Z</time></trkpt><trkpt lat="44.90945878699261" lon="11.967857238258311"><ele>-5.0</ele><time>2026-03-23T15:25:10Z</time></trkpt><trkpt lat="44.90946215801997" lon="11.967946926195381"><ele>-5.0</ele><time>2026-03-23T15:25:11Z</time></trkpt><trkpt lat="44.90947133757586" lon="11.968124528394998"><ele>-5.0</ele><time>2026-03-23T15:25:13Z</time></trkpt><trkpt lat="44.909476384076534" lon="11.968213684631085"><ele>-5.0</ele><time>2026-03-23T15:25:14Z</time></trkpt><trkpt lat="44.909483504218365" lon="11.968302491820685"><ele>-5.0</ele><time>2026-03-23T15:25:15Z</time></trkpt><trkpt lat="44.9094897780381" lon="11.968391426236257"><ele>-5.0</ele><time>2026-03-23T15:25:16Z</time></trkpt><trkpt lat="44.90949628037497" lon="11.968570745576514"><ele>-5.0</ele><time>2026-03-23T15:25:18Z</time></trkpt><trkpt lat="44.90950145792168" lon="11.968659406364033"><ele>-5.0</ele><time>2026-03-23T15:25:19Z</time></trkpt><trkpt lat="44.9095116715897" lon="11.968749578330243"><ele>-5.0</ele><time>2026-03-23T15:25:20Z</time></trkpt><trkpt lat="44.909515610116195" lon="11.968839377110717"><ele>-5.0</ele><time>2026-03-23T15:25:21Z</time></trkpt><trkpt lat="44.909521383230384" lon="11.968933089170376"><ele>-5.0</ele><time>2026-03-23T15:25:22Z</time></trkpt><trkpt lat="44.90952686212136" lon="11.969025087017119"><ele>-5.0</ele><time>2026-03-23T15:25:23Z</time></trkpt><trkpt lat="44.90953099349006" lon="11.969115546013613"><ele>-5.0</ele><time>2026-03-23T15:25:24Z</time></trkpt><trkpt lat="44.90953596204849" lon="11.969208114217965"><ele>-5.0</ele><time>2026-03-23T15:25:25Z</time></trkpt><trkpt lat="44.90954282198332" lon="11.969299494323277"><ele>-5.0</ele><time>2026-03-23T15:25:26Z</time></trkpt><trkpt lat="44.90954924192257" lon="11.969394503013676"><ele>-5.0</ele><time>2026-03-23T15:25:27Z</time></trkpt><trkpt lat="44.909548598024465" lon="11.969489420772444"><ele>-5.0</ele><time>2026-03-23T15:25:28Z</time></trkpt><trkpt lat="44.909545692742945" lon="11.969584113115735"><ele>-5.0</ele><time>2026-03-23T15:25:29Z</time></trkpt><trkpt lat="44.909547098431595" lon="11.969673780758546"><ele>-5.333333333333334</ele><time>2026-03-23T15:25:30Z</time></trkpt><trkpt lat="44.90955303624883" lon="11.969766667441169"><ele>-5.666666666666667</ele><time>2026-03-23T15:25:31Z</time></trkpt><trkpt lat="44.90955895340497" lon="11.969860877180565"><ele>-6.0</ele><time>2026-03-23T15:25:31.999Z</time></trkpt><trkpt lat="44.90956421670703" lon="11.969956915010059"><ele>-6.333333333333334</ele><time>2026-03-23T15:25:32.999Z</time></trkpt><trkpt lat="44.90957535038016" lon="11.970139598469673"><ele>-6.666666666666667</ele><time>2026-03-23T15:25:34.999Z</time></trkpt><trkpt lat="44.90957931427044" lon="11.970233876787502"><ele>-7.0</ele><time>2026-03-23T15:25:35.999Z</time></trkpt><trkpt lat="44.909582992184795" lon="11.97032388655158"><ele>-7.0</ele><time>2026-03-23T15:25:36.999Z</time></trkpt><trkpt lat="44.909586968062264" lon="11.970417568244313"><ele>-6.999999999999999</ele><time>2026-03-23T15:25:37.999Z</time></trkpt><trkpt lat="44.90959834132717" lon="11.97056828721437"><ele>-6.999999999999999</ele><time>2026-03-23T15:25:39.999Z</time></trkpt><trkpt lat="44.90960261922055" lon="11.970692270500798"><ele>-7.0</ele><time>2026-03-23T15:25:41.999Z</time></trkpt><trkpt lat="44.90952376852423" lon="11.970748472664551"><ele>-7.0</ele><time>2026-03-23T15:25:44.999Z</time></trkpt><trkpt lat="44.90942383960576" lon="11.970762435194308"><ele>-7.0</ele><time>2026-03-23T15:25:46.999Z</time></trkpt><trkpt lat="44.90932351062846" lon="11.970774608616496"><ele>-7.0</ele><time>2026-03-23T15:25:48.999Z</time></trkpt><trkpt lat="44.9092073106924" lon="11.970769682576847"><ele>-7.0</ele><time>2026-03-23T15:25:50.999Z</time></trkpt><trkpt lat="44.90908414812484" lon="11.970767388153549"><ele>-7.0</ele><time>2026-03-23T15:25:52.999Z</time></trkpt><trkpt lat="44.908962228095035" lon="11.97077352161741"><ele>-6.857142857142857</ele><time>2026-03-23T15:25:54.999Z</time></trkpt><trkpt lat="44.90889771306905" lon="11.970779735151881"><ele>-6.714285714285714</ele><time>2026-03-23T15:25:55.999Z</time></trkpt><trkpt lat="44.90883008388926" lon="11.970782031097885"><ele>-6.571428571428571</ele><time>2026-03-23T15:25:56.999Z</time></trkpt><trkpt lat="44.90876173649045" lon="11.970784554651717"><ele>-6.428571428571429</ele><time>2026-03-23T15:25:57.999Z</time></trkpt><trkpt lat="44.9086936957714" lon="11.970788313622318"><ele>-6.285714285714286</ele><time>2026-03-23T15:25:58.999Z</time></trkpt><trkpt lat="44.90862289776471" lon="11.970789147918437"><ele>-6.142857142857142</ele><time>2026-03-23T15:25:59.999Z</time></trkpt><trkpt lat="44.90854923465617" lon="11.970791601995693"><ele>-6.0</ele><time>2026-03-23T15:26:00.999Z</time></trkpt><trkpt lat="44.908477997002294" lon="11.970797192476109"><ele>-5.833333333333333</ele><time>2026-03-23T15:26:01.999Z</time></trkpt><trkpt lat="44.90840555514559" lon="11.970801045367287"><ele>-5.666666666666667</ele><time>2026-03-23T15:26:02.999Z</time></trkpt><trkpt lat="44.90833263508546" lon="11.970805652622573"><ele>-5.5</ele><time>2026-03-23T15:26:03.999Z</time></trkpt><trkpt lat="44.90825844374562" lon="11.970807617492941"><ele>-5.333333333333334</ele><time>2026-03-23T15:26:04.999Z</time></trkpt><trkpt lat="44.9081802778891" lon="11.970808261665784"><ele>-5.166666666666667</ele><time>2026-03-23T15:26:05.999Z</time></trkpt><trkpt lat="44.90810322747965" lon="11.970812894195536"><ele>-5.0</ele><time>2026-03-23T15:26:06.999Z</time></trkpt><trkpt lat="44.908024663388865" lon="11.970816851945317"><ele>-5.0</ele><time>2026-03-23T15:26:07.999Z</time></trkpt><trkpt lat="44.90794593178387" lon="11.970817865118512"><ele>-5.0</ele><time>2026-03-23T15:26:08.999Z</time></trkpt><trkpt lat="44.90786808812963" lon="11.970821338492659"><ele>-5.0</ele><time>2026-03-23T15:26:09.999Z</time></trkpt><trkpt lat="44.907787911789065" lon="11.97082533599222"><ele>-5.0</ele><time>2026-03-23T15:26:10.999Z</time></trkpt><trkpt lat="44.9077111880724" lon="11.970828217795415"><ele>-5.0</ele><time>2026-03-23T15:26:11.999Z</time></trkpt><trkpt lat="44.90763613057113" lon="11.970827019338952"><ele>-5.0</ele><time>2026-03-23T15:26:12.999Z</time></trkpt><trkpt lat="44.90755959866005" lon="11.970830538289105"><ele>-5.166666666666667</ele><time>2026-03-23T15:26:13.999Z</time></trkpt><trkpt lat="44.90748508218283" lon="11.970834261697027"><ele>-5.333333333333334</ele><time>2026-03-23T15:26:14.999Z</time></trkpt><trkpt lat="44.90740944466488" lon="11.970837440423528"><ele>-5.5</ele><time>2026-03-23T15:26:15.999Z</time></trkpt><trkpt lat="44.90733394866346" lon="11.970839029118837"><ele>-5.666666666666667</ele><time>2026-03-23T15:26:16.999Z</time></trkpt><trkpt lat="44.90725918407972" lon="11.970840453032178"><ele>-5.833333333333333</ele><time>2026-03-23T15:26:17.999Z</time></trkpt><trkpt lat="44.90718421618271" lon="11.970844188514752"><ele>-6.0</ele><time>2026-03-23T15:26:18.999Z</time></trkpt><trkpt lat="44.90710936024869" lon="11.970851232216669"><ele>-6.0</ele><time>2026-03-23T15:26:19.999Z</time></trkpt><trkpt lat="44.90703306585225" lon="11.97085540431897"><ele>-6.0</ele><time>2026-03-23T15:26:20.999Z</time></trkpt><trkpt lat="44.90695694467423" lon="11.97085832018474"><ele>-6.0</ele><time>2026-03-23T15:26:21.999Z</time></trkpt><trkpt lat="44.90688077467472" lon="11.970861038118331"><ele>-6.0</ele><time>2026-03-23T15:26:22.999Z</time></trkpt><trkpt lat="44.90680402326646" lon="11.970867044127317"><ele>-6.0</ele><time>2026-03-23T15:26:23.999Z</time></trkpt><trkpt lat="44.90672627664311" lon="11.970875003504435"><ele>-6.0</ele><time>2026-03-23T15:26:24.999Z</time></trkpt><trkpt lat="44.906648382228674" lon="11.970876631750142"><ele>-6.166666666666667</ele><time>2026-03-23T15:26:25.999Z</time></trkpt><trkpt lat="44.90657035298988" lon="11.970878144559515"><ele>-6.333333333333334</ele><time>2026-03-23T15:26:26.999Z</time></trkpt><trkpt lat="44.90649258998203" lon="11.970881600925294"><ele>-6.5</ele><time>2026-03-23T15:26:27.999Z</time></trkpt><trkpt lat="44.90641477382574" lon="11.970881932619376"><ele>-6.666666666666667</ele><time>2026-03-23T15:26:28.999Z</time></trkpt><trkpt lat="44.906335523207694" lon="11.970881321078847"><ele>-6.833333333333334</ele><time>2026-03-23T15:26:29.999Z</time></trkpt><trkpt lat="44.90625784651683" lon="11.970884290440775"><ele>-7.0</ele><time>2026-03-23T15:26:30.999Z</time></trkpt><trkpt lat="44.90617921393838" lon="11.970885720237321"><ele>-7.000000000000001</ele><time>2026-03-23T15:26:32Z</time></trkpt><trkpt lat="44.906100179732334" lon="11.97088195047211"><ele>-7.0</ele><time>2026-03-23T15:26:33Z</time></trkpt><trkpt lat="44.90602434679268" lon="11.970888663479512"><ele>-7.0</ele><time>2026-03-23T15:26:34Z</time></trkpt><trkpt lat="44.90595075001317" lon="11.97089786200425"><ele>-7.0</ele><time>2026-03-23T15:26:35Z</time></trkpt><trkpt lat="44.90587520043223" lon="11.970900106282944"><ele>-7.000000000000001</ele><time>2026-03-23T15:26:36Z</time></trkpt><trkpt lat="44.905801591419134" lon="11.97090292582253"><ele>-7.0</ele><time>2026-03-23T15:26:37Z</time></trkpt><trkpt lat="44.90572750055941" lon="11.970894346805268"><ele>-6.666666666666667</ele><time>2026-03-23T15:26:38Z</time></trkpt><trkpt lat="44.90565246914585" lon="11.970912292763705"><ele>-6.333333333333334</ele><time>2026-03-23T15:26:39Z</time></trkpt><trkpt lat="44.90557657281475" lon="11.970916542803261"><ele>-6.0</ele><time>2026-03-23T15:26:40Z</time></trkpt><trkpt lat="44.9054987039341" lon="11.970923024800499"><ele>-5.666666666666667</ele><time>2026-03-23T15:26:41Z</time></trkpt><trkpt lat="44.905422459688886" lon="11.970905061874747"><ele>-5.333333333333334</ele><time>2026-03-23T15:26:42Z</time></trkpt><trkpt lat="44.90534791027947" lon="11.970906006774463"><ele>-5.0</ele><time>2026-03-23T15:26:43Z</time></trkpt><trkpt lat="44.90527334100953" lon="11.97091981668332"><ele>-5.0</ele><time>2026-03-23T15:26:44Z</time></trkpt><trkpt lat="44.905202515505714" lon="11.970923080579484"><ele>-5.0</ele><time>2026-03-23T15:26:45Z</time></trkpt><trkpt lat="44.90513120072421" lon="11.970915918098566"><ele>-5.0</ele><time>2026-03-23T15:26:46Z</time></trkpt><trkpt lat="44.905065234275924" lon="11.970933698712386"><ele>-5.0</ele><time>2026-03-23T15:26:47Z</time></trkpt><trkpt lat="44.905005916329955" lon="11.970987330041368"><ele>-5.0</ele><time>2026-03-23T15:26:48Z</time></trkpt><trkpt lat="44.904964185735516" lon="11.971068101775137"><ele>-5.0</ele><time>2026-03-23T15:26:49Z</time></trkpt><trkpt lat="44.904964790914754" lon="11.971162521183768"><ele>-5.0</ele><time>2026-03-23T15:26:50Z</time></trkpt><trkpt lat="44.90497506564913" lon="11.97125416601917"><ele>-5.0</ele><time>2026-03-23T15:26:51Z</time></trkpt><trkpt lat="44.90500732855095" lon="11.971415002029184"><ele>-5.0</ele><time>2026-03-23T15:26:53Z</time></trkpt><trkpt lat="44.90503878388725" lon="11.971564095565347"><ele>-5.0</ele><time>2026-03-23T15:26:55Z</time></trkpt><trkpt lat="44.90506403939599" lon="11.971711665645831"><ele>-5.0</ele><time>2026-03-23T15:26:57Z</time></trkpt><trkpt lat="44.90508983231836" lon="11.971868882453025"><ele>-5.0</ele><time>2026-03-23T15:26:59Z</time></trkpt><trkpt lat="44.90511859406563" lon="11.972031690773731"><ele>-5.0</ele><time>2026-03-23T15:27:01Z</time></trkpt><trkpt lat="44.905126195283444" lon="11.972120316740273"><ele>-5.0</ele><time>2026-03-23T15:27:02Z</time></trkpt><trkpt lat="44.90513799936954" lon="11.972210285474965"><ele>-5.0</ele><time>2026-03-23T15:27:03Z</time></trkpt><trkpt lat="44.9051581095822" lon="11.972298305878125"><ele>-5.0</ele><time>2026-03-23T15:27:04Z</time></trkpt><trkpt lat="44.9051751840429" lon="11.972390479514184"><ele>-5.0</ele><time>2026-03-23T15:27:05Z</time></trkpt><trkpt lat="44.90519151319462" lon="11.972479597622765"><ele>-5.0</ele><time>2026-03-23T15:27:06Z</time></trkpt><trkpt lat="44.90520925878084" lon="11.972568945651798"><ele>-5.142857142857142</ele><time>2026-03-23T15:27:07Z</time></trkpt><trkpt lat="44.90522792831462" lon="11.972660004463966"><ele>-5.285714285714286</ele><time>2026-03-23T15:27:08Z</time></trkpt><trkpt lat="44.90524682640885" lon="11.972750778989894"><ele>-5.428571428571429</ele><time>2026-03-23T15:27:09Z</time></trkpt><trkpt lat="44.90526380997901" lon="11.972841917809882"><ele>-5.571428571428571</ele><time>2026-03-23T15:27:10Z</time></trkpt><trkpt lat="44.905277666125976" lon="11.972935970582508"><ele>-5.714285714285714</ele><time>2026-03-23T15:27:11Z</time></trkpt><trkpt lat="44.905294719110266" lon="11.973032054527629"><ele>-5.857142857142857</ele><time>2026-03-23T15:27:12Z</time></trkpt><trkpt lat="44.90531296156519" lon="11.973128137796968"><ele>-6.0</ele><time>2026-03-23T15:27:13Z</time></trkpt><trkpt lat="44.90533097487426" lon="11.973227054039825"><ele>-5.999999999999999</ele><time>2026-03-23T15:27:14Z</time></trkpt><trkpt lat="44.905339117188085" lon="11.973326500349305"><ele>-6.0</ele><time>2026-03-23T15:27:15Z</time></trkpt><trkpt lat="44.90535666058482" lon="11.973429833554011"><ele>-6.0</ele><time>2026-03-23T15:27:16Z</time></trkpt><trkpt lat="44.905382590752176" lon="11.973530246784359"><ele>-6.0</ele><time>2026-03-23T15:27:17Z</time></trkpt><trkpt lat="44.90540460224335" lon="11.973632390388522"><ele>-6.0</ele><time>2026-03-23T15:27:18Z</time></trkpt><trkpt lat="44.90541410926592" lon="11.97373505015301"><ele>-5.999999999999999</ele><time>2026-03-23T15:27:19Z</time></trkpt><trkpt lat="44.9054188342068" lon="11.973838614910994"><ele>-6.0</ele><time>2026-03-23T15:27:20Z</time></trkpt><trkpt lat="44.905426731096775" lon="11.97393900787293"><ele>-5.999999999999999</ele><time>2026-03-23T15:27:21Z</time></trkpt><trkpt lat="44.90544218263272" lon="11.974043102254871"><ele>-6.0</ele><time>2026-03-23T15:27:22Z</time></trkpt><trkpt lat="44.90545929830012" lon="11.974138684510356"><ele>-6.0</ele><time>2026-03-23T15:27:23Z</time></trkpt><trkpt lat="44.905476370126195" lon="11.974235458196908"><ele>-6.0</ele><time>2026-03-23T15:27:24Z</time></trkpt><trkpt lat="44.9054917121272" lon="11.974326947737323"><ele>-6.0</ele><time>2026-03-23T15:27:25Z</time></trkpt><trkpt lat="44.905509404414644" lon="11.97441551605075"><ele>-5.999999999999999</ele><time>2026-03-23T15:27:26Z</time></trkpt><trkpt lat="44.90552687413229" lon="11.974501753440867"><ele>-6.0</ele><time>2026-03-23T15:27:27Z</time></trkpt><trkpt lat="44.90554213916269" lon="11.974589955272643"><ele>-5.999999999999999</ele><time>2026-03-23T15:27:28Z</time></trkpt><trkpt lat="44.90555785428633" lon="11.974681723938584"><ele>-6.0</ele><time>2026-03-23T15:27:29Z</time></trkpt><trkpt lat="44.905575402407464" lon="11.974777733934486"><ele>-6.0</ele><time>2026-03-23T15:27:30Z</time></trkpt><trkpt lat="44.90559542584082" lon="11.974872395254067"><ele>-6.0</ele><time>2026-03-23T15:27:31Z</time></trkpt><trkpt lat="44.90561538498397" lon="11.974966222659551"><ele>-6.0</ele><time>2026-03-23T15:27:32Z</time></trkpt><trkpt lat="44.90563259936852" lon="11.975066526717354"><ele>-5.999999999999999</ele><time>2026-03-23T15:27:33Z</time></trkpt><trkpt lat="44.905650436737226" lon="11.975165966310659"><ele>-6.0</ele><time>2026-03-23T15:27:34Z</time></trkpt><trkpt lat="44.90566747979067" lon="11.975268489172196"><ele>-5.999999999999999</ele><time>2026-03-23T15:27:35Z</time></trkpt><trkpt lat="44.90568447205383" lon="11.975369360725276"><ele>-6.0</ele><time>2026-03-23T15:27:35.999Z</time></trkpt><trkpt lat="44.905704097858425" lon="11.97547097739764"><ele>-6.0</ele><time>2026-03-23T15:27:36.999Z</time></trkpt><trkpt lat="44.905718217600274" lon="11.975564789970168"><ele>-6.0</ele><time>2026-03-23T15:27:37.999Z</time></trkpt><trkpt lat="44.905734160645245" lon="11.975656908103614"><ele>-6.0</ele><time>2026-03-23T15:27:38.999Z</time></trkpt><trkpt lat="44.90574867253144" lon="11.975752735013483"><ele>-5.999999999999999</ele><time>2026-03-23T15:27:39.999Z</time></trkpt><trkpt lat="44.905762650648924" lon="11.975839731680233"><ele>-6.0</ele><time>2026-03-23T15:27:40.999Z</time></trkpt><trkpt lat="44.905780348499725" lon="11.97592656007439"><ele>-5.8</ele><time>2026-03-23T15:27:41.999Z</time></trkpt><trkpt lat="44.90581786130064" lon="11.976081612727533"><ele>-5.6</ele><time>2026-03-23T15:27:43.999Z</time></trkpt><trkpt lat="44.90585056311751" lon="11.976230035860976"><ele>-5.4</ele><time>2026-03-23T15:27:45.999Z</time></trkpt><trkpt lat="44.90587511423499" lon="11.97637228245611"><ele>-5.2</ele><time>2026-03-23T15:27:47.999Z</time></trkpt><trkpt lat="44.905912826997195" lon="11.976498437213717"><ele>-5.0</ele><time>2026-03-23T15:27:49.999Z</time></trkpt><trkpt lat="44.905927437919075" lon="11.976617288517215"><ele>-4.833333333333334</ele><time>2026-03-23T15:27:51.999Z</time></trkpt><trkpt lat="44.90588787496268" lon="11.97671196720968"><ele>-4.666666666666667</ele><time>2026-03-23T15:27:53.999Z</time></trkpt><trkpt lat="44.905813856647896" lon="11.97670943681422"><ele>-4.5</ele><time>2026-03-23T15:27:55.999Z</time></trkpt><trkpt lat="44.90574584363743" lon="11.976782152379606"><ele>-4.333333333333333</ele><time>2026-03-23T15:27:57.999Z</time></trkpt><trkpt lat="44.905767883163634" lon="11.976904113124492"><ele>-4.166666666666666</ele><time>2026-03-23T15:27:59.999Z</time></trkpt><trkpt lat="44.90579461386329" lon="11.977015598540618"><ele>-4.0</ele><time>2026-03-23T15:28:01.999Z</time></trkpt><trkpt lat="44.90582389646408" lon="11.977154985562896"><ele>-4.0</ele><time>2026-03-23T15:28:03.999Z</time></trkpt><trkpt lat="44.90584641720432" lon="11.977313384051778"><ele>-4.0</ele><time>2026-03-23T15:28:05.999Z</time></trkpt><trkpt lat="44.90588108983571" lon="11.977485077041521"><ele>-4.0</ele><time>2026-03-23T15:28:07.999Z</time></trkpt><trkpt lat="44.90591146332249" lon="11.977661363040815"><ele>-4.0</ele><time>2026-03-23T15:28:09.999Z</time></trkpt><trkpt lat="44.9059260636615" lon="11.977753953494396"><ele>-4.0</ele><time>2026-03-23T15:28:10.999Z</time></trkpt><trkpt lat="44.90594365839145" lon="11.977848689237678"><ele>-4.285714285714286</ele><time>2026-03-23T15:28:11.999Z</time></trkpt><trkpt lat="44.905962296183056" lon="11.977943561037673"><ele>-4.571428571428571</ele><time>2026-03-23T15:28:12.999Z</time></trkpt><trkpt lat="44.90597825653289" lon="11.978039782511294"><ele>-4.857142857142857</ele><time>2026-03-23T15:28:13.999Z</time></trkpt><trkpt lat="44.9059971553165" lon="11.978137250606235"><ele>-5.142857142857142</ele><time>2026-03-23T15:28:14.999Z</time></trkpt><trkpt lat="44.90601533333859" lon="11.978238472149945"><ele>-5.428571428571429</ele><time>2026-03-23T15:28:15.999Z</time></trkpt><trkpt lat="44.90603258487596" lon="11.978341851573122"><ele>-5.7142857142857135</ele><time>2026-03-23T15:28:16.999Z</time></trkpt><trkpt lat="44.906050127403525" lon="11.97844773985598"><ele>-6.0</ele><time>2026-03-23T15:28:17.999Z</time></trkpt><trkpt lat="44.906070360785634" lon="11.978553806545445"><ele>-6.0</ele><time>2026-03-23T15:28:18.999Z</time></trkpt><trkpt lat="44.90608728975853" lon="11.978660216760064"><ele>-6.0</ele><time>2026-03-23T15:28:19.999Z</time></trkpt><trkpt lat="44.906104893268754" lon="11.97876517091124"><ele>-6.0</ele><time>2026-03-23T15:28:20.999Z</time></trkpt><trkpt lat="44.906122320938266" lon="11.978869849259986"><ele>-6.0</ele><time>2026-03-23T15:28:21.999Z</time></trkpt><trkpt lat="44.90614249402802" lon="11.97897001415993"><ele>-6.0</ele><time>2026-03-23T15:28:22.999Z</time></trkpt><trkpt lat="44.906159356947576" lon="11.979073455920203"><ele>-6.0</ele><time>2026-03-23T15:28:23.999Z</time></trkpt><trkpt lat="44.90617642762848" lon="11.97917592859915"><ele>-5.833333333333333</ele><time>2026-03-23T15:28:24.999Z</time></trkpt><trkpt lat="44.90619303160488" lon="11.979279180408476"><ele>-5.666666666666667</ele><time>2026-03-23T15:28:25.999Z</time></trkpt><trkpt lat="44.906216057505155" lon="11.979380078177563"><ele>-5.5</ele><time>2026-03-23T15:28:26.999Z</time></trkpt><trkpt lat="44.90623586498168" lon="11.979484212059011"><ele>-5.333333333333334</ele><time>2026-03-23T15:28:27.999Z</time></trkpt><trkpt lat="44.906256363908554" lon="11.979589380430898"><ele>-5.166666666666667</ele><time>2026-03-23T15:28:28.999Z</time></trkpt><trkpt lat="44.90627444737254" lon="11.97969555614547"><ele>-5.0</ele><time>2026-03-23T15:28:29.999Z</time></trkpt><trkpt lat="44.90629862540334" lon="11.979800335956467"><ele>-5.0</ele><time>2026-03-23T15:28:30.999Z</time></trkpt><trkpt lat="44.90632080004468" lon="11.979905570785597"><ele>-5.0</ele><time>2026-03-23T15:28:31.999Z</time></trkpt><trkpt lat="44.906340810472074" lon="11.980012663740771"><ele>-5.0</ele><time>2026-03-23T15:28:32.999Z</time></trkpt><trkpt lat="44.906358153829935" lon="11.980117582029656"><ele>-5.0</ele><time>2026-03-23T15:28:33.999Z</time></trkpt><trkpt lat="44.90637396423614" lon="11.980220902201255"><ele>-5.0</ele><time>2026-03-23T15:28:34.999Z</time></trkpt><trkpt lat="44.9063899991508" lon="11.98032057961863"><ele>-5.0</ele><time>2026-03-23T15:28:35.999Z</time></trkpt><trkpt lat="44.90640714628462" lon="11.980419501030566"><ele>-5.0</ele><time>2026-03-23T15:28:36.999Z</time></trkpt><trkpt lat="44.90642250659918" lon="11.980519083332963"><ele>-5.0</ele><time>2026-03-23T15:28:38Z</time></trkpt><trkpt lat="44.906437716430986" lon="11.980620641466807"><ele>-5.0</ele><time>2026-03-23T15:28:39Z</time></trkpt><trkpt lat="44.90645037357768" lon="11.9807225721135"><ele>-5.0</ele><time>2026-03-23T15:28:40Z</time></trkpt><trkpt lat="44.90646775389953" lon="11.980825186431668"><ele>-5.0</ele><time>2026-03-23T15:28:41Z</time></trkpt><trkpt lat="44.90648568321001" lon="11.980926635222733"><ele>-5.0</ele><time>2026-03-23T15:28:42Z</time></trkpt><trkpt lat="44.90650444806783" lon="11.981021091560867"><ele>-5.0</ele><time>2026-03-23T15:28:43Z</time></trkpt><trkpt lat="44.90652426303917" lon="11.981115353300211"><ele>-5.0</ele><time>2026-03-23T15:28:44Z</time></trkpt><trkpt lat="44.90654331368478" lon="11.981206961838154"><ele>-5.0</ele><time>2026-03-23T15:28:45Z</time></trkpt><trkpt lat="44.90655625399031" lon="11.981304638711482"><ele>-5.0</ele><time>2026-03-23T15:28:46Z</time></trkpt><trkpt lat="44.906567391494" lon="11.981403773808028"><ele>-5.0</ele><time>2026-03-23T15:28:47Z</time></trkpt><trkpt lat="44.90658522655895" lon="11.981504433304044"><ele>-5.0</ele><time>2026-03-23T15:28:48Z</time></trkpt><trkpt lat="44.90660448868368" lon="11.981602237497459"><ele>-5.0</ele><time>2026-03-23T15:28:49Z</time></trkpt><trkpt lat="44.90662107983865" lon="11.981700584870127"><ele>-5.0</ele><time>2026-03-23T15:28:50Z</time></trkpt><trkpt lat="44.9066380460434" lon="11.981798209045918"><ele>-5.166666666666667</ele><time>2026-03-23T15:28:51Z</time></trkpt><trkpt lat="44.90665685023647" lon="11.981892054860415"><ele>-5.333333333333334</ele><time>2026-03-23T15:28:52Z</time></trkpt><trkpt lat="44.906671692362046" lon="11.981983165830908"><ele>-5.5</ele><time>2026-03-23T15:28:53Z</time></trkpt><trkpt lat="44.90668951300052" lon="11.982070003017329"><ele>-5.666666666666667</ele><time>2026-03-23T15:28:54Z</time></trkpt><trkpt lat="44.90670214285367" lon="11.982157950492264"><ele>-5.833333333333333</ele><time>2026-03-23T15:28:55Z</time></trkpt><trkpt lat="44.90673500079731" lon="11.98232545290467"><ele>-6.0</ele><time>2026-03-23T15:28:57Z</time></trkpt><trkpt lat="44.906761816358326" lon="11.982484169326348"><ele>-5.75</ele><time>2026-03-23T15:28:59Z</time></trkpt><trkpt lat="44.90678784992332" lon="11.982653508089626"><ele>-5.5</ele><time>2026-03-23T15:29:01Z</time></trkpt><trkpt lat="44.90681420252227" lon="11.982810616886196"><ele>-5.25</ele><time>2026-03-23T15:29:03Z</time></trkpt><trkpt lat="44.906839655211044" lon="11.982957194995361"><ele>-5.0</ele><time>2026-03-23T15:29:05Z</time></trkpt><trkpt lat="44.90687219342688" lon="11.983109286698639"><ele>-5.0</ele><time>2026-03-23T15:29:07Z</time></trkpt><trkpt lat="44.90689623432756" lon="11.983278519832835"><ele>-5.0</ele><time>2026-03-23T15:29:09Z</time></trkpt><trkpt lat="44.90692951218535" lon="11.983452021010851"><ele>-5.0</ele><time>2026-03-23T15:29:11Z</time></trkpt><trkpt lat="44.90696005993631" lon="11.98362759352416"><ele>-5.0</ele><time>2026-03-23T15:29:13Z</time></trkpt><trkpt lat="44.90697634548827" lon="11.983718623058145"><ele>-5.0</ele><time>2026-03-23T15:29:14Z</time></trkpt><trkpt lat="44.906993407194015" lon="11.983812303827678"><ele>-5.0</ele><time>2026-03-23T15:29:15Z</time></trkpt><trkpt lat="44.90700925642899" lon="11.98390471177321"><ele>-5.0</ele><time>2026-03-23T15:29:16Z</time></trkpt><trkpt lat="44.907028190823915" lon="11.984002153843862"><ele>-5.0</ele><time>2026-03-23T15:29:17Z</time></trkpt><trkpt lat="44.907048072748836" lon="11.984095604638455"><ele>-5.0</ele><time>2026-03-23T15:29:18Z</time></trkpt><trkpt lat="44.907064000301716" lon="11.984192254211878"><ele>-5.0</ele><time>2026-03-23T15:29:19Z</time></trkpt><trkpt lat="44.90707990339722" lon="11.984287094646398"><ele>-5.0</ele><time>2026-03-23T15:29:20Z</time></trkpt><trkpt lat="44.90709449883956" lon="11.984387492445867"><ele>-5.0</ele><time>2026-03-23T15:29:21Z</time></trkpt><trkpt lat="44.907111021678396" lon="11.984486725670923"><ele>-5.0</ele><time>2026-03-23T15:29:22Z</time></trkpt><trkpt lat="44.9071323232805" lon="11.984586934344756"><ele>-5.0</ele><time>2026-03-23T15:29:23Z</time></trkpt><trkpt lat="44.90715205423478" lon="11.984686874412219"><ele>-5.0</ele><time>2026-03-23T15:29:24Z</time></trkpt><trkpt lat="44.9071658528204" lon="11.984791642212434"><ele>-5.0</ele><time>2026-03-23T15:29:25Z</time></trkpt><trkpt lat="44.907181811650226" lon="11.984891307518332"><ele>-5.0</ele><time>2026-03-23T15:29:26Z</time></trkpt><trkpt lat="44.907200695343" lon="11.98499063678332"><ele>-5.0</ele><time>2026-03-23T15:29:26.999Z</time></trkpt><trkpt lat="44.90721688588675" lon="11.985085653461473"><ele>-5.0</ele><time>2026-03-23T15:29:27.999Z</time></trkpt><trkpt lat="44.90723069689834" lon="11.985179022580008"><ele>-5.0</ele><time>2026-03-23T15:29:28.999Z</time></trkpt><trkpt lat="44.90725298891666" lon="11.985272384357156"><ele>-5.0</ele><time>2026-03-23T15:29:29.999Z</time></trkpt><trkpt lat="44.907265962566036" lon="11.985367899000394"><ele>-5.0</ele><time>2026-03-23T15:29:30.999Z</time></trkpt><trkpt lat="44.90728262088814" lon="11.985458441825127"><ele>-5.0</ele><time>2026-03-23T15:29:31.999Z</time></trkpt><trkpt lat="44.907300312123155" lon="11.985550440825115"><ele>-5.0</ele><time>2026-03-23T15:29:32.999Z</time></trkpt><trkpt lat="44.90731849237691" lon="11.98564374536183"><ele>-5.0</ele><time>2026-03-23T15:29:33.999Z</time></trkpt><trkpt lat="44.90733293387729" lon="11.985732645099796"><ele>-5.0</ele><time>2026-03-23T15:29:34.999Z</time></trkpt><trkpt lat="44.90734703148026" lon="11.985820836955982"><ele>-5.2</ele><time>2026-03-23T15:29:35.999Z</time></trkpt><trkpt lat="44.90737378789457" lon="11.985990664420624"><ele>-5.4</ele><time>2026-03-23T15:29:37.999Z</time></trkpt><trkpt lat="44.90740431183351" lon="11.986159575446088"><ele>-5.6</ele><time>2026-03-23T15:29:39.999Z</time></trkpt><trkpt lat="44.90743105587456" lon="11.986327065305083"><ele>-5.8</ele><time>2026-03-23T15:29:41.999Z</time></trkpt><trkpt lat="44.907443774844225" lon="11.986414642437246"><ele>-6.0</ele><time>2026-03-23T15:29:42.999Z</time></trkpt><trkpt lat="44.90747113382096" lon="11.986582045449184"><ele>-6.0</ele><time>2026-03-23T15:29:44.999Z</time></trkpt><trkpt lat="44.90748765600535" lon="11.986670287219074"><ele>-6.0</ele><time>2026-03-23T15:29:45.999Z</time></trkpt><trkpt lat="44.907515892009464" lon="11.98683989599995"><ele>-6.0</ele><time>2026-03-23T15:29:47.999Z</time></trkpt><trkpt lat="44.907544241399876" lon="11.98700082155634"><ele>-6.0</ele><time>2026-03-23T15:29:49.999Z</time></trkpt><trkpt lat="44.90757477520566" lon="11.987170914522629"><ele>-6.0</ele><time>2026-03-23T15:29:51.999Z</time></trkpt><trkpt lat="44.907601090616524" lon="11.987336795786618"><ele>-5.833333333333333</ele><time>2026-03-23T15:29:53.999Z</time></trkpt><trkpt lat="44.90763375778017" lon="11.98751169678202"><ele>-5.666666666666667</ele><time>2026-03-23T15:29:55.999Z</time></trkpt><trkpt lat="44.907648401239285" lon="11.987603203690622"><ele>-5.5</ele><time>2026-03-23T15:29:56.999Z</time></trkpt><trkpt lat="44.90766395530475" lon="11.987691126042556"><ele>-5.333333333333334</ele><time>2026-03-23T15:29:57.999Z</time></trkpt><trkpt lat="44.90768034752775" lon="11.987780049238914"><ele>-5.166666666666667</ele><time>2026-03-23T15:29:58.999Z</time></trkpt><trkpt lat="44.90769758189296" lon="11.987866558057046"><ele>-5.0</ele><time>2026-03-23T15:29:59.999Z</time></trkpt><trkpt lat="44.90771492647598" lon="11.987957303366983"><ele>-5.0</ele><time>2026-03-23T15:30:00.999Z</time></trkpt><trkpt lat="44.90773103368637" lon="11.988047120408552"><ele>-5.0</ele><time>2026-03-23T15:30:01.999Z</time></trkpt><trkpt lat="44.90774677968425" lon="11.988138011848525"><ele>-5.0</ele><time>2026-03-23T15:30:02.999Z</time></trkpt><trkpt lat="44.907762296502874" lon="11.988227915682504"><ele>-5.0</ele><time>2026-03-23T15:30:03.999Z</time></trkpt><trkpt lat="44.90777757106327" lon="11.988321400215801"><ele>-5.0</ele><time>2026-03-23T15:30:04.999Z</time></trkpt><trkpt lat="44.907794052125574" lon="11.988415496620558"><ele>-5.0</ele><time>2026-03-23T15:30:05.999Z</time></trkpt><trkpt lat="44.907812774403446" lon="11.98850603550606"><ele>-5.0</ele><time>2026-03-23T15:30:06.999Z</time></trkpt><trkpt lat="44.90783098891532" lon="11.98860232685462"><ele>-5.0</ele><time>2026-03-23T15:30:07.999Z</time></trkpt><trkpt lat="44.90784699081026" lon="11.988697759969938"><ele>-5.0</ele><time>2026-03-23T15:30:08.999Z</time></trkpt><trkpt lat="44.90786351697457" lon="11.988799214367472"><ele>-5.0</ele><time>2026-03-23T15:30:09.999Z</time></trkpt><trkpt lat="44.9078804262898" lon="11.988900383746666"><ele>-5.0</ele><time>2026-03-23T15:30:10.999Z</time></trkpt><trkpt lat="44.90789793154621" lon="11.988999671284805"><ele>-5.0</ele><time>2026-03-23T15:30:11.999Z</time></trkpt><trkpt lat="44.90791614454908" lon="11.989097152684892"><ele>-5.0</ele><time>2026-03-23T15:30:12.999Z</time></trkpt><trkpt lat="44.90793617844751" lon="11.989196190418491"><ele>-5.0</ele><time>2026-03-23T15:30:13.999Z</time></trkpt><trkpt lat="44.90795028856945" lon="11.989296772389892"><ele>-4.833333333333334</ele><time>2026-03-23T15:30:14.999Z</time></trkpt><trkpt lat="44.90796801981025" lon="11.989401227941427"><ele>-4.666666666666667</ele><time>2026-03-23T15:30:15.999Z</time></trkpt><trkpt lat="44.907984829854506" lon="11.989507599286348"><ele>-4.5</ele><time>2026-03-23T15:30:16.999Z</time></trkpt><trkpt lat="44.908006103857126" lon="11.989608817303393"><ele>-4.333333333333333</ele><time>2026-03-23T15:30:17.999Z</time></trkpt><trkpt lat="44.90802875159849" lon="11.989713557694538"><ele>-4.166666666666666</ele><time>2026-03-23T15:30:18.999Z</time></trkpt><trkpt lat="44.90804425928417" lon="11.989818813127183"><ele>-4.0</ele><time>2026-03-23T15:30:19.999Z</time></trkpt><trkpt lat="44.90806529090506" lon="11.989922625262837"><ele>-4.0</ele><time>2026-03-23T15:30:20.999Z</time></trkpt><trkpt lat="44.90808062634652" lon="11.990025075552694"><ele>-3.9999999999999996</ele><time>2026-03-23T15:30:21.999Z</time></trkpt><trkpt lat="44.9080974549748" lon="11.990127255551842"><ele>-4.0</ele><time>2026-03-23T15:30:22.999Z</time></trkpt><trkpt lat="44.90811349742919" lon="11.990228036238241"><ele>-4.0</ele><time>2026-03-23T15:30:23.999Z</time></trkpt><trkpt lat="44.9081340513333" lon="11.990332969646516"><ele>-3.9999999999999996</ele><time>2026-03-23T15:30:24.999Z</time></trkpt><trkpt lat="44.90814435720585" lon="11.990431044765636"><ele>-4.0</ele><time>2026-03-23T15:30:25.999Z</time></trkpt><trkpt lat="44.908155458598365" lon="11.990525144532873"><ele>-4.0</ele><time>2026-03-23T15:30:26.999Z</time></trkpt><trkpt lat="44.90817951806456" lon="11.990615671343711"><ele>-3.9999999999999996</ele><time>2026-03-23T15:30:27.999Z</time></trkpt><trkpt lat="44.90819694144238" lon="11.99070464120792"><ele>-4.0</ele><time>2026-03-23T15:30:28.999Z</time></trkpt><trkpt lat="44.90820912945643" lon="11.99079374038232"><ele>-4.0</ele><time>2026-03-23T15:30:29.999Z</time></trkpt><trkpt lat="44.90823505517496" lon="11.990953211364273"><ele>-4.0</ele><time>2026-03-23T15:30:31.999Z</time></trkpt><trkpt lat="44.908266151130825" lon="11.99105429157756"><ele>-3.9999999999999996</ele><time>2026-03-23T15:30:33.999Z</time></trkpt><trkpt lat="44.90837120766974" lon="11.991057560552171"><ele>-4.0</ele><time>2026-03-23T15:30:35.999Z</time></trkpt><trkpt lat="44.90844758581412" lon="11.991045806926223"><ele>-4.0</ele><time>2026-03-23T15:30:37.999Z</time></trkpt><trkpt lat="44.90855139145765" lon="11.991032226004672"><ele>-4.0</ele><time>2026-03-23T15:30:39.999Z</time></trkpt><trkpt lat="44.908656282066126" lon="11.991053503083004"><ele>-4.0</ele><time>2026-03-23T15:30:41.999Z</time></trkpt><trkpt lat="44.9087658292858" lon="11.991056342445807"><ele>-4.0</ele><time>2026-03-23T15:30:44Z</time></trkpt><trkpt lat="44.9088825859441" lon="11.991062164937187"><ele>-4.0</ele><time>2026-03-23T15:30:46Z</time></trkpt><trkpt lat="44.909006974745644" lon="11.991063253053897"><ele>-3.9999999999999996</ele><time>2026-03-23T15:30:48Z</time></trkpt><trkpt lat="44.90907259762714" lon="11.991064327941867"><ele>-4.0</ele><time>2026-03-23T15:30:49Z</time></trkpt><trkpt lat="44.90913550745075" lon="11.991073934532311"><ele>-4.0</ele><time>2026-03-23T15:30:50Z</time></trkpt><trkpt lat="44.90920347691289" lon="11.991071731149017"><ele>-4.0</ele><time>2026-03-23T15:30:51Z</time></trkpt><trkpt lat="44.909327133783506" lon="11.99108699680914"><ele>-3.9999999999999996</ele><time>2026-03-23T15:30:53Z</time></trkpt><trkpt lat="44.909393899308995" lon="11.991085305364853"><ele>-4.0</ele><time>2026-03-23T15:30:54Z</time></trkpt><trkpt lat="44.90946443351346" lon="11.991092873780264"><ele>-4.4</ele><time>2026-03-23T15:30:55Z</time></trkpt><trkpt lat="44.90952878032162" lon="11.991096698159291"><ele>-4.800000000000001</ele><time>2026-03-23T15:30:56Z</time></trkpt><trkpt lat="44.90959611113932" lon="11.991101776853123"><ele>-5.199999999999999</ele><time>2026-03-23T15:30:57Z</time></trkpt><trkpt lat="44.90972037988288" lon="11.991110089760204"><ele>-5.6</ele><time>2026-03-23T15:30:59Z</time></trkpt><trkpt lat="44.90984860454415" lon="11.991120014982545"><ele>-6.0</ele><time>2026-03-23T15:31:01Z</time></trkpt><trkpt lat="44.909918181561366" lon="11.991121448238383"><ele>-5.999999999999999</ele><time>2026-03-23T15:31:02Z</time></trkpt><trkpt lat="44.90998577946337" lon="11.991125650929165"><ele>-6.0</ele><time>2026-03-23T15:31:03Z</time></trkpt><trkpt lat="44.91005464223934" lon="11.991128972161302"><ele>-6.0</ele><time>2026-03-23T15:31:04Z</time></trkpt><trkpt lat="44.91011807011926" lon="11.991136203696739"><ele>-6.0</ele><time>2026-03-23T15:31:05Z</time></trkpt><trkpt lat="44.91018388572082" lon="11.991139733855375"><ele>-6.0</ele><time>2026-03-23T15:31:06Z</time></trkpt><trkpt lat="44.91025073613528" lon="11.991144007630082"><ele>-5.999999999999999</ele><time>2026-03-23T15:31:07Z</time></trkpt><trkpt lat="44.91031430555049" lon="11.991150252600434"><ele>-6.0</ele><time>2026-03-23T15:31:08Z</time></trkpt><trkpt lat="44.91038172573473" lon="11.991151822810474"><ele>-6.333333333333333</ele><time>2026-03-23T15:31:09Z</time></trkpt><trkpt lat="44.910451815733204" lon="11.991154338790965"><ele>-6.666666666666666</ele><time>2026-03-23T15:31:10Z</time></trkpt><trkpt lat="44.910519106372085" lon="11.991162038350659"><ele>-7.0</ele><time>2026-03-23T15:31:11Z</time></trkpt><trkpt lat="44.91059158288393" lon="11.991164322495257"><ele>-7.333333333333333</ele><time>2026-03-23T15:31:12Z</time></trkpt><trkpt lat="44.910663883756136" lon="11.991166411384242"><ele>-7.666666666666666</ele><time>2026-03-23T15:31:13Z</time></trkpt><trkpt lat="44.910729515371024" lon="11.99116849501508"><ele>-8.0</ele><time>2026-03-23T15:31:14Z</time></trkpt><trkpt lat="44.91084973686716" lon="11.99117766934718"><ele>-7.833333333333333</ele><time>2026-03-23T15:31:16Z</time></trkpt><trkpt lat="44.910962009474105" lon="11.991185403548348"><ele>-7.666666666666666</ele><time>2026-03-23T15:31:18Z</time></trkpt><trkpt lat="44.91108270712673" lon="11.991195300407053"><ele>-7.5</ele><time>2026-03-23T15:31:20Z</time></trkpt><trkpt lat="44.91114895995355" lon="11.991199199577622"><ele>-7.333333333333334</ele><time>2026-03-23T15:31:21Z</time></trkpt><trkpt lat="44.911212148777025" lon="11.99120027544196"><ele>-7.166666666666667</ele><time>2026-03-23T15:31:22Z</time></trkpt><trkpt lat="44.911278698906834" lon="11.991202798969345"><ele>-7.0</ele><time>2026-03-23T15:31:23Z</time></trkpt><trkpt lat="44.911344301388404" lon="11.991206585400525"><ele>-7.000000000000001</ele><time>2026-03-23T15:31:24Z</time></trkpt><trkpt lat="44.91146698739114" lon="11.991216673117904"><ele>-7.0</ele><time>2026-03-23T15:31:26Z</time></trkpt><trkpt lat="44.911531315369814" lon="11.991219094016273"><ele>-7.0</ele><time>2026-03-23T15:31:27Z</time></trkpt><trkpt lat="44.91159482795837" lon="11.991221994167093"><ele>-7.0</ele><time>2026-03-23T15:31:28Z</time></trkpt><trkpt lat="44.9116606543886" lon="11.99122938338123"><ele>-7.000000000000001</ele><time>2026-03-23T15:31:29Z</time></trkpt><trkpt lat="44.91179243193019" lon="11.991237084905544"><ele>-7.0</ele><time>2026-03-23T15:31:31Z</time></trkpt><trkpt lat="44.91185692795217" lon="11.991245237167874"><ele>-6.857142857142857</ele><time>2026-03-23T15:31:32Z</time></trkpt><trkpt lat="44.91192139314096" lon="11.99124107553226"><ele>-6.714285714285714</ele><time>2026-03-23T15:31:33Z</time></trkpt><trkpt lat="44.911985561263094" lon="11.991248623789796"><ele>-6.571428571428571</ele><time>2026-03-23T15:31:34Z</time></trkpt><trkpt lat="44.91205795847127" lon="11.991255662084983"><ele>-6.428571428571429</ele><time>2026-03-23T15:31:35Z</time></trkpt><trkpt lat="44.91212376996926" lon="11.991260797760422"><ele>-6.285714285714286</ele><time>2026-03-23T15:31:36Z</time></trkpt><trkpt lat="44.91218993948025" lon="11.991264761779517"><ele>-6.142857142857142</ele><time>2026-03-23T15:31:37Z</time></trkpt><trkpt lat="44.91225730559527" lon="11.991268521868802"><ele>-6.0</ele><time>2026-03-23T15:31:38Z</time></trkpt><trkpt lat="44.9123253732702" lon="11.991271971469635"><ele>-5.999999999999999</ele><time>2026-03-23T15:31:39Z</time></trkpt><trkpt lat="44.912393458856" lon="11.991274520838205"><ele>-6.0</ele><time>2026-03-23T15:31:40Z</time></trkpt><trkpt lat="44.91246047214682" lon="11.991284648353128"><ele>-6.0</ele><time>2026-03-23T15:31:41Z</time></trkpt><trkpt lat="44.91252849238507" lon="11.991280481739818"><ele>-6.0</ele><time>2026-03-23T15:31:42Z</time></trkpt><trkpt lat="44.912593556742166" lon="11.991289888270277"><ele>-6.0</ele><time>2026-03-23T15:31:43Z</time></trkpt><trkpt lat="44.91266035543402" lon="11.991291030432915"><ele>-5.999999999999999</ele><time>2026-03-23T15:31:44Z</time></trkpt><trkpt lat="44.91272465182123" lon="11.991296302092492"><ele>-6.0</ele><time>2026-03-23T15:31:45Z</time></trkpt><trkpt lat="44.91284972134362" lon="11.991303623635519"><ele>-5.8</ele><time>2026-03-23T15:31:47Z</time></trkpt><trkpt lat="44.91297303169655" lon="11.991307060391733"><ele>-5.6</ele><time>2026-03-23T15:31:49Z</time></trkpt><trkpt lat="44.91309698277222" lon="11.991309920090085"><ele>-5.4</ele><time>2026-03-23T15:31:51Z</time></trkpt><trkpt lat="44.9132042818056" lon="11.991314687662403"><ele>-5.2</ele><time>2026-03-23T15:31:52.999Z</time></trkpt><trkpt lat="44.91328920705321" lon="11.9913193844298"><ele>-5.0</ele><time>2026-03-23T15:31:54.999Z</time></trkpt><trkpt lat="44.913377940535426" lon="11.991312962745484"><ele>-5.0</ele><time>2026-03-23T15:31:56.999Z</time></trkpt><trkpt lat="44.91348391071864" lon="11.991320518925392"><ele>-5.0</ele><time>2026-03-23T15:31:58.999Z</time></trkpt><trkpt lat="44.91359832211845" lon="11.991319432228519"><ele>-5.0</ele><time>2026-03-23T15:32:00.999Z</time></trkpt><trkpt lat="44.913713645157365" lon="11.99131979979891"><ele>-5.0</ele><time>2026-03-23T15:32:02.999Z</time></trkpt><trkpt lat="44.91382510068264" lon="11.991324261090929"><ele>-5.0</ele><time>2026-03-23T15:32:04.999Z</time></trkpt><trkpt lat="44.91393651685636" lon="11.991321168488836"><ele>-5.0</ele><time>2026-03-23T15:32:06.999Z</time></trkpt><trkpt lat="44.91403711262297" lon="11.991321664850547"><ele>-5.0</ele><time>2026-03-23T15:32:08.999Z</time></trkpt><trkpt lat="44.91412398167621" lon="11.991323445897587"><ele>-5.0</ele><time>2026-03-23T15:32:10.999Z</time></trkpt><trkpt lat="44.914209133069996" lon="11.991318916969485"><ele>-5.0</ele><time>2026-03-23T15:32:12.999Z</time></trkpt><trkpt lat="44.91429955491309" lon="11.99131112353107"><ele>-5.0</ele><time>2026-03-23T15:32:14.999Z</time></trkpt><trkpt lat="44.91440393321983" lon="11.99133299164563"><ele>-4.75</ele><time>2026-03-23T15:32:16.999Z</time></trkpt><trkpt lat="44.914499849304214" lon="11.99130950261446"><ele>-4.5</ele><time>2026-03-23T15:32:18.999Z</time></trkpt><trkpt lat="44.91462180611974" lon="11.99132929730649"><ele>-4.25</ele><time>2026-03-23T15:32:20.999Z</time></trkpt><trkpt lat="44.91474399139353" lon="11.991307285859326"><ele>-4.0</ele><time>2026-03-23T15:32:22.999Z</time></trkpt><trkpt lat="44.91486392270784" lon="11.991307256610481"><ele>-4.0</ele><time>2026-03-23T15:32:24.999Z</time></trkpt><trkpt lat="44.914972636233536" lon="11.99130526139385"><ele>-4.0</ele><time>2026-03-23T15:32:26.999Z</time></trkpt><trkpt lat="44.915077769632916" lon="11.991300270736435"><ele>-4.0</ele><time>2026-03-23T15:32:28.999Z</time></trkpt><trkpt lat="44.91517815249225" lon="11.991308341226626"><ele>-4.0</ele><time>2026-03-23T15:32:30.999Z</time></trkpt><trkpt lat="44.91528410046945" lon="11.991311942244817"><ele>-4.0</ele><time>2026-03-23T15:32:32.999Z</time></trkpt><trkpt lat="44.91538453090236" lon="11.991301040234069"><ele>-4.2</ele><time>2026-03-23T15:32:34.999Z</time></trkpt><trkpt lat="44.9154982273896" lon="11.991314487499961"><ele>-4.4</ele><time>2026-03-23T15:32:36.999Z</time></trkpt><trkpt lat="44.91560592371349" lon="11.991294849197734"><ele>-4.6</ele><time>2026-03-23T15:32:38.999Z</time></trkpt><trkpt lat="44.91570699629745" lon="11.991288005502025"><ele>-4.8</ele><time>2026-03-23T15:32:40.999Z</time></trkpt><trkpt lat="44.91581971725036" lon="11.991309054950662"><ele>-5.0</ele><time>2026-03-23T15:32:42.999Z</time></trkpt><trkpt lat="44.91588384426636" lon="11.991307971330347"><ele>-5.2</ele><time>2026-03-23T15:32:43.999Z</time></trkpt><trkpt lat="44.91599920883736" lon="11.991288299793206"><ele>-5.4</ele><time>2026-03-23T15:32:45.999Z</time></trkpt><trkpt lat="44.91609125574992" lon="11.991303611446602"><ele>-5.6</ele><time>2026-03-23T15:32:47.999Z</time></trkpt><trkpt lat="44.916179855553864" lon="11.991304015175444"><ele>-5.8</ele><time>2026-03-23T15:32:50Z</time></trkpt><trkpt lat="44.91627668438798" lon="11.99129098830769"><ele>-6.0</ele><time>2026-03-23T15:32:52Z</time></trkpt><trkpt lat="44.91637420583022" lon="11.99128671592682"><ele>-6.0</ele><time>2026-03-23T15:32:54Z</time></trkpt><trkpt lat="44.91648158862249" lon="11.991294336512606"><ele>-6.0</ele><time>2026-03-23T15:32:56Z</time></trkpt><trkpt lat="44.916594351171234" lon="11.991292590224253"><ele>-6.0</ele><time>2026-03-23T15:32:58Z</time></trkpt><trkpt lat="44.91669201180196" lon="11.991298577036073"><ele>-6.0</ele><time>2026-03-23T15:33:00Z</time></trkpt><trkpt lat="44.91680602583116" lon="11.991298342524386"><ele>-6.0</ele><time>2026-03-23T15:33:02Z</time></trkpt><trkpt lat="44.91691998339675" lon="11.991284087924036"><ele>-6.25</ele><time>2026-03-23T15:33:04Z</time></trkpt><trkpt lat="44.91703252776569" lon="11.991284194394748"><ele>-6.5</ele><time>2026-03-23T15:33:06Z</time></trkpt><trkpt lat="44.91715555320471" lon="11.991283758301648"><ele>-6.75</ele><time>2026-03-23T15:33:08Z</time></trkpt><trkpt lat="44.91727423232321" lon="11.991279975240019"><ele>-7.0</ele><time>2026-03-23T15:33:10Z</time></trkpt><trkpt lat="44.91738122536991" lon="11.991272769196359"><ele>-7.0</ele><time>2026-03-23T15:33:12Z</time></trkpt><trkpt lat="44.91748410871563" lon="11.991277269888743"><ele>-7.0</ele><time>2026-03-23T15:33:14Z</time></trkpt><trkpt lat="44.917589353696215" lon="11.991287737269017"><ele>-7.0</ele><time>2026-03-23T15:33:16Z</time></trkpt><trkpt lat="44.917706120587795" lon="11.991285814825318"><ele>-7.0</ele><time>2026-03-23T15:33:18Z</time></trkpt><trkpt lat="44.917830990151536" lon="11.99128375898229"><ele>-7.25</ele><time>2026-03-23T15:33:20Z</time></trkpt><trkpt lat="44.917946694810695" lon="11.991281887511288"><ele>-7.5</ele><time>2026-03-23T15:33:22Z</time></trkpt><trkpt lat="44.9180508882675" lon="11.991280503730005"><ele>-7.75</ele><time>2026-03-23T15:33:24Z</time></trkpt><trkpt lat="44.91816984965526" lon="11.991279052428007"><ele>-8.0</ele><time>2026-03-23T15:33:26Z</time></trkpt><trkpt lat="44.91829722115739" lon="11.991277899357662"><ele>-7.666666666666666</ele><time>2026-03-23T15:33:28Z</time></trkpt><trkpt lat="44.91842297051048" lon="11.991276760973985"><ele>-7.333333333333333</ele><time>2026-03-23T15:33:30Z</time></trkpt><trkpt lat="44.918486941586494" lon="11.99127618185639"><ele>-7.0</ele><time>2026-03-23T15:33:31Z</time></trkpt><trkpt lat="44.91855056517581" lon="11.991275605884226"><ele>-6.666666666666666</ele><time>2026-03-23T15:33:32Z</time></trkpt><trkpt lat="44.91861831944248" lon="11.991267154481397"><ele>-6.333333333333333</ele><time>2026-03-23T15:33:33Z</time></trkpt><trkpt lat="44.9186886205481" lon="11.991256483386723"><ele>-6.0</ele><time>2026-03-23T15:33:34Z</time></trkpt><trkpt lat="44.91875689968302" lon="11.991273532612222"><ele>-5.999999999999999</ele><time>2026-03-23T15:33:35Z</time></trkpt><trkpt lat="44.918822070681344" lon="11.991272303316713"><ele>-6.0</ele><time>2026-03-23T15:33:36Z</time></trkpt><trkpt lat="44.91889046791408" lon="11.99127101316612"><ele>-6.0</ele><time>2026-03-23T15:33:37Z</time></trkpt><trkpt lat="44.91895765735818" lon="11.991247778312244"><ele>-6.0</ele><time>2026-03-23T15:33:38Z</time></trkpt><trkpt lat="44.91902139024952" lon="11.991268545517933"><ele>-6.0</ele><time>2026-03-23T15:33:39Z</time></trkpt><trkpt lat="44.919087068756376" lon="11.991267306652244"><ele>-5.999999999999999</ele><time>2026-03-23T15:33:40Z</time></trkpt><trkpt lat="44.91915297308486" lon="11.991266063520335"><ele>-6.0</ele><time>2026-03-23T15:33:41Z</time></trkpt><trkpt lat="44.919222480945436" lon="11.991264752429222"><ele>-6.142857142857142</ele><time>2026-03-23T15:33:42Z</time></trkpt><trkpt lat="44.91928746295793" lon="11.9912635266953"><ele>-6.285714285714286</ele><time>2026-03-23T15:33:43Z</time></trkpt><trkpt lat="44.919356645119855" lon="11.991262221738786"><ele>-6.428571428571429</ele><time>2026-03-23T15:33:44Z</time></trkpt><trkpt lat="44.91942595927179" lon="11.99123773574042"><ele>-6.571428571428571</ele><time>2026-03-23T15:33:45Z</time></trkpt><trkpt lat="44.91949400178373" lon="11.99125963083194"><ele>-6.714285714285714</ele><time>2026-03-23T15:33:46Z</time></trkpt><trkpt lat="44.91956515589204" lon="11.99125828867786"><ele>-6.857142857142857</ele><time>2026-03-23T15:33:47Z</time></trkpt><trkpt lat="44.91963720928993" lon="11.991256929567248"><ele>-7.0</ele><time>2026-03-23T15:33:48Z</time></trkpt><trkpt lat="44.919709579225255" lon="11.991255564479456"><ele>-7.0</ele><time>2026-03-23T15:33:49Z</time></trkpt><trkpt lat="44.91978292261297" lon="11.991254181028998"><ele>-7.0</ele><time>2026-03-23T15:33:50Z</time></trkpt><trkpt lat="44.91984969232667" lon="11.991231628542995"><ele>-7.0</ele><time>2026-03-23T15:33:51Z</time></trkpt><trkpt lat="44.919923521878445" lon="11.991251528952784"><ele>-7.0</ele><time>2026-03-23T15:33:52Z</time></trkpt><trkpt lat="44.91999328264202" lon="11.99125021309701"><ele>-7.0</ele><time>2026-03-23T15:33:53Z</time></trkpt><trkpt lat="44.92006876010541" lon="11.991248789382828"><ele>-7.0</ele><time>2026-03-23T15:33:54Z</time></trkpt><trkpt lat="44.92013978121616" lon="11.991247449739818"><ele>-7.0</ele><time>2026-03-23T15:33:55Z</time></trkpt><trkpt lat="44.920209712784896" lon="11.991246257808987"><ele>-6.857142857142857</ele><time>2026-03-23T15:33:56Z</time></trkpt><trkpt lat="44.920284210238876" lon="11.99124503165548"><ele>-6.714285714285714</ele><time>2026-03-23T15:33:57Z</time></trkpt><trkpt lat="44.92035486962387" lon="11.991243868671907"><ele>-6.571428571428571</ele><time>2026-03-23T15:33:57.999Z</time></trkpt><trkpt lat="44.920426783090065" lon="11.991242685048656"><ele>-6.428571428571429</ele><time>2026-03-23T15:33:58.999Z</time></trkpt><trkpt lat="44.92049399571787" lon="11.991241578797247"><ele>-6.285714285714286</ele><time>2026-03-23T15:33:59.999Z</time></trkpt><trkpt lat="44.920557363399006" lon="11.991240535828078"><ele>-6.142857142857142</ele><time>2026-03-23T15:34:00.999Z</time></trkpt><trkpt lat="44.92062036313116" lon="11.991239498912586"><ele>-6.0</ele><time>2026-03-23T15:34:01.999Z</time></trkpt><trkpt lat="44.92074664679878" lon="11.991237420412574"><ele>-6.0</ele><time>2026-03-23T15:34:03.999Z</time></trkpt><trkpt lat="44.920859359534866" lon="11.991237354190282"><ele>-6.0</ele><time>2026-03-23T15:34:05.999Z</time></trkpt><trkpt lat="44.92095787410658" lon="11.991235070709099"><ele>-6.0</ele><time>2026-03-23T15:34:07.999Z</time></trkpt><trkpt lat="44.92103169649002" lon="11.991235444981449"><ele>-6.0</ele><time>2026-03-23T15:34:09.999Z</time></trkpt><trkpt lat="44.92111787196369" lon="11.991213690489284"><ele>-6.0</ele><time>2026-03-23T15:44:12Z</time></trkpt><trkpt lat="44.92120084055188" lon="11.991205302001864"><ele>-6.0</ele><time>2026-03-23T15:44:15Z</time></trkpt><trkpt lat="44.92127949863859" lon="11.991223449003972"><ele>-6.0</ele><time>2026-03-23T15:44:17Z</time></trkpt><trkpt lat="44.921379311129485" lon="11.991229740005917"><ele>-6.0</ele><time>2026-03-23T15:44:19Z</time></trkpt><trkpt lat="44.92147763537322" lon="11.991215386440054"><ele>-6.0</ele><time>2026-03-23T15:44:20.999Z</time></trkpt><trkpt lat="44.92158430449358" lon="11.991212719661098"><ele>-6.0</ele><time>2026-03-23T15:44:22.999Z</time></trkpt><trkpt lat="44.92169130692934" lon="11.991220641524595"><ele>-6.0</ele><time>2026-03-23T15:44:24.999Z</time></trkpt><trkpt lat="44.92178348595505" lon="11.991233865045846"><ele>-6.0</ele><time>2026-03-23T15:44:26.999Z</time></trkpt><trkpt lat="44.92188804939502" lon="11.991229676235397"><ele>-6.0</ele><time>2026-03-23T15:44:28.999Z</time></trkpt><trkpt lat="44.92198695335812" lon="11.99122742354588"><ele>-6.0</ele><time>2026-03-23T15:44:30.999Z</time></trkpt><trkpt lat="44.92208881121444" lon="11.99123090677159"><ele>-6.0</ele><time>2026-03-23T15:44:32.999Z</time></trkpt><trkpt lat="44.92218311790102" lon="11.991223902247663"><ele>-6.0</ele><time>2026-03-23T15:44:34.999Z</time></trkpt><trkpt lat="44.92226715452208" lon="11.991211903931376"><ele>-6.0</ele><time>2026-03-23T15:44:36.999Z</time></trkpt><trkpt lat="44.92236016625735" lon="11.991216855577441"><ele>-6.0</ele><time>2026-03-23T15:44:38.999Z</time></trkpt><trkpt lat="44.92244865164893" lon="11.991215093849345"><ele>-6.0</ele><time>2026-03-23T15:44:40.999Z</time></trkpt><trkpt lat="44.92252770786833" lon="11.99121526325421"><ele>-6.0</ele><time>2026-03-23T15:44:42.999Z</time></trkpt><trkpt lat="44.92260122100776" lon="11.99121042083434"><ele>-6.0</ele><time>2026-03-23T15:44:44.999Z</time></trkpt><trkpt lat="44.92267699470528" lon="11.991206594714619"><ele>-6.199999999999999</ele><time>2026-03-23T15:44:46.999Z</time></trkpt><trkpt lat="44.922762260937134" lon="11.991216391241313"><ele>-6.3999999999999995</ele><time>2026-03-23T15:44:48.999Z</time></trkpt><trkpt lat="44.9228632583591" lon="11.991215560642186"><ele>-6.6</ele><time>2026-03-23T15:44:50.999Z</time></trkpt><trkpt lat="44.92296363136828" lon="11.991208387231712"><ele>-6.8</ele><time>2026-03-23T15:44:52.999Z</time></trkpt><trkpt lat="44.92305738739715" lon="11.991206312713802"><ele>-7.0</ele><time>2026-03-23T15:44:54.999Z</time></trkpt><trkpt lat="44.92315776057856" lon="11.991208295623453"><ele>-7.0</ele><time>2026-03-23T15:44:56.999Z</time></trkpt><trkpt lat="44.923263940878826" lon="11.991205057949477"><ele>-6.999999999999999</ele><time>2026-03-23T15:44:58.999Z</time></trkpt><trkpt lat="44.92336611411945" lon="11.991206987494303"><ele>-6.999999999999999</ele><time>2026-03-23T15:45:00.999Z</time></trkpt><trkpt lat="44.92346886005956" lon="11.991205679871685"><ele>-7.0</ele><time>2026-03-23T15:45:02.999Z</time></trkpt><trkpt lat="44.92356827138408" lon="11.991202613358102"><ele>-7.0</ele><time>2026-03-23T15:45:04.999Z</time></trkpt><trkpt lat="44.92367043768186" lon="11.9912040877972"><ele>-7.0</ele><time>2026-03-23T15:45:06.999Z</time></trkpt><trkpt lat="44.92378557697464" lon="11.991189647986497"><ele>-6.999999999999999</ele><time>2026-03-23T15:45:08.999Z</time></trkpt><trkpt lat="44.92389536635717" lon="11.991197793149086"><ele>-6.999999999999999</ele><time>2026-03-23T15:45:10.999Z</time></trkpt><trkpt lat="44.924009798827065" lon="11.991196250178561"><ele>-7.0</ele><time>2026-03-23T15:45:12.999Z</time></trkpt><trkpt lat="44.92411265712389" lon="11.991199439785545"><ele>-7.0</ele><time>2026-03-23T15:45:14.999Z</time></trkpt><trkpt lat="44.92420574304923" lon="11.991200485991712"><ele>-7.0</ele><time>2026-03-23T15:45:16.999Z</time></trkpt><trkpt lat="44.92428693424763" lon="11.991202827435952"><ele>-7.0</ele><time>2026-03-23T15:45:18.999Z</time></trkpt><trkpt lat="44.924363452615566" lon="11.991196931725675"><ele>-7.0</ele><time>2026-03-23T15:45:20.999Z</time></trkpt><trkpt lat="44.924415314990604" lon="11.991123719764495"><ele>-7.0</ele><time>2026-03-23T15:45:22.999Z</time></trkpt><trkpt lat="44.92445238201212" lon="11.991038509500381"><ele>-7.0</ele><time>2026-03-23T15:45:25Z</time></trkpt><trkpt lat="44.924454523468874" lon="11.99094295140891"><ele>-7.0</ele><time>2026-03-23T15:45:27Z</time></trkpt><trkpt lat="44.92444127131903" lon="11.990840818834952"><ele>-7.0</ele><time>2026-03-23T15:45:29Z</time></trkpt><trkpt lat="44.92443936892282" lon="11.99072768244811"><ele>-7.0</ele><time>2026-03-23T15:45:31Z</time></trkpt><trkpt lat="44.92443409059764" lon="11.990605368361727"><ele>-6.999999999999999</ele><time>2026-03-23T15:45:33Z</time></trkpt><trkpt lat="44.92443247746905" lon="11.990463381011446"><ele>-6.999999999999999</ele><time>2026-03-23T15:45:35Z</time></trkpt><trkpt lat="44.924433010667045" lon="11.990311504168776"><ele>-7.0</ele><time>2026-03-23T15:45:37Z</time></trkpt><trkpt lat="44.92442731973546" lon="11.99015561769198"><ele>-7.0</ele><time>2026-03-23T15:45:39Z</time></trkpt><trkpt lat="44.924424657749825" lon="11.990000716964056"><ele>-7.0</ele><time>2026-03-23T15:45:41Z</time></trkpt><trkpt lat="44.92441871406116" lon="11.989829610657518"><ele>-7.0</ele><time>2026-03-23T15:45:43Z</time></trkpt><trkpt lat="44.92440920827538" lon="11.989669020593018"><ele>-7.0</ele><time>2026-03-23T15:45:45Z</time></trkpt><trkpt lat="44.92441025285382" lon="11.989501735555814"><ele>-7.0</ele><time>2026-03-23T15:45:47Z</time></trkpt><trkpt lat="44.92441038357315" lon="11.989337291563716"><ele>-7.0</ele><time>2026-03-23T15:45:49Z</time></trkpt><trkpt lat="44.92441058098944" lon="11.989180672150933"><ele>-6.999999999999999</ele><time>2026-03-23T15:45:51Z</time></trkpt><trkpt lat="44.92441024900852" lon="11.989022563817578"><ele>-6.999999999999999</ele><time>2026-03-23T15:45:53Z</time></trkpt><trkpt lat="44.924408337505724" lon="11.988865560230991"><ele>-7.0</ele><time>2026-03-23T15:45:55Z</time></trkpt><trkpt lat="44.92443416482641" lon="11.988720202065299"><ele>-7.0</ele><time>2026-03-23T15:45:57Z</time></trkpt><trkpt lat="44.924431593520374" lon="11.98858304535728"><ele>-6.0</ele><time>2026-03-23T15:45:59Z</time></trkpt><trkpt lat="44.92442952786959" lon="11.988472860944233"><ele>-6.0</ele><time>2026-03-23T15:46:01Z</time></trkpt><trkpt lat="44.92432114947443" lon="11.988455237535003"><ele>-6.0</ele><time>2026-03-23T15:46:03Z</time></trkpt><trkpt lat="44.92424171163729" lon="11.988471844609082"><ele>-6.0</ele><time>2026-03-23T15:46:05Z</time></trkpt><trkpt lat="44.924172692854704" lon="11.988473894221165"><ele>-6.0</ele><time>2026-03-23T15:46:07Z</time></trkpt><trkpt lat="44.924237398874446" lon="11.988448535316397"><ele>-6.0</ele><time>2026-03-23T15:46:13Z</time></trkpt></trkseg></trk></gpx>